<?xml version='1.0' encoding='UTF-8'?><gpx version="1.1" creator="JPX - https://github.com/jenetics/jpx" xmlns="http://www.topografix.com/GPX/1/1"><trk><trkseg><trkpt lat="42.9249445" lon="10.7549524"><ele>11.0</ele><time>2026-05-03T07:19:33.774Z</time></trkpt><trkpt lat="42.9248637" lon="10.7548967"><ele>11.0</ele><time>2026-05-03T07:19:35.765Z</time></trkpt><trkpt lat="42.9247681" lon="10.7548552"><ele>11.0</ele><time>2026-05-03T07:19:37.77Z</time></trkpt><trkpt lat="42.9246727" lon="10.7548201"><ele>11.0</ele><time>2026-05-03T07:19:39.759Z</time></trkpt><trkpt lat="42.9245963" lon="10.7548003"><ele>11.0</ele><time>2026-05-03T07:19:41.765Z</time></trkpt><trkpt lat="42.9245265" lon="10.7548121"><ele>11.0</ele><time>2026-05-03T07:19:43.768Z</time></trkpt><trkpt lat="42.9244891" lon="10.7547387"><ele>11.0</ele><time>2026-05-03T07:35:38.755Z</time></trkpt><trkpt lat="42.9244415" lon="10.754808"><ele>11.0</ele><time>2026-05-03T07:35:54.749Z</time></trkpt><trkpt lat="42.9244099" lon="10.7547319"><ele>11.0</ele><time>2026-05-03T07:35:59.766Z</time></trkpt><trkpt lat="42.9243403" lon="10.7546907"><ele>11.0</ele><time>2026-05-03T07:36:01.763Z</time></trkpt><trkpt lat="42.9242268" lon="10.7546387"><ele>11.0</ele><time>2026-05-03T07:36:03.757Z</time></trkpt><trkpt lat="42.9241046" lon="10.7545945"><ele>11.0</ele><time>2026-05-03T07:36:05.78Z</time></trkpt><trkpt lat="42.9240415" lon="10.7545687"><ele>11.0</ele><time>2026-05-03T07:36:06.767Z</time></trkpt><trkpt lat="42.9239644" lon="10.7545482"><ele>11.0</ele><time>2026-05-03T07:36:07.777Z</time></trkpt><trkpt lat="42.9238872" lon="10.7545129"><ele>11.0</ele><time>2026-05-03T07:36:08.772Z</time></trkpt><trkpt lat="42.9238074" lon="10.7544755"><ele>11.0</ele><time>2026-05-03T07:36:09.766Z</time></trkpt><trkpt lat="42.923727" lon="10.7544382"><ele>11.0</ele><time>2026-05-03T07:36:10.767Z</time></trkpt><trkpt lat="42.9236478" lon="10.7543924"><ele>11.0</ele><time>2026-05-03T07:36:11.765Z</time></trkpt><trkpt lat="42.9235691" lon="10.754336"><ele>11.0</ele><time>2026-05-03T07:36:12.77Z</time></trkpt><trkpt lat="42.9235039" lon="10.754294"><ele>11.0</ele><time>2026-05-03T07:36:13.757Z</time></trkpt><trkpt lat="42.9234115" lon="10.7542403"><ele>11.0</ele><time>2026-05-03T07:36:15.768Z</time></trkpt><trkpt lat="42.92335" lon="10.7542151"><ele>11.0</ele><time>2026-05-03T07:36:18.766Z</time></trkpt><trkpt lat="42.9232993" lon="10.7541588"><ele>11.0</ele><time>2026-05-03T07:36:54.765Z</time></trkpt><trkpt lat="42.923279" lon="10.7542489"><ele>11.0</ele><time>2026-05-03T07:36:58.751Z</time></trkpt><trkpt lat="42.9233293" lon="10.7543212"><ele>11.0</ele><time>2026-05-03T07:37:00.753Z</time></trkpt><trkpt lat="42.9233969" lon="10.7544512"><ele>11.0</ele><time>2026-05-03T07:37:02.763Z</time></trkpt><trkpt lat="42.9234644" lon="10.7546091"><ele>11.0</ele><time>2026-05-03T07:37:04.775Z</time></trkpt><trkpt lat="42.9235023" lon="10.7546987"><ele>11.0</ele><time>2026-05-03T07:37:05.779Z</time></trkpt><trkpt lat="42.9235517" lon="10.7547846"><ele>11.0</ele><time>2026-05-03T07:37:06.757Z</time></trkpt><trkpt lat="42.923603" lon="10.7548612"><ele>11.0</ele><time>2026-05-03T07:37:07.76Z</time></trkpt><trkpt lat="42.9236554" lon="10.7549488"><ele>11.0</ele><time>2026-05-03T07:37:08.752Z</time></trkpt><trkpt lat="42.9237062" lon="10.7550396"><ele>11.0</ele><time>2026-05-03T07:37:09.757Z</time></trkpt><trkpt lat="42.9237558" lon="10.7551268"><ele>11.0</ele><time>2026-05-03T07:37:10.753Z</time></trkpt><trkpt lat="42.9237973" lon="10.755209"><ele>11.0</ele><time>2026-05-03T07:37:11.761Z</time></trkpt><trkpt lat="42.9238341" lon="10.75528"><ele>11.0</ele><time>2026-05-03T07:37:12.757Z</time></trkpt><trkpt lat="42.9238877" lon="10.7554135"><ele>11.0</ele><time>2026-05-03T07:37:14.769Z</time></trkpt><trkpt lat="42.9239195" lon="10.7555032"><ele>11.0</ele><time>2026-05-03T07:37:15.763Z</time></trkpt><trkpt lat="42.9239522" lon="10.7555987"><ele>11.0</ele><time>2026-05-03T07:37:16.75Z</time></trkpt><trkpt lat="42.9239902" lon="10.7556903"><ele>11.0</ele><time>2026-05-03T07:37:17.76Z</time></trkpt><trkpt lat="42.9240319" lon="10.7557884"><ele>11.0</ele><time>2026-05-03T07:37:18.76Z</time></trkpt><trkpt lat="42.9240695" lon="10.7558763"><ele>11.0</ele><time>2026-05-03T07:37:19.76Z</time></trkpt><trkpt lat="42.9241389" lon="10.7560215"><ele>11.0</ele><time>2026-05-03T07:37:21.759Z</time></trkpt><trkpt lat="42.9241781" lon="10.7560895"><ele>11.0</ele><time>2026-05-03T07:37:22.759Z</time></trkpt><trkpt lat="42.9242307" lon="10.7562269"><ele>11.0</ele><time>2026-05-03T07:37:24.754Z</time></trkpt><trkpt lat="42.9242091" lon="10.7563269"><ele>11.0</ele><time>2026-05-03T07:37:26.752Z</time></trkpt><trkpt lat="42.9241331" lon="10.7563949"><ele>11.166666666666666</ele><time>2026-05-03T07:37:28.76Z</time></trkpt><trkpt lat="42.9240599" lon="10.7564633"><ele>11.333333333333332</ele><time>2026-05-03T07:37:30.756Z</time></trkpt><trkpt lat="42.9239877" lon="10.7565341"><ele>11.5</ele><time>2026-05-03T07:37:32.76Z</time></trkpt><trkpt lat="42.9239126" lon="10.7565963"><ele>11.666666666666666</ele><time>2026-05-03T07:37:34.75Z</time></trkpt><trkpt lat="42.9238414" lon="10.7566529"><ele>11.833333333333334</ele><time>2026-05-03T07:37:36.755Z</time></trkpt><trkpt lat="42.9237719" lon="10.7567079"><ele>12.0</ele><time>2026-05-03T07:37:38.767Z</time></trkpt><trkpt lat="42.9236974" lon="10.7567584"><ele>12.0</ele><time>2026-05-03T07:37:40.762Z</time></trkpt><trkpt lat="42.9236103" lon="10.7568269"><ele>12.0</ele><time>2026-05-03T07:37:42.755Z</time></trkpt><trkpt lat="42.9235739" lon="10.7569335"><ele>12.0</ele><time>2026-05-03T07:37:44.773Z</time></trkpt><trkpt lat="42.9236173" lon="10.7570433"><ele>12.0</ele><time>2026-05-03T07:37:46.756Z</time></trkpt><trkpt lat="42.9236746" lon="10.7571437"><ele>12.0</ele><time>2026-05-03T07:37:48.756Z</time></trkpt><trkpt lat="42.9237382" lon="10.7572539"><ele>11.75</ele><time>2026-05-03T07:37:50.751Z</time></trkpt><trkpt lat="42.9238022" lon="10.757395"><ele>11.5</ele><time>2026-05-03T07:37:52.753Z</time></trkpt><trkpt lat="42.9238702" lon="10.7575307"><ele>11.25</ele><time>2026-05-03T07:37:54.752Z</time></trkpt><trkpt lat="42.9239322" lon="10.7576569"><ele>11.0</ele><time>2026-05-03T07:37:56.762Z</time></trkpt><trkpt lat="42.9239814" lon="10.7577767"><ele>10.857142857142858</ele><time>2026-05-03T07:37:58.765Z</time></trkpt><trkpt lat="42.9240139" lon="10.7578614"><ele>10.714285714285714</ele><time>2026-05-03T07:38:02.768Z</time></trkpt><trkpt lat="42.9240557" lon="10.7579273"><ele>10.571428571428571</ele><time>2026-05-03T07:38:08.762Z</time></trkpt><trkpt lat="42.9240188" lon="10.7578474"><ele>10.428571428571429</ele><time>2026-05-03T07:38:22.756Z</time></trkpt><trkpt lat="42.92398" lon="10.7577677"><ele>10.285714285714286</ele><time>2026-05-03T07:38:24.763Z</time></trkpt><trkpt lat="42.9240087" lon="10.7578593"><ele>10.142857142857142</ele><time>2026-05-03T07:38:30.751Z</time></trkpt><trkpt lat="42.9240696" lon="10.7578892"><ele>10.0</ele><time>2026-05-03T07:38:33.758Z</time></trkpt><trkpt lat="42.924159" lon="10.7578374"><ele>10.4</ele><time>2026-05-03T07:38:35.758Z</time></trkpt><trkpt lat="42.9242592" lon="10.7577381"><ele>10.8</ele><time>2026-05-03T07:38:37.763Z</time></trkpt><trkpt lat="42.9243172" lon="10.7576758"><ele>11.2</ele><time>2026-05-03T07:38:38.763Z</time></trkpt><trkpt lat="42.9243746" lon="10.7576114"><ele>11.6</ele><time>2026-05-03T07:38:39.767Z</time></trkpt><trkpt lat="42.9244504" lon="10.7575473"><ele>12.0</ele><time>2026-05-03T07:38:41.764Z</time></trkpt><trkpt lat="42.9245209" lon="10.7576459"><ele>12.0</ele><time>2026-05-03T07:38:44.745Z</time></trkpt><trkpt lat="42.9245579" lon="10.7577364"><ele>12.0</ele><time>2026-05-03T07:38:45.77Z</time></trkpt><trkpt lat="42.9246002" lon="10.7578404"><ele>12.0</ele><time>2026-05-03T07:38:46.764Z</time></trkpt><trkpt lat="42.9246488" lon="10.7579351"><ele>12.0</ele><time>2026-05-03T07:38:47.758Z</time></trkpt><trkpt lat="42.9246943" lon="10.758022"><ele>12.0</ele><time>2026-05-03T07:38:48.757Z</time></trkpt><trkpt lat="42.9247528" lon="10.7581428"><ele>12.0</ele><time>2026-05-03T07:38:50.767Z</time></trkpt><trkpt lat="42.9248036" lon="10.7582276"><ele>12.0</ele><time>2026-05-03T07:38:53.751Z</time></trkpt><trkpt lat="42.9248499" lon="10.7583221"><ele>12.0</ele><time>2026-05-03T07:38:55.769Z</time></trkpt><trkpt lat="42.9248808" lon="10.7584019"><ele>12.0</ele><time>2026-05-03T07:38:56.768Z</time></trkpt><trkpt lat="42.924917" lon="10.7584867"><ele>12.0</ele><time>2026-05-03T07:38:57.768Z</time></trkpt><trkpt lat="42.9249576" lon="10.7585798"><ele>12.0</ele><time>2026-05-03T07:38:58.763Z</time></trkpt><trkpt lat="42.9249999" lon="10.7586714"><ele>12.0</ele><time>2026-05-03T07:38:59.763Z</time></trkpt><trkpt lat="42.9250417" lon="10.7587594"><ele>11.833333333333334</ele><time>2026-05-03T07:39:00.748Z</time></trkpt><trkpt lat="42.9250765" lon="10.7588325"><ele>11.666666666666666</ele><time>2026-05-03T07:39:01.764Z</time></trkpt><trkpt lat="42.9251107" lon="10.7589326"><ele>11.5</ele><time>2026-05-03T07:39:03.759Z</time></trkpt><trkpt lat="42.9251443" lon="10.7590293"><ele>11.333333333333332</ele><time>2026-05-03T07:39:07.764Z</time></trkpt><trkpt lat="42.9250763" lon="10.7591278"><ele>11.166666666666666</ele><time>2026-05-03T07:39:09.767Z</time></trkpt><trkpt lat="42.9250259" lon="10.7591881"><ele>11.0</ele><time>2026-05-03T07:39:10.767Z</time></trkpt><trkpt lat="42.9249718" lon="10.7592451"><ele>11.0</ele><time>2026-05-03T07:39:11.751Z</time></trkpt><trkpt lat="42.9249058" lon="10.7592968"><ele>11.0</ele><time>2026-05-03T07:39:12.762Z</time></trkpt><trkpt lat="42.9248091" lon="10.759384"><ele>11.0</ele><time>2026-05-03T07:39:14.753Z</time></trkpt><trkpt lat="42.9247104" lon="10.7594621"><ele>11.0</ele><time>2026-05-03T07:39:16.756Z</time></trkpt><trkpt lat="42.9246527" lon="10.7595124"><ele>11.0</ele><time>2026-05-03T07:39:17.763Z</time></trkpt><trkpt lat="42.9245925" lon="10.7595616"><ele>11.0</ele><time>2026-05-03T07:39:18.759Z</time></trkpt><trkpt lat="42.9245315" lon="10.7596054"><ele>11.0</ele><time>2026-05-03T07:39:19.758Z</time></trkpt><trkpt lat="42.9244531" lon="10.7596663"><ele>11.0</ele><time>2026-05-03T07:39:21.759Z</time></trkpt><trkpt lat="42.9244343" lon="10.7597634"><ele>11.0</ele><time>2026-05-03T07:39:24.764Z</time></trkpt><trkpt lat="42.9245155" lon="10.7599016"><ele>11.0</ele><time>2026-05-03T07:39:26.767Z</time></trkpt><trkpt lat="42.9245598" lon="10.7599912"><ele>11.0</ele><time>2026-05-03T07:39:27.756Z</time></trkpt><trkpt lat="42.9246088" lon="10.7600799"><ele>11.0</ele><time>2026-05-03T07:39:28.76Z</time></trkpt><trkpt lat="42.9246598" lon="10.7601755"><ele>11.0</ele><time>2026-05-03T07:39:29.758Z</time></trkpt><trkpt lat="42.9247066" lon="10.7602783"><ele>11.0</ele><time>2026-05-03T07:39:30.753Z</time></trkpt><trkpt lat="42.9247561" lon="10.7603897"><ele>11.0</ele><time>2026-05-03T07:39:31.756Z</time></trkpt><trkpt lat="42.9248126" lon="10.7605055"><ele>11.0</ele><time>2026-05-03T07:39:32.759Z</time></trkpt><trkpt lat="42.9248635" lon="10.7606221"><ele>10.8</ele><time>2026-05-03T07:39:33.766Z</time></trkpt><trkpt lat="42.9249164" lon="10.7607386"><ele>10.600000000000001</ele><time>2026-05-03T07:39:34.763Z</time></trkpt><trkpt lat="42.9249748" lon="10.7608528"><ele>10.4</ele><time>2026-05-03T07:39:35.759Z</time></trkpt><trkpt lat="42.9250346" lon="10.7609712"><ele>10.2</ele><time>2026-05-03T07:39:36.756Z</time></trkpt><trkpt lat="42.9250913" lon="10.7610902"><ele>10.0</ele><time>2026-05-03T07:39:37.76Z</time></trkpt><trkpt lat="42.9251442" lon="10.7612056"><ele>10.0</ele><time>2026-05-03T07:39:38.759Z</time></trkpt><trkpt lat="42.9251972" lon="10.7613189"><ele>10.0</ele><time>2026-05-03T07:39:39.762Z</time></trkpt><trkpt lat="42.9252459" lon="10.761414"><ele>10.0</ele><time>2026-05-03T07:39:40.75Z</time></trkpt><trkpt lat="42.9252833" lon="10.761505"><ele>10.0</ele><time>2026-05-03T07:39:41.764Z</time></trkpt><trkpt lat="42.92532" lon="10.761591"><ele>10.0</ele><time>2026-05-03T07:39:42.762Z</time></trkpt><trkpt lat="42.9253562" lon="10.7616736"><ele>10.0</ele><time>2026-05-03T07:39:43.764Z</time></trkpt><trkpt lat="42.9253926" lon="10.761753"><ele>10.0</ele><time>2026-05-03T07:39:44.747Z</time></trkpt><trkpt lat="42.925439" lon="10.7618562"><ele>10.0</ele><time>2026-05-03T07:39:46.754Z</time></trkpt><trkpt lat="42.9254064" lon="10.7619619"><ele>10.0</ele><time>2026-05-03T07:39:49.758Z</time></trkpt><trkpt lat="42.9253509" lon="10.7620058"><ele>10.0</ele><time>2026-05-03T07:39:50.762Z</time></trkpt><trkpt lat="42.9252828" lon="10.7620576"><ele>10.0</ele><time>2026-05-03T07:39:51.768Z</time></trkpt><trkpt lat="42.9252154" lon="10.7621156"><ele>10.0</ele><time>2026-05-03T07:39:52.757Z</time></trkpt><trkpt lat="42.925142" lon="10.7621634"><ele>9.8</ele><time>2026-05-03T07:39:53.76Z</time></trkpt><trkpt lat="42.9250492" lon="10.762194"><ele>9.6</ele><time>2026-05-03T07:39:54.764Z</time></trkpt><trkpt lat="42.9249442" lon="10.7622094"><ele>9.4</ele><time>2026-05-03T07:39:55.749Z</time></trkpt><trkpt lat="42.9248417" lon="10.7622332"><ele>9.2</ele><time>2026-05-03T07:39:56.753Z</time></trkpt><trkpt lat="42.9247356" lon="10.7622439"><ele>9.0</ele><time>2026-05-03T07:39:57.756Z</time></trkpt><trkpt lat="42.9246301" lon="10.7622516"><ele>9.0</ele><time>2026-05-03T07:39:58.754Z</time></trkpt><trkpt lat="42.9245294" lon="10.762264"><ele>9.0</ele><time>2026-05-03T07:39:59.759Z</time></trkpt><trkpt lat="42.9244462" lon="10.7622756"><ele>9.0</ele><time>2026-05-03T07:40:00.756Z</time></trkpt><trkpt lat="42.9243753" lon="10.7622819"><ele>9.0</ele><time>2026-05-03T07:40:01.768Z</time></trkpt><trkpt lat="42.9243065" lon="10.7622892"><ele>9.0</ele><time>2026-05-03T07:40:02.75Z</time></trkpt><trkpt lat="42.9242364" lon="10.7622929"><ele>9.0</ele><time>2026-05-03T07:40:03.759Z</time></trkpt><trkpt lat="42.9241396" lon="10.7623545"><ele>9.0</ele><time>2026-05-03T07:40:05.762Z</time></trkpt><trkpt lat="42.9241373" lon="10.762511"><ele>9.0</ele><time>2026-05-03T07:40:07.755Z</time></trkpt><trkpt lat="42.9241681" lon="10.7625943"><ele>9.0</ele><time>2026-05-03T07:40:08.76Z</time></trkpt><trkpt lat="42.9242054" lon="10.7626894"><ele>9.0</ele><time>2026-05-03T07:40:09.775Z</time></trkpt><trkpt lat="42.9242429" lon="10.762768"><ele>9.0</ele><time>2026-05-03T07:40:10.758Z</time></trkpt><trkpt lat="42.9242839" lon="10.76286"><ele>9.0</ele><time>2026-05-03T07:40:11.769Z</time></trkpt><trkpt lat="42.9243329" lon="10.7629434"><ele>8.833333333333334</ele><time>2026-05-03T07:40:12.761Z</time></trkpt><trkpt lat="42.9243819" lon="10.7630353"><ele>8.666666666666666</ele><time>2026-05-03T07:40:13.763Z</time></trkpt><trkpt lat="42.9244309" lon="10.7631285"><ele>8.5</ele><time>2026-05-03T07:40:14.766Z</time></trkpt><trkpt lat="42.9244773" lon="10.7632218"><ele>8.333333333333332</ele><time>2026-05-03T07:40:15.764Z</time></trkpt><trkpt lat="42.9245217" lon="10.7633102"><ele>8.166666666666666</ele><time>2026-05-03T07:40:16.754Z</time></trkpt><trkpt lat="42.9245645" lon="10.7633943"><ele>8.0</ele><time>2026-05-03T07:40:17.755Z</time></trkpt><trkpt lat="42.9246042" lon="10.7634633"><ele>8.4</ele><time>2026-05-03T07:40:18.76Z</time></trkpt><trkpt lat="42.9246521" lon="10.7635899"><ele>8.8</ele><time>2026-05-03T07:40:20.768Z</time></trkpt><trkpt lat="42.9246676" lon="10.7636903"><ele>9.2</ele><time>2026-05-03T07:40:22.756Z</time></trkpt><trkpt lat="42.9246563" lon="10.7637989"><ele>9.6</ele><time>2026-05-03T07:40:24.759Z</time></trkpt><trkpt lat="42.9246222" lon="10.7639266"><ele>10.0</ele><time>2026-05-03T07:40:26.759Z</time></trkpt><trkpt lat="42.9245888" lon="10.7640496"><ele>10.0</ele><time>2026-05-03T07:40:28.754Z</time></trkpt><trkpt lat="42.9246309" lon="10.7641777"><ele>10.0</ele><time>2026-05-03T07:40:30.768Z</time></trkpt><trkpt lat="42.9247379" lon="10.7642644"><ele>10.0</ele><time>2026-05-03T07:40:32.762Z</time></trkpt><trkpt lat="42.9247957" lon="10.7643156"><ele>10.0</ele><time>2026-05-03T07:40:33.762Z</time></trkpt><trkpt lat="42.924852" lon="10.7643823"><ele>10.0</ele><time>2026-05-03T07:40:34.758Z</time></trkpt><trkpt lat="42.9248976" lon="10.7644642"><ele>10.0</ele><time>2026-05-03T07:40:35.756Z</time></trkpt><trkpt lat="42.9249402" lon="10.7645413"><ele>10.0</ele><time>2026-05-03T07:40:36.778Z</time></trkpt><trkpt lat="42.9249836" lon="10.764615"><ele>10.0</ele><time>2026-05-03T07:40:37.765Z</time></trkpt><trkpt lat="42.9250606" lon="10.7647096"><ele>10.0</ele><time>2026-05-03T07:40:39.761Z</time></trkpt><trkpt lat="42.9251104" lon="10.7647738"><ele>10.0</ele><time>2026-05-03T07:40:41.761Z</time></trkpt><trkpt lat="42.9251517" lon="10.7648473"><ele>10.0</ele><time>2026-05-03T07:40:43.762Z</time></trkpt><trkpt lat="42.9252217" lon="10.7649731"><ele>10.0</ele><time>2026-05-03T07:40:45.769Z</time></trkpt><trkpt lat="42.9252569" lon="10.7650505"><ele>10.0</ele><time>2026-05-03T07:40:46.764Z</time></trkpt><trkpt lat="42.9252988" lon="10.7651393"><ele>10.0</ele><time>2026-05-03T07:40:47.769Z</time></trkpt><trkpt lat="42.9253465" lon="10.7652468"><ele>10.0</ele><time>2026-05-03T07:40:48.75Z</time></trkpt><trkpt lat="42.9254011" lon="10.7653544"><ele>10.0</ele><time>2026-05-03T07:40:49.767Z</time></trkpt><trkpt lat="42.9254638" lon="10.7654755"><ele>10.0</ele><time>2026-05-03T07:40:50.763Z</time></trkpt><trkpt lat="42.9255326" lon="10.7656103"><ele>10.25</ele><time>2026-05-03T07:40:51.761Z</time></trkpt><trkpt lat="42.9256013" lon="10.7657467"><ele>10.5</ele><time>2026-05-03T07:40:52.76Z</time></trkpt><trkpt lat="42.9256792" lon="10.7658874"><ele>10.75</ele><time>2026-05-03T07:40:53.753Z</time></trkpt><trkpt lat="42.9257546" lon="10.7660245"><ele>11.0</ele><time>2026-05-03T07:40:54.75Z</time></trkpt><trkpt lat="42.9258365" lon="10.7661551"><ele>11.200000000000001</ele><time>2026-05-03T07:40:55.754Z</time></trkpt><trkpt lat="42.9259165" lon="10.7662681"><ele>11.4</ele><time>2026-05-03T07:40:56.752Z</time></trkpt><trkpt lat="42.9259989" lon="10.7663727"><ele>11.6</ele><time>2026-05-03T07:40:57.76Z</time></trkpt><trkpt lat="42.9260786" lon="10.7664742"><ele>11.8</ele><time>2026-05-03T07:40:58.76Z</time></trkpt><trkpt lat="42.9261457" lon="10.7665488"><ele>12.0</ele><time>2026-05-03T07:40:59.767Z</time></trkpt><trkpt lat="42.926197" lon="10.7666057"><ele>12.0</ele><time>2026-05-03T07:41:00.762Z</time></trkpt><trkpt lat="42.9262683" lon="10.7666724"><ele>12.0</ele><time>2026-05-03T07:41:02.772Z</time></trkpt><trkpt lat="42.9263287" lon="10.766735"><ele>12.0</ele><time>2026-05-03T07:41:04.753Z</time></trkpt><trkpt lat="42.9263919" lon="10.7668149"><ele>12.0</ele><time>2026-05-03T07:41:06.757Z</time></trkpt><trkpt lat="42.9264689" lon="10.7669035"><ele>12.0</ele><time>2026-05-03T07:41:08.751Z</time></trkpt><trkpt lat="42.9265399" lon="10.7669895"><ele>12.0</ele><time>2026-05-03T07:41:10.754Z</time></trkpt><trkpt lat="42.9266464" lon="10.7670636"><ele>11.833333333333334</ele><time>2026-05-03T07:41:12.765Z</time></trkpt><trkpt lat="42.9267614" lon="10.7671043"><ele>11.666666666666666</ele><time>2026-05-03T07:41:14.757Z</time></trkpt><trkpt lat="42.9268214" lon="10.7671513"><ele>11.5</ele><time>2026-05-03T07:41:15.762Z</time></trkpt><trkpt lat="42.9268844" lon="10.7672131"><ele>11.333333333333332</ele><time>2026-05-03T07:41:16.767Z</time></trkpt><trkpt lat="42.9269539" lon="10.7672823"><ele>11.166666666666666</ele><time>2026-05-03T07:41:17.762Z</time></trkpt><trkpt lat="42.9270263" lon="10.7673652"><ele>11.0</ele><time>2026-05-03T07:41:18.761Z</time></trkpt><trkpt lat="42.927109" lon="10.7674469"><ele>11.0</ele><time>2026-05-03T07:41:19.76Z</time></trkpt><trkpt lat="42.9271995" lon="10.7675284"><ele>11.0</ele><time>2026-05-03T07:41:20.764Z</time></trkpt><trkpt lat="42.9272895" lon="10.7676006"><ele>11.0</ele><time>2026-05-03T07:41:21.763Z</time></trkpt><trkpt lat="42.9273968" lon="10.7676536"><ele>11.0</ele><time>2026-05-03T07:41:22.749Z</time></trkpt><trkpt lat="42.9275012" lon="10.7676888"><ele>11.0</ele><time>2026-05-03T07:41:23.752Z</time></trkpt><trkpt lat="42.9275977" lon="10.7677288"><ele>11.333333333333332</ele><time>2026-05-03T07:41:24.752Z</time></trkpt><trkpt lat="42.9276865" lon="10.7677706"><ele>11.666666666666666</ele><time>2026-05-03T07:41:25.749Z</time></trkpt><trkpt lat="42.9277692" lon="10.7678415"><ele>12.0</ele><time>2026-05-03T07:41:26.744Z</time></trkpt><trkpt lat="42.9278342" lon="10.7679106"><ele>12.333333333333332</ele><time>2026-05-03T07:41:27.767Z</time></trkpt><trkpt lat="42.9278752" lon="10.7679881"><ele>12.666666666666666</ele><time>2026-05-03T07:41:28.749Z</time></trkpt><trkpt lat="42.9279034" lon="10.768068"><ele>13.0</ele><time>2026-05-03T07:41:29.765Z</time></trkpt><trkpt lat="42.9279232" lon="10.7681564"><ele>12.999999999999998</ele><time>2026-05-03T07:41:30.756Z</time></trkpt><trkpt lat="42.9279411" lon="10.768252"><ele>13.0</ele><time>2026-05-03T07:41:31.757Z</time></trkpt><trkpt lat="42.927963" lon="10.7683373"><ele>13.0</ele><time>2026-05-03T07:41:32.759Z</time></trkpt><trkpt lat="42.9279984" lon="10.7684149"><ele>13.0</ele><time>2026-05-03T07:41:33.769Z</time></trkpt><trkpt lat="42.9280548" lon="10.7684958"><ele>12.999999999999998</ele><time>2026-05-03T07:41:34.77Z</time></trkpt><trkpt lat="42.9281221" lon="10.768573"><ele>13.0</ele><time>2026-05-03T07:41:35.768Z</time></trkpt><trkpt lat="42.9281911" lon="10.7686424"><ele>13.142857142857142</ele><time>2026-05-03T07:41:36.761Z</time></trkpt><trkpt lat="42.9282574" lon="10.7687103"><ele>13.285714285714286</ele><time>2026-05-03T07:41:37.761Z</time></trkpt><trkpt lat="42.9283194" lon="10.7687793"><ele>13.428571428571429</ele><time>2026-05-03T07:41:38.757Z</time></trkpt><trkpt lat="42.9283778" lon="10.7688379"><ele>13.571428571428571</ele><time>2026-05-03T07:41:39.76Z</time></trkpt><trkpt lat="42.9284331" lon="10.7688986"><ele>13.714285714285715</ele><time>2026-05-03T07:41:40.763Z</time></trkpt><trkpt lat="42.9284859" lon="10.7689627"><ele>13.857142857142858</ele><time>2026-05-03T07:41:41.754Z</time></trkpt><trkpt lat="42.9285422" lon="10.7690223"><ele>14.0</ele><time>2026-05-03T07:41:42.758Z</time></trkpt><trkpt lat="42.9285968" lon="10.769076"><ele>14.0</ele><time>2026-05-03T07:41:43.774Z</time></trkpt><trkpt lat="42.9286485" lon="10.7691337"><ele>14.0</ele><time>2026-05-03T07:41:44.765Z</time></trkpt><trkpt lat="42.9287024" lon="10.7691907"><ele>14.0</ele><time>2026-05-03T07:41:45.772Z</time></trkpt><trkpt lat="42.928756" lon="10.7692521"><ele>14.0</ele><time>2026-05-03T07:41:46.762Z</time></trkpt><trkpt lat="42.9288113" lon="10.769319"><ele>14.0</ele><time>2026-05-03T07:41:47.761Z</time></trkpt><trkpt lat="42.9288646" lon="10.7693803"><ele>14.0</ele><time>2026-05-03T07:41:48.76Z</time></trkpt><trkpt lat="42.9289196" lon="10.7694357"><ele>14.0</ele><time>2026-05-03T07:41:49.76Z</time></trkpt><trkpt lat="42.9289763" lon="10.7694894"><ele>14.142857142857142</ele><time>2026-05-03T07:41:50.757Z</time></trkpt><trkpt lat="42.9290334" lon="10.7695488"><ele>14.285714285714285</ele><time>2026-05-03T07:41:51.779Z</time></trkpt><trkpt lat="42.929093" lon="10.769612"><ele>14.428571428571429</ele><time>2026-05-03T07:41:52.766Z</time></trkpt><trkpt lat="42.9291532" lon="10.7696724"><ele>14.571428571428571</ele><time>2026-05-03T07:41:53.76Z</time></trkpt><trkpt lat="42.9292125" lon="10.7697378"><ele>14.714285714285714</ele><time>2026-05-03T07:41:54.753Z</time></trkpt><trkpt lat="42.9292651" lon="10.7698059"><ele>14.857142857142858</ele><time>2026-05-03T07:41:55.75Z</time></trkpt><trkpt lat="42.9293068" lon="10.7698725"><ele>15.0</ele><time>2026-05-03T07:41:56.773Z</time></trkpt><trkpt lat="42.9293309" lon="10.7700162"><ele>15.5</ele><time>2026-05-03T07:41:58.769Z</time></trkpt><trkpt lat="42.929358" lon="10.7701699"><ele>16.0</ele><time>2026-05-03T07:42:00.758Z</time></trkpt><trkpt lat="42.9294485" lon="10.7702842"><ele>16.5</ele><time>2026-05-03T07:42:02.764Z</time></trkpt><trkpt lat="42.9295703" lon="10.7703059"><ele>17.0</ele><time>2026-05-03T07:42:04.76Z</time></trkpt><trkpt lat="42.9296925" lon="10.7703282"><ele>17.166666666666668</ele><time>2026-05-03T07:42:06.768Z</time></trkpt><trkpt lat="42.929756" lon="10.7703593"><ele>17.333333333333336</ele><time>2026-05-03T07:42:07.777Z</time></trkpt><trkpt lat="42.9298242" lon="10.7704029"><ele>17.5</ele><time>2026-05-03T07:42:08.769Z</time></trkpt><trkpt lat="42.9298904" lon="10.7704565"><ele>17.666666666666668</ele><time>2026-05-03T07:42:09.77Z</time></trkpt><trkpt lat="42.9299554" lon="10.7705183"><ele>17.833333333333332</ele><time>2026-05-03T07:42:10.763Z</time></trkpt><trkpt lat="42.930023" lon="10.7705908"><ele>18.0</ele><time>2026-05-03T07:42:11.77Z</time></trkpt><trkpt lat="42.9300905" lon="10.770664"><ele>18.166666666666668</ele><time>2026-05-03T07:42:12.769Z</time></trkpt><trkpt lat="42.9301551" lon="10.77073"><ele>18.333333333333332</ele><time>2026-05-03T07:42:13.772Z</time></trkpt><trkpt lat="42.9302125" lon="10.7707872"><ele>18.5</ele><time>2026-05-03T07:42:14.764Z</time></trkpt><trkpt lat="42.9303109" lon="10.7708851"><ele>18.666666666666664</ele><time>2026-05-03T07:42:16.761Z</time></trkpt><trkpt lat="42.9303643" lon="10.7709383"><ele>18.833333333333332</ele><time>2026-05-03T07:42:17.762Z</time></trkpt><trkpt lat="42.9304164" lon="10.7709917"><ele>19.0</ele><time>2026-05-03T07:42:18.76Z</time></trkpt><trkpt lat="42.9304955" lon="10.7710959"><ele>19.0</ele><time>2026-05-03T07:42:20.77Z</time></trkpt><trkpt lat="42.9305494" lon="10.7711772"><ele>19.0</ele><time>2026-05-03T07:42:22.765Z</time></trkpt><trkpt lat="42.9305926" lon="10.7712887"><ele>19.0</ele><time>2026-05-03T07:42:24.767Z</time></trkpt><trkpt lat="42.9306422" lon="10.7714088"><ele>19.0</ele><time>2026-05-03T07:42:26.763Z</time></trkpt><trkpt lat="42.930745" lon="10.7714618"><ele>19.0</ele><time>2026-05-03T07:42:28.755Z</time></trkpt><trkpt lat="42.9308079" lon="10.7714931"><ele>19.0</ele><time>2026-05-03T07:42:29.765Z</time></trkpt><trkpt lat="42.9308716" lon="10.7715316"><ele>19.0</ele><time>2026-05-03T07:42:30.772Z</time></trkpt><trkpt lat="42.9309421" lon="10.7715847"><ele>19.0</ele><time>2026-05-03T07:42:31.765Z</time></trkpt><trkpt lat="42.9310038" lon="10.77165"><ele>19.0</ele><time>2026-05-03T07:42:32.767Z</time></trkpt><trkpt lat="42.9310689" lon="10.7717165"><ele>19.0</ele><time>2026-05-03T07:42:33.762Z</time></trkpt><trkpt lat="42.9311365" lon="10.7717843"><ele>19.0</ele><time>2026-05-03T07:42:34.764Z</time></trkpt><trkpt lat="42.9312054" lon="10.7718575"><ele>19.2</ele><time>2026-05-03T07:42:35.77Z</time></trkpt><trkpt lat="42.9312787" lon="10.7719362"><ele>19.4</ele><time>2026-05-03T07:42:36.763Z</time></trkpt><trkpt lat="42.9313516" lon="10.7720151"><ele>19.6</ele><time>2026-05-03T07:42:37.762Z</time></trkpt><trkpt lat="42.9314266" lon="10.7720938"><ele>19.8</ele><time>2026-05-03T07:42:38.76Z</time></trkpt><trkpt lat="42.9315008" lon="10.7721697"><ele>20.0</ele><time>2026-05-03T07:42:39.771Z</time></trkpt><trkpt lat="42.9315711" lon="10.7722466"><ele>20.0</ele><time>2026-05-03T07:42:40.766Z</time></trkpt><trkpt lat="42.9316398" lon="10.7723289"><ele>20.0</ele><time>2026-05-03T07:42:41.765Z</time></trkpt><trkpt lat="42.9317125" lon="10.7724142"><ele>20.0</ele><time>2026-05-03T07:42:42.756Z</time></trkpt><trkpt lat="42.9317882" lon="10.7724915"><ele>20.0</ele><time>2026-05-03T07:42:43.77Z</time></trkpt><trkpt lat="42.9318633" lon="10.7725669"><ele>20.0</ele><time>2026-05-03T07:42:44.766Z</time></trkpt><trkpt lat="42.9319308" lon="10.7726387"><ele>19.833333333333336</ele><time>2026-05-03T07:42:45.763Z</time></trkpt><trkpt lat="42.9319935" lon="10.7727083"><ele>19.666666666666668</ele><time>2026-05-03T07:42:46.756Z</time></trkpt><trkpt lat="42.9320549" lon="10.7727812"><ele>19.5</ele><time>2026-05-03T07:42:47.761Z</time></trkpt><trkpt lat="42.9321183" lon="10.7728586"><ele>19.333333333333332</ele><time>2026-05-03T07:42:48.763Z</time></trkpt><trkpt lat="42.9321875" lon="10.7729321"><ele>19.166666666666664</ele><time>2026-05-03T07:42:49.761Z</time></trkpt><trkpt lat="42.9322603" lon="10.7730135"><ele>19.0</ele><time>2026-05-03T07:42:50.785Z</time></trkpt><trkpt lat="42.9323332" lon="10.7730919"><ele>19.0</ele><time>2026-05-03T07:42:51.768Z</time></trkpt><trkpt lat="42.9324062" lon="10.7731666"><ele>19.0</ele><time>2026-05-03T07:42:52.758Z</time></trkpt><trkpt lat="42.9324795" lon="10.773249"><ele>19.0</ele><time>2026-05-03T07:42:53.769Z</time></trkpt><trkpt lat="42.9325572" lon="10.7733306"><ele>19.0</ele><time>2026-05-03T07:42:54.772Z</time></trkpt><trkpt lat="42.9326405" lon="10.773415"><ele>19.0</ele><time>2026-05-03T07:42:55.764Z</time></trkpt><trkpt lat="42.9327264" lon="10.773506"><ele>19.4</ele><time>2026-05-03T07:42:56.784Z</time></trkpt><trkpt lat="42.9328121" lon="10.7735938"><ele>19.799999999999997</ele><time>2026-05-03T07:42:57.761Z</time></trkpt><trkpt lat="42.9328937" lon="10.7736809"><ele>20.200000000000003</ele><time>2026-05-03T07:42:58.76Z</time></trkpt><trkpt lat="42.9329736" lon="10.7737678"><ele>20.6</ele><time>2026-05-03T07:42:59.768Z</time></trkpt><trkpt lat="42.9330507" lon="10.7738461"><ele>21.0</ele><time>2026-05-03T07:43:00.765Z</time></trkpt><trkpt lat="42.9331305" lon="10.7739243"><ele>21.0</ele><time>2026-05-03T07:43:01.768Z</time></trkpt><trkpt lat="42.9332049" lon="10.7740027"><ele>21.0</ele><time>2026-05-03T07:43:02.773Z</time></trkpt><trkpt lat="42.9332738" lon="10.774075"><ele>21.0</ele><time>2026-05-03T07:43:03.772Z</time></trkpt><trkpt lat="42.9333363" lon="10.7741393"><ele>21.0</ele><time>2026-05-03T07:43:04.768Z</time></trkpt><trkpt lat="42.933391" lon="10.7741966"><ele>21.0</ele><time>2026-05-03T07:43:05.766Z</time></trkpt><trkpt lat="42.933442" lon="10.7742535"><ele>21.0</ele><time>2026-05-03T07:43:06.759Z</time></trkpt><trkpt lat="42.9335404" lon="10.7743645"><ele>21.333333333333332</ele><time>2026-05-03T07:43:08.769Z</time></trkpt><trkpt lat="42.9336" lon="10.7744246"><ele>21.666666666666668</ele><time>2026-05-03T07:43:09.764Z</time></trkpt><trkpt lat="42.9336647" lon="10.7744917"><ele>22.0</ele><time>2026-05-03T07:43:10.759Z</time></trkpt><trkpt lat="42.9337308" lon="10.7745561"><ele>22.333333333333336</ele><time>2026-05-03T07:43:11.774Z</time></trkpt><trkpt lat="42.9337948" lon="10.7746232"><ele>22.666666666666668</ele><time>2026-05-03T07:43:12.763Z</time></trkpt><trkpt lat="42.9338545" lon="10.7746896"><ele>23.0</ele><time>2026-05-03T07:43:13.769Z</time></trkpt><trkpt lat="42.9339007" lon="10.7747577"><ele>23.0</ele><time>2026-05-03T07:43:14.766Z</time></trkpt><trkpt lat="42.9339443" lon="10.7748321"><ele>23.0</ele><time>2026-05-03T07:43:15.78Z</time></trkpt><trkpt lat="42.9339961" lon="10.7749061"><ele>23.0</ele><time>2026-05-03T07:43:16.759Z</time></trkpt><trkpt lat="42.9340725" lon="10.7749705"><ele>23.0</ele><time>2026-05-03T07:43:17.766Z</time></trkpt><trkpt lat="42.9341545" lon="10.7750341"><ele>23.0</ele><time>2026-05-03T07:43:18.77Z</time></trkpt><trkpt lat="42.9342395" lon="10.7751076"><ele>23.0</ele><time>2026-05-03T07:43:19.767Z</time></trkpt><trkpt lat="42.9343241" lon="10.7751944"><ele>23.599999999999998</ele><time>2026-05-03T07:43:20.775Z</time></trkpt><trkpt lat="42.9344111" lon="10.7752842"><ele>24.2</ele><time>2026-05-03T07:43:21.761Z</time></trkpt><trkpt lat="42.9344978" lon="10.7753785"><ele>24.8</ele><time>2026-05-03T07:43:22.767Z</time></trkpt><trkpt lat="42.9345916" lon="10.7754716"><ele>25.4</ele><time>2026-05-03T07:43:23.762Z</time></trkpt><trkpt lat="42.9346659" lon="10.7755565"><ele>26.0</ele><time>2026-05-03T07:43:24.766Z</time></trkpt><trkpt lat="42.934732" lon="10.7756321"><ele>26.0</ele><time>2026-05-03T07:43:25.762Z</time></trkpt><trkpt lat="42.9347928" lon="10.7757076"><ele>26.0</ele><time>2026-05-03T07:43:26.745Z</time></trkpt><trkpt lat="42.9348585" lon="10.7757813"><ele>26.0</ele><time>2026-05-03T07:43:27.763Z</time></trkpt><trkpt lat="42.9349278" lon="10.7758587"><ele>26.0</ele><time>2026-05-03T07:43:28.763Z</time></trkpt><trkpt lat="42.9350011" lon="10.7759412"><ele>26.0</ele><time>2026-05-03T07:43:29.773Z</time></trkpt><trkpt lat="42.9350787" lon="10.7760231"><ele>26.0</ele><time>2026-05-03T07:43:30.762Z</time></trkpt><trkpt lat="42.9351616" lon="10.7761057"><ele>26.0</ele><time>2026-05-03T07:43:31.769Z</time></trkpt><trkpt lat="42.9352465" lon="10.7761954"><ele>26.0</ele><time>2026-05-03T07:43:32.771Z</time></trkpt><trkpt lat="42.9353371" lon="10.7762884"><ele>26.0</ele><time>2026-05-03T07:43:33.766Z</time></trkpt><trkpt lat="42.9354243" lon="10.7763667"><ele>26.0</ele><time>2026-05-03T07:43:34.764Z</time></trkpt><trkpt lat="42.9355083" lon="10.7764205"><ele>25.999999999999996</ele><time>2026-05-03T07:43:35.779Z</time></trkpt><trkpt lat="42.9355815" lon="10.7764582"><ele>26.0</ele><time>2026-05-03T07:43:36.789Z</time></trkpt><trkpt lat="42.9356904" lon="10.7765451"><ele>26.0</ele><time>2026-05-03T07:43:38.771Z</time></trkpt><trkpt lat="42.9357403" lon="10.7766146"><ele>26.0</ele><time>2026-05-03T07:43:39.772Z</time></trkpt><trkpt lat="42.9357875" lon="10.7767044"><ele>25.999999999999996</ele><time>2026-05-03T07:43:40.766Z</time></trkpt><trkpt lat="42.9358332" lon="10.7768088"><ele>26.0</ele><time>2026-05-03T07:43:41.77Z</time></trkpt><trkpt lat="42.9358915" lon="10.7769064"><ele>25.999999999999996</ele><time>2026-05-03T07:43:42.756Z</time></trkpt><trkpt lat="42.9359562" lon="10.7769823"><ele>26.0</ele><time>2026-05-03T07:43:43.777Z</time></trkpt><trkpt lat="42.9360376" lon="10.7770167"><ele>26.0</ele><time>2026-05-03T07:43:44.765Z</time></trkpt><trkpt lat="42.9361105" lon="10.7770214"><ele>26.0</ele><time>2026-05-03T07:43:45.768Z</time></trkpt><trkpt lat="42.936186" lon="10.7770092"><ele>25.999999999999996</ele><time>2026-05-03T07:43:46.769Z</time></trkpt><trkpt lat="42.936275" lon="10.7770245"><ele>26.0</ele><time>2026-05-03T07:43:47.762Z</time></trkpt><trkpt lat="42.9363732" lon="10.7770815"><ele>26.0</ele><time>2026-05-03T07:43:48.774Z</time></trkpt><trkpt lat="42.9364702" lon="10.7771762"><ele>26.0</ele><time>2026-05-03T07:43:49.771Z</time></trkpt><trkpt lat="42.9365643" lon="10.7772873"><ele>26.0</ele><time>2026-05-03T07:43:50.766Z</time></trkpt><trkpt lat="42.9366574" lon="10.7774025"><ele>26.0</ele><time>2026-05-03T07:43:51.769Z</time></trkpt><trkpt lat="42.9367562" lon="10.7775278"><ele>26.0</ele><time>2026-05-03T07:43:52.761Z</time></trkpt><trkpt lat="42.9368534" lon="10.7776542"><ele>26.0</ele><time>2026-05-03T07:43:53.769Z</time></trkpt><trkpt lat="42.9369499" lon="10.7777926"><ele>26.0</ele><time>2026-05-03T07:43:54.755Z</time></trkpt><trkpt lat="42.937048" lon="10.7779295"><ele>26.0</ele><time>2026-05-03T07:43:55.762Z</time></trkpt><trkpt lat="42.9371456" lon="10.7780601"><ele>26.0</ele><time>2026-05-03T07:43:56.752Z</time></trkpt><trkpt lat="42.9372445" lon="10.7781846"><ele>26.0</ele><time>2026-05-03T07:43:57.773Z</time></trkpt><trkpt lat="42.9373399" lon="10.7783149"><ele>26.0</ele><time>2026-05-03T07:43:58.766Z</time></trkpt><trkpt lat="42.9374398" lon="10.7784448"><ele>26.0</ele><time>2026-05-03T07:43:59.772Z</time></trkpt><trkpt lat="42.9375404" lon="10.7785739"><ele>26.25</ele><time>2026-05-03T07:44:00.763Z</time></trkpt><trkpt lat="42.9376423" lon="10.7787004"><ele>26.5</ele><time>2026-05-03T07:44:01.767Z</time></trkpt><trkpt lat="42.937746" lon="10.7788245"><ele>26.75</ele><time>2026-05-03T07:44:02.755Z</time></trkpt><trkpt lat="42.9378511" lon="10.7789425"><ele>27.0</ele><time>2026-05-03T07:44:03.753Z</time></trkpt><trkpt lat="42.9379619" lon="10.7790554"><ele>27.0</ele><time>2026-05-03T07:44:04.767Z</time></trkpt><trkpt lat="42.9380807" lon="10.7791632"><ele>27.0</ele><time>2026-05-03T07:44:05.769Z</time></trkpt><trkpt lat="42.9381996" lon="10.7792618"><ele>27.0</ele><time>2026-05-03T07:44:06.762Z</time></trkpt><trkpt lat="42.9383215" lon="10.7793585"><ele>27.0</ele><time>2026-05-03T07:44:07.769Z</time></trkpt><trkpt lat="42.9384485" lon="10.7794468"><ele>27.5</ele><time>2026-05-03T07:44:08.755Z</time></trkpt><trkpt lat="42.9385772" lon="10.7795302"><ele>28.0</ele><time>2026-05-03T07:44:09.78Z</time></trkpt><trkpt lat="42.9387069" lon="10.7796052"><ele>28.5</ele><time>2026-05-03T07:44:10.768Z</time></trkpt><trkpt lat="42.9388417" lon="10.779681"><ele>29.0</ele><time>2026-05-03T07:44:11.771Z</time></trkpt><trkpt lat="42.9389761" lon="10.7797454"><ele>29.0</ele><time>2026-05-03T07:44:12.758Z</time></trkpt><trkpt lat="42.9391142" lon="10.7798032"><ele>29.0</ele><time>2026-05-03T07:44:13.764Z</time></trkpt><trkpt lat="42.9392527" lon="10.7798554"><ele>29.0</ele><time>2026-05-03T07:44:14.754Z</time></trkpt><trkpt lat="42.9393955" lon="10.7799014"><ele>29.0</ele><time>2026-05-03T07:44:15.775Z</time></trkpt><trkpt lat="42.9395381" lon="10.7799399"><ele>29.25</ele><time>2026-05-03T07:44:16.763Z</time></trkpt><trkpt lat="42.9396778" lon="10.779969"><ele>29.5</ele><time>2026-05-03T07:44:17.767Z</time></trkpt><trkpt lat="42.9398247" lon="10.7799897"><ele>29.75</ele><time>2026-05-03T07:44:18.759Z</time></trkpt><trkpt lat="42.9399673" lon="10.7799937"><ele>30.0</ele><time>2026-05-03T07:44:19.774Z</time></trkpt><trkpt lat="42.9401138" lon="10.7799953"><ele>30.0</ele><time>2026-05-03T07:44:20.759Z</time></trkpt><trkpt lat="42.9402633" lon="10.7799943"><ele>30.0</ele><time>2026-05-03T07:44:21.768Z</time></trkpt><trkpt lat="42.9404169" lon="10.779992"><ele>30.0</ele><time>2026-05-03T07:44:22.763Z</time></trkpt><trkpt lat="42.9405748" lon="10.7799823"><ele>30.0</ele><time>2026-05-03T07:44:23.772Z</time></trkpt><trkpt lat="42.9407287" lon="10.7799754"><ele>30.0</ele><time>2026-05-03T07:44:24.763Z</time></trkpt><trkpt lat="42.9408707" lon="10.7799611"><ele>30.0</ele><time>2026-05-03T07:44:25.767Z</time></trkpt><trkpt lat="42.9410051" lon="10.7799494"><ele>30.0</ele><time>2026-05-03T07:44:26.766Z</time></trkpt><trkpt lat="42.9411396" lon="10.7799425"><ele>29.5</ele><time>2026-05-03T07:44:27.774Z</time></trkpt><trkpt lat="42.9412787" lon="10.779935"><ele>29.0</ele><time>2026-05-03T07:44:28.768Z</time></trkpt><trkpt lat="42.9414131" lon="10.7799261"><ele>28.5</ele><time>2026-05-03T07:44:29.758Z</time></trkpt><trkpt lat="42.9415496" lon="10.7799209"><ele>28.0</ele><time>2026-05-03T07:44:30.762Z</time></trkpt><trkpt lat="42.9416898" lon="10.7799095"><ele>28.5</ele><time>2026-05-03T07:44:31.764Z</time></trkpt><trkpt lat="42.9418341" lon="10.7798972"><ele>29.0</ele><time>2026-05-03T07:44:32.771Z</time></trkpt><trkpt lat="42.9419794" lon="10.7798861"><ele>29.5</ele><time>2026-05-03T07:44:33.766Z</time></trkpt><trkpt lat="42.9421267" lon="10.779876"><ele>30.0</ele><time>2026-05-03T07:44:34.757Z</time></trkpt><trkpt lat="42.9422768" lon="10.7798711"><ele>30.0</ele><time>2026-05-03T07:44:35.768Z</time></trkpt><trkpt lat="42.9424282" lon="10.7798691"><ele>30.0</ele><time>2026-05-03T07:44:36.755Z</time></trkpt><trkpt lat="42.9425788" lon="10.7798625"><ele>30.0</ele><time>2026-05-03T07:44:37.766Z</time></trkpt><trkpt lat="42.9427295" lon="10.7798509"><ele>29.666666666666664</ele><time>2026-05-03T07:44:38.761Z</time></trkpt><trkpt lat="42.942879" lon="10.7798389"><ele>29.333333333333332</ele><time>2026-05-03T07:44:39.769Z</time></trkpt><trkpt lat="42.9430269" lon="10.7798331"><ele>29.0</ele><time>2026-05-03T07:44:40.768Z</time></trkpt><trkpt lat="42.9431838" lon="10.779841"><ele>29.0</ele><time>2026-05-03T07:44:41.765Z</time></trkpt><trkpt lat="42.9433426" lon="10.779852"><ele>29.0</ele><time>2026-05-03T07:44:42.776Z</time></trkpt><trkpt lat="42.9435081" lon="10.7798687"><ele>29.0</ele><time>2026-05-03T07:44:43.773Z</time></trkpt><trkpt lat="42.9436773" lon="10.7799039"><ele>29.0</ele><time>2026-05-03T07:44:44.769Z</time></trkpt><trkpt lat="42.9438494" lon="10.779939"><ele>29.0</ele><time>2026-05-03T07:44:45.765Z</time></trkpt><trkpt lat="42.9440206" lon="10.779979"><ele>29.0</ele><time>2026-05-03T07:44:46.779Z</time></trkpt><trkpt lat="42.9441931" lon="10.7800164"><ele>29.333333333333332</ele><time>2026-05-03T07:44:47.779Z</time></trkpt><trkpt lat="42.9443628" lon="10.7800528"><ele>29.666666666666664</ele><time>2026-05-03T07:44:48.757Z</time></trkpt><trkpt lat="42.9445335" lon="10.7800896"><ele>30.0</ele><time>2026-05-03T07:44:49.772Z</time></trkpt><trkpt lat="42.9447039" lon="10.7801256"><ele>30.0</ele><time>2026-05-03T07:44:50.762Z</time></trkpt><trkpt lat="42.9448728" lon="10.780158"><ele>30.0</ele><time>2026-05-03T07:44:51.769Z</time></trkpt><trkpt lat="42.9450428" lon="10.7801949"><ele>30.0</ele><time>2026-05-03T07:44:52.767Z</time></trkpt><trkpt lat="42.9452173" lon="10.7802315"><ele>30.0</ele><time>2026-05-03T07:44:53.771Z</time></trkpt><trkpt lat="42.9454039" lon="10.780267"><ele>30.0</ele><time>2026-05-03T07:44:54.764Z</time></trkpt><trkpt lat="42.9456017" lon="10.7803117"><ele>30.0</ele><time>2026-05-03T07:44:55.771Z</time></trkpt><trkpt lat="42.9458003" lon="10.7803573"><ele>30.333333333333336</ele><time>2026-05-03T07:44:56.766Z</time></trkpt><trkpt lat="42.9459961" lon="10.7804034"><ele>30.666666666666668</ele><time>2026-05-03T07:44:57.764Z</time></trkpt><trkpt lat="42.9461891" lon="10.7804458"><ele>31.0</ele><time>2026-05-03T07:44:58.757Z</time></trkpt><trkpt lat="42.9463811" lon="10.78049"><ele>31.0</ele><time>2026-05-03T07:44:59.766Z</time></trkpt><trkpt lat="42.9465695" lon="10.780534"><ele>31.0</ele><time>2026-05-03T07:45:00.767Z</time></trkpt><trkpt lat="42.9467581" lon="10.7805768"><ele>31.0</ele><time>2026-05-03T07:45:01.768Z</time></trkpt><trkpt lat="42.9469531" lon="10.780619"><ele>30.666666666666668</ele><time>2026-05-03T07:45:02.762Z</time></trkpt><trkpt lat="42.9471509" lon="10.7806604"><ele>30.333333333333336</ele><time>2026-05-03T07:45:03.761Z</time></trkpt><trkpt lat="42.9473431" lon="10.7807045"><ele>30.0</ele><time>2026-05-03T07:45:04.768Z</time></trkpt><trkpt lat="42.9475301" lon="10.7807548"><ele>30.333333333333336</ele><time>2026-05-03T07:45:05.778Z</time></trkpt><trkpt lat="42.9477199" lon="10.7808024"><ele>30.666666666666668</ele><time>2026-05-03T07:45:06.756Z</time></trkpt><trkpt lat="42.9479046" lon="10.7808531"><ele>31.0</ele><time>2026-05-03T07:45:07.775Z</time></trkpt><trkpt lat="42.9480899" lon="10.7809142"><ele>31.0</ele><time>2026-05-03T07:45:08.771Z</time></trkpt><trkpt lat="42.9482729" lon="10.7809948"><ele>31.0</ele><time>2026-05-03T07:45:09.774Z</time></trkpt><trkpt lat="42.9484494" lon="10.7810821"><ele>31.0</ele><time>2026-05-03T07:45:10.77Z</time></trkpt><trkpt lat="42.948613" lon="10.7811954"><ele>31.666666666666668</ele><time>2026-05-03T07:45:11.769Z</time></trkpt><trkpt lat="42.9487631" lon="10.7813224"><ele>32.333333333333336</ele><time>2026-05-03T07:45:12.776Z</time></trkpt><trkpt lat="42.9489038" lon="10.7814603"><ele>33.0</ele><time>2026-05-03T07:45:13.771Z</time></trkpt><trkpt lat="42.9490349" lon="10.7815991"><ele>33.0</ele><time>2026-05-03T07:45:14.767Z</time></trkpt><trkpt lat="42.9491595" lon="10.7817508"><ele>33.0</ele><time>2026-05-03T07:45:15.764Z</time></trkpt><trkpt lat="42.9492758" lon="10.7819273"><ele>33.0</ele><time>2026-05-03T07:45:16.759Z</time></trkpt><trkpt lat="42.9493788" lon="10.7821098"><ele>32.333333333333336</ele><time>2026-05-03T07:45:17.769Z</time></trkpt><trkpt lat="42.9494738" lon="10.7823001"><ele>31.666666666666668</ele><time>2026-05-03T07:45:18.771Z</time></trkpt><trkpt lat="42.9495576" lon="10.782496"><ele>31.0</ele><time>2026-05-03T07:45:19.768Z</time></trkpt><trkpt lat="42.9496312" lon="10.7826961"><ele>30.0</ele><time>2026-05-03T07:45:20.766Z</time></trkpt><trkpt lat="42.9496947" lon="10.7829044"><ele>29.0</ele><time>2026-05-03T07:45:21.768Z</time></trkpt><trkpt lat="42.9497572" lon="10.7831107"><ele>28.0</ele><time>2026-05-03T07:45:22.764Z</time></trkpt><trkpt lat="42.9498153" lon="10.7833213"><ele>28.333333333333336</ele><time>2026-05-03T07:45:23.769Z</time></trkpt><trkpt lat="42.9498696" lon="10.7835361"><ele>28.666666666666664</ele><time>2026-05-03T07:45:24.781Z</time></trkpt><trkpt lat="42.9499234" lon="10.783753"><ele>29.0</ele><time>2026-05-03T07:45:25.766Z</time></trkpt><trkpt lat="42.9499757" lon="10.7839703"><ele>29.0</ele><time>2026-05-03T07:45:26.76Z</time></trkpt><trkpt lat="42.9500295" lon="10.7841881"><ele>29.0</ele><time>2026-05-03T07:45:27.766Z</time></trkpt><trkpt lat="42.9500828" lon="10.7844065"><ele>29.0</ele><time>2026-05-03T07:45:28.78Z</time></trkpt><trkpt lat="42.9501362" lon="10.7846312"><ele>28.0</ele><time>2026-05-03T07:45:29.76Z</time></trkpt><trkpt lat="42.9501892" lon="10.7848547"><ele>27.0</ele><time>2026-05-03T07:45:30.757Z</time></trkpt><trkpt lat="42.9502472" lon="10.785078"><ele>26.0</ele><time>2026-05-03T07:45:31.762Z</time></trkpt><trkpt lat="42.9503064" lon="10.785298"><ele>26.0</ele><time>2026-05-03T07:45:32.751Z</time></trkpt><trkpt lat="42.9503681" lon="10.7855176"><ele>26.0</ele><time>2026-05-03T07:45:33.765Z</time></trkpt><trkpt lat="42.9504283" lon="10.7857441"><ele>26.0</ele><time>2026-05-03T07:45:34.764Z</time></trkpt><trkpt lat="42.9504876" lon="10.7859753"><ele>25.666666666666664</ele><time>2026-05-03T07:45:35.765Z</time></trkpt><trkpt lat="42.9505457" lon="10.7861995"><ele>25.333333333333336</ele><time>2026-05-03T07:45:36.759Z</time></trkpt><trkpt lat="42.950603" lon="10.7864283"><ele>25.0</ele><time>2026-05-03T07:45:37.77Z</time></trkpt><trkpt lat="42.9506614" lon="10.7866551"><ele>25.0</ele><time>2026-05-03T07:45:38.752Z</time></trkpt><trkpt lat="42.9507206" lon="10.7868831"><ele>25.0</ele><time>2026-05-03T07:45:39.764Z</time></trkpt><trkpt lat="42.9507812" lon="10.7871084"><ele>25.0</ele><time>2026-05-03T07:45:40.766Z</time></trkpt><trkpt lat="42.9508445" lon="10.7873345"><ele>24.333333333333336</ele><time>2026-05-03T07:45:41.764Z</time></trkpt><trkpt lat="42.9509177" lon="10.787561"><ele>23.666666666666668</ele><time>2026-05-03T07:45:42.768Z</time></trkpt><trkpt lat="42.9509979" lon="10.7877791"><ele>23.0</ele><time>2026-05-03T07:45:43.763Z</time></trkpt><trkpt lat="42.9510821" lon="10.7880011"><ele>23.0</ele><time>2026-05-03T07:45:44.762Z</time></trkpt><trkpt lat="42.9511767" lon="10.7882115"><ele>23.0</ele><time>2026-05-03T07:45:45.759Z</time></trkpt><trkpt lat="42.9512766" lon="10.7884164"><ele>23.0</ele><time>2026-05-03T07:45:46.763Z</time></trkpt><trkpt lat="42.9513855" lon="10.788616"><ele>23.666666666666668</ele><time>2026-05-03T07:45:47.769Z</time></trkpt><trkpt lat="42.951507" lon="10.7888113"><ele>24.333333333333336</ele><time>2026-05-03T07:45:48.77Z</time></trkpt><trkpt lat="42.9516362" lon="10.7890076"><ele>25.0</ele><time>2026-05-03T07:45:49.754Z</time></trkpt><trkpt lat="42.9517757" lon="10.789187"><ele>25.666666666666668</ele><time>2026-05-03T07:45:50.764Z</time></trkpt><trkpt lat="42.9519147" lon="10.789357"><ele>26.333333333333336</ele><time>2026-05-03T07:45:51.766Z</time></trkpt><trkpt lat="42.9520571" lon="10.7895122"><ele>27.0</ele><time>2026-05-03T07:45:52.764Z</time></trkpt><trkpt lat="42.9521976" lon="10.7896633"><ele>27.0</ele><time>2026-05-03T07:45:53.765Z</time></trkpt><trkpt lat="42.9523392" lon="10.7898018"><ele>27.0</ele><time>2026-05-03T07:45:54.768Z</time></trkpt><trkpt lat="42.952476" lon="10.7899347"><ele>27.0</ele><time>2026-05-03T07:45:55.765Z</time></trkpt><trkpt lat="42.9526062" lon="10.790053"><ele>27.0</ele><time>2026-05-03T07:45:56.771Z</time></trkpt><trkpt lat="42.95274" lon="10.7901717"><ele>27.0</ele><time>2026-05-03T07:45:57.771Z</time></trkpt><trkpt lat="42.9528754" lon="10.7902925"><ele>27.0</ele><time>2026-05-03T07:45:58.763Z</time></trkpt><trkpt lat="42.9530099" lon="10.7904192"><ele>27.0</ele><time>2026-05-03T07:45:59.772Z</time></trkpt><trkpt lat="42.953144" lon="10.7905468"><ele>27.0</ele><time>2026-05-03T07:46:00.762Z</time></trkpt><trkpt lat="42.9532807" lon="10.7906712"><ele>27.0</ele><time>2026-05-03T07:46:01.768Z</time></trkpt><trkpt lat="42.9534211" lon="10.7907994"><ele>26.666666666666664</ele><time>2026-05-03T07:46:02.76Z</time></trkpt><trkpt lat="42.9535625" lon="10.7909289"><ele>26.333333333333332</ele><time>2026-05-03T07:46:03.772Z</time></trkpt><trkpt lat="42.9537048" lon="10.7910541"><ele>26.0</ele><time>2026-05-03T07:46:04.761Z</time></trkpt><trkpt lat="42.9538419" lon="10.7911799"><ele>25.75</ele><time>2026-05-03T07:46:05.759Z</time></trkpt><trkpt lat="42.9539582" lon="10.7912887"><ele>25.5</ele><time>2026-05-03T07:46:06.769Z</time></trkpt><trkpt lat="42.9540588" lon="10.7913817"><ele>25.25</ele><time>2026-05-03T07:46:07.769Z</time></trkpt><trkpt lat="42.9541563" lon="10.791474"><ele>25.0</ele><time>2026-05-03T07:46:08.768Z</time></trkpt><trkpt lat="42.9542602" lon="10.7915706"><ele>26.0</ele><time>2026-05-03T07:46:09.776Z</time></trkpt><trkpt lat="42.9543665" lon="10.7916683"><ele>27.0</ele><time>2026-05-03T07:46:10.766Z</time></trkpt><trkpt lat="42.9544697" lon="10.7917663"><ele>28.0</ele><time>2026-05-03T07:46:11.769Z</time></trkpt><trkpt lat="42.9545664" lon="10.7918589"><ele>29.0</ele><time>2026-05-03T07:46:12.766Z</time></trkpt><trkpt lat="42.9546606" lon="10.7919457"><ele>29.0</ele><time>2026-05-03T07:46:13.76Z</time></trkpt><trkpt lat="42.9547711" lon="10.7920406"><ele>29.0</ele><time>2026-05-03T07:46:14.768Z</time></trkpt><trkpt lat="42.9548915" lon="10.7921478"><ele>29.0</ele><time>2026-05-03T07:46:15.767Z</time></trkpt><trkpt lat="42.9550159" lon="10.7922597"><ele>29.0</ele><time>2026-05-03T07:46:16.757Z</time></trkpt><trkpt lat="42.9551456" lon="10.7923786"><ele>30.0</ele><time>2026-05-03T07:46:17.762Z</time></trkpt><trkpt lat="42.9552765" lon="10.7925017"><ele>31.0</ele><time>2026-05-03T07:46:18.759Z</time></trkpt><trkpt lat="42.9554041" lon="10.7926209"><ele>32.0</ele><time>2026-05-03T07:46:19.778Z</time></trkpt><trkpt lat="42.9555289" lon="10.7927399"><ele>32.0</ele><time>2026-05-03T07:46:20.763Z</time></trkpt><trkpt lat="42.9556528" lon="10.7928555"><ele>32.0</ele><time>2026-05-03T07:46:21.771Z</time></trkpt><trkpt lat="42.9557762" lon="10.7929717"><ele>32.0</ele><time>2026-05-03T07:46:22.768Z</time></trkpt><trkpt lat="42.9559022" lon="10.7930891"><ele>32.33333333333333</ele><time>2026-05-03T07:46:23.758Z</time></trkpt><trkpt lat="42.9560297" lon="10.7932128"><ele>32.666666666666664</ele><time>2026-05-03T07:46:24.761Z</time></trkpt><trkpt lat="42.9561592" lon="10.7933315"><ele>33.0</ele><time>2026-05-03T07:46:25.763Z</time></trkpt><trkpt lat="42.9562916" lon="10.7934547"><ele>32.333333333333336</ele><time>2026-05-03T07:46:26.761Z</time></trkpt><trkpt lat="42.9564229" lon="10.7935813"><ele>31.666666666666668</ele><time>2026-05-03T07:46:27.765Z</time></trkpt><trkpt lat="42.9565554" lon="10.7937075"><ele>31.0</ele><time>2026-05-03T07:46:28.773Z</time></trkpt><trkpt lat="42.9566904" lon="10.7938317"><ele>31.333333333333336</ele><time>2026-05-03T07:46:29.77Z</time></trkpt><trkpt lat="42.9568233" lon="10.7939508"><ele>31.666666666666664</ele><time>2026-05-03T07:46:30.755Z</time></trkpt><trkpt lat="42.9569491" lon="10.7940683"><ele>32.0</ele><time>2026-05-03T07:46:31.774Z</time></trkpt><trkpt lat="42.957071" lon="10.794181"><ele>32.0</ele><time>2026-05-03T07:46:32.76Z</time></trkpt><trkpt lat="42.957188" lon="10.794292"><ele>32.0</ele><time>2026-05-03T07:46:33.771Z</time></trkpt><trkpt lat="42.9573038" lon="10.7944035"><ele>32.0</ele><time>2026-05-03T07:46:34.764Z</time></trkpt><trkpt lat="42.9574164" lon="10.7945065"><ele>32.0</ele><time>2026-05-03T07:46:35.762Z</time></trkpt><trkpt lat="42.957533" lon="10.7946162"><ele>32.0</ele><time>2026-05-03T07:46:36.771Z</time></trkpt><trkpt lat="42.9576498" lon="10.7947285"><ele>32.0</ele><time>2026-05-03T07:46:37.771Z</time></trkpt><trkpt lat="42.9577669" lon="10.7948404"><ele>32.0</ele><time>2026-05-03T07:46:38.764Z</time></trkpt><trkpt lat="42.9578874" lon="10.7949555"><ele>32.0</ele><time>2026-05-03T07:46:39.782Z</time></trkpt><trkpt lat="42.9580102" lon="10.7950774"><ele>31.666666666666664</ele><time>2026-05-03T07:46:40.767Z</time></trkpt><trkpt lat="42.958139" lon="10.7951971"><ele>31.333333333333336</ele><time>2026-05-03T07:46:41.766Z</time></trkpt><trkpt lat="42.9582704" lon="10.7953192"><ele>31.0</ele><time>2026-05-03T07:46:42.76Z</time></trkpt><trkpt lat="42.9584046" lon="10.7954423"><ele>31.0</ele><time>2026-05-03T07:46:43.772Z</time></trkpt><trkpt lat="42.9585397" lon="10.7955641"><ele>31.0</ele><time>2026-05-03T07:46:44.766Z</time></trkpt><trkpt lat="42.9586663" lon="10.7956795"><ele>31.0</ele><time>2026-05-03T07:46:45.771Z</time></trkpt><trkpt lat="42.9587886" lon="10.7957927"><ele>31.0</ele><time>2026-05-03T07:46:46.767Z</time></trkpt><trkpt lat="42.9589156" lon="10.7959096"><ele>31.0</ele><time>2026-05-03T07:46:47.765Z</time></trkpt><trkpt lat="42.9590441" lon="10.796026"><ele>31.0</ele><time>2026-05-03T07:46:48.761Z</time></trkpt><trkpt lat="42.9591735" lon="10.7961451"><ele>30.0</ele><time>2026-05-03T07:46:49.759Z</time></trkpt><trkpt lat="42.9593002" lon="10.7962598"><ele>29.0</ele><time>2026-05-03T07:46:50.76Z</time></trkpt><trkpt lat="42.9594294" lon="10.7963743"><ele>28.0</ele><time>2026-05-03T07:46:51.769Z</time></trkpt><trkpt lat="42.9595587" lon="10.7964947"><ele>28.0</ele><time>2026-05-03T07:46:52.765Z</time></trkpt><trkpt lat="42.9596957" lon="10.7966193"><ele>28.0</ele><time>2026-05-03T07:46:53.774Z</time></trkpt><trkpt lat="42.9598334" lon="10.796743"><ele>28.0</ele><time>2026-05-03T07:46:54.76Z</time></trkpt><trkpt lat="42.9599713" lon="10.7968705"><ele>26.666666666666668</ele><time>2026-05-03T07:46:55.774Z</time></trkpt><trkpt lat="42.9601138" lon="10.7970042"><ele>25.333333333333336</ele><time>2026-05-03T07:46:56.759Z</time></trkpt><trkpt lat="42.9602566" lon="10.7971357"><ele>24.0</ele><time>2026-05-03T07:46:57.76Z</time></trkpt><trkpt lat="42.9603975" lon="10.7972668"><ele>24.0</ele><time>2026-05-03T07:46:58.761Z</time></trkpt><trkpt lat="42.9605384" lon="10.7973973"><ele>24.0</ele><time>2026-05-03T07:46:59.775Z</time></trkpt><trkpt lat="42.9606815" lon="10.7975304"><ele>24.0</ele><time>2026-05-03T07:47:00.761Z</time></trkpt><trkpt lat="42.9608259" lon="10.7976672"><ele>23.333333333333332</ele><time>2026-05-03T07:47:01.758Z</time></trkpt><trkpt lat="42.9609744" lon="10.7978034"><ele>22.666666666666664</ele><time>2026-05-03T07:47:02.76Z</time></trkpt><trkpt lat="42.9611271" lon="10.7979424"><ele>22.0</ele><time>2026-05-03T07:47:03.765Z</time></trkpt><trkpt lat="42.9612823" lon="10.7980813"><ele>22.0</ele><time>2026-05-03T07:47:04.756Z</time></trkpt><trkpt lat="42.9614433" lon="10.7982248"><ele>22.0</ele><time>2026-05-03T07:47:05.764Z</time></trkpt><trkpt lat="42.9616075" lon="10.7983713"><ele>22.0</ele><time>2026-05-03T07:47:06.766Z</time></trkpt><trkpt lat="42.9617703" lon="10.7985173"><ele>21.333333333333332</ele><time>2026-05-03T07:47:07.768Z</time></trkpt><trkpt lat="42.961932" lon="10.7986647"><ele>20.666666666666668</ele><time>2026-05-03T07:47:08.761Z</time></trkpt><trkpt lat="42.9620945" lon="10.7988115"><ele>20.0</ele><time>2026-05-03T07:47:09.77Z</time></trkpt><trkpt lat="42.9622535" lon="10.7989557"><ele>20.0</ele><time>2026-05-03T07:47:10.766Z</time></trkpt><trkpt lat="42.9624117" lon="10.7990963"><ele>20.0</ele><time>2026-05-03T07:47:11.765Z</time></trkpt><trkpt lat="42.9625739" lon="10.7992404"><ele>20.0</ele><time>2026-05-03T07:47:12.762Z</time></trkpt><trkpt lat="42.9627311" lon="10.799386"><ele>20.333333333333336</ele><time>2026-05-03T07:47:13.777Z</time></trkpt><trkpt lat="42.9628869" lon="10.7995321"><ele>20.666666666666668</ele><time>2026-05-03T07:47:14.761Z</time></trkpt><trkpt lat="42.9630444" lon="10.7996781"><ele>21.0</ele><time>2026-05-03T07:47:15.772Z</time></trkpt><trkpt lat="42.9632026" lon="10.7998212"><ele>21.0</ele><time>2026-05-03T07:47:16.768Z</time></trkpt><trkpt lat="42.9633621" lon="10.7999639"><ele>21.0</ele><time>2026-05-03T07:47:17.754Z</time></trkpt><trkpt lat="42.963523" lon="10.8001089"><ele>21.0</ele><time>2026-05-03T07:47:18.77Z</time></trkpt><trkpt lat="42.9636804" lon="10.8002543"><ele>21.0</ele><time>2026-05-03T07:47:19.765Z</time></trkpt><trkpt lat="42.9638382" lon="10.8003971"><ele>21.0</ele><time>2026-05-03T07:47:20.768Z</time></trkpt><trkpt lat="42.9640009" lon="10.8005407"><ele>21.0</ele><time>2026-05-03T07:47:21.765Z</time></trkpt><trkpt lat="42.9641625" lon="10.8006871"><ele>21.0</ele><time>2026-05-03T07:47:22.76Z</time></trkpt><trkpt lat="42.964324" lon="10.8008336"><ele>21.0</ele><time>2026-05-03T07:47:23.761Z</time></trkpt><trkpt lat="42.9644869" lon="10.8009787"><ele>21.0</ele><time>2026-05-03T07:47:24.759Z</time></trkpt><trkpt lat="42.9646522" lon="10.8011262"><ele>21.0</ele><time>2026-05-03T07:47:25.769Z</time></trkpt><trkpt lat="42.9648131" lon="10.8012705"><ele>21.0</ele><time>2026-05-03T07:47:26.767Z</time></trkpt><trkpt lat="42.964972" lon="10.8014135"><ele>21.0</ele><time>2026-05-03T07:47:27.777Z</time></trkpt><trkpt lat="42.9651345" lon="10.8015607"><ele>21.0</ele><time>2026-05-03T07:47:28.761Z</time></trkpt><trkpt lat="42.9652933" lon="10.8017056"><ele>21.0</ele><time>2026-05-03T07:47:29.766Z</time></trkpt><trkpt lat="42.9654532" lon="10.8018504"><ele>21.0</ele><time>2026-05-03T07:47:30.766Z</time></trkpt><trkpt lat="42.9656128" lon="10.8019947"><ele>21.0</ele><time>2026-05-03T07:47:31.767Z</time></trkpt><trkpt lat="42.9657717" lon="10.8021371"><ele>21.0</ele><time>2026-05-03T07:47:32.759Z</time></trkpt><trkpt lat="42.9659342" lon="10.8022812"><ele>21.0</ele><time>2026-05-03T07:47:33.772Z</time></trkpt><trkpt lat="42.9660958" lon="10.8024283"><ele>21.0</ele><time>2026-05-03T07:47:34.764Z</time></trkpt><trkpt lat="42.9662561" lon="10.8025752"><ele>21.0</ele><time>2026-05-03T07:47:35.76Z</time></trkpt><trkpt lat="42.9664152" lon="10.8027177"><ele>21.0</ele><time>2026-05-03T07:47:36.762Z</time></trkpt><trkpt lat="42.9665725" lon="10.8028626"><ele>21.333333333333332</ele><time>2026-05-03T07:47:37.771Z</time></trkpt><trkpt lat="42.966728" lon="10.8030042"><ele>21.666666666666664</ele><time>2026-05-03T07:47:38.757Z</time></trkpt><trkpt lat="42.9668836" lon="10.8031411"><ele>22.0</ele><time>2026-05-03T07:47:39.77Z</time></trkpt><trkpt lat="42.9670411" lon="10.8032809"><ele>22.0</ele><time>2026-05-03T07:47:40.76Z</time></trkpt><trkpt lat="42.9672018" lon="10.8034239"><ele>22.0</ele><time>2026-05-03T07:47:41.779Z</time></trkpt><trkpt lat="42.9673679" lon="10.8035634"><ele>22.0</ele><time>2026-05-03T07:47:42.758Z</time></trkpt><trkpt lat="42.9675335" lon="10.8036855"><ele>22.0</ele><time>2026-05-03T07:47:43.765Z</time></trkpt><trkpt lat="42.9676856" lon="10.8037823"><ele>22.0</ele><time>2026-05-03T07:47:44.767Z</time></trkpt><trkpt lat="42.9678243" lon="10.8038579"><ele>22.0</ele><time>2026-05-03T07:47:45.778Z</time></trkpt><trkpt lat="42.9679528" lon="10.803926"><ele>22.0</ele><time>2026-05-03T07:47:46.77Z</time></trkpt><trkpt lat="42.9680736" lon="10.8039821"><ele>22.0</ele><time>2026-05-03T07:47:47.769Z</time></trkpt><trkpt lat="42.9681888" lon="10.8040344"><ele>22.0</ele><time>2026-05-03T07:47:48.767Z</time></trkpt><trkpt lat="42.9683061" lon="10.804083"><ele>22.0</ele><time>2026-05-03T07:47:49.76Z</time></trkpt><trkpt lat="42.9684303" lon="10.8041335"><ele>22.400000000000002</ele><time>2026-05-03T07:47:50.768Z</time></trkpt><trkpt lat="42.9685445" lon="10.8041749"><ele>22.8</ele><time>2026-05-03T07:47:51.775Z</time></trkpt><trkpt lat="42.9686487" lon="10.8042156"><ele>23.2</ele><time>2026-05-03T07:47:52.757Z</time></trkpt><trkpt lat="42.9687416" lon="10.8042685"><ele>23.6</ele><time>2026-05-03T07:47:53.761Z</time></trkpt><trkpt lat="42.9688302" lon="10.8043503"><ele>24.0</ele><time>2026-05-03T07:47:54.769Z</time></trkpt><trkpt lat="42.9689109" lon="10.8044445"><ele>24.166666666666668</ele><time>2026-05-03T07:47:55.775Z</time></trkpt><trkpt lat="42.9689783" lon="10.804511"><ele>24.333333333333336</ele><time>2026-05-03T07:47:56.765Z</time></trkpt><trkpt lat="42.9690509" lon="10.8045396"><ele>24.5</ele><time>2026-05-03T07:47:57.767Z</time></trkpt><trkpt lat="42.9691276" lon="10.8045176"><ele>24.666666666666668</ele><time>2026-05-03T07:47:58.759Z</time></trkpt><trkpt lat="42.9691951" lon="10.8044542"><ele>24.833333333333336</ele><time>2026-05-03T07:47:59.764Z</time></trkpt><trkpt lat="42.9692409" lon="10.804366"><ele>25.0</ele><time>2026-05-03T07:48:00.767Z</time></trkpt><trkpt lat="42.9692732" lon="10.8042589"><ele>25.0</ele><time>2026-05-03T07:48:01.76Z</time></trkpt><trkpt lat="42.9693189" lon="10.8041527"><ele>25.0</ele><time>2026-05-03T07:48:02.761Z</time></trkpt><trkpt lat="42.9694024" lon="10.8040875"><ele>25.0</ele><time>2026-05-03T07:48:03.756Z</time></trkpt><trkpt lat="42.9695081" lon="10.8040745"><ele>25.0</ele><time>2026-05-03T07:48:04.766Z</time></trkpt><trkpt lat="42.9696076" lon="10.8040909"><ele>25.0</ele><time>2026-05-03T07:48:05.769Z</time></trkpt><trkpt lat="42.9697048" lon="10.8041405"><ele>25.0</ele><time>2026-05-03T07:48:06.758Z</time></trkpt><trkpt lat="42.9697995" lon="10.8042196"><ele>25.0</ele><time>2026-05-03T07:48:07.775Z</time></trkpt><trkpt lat="42.9699031" lon="10.8043163"><ele>25.0</ele><time>2026-05-03T07:48:08.746Z</time></trkpt><trkpt lat="42.9700103" lon="10.8044189"><ele>25.0</ele><time>2026-05-03T07:48:09.772Z</time></trkpt><trkpt lat="42.9701193" lon="10.8045173"><ele>24.75</ele><time>2026-05-03T07:48:10.754Z</time></trkpt><trkpt lat="42.9702398" lon="10.8045995"><ele>24.5</ele><time>2026-05-03T07:48:11.773Z</time></trkpt><trkpt lat="42.9703705" lon="10.8046479"><ele>24.25</ele><time>2026-05-03T07:48:12.76Z</time></trkpt><trkpt lat="42.9705148" lon="10.8046588"><ele>24.0</ele><time>2026-05-03T07:48:13.757Z</time></trkpt><trkpt lat="42.9706645" lon="10.8046459"><ele>24.0</ele><time>2026-05-03T07:48:14.76Z</time></trkpt><trkpt lat="42.9708096" lon="10.8046164"><ele>24.0</ele><time>2026-05-03T07:48:15.766Z</time></trkpt><trkpt lat="42.9709603" lon="10.8045911"><ele>24.0</ele><time>2026-05-03T07:48:16.767Z</time></trkpt><trkpt lat="42.9711122" lon="10.8045676"><ele>24.333333333333336</ele><time>2026-05-03T07:48:17.772Z</time></trkpt><trkpt lat="42.9712628" lon="10.8045444"><ele>24.666666666666668</ele><time>2026-05-03T07:48:18.758Z</time></trkpt><trkpt lat="42.9714192" lon="10.804526"><ele>25.0</ele><time>2026-05-03T07:48:19.762Z</time></trkpt><trkpt lat="42.9715739" lon="10.804505"><ele>25.333333333333336</ele><time>2026-05-03T07:48:20.754Z</time></trkpt><trkpt lat="42.971734" lon="10.804485"><ele>25.666666666666664</ele><time>2026-05-03T07:48:21.766Z</time></trkpt><trkpt lat="42.9718989" lon="10.8044619"><ele>26.0</ele><time>2026-05-03T07:48:22.776Z</time></trkpt><trkpt lat="42.9720655" lon="10.8044384"><ele>26.0</ele><time>2026-05-03T07:48:23.765Z</time></trkpt><trkpt lat="42.9722324" lon="10.8044123"><ele>26.0</ele><time>2026-05-03T07:48:24.769Z</time></trkpt><trkpt lat="42.9724017" lon="10.8043936"><ele>26.0</ele><time>2026-05-03T07:48:25.766Z</time></trkpt><trkpt lat="42.9725723" lon="10.8043722"><ele>26.0</ele><time>2026-05-03T07:48:26.76Z</time></trkpt><trkpt lat="42.9727479" lon="10.804348"><ele>26.0</ele><time>2026-05-03T07:48:27.765Z</time></trkpt><trkpt lat="42.9729249" lon="10.8043222"><ele>26.0</ele><time>2026-05-03T07:48:28.752Z</time></trkpt><trkpt lat="42.9731045" lon="10.8042961"><ele>26.0</ele><time>2026-05-03T07:48:29.761Z</time></trkpt><trkpt lat="42.9732857" lon="10.8042656"><ele>26.0</ele><time>2026-05-03T07:48:30.777Z</time></trkpt><trkpt lat="42.9734674" lon="10.8042335"><ele>26.0</ele><time>2026-05-03T07:48:31.769Z</time></trkpt><trkpt lat="42.9736493" lon="10.8042075"><ele>26.333333333333332</ele><time>2026-05-03T07:48:32.767Z</time></trkpt><trkpt lat="42.9738323" lon="10.8041798"><ele>26.666666666666664</ele><time>2026-05-03T07:48:33.765Z</time></trkpt><trkpt lat="42.9740147" lon="10.8041547"><ele>27.0</ele><time>2026-05-03T07:48:34.758Z</time></trkpt><trkpt lat="42.9741899" lon="10.8041267"><ele>27.0</ele><time>2026-05-03T07:48:35.772Z</time></trkpt><trkpt lat="42.9743644" lon="10.8041034"><ele>27.0</ele><time>2026-05-03T07:48:36.763Z</time></trkpt><trkpt lat="42.9745375" lon="10.8040731"><ele>27.0</ele><time>2026-05-03T07:48:37.774Z</time></trkpt><trkpt lat="42.9747108" lon="10.804047"><ele>27.0</ele><time>2026-05-03T07:48:38.768Z</time></trkpt><trkpt lat="42.9748866" lon="10.8040209"><ele>27.0</ele><time>2026-05-03T07:48:39.772Z</time></trkpt><trkpt lat="42.9750652" lon="10.8039994"><ele>27.0</ele><time>2026-05-03T07:48:40.769Z</time></trkpt><trkpt lat="42.975246" lon="10.803977"><ele>27.666666666666664</ele><time>2026-05-03T07:48:41.767Z</time></trkpt><trkpt lat="42.9754173" lon="10.8039494"><ele>28.333333333333332</ele><time>2026-05-03T07:48:42.778Z</time></trkpt><trkpt lat="42.9755747" lon="10.80393"><ele>29.0</ele><time>2026-05-03T07:48:43.766Z</time></trkpt><trkpt lat="42.9757162" lon="10.8039103"><ele>29.0</ele><time>2026-05-03T07:48:44.755Z</time></trkpt><trkpt lat="42.9758506" lon="10.8038947"><ele>29.0</ele><time>2026-05-03T07:48:45.788Z</time></trkpt><trkpt lat="42.9759874" lon="10.8038721"><ele>29.0</ele><time>2026-05-03T07:48:46.761Z</time></trkpt><trkpt lat="42.9761339" lon="10.8038526"><ele>29.0</ele><time>2026-05-03T07:48:47.755Z</time></trkpt><trkpt lat="42.9762864" lon="10.803828"><ele>28.666666666666664</ele><time>2026-05-03T07:48:48.752Z</time></trkpt><trkpt lat="42.9764454" lon="10.8038042"><ele>28.333333333333336</ele><time>2026-05-03T07:48:49.763Z</time></trkpt><trkpt lat="42.9766142" lon="10.803782"><ele>28.0</ele><time>2026-05-03T07:48:50.769Z</time></trkpt><trkpt lat="42.9767871" lon="10.8037599"><ele>28.666666666666668</ele><time>2026-05-03T07:48:51.776Z</time></trkpt><trkpt lat="42.9769655" lon="10.8037365"><ele>29.333333333333336</ele><time>2026-05-03T07:48:52.761Z</time></trkpt><trkpt lat="42.9771464" lon="10.8037113"><ele>30.0</ele><time>2026-05-03T07:48:53.764Z</time></trkpt><trkpt lat="42.9773295" lon="10.8036816"><ele>30.0</ele><time>2026-05-03T07:48:54.772Z</time></trkpt><trkpt lat="42.9775183" lon="10.8036541"><ele>30.0</ele><time>2026-05-03T07:48:55.762Z</time></trkpt><trkpt lat="42.9777116" lon="10.8036295"><ele>30.0</ele><time>2026-05-03T07:48:56.767Z</time></trkpt><trkpt lat="42.9779093" lon="10.8036075"><ele>29.666666666666664</ele><time>2026-05-03T07:48:57.775Z</time></trkpt><trkpt lat="42.9781031" lon="10.8035761"><ele>29.333333333333332</ele><time>2026-05-03T07:48:58.771Z</time></trkpt><trkpt lat="42.9782983" lon="10.8035437"><ele>29.0</ele><time>2026-05-03T07:48:59.761Z</time></trkpt><trkpt lat="42.9784896" lon="10.8035148"><ele>30.333333333333332</ele><time>2026-05-03T07:49:00.776Z</time></trkpt><trkpt lat="42.9786789" lon="10.8034897"><ele>31.666666666666664</ele><time>2026-05-03T07:49:01.762Z</time></trkpt><trkpt lat="42.9788647" lon="10.8034621"><ele>33.0</ele><time>2026-05-03T07:49:02.773Z</time></trkpt><trkpt lat="42.9790521" lon="10.803436"><ele>32.666666666666664</ele><time>2026-05-03T07:49:03.767Z</time></trkpt><trkpt lat="42.9792345" lon="10.803402"><ele>32.33333333333333</ele><time>2026-05-03T07:49:04.76Z</time></trkpt><trkpt lat="42.9794149" lon="10.8033738"><ele>32.0</ele><time>2026-05-03T07:49:05.768Z</time></trkpt><trkpt lat="42.9795944" lon="10.8033513"><ele>32.0</ele><time>2026-05-03T07:49:06.765Z</time></trkpt><trkpt lat="42.9797729" lon="10.8033342"><ele>32.0</ele><time>2026-05-03T07:49:07.766Z</time></trkpt><trkpt lat="42.9799507" lon="10.8033155"><ele>32.0</ele><time>2026-05-03T07:49:08.781Z</time></trkpt><trkpt lat="42.9801269" lon="10.8032859"><ele>33.0</ele><time>2026-05-03T07:49:09.772Z</time></trkpt><trkpt lat="42.9803063" lon="10.8032607"><ele>34.0</ele><time>2026-05-03T07:49:10.759Z</time></trkpt><trkpt lat="42.9804889" lon="10.8032345"><ele>35.0</ele><time>2026-05-03T07:49:11.762Z</time></trkpt><trkpt lat="42.9806743" lon="10.8032071"><ele>35.33333333333333</ele><time>2026-05-03T07:49:12.767Z</time></trkpt><trkpt lat="42.9808519" lon="10.8031805"><ele>35.666666666666664</ele><time>2026-05-03T07:49:13.771Z</time></trkpt><trkpt lat="42.9810241" lon="10.8031609"><ele>36.0</ele><time>2026-05-03T07:49:14.76Z</time></trkpt><trkpt lat="42.9811928" lon="10.8031358"><ele>36.0</ele><time>2026-05-03T07:49:15.776Z</time></trkpt><trkpt lat="42.9813632" lon="10.8031063"><ele>36.0</ele><time>2026-05-03T07:49:16.776Z</time></trkpt><trkpt lat="42.9815374" lon="10.8030841"><ele>36.0</ele><time>2026-05-03T07:49:17.769Z</time></trkpt><trkpt lat="42.9817166" lon="10.8030595"><ele>36.0</ele><time>2026-05-03T07:49:18.759Z</time></trkpt><trkpt lat="42.9819001" lon="10.8030257"><ele>36.0</ele><time>2026-05-03T07:49:19.766Z</time></trkpt><trkpt lat="42.982084" lon="10.8029701"><ele>36.0</ele><time>2026-05-03T07:49:20.759Z</time></trkpt><trkpt lat="42.9822595" lon="10.8028979"><ele>36.0</ele><time>2026-05-03T07:49:21.765Z</time></trkpt><trkpt lat="42.9824309" lon="10.802809"><ele>36.0</ele><time>2026-05-03T07:49:22.774Z</time></trkpt><trkpt lat="42.9825943" lon="10.8027114"><ele>36.0</ele><time>2026-05-03T07:49:23.763Z</time></trkpt><trkpt lat="42.9827548" lon="10.8026084"><ele>35.666666666666664</ele><time>2026-05-03T07:49:24.761Z</time></trkpt><trkpt lat="42.9829068" lon="10.8024975"><ele>35.33333333333333</ele><time>2026-05-03T07:49:25.778Z</time></trkpt><trkpt lat="42.9830513" lon="10.8023812"><ele>35.0</ele><time>2026-05-03T07:49:26.76Z</time></trkpt><trkpt lat="42.9831936" lon="10.8022568"><ele>35.0</ele><time>2026-05-03T07:49:27.78Z</time></trkpt><trkpt lat="42.9833342" lon="10.8021127"><ele>35.0</ele><time>2026-05-03T07:49:28.767Z</time></trkpt><trkpt lat="42.9834683" lon="10.8019627"><ele>35.0</ele><time>2026-05-03T07:49:29.766Z</time></trkpt><trkpt lat="42.9836042" lon="10.8018121"><ele>35.0</ele><time>2026-05-03T07:49:30.759Z</time></trkpt><trkpt lat="42.9837364" lon="10.8016522"><ele>35.0</ele><time>2026-05-03T07:49:31.76Z</time></trkpt><trkpt lat="42.9838663" lon="10.8014931"><ele>35.0</ele><time>2026-05-03T07:49:32.755Z</time></trkpt><trkpt lat="42.9839973" lon="10.8013306"><ele>35.0</ele><time>2026-05-03T07:49:33.766Z</time></trkpt><trkpt lat="42.984131" lon="10.801169"><ele>35.0</ele><time>2026-05-03T07:49:34.769Z</time></trkpt><trkpt lat="42.9842635" lon="10.8010071"><ele>35.0</ele><time>2026-05-03T07:49:35.774Z</time></trkpt><trkpt lat="42.9843931" lon="10.8008481"><ele>35.0</ele><time>2026-05-03T07:49:36.767Z</time></trkpt><trkpt lat="42.9845216" lon="10.8006908"><ele>35.0</ele><time>2026-05-03T07:49:37.763Z</time></trkpt><trkpt lat="42.9846508" lon="10.8005318"><ele>35.0</ele><time>2026-05-03T07:49:38.768Z</time></trkpt><trkpt lat="42.9847767" lon="10.8003698"><ele>35.0</ele><time>2026-05-03T07:49:39.767Z</time></trkpt><trkpt lat="42.9849086" lon="10.8002101"><ele>35.0</ele><time>2026-05-03T07:49:40.76Z</time></trkpt><trkpt lat="42.9850414" lon="10.8000489"><ele>35.0</ele><time>2026-05-03T07:49:41.759Z</time></trkpt><trkpt lat="42.9851745" lon="10.799888"><ele>35.666666666666664</ele><time>2026-05-03T07:49:42.771Z</time></trkpt><trkpt lat="42.9853061" lon="10.799722"><ele>36.333333333333336</ele><time>2026-05-03T07:49:43.766Z</time></trkpt><trkpt lat="42.9854421" lon="10.7995609"><ele>37.0</ele><time>2026-05-03T07:49:44.754Z</time></trkpt><trkpt lat="42.9855845" lon="10.7994099"><ele>37.0</ele><time>2026-05-03T07:49:45.77Z</time></trkpt><trkpt lat="42.9857309" lon="10.7992623"><ele>37.0</ele><time>2026-05-03T07:49:46.748Z</time></trkpt><trkpt lat="42.9858846" lon="10.7991292"><ele>37.0</ele><time>2026-05-03T07:49:47.763Z</time></trkpt><trkpt lat="42.986045" lon="10.7990074"><ele>37.0</ele><time>2026-05-03T07:49:48.762Z</time></trkpt><trkpt lat="42.9862167" lon="10.7989061"><ele>37.0</ele><time>2026-05-03T07:49:49.779Z</time></trkpt><trkpt lat="42.9863907" lon="10.7988026"><ele>37.0</ele><time>2026-05-03T07:49:50.769Z</time></trkpt><trkpt lat="42.9865716" lon="10.79872"><ele>37.66666666666667</ele><time>2026-05-03T07:49:51.78Z</time></trkpt><trkpt lat="42.9867568" lon="10.798656"><ele>38.333333333333336</ele><time>2026-05-03T07:49:52.765Z</time></trkpt><trkpt lat="42.9869438" lon="10.7986072"><ele>39.0</ele><time>2026-05-03T07:49:53.755Z</time></trkpt><trkpt lat="42.9871294" lon="10.7985682"><ele>39.0</ele><time>2026-05-03T07:49:54.765Z</time></trkpt><trkpt lat="42.9873108" lon="10.7985446"><ele>39.0</ele><time>2026-05-03T07:49:55.757Z</time></trkpt><trkpt lat="42.9874901" lon="10.7985283"><ele>39.0</ele><time>2026-05-03T07:49:56.769Z</time></trkpt><trkpt lat="42.9876706" lon="10.7985177"><ele>38.333333333333336</ele><time>2026-05-03T07:49:57.773Z</time></trkpt><trkpt lat="42.9878508" lon="10.7985114"><ele>37.66666666666667</ele><time>2026-05-03T07:49:58.767Z</time></trkpt><trkpt lat="42.9880348" lon="10.7985049"><ele>37.0</ele><time>2026-05-03T07:49:59.766Z</time></trkpt><trkpt lat="42.9882207" lon="10.7984994"><ele>38.0</ele><time>2026-05-03T07:50:00.757Z</time></trkpt><trkpt lat="42.9884085" lon="10.7984911"><ele>39.0</ele><time>2026-05-03T07:50:01.759Z</time></trkpt><trkpt lat="42.9885969" lon="10.7984855"><ele>40.0</ele><time>2026-05-03T07:50:02.767Z</time></trkpt><trkpt lat="42.988786" lon="10.7984783"><ele>40.0</ele><time>2026-05-03T07:50:03.771Z</time></trkpt><trkpt lat="42.9889739" lon="10.7984729"><ele>40.0</ele><time>2026-05-03T07:50:04.764Z</time></trkpt><trkpt lat="42.9891636" lon="10.798462"><ele>40.0</ele><time>2026-05-03T07:50:05.766Z</time></trkpt><trkpt lat="42.9893541" lon="10.7984506"><ele>40.66666666666667</ele><time>2026-05-03T07:50:06.754Z</time></trkpt><trkpt lat="42.9895446" lon="10.7984439"><ele>41.333333333333336</ele><time>2026-05-03T07:50:07.772Z</time></trkpt><trkpt lat="42.9897354" lon="10.7984314"><ele>42.0</ele><time>2026-05-03T07:50:08.759Z</time></trkpt><trkpt lat="42.989923" lon="10.7984197"><ele>42.0</ele><time>2026-05-03T07:50:09.764Z</time></trkpt><trkpt lat="42.9901127" lon="10.7984186"><ele>42.0</ele><time>2026-05-03T07:50:10.756Z</time></trkpt><trkpt lat="42.9903004" lon="10.7984151"><ele>42.0</ele><time>2026-05-03T07:50:11.76Z</time></trkpt><trkpt lat="42.9904861" lon="10.7984043"><ele>42.0</ele><time>2026-05-03T07:50:12.754Z</time></trkpt><trkpt lat="42.9906755" lon="10.7983955"><ele>42.0</ele><time>2026-05-03T07:50:13.773Z</time></trkpt><trkpt lat="42.9908663" lon="10.7983766"><ele>42.0</ele><time>2026-05-03T07:50:14.755Z</time></trkpt><trkpt lat="42.9910573" lon="10.7983451"><ele>42.0</ele><time>2026-05-03T07:50:15.771Z</time></trkpt><trkpt lat="42.9912553" lon="10.7983011"><ele>42.0</ele><time>2026-05-03T07:50:16.752Z</time></trkpt><trkpt lat="42.9914549" lon="10.7982406"><ele>42.0</ele><time>2026-05-03T07:50:17.765Z</time></trkpt><trkpt lat="42.9916568" lon="10.7981537"><ele>42.0</ele><time>2026-05-03T07:50:18.766Z</time></trkpt><trkpt lat="42.991857" lon="10.79805"><ele>42.0</ele><time>2026-05-03T07:50:19.776Z</time></trkpt><trkpt lat="42.9920541" lon="10.7979324"><ele>42.0</ele><time>2026-05-03T07:50:20.766Z</time></trkpt><trkpt lat="42.992247" lon="10.7977973"><ele>41.333333333333336</ele><time>2026-05-03T07:50:21.767Z</time></trkpt><trkpt lat="42.9924281" lon="10.7976471"><ele>40.66666666666667</ele><time>2026-05-03T07:50:22.768Z</time></trkpt><trkpt lat="42.9926087" lon="10.7974812"><ele>40.0</ele><time>2026-05-03T07:50:23.753Z</time></trkpt><trkpt lat="42.9927735" lon="10.7972981"><ele>40.0</ele><time>2026-05-03T07:50:24.759Z</time></trkpt><trkpt lat="42.992925" lon="10.797101"><ele>40.0</ele><time>2026-05-03T07:50:25.754Z</time></trkpt><trkpt lat="42.9930728" lon="10.7969027"><ele>40.0</ele><time>2026-05-03T07:50:26.753Z</time></trkpt><trkpt lat="42.9932212" lon="10.7967119"><ele>41.0</ele><time>2026-05-03T07:50:27.77Z</time></trkpt><trkpt lat="42.9933725" lon="10.7965241"><ele>42.0</ele><time>2026-05-03T07:50:28.757Z</time></trkpt><trkpt lat="42.9935287" lon="10.7963493"><ele>43.0</ele><time>2026-05-03T07:50:29.772Z</time></trkpt><trkpt lat="42.9936934" lon="10.7961799"><ele>43.0</ele><time>2026-05-03T07:50:30.761Z</time></trkpt><trkpt lat="42.9938667" lon="10.7960186"><ele>43.0</ele><time>2026-05-03T07:50:31.754Z</time></trkpt><trkpt lat="42.994053" lon="10.7958752"><ele>43.0</ele><time>2026-05-03T07:50:32.76Z</time></trkpt><trkpt lat="42.9942463" lon="10.795746"><ele>43.333333333333336</ele><time>2026-05-03T07:50:33.754Z</time></trkpt><trkpt lat="42.9944435" lon="10.7956197"><ele>43.666666666666664</ele><time>2026-05-03T07:50:34.764Z</time></trkpt><trkpt lat="42.9946424" lon="10.7954971"><ele>44.0</ele><time>2026-05-03T07:50:35.762Z</time></trkpt><trkpt lat="42.9948482" lon="10.795385"><ele>44.33333333333333</ele><time>2026-05-03T07:50:36.765Z</time></trkpt><trkpt lat="42.9950451" lon="10.7952667"><ele>44.666666666666664</ele><time>2026-05-03T07:50:37.751Z</time></trkpt><trkpt lat="42.9952271" lon="10.7951538"><ele>45.0</ele><time>2026-05-03T07:50:38.756Z</time></trkpt><trkpt lat="42.9954022" lon="10.7950516"><ele>45.0</ele><time>2026-05-03T07:50:39.778Z</time></trkpt><trkpt lat="42.9955641" lon="10.7949623"><ele>45.0</ele><time>2026-05-03T07:50:40.765Z</time></trkpt><trkpt lat="42.9957209" lon="10.7948739"><ele>45.0</ele><time>2026-05-03T07:50:41.773Z</time></trkpt><trkpt lat="42.9958796" lon="10.7947825"><ele>45.0</ele><time>2026-05-03T07:50:42.76Z</time></trkpt><trkpt lat="42.9960401" lon="10.7946927"><ele>45.0</ele><time>2026-05-03T07:50:43.766Z</time></trkpt><trkpt lat="42.9961897" lon="10.7946051"><ele>45.0</ele><time>2026-05-03T07:50:44.76Z</time></trkpt><trkpt lat="42.9963299" lon="10.7945207"><ele>45.0</ele><time>2026-05-03T07:50:45.755Z</time></trkpt><trkpt lat="42.9964608" lon="10.7944438"><ele>45.0</ele><time>2026-05-03T07:50:46.764Z</time></trkpt><trkpt lat="42.996585" lon="10.7943697"><ele>45.0</ele><time>2026-05-03T07:50:47.774Z</time></trkpt><trkpt lat="42.9967014" lon="10.7942909"><ele>45.0</ele><time>2026-05-03T07:50:48.773Z</time></trkpt><trkpt lat="42.9968191" lon="10.7942231"><ele>46.0</ele><time>2026-05-03T07:50:49.758Z</time></trkpt><trkpt lat="42.9969435" lon="10.7941469"><ele>47.0</ele><time>2026-05-03T07:50:50.771Z</time></trkpt><trkpt lat="42.9970769" lon="10.794069"><ele>48.0</ele><time>2026-05-03T07:50:51.774Z</time></trkpt><trkpt lat="42.9972137" lon="10.7939885"><ele>49.0</ele><time>2026-05-03T07:50:52.766Z</time></trkpt><trkpt lat="42.9973485" lon="10.7939073"><ele>49.0</ele><time>2026-05-03T07:50:53.772Z</time></trkpt><trkpt lat="42.9974835" lon="10.7938272"><ele>49.0</ele><time>2026-05-03T07:50:54.765Z</time></trkpt><trkpt lat="42.9976205" lon="10.7937459"><ele>49.0</ele><time>2026-05-03T07:50:55.767Z</time></trkpt><trkpt lat="42.9977644" lon="10.7936649"><ele>48.33333333333333</ele><time>2026-05-03T07:50:56.764Z</time></trkpt><trkpt lat="42.99791" lon="10.7935817"><ele>47.666666666666664</ele><time>2026-05-03T07:50:57.765Z</time></trkpt><trkpt lat="42.9980552" lon="10.7934972"><ele>47.0</ele><time>2026-05-03T07:50:58.767Z</time></trkpt><trkpt lat="42.9982022" lon="10.7934089"><ele>47.33333333333333</ele><time>2026-05-03T07:50:59.763Z</time></trkpt><trkpt lat="42.9983463" lon="10.7933244"><ele>47.666666666666664</ele><time>2026-05-03T07:51:00.777Z</time></trkpt><trkpt lat="42.9984918" lon="10.7932351"><ele>48.0</ele><time>2026-05-03T07:51:01.779Z</time></trkpt><trkpt lat="42.9986357" lon="10.7931485"><ele>48.0</ele><time>2026-05-03T07:51:02.754Z</time></trkpt><trkpt lat="42.9987817" lon="10.7930725"><ele>48.0</ele><time>2026-05-03T07:51:03.768Z</time></trkpt><trkpt lat="42.9989237" lon="10.7929922"><ele>48.0</ele><time>2026-05-03T07:51:04.776Z</time></trkpt><trkpt lat="42.9990672" lon="10.7929143"><ele>47.666666666666664</ele><time>2026-05-03T07:51:05.763Z</time></trkpt><trkpt lat="42.9992106" lon="10.7928358"><ele>47.33333333333333</ele><time>2026-05-03T07:51:06.768Z</time></trkpt><trkpt lat="42.9993549" lon="10.7927502"><ele>47.0</ele><time>2026-05-03T07:51:07.776Z</time></trkpt><trkpt lat="42.999495" lon="10.7926683"><ele>48.5</ele><time>2026-05-03T07:51:08.751Z</time></trkpt><trkpt lat="42.9996269" lon="10.7926004"><ele>50.0</ele><time>2026-05-03T07:51:09.761Z</time></trkpt><trkpt lat="42.9997467" lon="10.7925422"><ele>51.5</ele><time>2026-05-03T07:51:10.757Z</time></trkpt><trkpt lat="42.999852" lon="10.7925054"><ele>53.0</ele><time>2026-05-03T07:51:11.78Z</time></trkpt><trkpt lat="42.9999578" lon="10.7925199"><ele>53.0</ele><time>2026-05-03T07:51:12.759Z</time></trkpt><trkpt lat="43.0000401" lon="10.7925865"><ele>53.0</ele><time>2026-05-03T07:51:13.759Z</time></trkpt><trkpt lat="43.0000943" lon="10.7926971"><ele>53.0</ele><time>2026-05-03T07:51:14.77Z</time></trkpt><trkpt lat="43.0001408" lon="10.7928366"><ele>53.0</ele><time>2026-05-03T07:51:15.777Z</time></trkpt><trkpt lat="43.0001923" lon="10.7929768"><ele>53.0</ele><time>2026-05-03T07:51:16.766Z</time></trkpt><trkpt lat="43.0002735" lon="10.7930885"><ele>51.5</ele><time>2026-05-03T07:51:17.755Z</time></trkpt><trkpt lat="43.0003828" lon="10.7931682"><ele>50.0</ele><time>2026-05-03T07:51:18.766Z</time></trkpt><trkpt lat="43.000493" lon="10.7931997"><ele>48.5</ele><time>2026-05-03T07:51:19.758Z</time></trkpt><trkpt lat="43.0006143" lon="10.7931895"><ele>47.0</ele><time>2026-05-03T07:51:20.767Z</time></trkpt><trkpt lat="43.0007334" lon="10.7931439"><ele>47.400000000000006</ele><time>2026-05-03T07:51:21.77Z</time></trkpt><trkpt lat="43.0008557" lon="10.7930655"><ele>47.800000000000004</ele><time>2026-05-03T07:51:22.772Z</time></trkpt><trkpt lat="43.0009628" lon="10.7929841"><ele>48.2</ele><time>2026-05-03T07:51:23.768Z</time></trkpt><trkpt lat="43.001049" lon="10.7929176"><ele>48.6</ele><time>2026-05-03T07:51:24.754Z</time></trkpt><trkpt lat="43.0011258" lon="10.7928612"><ele>49.0</ele><time>2026-05-03T07:51:25.77Z</time></trkpt><trkpt lat="43.0011989" lon="10.7928132"><ele>49.0</ele><time>2026-05-03T07:51:26.76Z</time></trkpt><trkpt lat="43.0012732" lon="10.7927823"><ele>49.0</ele><time>2026-05-03T07:51:27.767Z</time></trkpt><trkpt lat="43.0013559" lon="10.7927785"><ele>49.0</ele><time>2026-05-03T07:51:28.759Z</time></trkpt><trkpt lat="43.0014509" lon="10.7928223"><ele>49.0</ele><time>2026-05-03T07:51:29.764Z</time></trkpt><trkpt lat="43.001555" lon="10.7928772"><ele>49.0</ele><time>2026-05-03T07:51:30.756Z</time></trkpt><trkpt lat="43.001665" lon="10.7929364"><ele>49.0</ele><time>2026-05-03T07:51:31.763Z</time></trkpt><trkpt lat="43.0017752" lon="10.7930037"><ele>49.0</ele><time>2026-05-03T07:51:32.76Z</time></trkpt><trkpt lat="43.0018848" lon="10.7930585"><ele>49.0</ele><time>2026-05-03T07:51:33.764Z</time></trkpt><trkpt lat="43.0019987" lon="10.793123"><ele>49.0</ele><time>2026-05-03T07:51:34.749Z</time></trkpt><trkpt lat="43.0021164" lon="10.7931876"><ele>49.0</ele><time>2026-05-03T07:51:35.769Z</time></trkpt><trkpt lat="43.0022373" lon="10.7932527"><ele>49.0</ele><time>2026-05-03T07:51:36.761Z</time></trkpt><trkpt lat="43.0023595" lon="10.7933193"><ele>49.0</ele><time>2026-05-03T07:51:37.766Z</time></trkpt><trkpt lat="43.0024844" lon="10.7933867"><ele>49.0</ele><time>2026-05-03T07:51:38.766Z</time></trkpt><trkpt lat="43.00261" lon="10.7934523"><ele>49.25</ele><time>2026-05-03T07:51:39.765Z</time></trkpt><trkpt lat="43.0027347" lon="10.7935179"><ele>49.5</ele><time>2026-05-03T07:51:40.757Z</time></trkpt><trkpt lat="43.0028647" lon="10.7935785"><ele>49.75</ele><time>2026-05-03T07:51:41.763Z</time></trkpt><trkpt lat="43.0030002" lon="10.793627"><ele>50.0</ele><time>2026-05-03T07:51:42.773Z</time></trkpt><trkpt lat="43.0031442" lon="10.7936713"><ele>50.0</ele><time>2026-05-03T07:51:43.777Z</time></trkpt><trkpt lat="43.0032957" lon="10.7937117"><ele>50.0</ele><time>2026-05-03T07:51:44.769Z</time></trkpt><trkpt lat="43.0034489" lon="10.7937532"><ele>50.0</ele><time>2026-05-03T07:51:45.78Z</time></trkpt><trkpt lat="43.0036024" lon="10.793793"><ele>50.333333333333336</ele><time>2026-05-03T07:51:46.764Z</time></trkpt><trkpt lat="43.0037544" lon="10.7938328"><ele>50.66666666666667</ele><time>2026-05-03T07:51:47.757Z</time></trkpt><trkpt lat="43.0039071" lon="10.7938747"><ele>51.0</ele><time>2026-05-03T07:51:48.771Z</time></trkpt><trkpt lat="43.004059" lon="10.793915"><ele>52.0</ele><time>2026-05-03T07:51:49.771Z</time></trkpt><trkpt lat="43.0042073" lon="10.7939568"><ele>53.0</ele><time>2026-05-03T07:51:50.761Z</time></trkpt><trkpt lat="43.0043567" lon="10.7939971"><ele>54.0</ele><time>2026-05-03T07:51:51.774Z</time></trkpt><trkpt lat="43.0045012" lon="10.7940372"><ele>54.0</ele><time>2026-05-03T07:51:52.765Z</time></trkpt><trkpt lat="43.004642" lon="10.7940748"><ele>54.0</ele><time>2026-05-03T07:51:53.775Z</time></trkpt><trkpt lat="43.0047797" lon="10.7941174"><ele>54.0</ele><time>2026-05-03T07:51:54.757Z</time></trkpt><trkpt lat="43.00492" lon="10.7941603"><ele>54.0</ele><time>2026-05-03T07:51:55.752Z</time></trkpt><trkpt lat="43.0050596" lon="10.7941988"><ele>55.25</ele><time>2026-05-03T07:51:56.76Z</time></trkpt><trkpt lat="43.0052014" lon="10.7942368"><ele>56.5</ele><time>2026-05-03T07:51:57.761Z</time></trkpt><trkpt lat="43.005345" lon="10.7942779"><ele>57.75</ele><time>2026-05-03T07:51:58.772Z</time></trkpt><trkpt lat="43.0054895" lon="10.7943198"><ele>59.0</ele><time>2026-05-03T07:51:59.765Z</time></trkpt><trkpt lat="43.0056383" lon="10.7943618"><ele>61.333333333333336</ele><time>2026-05-03T07:52:00.758Z</time></trkpt><trkpt lat="43.0057883" lon="10.7944"><ele>63.66666666666667</ele><time>2026-05-03T07:52:01.776Z</time></trkpt><trkpt lat="43.0059389" lon="10.7944369"><ele>66.0</ele><time>2026-05-03T07:52:02.755Z</time></trkpt><trkpt lat="43.0060931" lon="10.7944769"><ele>68.66666666666667</ele><time>2026-05-03T07:52:03.786Z</time></trkpt><trkpt lat="43.0062449" lon="10.7945172"><ele>71.33333333333334</ele><time>2026-05-03T07:52:04.765Z</time></trkpt><trkpt lat="43.0063922" lon="10.7945557"><ele>74.0</ele><time>2026-05-03T07:52:05.766Z</time></trkpt><trkpt lat="43.0065405" lon="10.7945975"><ele>74.75</ele><time>2026-05-03T07:52:06.761Z</time></trkpt><trkpt lat="43.0066784" lon="10.7946334"><ele>75.5</ele><time>2026-05-03T07:52:07.78Z</time></trkpt><trkpt lat="43.0068085" lon="10.7946687"><ele>76.25</ele><time>2026-05-03T07:52:08.762Z</time></trkpt><trkpt lat="43.0069328" lon="10.7946987"><ele>77.0</ele><time>2026-05-03T07:52:09.767Z</time></trkpt><trkpt lat="43.0070578" lon="10.7947316"><ele>77.0</ele><time>2026-05-03T07:52:10.763Z</time></trkpt><trkpt lat="43.0071828" lon="10.7947594"><ele>77.0</ele><time>2026-05-03T07:52:11.77Z</time></trkpt><trkpt lat="43.0073045" lon="10.7947828"><ele>77.0</ele><time>2026-05-03T07:52:12.78Z</time></trkpt><trkpt lat="43.007437" lon="10.7948101"><ele>77.0</ele><time>2026-05-03T07:52:13.763Z</time></trkpt><trkpt lat="43.0075772" lon="10.794832"><ele>77.5</ele><time>2026-05-03T07:52:14.778Z</time></trkpt><trkpt lat="43.0077197" lon="10.7948633"><ele>78.0</ele><time>2026-05-03T07:52:15.766Z</time></trkpt><trkpt lat="43.007865" lon="10.7949178"><ele>78.5</ele><time>2026-05-03T07:52:16.757Z</time></trkpt><trkpt lat="43.008011" lon="10.7949816"><ele>79.0</ele><time>2026-05-03T07:52:17.736Z</time></trkpt><trkpt lat="43.0081563" lon="10.7950527"><ele>79.0</ele><time>2026-05-03T07:52:18.744Z</time></trkpt><trkpt lat="43.0082956" lon="10.7950957"><ele>79.0</ele><time>2026-05-03T07:52:19.765Z</time></trkpt><trkpt lat="43.0084675" lon="10.7951055"><ele>79.0</ele><time>2026-05-03T07:52:20.745Z</time></trkpt><trkpt lat="43.0086259" lon="10.7951079"><ele>78.5</ele><time>2026-05-03T07:52:21.746Z</time></trkpt><trkpt lat="43.0087636" lon="10.7950794"><ele>78.0</ele><time>2026-05-03T07:52:22.739Z</time></trkpt><trkpt lat="43.0088855" lon="10.7950029"><ele>77.5</ele><time>2026-05-03T07:52:23.741Z</time></trkpt><trkpt lat="43.0090168" lon="10.7949093"><ele>77.0</ele><time>2026-05-03T07:52:24.764Z</time></trkpt><trkpt lat="43.0091466" lon="10.7948253"><ele>76.0</ele><time>2026-05-03T07:52:25.751Z</time></trkpt><trkpt lat="43.0092796" lon="10.794729"><ele>75.0</ele><time>2026-05-03T07:52:26.734Z</time></trkpt><trkpt lat="43.0094214" lon="10.7946845"><ele>74.0</ele><time>2026-05-03T07:52:27.735Z</time></trkpt><trkpt lat="43.0095642" lon="10.7946501"><ele>73.0</ele><time>2026-05-03T07:52:28.741Z</time></trkpt><trkpt lat="43.0097064" lon="10.7946405"><ele>73.0</ele><time>2026-05-03T07:52:29.734Z</time></trkpt><trkpt lat="43.0098452" lon="10.7946329"><ele>73.0</ele><time>2026-05-03T07:52:30.752Z</time></trkpt><trkpt lat="43.0099712" lon="10.794581"><ele>73.0</ele><time>2026-05-03T07:52:31.748Z</time></trkpt><trkpt lat="43.0101008" lon="10.794499"><ele>73.0</ele><time>2026-05-03T07:52:32.729Z</time></trkpt><trkpt lat="43.0102319" lon="10.7944123"><ele>75.0</ele><time>2026-05-03T07:52:33.737Z</time></trkpt><trkpt lat="43.0103817" lon="10.7943312"><ele>77.0</ele><time>2026-05-03T07:52:34.737Z</time></trkpt><trkpt lat="43.0105331" lon="10.7942682"><ele>79.0</ele><time>2026-05-03T07:52:35.766Z</time></trkpt><trkpt lat="43.0106671" lon="10.7941869"><ele>79.0</ele><time>2026-05-03T07:52:36.752Z</time></trkpt><trkpt lat="43.010804" lon="10.7941299"><ele>79.0</ele><time>2026-05-03T07:52:37.741Z</time></trkpt><trkpt lat="43.0109407" lon="10.7940842"><ele>79.0</ele><time>2026-05-03T07:52:38.746Z</time></trkpt><trkpt lat="43.0110742" lon="10.7940234"><ele>79.0</ele><time>2026-05-03T07:52:39.762Z</time></trkpt><trkpt lat="43.0111918" lon="10.7939696"><ele>75.75</ele><time>2026-05-03T07:52:40.748Z</time></trkpt><trkpt lat="43.0113112" lon="10.7939086"><ele>72.5</ele><time>2026-05-03T07:52:41.746Z</time></trkpt><trkpt lat="43.0114246" lon="10.7938783"><ele>69.25</ele><time>2026-05-03T07:52:42.757Z</time></trkpt><trkpt lat="43.0115359" lon="10.7938833"><ele>66.0</ele><time>2026-05-03T07:52:43.747Z</time></trkpt><trkpt lat="43.0116513" lon="10.7939292"><ele>65.0</ele><time>2026-05-03T07:52:44.746Z</time></trkpt><trkpt lat="43.0117568" lon="10.7940068"><ele>64.0</ele><time>2026-05-03T07:52:45.759Z</time></trkpt><trkpt lat="43.011865" lon="10.7941256"><ele>63.0</ele><time>2026-05-03T07:52:46.75Z</time></trkpt><trkpt lat="43.0119681" lon="10.7942573"><ele>62.0</ele><time>2026-05-03T07:52:47.752Z</time></trkpt><trkpt lat="43.0120763" lon="10.7943771"><ele>61.5</ele><time>2026-05-03T07:52:48.762Z</time></trkpt><trkpt lat="43.0121839" lon="10.7945006"><ele>61.0</ele><time>2026-05-03T07:52:49.737Z</time></trkpt><trkpt lat="43.0122962" lon="10.7946323"><ele>60.5</ele><time>2026-05-03T07:52:50.751Z</time></trkpt><trkpt lat="43.012409" lon="10.7947724"><ele>60.0</ele><time>2026-05-03T07:52:51.748Z</time></trkpt><trkpt lat="43.0125243" lon="10.7949144"><ele>59.66666666666667</ele><time>2026-05-03T07:52:52.769Z</time></trkpt><trkpt lat="43.0126464" lon="10.7950497"><ele>59.333333333333336</ele><time>2026-05-03T07:52:53.754Z</time></trkpt><trkpt lat="43.012765" lon="10.7951832"><ele>59.0</ele><time>2026-05-03T07:52:54.752Z</time></trkpt><trkpt lat="43.0128822" lon="10.7953139"><ele>59.0</ele><time>2026-05-03T07:52:55.755Z</time></trkpt><trkpt lat="43.0129914" lon="10.7954458"><ele>59.0</ele><time>2026-05-03T07:52:56.767Z</time></trkpt><trkpt lat="43.013093" lon="10.7955693"><ele>59.0</ele><time>2026-05-03T07:52:57.758Z</time></trkpt><trkpt lat="43.013189" lon="10.7956893"><ele>59.0</ele><time>2026-05-03T07:52:58.76Z</time></trkpt><trkpt lat="43.0132839" lon="10.7958179"><ele>59.0</ele><time>2026-05-03T07:52:59.762Z</time></trkpt><trkpt lat="43.0133799" lon="10.7959417"><ele>59.0</ele><time>2026-05-03T07:53:00.749Z</time></trkpt><trkpt lat="43.0134885" lon="10.7960623"><ele>59.0</ele><time>2026-05-03T07:53:01.763Z</time></trkpt><trkpt lat="43.0135996" lon="10.7961531"><ele>59.0</ele><time>2026-05-03T07:53:02.742Z</time></trkpt><trkpt lat="43.0137243" lon="10.796202"><ele>60.0</ele><time>2026-05-03T07:53:03.753Z</time></trkpt><trkpt lat="43.0138642" lon="10.7961971"><ele>61.0</ele><time>2026-05-03T07:53:04.762Z</time></trkpt><trkpt lat="43.0140059" lon="10.7961588"><ele>62.0</ele><time>2026-05-03T07:53:05.759Z</time></trkpt><trkpt lat="43.0141394" lon="10.7961049"><ele>63.0</ele><time>2026-05-03T07:53:06.76Z</time></trkpt><trkpt lat="43.0142735" lon="10.7960563"><ele>63.25</ele><time>2026-05-03T07:53:07.759Z</time></trkpt><trkpt lat="43.014409" lon="10.7960153"><ele>63.5</ele><time>2026-05-03T07:53:08.752Z</time></trkpt><trkpt lat="43.0145421" lon="10.7959701"><ele>63.75</ele><time>2026-05-03T07:53:09.764Z</time></trkpt><trkpt lat="43.014677" lon="10.7959342"><ele>64.0</ele><time>2026-05-03T07:53:10.761Z</time></trkpt><trkpt lat="43.0148114" lon="10.7959083"><ele>64.0</ele><time>2026-05-03T07:53:11.758Z</time></trkpt><trkpt lat="43.014948" lon="10.7959005"><ele>64.0</ele><time>2026-05-03T07:53:12.754Z</time></trkpt><trkpt lat="43.0150869" lon="10.7959135"><ele>64.0</ele><time>2026-05-03T07:53:13.769Z</time></trkpt><trkpt lat="43.0152317" lon="10.7959588"><ele>64.0</ele><time>2026-05-03T07:53:14.749Z</time></trkpt><trkpt lat="43.0153754" lon="10.7960374"><ele>70.33333333333333</ele><time>2026-05-03T07:53:15.758Z</time></trkpt><trkpt lat="43.0155185" lon="10.7961324"><ele>76.66666666666667</ele><time>2026-05-03T07:53:16.757Z</time></trkpt><trkpt lat="43.0156593" lon="10.796226"><ele>83.0</ele><time>2026-05-03T07:53:17.759Z</time></trkpt><trkpt lat="43.0158036" lon="10.7963318"><ele>81.66666666666667</ele><time>2026-05-03T07:53:18.751Z</time></trkpt><trkpt lat="43.0159483" lon="10.7964391"><ele>80.33333333333333</ele><time>2026-05-03T07:53:19.749Z</time></trkpt><trkpt lat="43.0160909" lon="10.7965453"><ele>79.0</ele><time>2026-05-03T07:53:20.764Z</time></trkpt><trkpt lat="43.0162356" lon="10.7966528"><ele>79.0</ele><time>2026-05-03T07:53:21.753Z</time></trkpt><trkpt lat="43.0163814" lon="10.7967537"><ele>79.0</ele><time>2026-05-03T07:53:22.755Z</time></trkpt><trkpt lat="43.0165183" lon="10.7968498"><ele>79.0</ele><time>2026-05-03T07:53:23.757Z</time></trkpt><trkpt lat="43.0166547" lon="10.7969382"><ele>78.66666666666666</ele><time>2026-05-03T07:53:24.758Z</time></trkpt><trkpt lat="43.0167908" lon="10.7970306"><ele>78.33333333333333</ele><time>2026-05-03T07:53:25.757Z</time></trkpt><trkpt lat="43.0169289" lon="10.7971226"><ele>78.0</ele><time>2026-05-03T07:53:26.765Z</time></trkpt><trkpt lat="43.0170714" lon="10.7972217"><ele>78.0</ele><time>2026-05-03T07:53:27.759Z</time></trkpt><trkpt lat="43.0172046" lon="10.7973122"><ele>78.0</ele><time>2026-05-03T07:53:28.754Z</time></trkpt><trkpt lat="43.0173404" lon="10.7974006"><ele>78.0</ele><time>2026-05-03T07:53:29.766Z</time></trkpt><trkpt lat="43.0174788" lon="10.7974864"><ele>77.5</ele><time>2026-05-03T07:53:30.754Z</time></trkpt><trkpt lat="43.0176037" lon="10.7975688"><ele>77.0</ele><time>2026-05-03T07:53:31.76Z</time></trkpt><trkpt lat="43.01771" lon="10.7976572"><ele>76.5</ele><time>2026-05-03T07:53:32.757Z</time></trkpt><trkpt lat="43.0177904" lon="10.7977685"><ele>76.0</ele><time>2026-05-03T07:53:33.762Z</time></trkpt><trkpt lat="43.0178354" lon="10.7979018"><ele>76.0</ele><time>2026-05-03T07:53:34.758Z</time></trkpt><trkpt lat="43.0178371" lon="10.7980629"><ele>76.0</ele><time>2026-05-03T07:53:35.76Z</time></trkpt><trkpt lat="43.0178093" lon="10.7981982"><ele>76.0</ele><time>2026-05-03T07:53:36.759Z</time></trkpt><trkpt lat="43.0177918" lon="10.7983247"><ele>76.0</ele><time>2026-05-03T07:53:37.77Z</time></trkpt><trkpt lat="43.0178063" lon="10.7984436"><ele>76.0</ele><time>2026-05-03T07:53:38.757Z</time></trkpt><trkpt lat="43.0178648" lon="10.7985335"><ele>76.0</ele><time>2026-05-03T07:53:39.758Z</time></trkpt><trkpt lat="43.0179471" lon="10.7985758"><ele>76.0</ele><time>2026-05-03T07:53:40.76Z</time></trkpt><trkpt lat="43.0180461" lon="10.7985276"><ele>76.0</ele><time>2026-05-03T07:53:41.758Z</time></trkpt><trkpt lat="43.0181339" lon="10.7984321"><ele>76.0</ele><time>2026-05-03T07:53:42.754Z</time></trkpt><trkpt lat="43.0182166" lon="10.7983127"><ele>76.0</ele><time>2026-05-03T07:53:43.767Z</time></trkpt><trkpt lat="43.0183048" lon="10.7981992"><ele>75.75</ele><time>2026-05-03T07:53:44.762Z</time></trkpt><trkpt lat="43.0184118" lon="10.7981271"><ele>75.5</ele><time>2026-05-03T07:53:45.762Z</time></trkpt><trkpt lat="43.0185362" lon="10.7981224"><ele>75.25</ele><time>2026-05-03T07:53:46.747Z</time></trkpt><trkpt lat="43.0186536" lon="10.7981639"><ele>75.0</ele><time>2026-05-03T07:53:47.771Z</time></trkpt><trkpt lat="43.0187603" lon="10.7982378"><ele>75.0</ele><time>2026-05-03T07:53:48.782Z</time></trkpt><trkpt lat="43.0188597" lon="10.7983358"><ele>75.0</ele><time>2026-05-03T07:53:49.758Z</time></trkpt><trkpt lat="43.0189463" lon="10.7984516"><ele>75.0</ele><time>2026-05-03T07:53:50.76Z</time></trkpt><trkpt lat="43.0190306" lon="10.7985672"><ele>75.0</ele><time>2026-05-03T07:53:51.765Z</time></trkpt><trkpt lat="43.0191249" lon="10.7986538"><ele>76.4</ele><time>2026-05-03T07:53:52.753Z</time></trkpt><trkpt lat="43.0192289" lon="10.7986821"><ele>77.8</ele><time>2026-05-03T07:53:53.758Z</time></trkpt><trkpt lat="43.0193281" lon="10.7986473"><ele>79.19999999999999</ele><time>2026-05-03T07:53:54.762Z</time></trkpt><trkpt lat="43.0194113" lon="10.7985525"><ele>80.6</ele><time>2026-05-03T07:53:55.77Z</time></trkpt><trkpt lat="43.0194735" lon="10.7984188"><ele>82.0</ele><time>2026-05-03T07:53:56.754Z</time></trkpt><trkpt lat="43.0195459" lon="10.7983032"><ele>82.0</ele><time>2026-05-03T07:53:57.759Z</time></trkpt><trkpt lat="43.0196335" lon="10.798221"><ele>82.0</ele><time>2026-05-03T07:53:58.77Z</time></trkpt><trkpt lat="43.0197429" lon="10.7981894"><ele>82.0</ele><time>2026-05-03T07:53:59.765Z</time></trkpt><trkpt lat="43.0198606" lon="10.798195"><ele>82.0</ele><time>2026-05-03T07:54:00.76Z</time></trkpt><trkpt lat="43.0199775" lon="10.7982016"><ele>85.0</ele><time>2026-05-03T07:54:01.77Z</time></trkpt><trkpt lat="43.0200975" lon="10.7982146"><ele>88.0</ele><time>2026-05-03T07:54:02.756Z</time></trkpt><trkpt lat="43.0202205" lon="10.7982237"><ele>91.0</ele><time>2026-05-03T07:54:03.764Z</time></trkpt><trkpt lat="43.0203438" lon="10.7982387"><ele>94.0</ele><time>2026-05-03T07:54:04.758Z</time></trkpt><trkpt lat="43.0204702" lon="10.7982525"><ele>94.0</ele><time>2026-05-03T07:54:05.76Z</time></trkpt><trkpt lat="43.0205935" lon="10.7982488"><ele>94.0</ele><time>2026-05-03T07:54:06.756Z</time></trkpt><trkpt lat="43.0207151" lon="10.798217"><ele>94.0</ele><time>2026-05-03T07:54:07.755Z</time></trkpt><trkpt lat="43.0208167" lon="10.7981565"><ele>94.0</ele><time>2026-05-03T07:54:08.767Z</time></trkpt><trkpt lat="43.0208819" lon="10.7980473"><ele>95.75</ele><time>2026-05-03T07:54:09.762Z</time></trkpt><trkpt lat="43.0208944" lon="10.7978693"><ele>97.5</ele><time>2026-05-03T07:54:10.75Z</time></trkpt><trkpt lat="43.0208916" lon="10.7976761"><ele>99.25</ele><time>2026-05-03T07:54:11.766Z</time></trkpt><trkpt lat="43.0208985" lon="10.7974932"><ele>101.0</ele><time>2026-05-03T07:54:12.753Z</time></trkpt><trkpt lat="43.0209375" lon="10.7973387"><ele>101.0</ele><time>2026-05-03T07:54:13.772Z</time></trkpt><trkpt lat="43.0210021" lon="10.7972131"><ele>101.0</ele><time>2026-05-03T07:54:14.749Z</time></trkpt><trkpt lat="43.0210584" lon="10.7971678"><ele>101.0</ele><time>2026-05-03T07:54:15.774Z</time></trkpt><trkpt lat="43.0211331" lon="10.7972935"><ele>101.0</ele><time>2026-05-03T07:54:17.755Z</time></trkpt><trkpt lat="43.021135" lon="10.797402"><ele>101.0</ele><time>2026-05-03T07:54:18.766Z</time></trkpt><trkpt lat="43.0211256" lon="10.7975236"><ele>101.0</ele><time>2026-05-03T07:54:19.764Z</time></trkpt><trkpt lat="43.0211153" lon="10.7976641"><ele>101.0</ele><time>2026-05-03T07:54:20.754Z</time></trkpt><trkpt lat="43.0211223" lon="10.7978022"><ele>101.0</ele><time>2026-05-03T07:54:21.755Z</time></trkpt><trkpt lat="43.021129" lon="10.7979253"><ele>101.0</ele><time>2026-05-03T07:54:22.747Z</time></trkpt><trkpt lat="43.0211438" lon="10.7980111"><ele>101.0</ele><time>2026-05-03T07:54:23.765Z</time></trkpt><trkpt lat="43.0211517" lon="10.7982104"><ele>101.16666666666666</ele><time>2026-05-03T07:54:25.769Z</time></trkpt><trkpt lat="43.0211238" lon="10.7983264"><ele>101.33333333333333</ele><time>2026-05-03T07:54:26.756Z</time></trkpt><trkpt lat="43.0210772" lon="10.7984437"><ele>101.5</ele><time>2026-05-03T07:54:27.767Z</time></trkpt><trkpt lat="43.0210217" lon="10.7985637"><ele>101.66666666666666</ele><time>2026-05-03T07:54:28.761Z</time></trkpt><trkpt lat="43.0209697" lon="10.7986591"><ele>101.83333333333333</ele><time>2026-05-03T07:54:29.764Z</time></trkpt><trkpt lat="43.0209314" lon="10.7987401"><ele>102.0</ele><time>2026-05-03T07:54:30.763Z</time></trkpt><trkpt lat="43.0209223" lon="10.7988669"><ele>103.0</ele><time>2026-05-03T07:54:32.763Z</time></trkpt><trkpt lat="43.0209839" lon="10.7989975"><ele>104.0</ele><time>2026-05-03T07:54:34.771Z</time></trkpt><trkpt lat="43.0210514" lon="10.7990176"><ele>104.99999999999999</ele><time>2026-05-03T07:54:35.764Z</time></trkpt><trkpt lat="43.0211339" lon="10.7989677"><ele>106.0</ele><time>2026-05-03T07:54:36.755Z</time></trkpt><trkpt lat="43.0212044" lon="10.7988742"><ele>107.0</ele><time>2026-05-03T07:54:37.756Z</time></trkpt><trkpt lat="43.021272" lon="10.7987415"><ele>107.0</ele><time>2026-05-03T07:54:38.765Z</time></trkpt><trkpt lat="43.0213457" lon="10.7986203"><ele>107.0</ele><time>2026-05-03T07:54:39.766Z</time></trkpt><trkpt lat="43.021438" lon="10.7985016"><ele>107.0</ele><time>2026-05-03T07:54:40.772Z</time></trkpt><trkpt lat="43.0215474" lon="10.7983905"><ele>107.0</ele><time>2026-05-03T07:54:41.769Z</time></trkpt><trkpt lat="43.0216721" lon="10.7982927"><ele>106.25</ele><time>2026-05-03T07:54:42.754Z</time></trkpt><trkpt lat="43.0218081" lon="10.7982203"><ele>105.5</ele><time>2026-05-03T07:54:43.759Z</time></trkpt><trkpt lat="43.0219569" lon="10.798183"><ele>104.75</ele><time>2026-05-03T07:54:44.772Z</time></trkpt><trkpt lat="43.022104" lon="10.7981471"><ele>104.0</ele><time>2026-05-03T07:54:45.765Z</time></trkpt><trkpt lat="43.0222546" lon="10.7980736"><ele>104.0</ele><time>2026-05-03T07:54:46.764Z</time></trkpt><trkpt lat="43.0223918" lon="10.7979784"><ele>104.0</ele><time>2026-05-03T07:54:47.764Z</time></trkpt><trkpt lat="43.0225233" lon="10.7978613"><ele>104.0</ele><time>2026-05-03T07:54:48.767Z</time></trkpt><trkpt lat="43.0226497" lon="10.797733"><ele>105.66666666666666</ele><time>2026-05-03T07:54:49.752Z</time></trkpt><trkpt lat="43.0227821" lon="10.7976113"><ele>107.33333333333334</ele><time>2026-05-03T07:54:50.764Z</time></trkpt><trkpt lat="43.0229081" lon="10.7975004"><ele>109.0</ele><time>2026-05-03T07:54:51.756Z</time></trkpt><trkpt lat="43.023028" lon="10.797393"><ele>109.0</ele><time>2026-05-03T07:54:52.755Z</time></trkpt><trkpt lat="43.0231368" lon="10.7972885"><ele>109.0</ele><time>2026-05-03T07:54:53.768Z</time></trkpt><trkpt lat="43.0232375" lon="10.7972013"><ele>109.0</ele><time>2026-05-03T07:54:54.755Z</time></trkpt><trkpt lat="43.0233293" lon="10.7971184"><ele>109.0</ele><time>2026-05-03T07:54:55.759Z</time></trkpt><trkpt lat="43.0234145" lon="10.7970389"><ele>109.00000000000001</ele><time>2026-05-03T07:54:56.768Z</time></trkpt><trkpt lat="43.0234912" lon="10.7969684"><ele>109.0</ele><time>2026-05-03T07:54:57.773Z</time></trkpt><trkpt lat="43.0235644" lon="10.7968924"><ele>109.0</ele><time>2026-05-03T07:54:58.767Z</time></trkpt><trkpt lat="43.0236277" lon="10.7968258"><ele>109.0</ele><time>2026-05-03T07:54:59.767Z</time></trkpt><trkpt lat="43.0236873" lon="10.7967622"><ele>109.00000000000001</ele><time>2026-05-03T07:55:00.752Z</time></trkpt><trkpt lat="43.0237512" lon="10.796687"><ele>109.0</ele><time>2026-05-03T07:55:01.757Z</time></trkpt><trkpt lat="43.0238275" lon="10.7966099"><ele>109.0</ele><time>2026-05-03T07:55:02.769Z</time></trkpt><trkpt lat="43.0239137" lon="10.7965314"><ele>109.0</ele><time>2026-05-03T07:55:03.758Z</time></trkpt><trkpt lat="43.0240049" lon="10.7964473"><ele>109.0</ele><time>2026-05-03T07:55:04.754Z</time></trkpt><trkpt lat="43.0241035" lon="10.7963553"><ele>109.0</ele><time>2026-05-03T07:55:05.759Z</time></trkpt><trkpt lat="43.0241946" lon="10.7962478"><ele>107.25</ele><time>2026-05-03T07:55:06.754Z</time></trkpt><trkpt lat="43.024284" lon="10.7961336"><ele>105.5</ele><time>2026-05-03T07:55:07.753Z</time></trkpt><trkpt lat="43.0243682" lon="10.7960029"><ele>103.75</ele><time>2026-05-03T07:55:08.743Z</time></trkpt><trkpt lat="43.0244534" lon="10.7958778"><ele>102.0</ele><time>2026-05-03T07:55:09.759Z</time></trkpt><trkpt lat="43.0245498" lon="10.7957554"><ele>102.0</ele><time>2026-05-03T07:55:10.749Z</time></trkpt><trkpt lat="43.0246534" lon="10.795639"><ele>102.0</ele><time>2026-05-03T07:55:11.763Z</time></trkpt><trkpt lat="43.0247642" lon="10.7955259"><ele>102.0</ele><time>2026-05-03T07:55:12.766Z</time></trkpt><trkpt lat="43.024876" lon="10.7954059"><ele>102.0</ele><time>2026-05-03T07:55:13.757Z</time></trkpt><trkpt lat="43.0249822" lon="10.7952766"><ele>101.0</ele><time>2026-05-03T07:55:14.752Z</time></trkpt><trkpt lat="43.0250875" lon="10.7951414"><ele>100.0</ele><time>2026-05-03T07:55:15.764Z</time></trkpt><trkpt lat="43.0251916" lon="10.7950085"><ele>99.0</ele><time>2026-05-03T07:55:16.762Z</time></trkpt><trkpt lat="43.025296" lon="10.794877"><ele>98.0</ele><time>2026-05-03T07:55:17.753Z</time></trkpt><trkpt lat="43.0254018" lon="10.7947813"><ele>98.0</ele><time>2026-05-03T07:55:18.758Z</time></trkpt><trkpt lat="43.0255056" lon="10.7947132"><ele>98.0</ele><time>2026-05-03T07:55:19.761Z</time></trkpt><trkpt lat="43.0256071" lon="10.7946852"><ele>98.0</ele><time>2026-05-03T07:55:20.766Z</time></trkpt><trkpt lat="43.0257095" lon="10.7946871"><ele>98.0</ele><time>2026-05-03T07:55:21.765Z</time></trkpt><trkpt lat="43.0258125" lon="10.7947149"><ele>98.0</ele><time>2026-05-03T07:55:22.765Z</time></trkpt><trkpt lat="43.0259111" lon="10.7947729"><ele>97.80000000000001</ele><time>2026-05-03T07:55:23.759Z</time></trkpt><trkpt lat="43.0260028" lon="10.7948628"><ele>97.6</ele><time>2026-05-03T07:55:24.755Z</time></trkpt><trkpt lat="43.0260645" lon="10.79498"><ele>97.4</ele><time>2026-05-03T07:55:25.764Z</time></trkpt><trkpt lat="43.0260909" lon="10.7951206"><ele>97.19999999999999</ele><time>2026-05-03T07:55:26.756Z</time></trkpt><trkpt lat="43.0260953" lon="10.7952756"><ele>97.0</ele><time>2026-05-03T07:55:27.764Z</time></trkpt><trkpt lat="43.0260807" lon="10.7954471"><ele>97.0</ele><time>2026-05-03T07:55:28.756Z</time></trkpt><trkpt lat="43.0260424" lon="10.7956165"><ele>97.0</ele><time>2026-05-03T07:55:29.763Z</time></trkpt><trkpt lat="43.0259914" lon="10.7957826"><ele>97.0</ele><time>2026-05-03T07:55:30.77Z</time></trkpt><trkpt lat="43.0259315" lon="10.7959505"><ele>97.0</ele><time>2026-05-03T07:55:31.755Z</time></trkpt><trkpt lat="43.0258686" lon="10.7961201"><ele>96.75</ele><time>2026-05-03T07:55:32.752Z</time></trkpt><trkpt lat="43.0258031" lon="10.7962902"><ele>96.5</ele><time>2026-05-03T07:55:33.762Z</time></trkpt><trkpt lat="43.0257406" lon="10.7964656"><ele>96.25</ele><time>2026-05-03T07:55:34.761Z</time></trkpt><trkpt lat="43.0256755" lon="10.7966409"><ele>96.0</ele><time>2026-05-03T07:55:35.759Z</time></trkpt><trkpt lat="43.0256157" lon="10.7968237"><ele>96.75</ele><time>2026-05-03T07:55:36.762Z</time></trkpt><trkpt lat="43.0255531" lon="10.7970056"><ele>97.5</ele><time>2026-05-03T07:55:37.771Z</time></trkpt><trkpt lat="43.0254865" lon="10.7971839"><ele>98.25</ele><time>2026-05-03T07:55:38.765Z</time></trkpt><trkpt lat="43.025423" lon="10.7973586"><ele>99.0</ele><time>2026-05-03T07:55:39.767Z</time></trkpt><trkpt lat="43.0253573" lon="10.7975293"><ele>100.0</ele><time>2026-05-03T07:55:40.762Z</time></trkpt><trkpt lat="43.0252939" lon="10.7976923"><ele>101.0</ele><time>2026-05-03T07:55:41.775Z</time></trkpt><trkpt lat="43.0252369" lon="10.7978537"><ele>102.0</ele><time>2026-05-03T07:55:42.763Z</time></trkpt><trkpt lat="43.0251871" lon="10.7980215"><ele>103.0</ele><time>2026-05-03T07:55:43.778Z</time></trkpt><trkpt lat="43.0251552" lon="10.7981948"><ele>103.0</ele><time>2026-05-03T07:55:44.76Z</time></trkpt><trkpt lat="43.025148" lon="10.7983797"><ele>103.0</ele><time>2026-05-03T07:55:45.768Z</time></trkpt><trkpt lat="43.0251663" lon="10.7985659"><ele>103.0</ele><time>2026-05-03T07:55:46.757Z</time></trkpt><trkpt lat="43.0252039" lon="10.7987384"><ele>103.0</ele><time>2026-05-03T07:55:47.762Z</time></trkpt><trkpt lat="43.0252737" lon="10.7988794"><ele>103.60000000000001</ele><time>2026-05-03T07:55:48.758Z</time></trkpt><trkpt lat="43.0253595" lon="10.7989988"><ele>104.2</ele><time>2026-05-03T07:55:49.764Z</time></trkpt><trkpt lat="43.0254455" lon="10.7991104"><ele>104.8</ele><time>2026-05-03T07:55:50.761Z</time></trkpt><trkpt lat="43.025492" lon="10.7992409"><ele>105.4</ele><time>2026-05-03T07:55:51.778Z</time></trkpt><trkpt lat="43.0255001" lon="10.7993772"><ele>106.0</ele><time>2026-05-03T07:55:52.747Z</time></trkpt><trkpt lat="43.0254848" lon="10.7995022"><ele>107.19999999999999</ele><time>2026-05-03T07:55:53.76Z</time></trkpt><trkpt lat="43.0254627" lon="10.7996214"><ele>108.39999999999999</ele><time>2026-05-03T07:55:54.757Z</time></trkpt><trkpt lat="43.025435" lon="10.7997441"><ele>109.6</ele><time>2026-05-03T07:55:55.746Z</time></trkpt><trkpt lat="43.0253988" lon="10.7998812"><ele>110.8</ele><time>2026-05-03T07:55:56.76Z</time></trkpt><trkpt lat="43.0253576" lon="10.8000256"><ele>112.0</ele><time>2026-05-03T07:55:57.762Z</time></trkpt><trkpt lat="43.0253226" lon="10.8001726"><ele>112.6</ele><time>2026-05-03T07:55:58.765Z</time></trkpt><trkpt lat="43.0253" lon="10.8003233"><ele>113.19999999999999</ele><time>2026-05-03T07:55:59.769Z</time></trkpt><trkpt lat="43.025287" lon="10.8004693"><ele>113.8</ele><time>2026-05-03T07:56:00.759Z</time></trkpt><trkpt lat="43.0252829" lon="10.8006139"><ele>114.4</ele><time>2026-05-03T07:56:01.769Z</time></trkpt><trkpt lat="43.0252942" lon="10.8007396"><ele>115.0</ele><time>2026-05-03T07:56:02.755Z</time></trkpt><trkpt lat="43.0253284" lon="10.8008574"><ele>115.0</ele><time>2026-05-03T07:56:03.771Z</time></trkpt><trkpt lat="43.0253913" lon="10.8009684"><ele>115.0</ele><time>2026-05-03T07:56:04.757Z</time></trkpt><trkpt lat="43.0254716" lon="10.8010707"><ele>115.0</ele><time>2026-05-03T07:56:05.763Z</time></trkpt><trkpt lat="43.025566" lon="10.801178"><ele>115.0</ele><time>2026-05-03T07:56:06.766Z</time></trkpt><trkpt lat="43.025665" lon="10.8012951"><ele>114.5</ele><time>2026-05-03T07:56:07.772Z</time></trkpt><trkpt lat="43.0257658" lon="10.8014205"><ele>114.0</ele><time>2026-05-03T07:56:08.763Z</time></trkpt><trkpt lat="43.0258644" lon="10.8015492"><ele>113.5</ele><time>2026-05-03T07:56:09.767Z</time></trkpt><trkpt lat="43.0259648" lon="10.8016849"><ele>113.0</ele><time>2026-05-03T07:56:10.762Z</time></trkpt><trkpt lat="43.0260644" lon="10.8018208"><ele>112.0</ele><time>2026-05-03T07:56:11.764Z</time></trkpt><trkpt lat="43.0261661" lon="10.8019549"><ele>111.0</ele><time>2026-05-03T07:56:12.764Z</time></trkpt><trkpt lat="43.0262638" lon="10.802087"><ele>110.0</ele><time>2026-05-03T07:56:13.764Z</time></trkpt><trkpt lat="43.0263502" lon="10.8022138"><ele>109.0</ele><time>2026-05-03T07:56:14.748Z</time></trkpt><trkpt lat="43.0264286" lon="10.8023345"><ele>109.0</ele><time>2026-05-03T07:56:15.763Z</time></trkpt><trkpt lat="43.0264947" lon="10.8024376"><ele>109.0</ele><time>2026-05-03T07:56:16.761Z</time></trkpt><trkpt lat="43.0265649" lon="10.8025252"><ele>109.0</ele><time>2026-05-03T07:56:17.762Z</time></trkpt><trkpt lat="43.0266512" lon="10.8025994"><ele>109.0</ele><time>2026-05-03T07:56:18.746Z</time></trkpt><trkpt lat="43.0267504" lon="10.8026486"><ele>109.0</ele><time>2026-05-03T07:56:19.755Z</time></trkpt><trkpt lat="43.0268602" lon="10.8026815"><ele>108.5</ele><time>2026-05-03T07:56:20.776Z</time></trkpt><trkpt lat="43.0269771" lon="10.802702"><ele>108.0</ele><time>2026-05-03T07:56:21.758Z</time></trkpt><trkpt lat="43.0270948" lon="10.8027224"><ele>107.5</ele><time>2026-05-03T07:56:22.763Z</time></trkpt><trkpt lat="43.0272182" lon="10.8027272"><ele>107.0</ele><time>2026-05-03T07:56:23.764Z</time></trkpt><trkpt lat="43.0273473" lon="10.802718"><ele>107.0</ele><time>2026-05-03T07:56:24.772Z</time></trkpt><trkpt lat="43.0274787" lon="10.8026898"><ele>107.0</ele><time>2026-05-03T07:56:25.775Z</time></trkpt><trkpt lat="43.0276042" lon="10.8026416"><ele>107.0</ele><time>2026-05-03T07:56:26.763Z</time></trkpt><trkpt lat="43.0277073" lon="10.8025987"><ele>107.0</ele><time>2026-05-03T07:56:27.769Z</time></trkpt><trkpt lat="43.027784" lon="10.8025662"><ele>108.83333333333333</ele><time>2026-05-03T07:56:28.761Z</time></trkpt><trkpt lat="43.0278847" lon="10.802502"><ele>110.66666666666666</ele><time>2026-05-03T07:56:30.762Z</time></trkpt><trkpt lat="43.0279803" lon="10.8024529"><ele>112.5</ele><time>2026-05-03T07:56:32.754Z</time></trkpt><trkpt lat="43.0280652" lon="10.8024203"><ele>114.33333333333334</ele><time>2026-05-03T07:56:34.763Z</time></trkpt><trkpt lat="43.0281288" lon="10.8024059"><ele>116.16666666666667</ele><time>2026-05-03T07:56:36.765Z</time></trkpt><trkpt lat="43.0282085" lon="10.802373"><ele>118.0</ele><time>2026-05-03T07:56:40.764Z</time></trkpt><trkpt lat="43.02828" lon="10.802346"><ele>117.80000000000001</ele><time>2026-05-03T07:56:45.774Z</time></trkpt><trkpt lat="43.0283672" lon="10.8023344"><ele>117.60000000000001</ele><time>2026-05-03T07:56:48.762Z</time></trkpt><trkpt lat="43.0284419" lon="10.8023054"><ele>117.39999999999999</ele><time>2026-05-03T07:56:59.781Z</time></trkpt><trkpt lat="43.0285303" lon="10.8022081"><ele>117.19999999999999</ele><time>2026-05-03T07:57:01.758Z</time></trkpt><trkpt lat="43.0285934" lon="10.8021173"><ele>117.0</ele><time>2026-05-03T07:57:02.764Z</time></trkpt><trkpt lat="43.028657" lon="10.8020254"><ele>117.0</ele><time>2026-05-03T07:57:03.762Z</time></trkpt><trkpt lat="43.0287166" lon="10.8019338"><ele>116.99999999999999</ele><time>2026-05-03T07:57:04.759Z</time></trkpt><trkpt lat="43.0287799" lon="10.801843"><ele>116.99999999999999</ele><time>2026-05-03T07:57:05.752Z</time></trkpt><trkpt lat="43.0288483" lon="10.8017478"><ele>117.0</ele><time>2026-05-03T07:57:06.758Z</time></trkpt><trkpt lat="43.028922" lon="10.8016591"><ele>117.0</ele><time>2026-05-03T07:57:07.76Z</time></trkpt><trkpt lat="43.0290011" lon="10.8015818"><ele>119.0</ele><time>2026-05-03T07:57:08.765Z</time></trkpt><trkpt lat="43.0290757" lon="10.8014883"><ele>120.99999999999999</ele><time>2026-05-03T07:57:09.756Z</time></trkpt><trkpt lat="43.0291468" lon="10.8013956"><ele>122.99999999999999</ele><time>2026-05-03T07:57:10.768Z</time></trkpt><trkpt lat="43.0292188" lon="10.8013094"><ele>125.0</ele><time>2026-05-03T07:57:11.754Z</time></trkpt><trkpt lat="43.0292891" lon="10.8012175"><ele>127.0</ele><time>2026-05-03T07:57:12.744Z</time></trkpt><trkpt lat="43.0293662" lon="10.8011262"><ele>127.39999999999999</ele><time>2026-05-03T07:57:13.76Z</time></trkpt><trkpt lat="43.0294448" lon="10.8010366"><ele>127.79999999999998</ele><time>2026-05-03T07:57:14.762Z</time></trkpt><trkpt lat="43.0295225" lon="10.8009513"><ele>128.2</ele><time>2026-05-03T07:57:15.754Z</time></trkpt><trkpt lat="43.0295991" lon="10.800861"><ele>128.6</ele><time>2026-05-03T07:57:16.753Z</time></trkpt><trkpt lat="43.0296765" lon="10.8007749"><ele>129.0</ele><time>2026-05-03T07:57:17.751Z</time></trkpt><trkpt lat="43.0297571" lon="10.8006972"><ele>131.0</ele><time>2026-05-03T07:57:18.758Z</time></trkpt><trkpt lat="43.0298478" lon="10.8006219"><ele>133.0</ele><time>2026-05-03T07:57:19.763Z</time></trkpt><trkpt lat="43.0299433" lon="10.8005516"><ele>135.0</ele><time>2026-05-03T07:57:20.751Z</time></trkpt><trkpt lat="43.0300329" lon="10.8004791"><ele>137.0</ele><time>2026-05-03T07:57:21.782Z</time></trkpt><trkpt lat="43.0301259" lon="10.8003998"><ele>139.0</ele><time>2026-05-03T07:57:22.772Z</time></trkpt><trkpt lat="43.030216" lon="10.8003168"><ele>139.6</ele><time>2026-05-03T07:57:23.76Z</time></trkpt><trkpt lat="43.0302996" lon="10.8002356"><ele>140.2</ele><time>2026-05-03T07:57:24.769Z</time></trkpt><trkpt lat="43.03038" lon="10.8001543"><ele>140.79999999999998</ele><time>2026-05-03T07:57:25.749Z</time></trkpt><trkpt lat="43.0304617" lon="10.8000838"><ele>141.4</ele><time>2026-05-03T07:57:26.751Z</time></trkpt><trkpt lat="43.0305455" lon="10.8000216"><ele>142.0</ele><time>2026-05-03T07:57:27.754Z</time></trkpt><trkpt lat="43.0306327" lon="10.7999786"><ele>143.6</ele><time>2026-05-03T07:57:28.747Z</time></trkpt><trkpt lat="43.0307307" lon="10.7999514"><ele>145.2</ele><time>2026-05-03T07:57:29.761Z</time></trkpt><trkpt lat="43.0308362" lon="10.7999237"><ele>146.8</ele><time>2026-05-03T07:57:30.753Z</time></trkpt><trkpt lat="43.0309391" lon="10.7998944"><ele>148.4</ele><time>2026-05-03T07:57:31.761Z</time></trkpt><trkpt lat="43.0310416" lon="10.7998566"><ele>150.0</ele><time>2026-05-03T07:57:32.755Z</time></trkpt><trkpt lat="43.0311469" lon="10.7998045"><ele>150.0</ele><time>2026-05-03T07:57:33.747Z</time></trkpt><trkpt lat="43.0312458" lon="10.7997469"><ele>150.0</ele><time>2026-05-03T07:57:34.769Z</time></trkpt><trkpt lat="43.0313514" lon="10.7996934"><ele>150.0</ele><time>2026-05-03T07:57:35.755Z</time></trkpt><trkpt lat="43.0314557" lon="10.7996391"><ele>150.0</ele><time>2026-05-03T07:57:36.757Z</time></trkpt><trkpt lat="43.0315628" lon="10.7995809"><ele>150.0</ele><time>2026-05-03T07:57:37.754Z</time></trkpt><trkpt lat="43.031668" lon="10.799516"><ele>151.25</ele><time>2026-05-03T07:57:38.748Z</time></trkpt><trkpt lat="43.031776" lon="10.7994538"><ele>152.5</ele><time>2026-05-03T07:57:39.758Z</time></trkpt><trkpt lat="43.0318868" lon="10.799405"><ele>153.75</ele><time>2026-05-03T07:57:40.757Z</time></trkpt><trkpt lat="43.0320063" lon="10.7993809"><ele>155.0</ele><time>2026-05-03T07:57:41.77Z</time></trkpt><trkpt lat="43.0321359" lon="10.7993782"><ele>155.0</ele><time>2026-05-03T07:57:42.76Z</time></trkpt><trkpt lat="43.0322555" lon="10.7993928"><ele>155.0</ele><time>2026-05-03T07:57:43.76Z</time></trkpt><trkpt lat="43.0323769" lon="10.799425"><ele>155.0</ele><time>2026-05-03T07:57:44.756Z</time></trkpt><trkpt lat="43.032493" lon="10.7994693"><ele>155.0</ele><time>2026-05-03T07:57:45.767Z</time></trkpt><trkpt lat="43.0325924" lon="10.7995489"><ele>155.8</ele><time>2026-05-03T07:57:46.759Z</time></trkpt><trkpt lat="43.0326709" lon="10.7996496"><ele>156.6</ele><time>2026-05-03T07:57:47.762Z</time></trkpt><trkpt lat="43.0327454" lon="10.7997573"><ele>157.4</ele><time>2026-05-03T07:57:48.757Z</time></trkpt><trkpt lat="43.0328182" lon="10.7998503"><ele>158.2</ele><time>2026-05-03T07:57:49.761Z</time></trkpt><trkpt lat="43.0329002" lon="10.7999141"><ele>159.0</ele><time>2026-05-03T07:57:50.766Z</time></trkpt><trkpt lat="43.0329863" lon="10.7999676"><ele>159.0</ele><time>2026-05-03T07:57:51.743Z</time></trkpt><trkpt lat="43.0330813" lon="10.8000264"><ele>159.0</ele><time>2026-05-03T07:57:52.756Z</time></trkpt><trkpt lat="43.0331762" lon="10.8000767"><ele>159.0</ele><time>2026-05-03T07:57:53.758Z</time></trkpt><trkpt lat="43.0332744" lon="10.8001179"><ele>159.0</ele><time>2026-05-03T07:57:54.755Z</time></trkpt><trkpt lat="43.0333886" lon="10.8001409"><ele>159.0</ele><time>2026-05-03T07:57:55.76Z</time></trkpt><trkpt lat="43.0335012" lon="10.8001557"><ele>159.6</ele><time>2026-05-03T07:57:56.754Z</time></trkpt><trkpt lat="43.0336106" lon="10.800158"><ele>160.2</ele><time>2026-05-03T07:57:57.75Z</time></trkpt><trkpt lat="43.0337178" lon="10.8001481"><ele>160.79999999999998</ele><time>2026-05-03T07:57:58.746Z</time></trkpt><trkpt lat="43.033818" lon="10.8001319"><ele>161.4</ele><time>2026-05-03T07:57:59.762Z</time></trkpt><trkpt lat="43.0339109" lon="10.8001164"><ele>162.0</ele><time>2026-05-03T07:58:00.753Z</time></trkpt><trkpt lat="43.0340002" lon="10.8001066"><ele>162.0</ele><time>2026-05-03T07:58:01.759Z</time></trkpt><trkpt lat="43.0340868" lon="10.8001121"><ele>162.0</ele><time>2026-05-03T07:58:02.752Z</time></trkpt><trkpt lat="43.0341781" lon="10.8001401"><ele>162.0</ele><time>2026-05-03T07:58:03.765Z</time></trkpt><trkpt lat="43.0342726" lon="10.8001832"><ele>162.0</ele><time>2026-05-03T07:58:04.756Z</time></trkpt><trkpt lat="43.0343717" lon="10.8002391"><ele>162.0</ele><time>2026-05-03T07:58:05.766Z</time></trkpt><trkpt lat="43.0344712" lon="10.8002938"><ele>164.5</ele><time>2026-05-03T07:58:06.746Z</time></trkpt><trkpt lat="43.0345763" lon="10.8003531"><ele>167.0</ele><time>2026-05-03T07:58:07.767Z</time></trkpt><trkpt lat="43.0346792" lon="10.8004078"><ele>169.5</ele><time>2026-05-03T07:58:08.757Z</time></trkpt><trkpt lat="43.0347948" lon="10.8004628"><ele>172.0</ele><time>2026-05-03T07:58:09.754Z</time></trkpt><trkpt lat="43.0349022" lon="10.8004932"><ele>173.8</ele><time>2026-05-03T07:58:10.752Z</time></trkpt><trkpt lat="43.0350055" lon="10.8005122"><ele>175.6</ele><time>2026-05-03T07:58:11.759Z</time></trkpt><trkpt lat="43.0351061" lon="10.8005184"><ele>177.4</ele><time>2026-05-03T07:58:12.754Z</time></trkpt><trkpt lat="43.0352007" lon="10.8005168"><ele>179.20000000000002</ele><time>2026-05-03T07:58:13.76Z</time></trkpt><trkpt lat="43.0352793" lon="10.8005338"><ele>181.0</ele><time>2026-05-03T07:58:14.743Z</time></trkpt><trkpt lat="43.0353482" lon="10.8005717"><ele>181.0</ele><time>2026-05-03T07:58:15.761Z</time></trkpt><trkpt lat="43.0354202" lon="10.8006313"><ele>181.0</ele><time>2026-05-03T07:58:16.742Z</time></trkpt><trkpt lat="43.0354813" lon="10.800702"><ele>181.0</ele><time>2026-05-03T07:58:17.758Z</time></trkpt><trkpt lat="43.0355459" lon="10.8007659"><ele>181.0</ele><time>2026-05-03T07:58:18.747Z</time></trkpt><trkpt lat="43.0356106" lon="10.8008313"><ele>181.0</ele><time>2026-05-03T07:58:19.758Z</time></trkpt><trkpt lat="43.0356705" lon="10.8008792"><ele>181.0</ele><time>2026-05-03T07:58:20.759Z</time></trkpt><trkpt lat="43.0357522" lon="10.8007586"><ele>181.0</ele><time>2026-05-03T07:58:22.757Z</time></trkpt><trkpt lat="43.0357851" lon="10.8006355"><ele>181.0</ele><time>2026-05-03T07:58:23.766Z</time></trkpt><trkpt lat="43.0358142" lon="10.8005152"><ele>181.0</ele><time>2026-05-03T07:58:24.749Z</time></trkpt><trkpt lat="43.0358193" lon="10.8003428"><ele>181.0</ele><time>2026-05-03T07:58:25.752Z</time></trkpt><trkpt lat="43.0358442" lon="10.8001989"><ele>181.0</ele><time>2026-05-03T07:58:26.741Z</time></trkpt><trkpt lat="43.035871" lon="10.8000578"><ele>182.4</ele><time>2026-05-03T07:58:27.755Z</time></trkpt><trkpt lat="43.0359167" lon="10.7999533"><ele>183.8</ele><time>2026-05-03T07:58:28.756Z</time></trkpt><trkpt lat="43.0359654" lon="10.7998721"><ele>185.20000000000002</ele><time>2026-05-03T07:58:29.764Z</time></trkpt><trkpt lat="43.0360962" lon="10.7998313"><ele>186.60000000000002</ele><time>2026-05-03T07:58:31.763Z</time></trkpt><trkpt lat="43.0361633" lon="10.7998831"><ele>188.0</ele><time>2026-05-03T07:58:32.76Z</time></trkpt><trkpt lat="43.0362219" lon="10.7999506"><ele>188.0</ele><time>2026-05-03T07:58:33.755Z</time></trkpt><trkpt lat="43.0362825" lon="10.8000185"><ele>188.0</ele><time>2026-05-03T07:58:34.753Z</time></trkpt><trkpt lat="43.0363323" lon="10.8001032"><ele>188.0</ele><time>2026-05-03T07:58:35.75Z</time></trkpt><trkpt lat="43.0363951" lon="10.8002022"><ele>188.0</ele><time>2026-05-03T07:58:36.757Z</time></trkpt><trkpt lat="43.0364564" lon="10.8003193"><ele>188.0</ele><time>2026-05-03T07:58:37.749Z</time></trkpt><trkpt lat="43.0365148" lon="10.8004545"><ele>188.5</ele><time>2026-05-03T07:58:38.754Z</time></trkpt><trkpt lat="43.0365723" lon="10.8005924"><ele>189.0</ele><time>2026-05-03T07:58:39.762Z</time></trkpt><trkpt lat="43.0366304" lon="10.8007325"><ele>189.5</ele><time>2026-05-03T07:58:40.754Z</time></trkpt><trkpt lat="43.0366842" lon="10.8008731"><ele>190.0</ele><time>2026-05-03T07:58:41.753Z</time></trkpt><trkpt lat="43.036724" lon="10.8010156"><ele>192.0</ele><time>2026-05-03T07:58:42.755Z</time></trkpt><trkpt lat="43.0367562" lon="10.8011599"><ele>194.0</ele><time>2026-05-03T07:58:43.77Z</time></trkpt><trkpt lat="43.0367952" lon="10.8013044"><ele>196.0</ele><time>2026-05-03T07:58:44.759Z</time></trkpt><trkpt lat="43.0368439" lon="10.8014447"><ele>198.0</ele><time>2026-05-03T07:58:45.763Z</time></trkpt><trkpt lat="43.0368917" lon="10.8015741"><ele>200.0</ele><time>2026-05-03T07:58:46.745Z</time></trkpt><trkpt lat="43.0369486" lon="10.801683"><ele>200.0</ele><time>2026-05-03T07:58:47.744Z</time></trkpt><trkpt lat="43.0370198" lon="10.8017749"><ele>200.0</ele><time>2026-05-03T07:58:48.767Z</time></trkpt><trkpt lat="43.0371061" lon="10.8018575"><ele>200.0</ele><time>2026-05-03T07:58:49.768Z</time></trkpt><trkpt lat="43.0371995" lon="10.8019356"><ele>200.0</ele><time>2026-05-03T07:58:50.755Z</time></trkpt><trkpt lat="43.0372948" lon="10.8020195"><ele>200.0</ele><time>2026-05-03T07:58:51.759Z</time></trkpt><trkpt lat="43.0373923" lon="10.8021164"><ele>201.75</ele><time>2026-05-03T07:58:52.748Z</time></trkpt><trkpt lat="43.0375061" lon="10.8022028"><ele>203.5</ele><time>2026-05-03T07:58:53.76Z</time></trkpt><trkpt lat="43.0376241" lon="10.8022653"><ele>205.25</ele><time>2026-05-03T07:58:54.753Z</time></trkpt><trkpt lat="43.0377415" lon="10.8023008"><ele>207.0</ele><time>2026-05-03T07:58:55.753Z</time></trkpt><trkpt lat="43.0378531" lon="10.8023139"><ele>207.0</ele><time>2026-05-03T07:58:56.763Z</time></trkpt><trkpt lat="43.0379685" lon="10.8023129"><ele>207.0</ele><time>2026-05-03T07:58:57.76Z</time></trkpt><trkpt lat="43.0380873" lon="10.8022932"><ele>207.0</ele><time>2026-05-03T07:58:58.748Z</time></trkpt><trkpt lat="43.0382008" lon="10.8022735"><ele>207.0</ele><time>2026-05-03T07:58:59.766Z</time></trkpt><trkpt lat="43.0383139" lon="10.8022498"><ele>206.25</ele><time>2026-05-03T07:59:00.756Z</time></trkpt><trkpt lat="43.0384335" lon="10.8022552"><ele>205.5</ele><time>2026-05-03T07:59:01.747Z</time></trkpt><trkpt lat="43.0385565" lon="10.8023098"><ele>204.75</ele><time>2026-05-03T07:59:02.745Z</time></trkpt><trkpt lat="43.0386729" lon="10.802377"><ele>204.0</ele><time>2026-05-03T07:59:03.753Z</time></trkpt><trkpt lat="43.0387853" lon="10.8024326"><ele>204.0</ele><time>2026-05-03T07:59:04.762Z</time></trkpt><trkpt lat="43.0388929" lon="10.8024805"><ele>204.0</ele><time>2026-05-03T07:59:05.754Z</time></trkpt><trkpt lat="43.0389816" lon="10.8025267"><ele>204.0</ele><time>2026-05-03T07:59:06.759Z</time></trkpt><trkpt lat="43.0390583" lon="10.8025976"><ele>204.0</ele><time>2026-05-03T07:59:07.764Z</time></trkpt><trkpt lat="43.0391288" lon="10.8026742"><ele>204.0</ele><time>2026-05-03T07:59:08.752Z</time></trkpt><trkpt lat="43.0392087" lon="10.8027457"><ele>203.79999999999998</ele><time>2026-05-03T07:59:09.769Z</time></trkpt><trkpt lat="43.0392906" lon="10.802794"><ele>203.6</ele><time>2026-05-03T07:59:10.765Z</time></trkpt><trkpt lat="43.0393945" lon="10.8028209"><ele>203.4</ele><time>2026-05-03T07:59:11.756Z</time></trkpt><trkpt lat="43.0395098" lon="10.80284"><ele>203.2</ele><time>2026-05-03T07:59:12.755Z</time></trkpt><trkpt lat="43.039624" lon="10.8028698"><ele>203.0</ele><time>2026-05-03T07:59:13.758Z</time></trkpt><trkpt lat="43.0397347" lon="10.8029074"><ele>203.0</ele><time>2026-05-03T07:59:14.758Z</time></trkpt><trkpt lat="43.0398321" lon="10.8029633"><ele>203.0</ele><time>2026-05-03T07:59:15.758Z</time></trkpt><trkpt lat="43.0399342" lon="10.8030429"><ele>203.0</ele><time>2026-05-03T07:59:16.753Z</time></trkpt><trkpt lat="43.0400355" lon="10.8031391"><ele>203.0</ele><time>2026-05-03T07:59:17.762Z</time></trkpt><trkpt lat="43.0401325" lon="10.8032403"><ele>203.25</ele><time>2026-05-03T07:59:18.757Z</time></trkpt><trkpt lat="43.0402305" lon="10.8033462"><ele>203.5</ele><time>2026-05-03T07:59:19.767Z</time></trkpt><trkpt lat="43.0403213" lon="10.8034455"><ele>203.75</ele><time>2026-05-03T07:59:20.754Z</time></trkpt><trkpt lat="43.0404249" lon="10.8035377"><ele>204.0</ele><time>2026-05-03T07:59:21.757Z</time></trkpt><trkpt lat="43.0405338" lon="10.8036012"><ele>204.75</ele><time>2026-05-03T07:59:22.75Z</time></trkpt><trkpt lat="43.0406448" lon="10.8036425"><ele>205.5</ele><time>2026-05-03T07:59:23.762Z</time></trkpt><trkpt lat="43.0407642" lon="10.8036823"><ele>206.25</ele><time>2026-05-03T07:59:24.764Z</time></trkpt><trkpt lat="43.0408736" lon="10.8037212"><ele>207.0</ele><time>2026-05-03T07:59:25.754Z</time></trkpt><trkpt lat="43.0409741" lon="10.8037841"><ele>207.0</ele><time>2026-05-03T07:59:26.758Z</time></trkpt><trkpt lat="43.0410558" lon="10.8038664"><ele>207.0</ele><time>2026-05-03T07:59:27.763Z</time></trkpt><trkpt lat="43.0411265" lon="10.80397"><ele>207.0</ele><time>2026-05-03T07:59:28.765Z</time></trkpt><trkpt lat="43.0411862" lon="10.8040968"><ele>207.0</ele><time>2026-05-03T07:59:29.751Z</time></trkpt><trkpt lat="43.0412213" lon="10.8042371"><ele>207.0</ele><time>2026-05-03T07:59:30.747Z</time></trkpt><trkpt lat="43.0412585" lon="10.8043768"><ele>206.0</ele><time>2026-05-03T07:59:31.764Z</time></trkpt><trkpt lat="43.0412946" lon="10.8045246"><ele>205.0</ele><time>2026-05-03T07:59:32.754Z</time></trkpt><trkpt lat="43.0413465" lon="10.8046638"><ele>204.0</ele><time>2026-05-03T07:59:33.763Z</time></trkpt><trkpt lat="43.0414241" lon="10.8047874"><ele>203.0</ele><time>2026-05-03T07:59:34.758Z</time></trkpt><trkpt lat="43.0415054" lon="10.804897"><ele>203.0</ele><time>2026-05-03T07:59:35.76Z</time></trkpt><trkpt lat="43.0415865" lon="10.805009"><ele>203.0</ele><time>2026-05-03T07:59:36.754Z</time></trkpt><trkpt lat="43.0416614" lon="10.8051208"><ele>203.0</ele><time>2026-05-03T07:59:37.769Z</time></trkpt><trkpt lat="43.0417337" lon="10.8052237"><ele>203.0</ele><time>2026-05-03T07:59:38.748Z</time></trkpt><trkpt lat="43.0418188" lon="10.805324"><ele>203.0</ele><time>2026-05-03T07:59:39.774Z</time></trkpt><trkpt lat="43.0419086" lon="10.8054073"><ele>205.75</ele><time>2026-05-03T07:59:40.76Z</time></trkpt><trkpt lat="43.0420169" lon="10.8054716"><ele>208.5</ele><time>2026-05-03T07:59:41.759Z</time></trkpt><trkpt lat="43.0421265" lon="10.8055062"><ele>211.25</ele><time>2026-05-03T07:59:42.757Z</time></trkpt><trkpt lat="43.0422375" lon="10.8055274"><ele>214.0</ele><time>2026-05-03T07:59:43.755Z</time></trkpt><trkpt lat="43.042353" lon="10.8055425"><ele>215.39999999999998</ele><time>2026-05-03T07:59:44.747Z</time></trkpt><trkpt lat="43.0424695" lon="10.805563"><ele>216.79999999999998</ele><time>2026-05-03T07:59:45.765Z</time></trkpt><trkpt lat="43.0425733" lon="10.8055936"><ele>218.20000000000002</ele><time>2026-05-03T07:59:46.757Z</time></trkpt><trkpt lat="43.0426647" lon="10.8056517"><ele>219.60000000000002</ele><time>2026-05-03T07:59:47.766Z</time></trkpt><trkpt lat="43.0427391" lon="10.8057363"><ele>221.0</ele><time>2026-05-03T07:59:48.747Z</time></trkpt><trkpt lat="43.042811" lon="10.8058248"><ele>221.0</ele><time>2026-05-03T07:59:49.756Z</time></trkpt><trkpt lat="43.0428862" lon="10.8059301"><ele>221.00000000000003</ele><time>2026-05-03T07:59:50.753Z</time></trkpt><trkpt lat="43.0429617" lon="10.8060273"><ele>221.00000000000003</ele><time>2026-05-03T07:59:51.764Z</time></trkpt><trkpt lat="43.0430486" lon="10.8060895"><ele>221.0</ele><time>2026-05-03T07:59:52.756Z</time></trkpt><trkpt lat="43.0431519" lon="10.8061223"><ele>221.0</ele><time>2026-05-03T07:59:53.746Z</time></trkpt><trkpt lat="43.0432638" lon="10.8061393"><ele>223.25</ele><time>2026-05-03T07:59:54.75Z</time></trkpt><trkpt lat="43.0433875" lon="10.8061309"><ele>225.5</ele><time>2026-05-03T07:59:55.755Z</time></trkpt><trkpt lat="43.0435109" lon="10.8061135"><ele>227.75</ele><time>2026-05-03T07:59:56.76Z</time></trkpt><trkpt lat="43.043627" lon="10.8060803"><ele>230.0</ele><time>2026-05-03T07:59:57.758Z</time></trkpt><trkpt lat="43.0437352" lon="10.8060398"><ele>227.66666666666669</ele><time>2026-05-03T07:59:58.755Z</time></trkpt><trkpt lat="43.0438115" lon="10.8059785"><ele>225.33333333333334</ele><time>2026-05-03T07:59:59.76Z</time></trkpt><trkpt lat="43.0438666" lon="10.8058939"><ele>223.0</ele><time>2026-05-03T08:00:00.75Z</time></trkpt><trkpt lat="43.0438927" lon="10.8057838"><ele>220.66666666666669</ele><time>2026-05-03T08:00:01.747Z</time></trkpt><trkpt lat="43.0439277" lon="10.8056726"><ele>218.33333333333334</ele><time>2026-05-03T08:00:02.756Z</time></trkpt><trkpt lat="43.0439749" lon="10.8055826"><ele>216.0</ele><time>2026-05-03T08:00:03.757Z</time></trkpt><trkpt lat="43.0440469" lon="10.8055072"><ele>216.0</ele><time>2026-05-03T08:00:04.756Z</time></trkpt><trkpt lat="43.0441221" lon="10.805442"><ele>216.0</ele><time>2026-05-03T08:00:05.758Z</time></trkpt><trkpt lat="43.0442059" lon="10.8054073"><ele>216.0</ele><time>2026-05-03T08:00:06.766Z</time></trkpt><trkpt lat="43.044295" lon="10.805413"><ele>216.0</ele><time>2026-05-03T08:00:07.763Z</time></trkpt><trkpt lat="43.0443606" lon="10.8054374"><ele>216.0</ele><time>2026-05-03T08:00:08.754Z</time></trkpt><trkpt lat="43.044409" lon="10.8055032"><ele>216.0</ele><time>2026-05-03T08:00:09.766Z</time></trkpt><trkpt lat="43.044454" lon="10.8055859"><ele>216.66666666666666</ele><time>2026-05-03T08:00:10.754Z</time></trkpt><trkpt lat="43.0445078" lon="10.8056666"><ele>217.33333333333331</ele><time>2026-05-03T08:00:11.766Z</time></trkpt><trkpt lat="43.044568" lon="10.8057392"><ele>218.0</ele><time>2026-05-03T08:00:12.756Z</time></trkpt><trkpt lat="43.0446438" lon="10.8057688"><ele>218.66666666666666</ele><time>2026-05-03T08:00:13.759Z</time></trkpt><trkpt lat="43.0447396" lon="10.8057793"><ele>219.33333333333331</ele><time>2026-05-03T08:00:14.757Z</time></trkpt><trkpt lat="43.0448424" lon="10.8057578"><ele>220.0</ele><time>2026-05-03T08:00:15.755Z</time></trkpt><trkpt lat="43.0449536" lon="10.8057136"><ele>219.4</ele><time>2026-05-03T08:00:16.757Z</time></trkpt><trkpt lat="43.045049" lon="10.8056401"><ele>218.8</ele><time>2026-05-03T08:00:17.753Z</time></trkpt><trkpt lat="43.045121" lon="10.8055464"><ele>218.2</ele><time>2026-05-03T08:00:18.755Z</time></trkpt><trkpt lat="43.0451769" lon="10.8054467"><ele>217.6</ele><time>2026-05-03T08:00:19.759Z</time></trkpt><trkpt lat="43.0452151" lon="10.8053291"><ele>217.0</ele><time>2026-05-03T08:00:20.765Z</time></trkpt><trkpt lat="43.0452373" lon="10.8051913"><ele>216.0</ele><time>2026-05-03T08:00:21.764Z</time></trkpt><trkpt lat="43.0452565" lon="10.8050587"><ele>215.0</ele><time>2026-05-03T08:00:22.762Z</time></trkpt><trkpt lat="43.0452773" lon="10.8049208"><ele>214.0</ele><time>2026-05-03T08:00:23.755Z</time></trkpt><trkpt lat="43.045311" lon="10.804791"><ele>213.0</ele><time>2026-05-03T08:00:24.757Z</time></trkpt><trkpt lat="43.0453655" lon="10.804665"><ele>212.0</ele><time>2026-05-03T08:00:25.757Z</time></trkpt><trkpt lat="43.0454376" lon="10.8045405"><ele>212.0</ele><time>2026-05-03T08:00:26.747Z</time></trkpt><trkpt lat="43.0455181" lon="10.8044402"><ele>212.0</ele><time>2026-05-03T08:00:27.771Z</time></trkpt><trkpt lat="43.0456125" lon="10.8043526"><ele>212.0</ele><time>2026-05-03T08:00:28.759Z</time></trkpt><trkpt lat="43.0457159" lon="10.8042777"><ele>212.0</ele><time>2026-05-03T08:00:29.762Z</time></trkpt><trkpt lat="43.0458206" lon="10.8042107"><ele>212.39999999999998</ele><time>2026-05-03T08:00:30.756Z</time></trkpt><trkpt lat="43.0459266" lon="10.8041626"><ele>212.79999999999998</ele><time>2026-05-03T08:00:31.763Z</time></trkpt><trkpt lat="43.0460252" lon="10.8041353"><ele>213.2</ele><time>2026-05-03T08:00:32.756Z</time></trkpt><trkpt lat="43.0461194" lon="10.8041363"><ele>213.6</ele><time>2026-05-03T08:00:33.761Z</time></trkpt><trkpt lat="43.0462065" lon="10.8041693"><ele>214.0</ele><time>2026-05-03T08:00:34.752Z</time></trkpt><trkpt lat="43.0462939" lon="10.8042215"><ele>214.0</ele><time>2026-05-03T08:00:35.763Z</time></trkpt><trkpt lat="43.0463717" lon="10.8042712"><ele>213.99999999999997</ele><time>2026-05-03T08:00:36.77Z</time></trkpt><trkpt lat="43.0464403" lon="10.8043467"><ele>213.99999999999997</ele><time>2026-05-03T08:00:37.759Z</time></trkpt><trkpt lat="43.0465116" lon="10.8044411"><ele>214.0</ele><time>2026-05-03T08:00:38.758Z</time></trkpt><trkpt lat="43.0465846" lon="10.8045435"><ele>214.0</ele><time>2026-05-03T08:00:39.763Z</time></trkpt><trkpt lat="43.0466601" lon="10.8046355"><ele>214.79999999999998</ele><time>2026-05-03T08:00:40.756Z</time></trkpt><trkpt lat="43.0467425" lon="10.804692"><ele>215.59999999999997</ele><time>2026-05-03T08:00:41.76Z</time></trkpt><trkpt lat="43.0468323" lon="10.8047245"><ele>216.4</ele><time>2026-05-03T08:00:42.754Z</time></trkpt><trkpt lat="43.0469278" lon="10.8047405"><ele>217.2</ele><time>2026-05-03T08:00:43.75Z</time></trkpt><trkpt lat="43.0470301" lon="10.8047317"><ele>218.0</ele><time>2026-05-03T08:00:44.753Z</time></trkpt><trkpt lat="43.0471429" lon="10.8047007"><ele>218.0</ele><time>2026-05-03T08:00:45.768Z</time></trkpt><trkpt lat="43.0472557" lon="10.804648"><ele>218.0</ele><time>2026-05-03T08:00:46.751Z</time></trkpt><trkpt lat="43.0473648" lon="10.8045875"><ele>218.0</ele><time>2026-05-03T08:00:47.758Z</time></trkpt><trkpt lat="43.0474701" lon="10.8045303"><ele>218.0</ele><time>2026-05-03T08:00:48.761Z</time></trkpt><trkpt lat="43.047577" lon="10.804471"><ele>218.4</ele><time>2026-05-03T08:00:49.757Z</time></trkpt><trkpt lat="43.0476811" lon="10.8044122"><ele>218.8</ele><time>2026-05-03T08:00:50.752Z</time></trkpt><trkpt lat="43.047782" lon="10.8043587"><ele>219.2</ele><time>2026-05-03T08:00:51.765Z</time></trkpt><trkpt lat="43.0478885" lon="10.804309"><ele>219.6</ele><time>2026-05-03T08:00:52.758Z</time></trkpt><trkpt lat="43.0479933" lon="10.8042584"><ele>220.0</ele><time>2026-05-03T08:00:53.76Z</time></trkpt><trkpt lat="43.0480953" lon="10.8042122"><ele>220.6</ele><time>2026-05-03T08:00:54.753Z</time></trkpt><trkpt lat="43.0481987" lon="10.8041809"><ele>221.2</ele><time>2026-05-03T08:00:55.764Z</time></trkpt><trkpt lat="43.0483064" lon="10.8041492"><ele>221.8</ele><time>2026-05-03T08:00:56.763Z</time></trkpt><trkpt lat="43.0484177" lon="10.8041177"><ele>222.4</ele><time>2026-05-03T08:00:57.765Z</time></trkpt><trkpt lat="43.048533" lon="10.8040982"><ele>223.0</ele><time>2026-05-03T08:00:58.753Z</time></trkpt><trkpt lat="43.0486425" lon="10.8040756"><ele>223.0</ele><time>2026-05-03T08:00:59.766Z</time></trkpt><trkpt lat="43.0487431" lon="10.8040448"><ele>223.0</ele><time>2026-05-03T08:01:00.747Z</time></trkpt><trkpt lat="43.0488379" lon="10.80401"><ele>223.0</ele><time>2026-05-03T08:01:01.748Z</time></trkpt><trkpt lat="43.0489304" lon="10.803975"><ele>223.0</ele><time>2026-05-03T08:01:02.749Z</time></trkpt><trkpt lat="43.0490202" lon="10.8039692"><ele>223.0</ele><time>2026-05-03T08:01:03.764Z</time></trkpt><trkpt lat="43.049116" lon="10.8039721"><ele>222.0</ele><time>2026-05-03T08:01:04.75Z</time></trkpt><trkpt lat="43.0492298" lon="10.8039927"><ele>221.0</ele><time>2026-05-03T08:01:05.765Z</time></trkpt><trkpt lat="43.0493663" lon="10.8040236"><ele>220.0</ele><time>2026-05-03T08:01:06.752Z</time></trkpt><trkpt lat="43.0494882" lon="10.8040615"><ele>219.0</ele><time>2026-05-03T08:01:07.747Z</time></trkpt><trkpt lat="43.0495955" lon="10.8040979"><ele>219.0</ele><time>2026-05-03T08:01:08.753Z</time></trkpt><trkpt lat="43.0496874" lon="10.804159"><ele>218.99999999999997</ele><time>2026-05-03T08:01:09.758Z</time></trkpt><trkpt lat="43.0497698" lon="10.8042271"><ele>218.99999999999997</ele><time>2026-05-03T08:01:10.758Z</time></trkpt><trkpt lat="43.0498298" lon="10.8043218"><ele>219.0</ele><time>2026-05-03T08:01:11.762Z</time></trkpt><trkpt lat="43.0498835" lon="10.8044444"><ele>219.0</ele><time>2026-05-03T08:01:12.748Z</time></trkpt><trkpt lat="43.0499446" lon="10.8045664"><ele>219.39999999999998</ele><time>2026-05-03T08:01:13.758Z</time></trkpt><trkpt lat="43.0500118" lon="10.8046816"><ele>219.79999999999998</ele><time>2026-05-03T08:01:14.748Z</time></trkpt><trkpt lat="43.0500878" lon="10.8047771"><ele>220.20000000000002</ele><time>2026-05-03T08:01:15.77Z</time></trkpt><trkpt lat="43.0501695" lon="10.8048533"><ele>220.60000000000002</ele><time>2026-05-03T08:01:16.763Z</time></trkpt><trkpt lat="43.0502573" lon="10.8049087"><ele>221.0</ele><time>2026-05-03T08:01:17.765Z</time></trkpt><trkpt lat="43.050345" lon="10.8049522"><ele>221.00000000000003</ele><time>2026-05-03T08:01:18.762Z</time></trkpt><trkpt lat="43.0504197" lon="10.805004"><ele>221.0</ele><time>2026-05-03T08:01:19.748Z</time></trkpt><trkpt lat="43.0504752" lon="10.805072"><ele>221.0</ele><time>2026-05-03T08:01:20.765Z</time></trkpt><trkpt lat="43.0505063" lon="10.8051644"><ele>221.0</ele><time>2026-05-03T08:01:21.766Z</time></trkpt><trkpt lat="43.0505142" lon="10.8052766"><ele>221.00000000000003</ele><time>2026-05-03T08:01:22.755Z</time></trkpt><trkpt lat="43.0505197" lon="10.8053881"><ele>221.0</ele><time>2026-05-03T08:01:23.764Z</time></trkpt><trkpt lat="43.0505315" lon="10.8054877"><ele>219.66666666666669</ele><time>2026-05-03T08:01:24.77Z</time></trkpt><trkpt lat="43.0505522" lon="10.8055762"><ele>218.33333333333334</ele><time>2026-05-03T08:01:25.765Z</time></trkpt><trkpt lat="43.0505882" lon="10.8056893"><ele>217.0</ele><time>2026-05-03T08:01:27.768Z</time></trkpt><trkpt lat="43.0506277" lon="10.8057891"><ele>215.66666666666669</ele><time>2026-05-03T08:01:29.759Z</time></trkpt><trkpt lat="43.050646" lon="10.8059269"><ele>214.33333333333334</ele><time>2026-05-03T08:01:31.761Z</time></trkpt><trkpt lat="43.0506568" lon="10.8060202"><ele>213.0</ele><time>2026-05-03T08:01:32.764Z</time></trkpt><trkpt lat="43.0506642" lon="10.8061222"><ele>212.33333333333334</ele><time>2026-05-03T08:01:33.767Z</time></trkpt><trkpt lat="43.0506924" lon="10.8062201"><ele>211.66666666666669</ele><time>2026-05-03T08:01:34.766Z</time></trkpt><trkpt lat="43.050744" lon="10.806291"><ele>211.0</ele><time>2026-05-03T08:01:35.753Z</time></trkpt><trkpt lat="43.0508184" lon="10.8063268"><ele>210.33333333333334</ele><time>2026-05-03T08:01:36.76Z</time></trkpt><trkpt lat="43.0509037" lon="10.8063366"><ele>209.66666666666669</ele><time>2026-05-03T08:01:37.765Z</time></trkpt><trkpt lat="43.0509938" lon="10.8063479"><ele>209.0</ele><time>2026-05-03T08:01:38.765Z</time></trkpt><trkpt lat="43.0510899" lon="10.8063679"><ele>213.2</ele><time>2026-05-03T08:01:39.753Z</time></trkpt><trkpt lat="43.0511859" lon="10.8064039"><ele>217.39999999999998</ele><time>2026-05-03T08:01:40.752Z</time></trkpt><trkpt lat="43.0512788" lon="10.8064379"><ele>221.6</ele><time>2026-05-03T08:01:41.77Z</time></trkpt><trkpt lat="43.0513742" lon="10.8064894"><ele>225.8</ele><time>2026-05-03T08:01:42.749Z</time></trkpt><trkpt lat="43.0514711" lon="10.8065511"><ele>230.0</ele><time>2026-05-03T08:01:43.771Z</time></trkpt><trkpt lat="43.051566" lon="10.8066278"><ele>230.25</ele><time>2026-05-03T08:01:44.756Z</time></trkpt><trkpt lat="43.0516598" lon="10.8067162"><ele>230.5</ele><time>2026-05-03T08:01:45.751Z</time></trkpt><trkpt lat="43.0517493" lon="10.8068072"><ele>230.75</ele><time>2026-05-03T08:01:46.77Z</time></trkpt><trkpt lat="43.0518389" lon="10.8069071"><ele>231.0</ele><time>2026-05-03T08:01:47.773Z</time></trkpt><trkpt lat="43.0519307" lon="10.8070054"><ele>229.5</ele><time>2026-05-03T08:01:48.757Z</time></trkpt><trkpt lat="43.0520215" lon="10.8070944"><ele>228.0</ele><time>2026-05-03T08:01:49.77Z</time></trkpt><trkpt lat="43.0521216" lon="10.8071781"><ele>226.5</ele><time>2026-05-03T08:01:50.754Z</time></trkpt><trkpt lat="43.052235" lon="10.8072525"><ele>225.0</ele><time>2026-05-03T08:01:51.761Z</time></trkpt><trkpt lat="43.0523542" lon="10.8073117"><ele>225.75</ele><time>2026-05-03T08:01:52.76Z</time></trkpt><trkpt lat="43.0524739" lon="10.8073589"><ele>226.5</ele><time>2026-05-03T08:01:53.757Z</time></trkpt><trkpt lat="43.052592" lon="10.8073954"><ele>227.25</ele><time>2026-05-03T08:01:54.76Z</time></trkpt><trkpt lat="43.0527083" lon="10.807414"><ele>228.0</ele><time>2026-05-03T08:01:55.77Z</time></trkpt><trkpt lat="43.0528238" lon="10.8074125"><ele>228.0</ele><time>2026-05-03T08:01:56.75Z</time></trkpt><trkpt lat="43.0529393" lon="10.8074029"><ele>228.0</ele><time>2026-05-03T08:01:57.768Z</time></trkpt><trkpt lat="43.0530546" lon="10.8073875"><ele>228.0</ele><time>2026-05-03T08:01:58.76Z</time></trkpt><trkpt lat="43.0531705" lon="10.8073685"><ele>228.0</ele><time>2026-05-03T08:01:59.765Z</time></trkpt><trkpt lat="43.0532888" lon="10.8073476"><ele>227.75</ele><time>2026-05-03T08:02:00.759Z</time></trkpt><trkpt lat="43.0534124" lon="10.8073285"><ele>227.5</ele><time>2026-05-03T08:02:01.773Z</time></trkpt><trkpt lat="43.0535379" lon="10.8073017"><ele>227.25</ele><time>2026-05-03T08:02:02.754Z</time></trkpt><trkpt lat="43.0536615" lon="10.8072721"><ele>227.0</ele><time>2026-05-03T08:02:03.756Z</time></trkpt><trkpt lat="43.0537801" lon="10.8072267"><ele>227.0</ele><time>2026-05-03T08:02:04.75Z</time></trkpt><trkpt lat="43.0538941" lon="10.807167"><ele>227.0</ele><time>2026-05-03T08:02:05.761Z</time></trkpt><trkpt lat="43.0540048" lon="10.8071044"><ele>227.0</ele><time>2026-05-03T08:02:06.753Z</time></trkpt><trkpt lat="43.0541117" lon="10.8070556"><ele>227.0</ele><time>2026-05-03T08:02:07.753Z</time></trkpt><trkpt lat="43.0542177" lon="10.8070325"><ele>228.2</ele><time>2026-05-03T08:02:08.753Z</time></trkpt><trkpt lat="43.0543142" lon="10.807033"><ele>229.39999999999998</ele><time>2026-05-03T08:02:09.761Z</time></trkpt><trkpt lat="43.0544057" lon="10.8070572"><ele>230.60000000000002</ele><time>2026-05-03T08:02:10.747Z</time></trkpt><trkpt lat="43.0544963" lon="10.8071031"><ele>231.8</ele><time>2026-05-03T08:02:11.763Z</time></trkpt><trkpt lat="43.0545919" lon="10.8071799"><ele>233.0</ele><time>2026-05-03T08:02:12.756Z</time></trkpt><trkpt lat="43.0546772" lon="10.8072654"><ele>233.0</ele><time>2026-05-03T08:02:13.772Z</time></trkpt><trkpt lat="43.0547539" lon="10.8073658"><ele>233.0</ele><time>2026-05-03T08:02:14.748Z</time></trkpt><trkpt lat="43.0548291" lon="10.8074866"><ele>233.0</ele><time>2026-05-03T08:02:15.765Z</time></trkpt><trkpt lat="43.0549046" lon="10.807613"><ele>233.0</ele><time>2026-05-03T08:02:16.765Z</time></trkpt><trkpt lat="43.0549787" lon="10.8077475"><ele>233.8</ele><time>2026-05-03T08:02:17.769Z</time></trkpt><trkpt lat="43.0550434" lon="10.8078784"><ele>234.60000000000002</ele><time>2026-05-03T08:02:18.76Z</time></trkpt><trkpt lat="43.055095" lon="10.8079961"><ele>235.39999999999998</ele><time>2026-05-03T08:02:19.772Z</time></trkpt><trkpt lat="43.0551525" lon="10.8080952"><ele>236.2</ele><time>2026-05-03T08:02:20.752Z</time></trkpt><trkpt lat="43.055226" lon="10.8081547"><ele>237.0</ele><time>2026-05-03T08:02:21.759Z</time></trkpt><trkpt lat="43.0552944" lon="10.8081663"><ele>237.0</ele><time>2026-05-03T08:02:22.754Z</time></trkpt><trkpt lat="43.0553577" lon="10.8081421"><ele>237.0</ele><time>2026-05-03T08:02:23.761Z</time></trkpt><trkpt lat="43.0554336" lon="10.8081035"><ele>237.0</ele><time>2026-05-03T08:02:24.769Z</time></trkpt><trkpt lat="43.0555087" lon="10.8080776"><ele>237.0</ele><time>2026-05-03T08:02:25.76Z</time></trkpt><trkpt lat="43.0555788" lon="10.8080853"><ele>237.0</ele><time>2026-05-03T08:02:26.756Z</time></trkpt><trkpt lat="43.0556501" lon="10.8081486"><ele>237.0</ele><time>2026-05-03T08:02:27.759Z</time></trkpt><trkpt lat="43.055708" lon="10.8082253"><ele>237.0</ele><time>2026-05-03T08:02:28.747Z</time></trkpt><trkpt lat="43.0557687" lon="10.8083322"><ele>237.0</ele><time>2026-05-03T08:02:29.761Z</time></trkpt><trkpt lat="43.0558211" lon="10.8084366"><ele>237.0</ele><time>2026-05-03T08:02:30.753Z</time></trkpt><trkpt lat="43.0558746" lon="10.8085472"><ele>237.0</ele><time>2026-05-03T08:02:31.763Z</time></trkpt><trkpt lat="43.0559357" lon="10.8086426"><ele>237.0</ele><time>2026-05-03T08:02:32.75Z</time></trkpt><trkpt lat="43.0560009" lon="10.8087268"><ele>240.0</ele><time>2026-05-03T08:02:33.765Z</time></trkpt><trkpt lat="43.0560706" lon="10.8088105"><ele>243.0</ele><time>2026-05-03T08:02:34.751Z</time></trkpt><trkpt lat="43.0561401" lon="10.8089041"><ele>246.0</ele><time>2026-05-03T08:02:35.75Z</time></trkpt><trkpt lat="43.0562025" lon="10.809009"><ele>249.0</ele><time>2026-05-03T08:02:36.756Z</time></trkpt><trkpt lat="43.0562569" lon="10.8091194"><ele>252.0</ele><time>2026-05-03T08:02:37.766Z</time></trkpt><trkpt lat="43.0563131" lon="10.8092344"><ele>252.39999999999998</ele><time>2026-05-03T08:02:38.756Z</time></trkpt><trkpt lat="43.0563733" lon="10.8093468"><ele>252.79999999999998</ele><time>2026-05-03T08:02:39.764Z</time></trkpt><trkpt lat="43.0564347" lon="10.8094567"><ele>253.2</ele><time>2026-05-03T08:02:40.762Z</time></trkpt><trkpt lat="43.0564988" lon="10.8095695"><ele>253.6</ele><time>2026-05-03T08:02:41.753Z</time></trkpt><trkpt lat="43.056565" lon="10.8096856"><ele>254.0</ele><time>2026-05-03T08:02:42.76Z</time></trkpt><trkpt lat="43.0566309" lon="10.8098094"><ele>254.0</ele><time>2026-05-03T08:02:43.755Z</time></trkpt><trkpt lat="43.0567021" lon="10.8099249"><ele>254.0</ele><time>2026-05-03T08:02:44.749Z</time></trkpt><trkpt lat="43.0567847" lon="10.810031"><ele>254.0</ele><time>2026-05-03T08:02:45.764Z</time></trkpt><trkpt lat="43.056876" lon="10.8101381"><ele>254.0</ele><time>2026-05-03T08:02:46.75Z</time></trkpt><trkpt lat="43.0569688" lon="10.810244"><ele>253.75</ele><time>2026-05-03T08:02:47.757Z</time></trkpt><trkpt lat="43.0570624" lon="10.8103541"><ele>253.5</ele><time>2026-05-03T08:02:48.75Z</time></trkpt><trkpt lat="43.0571441" lon="10.8104695"><ele>253.25</ele><time>2026-05-03T08:02:49.754Z</time></trkpt><trkpt lat="43.05721" lon="10.8105849"><ele>253.0</ele><time>2026-05-03T08:02:50.758Z</time></trkpt><trkpt lat="43.0572661" lon="10.8107018"><ele>253.0</ele><time>2026-05-03T08:02:51.76Z</time></trkpt><trkpt lat="43.0573235" lon="10.8108195"><ele>253.0</ele><time>2026-05-03T08:02:52.755Z</time></trkpt><trkpt lat="43.0573841" lon="10.8109266"><ele>253.0</ele><time>2026-05-03T08:02:53.756Z</time></trkpt><trkpt lat="43.0574575" lon="10.8110217"><ele>253.0</ele><time>2026-05-03T08:02:54.762Z</time></trkpt><trkpt lat="43.057551" lon="10.8110982"><ele>253.0</ele><time>2026-05-03T08:02:55.764Z</time></trkpt><trkpt lat="43.0576499" lon="10.8111539"><ele>253.4</ele><time>2026-05-03T08:02:56.754Z</time></trkpt><trkpt lat="43.0577566" lon="10.8111935"><ele>253.8</ele><time>2026-05-03T08:02:57.749Z</time></trkpt><trkpt lat="43.0578569" lon="10.8112085"><ele>254.2</ele><time>2026-05-03T08:02:58.753Z</time></trkpt><trkpt lat="43.0579425" lon="10.8112153"><ele>254.6</ele><time>2026-05-03T08:02:59.762Z</time></trkpt><trkpt lat="43.0580428" lon="10.8112173"><ele>255.0</ele><time>2026-05-03T08:03:01.767Z</time></trkpt><trkpt lat="43.0581101" lon="10.8112238"><ele>255.0</ele><time>2026-05-03T08:03:04.752Z</time></trkpt><trkpt lat="43.0581801" lon="10.8112225"><ele>255.0</ele><time>2026-05-03T08:03:07.755Z</time></trkpt><trkpt lat="43.0582629" lon="10.8112148"><ele>255.0</ele><time>2026-05-03T08:03:09.767Z</time></trkpt><trkpt lat="43.0583538" lon="10.8112206"><ele>255.0</ele><time>2026-05-03T08:03:11.778Z</time></trkpt><trkpt lat="43.0584485" lon="10.81122"><ele>255.0</ele><time>2026-05-03T08:03:13.775Z</time></trkpt><trkpt lat="43.0585528" lon="10.8112267"><ele>255.0</ele><time>2026-05-03T08:03:15.77Z</time></trkpt><trkpt lat="43.0586818" lon="10.8112245"><ele>256.2</ele><time>2026-05-03T08:03:17.765Z</time></trkpt><trkpt lat="43.0587566" lon="10.811224"><ele>257.4</ele><time>2026-05-03T08:03:18.765Z</time></trkpt><trkpt lat="43.058839" lon="10.8112283"><ele>258.6</ele><time>2026-05-03T08:03:19.771Z</time></trkpt><trkpt lat="43.0589298" lon="10.8112333"><ele>259.8</ele><time>2026-05-03T08:03:20.757Z</time></trkpt><trkpt lat="43.0590314" lon="10.8112451"><ele>261.0</ele><time>2026-05-03T08:03:21.77Z</time></trkpt><trkpt lat="43.0591365" lon="10.8112558"><ele>262.40000000000003</ele><time>2026-05-03T08:03:22.765Z</time></trkpt><trkpt lat="43.0592419" lon="10.8112743"><ele>263.8</ele><time>2026-05-03T08:03:23.767Z</time></trkpt><trkpt lat="43.05934" lon="10.8113015"><ele>265.20000000000005</ele><time>2026-05-03T08:03:24.768Z</time></trkpt><trkpt lat="43.0594296" lon="10.8113501"><ele>266.6</ele><time>2026-05-03T08:03:25.758Z</time></trkpt><trkpt lat="43.0595021" lon="10.8114209"><ele>268.0</ele><time>2026-05-03T08:03:26.768Z</time></trkpt><trkpt lat="43.0595658" lon="10.8115067"><ele>268.0</ele><time>2026-05-03T08:03:27.759Z</time></trkpt><trkpt lat="43.0596365" lon="10.8116056"><ele>268.0</ele><time>2026-05-03T08:03:28.769Z</time></trkpt><trkpt lat="43.0597172" lon="10.8116995"><ele>268.0</ele><time>2026-05-03T08:03:29.762Z</time></trkpt><trkpt lat="43.0598093" lon="10.8117729"><ele>268.0</ele><time>2026-05-03T08:03:30.764Z</time></trkpt><trkpt lat="43.0599211" lon="10.8118199"><ele>268.0</ele><time>2026-05-03T08:03:31.77Z</time></trkpt><trkpt lat="43.0600368" lon="10.8118415"><ele>268.4</ele><time>2026-05-03T08:03:32.763Z</time></trkpt><trkpt lat="43.0601486" lon="10.8118492"><ele>268.8</ele><time>2026-05-03T08:03:33.759Z</time></trkpt><trkpt lat="43.0602591" lon="10.8118559"><ele>269.2</ele><time>2026-05-03T08:03:34.763Z</time></trkpt><trkpt lat="43.0603664" lon="10.8118607"><ele>269.6</ele><time>2026-05-03T08:03:35.75Z</time></trkpt><trkpt lat="43.060472" lon="10.8118644"><ele>270.0</ele><time>2026-05-03T08:03:36.761Z</time></trkpt><trkpt lat="43.0605775" lon="10.8118717"><ele>270.0</ele><time>2026-05-03T08:03:37.758Z</time></trkpt><trkpt lat="43.0606856" lon="10.8118699"><ele>270.0</ele><time>2026-05-03T08:03:38.76Z</time></trkpt><trkpt lat="43.0607938" lon="10.8118571"><ele>270.0</ele><time>2026-05-03T08:03:39.758Z</time></trkpt><trkpt lat="43.0609058" lon="10.8118374"><ele>270.0</ele><time>2026-05-03T08:03:40.755Z</time></trkpt><trkpt lat="43.0610191" lon="10.8118182"><ele>270.0</ele><time>2026-05-03T08:03:41.756Z</time></trkpt><trkpt lat="43.0611271" lon="10.811797"><ele>272.8</ele><time>2026-05-03T08:03:42.762Z</time></trkpt><trkpt lat="43.0612349" lon="10.8117799"><ele>275.6</ele><time>2026-05-03T08:03:43.762Z</time></trkpt><trkpt lat="43.0613422" lon="10.8117627"><ele>278.4</ele><time>2026-05-03T08:03:44.754Z</time></trkpt><trkpt lat="43.0614469" lon="10.8117518"><ele>281.2</ele><time>2026-05-03T08:03:45.76Z</time></trkpt><trkpt lat="43.0615481" lon="10.8117455"><ele>284.0</ele><time>2026-05-03T08:03:46.751Z</time></trkpt><trkpt lat="43.0616479" lon="10.8117332"><ele>285.2</ele><time>2026-05-03T08:03:47.769Z</time></trkpt><trkpt lat="43.0617475" lon="10.8117027"><ele>286.4</ele><time>2026-05-03T08:03:48.754Z</time></trkpt><trkpt lat="43.0618429" lon="10.8116555"><ele>287.6</ele><time>2026-05-03T08:03:49.765Z</time></trkpt><trkpt lat="43.0619317" lon="10.8116001"><ele>288.8</ele><time>2026-05-03T08:03:50.753Z</time></trkpt><trkpt lat="43.0620095" lon="10.8115276"><ele>290.0</ele><time>2026-05-03T08:03:51.763Z</time></trkpt><trkpt lat="43.0620791" lon="10.8114338"><ele>290.0</ele><time>2026-05-03T08:03:52.753Z</time></trkpt><trkpt lat="43.0621477" lon="10.8113347"><ele>290.0</ele><time>2026-05-03T08:03:53.761Z</time></trkpt><trkpt lat="43.0622201" lon="10.8112297"><ele>290.0</ele><time>2026-05-03T08:03:54.76Z</time></trkpt><trkpt lat="43.0623052" lon="10.8111416"><ele>290.0</ele><time>2026-05-03T08:03:55.758Z</time></trkpt><trkpt lat="43.0623898" lon="10.8110821"><ele>290.0</ele><time>2026-05-03T08:03:56.749Z</time></trkpt><trkpt lat="43.0624693" lon="10.8110473"><ele>290.0</ele><time>2026-05-03T08:03:57.772Z</time></trkpt><trkpt lat="43.0625409" lon="10.8110168"><ele>290.0</ele><time>2026-05-03T08:03:58.757Z</time></trkpt><trkpt lat="43.0626043" lon="10.8109685"><ele>290.0</ele><time>2026-05-03T08:03:59.766Z</time></trkpt><trkpt lat="43.0626649" lon="10.810914"><ele>290.0</ele><time>2026-05-03T08:04:00.754Z</time></trkpt><trkpt lat="43.0627261" lon="10.8108516"><ele>290.0</ele><time>2026-05-03T08:04:01.776Z</time></trkpt><trkpt lat="43.0627941" lon="10.8107946"><ele>290.0</ele><time>2026-05-03T08:04:02.759Z</time></trkpt><trkpt lat="43.0628607" lon="10.8107302"><ele>290.5</ele><time>2026-05-03T08:04:03.761Z</time></trkpt><trkpt lat="43.0629334" lon="10.810674"><ele>291.0</ele><time>2026-05-03T08:04:04.756Z</time></trkpt><trkpt lat="43.0630127" lon="10.8106253"><ele>291.5</ele><time>2026-05-03T08:04:05.753Z</time></trkpt><trkpt lat="43.0630982" lon="10.81059"><ele>292.0</ele><time>2026-05-03T08:04:06.756Z</time></trkpt><trkpt lat="43.0631887" lon="10.8105636"><ele>292.5</ele><time>2026-05-03T08:04:07.753Z</time></trkpt><trkpt lat="43.0632782" lon="10.8105509"><ele>293.0</ele><time>2026-05-03T08:04:08.761Z</time></trkpt><trkpt lat="43.0633679" lon="10.8105569"><ele>293.33333333333337</ele><time>2026-05-03T08:04:09.761Z</time></trkpt><trkpt lat="43.0634577" lon="10.8105586"><ele>293.6666666666667</ele><time>2026-05-03T08:04:10.763Z</time></trkpt><trkpt lat="43.06355" lon="10.8105552"><ele>294.0</ele><time>2026-05-03T08:04:11.755Z</time></trkpt><trkpt lat="43.0636414" lon="10.8105629"><ele>294.3333333333333</ele><time>2026-05-03T08:04:12.758Z</time></trkpt><trkpt lat="43.063726" lon="10.8105794"><ele>294.66666666666663</ele><time>2026-05-03T08:04:13.753Z</time></trkpt><trkpt lat="43.0638105" lon="10.8106104"><ele>295.0</ele><time>2026-05-03T08:04:14.749Z</time></trkpt><trkpt lat="43.0638704" lon="10.8106662"><ele>295.0</ele><time>2026-05-03T08:04:15.756Z</time></trkpt><trkpt lat="43.0639069" lon="10.8107499"><ele>295.0</ele><time>2026-05-03T08:04:16.753Z</time></trkpt><trkpt lat="43.0639377" lon="10.8108497"><ele>295.0</ele><time>2026-05-03T08:04:17.756Z</time></trkpt><trkpt lat="43.0639679" lon="10.8109666"><ele>295.0</ele><time>2026-05-03T08:04:18.756Z</time></trkpt><trkpt lat="43.0639989" lon="10.8110748"><ele>295.0</ele><time>2026-05-03T08:04:19.76Z</time></trkpt><trkpt lat="43.0640397" lon="10.8111739"><ele>295.0</ele><time>2026-05-03T08:04:20.759Z</time></trkpt><trkpt lat="43.0640945" lon="10.8112675"><ele>295.16666666666663</ele><time>2026-05-03T08:04:21.759Z</time></trkpt><trkpt lat="43.0641584" lon="10.8113722"><ele>295.3333333333333</ele><time>2026-05-03T08:04:22.76Z</time></trkpt><trkpt lat="43.064219" lon="10.8114625"><ele>295.5</ele><time>2026-05-03T08:04:23.775Z</time></trkpt><trkpt lat="43.0642841" lon="10.8115423"><ele>295.6666666666667</ele><time>2026-05-03T08:04:24.779Z</time></trkpt><trkpt lat="43.0643518" lon="10.8115903"><ele>295.83333333333337</ele><time>2026-05-03T08:04:25.759Z</time></trkpt><trkpt lat="43.0644385" lon="10.8115929"><ele>296.0</ele><time>2026-05-03T08:04:26.749Z</time></trkpt><trkpt lat="43.0645315" lon="10.8115652"><ele>296.0</ele><time>2026-05-03T08:04:27.762Z</time></trkpt><trkpt lat="43.0646212" lon="10.8115348"><ele>296.0</ele><time>2026-05-03T08:04:28.759Z</time></trkpt><trkpt lat="43.0647156" lon="10.8115078"><ele>296.0</ele><time>2026-05-03T08:04:29.76Z</time></trkpt><trkpt lat="43.0648159" lon="10.8114802"><ele>296.0</ele><time>2026-05-03T08:04:30.75Z</time></trkpt><trkpt lat="43.0649159" lon="10.8114481"><ele>296.0</ele><time>2026-05-03T08:04:31.772Z</time></trkpt><trkpt lat="43.0650283" lon="10.811422"><ele>297.2</ele><time>2026-05-03T08:04:32.756Z</time></trkpt><trkpt lat="43.0651401" lon="10.8114052"><ele>298.40000000000003</ele><time>2026-05-03T08:04:33.755Z</time></trkpt><trkpt lat="43.0652493" lon="10.8113884"><ele>299.6</ele><time>2026-05-03T08:04:34.761Z</time></trkpt><trkpt lat="43.0653634" lon="10.8113827"><ele>300.8</ele><time>2026-05-03T08:04:35.756Z</time></trkpt><trkpt lat="43.0654731" lon="10.8113881"><ele>302.0</ele><time>2026-05-03T08:04:36.756Z</time></trkpt><trkpt lat="43.0655671" lon="10.811398"><ele>302.0</ele><time>2026-05-03T08:04:37.75Z</time></trkpt><trkpt lat="43.0656566" lon="10.8114135"><ele>302.0</ele><time>2026-05-03T08:04:38.749Z</time></trkpt><trkpt lat="43.0657443" lon="10.8114428"><ele>302.0</ele><time>2026-05-03T08:04:39.755Z</time></trkpt><trkpt lat="43.0658247" lon="10.8114826"><ele>302.0</ele><time>2026-05-03T08:04:40.757Z</time></trkpt><trkpt lat="43.0658963" lon="10.8115315"><ele>302.0</ele><time>2026-05-03T08:04:41.751Z</time></trkpt><trkpt lat="43.065967" lon="10.8115887"><ele>302.0</ele><time>2026-05-03T08:04:42.764Z</time></trkpt><trkpt lat="43.0660525" lon="10.8116821"><ele>302.75</ele><time>2026-05-03T08:04:43.752Z</time></trkpt><trkpt lat="43.0661621" lon="10.8117949"><ele>303.5</ele><time>2026-05-03T08:04:44.767Z</time></trkpt><trkpt lat="43.06626" lon="10.8119144"><ele>304.25</ele><time>2026-05-03T08:04:45.768Z</time></trkpt><trkpt lat="43.0663501" lon="10.8120332"><ele>305.0</ele><time>2026-05-03T08:04:46.763Z</time></trkpt><trkpt lat="43.0664418" lon="10.8121407"><ele>305.0</ele><time>2026-05-03T08:04:47.76Z</time></trkpt><trkpt lat="43.0665376" lon="10.8122509"><ele>305.0</ele><time>2026-05-03T08:04:48.764Z</time></trkpt><trkpt lat="43.066631" lon="10.8123586"><ele>305.0</ele><time>2026-05-03T08:04:49.761Z</time></trkpt><trkpt lat="43.0667062" lon="10.8124608"><ele>305.0</ele><time>2026-05-03T08:04:50.76Z</time></trkpt><trkpt lat="43.0667704" lon="10.8125654"><ele>307.0</ele><time>2026-05-03T08:04:51.758Z</time></trkpt><trkpt lat="43.066823" lon="10.8126913"><ele>309.0</ele><time>2026-05-03T08:04:52.759Z</time></trkpt><trkpt lat="43.0668681" lon="10.8128336"><ele>311.0</ele><time>2026-05-03T08:04:53.767Z</time></trkpt><trkpt lat="43.0669191" lon="10.812991"><ele>313.0</ele><time>2026-05-03T08:04:54.758Z</time></trkpt><trkpt lat="43.0669691" lon="10.8131459"><ele>313.0</ele><time>2026-05-03T08:04:55.771Z</time></trkpt><trkpt lat="43.067027" lon="10.8132848"><ele>313.0</ele><time>2026-05-03T08:04:56.749Z</time></trkpt><trkpt lat="43.0670887" lon="10.8133994"><ele>313.0</ele><time>2026-05-03T08:04:57.777Z</time></trkpt><trkpt lat="43.0671543" lon="10.8135112"><ele>313.0</ele><time>2026-05-03T08:04:58.756Z</time></trkpt><trkpt lat="43.0672159" lon="10.8136051"><ele>313.0</ele><time>2026-05-03T08:04:59.76Z</time></trkpt><trkpt lat="43.0672692" lon="10.813676"><ele>313.3333333333333</ele><time>2026-05-03T08:05:00.759Z</time></trkpt><trkpt lat="43.0673137" lon="10.8137391"><ele>313.66666666666663</ele><time>2026-05-03T08:05:01.76Z</time></trkpt><trkpt lat="43.0673798" lon="10.8138255"><ele>314.0</ele><time>2026-05-03T08:05:03.764Z</time></trkpt><trkpt lat="43.0674203" lon="10.813894"><ele>314.3333333333333</ele><time>2026-05-03T08:05:07.768Z</time></trkpt><trkpt lat="43.0674595" lon="10.8140178"><ele>314.6666666666667</ele><time>2026-05-03T08:05:54.763Z</time></trkpt><trkpt lat="43.0674791" lon="10.8141047"><ele>315.0</ele><time>2026-05-03T08:05:55.77Z</time></trkpt><trkpt lat="43.0675007" lon="10.8141886"><ele>315.8</ele><time>2026-05-03T08:05:56.76Z</time></trkpt><trkpt lat="43.0675195" lon="10.8143046"><ele>316.6</ele><time>2026-05-03T08:05:59.754Z</time></trkpt><trkpt lat="43.0675248" lon="10.8144364"><ele>317.4</ele><time>2026-05-03T08:06:02.768Z</time></trkpt><trkpt lat="43.0675358" lon="10.8146015"><ele>318.2</ele><time>2026-05-03T08:06:04.763Z</time></trkpt><trkpt lat="43.0675375" lon="10.8147038"><ele>319.0</ele><time>2026-05-03T08:06:05.759Z</time></trkpt><trkpt lat="43.0675513" lon="10.8148056"><ele>319.0</ele><time>2026-05-03T08:06:06.76Z</time></trkpt><trkpt lat="43.0675877" lon="10.8149091"><ele>319.0</ele><time>2026-05-03T08:06:07.756Z</time></trkpt><trkpt lat="43.0676311" lon="10.8150117"><ele>319.0</ele><time>2026-05-03T08:06:08.769Z</time></trkpt><trkpt lat="43.067687" lon="10.8151184"><ele>319.0</ele><time>2026-05-03T08:06:09.757Z</time></trkpt><trkpt lat="43.0677458" lon="10.8152262"><ele>319.0</ele><time>2026-05-03T08:06:10.755Z</time></trkpt><trkpt lat="43.067823" lon="10.815341"><ele>319.0</ele><time>2026-05-03T08:06:11.756Z</time></trkpt><trkpt lat="43.0679019" lon="10.8154469"><ele>319.0</ele><time>2026-05-03T08:06:12.755Z</time></trkpt><trkpt lat="43.0679724" lon="10.8155525"><ele>319.0</ele><time>2026-05-03T08:06:13.773Z</time></trkpt><trkpt lat="43.068034" lon="10.8156556"><ele>319.0</ele><time>2026-05-03T08:06:14.766Z</time></trkpt><trkpt lat="43.0680999" lon="10.8157599"><ele>319.0</ele><time>2026-05-03T08:06:15.775Z</time></trkpt><trkpt lat="43.0681806" lon="10.8158545"><ele>319.0</ele><time>2026-05-03T08:06:16.76Z</time></trkpt><trkpt lat="43.0682742" lon="10.815928"><ele>319.0</ele><time>2026-05-03T08:06:17.769Z</time></trkpt><trkpt lat="43.0683863" lon="10.8160046"><ele>319.0</ele><time>2026-05-03T08:06:18.77Z</time></trkpt><trkpt lat="43.0684994" lon="10.8160678"><ele>319.0</ele><time>2026-05-03T08:06:19.75Z</time></trkpt><trkpt lat="43.0686101" lon="10.8161343"><ele>317.5</ele><time>2026-05-03T08:06:20.754Z</time></trkpt><trkpt lat="43.0687184" lon="10.81623"><ele>316.0</ele><time>2026-05-03T08:06:21.764Z</time></trkpt><trkpt lat="43.0688075" lon="10.8163476"><ele>314.5</ele><time>2026-05-03T08:06:22.747Z</time></trkpt><trkpt lat="43.068874" lon="10.8164826"><ele>313.0</ele><time>2026-05-03T08:06:23.75Z</time></trkpt><trkpt lat="43.0689191" lon="10.8166388"><ele>313.0</ele><time>2026-05-03T08:06:24.761Z</time></trkpt><trkpt lat="43.0689369" lon="10.8168012"><ele>313.0</ele><time>2026-05-03T08:06:25.759Z</time></trkpt><trkpt lat="43.0689188" lon="10.8169495"><ele>313.0</ele><time>2026-05-03T08:06:26.762Z</time></trkpt><trkpt lat="43.0688725" lon="10.8170688"><ele>313.0</ele><time>2026-05-03T08:06:27.763Z</time></trkpt><trkpt lat="43.0688002" lon="10.8171775"><ele>313.0</ele><time>2026-05-03T08:06:28.762Z</time></trkpt><trkpt lat="43.0687359" lon="10.8172972"><ele>312.2</ele><time>2026-05-03T08:06:29.764Z</time></trkpt><trkpt lat="43.0686882" lon="10.8174175"><ele>311.4</ele><time>2026-05-03T08:06:30.754Z</time></trkpt><trkpt lat="43.0686631" lon="10.8175464"><ele>310.59999999999997</ele><time>2026-05-03T08:06:31.768Z</time></trkpt><trkpt lat="43.0686661" lon="10.8176794"><ele>309.8</ele><time>2026-05-03T08:06:32.759Z</time></trkpt><trkpt lat="43.0686993" lon="10.8178095"><ele>309.0</ele><time>2026-05-03T08:06:33.763Z</time></trkpt><trkpt lat="43.0687593" lon="10.8179382"><ele>308.25</ele><time>2026-05-03T08:06:34.759Z</time></trkpt><trkpt lat="43.0688515" lon="10.818045"><ele>307.5</ele><time>2026-05-03T08:06:35.765Z</time></trkpt><trkpt lat="43.0689612" lon="10.818141"><ele>306.75</ele><time>2026-05-03T08:06:36.77Z</time></trkpt><trkpt lat="43.069078" lon="10.8182407"><ele>306.0</ele><time>2026-05-03T08:06:37.756Z</time></trkpt><trkpt lat="43.0691931" lon="10.8183443"><ele>309.0</ele><time>2026-05-03T08:06:38.763Z</time></trkpt><trkpt lat="43.0693031" lon="10.818456"><ele>312.0</ele><time>2026-05-03T08:06:39.767Z</time></trkpt><trkpt lat="43.0694024" lon="10.8185653"><ele>315.0</ele><time>2026-05-03T08:06:40.759Z</time></trkpt><trkpt lat="43.0694778" lon="10.8186774"><ele>318.0</ele><time>2026-05-03T08:06:41.759Z</time></trkpt><trkpt lat="43.0695253" lon="10.8188024"><ele>318.2</ele><time>2026-05-03T08:06:42.753Z</time></trkpt><trkpt lat="43.06956" lon="10.8189326"><ele>318.4</ele><time>2026-05-03T08:06:43.755Z</time></trkpt><trkpt lat="43.0695759" lon="10.8190684"><ele>318.59999999999997</ele><time>2026-05-03T08:06:44.748Z</time></trkpt><trkpt lat="43.0695693" lon="10.8192224"><ele>318.8</ele><time>2026-05-03T08:06:45.758Z</time></trkpt><trkpt lat="43.0695626" lon="10.8193879"><ele>319.0</ele><time>2026-05-03T08:06:46.752Z</time></trkpt><trkpt lat="43.0695574" lon="10.819561"><ele>318.25</ele><time>2026-05-03T08:06:47.76Z</time></trkpt><trkpt lat="43.0695516" lon="10.8197325"><ele>317.5</ele><time>2026-05-03T08:06:48.759Z</time></trkpt><trkpt lat="43.0695444" lon="10.8199042"><ele>316.75</ele><time>2026-05-03T08:06:49.759Z</time></trkpt><trkpt lat="43.0695291" lon="10.8200646"><ele>316.0</ele><time>2026-05-03T08:06:50.755Z</time></trkpt><trkpt lat="43.0695133" lon="10.82021"><ele>314.5</ele><time>2026-05-03T08:06:51.757Z</time></trkpt><trkpt lat="43.0695025" lon="10.8203316"><ele>313.0</ele><time>2026-05-03T08:06:52.754Z</time></trkpt><trkpt lat="43.0695109" lon="10.82044"><ele>311.5</ele><time>2026-05-03T08:06:53.755Z</time></trkpt><trkpt lat="43.0695482" lon="10.8205351"><ele>310.0</ele><time>2026-05-03T08:06:54.767Z</time></trkpt><trkpt lat="43.0696125" lon="10.8206088"><ele>308.5</ele><time>2026-05-03T08:06:55.753Z</time></trkpt><trkpt lat="43.069698" lon="10.8206515"><ele>307.0</ele><time>2026-05-03T08:06:56.757Z</time></trkpt><trkpt lat="43.0697847" lon="10.8206723"><ele>307.0</ele><time>2026-05-03T08:06:57.768Z</time></trkpt><trkpt lat="43.069849" lon="10.820711"><ele>307.0</ele><time>2026-05-03T08:06:58.756Z</time></trkpt><trkpt lat="43.0698707" lon="10.8208488"><ele>307.0</ele><time>2026-05-03T08:07:00.765Z</time></trkpt><trkpt lat="43.0698317" lon="10.8209238"><ele>307.0</ele><time>2026-05-03T08:07:01.767Z</time></trkpt><trkpt lat="43.0697653" lon="10.8209875"><ele>307.0</ele><time>2026-05-03T08:07:02.759Z</time></trkpt><trkpt lat="43.0696871" lon="10.8210687"><ele>307.0</ele><time>2026-05-03T08:07:03.764Z</time></trkpt><trkpt lat="43.0696082" lon="10.8211802"><ele>306.75</ele><time>2026-05-03T08:07:04.751Z</time></trkpt><trkpt lat="43.0695291" lon="10.8213149"><ele>306.5</ele><time>2026-05-03T08:07:05.767Z</time></trkpt><trkpt lat="43.0694586" lon="10.8214668"><ele>306.25</ele><time>2026-05-03T08:07:06.767Z</time></trkpt><trkpt lat="43.0694124" lon="10.8216316"><ele>306.0</ele><time>2026-05-03T08:07:07.766Z</time></trkpt><trkpt lat="43.0693895" lon="10.8218124"><ele>308.0</ele><time>2026-05-03T08:07:08.763Z</time></trkpt><trkpt lat="43.0693844" lon="10.8220085"><ele>310.0</ele><time>2026-05-03T08:07:09.762Z</time></trkpt><trkpt lat="43.0693871" lon="10.8222002"><ele>312.0</ele><time>2026-05-03T08:07:10.77Z</time></trkpt><trkpt lat="43.0693844" lon="10.8223906"><ele>314.0</ele><time>2026-05-03T08:07:11.759Z</time></trkpt><trkpt lat="43.0693739" lon="10.8225789"><ele>316.25</ele><time>2026-05-03T08:07:12.753Z</time></trkpt><trkpt lat="43.0693471" lon="10.8227551"><ele>318.5</ele><time>2026-05-03T08:07:13.76Z</time></trkpt><trkpt lat="43.0693062" lon="10.8229344"><ele>320.75</ele><time>2026-05-03T08:07:14.751Z</time></trkpt><trkpt lat="43.0692577" lon="10.8231106"><ele>323.0</ele><time>2026-05-03T08:07:15.765Z</time></trkpt><trkpt lat="43.0692077" lon="10.8232903"><ele>323.0</ele><time>2026-05-03T08:07:16.745Z</time></trkpt><trkpt lat="43.0691564" lon="10.8234724"><ele>323.0</ele><time>2026-05-03T08:07:17.757Z</time></trkpt><trkpt lat="43.0691085" lon="10.8236657"><ele>323.0</ele><time>2026-05-03T08:07:18.748Z</time></trkpt><trkpt lat="43.069059" lon="10.8238627"><ele>323.0</ele><time>2026-05-03T08:07:19.763Z</time></trkpt><trkpt lat="43.0690066" lon="10.8240514"><ele>327.25</ele><time>2026-05-03T08:07:20.753Z</time></trkpt><trkpt lat="43.0689513" lon="10.8242319"><ele>331.5</ele><time>2026-05-03T08:07:21.768Z</time></trkpt><trkpt lat="43.0688962" lon="10.8244025"><ele>335.75</ele><time>2026-05-03T08:07:22.76Z</time></trkpt><trkpt lat="43.0688329" lon="10.8245586"><ele>340.0</ele><time>2026-05-03T08:07:23.76Z</time></trkpt><trkpt lat="43.0687531" lon="10.8246999"><ele>340.0</ele><time>2026-05-03T08:07:24.76Z</time></trkpt><trkpt lat="43.0686616" lon="10.8248371"><ele>340.0</ele><time>2026-05-03T08:07:25.766Z</time></trkpt><trkpt lat="43.0685777" lon="10.824971"><ele>340.0</ele><time>2026-05-03T08:07:26.755Z</time></trkpt><trkpt lat="43.068527" lon="10.8251022"><ele>340.0</ele><time>2026-05-03T08:07:27.765Z</time></trkpt><trkpt lat="43.0685143" lon="10.82524"><ele>340.5</ele><time>2026-05-03T08:07:28.755Z</time></trkpt><trkpt lat="43.0685345" lon="10.8253947"><ele>341.0</ele><time>2026-05-03T08:07:29.753Z</time></trkpt><trkpt lat="43.0685816" lon="10.8255697"><ele>341.5</ele><time>2026-05-03T08:07:30.758Z</time></trkpt><trkpt lat="43.0686218" lon="10.825763"><ele>342.0</ele><time>2026-05-03T08:07:31.764Z</time></trkpt><trkpt lat="43.0686483" lon="10.8259728"><ele>341.3333333333333</ele><time>2026-05-03T08:07:32.762Z</time></trkpt><trkpt lat="43.0686536" lon="10.8261965"><ele>340.66666666666663</ele><time>2026-05-03T08:07:33.759Z</time></trkpt><trkpt lat="43.0686513" lon="10.8264183"><ele>340.0</ele><time>2026-05-03T08:07:34.753Z</time></trkpt><trkpt lat="43.068655" lon="10.8266291"><ele>340.0</ele><time>2026-05-03T08:07:35.75Z</time></trkpt><trkpt lat="43.0686687" lon="10.8268065"><ele>340.0</ele><time>2026-05-03T08:07:36.761Z</time></trkpt><trkpt lat="43.068709" lon="10.8269708"><ele>340.0</ele><time>2026-05-03T08:07:37.765Z</time></trkpt><trkpt lat="43.0687835" lon="10.827115"><ele>340.0</ele><time>2026-05-03T08:07:38.766Z</time></trkpt><trkpt lat="43.0688976" lon="10.8272359"><ele>340.0</ele><time>2026-05-03T08:07:39.759Z</time></trkpt><trkpt lat="43.0690412" lon="10.8273506"><ele>340.0</ele><time>2026-05-03T08:07:40.758Z</time></trkpt><trkpt lat="43.069181" lon="10.8274482"><ele>340.0</ele><time>2026-05-03T08:07:41.754Z</time></trkpt><trkpt lat="43.0693035" lon="10.8275744"><ele>337.66666666666663</ele><time>2026-05-03T08:07:42.757Z</time></trkpt><trkpt lat="43.0694063" lon="10.8277263"><ele>335.3333333333333</ele><time>2026-05-03T08:07:43.751Z</time></trkpt><trkpt lat="43.0695017" lon="10.8279012"><ele>333.0</ele><time>2026-05-03T08:07:44.749Z</time></trkpt><trkpt lat="43.0696029" lon="10.8281003"><ele>333.0</ele><time>2026-05-03T08:07:45.765Z</time></trkpt><trkpt lat="43.0697011" lon="10.8283046"><ele>333.0</ele><time>2026-05-03T08:07:46.744Z</time></trkpt><trkpt lat="43.0697961" lon="10.8285179"><ele>333.0</ele><time>2026-05-03T08:07:47.759Z</time></trkpt><trkpt lat="43.0698901" lon="10.8287246"><ele>335.6666666666667</ele><time>2026-05-03T08:07:48.76Z</time></trkpt><trkpt lat="43.0699827" lon="10.8289239"><ele>338.33333333333337</ele><time>2026-05-03T08:07:49.75Z</time></trkpt><trkpt lat="43.0700687" lon="10.8290995"><ele>341.0</ele><time>2026-05-03T08:07:50.748Z</time></trkpt><trkpt lat="43.0701395" lon="10.829258"><ele>341.5</ele><time>2026-05-03T08:07:51.742Z</time></trkpt><trkpt lat="43.0701767" lon="10.8294237"><ele>342.0</ele><time>2026-05-03T08:07:52.749Z</time></trkpt><trkpt lat="43.070188" lon="10.8295909"><ele>342.5</ele><time>2026-05-03T08:07:53.763Z</time></trkpt><trkpt lat="43.0701662" lon="10.8297731"><ele>343.0</ele><time>2026-05-03T08:07:54.748Z</time></trkpt><trkpt lat="43.0701304" lon="10.8299681"><ele>344.0</ele><time>2026-05-03T08:07:55.761Z</time></trkpt><trkpt lat="43.0700916" lon="10.8301668"><ele>345.0</ele><time>2026-05-03T08:07:56.758Z</time></trkpt><trkpt lat="43.0700662" lon="10.8303629"><ele>346.0</ele><time>2026-05-03T08:07:57.757Z</time></trkpt><trkpt lat="43.0700652" lon="10.8305512"><ele>347.0</ele><time>2026-05-03T08:07:58.753Z</time></trkpt><trkpt lat="43.0700752" lon="10.8307463"><ele>347.0</ele><time>2026-05-03T08:07:59.766Z</time></trkpt><trkpt lat="43.0700832" lon="10.8309596"><ele>347.0</ele><time>2026-05-03T08:08:00.762Z</time></trkpt><trkpt lat="43.0700814" lon="10.831179"><ele>347.0</ele><time>2026-05-03T08:08:01.759Z</time></trkpt><trkpt lat="43.070071" lon="10.8313974"><ele>347.0</ele><time>2026-05-03T08:08:02.76Z</time></trkpt><trkpt lat="43.0700591" lon="10.8316192"><ele>347.0</ele><time>2026-05-03T08:08:03.755Z</time></trkpt><trkpt lat="43.0700634" lon="10.8318472"><ele>347.0</ele><time>2026-05-03T08:08:04.753Z</time></trkpt><trkpt lat="43.0700832" lon="10.8320899"><ele>347.0</ele><time>2026-05-03T08:08:05.756Z</time></trkpt><trkpt lat="43.0701032" lon="10.8323496"><ele>347.0</ele><time>2026-05-03T08:08:06.764Z</time></trkpt><trkpt lat="43.0701069" lon="10.8326085"><ele>347.0</ele><time>2026-05-03T08:08:07.767Z</time></trkpt><trkpt lat="43.0701112" lon="10.8328717"><ele>346.33333333333337</ele><time>2026-05-03T08:08:08.756Z</time></trkpt><trkpt lat="43.0701159" lon="10.8331279"><ele>345.6666666666667</ele><time>2026-05-03T08:08:09.75Z</time></trkpt><trkpt lat="43.0701172" lon="10.8333648"><ele>345.0</ele><time>2026-05-03T08:08:10.747Z</time></trkpt><trkpt lat="43.0701268" lon="10.8335925"><ele>345.0</ele><time>2026-05-03T08:08:11.75Z</time></trkpt><trkpt lat="43.0701517" lon="10.8338069"><ele>345.0</ele><time>2026-05-03T08:08:12.757Z</time></trkpt><trkpt lat="43.0702038" lon="10.8340293"><ele>345.0</ele><time>2026-05-03T08:08:13.763Z</time></trkpt><trkpt lat="43.0702696" lon="10.8342591"><ele>345.0</ele><time>2026-05-03T08:08:14.765Z</time></trkpt><trkpt lat="43.070331" lon="10.8344953"><ele>345.0</ele><time>2026-05-03T08:08:15.764Z</time></trkpt><trkpt lat="43.0703894" lon="10.8347339"><ele>345.0</ele><time>2026-05-03T08:08:16.762Z</time></trkpt><trkpt lat="43.0704403" lon="10.8349585"><ele>343.4</ele><time>2026-05-03T08:08:17.764Z</time></trkpt><trkpt lat="43.0704721" lon="10.8351587"><ele>341.8</ele><time>2026-05-03T08:08:18.744Z</time></trkpt><trkpt lat="43.0704927" lon="10.8353169"><ele>340.20000000000005</ele><time>2026-05-03T08:08:19.746Z</time></trkpt><trkpt lat="43.0705092" lon="10.8354383"><ele>338.6</ele><time>2026-05-03T08:08:20.753Z</time></trkpt><trkpt lat="43.0705221" lon="10.8355301"><ele>337.0</ele><time>2026-05-03T08:08:21.754Z</time></trkpt><trkpt lat="43.0705322" lon="10.8356631"><ele>337.0</ele><time>2026-05-03T08:08:23.751Z</time></trkpt><trkpt lat="43.0705486" lon="10.8357501"><ele>337.0</ele><time>2026-05-03T08:08:27.779Z</time></trkpt><trkpt lat="43.0706092" lon="10.8356971"><ele>337.0</ele><time>2026-05-03T08:08:30.758Z</time></trkpt><trkpt lat="43.0706618" lon="10.8356263"><ele>337.0</ele><time>2026-05-03T08:08:32.762Z</time></trkpt><trkpt lat="43.070712" lon="10.8355484"><ele>337.0</ele><time>2026-05-03T08:08:35.756Z</time></trkpt><trkpt lat="43.0707768" lon="10.8354923"><ele>337.0</ele><time>2026-05-03T08:08:37.755Z</time></trkpt><trkpt lat="43.0708908" lon="10.8354291"><ele>339.5</ele><time>2026-05-03T08:08:39.751Z</time></trkpt><trkpt lat="43.0709597" lon="10.8354095"><ele>342.0</ele><time>2026-05-03T08:08:40.749Z</time></trkpt><trkpt lat="43.0710273" lon="10.8354082"><ele>344.5</ele><time>2026-05-03T08:08:41.759Z</time></trkpt><trkpt lat="43.0711365" lon="10.8354549"><ele>347.0</ele><time>2026-05-03T08:08:43.758Z</time></trkpt><trkpt lat="43.0712206" lon="10.8355152"><ele>349.5</ele><time>2026-05-03T08:08:45.752Z</time></trkpt><trkpt lat="43.0713053" lon="10.8355866"><ele>352.0</ele><time>2026-05-03T08:08:47.76Z</time></trkpt><trkpt lat="43.0713945" lon="10.8356627"><ele>352.0</ele><time>2026-05-03T08:08:49.749Z</time></trkpt><trkpt lat="43.0714659" lon="10.8357301"><ele>352.0</ele><time>2026-05-03T08:08:51.762Z</time></trkpt><trkpt lat="43.071534" lon="10.8357767"><ele>352.0</ele><time>2026-05-03T08:08:53.76Z</time></trkpt><trkpt lat="43.0716056" lon="10.8358255"><ele>352.0</ele><time>2026-05-03T08:08:55.768Z</time></trkpt><trkpt lat="43.0716853" lon="10.8358755"><ele>352.0</ele><time>2026-05-03T08:08:57.767Z</time></trkpt><trkpt lat="43.0706092" lon="10.8356971"><ele>352.0</ele><time>2026-05-03T08:08:30.758Z</time></trkpt><trkpt lat="43.0706618" lon="10.8356263"><ele>352.0</ele><time>2026-05-03T08:08:32.762Z</time></trkpt><trkpt lat="43.070712" lon="10.8355484"><ele>352.0</ele><time>2026-05-03T08:08:35.756Z</time></trkpt><trkpt lat="43.0707768" lon="10.8354923"><ele>352.0</ele><time>2026-05-03T08:08:37.755Z</time></trkpt><trkpt lat="43.0708908" lon="10.8354291"><ele>352.0</ele><time>2026-05-03T08:08:39.751Z</time></trkpt><trkpt lat="43.0709597" lon="10.8354095"><ele>352.0</ele><time>2026-05-03T08:08:40.749Z</time></trkpt><trkpt lat="43.0710273" lon="10.8354082"><ele>352.0</ele><time>2026-05-03T08:08:41.759Z</time></trkpt><trkpt lat="43.0711365" lon="10.8354549"><ele>352.0</ele><time>2026-05-03T08:08:43.758Z</time></trkpt><trkpt lat="43.0712206" lon="10.8355152"><ele>352.0</ele><time>2026-05-03T08:08:45.752Z</time></trkpt><trkpt lat="43.0713053" lon="10.8355866"><ele>352.0</ele><time>2026-05-03T08:08:47.76Z</time></trkpt><trkpt lat="43.0713945" lon="10.8356627"><ele>352.0</ele><time>2026-05-03T08:08:49.749Z</time></trkpt><trkpt lat="43.0714659" lon="10.8357301"><ele>352.0</ele><time>2026-05-03T08:08:51.762Z</time></trkpt><trkpt lat="43.071534" lon="10.8357767"><ele>352.0</ele><time>2026-05-03T08:08:53.76Z</time></trkpt><trkpt lat="43.0716056" lon="10.8358255"><ele>352.0</ele><time>2026-05-03T08:08:55.768Z</time></trkpt><trkpt lat="43.0716853" lon="10.8358755"><ele>352.0</ele><time>2026-05-03T08:08:57.767Z</time></trkpt><trkpt lat="43.0717967" lon="10.8359474"><ele>352.0</ele><time>2026-05-03T08:08:59.753Z</time></trkpt><trkpt lat="43.0718537" lon="10.8360059"><ele>352.0</ele><time>2026-05-03T08:09:00.767Z</time></trkpt><trkpt lat="43.0719159" lon="10.8360909"><ele>354.0</ele><time>2026-05-03T08:09:01.757Z</time></trkpt><trkpt lat="43.0719794" lon="10.8361819"><ele>356.0</ele><time>2026-05-03T08:09:02.762Z</time></trkpt><trkpt lat="43.0720502" lon="10.836287"><ele>358.0</ele><time>2026-05-03T08:09:03.76Z</time></trkpt><trkpt lat="43.072129" lon="10.8364009"><ele>360.0</ele><time>2026-05-03T08:09:04.75Z</time></trkpt><trkpt lat="43.0721976" lon="10.8365143"><ele>362.0</ele><time>2026-05-03T08:09:05.749Z</time></trkpt><trkpt lat="43.0722604" lon="10.8366463"><ele>362.0</ele><time>2026-05-03T08:09:06.764Z</time></trkpt><trkpt lat="43.0723271" lon="10.8367792"><ele>362.0</ele><time>2026-05-03T08:09:07.751Z</time></trkpt><trkpt lat="43.0723848" lon="10.8369042"><ele>362.0</ele><time>2026-05-03T08:09:08.745Z</time></trkpt><trkpt lat="43.0724598" lon="10.8369966"><ele>362.0</ele><time>2026-05-03T08:09:09.755Z</time></trkpt><trkpt lat="43.0725389" lon="10.8370411"><ele>362.0</ele><time>2026-05-03T08:09:10.748Z</time></trkpt><trkpt lat="43.0726208" lon="10.8370484"><ele>363.40000000000003</ele><time>2026-05-03T08:09:11.748Z</time></trkpt><trkpt lat="43.0726994" lon="10.8370093"><ele>364.8</ele><time>2026-05-03T08:09:12.749Z</time></trkpt><trkpt lat="43.0727827" lon="10.8369517"><ele>366.2</ele><time>2026-05-03T08:09:13.761Z</time></trkpt><trkpt lat="43.0728661" lon="10.8368935"><ele>367.6</ele><time>2026-05-03T08:09:14.737Z</time></trkpt><trkpt lat="43.0729687" lon="10.8368648"><ele>369.0</ele><time>2026-05-03T08:09:15.76Z</time></trkpt><trkpt lat="43.0730879" lon="10.8368548"><ele>369.0</ele><time>2026-05-03T08:09:16.752Z</time></trkpt><trkpt lat="43.0732159" lon="10.8368723"><ele>369.0</ele><time>2026-05-03T08:09:17.745Z</time></trkpt><trkpt lat="43.0733453" lon="10.836884"><ele>369.0</ele><time>2026-05-03T08:09:18.745Z</time></trkpt><trkpt lat="43.0734731" lon="10.8368869"><ele>369.0</ele><time>2026-05-03T08:09:19.762Z</time></trkpt><trkpt lat="43.0736004" lon="10.8368918"><ele>368.0</ele><time>2026-05-03T08:09:20.766Z</time></trkpt><trkpt lat="43.0737281" lon="10.8368961"><ele>367.0</ele><time>2026-05-03T08:09:21.751Z</time></trkpt><trkpt lat="43.0738411" lon="10.8368881"><ele>366.0</ele><time>2026-05-03T08:09:22.747Z</time></trkpt><trkpt lat="43.0739479" lon="10.8368637"><ele>365.0</ele><time>2026-05-03T08:09:23.767Z</time></trkpt><trkpt lat="43.0740461" lon="10.8368206"><ele>361.25</ele><time>2026-05-03T08:09:24.757Z</time></trkpt><trkpt lat="43.074142" lon="10.8367686"><ele>357.5</ele><time>2026-05-03T08:09:25.749Z</time></trkpt><trkpt lat="43.0742287" lon="10.8366898"><ele>353.75</ele><time>2026-05-03T08:09:26.75Z</time></trkpt><trkpt lat="43.0743315" lon="10.8366102"><ele>350.0</ele><time>2026-05-03T08:09:27.754Z</time></trkpt><trkpt lat="43.0744486" lon="10.8365356"><ele>350.0</ele><time>2026-05-03T08:09:28.751Z</time></trkpt><trkpt lat="43.0745605" lon="10.8364691"><ele>350.0</ele><time>2026-05-03T08:09:29.755Z</time></trkpt><trkpt lat="43.0746641" lon="10.8364181"><ele>350.0</ele><time>2026-05-03T08:09:30.753Z</time></trkpt><trkpt lat="43.0747641" lon="10.8363754"><ele>350.0</ele><time>2026-05-03T08:09:31.761Z</time></trkpt><trkpt lat="43.0748759" lon="10.8363558"><ele>350.5</ele><time>2026-05-03T08:09:32.754Z</time></trkpt><trkpt lat="43.0750054" lon="10.8363501"><ele>351.0</ele><time>2026-05-03T08:09:33.751Z</time></trkpt><trkpt lat="43.0751345" lon="10.836338"><ele>351.5</ele><time>2026-05-03T08:09:34.755Z</time></trkpt><trkpt lat="43.0752568" lon="10.8363164"><ele>352.0</ele><time>2026-05-03T08:09:35.753Z</time></trkpt><trkpt lat="43.0753793" lon="10.8362925"><ele>352.0</ele><time>2026-05-03T08:09:36.753Z</time></trkpt><trkpt lat="43.0755057" lon="10.8362588"><ele>352.0</ele><time>2026-05-03T08:09:37.757Z</time></trkpt><trkpt lat="43.0756302" lon="10.8362299"><ele>352.0</ele><time>2026-05-03T08:09:38.753Z</time></trkpt><trkpt lat="43.0757514" lon="10.8361989"><ele>352.0</ele><time>2026-05-03T08:09:39.756Z</time></trkpt><trkpt lat="43.0758757" lon="10.836173"><ele>352.75</ele><time>2026-05-03T08:09:40.766Z</time></trkpt><trkpt lat="43.0760004" lon="10.8361531"><ele>353.5</ele><time>2026-05-03T08:09:41.775Z</time></trkpt><trkpt lat="43.0761196" lon="10.836132"><ele>354.25</ele><time>2026-05-03T08:09:42.753Z</time></trkpt><trkpt lat="43.0762382" lon="10.8361184"><ele>355.0</ele><time>2026-05-03T08:09:43.761Z</time></trkpt><trkpt lat="43.0763564" lon="10.8360942"><ele>355.0</ele><time>2026-05-03T08:09:44.767Z</time></trkpt><trkpt lat="43.0764735" lon="10.8360545"><ele>355.0</ele><time>2026-05-03T08:09:45.762Z</time></trkpt><trkpt lat="43.076597" lon="10.8360165"><ele>355.0</ele><time>2026-05-03T08:09:46.752Z</time></trkpt><trkpt lat="43.0767232" lon="10.8359866"><ele>355.0</ele><time>2026-05-03T08:09:47.759Z</time></trkpt><trkpt lat="43.0768506" lon="10.8359766"><ele>353.5</ele><time>2026-05-03T08:09:48.749Z</time></trkpt><trkpt lat="43.0769802" lon="10.8359745"><ele>352.0</ele><time>2026-05-03T08:09:49.765Z</time></trkpt><trkpt lat="43.077109" lon="10.8359683"><ele>350.5</ele><time>2026-05-03T08:09:50.755Z</time></trkpt><trkpt lat="43.077235" lon="10.8359581"><ele>349.0</ele><time>2026-05-03T08:09:51.764Z</time></trkpt><trkpt lat="43.0773549" lon="10.8359685"><ele>351.79999999999995</ele><time>2026-05-03T08:09:52.749Z</time></trkpt><trkpt lat="43.0774673" lon="10.8359836"><ele>354.59999999999997</ele><time>2026-05-03T08:09:53.755Z</time></trkpt><trkpt lat="43.0775726" lon="10.8360074"><ele>357.4</ele><time>2026-05-03T08:09:54.773Z</time></trkpt><trkpt lat="43.0776586" lon="10.8360394"><ele>360.2</ele><time>2026-05-03T08:09:55.757Z</time></trkpt><trkpt lat="43.0777304" lon="10.8360796"><ele>363.0</ele><time>2026-05-03T08:09:56.762Z</time></trkpt><trkpt lat="43.0778048" lon="10.836146"><ele>363.0</ele><time>2026-05-03T08:09:57.767Z</time></trkpt><trkpt lat="43.0778692" lon="10.8362089"><ele>363.0</ele><time>2026-05-03T08:09:58.764Z</time></trkpt><trkpt lat="43.0779299" lon="10.8362745"><ele>363.0</ele><time>2026-05-03T08:09:59.783Z</time></trkpt><trkpt lat="43.0780053" lon="10.836318"><ele>363.0</ele><time>2026-05-03T08:10:00.759Z</time></trkpt><trkpt lat="43.078079" lon="10.8363233"><ele>363.0</ele><time>2026-05-03T08:10:01.762Z</time></trkpt><trkpt lat="43.0781537" lon="10.8363157"><ele>363.0</ele><time>2026-05-03T08:10:02.755Z</time></trkpt><trkpt lat="43.0782335" lon="10.8363026"><ele>362.59999999999997</ele><time>2026-05-03T08:10:03.761Z</time></trkpt><trkpt lat="43.0783222" lon="10.8362995"><ele>362.2</ele><time>2026-05-03T08:10:04.754Z</time></trkpt><trkpt lat="43.0784145" lon="10.8362896"><ele>361.8</ele><time>2026-05-03T08:10:05.772Z</time></trkpt><trkpt lat="43.0785115" lon="10.8362749"><ele>361.4</ele><time>2026-05-03T08:10:06.759Z</time></trkpt><trkpt lat="43.0786065" lon="10.8362604"><ele>361.0</ele><time>2026-05-03T08:10:07.764Z</time></trkpt><trkpt lat="43.0787078" lon="10.8362596"><ele>361.0</ele><time>2026-05-03T08:10:08.765Z</time></trkpt><trkpt lat="43.0788036" lon="10.8362643"><ele>361.0</ele><time>2026-05-03T08:10:09.767Z</time></trkpt><trkpt lat="43.0789019" lon="10.8362998"><ele>361.0</ele><time>2026-05-03T08:10:10.756Z</time></trkpt><trkpt lat="43.0789923" lon="10.8363441"><ele>361.0</ele><time>2026-05-03T08:10:11.759Z</time></trkpt><trkpt lat="43.0790863" lon="10.8363994"><ele>361.0</ele><time>2026-05-03T08:10:12.761Z</time></trkpt><trkpt lat="43.0791819" lon="10.8364628"><ele>359.0</ele><time>2026-05-03T08:10:13.754Z</time></trkpt><trkpt lat="43.0792789" lon="10.8365256"><ele>357.0</ele><time>2026-05-03T08:10:14.745Z</time></trkpt><trkpt lat="43.0793757" lon="10.8365852"><ele>355.0</ele><time>2026-05-03T08:10:15.762Z</time></trkpt><trkpt lat="43.0794699" lon="10.836641"><ele>353.0</ele><time>2026-05-03T08:10:16.75Z</time></trkpt><trkpt lat="43.0795681" lon="10.8366905"><ele>351.0</ele><time>2026-05-03T08:10:17.753Z</time></trkpt><trkpt lat="43.0796672" lon="10.8367244"><ele>351.0</ele><time>2026-05-03T08:10:18.755Z</time></trkpt><trkpt lat="43.079769" lon="10.8367374"><ele>351.0</ele><time>2026-05-03T08:10:19.76Z</time></trkpt><trkpt lat="43.0798828" lon="10.8367244"><ele>351.0</ele><time>2026-05-03T08:10:20.756Z</time></trkpt><trkpt lat="43.079993" lon="10.8366945"><ele>351.0</ele><time>2026-05-03T08:10:21.758Z</time></trkpt><trkpt lat="43.0800941" lon="10.8366824"><ele>351.0</ele><time>2026-05-03T08:10:22.762Z</time></trkpt><trkpt lat="43.0801875" lon="10.8367036"><ele>352.1666666666667</ele><time>2026-05-03T08:10:23.76Z</time></trkpt><trkpt lat="43.0802719" lon="10.8367485"><ele>353.3333333333333</ele><time>2026-05-03T08:10:24.752Z</time></trkpt><trkpt lat="43.080349" lon="10.8368127"><ele>354.5</ele><time>2026-05-03T08:10:25.759Z</time></trkpt><trkpt lat="43.0804179" lon="10.8368899"><ele>355.66666666666663</ele><time>2026-05-03T08:10:26.749Z</time></trkpt><trkpt lat="43.0804839" lon="10.8369504"><ele>356.8333333333333</ele><time>2026-05-03T08:10:27.767Z</time></trkpt><trkpt lat="43.0805575" lon="10.8369993"><ele>358.0</ele><time>2026-05-03T08:10:28.75Z</time></trkpt><trkpt lat="43.0806382" lon="10.8370339"><ele>358.0</ele><time>2026-05-03T08:10:29.758Z</time></trkpt><trkpt lat="43.0807197" lon="10.8370529"><ele>358.0</ele><time>2026-05-03T08:10:30.738Z</time></trkpt><trkpt lat="43.0807968" lon="10.8370742"><ele>358.0</ele><time>2026-05-03T08:10:31.754Z</time></trkpt><trkpt lat="43.0808771" lon="10.8371104"><ele>358.0</ele><time>2026-05-03T08:10:32.754Z</time></trkpt><trkpt lat="43.0809547" lon="10.8371609"><ele>358.0</ele><time>2026-05-03T08:10:33.766Z</time></trkpt><trkpt lat="43.0810271" lon="10.8372097"><ele>358.0</ele><time>2026-05-03T08:10:34.751Z</time></trkpt><trkpt lat="43.0810935" lon="10.83725"><ele>356.5</ele><time>2026-05-03T08:10:35.757Z</time></trkpt><trkpt lat="43.0811628" lon="10.8372478"><ele>355.0</ele><time>2026-05-03T08:10:36.758Z</time></trkpt><trkpt lat="43.0812469" lon="10.8372014"><ele>353.5</ele><time>2026-05-03T08:10:37.754Z</time></trkpt><trkpt lat="43.0813223" lon="10.8371701"><ele>352.0</ele><time>2026-05-03T08:10:38.745Z</time></trkpt><trkpt lat="43.0813997" lon="10.8371704"><ele>350.5</ele><time>2026-05-03T08:10:39.757Z</time></trkpt><trkpt lat="43.0814824" lon="10.8371885"><ele>349.0</ele><time>2026-05-03T08:10:40.756Z</time></trkpt><trkpt lat="43.0815788" lon="10.8372312"><ele>345.25</ele><time>2026-05-03T08:10:41.758Z</time></trkpt><trkpt lat="43.0816857" lon="10.8373172"><ele>341.5</ele><time>2026-05-03T08:10:42.743Z</time></trkpt><trkpt lat="43.0817967" lon="10.8374115"><ele>337.75</ele><time>2026-05-03T08:10:43.764Z</time></trkpt><trkpt lat="43.081909" lon="10.8374969"><ele>334.0</ele><time>2026-05-03T08:10:44.753Z</time></trkpt><trkpt lat="43.0820166" lon="10.8375632"><ele>334.0</ele><time>2026-05-03T08:10:45.758Z</time></trkpt><trkpt lat="43.0821235" lon="10.8376108"><ele>334.0</ele><time>2026-05-03T08:10:46.753Z</time></trkpt><trkpt lat="43.0822369" lon="10.8376396"><ele>334.0</ele><time>2026-05-03T08:10:47.755Z</time></trkpt><trkpt lat="43.0823545" lon="10.8376401"><ele>334.0</ele><time>2026-05-03T08:10:48.76Z</time></trkpt><trkpt lat="43.0824675" lon="10.8376125"><ele>331.5</ele><time>2026-05-03T08:10:49.763Z</time></trkpt><trkpt lat="43.0825839" lon="10.8375678"><ele>329.0</ele><time>2026-05-03T08:10:50.762Z</time></trkpt><trkpt lat="43.0826992" lon="10.8374957"><ele>326.5</ele><time>2026-05-03T08:10:51.767Z</time></trkpt><trkpt lat="43.0828158" lon="10.8374296"><ele>324.0</ele><time>2026-05-03T08:10:52.748Z</time></trkpt><trkpt lat="43.0829368" lon="10.8373885"><ele>324.0</ele><time>2026-05-03T08:10:53.752Z</time></trkpt><trkpt lat="43.083056" lon="10.8373535"><ele>324.0</ele><time>2026-05-03T08:10:54.755Z</time></trkpt><trkpt lat="43.083181" lon="10.8373285"><ele>324.0</ele><time>2026-05-03T08:10:55.757Z</time></trkpt><trkpt lat="43.0833136" lon="10.8373069"><ele>324.0</ele><time>2026-05-03T08:10:56.762Z</time></trkpt><trkpt lat="43.0834511" lon="10.8372968"><ele>323.5</ele><time>2026-05-03T08:10:57.753Z</time></trkpt><trkpt lat="43.0835792" lon="10.8372847"><ele>323.0</ele><time>2026-05-03T08:10:58.764Z</time></trkpt><trkpt lat="43.0837048" lon="10.8372634"><ele>322.5</ele><time>2026-05-03T08:10:59.756Z</time></trkpt><trkpt lat="43.0838316" lon="10.8372597"><ele>322.0</ele><time>2026-05-03T08:11:00.757Z</time></trkpt><trkpt lat="43.0839645" lon="10.8372644"><ele>320.25</ele><time>2026-05-03T08:11:01.767Z</time></trkpt><trkpt lat="43.0841038" lon="10.8372704"><ele>318.5</ele><time>2026-05-03T08:11:02.763Z</time></trkpt><trkpt lat="43.0842499" lon="10.8372928"><ele>316.75</ele><time>2026-05-03T08:11:03.749Z</time></trkpt><trkpt lat="43.0843941" lon="10.837322"><ele>315.0</ele><time>2026-05-03T08:11:04.756Z</time></trkpt><trkpt lat="43.084535" lon="10.8373502"><ele>315.0</ele><time>2026-05-03T08:11:05.762Z</time></trkpt><trkpt lat="43.0846624" lon="10.8373665"><ele>315.0</ele><time>2026-05-03T08:11:06.763Z</time></trkpt><trkpt lat="43.0847844" lon="10.8373748"><ele>315.0</ele><time>2026-05-03T08:11:07.764Z</time></trkpt><trkpt lat="43.0848967" lon="10.837381"><ele>315.0</ele><time>2026-05-03T08:11:08.757Z</time></trkpt><trkpt lat="43.0849963" lon="10.8373767"><ele>313.6</ele><time>2026-05-03T08:11:09.759Z</time></trkpt><trkpt lat="43.0850915" lon="10.8373611"><ele>312.2</ele><time>2026-05-03T08:11:10.76Z</time></trkpt><trkpt lat="43.0851845" lon="10.8373382"><ele>310.8</ele><time>2026-05-03T08:11:11.758Z</time></trkpt><trkpt lat="43.085278" lon="10.8373087"><ele>309.4</ele><time>2026-05-03T08:11:12.761Z</time></trkpt><trkpt lat="43.0853737" lon="10.8372735"><ele>308.0</ele><time>2026-05-03T08:11:13.751Z</time></trkpt><trkpt lat="43.0854774" lon="10.8372414"><ele>308.0</ele><time>2026-05-03T08:11:14.759Z</time></trkpt><trkpt lat="43.0855905" lon="10.837205"><ele>308.0</ele><time>2026-05-03T08:11:15.758Z</time></trkpt><trkpt lat="43.0857127" lon="10.8371686"><ele>308.0</ele><time>2026-05-03T08:11:16.761Z</time></trkpt><trkpt lat="43.085851" lon="10.8371404"><ele>308.0</ele><time>2026-05-03T08:11:17.76Z</time></trkpt><trkpt lat="43.0859862" lon="10.8371119"><ele>306.75</ele><time>2026-05-03T08:11:18.758Z</time></trkpt><trkpt lat="43.0861213" lon="10.8370841"><ele>305.5</ele><time>2026-05-03T08:11:19.76Z</time></trkpt><trkpt lat="43.0862452" lon="10.8370521"><ele>304.25</ele><time>2026-05-03T08:11:20.754Z</time></trkpt><trkpt lat="43.0863613" lon="10.8370262"><ele>303.0</ele><time>2026-05-03T08:11:21.757Z</time></trkpt><trkpt lat="43.0864673" lon="10.8370216"><ele>303.0</ele><time>2026-05-03T08:11:22.752Z</time></trkpt><trkpt lat="43.0865631" lon="10.8370441"><ele>303.0</ele><time>2026-05-03T08:11:23.761Z</time></trkpt><trkpt lat="43.0866481" lon="10.837095"><ele>303.0</ele><time>2026-05-03T08:11:24.761Z</time></trkpt><trkpt lat="43.0867318" lon="10.8371632"><ele>303.0</ele><time>2026-05-03T08:11:25.764Z</time></trkpt><trkpt lat="43.0867943" lon="10.8372447"><ele>303.0</ele><time>2026-05-03T08:11:26.758Z</time></trkpt><trkpt lat="43.0868432" lon="10.8373301"><ele>301.8333333333333</ele><time>2026-05-03T08:11:27.765Z</time></trkpt><trkpt lat="43.0868635" lon="10.8374206"><ele>300.6666666666667</ele><time>2026-05-03T08:11:28.759Z</time></trkpt><trkpt lat="43.0868565" lon="10.8375156"><ele>299.5</ele><time>2026-05-03T08:11:29.764Z</time></trkpt><trkpt lat="43.086816" lon="10.837612"><ele>298.33333333333337</ele><time>2026-05-03T08:11:30.762Z</time></trkpt><trkpt lat="43.0867583" lon="10.8377095"><ele>297.1666666666667</ele><time>2026-05-03T08:11:31.756Z</time></trkpt><trkpt lat="43.0866742" lon="10.8378066"><ele>296.0</ele><time>2026-05-03T08:11:32.759Z</time></trkpt><trkpt lat="43.0865866" lon="10.8379114"><ele>295.2</ele><time>2026-05-03T08:11:33.755Z</time></trkpt><trkpt lat="43.086511" lon="10.8380207"><ele>294.40000000000003</ele><time>2026-05-03T08:11:34.774Z</time></trkpt><trkpt lat="43.0864392" lon="10.8381331"><ele>293.6</ele><time>2026-05-03T08:11:35.756Z</time></trkpt><trkpt lat="43.0863668" lon="10.8382507"><ele>292.8</ele><time>2026-05-03T08:11:36.767Z</time></trkpt><trkpt lat="43.0862936" lon="10.8383621"><ele>292.0</ele><time>2026-05-03T08:11:37.76Z</time></trkpt><trkpt lat="43.0862289" lon="10.8384759"><ele>291.0</ele><time>2026-05-03T08:11:38.755Z</time></trkpt><trkpt lat="43.0861601" lon="10.8385753"><ele>290.0</ele><time>2026-05-03T08:11:39.761Z</time></trkpt><trkpt lat="43.0860976" lon="10.8386698"><ele>289.0</ele><time>2026-05-03T08:11:40.756Z</time></trkpt><trkpt lat="43.0860492" lon="10.8387593"><ele>288.0</ele><time>2026-05-03T08:11:41.759Z</time></trkpt><trkpt lat="43.0860186" lon="10.8388487"><ele>287.0</ele><time>2026-05-03T08:11:42.757Z</time></trkpt><trkpt lat="43.0860342" lon="10.8390187"><ele>287.0</ele><time>2026-05-03T08:11:44.754Z</time></trkpt><trkpt lat="43.0860649" lon="10.8391011"><ele>287.0</ele><time>2026-05-03T08:11:45.773Z</time></trkpt><trkpt lat="43.0860853" lon="10.8392015"><ele>287.0</ele><time>2026-05-03T08:11:46.752Z</time></trkpt><trkpt lat="43.0860919" lon="10.8393097"><ele>287.0</ele><time>2026-05-03T08:11:47.762Z</time></trkpt><trkpt lat="43.0860829" lon="10.8394188"><ele>287.0</ele><time>2026-05-03T08:11:48.749Z</time></trkpt><trkpt lat="43.086065" lon="10.8395234"><ele>287.0</ele><time>2026-05-03T08:11:49.751Z</time></trkpt><trkpt lat="43.0860541" lon="10.8396299"><ele>286.4</ele><time>2026-05-03T08:11:50.748Z</time></trkpt><trkpt lat="43.0860525" lon="10.8397498"><ele>285.79999999999995</ele><time>2026-05-03T08:11:51.766Z</time></trkpt><trkpt lat="43.0860706" lon="10.839872"><ele>285.2</ele><time>2026-05-03T08:11:52.751Z</time></trkpt><trkpt lat="43.0860866" lon="10.8400044"><ele>284.59999999999997</ele><time>2026-05-03T08:11:53.757Z</time></trkpt><trkpt lat="43.0861012" lon="10.840144"><ele>284.0</ele><time>2026-05-03T08:11:54.757Z</time></trkpt><trkpt lat="43.0861091" lon="10.8402852"><ele>282.8</ele><time>2026-05-03T08:11:55.757Z</time></trkpt><trkpt lat="43.0861091" lon="10.8404229"><ele>281.59999999999997</ele><time>2026-05-03T08:11:56.744Z</time></trkpt><trkpt lat="43.0860919" lon="10.8405584"><ele>280.4</ele><time>2026-05-03T08:11:57.753Z</time></trkpt><trkpt lat="43.086071" lon="10.8406989"><ele>279.2</ele><time>2026-05-03T08:11:58.743Z</time></trkpt><trkpt lat="43.0860494" lon="10.8408369"><ele>278.0</ele><time>2026-05-03T08:11:59.772Z</time></trkpt><trkpt lat="43.0860494" lon="10.8409521"><ele>278.0</ele><time>2026-05-03T08:12:00.755Z</time></trkpt><trkpt lat="43.0860727" lon="10.8410381"><ele>278.0</ele><time>2026-05-03T08:12:01.761Z</time></trkpt><trkpt lat="43.0861838" lon="10.8410565"><ele>278.0</ele><time>2026-05-03T08:12:03.745Z</time></trkpt><trkpt lat="43.0862447" lon="10.8410037"><ele>278.0</ele><time>2026-05-03T08:12:04.759Z</time></trkpt><trkpt lat="43.0863299" lon="10.8409276"><ele>278.0</ele><time>2026-05-03T08:12:05.755Z</time></trkpt><trkpt lat="43.086427" lon="10.8408421"><ele>278.0</ele><time>2026-05-03T08:12:06.75Z</time></trkpt><trkpt lat="43.0865253" lon="10.8407675"><ele>278.0</ele><time>2026-05-03T08:12:07.75Z</time></trkpt><trkpt lat="43.0866261" lon="10.8407148"><ele>278.0</ele><time>2026-05-03T08:12:08.748Z</time></trkpt><trkpt lat="43.0867297" lon="10.8406834"><ele>278.0</ele><time>2026-05-03T08:12:09.757Z</time></trkpt><trkpt lat="43.0868312" lon="10.8406469"><ele>278.0</ele><time>2026-05-03T08:12:10.756Z</time></trkpt><trkpt lat="43.0869314" lon="10.8406067"><ele>273.5</ele><time>2026-05-03T08:12:11.755Z</time></trkpt><trkpt lat="43.0870435" lon="10.8405819"><ele>269.0</ele><time>2026-05-03T08:12:12.757Z</time></trkpt><trkpt lat="43.087167" lon="10.8405783"><ele>264.5</ele><time>2026-05-03T08:12:13.764Z</time></trkpt><trkpt lat="43.0872809" lon="10.840585"><ele>260.0</ele><time>2026-05-03T08:12:14.751Z</time></trkpt><trkpt lat="43.0873824" lon="10.8406212"><ele>258.1666666666667</ele><time>2026-05-03T08:12:15.767Z</time></trkpt><trkpt lat="43.0874663" lon="10.8406732"><ele>256.33333333333337</ele><time>2026-05-03T08:12:16.749Z</time></trkpt><trkpt lat="43.087528" lon="10.8407376"><ele>254.5</ele><time>2026-05-03T08:12:17.765Z</time></trkpt><trkpt lat="43.0875651" lon="10.8408264"><ele>252.66666666666669</ele><time>2026-05-03T08:12:18.753Z</time></trkpt><trkpt lat="43.087577" lon="10.8409273"><ele>250.83333333333334</ele><time>2026-05-03T08:12:19.758Z</time></trkpt><trkpt lat="43.0875582" lon="10.8410275"><ele>249.0</ele><time>2026-05-03T08:12:20.755Z</time></trkpt><trkpt lat="43.0875233" lon="10.8411259"><ele>248.0</ele><time>2026-05-03T08:12:21.754Z</time></trkpt><trkpt lat="43.0874817" lon="10.841236"><ele>246.99999999999997</ele><time>2026-05-03T08:12:22.756Z</time></trkpt><trkpt lat="43.0874548" lon="10.8413711"><ele>245.99999999999997</ele><time>2026-05-03T08:12:23.762Z</time></trkpt><trkpt lat="43.0874569" lon="10.8415161"><ele>245.0</ele><time>2026-05-03T08:12:24.754Z</time></trkpt><trkpt lat="43.0874697" lon="10.8416752"><ele>244.0</ele><time>2026-05-03T08:12:25.754Z</time></trkpt><trkpt lat="43.0874956" lon="10.8418181"><ele>241.83333333333331</ele><time>2026-05-03T08:12:26.761Z</time></trkpt><trkpt lat="43.087542" lon="10.8419492"><ele>239.66666666666666</ele><time>2026-05-03T08:12:27.762Z</time></trkpt><trkpt lat="43.0875936" lon="10.842045"><ele>237.5</ele><time>2026-05-03T08:12:28.763Z</time></trkpt><trkpt lat="43.0876546" lon="10.8421007"><ele>235.33333333333331</ele><time>2026-05-03T08:12:29.759Z</time></trkpt><trkpt lat="43.0877358" lon="10.8421246"><ele>233.16666666666666</ele><time>2026-05-03T08:12:30.756Z</time></trkpt><trkpt lat="43.0878253" lon="10.8421285"><ele>231.0</ele><time>2026-05-03T08:12:31.76Z</time></trkpt><trkpt lat="43.0879225" lon="10.8421232"><ele>231.0</ele><time>2026-05-03T08:12:32.762Z</time></trkpt><trkpt lat="43.0880185" lon="10.8421046"><ele>231.0</ele><time>2026-05-03T08:12:33.746Z</time></trkpt><trkpt lat="43.0881173" lon="10.8420982"><ele>231.0</ele><time>2026-05-03T08:12:34.769Z</time></trkpt><trkpt lat="43.0882066" lon="10.8421109"><ele>231.0</ele><time>2026-05-03T08:12:35.749Z</time></trkpt><trkpt lat="43.0882853" lon="10.8420934"><ele>231.0</ele><time>2026-05-03T08:12:36.754Z</time></trkpt><trkpt lat="43.0883477" lon="10.8420335"><ele>231.0</ele><time>2026-05-03T08:12:37.753Z</time></trkpt><trkpt lat="43.0884133" lon="10.841949"><ele>231.0</ele><time>2026-05-03T08:12:38.752Z</time></trkpt><trkpt lat="43.0884805" lon="10.8418586"><ele>231.00000000000003</ele><time>2026-05-03T08:12:39.759Z</time></trkpt><trkpt lat="43.0885463" lon="10.841754"><ele>231.00000000000003</ele><time>2026-05-03T08:12:40.753Z</time></trkpt><trkpt lat="43.0886026" lon="10.8416417"><ele>231.0</ele><time>2026-05-03T08:12:41.753Z</time></trkpt><trkpt lat="43.0886525" lon="10.841532"><ele>231.0</ele><time>2026-05-03T08:12:42.755Z</time></trkpt><trkpt lat="43.0886844" lon="10.84144"><ele>231.0</ele><time>2026-05-03T08:12:43.769Z</time></trkpt><trkpt lat="43.0887238" lon="10.841307"><ele>231.00000000000003</ele><time>2026-05-03T08:12:45.765Z</time></trkpt><trkpt lat="43.0888117" lon="10.8412903"><ele>231.00000000000003</ele><time>2026-05-03T08:12:47.769Z</time></trkpt><trkpt lat="43.0888647" lon="10.8414453"><ele>231.0</ele><time>2026-05-03T08:12:49.741Z</time></trkpt><trkpt lat="43.0888833" lon="10.8415592"><ele>231.0</ele><time>2026-05-03T08:12:50.746Z</time></trkpt><trkpt lat="43.0888828" lon="10.8416839"><ele>229.83333333333334</ele><time>2026-05-03T08:12:51.753Z</time></trkpt><trkpt lat="43.0888765" lon="10.8418129"><ele>228.66666666666669</ele><time>2026-05-03T08:12:52.757Z</time></trkpt><trkpt lat="43.0888807" lon="10.8419365"><ele>227.5</ele><time>2026-05-03T08:12:53.752Z</time></trkpt><trkpt lat="43.0888983" lon="10.8420438"><ele>226.33333333333334</ele><time>2026-05-03T08:12:54.736Z</time></trkpt><trkpt lat="43.0889419" lon="10.8421341"><ele>225.16666666666669</ele><time>2026-05-03T08:12:55.758Z</time></trkpt><trkpt lat="43.0890037" lon="10.8422142"><ele>224.0</ele><time>2026-05-03T08:12:56.761Z</time></trkpt><trkpt lat="43.0890848" lon="10.842265"><ele>221.00000000000003</ele><time>2026-05-03T08:12:57.77Z</time></trkpt><trkpt lat="43.0891787" lon="10.8423088"><ele>218.0</ele><time>2026-05-03T08:12:58.746Z</time></trkpt><trkpt lat="43.0892716" lon="10.8423589"><ele>215.0</ele><time>2026-05-03T08:12:59.763Z</time></trkpt><trkpt lat="43.0893432" lon="10.8424146"><ele>212.0</ele><time>2026-05-03T08:13:00.761Z</time></trkpt><trkpt lat="43.0893862" lon="10.8424892"><ele>209.00000000000003</ele><time>2026-05-03T08:13:01.761Z</time></trkpt><trkpt lat="43.0893914" lon="10.8425811"><ele>206.0</ele><time>2026-05-03T08:13:02.751Z</time></trkpt><trkpt lat="43.0893633" lon="10.8426719"><ele>203.8</ele><time>2026-05-03T08:13:03.758Z</time></trkpt><trkpt lat="43.0893078" lon="10.842759"><ele>201.60000000000002</ele><time>2026-05-03T08:13:04.75Z</time></trkpt><trkpt lat="43.089257" lon="10.8428537"><ele>199.4</ele><time>2026-05-03T08:13:05.756Z</time></trkpt><trkpt lat="43.0892079" lon="10.8429517"><ele>197.2</ele><time>2026-05-03T08:13:06.753Z</time></trkpt><trkpt lat="43.0891705" lon="10.8430848"><ele>195.0</ele><time>2026-05-03T08:13:07.756Z</time></trkpt><trkpt lat="43.0891496" lon="10.8432352"><ele>195.0</ele><time>2026-05-03T08:13:08.752Z</time></trkpt><trkpt lat="43.0891312" lon="10.8433848"><ele>195.0</ele><time>2026-05-03T08:13:09.762Z</time></trkpt><trkpt lat="43.0890976" lon="10.8435214"><ele>195.0</ele><time>2026-05-03T08:13:10.75Z</time></trkpt><trkpt lat="43.0890472" lon="10.8436404"><ele>195.0</ele><time>2026-05-03T08:13:11.755Z</time></trkpt><trkpt lat="43.088999" lon="10.8437617"><ele>195.0</ele><time>2026-05-03T08:13:12.745Z</time></trkpt><trkpt lat="43.088961" lon="10.8438705"><ele>195.66666666666666</ele><time>2026-05-03T08:13:13.756Z</time></trkpt><trkpt lat="43.0889334" lon="10.8439828"><ele>196.33333333333331</ele><time>2026-05-03T08:13:14.762Z</time></trkpt><trkpt lat="43.0889437" lon="10.8440809"><ele>197.0</ele><time>2026-05-03T08:13:15.751Z</time></trkpt><trkpt lat="43.0889802" lon="10.8441596"><ele>197.66666666666666</ele><time>2026-05-03T08:13:16.752Z</time></trkpt><trkpt lat="43.0890787" lon="10.8441863"><ele>198.33333333333331</ele><time>2026-05-03T08:13:18.748Z</time></trkpt><trkpt lat="43.0891487" lon="10.8441494"><ele>199.0</ele><time>2026-05-03T08:13:19.744Z</time></trkpt><trkpt lat="43.0892271" lon="10.8440881"><ele>196.5</ele><time>2026-05-03T08:13:20.754Z</time></trkpt><trkpt lat="43.0893297" lon="10.844011"><ele>194.0</ele><time>2026-05-03T08:13:21.748Z</time></trkpt><trkpt lat="43.0894375" lon="10.8439312"><ele>191.5</ele><time>2026-05-03T08:13:22.746Z</time></trkpt><trkpt lat="43.0895461" lon="10.8438499"><ele>189.0</ele><time>2026-05-03T08:13:23.766Z</time></trkpt><trkpt lat="43.0896459" lon="10.8437647"><ele>189.0</ele><time>2026-05-03T08:13:24.749Z</time></trkpt><trkpt lat="43.0897525" lon="10.8436792"><ele>189.0</ele><time>2026-05-03T08:13:25.757Z</time></trkpt><trkpt lat="43.0898608" lon="10.8435796"><ele>189.0</ele><time>2026-05-03T08:13:26.746Z</time></trkpt><trkpt lat="43.0899656" lon="10.8434688"><ele>189.0</ele><time>2026-05-03T08:13:27.756Z</time></trkpt><trkpt lat="43.0900694" lon="10.8433521"><ele>187.5</ele><time>2026-05-03T08:13:28.758Z</time></trkpt><trkpt lat="43.0901747" lon="10.8432318"><ele>186.0</ele><time>2026-05-03T08:13:29.745Z</time></trkpt><trkpt lat="43.0902831" lon="10.8431097"><ele>184.5</ele><time>2026-05-03T08:13:30.749Z</time></trkpt><trkpt lat="43.0903917" lon="10.842996"><ele>183.0</ele><time>2026-05-03T08:13:31.76Z</time></trkpt><trkpt lat="43.0904888" lon="10.8428927"><ele>183.0</ele><time>2026-05-03T08:13:32.736Z</time></trkpt><trkpt lat="43.0905682" lon="10.8427962"><ele>183.0</ele><time>2026-05-03T08:13:33.754Z</time></trkpt><trkpt lat="43.0906398" lon="10.8427046"><ele>183.0</ele><time>2026-05-03T08:13:34.745Z</time></trkpt><trkpt lat="43.0906991" lon="10.8426108"><ele>183.0</ele><time>2026-05-03T08:13:35.756Z</time></trkpt><trkpt lat="43.090764" lon="10.8425274"><ele>183.0</ele><time>2026-05-03T08:13:36.753Z</time></trkpt><trkpt lat="43.0908345" lon="10.8424426"><ele>181.83333333333334</ele><time>2026-05-03T08:13:37.757Z</time></trkpt><trkpt lat="43.090907" lon="10.8423564"><ele>180.66666666666666</ele><time>2026-05-03T08:13:38.754Z</time></trkpt><trkpt lat="43.0909832" lon="10.8422771"><ele>179.5</ele><time>2026-05-03T08:13:39.761Z</time></trkpt><trkpt lat="43.0910498" lon="10.8421965"><ele>178.33333333333331</ele><time>2026-05-03T08:13:40.744Z</time></trkpt><trkpt lat="43.0911087" lon="10.8421201"><ele>177.16666666666666</ele><time>2026-05-03T08:13:41.758Z</time></trkpt><trkpt lat="43.0911685" lon="10.8420519"><ele>176.0</ele><time>2026-05-03T08:13:42.764Z</time></trkpt><trkpt lat="43.0912223" lon="10.8419824"><ele>176.0</ele><time>2026-05-03T08:13:43.749Z</time></trkpt><trkpt lat="43.0912742" lon="10.841915"><ele>176.0</ele><time>2026-05-03T08:13:44.765Z</time></trkpt><trkpt lat="43.0913517" lon="10.8418001"><ele>176.0</ele><time>2026-05-03T08:13:46.754Z</time></trkpt><trkpt lat="43.0913942" lon="10.8417183"><ele>176.0</ele><time>2026-05-03T08:13:48.747Z</time></trkpt><trkpt lat="43.0914515" lon="10.8416488"><ele>176.0</ele><time>2026-05-03T08:15:56.761Z</time></trkpt><trkpt lat="43.0915028" lon="10.8415899"><ele>176.0</ele><time>2026-05-03T08:16:01.757Z</time></trkpt><trkpt lat="43.0915823" lon="10.8415131"><ele>175.33333333333331</ele><time>2026-05-03T08:16:04.749Z</time></trkpt><trkpt lat="43.0916444" lon="10.8414846"><ele>174.66666666666666</ele><time>2026-05-03T08:16:05.767Z</time></trkpt><trkpt lat="43.0917568" lon="10.8414006"><ele>174.0</ele><time>2026-05-03T08:16:07.753Z</time></trkpt><trkpt lat="43.0918317" lon="10.8413491"><ele>173.33333333333334</ele><time>2026-05-03T08:16:08.747Z</time></trkpt><trkpt lat="43.0919023" lon="10.841289"><ele>172.66666666666669</ele><time>2026-05-03T08:16:09.773Z</time></trkpt><trkpt lat="43.0919577" lon="10.8412179"><ele>172.0</ele><time>2026-05-03T08:16:10.758Z</time></trkpt><trkpt lat="43.092018" lon="10.8411365"><ele>172.0</ele><time>2026-05-03T08:16:11.757Z</time></trkpt><trkpt lat="43.092076" lon="10.8410634"><ele>172.0</ele><time>2026-05-03T08:16:12.759Z</time></trkpt><trkpt lat="43.09213" lon="10.8409999"><ele>172.0</ele><time>2026-05-03T08:16:13.762Z</time></trkpt><trkpt lat="43.0922143" lon="10.8408584"><ele>172.0</ele><time>2026-05-03T08:16:15.749Z</time></trkpt><trkpt lat="43.0922528" lon="10.8407729"><ele>172.0</ele><time>2026-05-03T08:16:16.757Z</time></trkpt><trkpt lat="43.0923044" lon="10.8406931"><ele>172.0</ele><time>2026-05-03T08:16:17.757Z</time></trkpt><trkpt lat="43.0923429" lon="10.8406153"><ele>171.0</ele><time>2026-05-03T08:16:18.752Z</time></trkpt><trkpt lat="43.0923756" lon="10.84054"><ele>170.0</ele><time>2026-05-03T08:16:19.757Z</time></trkpt><trkpt lat="43.0924549" lon="10.8404472"><ele>169.0</ele><time>2026-05-03T08:16:21.76Z</time></trkpt><trkpt lat="43.092534" lon="10.8404362"><ele>168.0</ele><time>2026-05-03T08:16:23.774Z</time></trkpt><trkpt lat="43.092618" lon="10.8404976"><ele>167.0</ele><time>2026-05-03T08:16:25.752Z</time></trkpt><trkpt lat="43.0927017" lon="10.8406185"><ele>167.0</ele><time>2026-05-03T08:16:27.753Z</time></trkpt><trkpt lat="43.0927504" lon="10.8407536"><ele>167.0</ele><time>2026-05-03T08:16:29.752Z</time></trkpt><trkpt lat="43.0928222" lon="10.8408237"><ele>167.0</ele><time>2026-05-03T08:16:31.758Z</time></trkpt><trkpt lat="43.092903" lon="10.8407853"><ele>167.0</ele><time>2026-05-03T08:16:33.768Z</time></trkpt><trkpt lat="43.0929784" lon="10.8407043"><ele>167.0</ele><time>2026-05-03T08:16:35.76Z</time></trkpt><trkpt lat="43.0930625" lon="10.840587"><ele>167.0</ele><time>2026-05-03T08:16:37.761Z</time></trkpt><trkpt lat="43.0931016" lon="10.8405029"><ele>167.0</ele><time>2026-05-03T08:16:38.745Z</time></trkpt><trkpt lat="43.0931366" lon="10.8404179"><ele>167.0</ele><time>2026-05-03T08:16:39.75Z</time></trkpt><trkpt lat="43.0931641" lon="10.8403212"><ele>167.0</ele><time>2026-05-03T08:16:40.759Z</time></trkpt><trkpt lat="43.093191" lon="10.840229"><ele>167.0</ele><time>2026-05-03T08:16:41.749Z</time></trkpt><trkpt lat="43.0932224" lon="10.8401373"><ele>167.0</ele><time>2026-05-03T08:16:42.743Z</time></trkpt><trkpt lat="43.0932596" lon="10.840048"><ele>167.0</ele><time>2026-05-03T08:16:43.758Z</time></trkpt><trkpt lat="43.0932966" lon="10.8399732"><ele>168.0</ele><time>2026-05-03T08:16:44.752Z</time></trkpt><trkpt lat="43.0933568" lon="10.8398574"><ele>169.0</ele><time>2026-05-03T08:16:46.75Z</time></trkpt><trkpt lat="43.0934069" lon="10.839784"><ele>170.0</ele><time>2026-05-03T08:16:48.75Z</time></trkpt><trkpt lat="43.0934656" lon="10.8397279"><ele>171.0</ele><time>2026-05-03T08:16:50.75Z</time></trkpt><trkpt lat="43.0935621" lon="10.8397132"><ele>172.0</ele><time>2026-05-03T08:16:52.751Z</time></trkpt><trkpt lat="43.0936796" lon="10.8397266"><ele>172.0</ele><time>2026-05-03T08:16:54.759Z</time></trkpt><trkpt lat="43.0937493" lon="10.8397334"><ele>172.0</ele><time>2026-05-03T08:16:55.752Z</time></trkpt><trkpt lat="43.0938219" lon="10.8397344"><ele>172.0</ele><time>2026-05-03T08:16:56.763Z</time></trkpt><trkpt lat="43.0938989" lon="10.8397447"><ele>172.0</ele><time>2026-05-03T08:16:57.759Z</time></trkpt><trkpt lat="43.0939979" lon="10.8397435"><ele>172.0</ele><time>2026-05-03T08:16:58.758Z</time></trkpt><trkpt lat="43.0940897" lon="10.8397397"><ele>172.0</ele><time>2026-05-03T08:16:59.75Z</time></trkpt><trkpt lat="43.0941857" lon="10.8397523"><ele>174.0</ele><time>2026-05-03T08:17:00.752Z</time></trkpt><trkpt lat="43.0942755" lon="10.8397756"><ele>176.0</ele><time>2026-05-03T08:17:01.758Z</time></trkpt><trkpt lat="43.0943607" lon="10.839806"><ele>178.0</ele><time>2026-05-03T08:17:02.75Z</time></trkpt><trkpt lat="43.0944485" lon="10.8398322"><ele>180.0</ele><time>2026-05-03T08:17:03.754Z</time></trkpt><trkpt lat="43.0945385" lon="10.8398664"><ele>182.0</ele><time>2026-05-03T08:17:04.742Z</time></trkpt><trkpt lat="43.0946352" lon="10.8399073"><ele>182.0</ele><time>2026-05-03T08:17:05.753Z</time></trkpt><trkpt lat="43.0947284" lon="10.8399524"><ele>182.0</ele><time>2026-05-03T08:17:06.749Z</time></trkpt><trkpt lat="43.0948225" lon="10.839991"><ele>182.0</ele><time>2026-05-03T08:17:07.749Z</time></trkpt><trkpt lat="43.0949245" lon="10.8400123"><ele>182.0</ele><time>2026-05-03T08:17:08.749Z</time></trkpt><trkpt lat="43.0950274" lon="10.8400127"><ele>182.0</ele><time>2026-05-03T08:17:09.742Z</time></trkpt><trkpt lat="43.0951219" lon="10.8399949"><ele>183.33333333333331</ele><time>2026-05-03T08:17:10.75Z</time></trkpt><trkpt lat="43.0951965" lon="10.8399707"><ele>184.66666666666666</ele><time>2026-05-03T08:17:11.748Z</time></trkpt><trkpt lat="43.0952509" lon="10.8399205"><ele>186.0</ele><time>2026-05-03T08:17:12.744Z</time></trkpt><trkpt lat="43.0952743" lon="10.8398158"><ele>187.33333333333334</ele><time>2026-05-03T08:17:14.757Z</time></trkpt><trkpt lat="43.0952259" lon="10.8397462"><ele>188.66666666666669</ele><time>2026-05-03T08:17:16.76Z</time></trkpt><trkpt lat="43.0951474" lon="10.8396783"><ele>190.0</ele><time>2026-05-03T08:17:18.759Z</time></trkpt><trkpt lat="43.0950932" lon="10.8396234"><ele>190.0</ele><time>2026-05-03T08:17:19.76Z</time></trkpt><trkpt lat="43.0950374" lon="10.8395597"><ele>190.0</ele><time>2026-05-03T08:17:20.755Z</time></trkpt><trkpt lat="43.0949958" lon="10.8394773"><ele>190.0</ele><time>2026-05-03T08:17:21.749Z</time></trkpt><trkpt lat="43.0949667" lon="10.8393893"><ele>190.0</ele><time>2026-05-03T08:17:22.752Z</time></trkpt><trkpt lat="43.0949514" lon="10.839287"><ele>190.0</ele><time>2026-05-03T08:17:23.75Z</time></trkpt><trkpt lat="43.0949452" lon="10.8391661"><ele>190.0</ele><time>2026-05-03T08:17:24.754Z</time></trkpt><trkpt lat="43.0949241" lon="10.8390453"><ele>189.4</ele><time>2026-05-03T08:17:25.757Z</time></trkpt><trkpt lat="43.0949059" lon="10.8389229"><ele>188.8</ele><time>2026-05-03T08:17:26.754Z</time></trkpt><trkpt lat="43.0948956" lon="10.8388013"><ele>188.2</ele><time>2026-05-03T08:17:27.751Z</time></trkpt><trkpt lat="43.0948965" lon="10.8386784"><ele>187.6</ele><time>2026-05-03T08:17:28.755Z</time></trkpt><trkpt lat="43.0949138" lon="10.8385551"><ele>187.0</ele><time>2026-05-03T08:17:29.748Z</time></trkpt><trkpt lat="43.0949377" lon="10.8384211"><ele>192.39999999999998</ele><time>2026-05-03T08:17:30.758Z</time></trkpt><trkpt lat="43.0949605" lon="10.8382833"><ele>197.79999999999998</ele><time>2026-05-03T08:17:31.76Z</time></trkpt><trkpt lat="43.094978" lon="10.8381379"><ele>203.2</ele><time>2026-05-03T08:17:32.741Z</time></trkpt><trkpt lat="43.0950038" lon="10.837998"><ele>208.6</ele><time>2026-05-03T08:17:33.744Z</time></trkpt><trkpt lat="43.0950412" lon="10.8378593"><ele>214.0</ele><time>2026-05-03T08:17:34.749Z</time></trkpt><trkpt lat="43.0950819" lon="10.8377296"><ele>215.2</ele><time>2026-05-03T08:17:35.757Z</time></trkpt><trkpt lat="43.0951331" lon="10.8376158"><ele>216.39999999999998</ele><time>2026-05-03T08:17:36.75Z</time></trkpt><trkpt lat="43.0951921" lon="10.8375013"><ele>217.6</ele><time>2026-05-03T08:17:37.755Z</time></trkpt><trkpt lat="43.0952427" lon="10.8373909"><ele>218.8</ele><time>2026-05-03T08:17:38.745Z</time></trkpt><trkpt lat="43.0953031" lon="10.8372986"><ele>220.0</ele><time>2026-05-03T08:17:39.748Z</time></trkpt><trkpt lat="43.0953731" lon="10.8372286"><ele>219.99999999999997</ele><time>2026-05-03T08:17:40.758Z</time></trkpt><trkpt lat="43.0954521" lon="10.8371811"><ele>220.0</ele><time>2026-05-03T08:17:41.76Z</time></trkpt><trkpt lat="43.0955325" lon="10.8371343"><ele>220.0</ele><time>2026-05-03T08:17:42.753Z</time></trkpt><trkpt lat="43.0956014" lon="10.8371019"><ele>220.0</ele><time>2026-05-03T08:17:43.766Z</time></trkpt><trkpt lat="43.0956709" lon="10.8370538"><ele>219.99999999999997</ele><time>2026-05-03T08:17:44.755Z</time></trkpt><trkpt lat="43.0957374" lon="10.8370025"><ele>220.0</ele><time>2026-05-03T08:17:45.762Z</time></trkpt><trkpt lat="43.0958018" lon="10.8369486"><ele>223.2</ele><time>2026-05-03T08:17:46.749Z</time></trkpt><trkpt lat="43.0958746" lon="10.8368862"><ele>226.4</ele><time>2026-05-03T08:17:47.763Z</time></trkpt><trkpt lat="43.095946" lon="10.8368137"><ele>229.60000000000002</ele><time>2026-05-03T08:17:48.756Z</time></trkpt><trkpt lat="43.0960177" lon="10.8367274"><ele>232.8</ele><time>2026-05-03T08:17:49.746Z</time></trkpt><trkpt lat="43.0960864" lon="10.8366439"><ele>236.0</ele><time>2026-05-03T08:17:50.761Z</time></trkpt><trkpt lat="43.096161" lon="10.8365595"><ele>236.0</ele><time>2026-05-03T08:17:51.769Z</time></trkpt><trkpt lat="43.096239" lon="10.8364778"><ele>236.00000000000003</ele><time>2026-05-03T08:17:52.747Z</time></trkpt><trkpt lat="43.0963141" lon="10.8364056"><ele>236.00000000000003</ele><time>2026-05-03T08:17:53.743Z</time></trkpt><trkpt lat="43.0963786" lon="10.8363486"><ele>236.0</ele><time>2026-05-03T08:17:54.748Z</time></trkpt><trkpt lat="43.0964859" lon="10.8363325"><ele>236.0</ele><time>2026-05-03T08:17:56.748Z</time></trkpt><trkpt lat="43.0965509" lon="10.8364114"><ele>236.00000000000003</ele><time>2026-05-03T08:17:58.741Z</time></trkpt><trkpt lat="43.0965836" lon="10.8365649"><ele>236.0</ele><time>2026-05-03T08:18:00.758Z</time></trkpt><trkpt lat="43.0965979" lon="10.8366518"><ele>236.0</ele><time>2026-05-03T08:18:01.747Z</time></trkpt><trkpt lat="43.0966223" lon="10.8367314"><ele>236.0</ele><time>2026-05-03T08:18:02.765Z</time></trkpt><trkpt lat="43.0966989" lon="10.8368348"><ele>236.00000000000003</ele><time>2026-05-03T08:18:04.748Z</time></trkpt><trkpt lat="43.0967856" lon="10.8368212"><ele>236.0</ele><time>2026-05-03T08:18:06.743Z</time></trkpt><trkpt lat="43.0968486" lon="10.8368003"><ele>239.16666666666669</ele><time>2026-05-03T08:18:07.754Z</time></trkpt><trkpt lat="43.0969198" lon="10.8367573"><ele>242.33333333333334</ele><time>2026-05-03T08:18:08.751Z</time></trkpt><trkpt lat="43.0969928" lon="10.8367047"><ele>245.5</ele><time>2026-05-03T08:18:09.751Z</time></trkpt><trkpt lat="43.0970718" lon="10.8366398"><ele>248.66666666666669</ele><time>2026-05-03T08:18:10.749Z</time></trkpt><trkpt lat="43.0971537" lon="10.8365685"><ele>251.83333333333334</ele><time>2026-05-03T08:18:11.759Z</time></trkpt><trkpt lat="43.0972275" lon="10.8364853"><ele>255.0</ele><time>2026-05-03T08:18:12.754Z</time></trkpt><trkpt lat="43.0972912" lon="10.8363888"><ele>255.0</ele><time>2026-05-03T08:18:13.764Z</time></trkpt><trkpt lat="43.0973559" lon="10.8362811"><ele>255.0</ele><time>2026-05-03T08:18:14.751Z</time></trkpt><trkpt lat="43.097419" lon="10.8361744"><ele>255.0</ele><time>2026-05-03T08:18:15.754Z</time></trkpt><trkpt lat="43.0974897" lon="10.8360694"><ele>255.0</ele><time>2026-05-03T08:18:16.753Z</time></trkpt><trkpt lat="43.0975465" lon="10.8359917"><ele>255.0</ele><time>2026-05-03T08:18:17.759Z</time></trkpt><trkpt lat="43.0976359" lon="10.8359145"><ele>256.0</ele><time>2026-05-03T08:18:19.759Z</time></trkpt><trkpt lat="43.0977206" lon="10.8359625"><ele>257.0</ele><time>2026-05-03T08:18:21.756Z</time></trkpt><trkpt lat="43.0977623" lon="10.8361162"><ele>258.0</ele><time>2026-05-03T08:18:23.76Z</time></trkpt><trkpt lat="43.097787" lon="10.8362304"><ele>259.0</ele><time>2026-05-03T08:18:24.76Z</time></trkpt><trkpt lat="43.0978085" lon="10.8363512"><ele>260.0</ele><time>2026-05-03T08:18:25.768Z</time></trkpt><trkpt lat="43.0978331" lon="10.836483"><ele>260.5</ele><time>2026-05-03T08:18:26.757Z</time></trkpt><trkpt lat="43.0978549" lon="10.8366017"><ele>261.0</ele><time>2026-05-03T08:18:27.748Z</time></trkpt><trkpt lat="43.0978787" lon="10.8367043"><ele>261.5</ele><time>2026-05-03T08:18:28.758Z</time></trkpt><trkpt lat="43.0979121" lon="10.8367839"><ele>262.0</ele><time>2026-05-03T08:18:29.767Z</time></trkpt><trkpt lat="43.0979581" lon="10.8368738"><ele>262.5</ele><time>2026-05-03T08:18:30.755Z</time></trkpt><trkpt lat="43.0980134" lon="10.8369413"><ele>263.0</ele><time>2026-05-03T08:18:31.758Z</time></trkpt><trkpt lat="43.0980748" lon="10.8369892"><ele>262.1666666666667</ele><time>2026-05-03T08:18:32.752Z</time></trkpt><trkpt lat="43.0981407" lon="10.8370334"><ele>261.33333333333337</ele><time>2026-05-03T08:18:33.764Z</time></trkpt><trkpt lat="43.0982103" lon="10.8370753"><ele>260.5</ele><time>2026-05-03T08:18:34.764Z</time></trkpt><trkpt lat="43.0982811" lon="10.8371285"><ele>259.6666666666667</ele><time>2026-05-03T08:18:35.763Z</time></trkpt><trkpt lat="43.0983598" lon="10.8371762"><ele>258.8333333333333</ele><time>2026-05-03T08:18:36.759Z</time></trkpt><trkpt lat="43.0984385" lon="10.8372256"><ele>258.0</ele><time>2026-05-03T08:18:37.77Z</time></trkpt><trkpt lat="43.0985176" lon="10.8372741"><ele>258.0</ele><time>2026-05-03T08:18:38.77Z</time></trkpt><trkpt lat="43.0985996" lon="10.8373188"><ele>258.0</ele><time>2026-05-03T08:18:39.769Z</time></trkpt><trkpt lat="43.0986816" lon="10.8373694"><ele>258.0</ele><time>2026-05-03T08:18:40.765Z</time></trkpt><trkpt lat="43.0987658" lon="10.8374208"><ele>258.0</ele><time>2026-05-03T08:18:41.769Z</time></trkpt><trkpt lat="43.0988545" lon="10.8374706"><ele>258.0</ele><time>2026-05-03T08:18:42.766Z</time></trkpt><trkpt lat="43.0989452" lon="10.8375167"><ele>258.0</ele><time>2026-05-03T08:18:43.762Z</time></trkpt><trkpt lat="43.0990328" lon="10.8375601"><ele>258.0</ele><time>2026-05-03T08:18:44.764Z</time></trkpt><trkpt lat="43.0991187" lon="10.8376061"><ele>258.0</ele><time>2026-05-03T08:18:45.766Z</time></trkpt><trkpt lat="43.0992023" lon="10.8376485"><ele>258.0</ele><time>2026-05-03T08:18:46.759Z</time></trkpt><trkpt lat="43.0992878" lon="10.8376912"><ele>258.0</ele><time>2026-05-03T08:18:47.779Z</time></trkpt><trkpt lat="43.0993753" lon="10.8377399"><ele>258.1666666666667</ele><time>2026-05-03T08:18:48.76Z</time></trkpt><trkpt lat="43.0994608" lon="10.8377972"><ele>258.3333333333333</ele><time>2026-05-03T08:18:49.761Z</time></trkpt><trkpt lat="43.0995389" lon="10.837858"><ele>258.5</ele><time>2026-05-03T08:18:50.768Z</time></trkpt><trkpt lat="43.099615" lon="10.8379217"><ele>258.66666666666663</ele><time>2026-05-03T08:18:51.763Z</time></trkpt><trkpt lat="43.0996785" lon="10.8379721"><ele>258.8333333333333</ele><time>2026-05-03T08:18:52.76Z</time></trkpt><trkpt lat="43.0997413" lon="10.838026"><ele>259.0</ele><time>2026-05-03T08:18:53.764Z</time></trkpt><trkpt lat="43.0998041" lon="10.8380793"><ele>259.0</ele><time>2026-05-03T08:18:54.754Z</time></trkpt><trkpt lat="43.0998742" lon="10.8381414"><ele>259.0</ele><time>2026-05-03T08:18:55.755Z</time></trkpt><trkpt lat="43.0999518" lon="10.8382126"><ele>259.0</ele><time>2026-05-03T08:18:56.752Z</time></trkpt><trkpt lat="43.1000347" lon="10.8382921"><ele>259.0</ele><time>2026-05-03T08:18:57.76Z</time></trkpt><trkpt lat="43.1001178" lon="10.8383842"><ele>259.0</ele><time>2026-05-03T08:18:58.76Z</time></trkpt><trkpt lat="43.1002019" lon="10.8384817"><ele>259.4</ele><time>2026-05-03T08:18:59.766Z</time></trkpt><trkpt lat="43.1002856" lon="10.8385714"><ele>259.79999999999995</ele><time>2026-05-03T08:19:00.758Z</time></trkpt><trkpt lat="43.1003713" lon="10.8386418"><ele>260.20000000000005</ele><time>2026-05-03T08:19:01.754Z</time></trkpt><trkpt lat="43.100467" lon="10.838697"><ele>260.6</ele><time>2026-05-03T08:19:02.746Z</time></trkpt><trkpt lat="43.1005663" lon="10.8387332"><ele>261.0</ele><time>2026-05-03T08:19:03.77Z</time></trkpt><trkpt lat="43.1006674" lon="10.838756"><ele>263.40000000000003</ele><time>2026-05-03T08:19:04.766Z</time></trkpt><trkpt lat="43.1007677" lon="10.838794"><ele>265.8</ele><time>2026-05-03T08:19:05.747Z</time></trkpt><trkpt lat="43.1008579" lon="10.8388527"><ele>268.20000000000005</ele><time>2026-05-03T08:19:06.76Z</time></trkpt><trkpt lat="43.1009392" lon="10.8389302"><ele>270.6</ele><time>2026-05-03T08:19:07.757Z</time></trkpt><trkpt lat="43.1010112" lon="10.8390255"><ele>273.0</ele><time>2026-05-03T08:19:08.757Z</time></trkpt><trkpt lat="43.1010857" lon="10.8391339"><ele>273.0</ele><time>2026-05-03T08:19:09.752Z</time></trkpt><trkpt lat="43.1011701" lon="10.8392467"><ele>273.0</ele><time>2026-05-03T08:19:10.758Z</time></trkpt><trkpt lat="43.1012581" lon="10.8393588"><ele>273.0</ele><time>2026-05-03T08:19:11.752Z</time></trkpt><trkpt lat="43.1013475" lon="10.8394637"><ele>273.0</ele><time>2026-05-03T08:19:12.754Z</time></trkpt><trkpt lat="43.1014324" lon="10.839575"><ele>271.4</ele><time>2026-05-03T08:19:13.749Z</time></trkpt><trkpt lat="43.1015077" lon="10.8396888"><ele>269.8</ele><time>2026-05-03T08:19:14.755Z</time></trkpt><trkpt lat="43.1015768" lon="10.8398038"><ele>268.2</ele><time>2026-05-03T08:19:15.768Z</time></trkpt><trkpt lat="43.1016507" lon="10.8399114"><ele>266.6</ele><time>2026-05-03T08:19:16.759Z</time></trkpt><trkpt lat="43.1017279" lon="10.8400059"><ele>265.0</ele><time>2026-05-03T08:19:17.779Z</time></trkpt><trkpt lat="43.1018135" lon="10.8400916"><ele>263.6</ele><time>2026-05-03T08:19:18.761Z</time></trkpt><trkpt lat="43.1018971" lon="10.8401863"><ele>262.2</ele><time>2026-05-03T08:19:19.753Z</time></trkpt><trkpt lat="43.1019763" lon="10.8402888"><ele>260.8</ele><time>2026-05-03T08:19:20.763Z</time></trkpt><trkpt lat="43.1020464" lon="10.8404004"><ele>259.4</ele><time>2026-05-03T08:19:21.76Z</time></trkpt><trkpt lat="43.1021158" lon="10.8405152"><ele>258.0</ele><time>2026-05-03T08:19:22.766Z</time></trkpt><trkpt lat="43.1021846" lon="10.8406273"><ele>258.0</ele><time>2026-05-03T08:19:23.769Z</time></trkpt><trkpt lat="43.1022584" lon="10.8407252"><ele>258.0</ele><time>2026-05-03T08:19:24.749Z</time></trkpt><trkpt lat="43.1023492" lon="10.840804"><ele>258.0</ele><time>2026-05-03T08:19:25.765Z</time></trkpt><trkpt lat="43.1024566" lon="10.84086"><ele>258.0</ele><time>2026-05-03T08:19:26.751Z</time></trkpt><trkpt lat="43.1025617" lon="10.8409043"><ele>258.0</ele><time>2026-05-03T08:19:27.759Z</time></trkpt><trkpt lat="43.1026666" lon="10.840917"><ele>258.0</ele><time>2026-05-03T08:19:28.757Z</time></trkpt><trkpt lat="43.1027686" lon="10.8409153"><ele>258.0</ele><time>2026-05-03T08:19:29.763Z</time></trkpt><trkpt lat="43.1028695" lon="10.8409144"><ele>258.0</ele><time>2026-05-03T08:19:30.754Z</time></trkpt><trkpt lat="43.1029686" lon="10.8409283"><ele>258.0</ele><time>2026-05-03T08:19:31.78Z</time></trkpt><trkpt lat="43.1030701" lon="10.8409759"><ele>258.0</ele><time>2026-05-03T08:19:32.758Z</time></trkpt><trkpt lat="43.1031629" lon="10.8410402"><ele>259.4</ele><time>2026-05-03T08:19:33.76Z</time></trkpt><trkpt lat="43.1032519" lon="10.8411193"><ele>260.8</ele><time>2026-05-03T08:19:34.769Z</time></trkpt><trkpt lat="43.1033358" lon="10.8412138"><ele>262.2</ele><time>2026-05-03T08:19:35.752Z</time></trkpt><trkpt lat="43.1034166" lon="10.8413137"><ele>263.6</ele><time>2026-05-03T08:19:36.751Z</time></trkpt><trkpt lat="43.1034991" lon="10.8414073"><ele>265.0</ele><time>2026-05-03T08:19:37.755Z</time></trkpt><trkpt lat="43.1035815" lon="10.8414961"><ele>265.0</ele><time>2026-05-03T08:19:38.746Z</time></trkpt><trkpt lat="43.1036666" lon="10.8415883"><ele>265.0</ele><time>2026-05-03T08:19:39.746Z</time></trkpt><trkpt lat="43.1037483" lon="10.8416873"><ele>265.0</ele><time>2026-05-03T08:19:40.754Z</time></trkpt><trkpt lat="43.1038321" lon="10.841783"><ele>265.0</ele><time>2026-05-03T08:19:41.753Z</time></trkpt><trkpt lat="43.1039166" lon="10.8418569"><ele>265.0</ele><time>2026-05-03T08:19:42.762Z</time></trkpt><trkpt lat="43.1040215" lon="10.8419133"><ele>266.25</ele><time>2026-05-03T08:19:43.756Z</time></trkpt><trkpt lat="43.1041213" lon="10.8419602"><ele>267.5</ele><time>2026-05-03T08:19:44.763Z</time></trkpt><trkpt lat="43.1042277" lon="10.8420138"><ele>268.75</ele><time>2026-05-03T08:19:45.77Z</time></trkpt><trkpt lat="43.1043336" lon="10.8420782"><ele>270.0</ele><time>2026-05-03T08:19:46.751Z</time></trkpt><trkpt lat="43.1044409" lon="10.8421518"><ele>270.0</ele><time>2026-05-03T08:19:47.743Z</time></trkpt><trkpt lat="43.1045473" lon="10.8422225"><ele>270.0</ele><time>2026-05-03T08:19:48.747Z</time></trkpt><trkpt lat="43.1046628" lon="10.8422839"><ele>270.0</ele><time>2026-05-03T08:19:49.775Z</time></trkpt><trkpt lat="43.1047777" lon="10.8423368"><ele>270.0</ele><time>2026-05-03T08:19:50.736Z</time></trkpt><trkpt lat="43.104859" lon="10.8424036"><ele>271.2</ele><time>2026-05-03T08:19:51.731Z</time></trkpt><trkpt lat="43.1049213" lon="10.8424831"><ele>272.4</ele><time>2026-05-03T08:19:52.738Z</time></trkpt><trkpt lat="43.1049736" lon="10.8425691"><ele>273.6</ele><time>2026-05-03T08:19:53.762Z</time></trkpt><trkpt lat="43.1050236" lon="10.8426777"><ele>274.8</ele><time>2026-05-03T08:19:54.744Z</time></trkpt><trkpt lat="43.1050856" lon="10.8427963"><ele>276.0</ele><time>2026-05-03T08:19:55.756Z</time></trkpt><trkpt lat="43.1051578" lon="10.8429055"><ele>276.8</ele><time>2026-05-03T08:19:56.76Z</time></trkpt><trkpt lat="43.1052406" lon="10.843012"><ele>277.6</ele><time>2026-05-03T08:19:57.745Z</time></trkpt><trkpt lat="43.1053245" lon="10.8431166"><ele>278.4</ele><time>2026-05-03T08:19:58.753Z</time></trkpt><trkpt lat="43.1054023" lon="10.8432137"><ele>279.2</ele><time>2026-05-03T08:19:59.749Z</time></trkpt><trkpt lat="43.1054811" lon="10.8433037"><ele>280.0</ele><time>2026-05-03T08:20:00.756Z</time></trkpt><trkpt lat="43.1055681" lon="10.8433828"><ele>280.0</ele><time>2026-05-03T08:20:01.751Z</time></trkpt><trkpt lat="43.105653" lon="10.843449"><ele>280.0</ele><time>2026-05-03T08:20:02.755Z</time></trkpt><trkpt lat="43.1057509" lon="10.8435128"><ele>280.0</ele><time>2026-05-03T08:20:03.753Z</time></trkpt><trkpt lat="43.1058545" lon="10.8435828"><ele>280.0</ele><time>2026-05-03T08:20:04.745Z</time></trkpt><trkpt lat="43.1059547" lon="10.8436813"><ele>280.0</ele><time>2026-05-03T08:20:05.761Z</time></trkpt><trkpt lat="43.106037" lon="10.843781"><ele>280.0</ele><time>2026-05-03T08:20:06.774Z</time></trkpt><trkpt lat="43.1061196" lon="10.8438757"><ele>280.0</ele><time>2026-05-03T08:20:07.753Z</time></trkpt><trkpt lat="43.1062096" lon="10.8439505"><ele>280.0</ele><time>2026-05-03T08:20:08.748Z</time></trkpt><trkpt lat="43.1062944" lon="10.8440246"><ele>280.0</ele><time>2026-05-03T08:20:09.755Z</time></trkpt><trkpt lat="43.10638" lon="10.8440877"><ele>280.0</ele><time>2026-05-03T08:20:10.753Z</time></trkpt><trkpt lat="43.1064645" lon="10.8441552"><ele>280.0</ele><time>2026-05-03T08:20:11.748Z</time></trkpt><trkpt lat="43.1065569" lon="10.8442307"><ele>280.0</ele><time>2026-05-03T08:20:12.756Z</time></trkpt><trkpt lat="43.1066523" lon="10.8443126"><ele>280.0</ele><time>2026-05-03T08:20:13.759Z</time></trkpt><trkpt lat="43.1067506" lon="10.8443975"><ele>280.0</ele><time>2026-05-03T08:20:14.766Z</time></trkpt><trkpt lat="43.1068538" lon="10.8444847"><ele>283.4</ele><time>2026-05-03T08:20:15.752Z</time></trkpt><trkpt lat="43.1069521" lon="10.8445635"><ele>286.8</ele><time>2026-05-03T08:20:16.765Z</time></trkpt><trkpt lat="43.1070527" lon="10.8446345"><ele>290.2</ele><time>2026-05-03T08:20:17.758Z</time></trkpt><trkpt lat="43.107162" lon="10.8446765"><ele>293.6</ele><time>2026-05-03T08:20:18.749Z</time></trkpt><trkpt lat="43.107264" lon="10.8447034"><ele>297.0</ele><time>2026-05-03T08:20:19.751Z</time></trkpt><trkpt lat="43.1073503" lon="10.8447438"><ele>296.8571428571429</ele><time>2026-05-03T08:20:20.748Z</time></trkpt><trkpt lat="43.1074164" lon="10.8447986"><ele>296.7142857142857</ele><time>2026-05-03T08:20:21.761Z</time></trkpt><trkpt lat="43.1074749" lon="10.8448635"><ele>296.57142857142856</ele><time>2026-05-03T08:20:22.749Z</time></trkpt><trkpt lat="43.1075451" lon="10.8449513"><ele>296.42857142857144</ele><time>2026-05-03T08:20:24.756Z</time></trkpt><trkpt lat="43.1075679" lon="10.8450364"><ele>296.2857142857143</ele><time>2026-05-03T08:21:03.746Z</time></trkpt><trkpt lat="43.1075963" lon="10.8451157"><ele>296.14285714285717</ele><time>2026-05-03T08:21:12.748Z</time></trkpt><trkpt lat="43.107611" lon="10.8452012"><ele>296.0</ele><time>2026-05-03T08:21:15.757Z</time></trkpt><trkpt lat="43.1075545" lon="10.8452434"><ele>296.0</ele><time>2026-05-03T08:22:20.731Z</time></trkpt><trkpt lat="43.107608" lon="10.8453589"><ele>296.0</ele><time>2026-05-03T08:22:41.741Z</time></trkpt><trkpt lat="43.1076159" lon="10.8455093"><ele>296.0</ele><time>2026-05-03T08:22:43.759Z</time></trkpt><trkpt lat="43.1076324" lon="10.8456173"><ele>296.0</ele><time>2026-05-03T08:22:44.756Z</time></trkpt><trkpt lat="43.1076591" lon="10.8457383"><ele>296.0</ele><time>2026-05-03T08:22:45.745Z</time></trkpt><trkpt lat="43.1076984" lon="10.8458607"><ele>296.6</ele><time>2026-05-03T08:22:46.756Z</time></trkpt><trkpt lat="43.1077477" lon="10.8459859"><ele>297.20000000000005</ele><time>2026-05-03T08:22:47.759Z</time></trkpt><trkpt lat="43.1078095" lon="10.8461063"><ele>297.79999999999995</ele><time>2026-05-03T08:22:48.761Z</time></trkpt><trkpt lat="43.1078602" lon="10.8462221"><ele>298.4</ele><time>2026-05-03T08:22:49.75Z</time></trkpt><trkpt lat="43.1078987" lon="10.846348"><ele>299.0</ele><time>2026-05-03T08:22:50.76Z</time></trkpt><trkpt lat="43.1079173" lon="10.8464781"><ele>299.0</ele><time>2026-05-03T08:22:51.757Z</time></trkpt><trkpt lat="43.107917" lon="10.8466008"><ele>299.0</ele><time>2026-05-03T08:22:52.748Z</time></trkpt><trkpt lat="43.1078889" lon="10.8467054"><ele>299.0</ele><time>2026-05-03T08:22:53.755Z</time></trkpt><trkpt lat="43.1078491" lon="10.8467967"><ele>299.0</ele><time>2026-05-03T08:22:54.762Z</time></trkpt><trkpt lat="43.1078087" lon="10.8468778"><ele>299.0</ele><time>2026-05-03T08:22:55.755Z</time></trkpt><trkpt lat="43.1077891" lon="10.8469648"><ele>299.0</ele><time>2026-05-03T08:22:56.754Z</time></trkpt><trkpt lat="43.1077983" lon="10.8470532"><ele>300.33333333333337</ele><time>2026-05-03T08:22:57.767Z</time></trkpt><trkpt lat="43.1078338" lon="10.8471341"><ele>301.6666666666667</ele><time>2026-05-03T08:22:58.758Z</time></trkpt><trkpt lat="43.1078813" lon="10.8472012"><ele>303.0</ele><time>2026-05-03T08:22:59.766Z</time></trkpt><trkpt lat="43.1079463" lon="10.847265"><ele>304.3333333333333</ele><time>2026-05-03T08:23:00.749Z</time></trkpt><trkpt lat="43.1080198" lon="10.8473332"><ele>305.66666666666663</ele><time>2026-05-03T08:23:01.756Z</time></trkpt><trkpt lat="43.1081035" lon="10.847412"><ele>307.0</ele><time>2026-05-03T08:23:02.764Z</time></trkpt><trkpt lat="43.108187" lon="10.8474978"><ele>307.5</ele><time>2026-05-03T08:23:03.763Z</time></trkpt><trkpt lat="43.1082627" lon="10.8475978"><ele>308.0</ele><time>2026-05-03T08:23:04.748Z</time></trkpt><trkpt lat="43.1083415" lon="10.8477078"><ele>308.5</ele><time>2026-05-03T08:23:05.748Z</time></trkpt><trkpt lat="43.1084063" lon="10.8478382"><ele>309.0</ele><time>2026-05-03T08:23:06.75Z</time></trkpt><trkpt lat="43.108467" lon="10.847978"><ele>312.25</ele><time>2026-05-03T08:23:07.765Z</time></trkpt><trkpt lat="43.1085273" lon="10.8481198"><ele>315.5</ele><time>2026-05-03T08:23:08.764Z</time></trkpt><trkpt lat="43.1085995" lon="10.8482572"><ele>318.75</ele><time>2026-05-03T08:23:09.756Z</time></trkpt><trkpt lat="43.108667" lon="10.8483986"><ele>322.0</ele><time>2026-05-03T08:23:10.749Z</time></trkpt><trkpt lat="43.1087292" lon="10.8485348"><ele>323.0</ele><time>2026-05-03T08:23:11.767Z</time></trkpt><trkpt lat="43.1087838" lon="10.8486741"><ele>324.0</ele><time>2026-05-03T08:23:12.759Z</time></trkpt><trkpt lat="43.1088224" lon="10.8488243"><ele>325.0</ele><time>2026-05-03T08:23:13.75Z</time></trkpt><trkpt lat="43.1088475" lon="10.8489772"><ele>326.0</ele><time>2026-05-03T08:23:14.753Z</time></trkpt><trkpt lat="43.1088512" lon="10.849137"><ele>326.0</ele><time>2026-05-03T08:23:15.766Z</time></trkpt><trkpt lat="43.1088509" lon="10.8492918"><ele>326.0</ele><time>2026-05-03T08:23:16.762Z</time></trkpt><trkpt lat="43.1088624" lon="10.8494319"><ele>326.0</ele><time>2026-05-03T08:23:17.758Z</time></trkpt><trkpt lat="43.1088949" lon="10.8495545"><ele>326.0</ele><time>2026-05-03T08:23:18.749Z</time></trkpt><trkpt lat="43.1089469" lon="10.8496664"><ele>326.0</ele><time>2026-05-03T08:23:19.762Z</time></trkpt><trkpt lat="43.1090215" lon="10.8497707"><ele>324.5</ele><time>2026-05-03T08:23:20.756Z</time></trkpt><trkpt lat="43.1091081" lon="10.8498732"><ele>323.0</ele><time>2026-05-03T08:23:21.765Z</time></trkpt><trkpt lat="43.1091947" lon="10.8499817"><ele>321.5</ele><time>2026-05-03T08:23:22.75Z</time></trkpt><trkpt lat="43.1092837" lon="10.8500874"><ele>320.0</ele><time>2026-05-03T08:23:23.748Z</time></trkpt><trkpt lat="43.1093649" lon="10.8502148"><ele>320.0</ele><time>2026-05-03T08:23:24.748Z</time></trkpt><trkpt lat="43.1094285" lon="10.8503563"><ele>320.0</ele><time>2026-05-03T08:23:25.749Z</time></trkpt><trkpt lat="43.1094728" lon="10.8504989"><ele>320.0</ele><time>2026-05-03T08:23:26.759Z</time></trkpt><trkpt lat="43.1094972" lon="10.8506483"><ele>320.0</ele><time>2026-05-03T08:23:27.766Z</time></trkpt><trkpt lat="43.1095029" lon="10.8508135"><ele>320.0</ele><time>2026-05-03T08:23:28.748Z</time></trkpt><trkpt lat="43.1095193" lon="10.8509791"><ele>320.0</ele><time>2026-05-03T08:23:29.757Z</time></trkpt><trkpt lat="43.1095488" lon="10.8511525"><ele>320.0</ele><time>2026-05-03T08:23:30.765Z</time></trkpt><trkpt lat="43.1095941" lon="10.8513125"><ele>320.0</ele><time>2026-05-03T08:23:31.768Z</time></trkpt><trkpt lat="43.1096506" lon="10.8514636"><ele>320.0</ele><time>2026-05-03T08:23:32.752Z</time></trkpt><trkpt lat="43.1097193" lon="10.8515912"><ele>320.0</ele><time>2026-05-03T08:23:33.761Z</time></trkpt><trkpt lat="43.1098043" lon="10.8516849"><ele>320.0</ele><time>2026-05-03T08:23:34.766Z</time></trkpt><trkpt lat="43.1098908" lon="10.8517451"><ele>320.0</ele><time>2026-05-03T08:23:35.754Z</time></trkpt><trkpt lat="43.1099885" lon="10.8517853"><ele>320.0</ele><time>2026-05-03T08:23:36.756Z</time></trkpt><trkpt lat="43.1100847" lon="10.8518231"><ele>324.6</ele><time>2026-05-03T08:23:37.759Z</time></trkpt><trkpt lat="43.11018" lon="10.8518757"><ele>329.2</ele><time>2026-05-03T08:23:38.745Z</time></trkpt><trkpt lat="43.1102713" lon="10.8519364"><ele>333.79999999999995</ele><time>2026-05-03T08:23:39.757Z</time></trkpt><trkpt lat="43.1103636" lon="10.852021"><ele>338.4</ele><time>2026-05-03T08:23:40.747Z</time></trkpt><trkpt lat="43.1104561" lon="10.8521209"><ele>343.0</ele><time>2026-05-03T08:23:41.752Z</time></trkpt><trkpt lat="43.1105508" lon="10.8522038"><ele>343.0</ele><time>2026-05-03T08:23:42.762Z</time></trkpt><trkpt lat="43.110647" lon="10.8522727"><ele>343.0</ele><time>2026-05-03T08:23:43.762Z</time></trkpt><trkpt lat="43.110746" lon="10.8523282"><ele>343.0</ele><time>2026-05-03T08:23:44.766Z</time></trkpt><trkpt lat="43.1108174" lon="10.8523991"><ele>343.0</ele><time>2026-05-03T08:23:45.755Z</time></trkpt><trkpt lat="43.1108575" lon="10.852493"><ele>343.0</ele><time>2026-05-03T08:23:46.775Z</time></trkpt><trkpt lat="43.1108685" lon="10.8525965"><ele>343.79999999999995</ele><time>2026-05-03T08:23:47.761Z</time></trkpt><trkpt lat="43.1108767" lon="10.8527178"><ele>344.6</ele><time>2026-05-03T08:23:48.757Z</time></trkpt><trkpt lat="43.11088" lon="10.8528468"><ele>345.4</ele><time>2026-05-03T08:23:49.761Z</time></trkpt><trkpt lat="43.1108905" lon="10.8529844"><ele>346.20000000000005</ele><time>2026-05-03T08:23:50.756Z</time></trkpt><trkpt lat="43.1108931" lon="10.8531242"><ele>347.0</ele><time>2026-05-03T08:23:51.76Z</time></trkpt><trkpt lat="43.1108831" lon="10.8532633"><ele>347.0</ele><time>2026-05-03T08:23:52.756Z</time></trkpt><trkpt lat="43.1108583" lon="10.8534002"><ele>347.0</ele><time>2026-05-03T08:23:53.762Z</time></trkpt><trkpt lat="43.1108178" lon="10.8535252"><ele>347.0</ele><time>2026-05-03T08:23:54.748Z</time></trkpt><trkpt lat="43.1107641" lon="10.8536453"><ele>347.0</ele><time>2026-05-03T08:23:55.761Z</time></trkpt><trkpt lat="43.1107069" lon="10.8537644"><ele>347.0</ele><time>2026-05-03T08:23:56.756Z</time></trkpt><trkpt lat="43.1106481" lon="10.8538734"><ele>349.40000000000003</ele><time>2026-05-03T08:23:57.765Z</time></trkpt><trkpt lat="43.1105813" lon="10.8539837"><ele>351.8</ele><time>2026-05-03T08:23:58.759Z</time></trkpt><trkpt lat="43.1105071" lon="10.8540845"><ele>354.2</ele><time>2026-05-03T08:23:59.756Z</time></trkpt><trkpt lat="43.1104309" lon="10.8541881"><ele>356.6</ele><time>2026-05-03T08:24:00.745Z</time></trkpt><trkpt lat="43.1103522" lon="10.854294"><ele>359.0</ele><time>2026-05-03T08:24:01.748Z</time></trkpt><trkpt lat="43.1102704" lon="10.854392"><ele>359.5</ele><time>2026-05-03T08:24:02.764Z</time></trkpt><trkpt lat="43.1102019" lon="10.854482"><ele>360.0</ele><time>2026-05-03T08:24:03.755Z</time></trkpt><trkpt lat="43.1101539" lon="10.8545646"><ele>360.5</ele><time>2026-05-03T08:24:04.74Z</time></trkpt><trkpt lat="43.1101304" lon="10.8546508"><ele>361.0</ele><time>2026-05-03T08:24:05.773Z</time></trkpt><trkpt lat="43.1101205" lon="10.8547396"><ele>361.5</ele><time>2026-05-03T08:24:06.752Z</time></trkpt><trkpt lat="43.1101228" lon="10.8548336"><ele>362.0</ele><time>2026-05-03T08:24:07.779Z</time></trkpt><trkpt lat="43.1101724" lon="10.8550022"><ele>362.0</ele><time>2026-05-03T08:24:09.756Z</time></trkpt><trkpt lat="43.1102239" lon="10.8550782"><ele>362.0</ele><time>2026-05-03T08:24:10.758Z</time></trkpt><trkpt lat="43.1102778" lon="10.8551586"><ele>362.0</ele><time>2026-05-03T08:24:11.773Z</time></trkpt><trkpt lat="43.1103221" lon="10.855254"><ele>362.0</ele><time>2026-05-03T08:24:12.754Z</time></trkpt><trkpt lat="43.1103525" lon="10.8553584"><ele>362.0</ele><time>2026-05-03T08:24:13.752Z</time></trkpt><trkpt lat="43.1103701" lon="10.8554842"><ele>362.0</ele><time>2026-05-03T08:24:14.748Z</time></trkpt><trkpt lat="43.1103781" lon="10.8556218"><ele>360.6</ele><time>2026-05-03T08:24:15.769Z</time></trkpt><trkpt lat="43.110386" lon="10.8557623"><ele>359.20000000000005</ele><time>2026-05-03T08:24:16.763Z</time></trkpt><trkpt lat="43.1104024" lon="10.8559011"><ele>357.8</ele><time>2026-05-03T08:24:17.767Z</time></trkpt><trkpt lat="43.1104266" lon="10.856049"><ele>356.4</ele><time>2026-05-03T08:24:18.765Z</time></trkpt><trkpt lat="43.1104515" lon="10.8562009"><ele>355.0</ele><time>2026-05-03T08:24:19.757Z</time></trkpt><trkpt lat="43.1104734" lon="10.8563523"><ele>353.25</ele><time>2026-05-03T08:24:20.755Z</time></trkpt><trkpt lat="43.110494" lon="10.8565064"><ele>351.5</ele><time>2026-05-03T08:24:21.768Z</time></trkpt><trkpt lat="43.110527" lon="10.8566531"><ele>349.75</ele><time>2026-05-03T08:24:22.76Z</time></trkpt><trkpt lat="43.1105714" lon="10.8567989"><ele>348.0</ele><time>2026-05-03T08:24:23.743Z</time></trkpt><trkpt lat="43.1106228" lon="10.8569515"><ele>348.75</ele><time>2026-05-03T08:24:24.764Z</time></trkpt><trkpt lat="43.1106798" lon="10.8571075"><ele>349.5</ele><time>2026-05-03T08:24:25.766Z</time></trkpt><trkpt lat="43.1107411" lon="10.8572555"><ele>350.25</ele><time>2026-05-03T08:24:26.754Z</time></trkpt><trkpt lat="43.1107999" lon="10.8573965"><ele>351.0</ele><time>2026-05-03T08:24:27.766Z</time></trkpt><trkpt lat="43.1108494" lon="10.8575224"><ele>351.4</ele><time>2026-05-03T08:24:28.749Z</time></trkpt><trkpt lat="43.1108844" lon="10.8576448"><ele>351.8</ele><time>2026-05-03T08:24:29.777Z</time></trkpt><trkpt lat="43.1109006" lon="10.8577711"><ele>352.2</ele><time>2026-05-03T08:24:30.755Z</time></trkpt><trkpt lat="43.1109066" lon="10.8579148"><ele>352.59999999999997</ele><time>2026-05-03T08:24:31.768Z</time></trkpt><trkpt lat="43.1109107" lon="10.8580693"><ele>353.0</ele><time>2026-05-03T08:24:32.752Z</time></trkpt><trkpt lat="43.1109169" lon="10.8582398"><ele>353.0</ele><time>2026-05-03T08:24:33.771Z</time></trkpt><trkpt lat="43.1109265" lon="10.8584185"><ele>353.0</ele><time>2026-05-03T08:24:34.752Z</time></trkpt><trkpt lat="43.110935" lon="10.8586049"><ele>353.0</ele><time>2026-05-03T08:24:35.759Z</time></trkpt><trkpt lat="43.1109382" lon="10.8587897"><ele>353.0</ele><time>2026-05-03T08:24:36.749Z</time></trkpt><trkpt lat="43.1109354" lon="10.8589772"><ele>353.5</ele><time>2026-05-03T08:24:37.763Z</time></trkpt><trkpt lat="43.1109382" lon="10.8591615"><ele>354.0</ele><time>2026-05-03T08:24:38.746Z</time></trkpt><trkpt lat="43.110944" lon="10.8593471"><ele>354.5</ele><time>2026-05-03T08:24:39.746Z</time></trkpt><trkpt lat="43.1109529" lon="10.8595292"><ele>355.0</ele><time>2026-05-03T08:24:40.753Z</time></trkpt><trkpt lat="43.1109578" lon="10.8597116"><ele>356.25</ele><time>2026-05-03T08:24:41.778Z</time></trkpt><trkpt lat="43.1109613" lon="10.8598937"><ele>357.5</ele><time>2026-05-03T08:24:42.749Z</time></trkpt><trkpt lat="43.1109622" lon="10.8600823"><ele>358.75</ele><time>2026-05-03T08:24:43.757Z</time></trkpt><trkpt lat="43.1109596" lon="10.8602691"><ele>360.0</ele><time>2026-05-03T08:24:44.751Z</time></trkpt><trkpt lat="43.1109618" lon="10.8604551"><ele>361.75</ele><time>2026-05-03T08:24:45.77Z</time></trkpt><trkpt lat="43.1109727" lon="10.8606384"><ele>363.5</ele><time>2026-05-03T08:24:46.757Z</time></trkpt><trkpt lat="43.1109807" lon="10.8608235"><ele>365.25</ele><time>2026-05-03T08:24:47.76Z</time></trkpt><trkpt lat="43.1109894" lon="10.8610059"><ele>367.0</ele><time>2026-05-03T08:24:48.751Z</time></trkpt><trkpt lat="43.1109987" lon="10.8611858"><ele>368.5</ele><time>2026-05-03T08:24:49.755Z</time></trkpt><trkpt lat="43.1110052" lon="10.8613611"><ele>370.0</ele><time>2026-05-03T08:24:50.751Z</time></trkpt><trkpt lat="43.1110105" lon="10.8615375"><ele>371.5</ele><time>2026-05-03T08:24:51.747Z</time></trkpt><trkpt lat="43.1110154" lon="10.861716"><ele>373.0</ele><time>2026-05-03T08:24:52.746Z</time></trkpt><trkpt lat="43.1110255" lon="10.8618959"><ele>374.0</ele><time>2026-05-03T08:24:53.758Z</time></trkpt><trkpt lat="43.1110351" lon="10.8620809"><ele>375.0</ele><time>2026-05-03T08:24:54.754Z</time></trkpt><trkpt lat="43.1110428" lon="10.8622679"><ele>376.0</ele><time>2026-05-03T08:24:55.764Z</time></trkpt><trkpt lat="43.1110492" lon="10.8624616"><ele>377.0</ele><time>2026-05-03T08:24:56.751Z</time></trkpt><trkpt lat="43.1110585" lon="10.8626595"><ele>379.0</ele><time>2026-05-03T08:24:57.752Z</time></trkpt><trkpt lat="43.1110684" lon="10.8628678"><ele>381.0</ele><time>2026-05-03T08:24:58.751Z</time></trkpt><trkpt lat="43.1110775" lon="10.8630892"><ele>383.0</ele><time>2026-05-03T08:24:59.764Z</time></trkpt><trkpt lat="43.1110909" lon="10.8633203"><ele>385.0</ele><time>2026-05-03T08:25:00.751Z</time></trkpt><trkpt lat="43.1111054" lon="10.8635615"><ele>387.0</ele><time>2026-05-03T08:25:01.756Z</time></trkpt><trkpt lat="43.1111128" lon="10.8637847"><ele>389.0</ele><time>2026-05-03T08:25:02.753Z</time></trkpt><trkpt lat="43.1111161" lon="10.8639985"><ele>389.0</ele><time>2026-05-03T08:25:03.744Z</time></trkpt><trkpt lat="43.111123" lon="10.8642098"><ele>389.0</ele><time>2026-05-03T08:25:04.753Z</time></trkpt><trkpt lat="43.1111305" lon="10.8644195"><ele>389.0</ele><time>2026-05-03T08:25:05.754Z</time></trkpt><trkpt lat="43.1111434" lon="10.8646232"><ele>389.25</ele><time>2026-05-03T08:25:06.751Z</time></trkpt><trkpt lat="43.111149" lon="10.8648106"><ele>389.5</ele><time>2026-05-03T08:25:07.765Z</time></trkpt><trkpt lat="43.111146" lon="10.8649766"><ele>389.75</ele><time>2026-05-03T08:25:08.75Z</time></trkpt><trkpt lat="43.1111556" lon="10.8651339"><ele>390.0</ele><time>2026-05-03T08:25:09.771Z</time></trkpt><trkpt lat="43.1111831" lon="10.8652879"><ele>390.0</ele><time>2026-05-03T08:25:10.743Z</time></trkpt><trkpt lat="43.1112344" lon="10.8654411"><ele>390.0</ele><time>2026-05-03T08:25:11.766Z</time></trkpt><trkpt lat="43.111307" lon="10.865583"><ele>390.0</ele><time>2026-05-03T08:25:12.752Z</time></trkpt><trkpt lat="43.1113835" lon="10.8657305"><ele>390.0</ele><time>2026-05-03T08:25:13.752Z</time></trkpt><trkpt lat="43.1114545" lon="10.8658894"><ele>388.5</ele><time>2026-05-03T08:25:14.751Z</time></trkpt><trkpt lat="43.111527" lon="10.8660538"><ele>387.0</ele><time>2026-05-03T08:25:15.76Z</time></trkpt><trkpt lat="43.1116013" lon="10.8662152"><ele>385.5</ele><time>2026-05-03T08:25:16.746Z</time></trkpt><trkpt lat="43.1116766" lon="10.8663846"><ele>384.0</ele><time>2026-05-03T08:25:17.757Z</time></trkpt><trkpt lat="43.1117559" lon="10.8665585"><ele>388.5</ele><time>2026-05-03T08:25:18.756Z</time></trkpt><trkpt lat="43.1118359" lon="10.8667339"><ele>393.0</ele><time>2026-05-03T08:25:19.77Z</time></trkpt><trkpt lat="43.1119135" lon="10.8669058"><ele>397.5</ele><time>2026-05-03T08:25:20.752Z</time></trkpt><trkpt lat="43.1119951" lon="10.8670769"><ele>402.0</ele><time>2026-05-03T08:25:21.755Z</time></trkpt><trkpt lat="43.1120785" lon="10.8672458"><ele>402.0</ele><time>2026-05-03T08:25:22.749Z</time></trkpt><trkpt lat="43.1121635" lon="10.8674208"><ele>402.0</ele><time>2026-05-03T08:25:23.758Z</time></trkpt><trkpt lat="43.1122467" lon="10.867593"><ele>402.0</ele><time>2026-05-03T08:25:24.748Z</time></trkpt><trkpt lat="43.1123244" lon="10.8677711"><ele>403.5</ele><time>2026-05-03T08:25:25.756Z</time></trkpt><trkpt lat="43.1123983" lon="10.8679502"><ele>405.0</ele><time>2026-05-03T08:25:26.77Z</time></trkpt><trkpt lat="43.1124626" lon="10.8681178"><ele>406.5</ele><time>2026-05-03T08:25:27.762Z</time></trkpt><trkpt lat="43.1125133" lon="10.8682831"><ele>408.0</ele><time>2026-05-03T08:25:28.756Z</time></trkpt><trkpt lat="43.1125447" lon="10.8684401"><ele>412.5</ele><time>2026-05-03T08:25:29.77Z</time></trkpt><trkpt lat="43.1125542" lon="10.8685879"><ele>417.0</ele><time>2026-05-03T08:25:30.753Z</time></trkpt><trkpt lat="43.1125486" lon="10.8687435"><ele>421.5</ele><time>2026-05-03T08:25:31.764Z</time></trkpt><trkpt lat="43.1125231" lon="10.8688956"><ele>426.0</ele><time>2026-05-03T08:25:32.762Z</time></trkpt><trkpt lat="43.1124823" lon="10.869065"><ele>426.0</ele><time>2026-05-03T08:25:33.76Z</time></trkpt><trkpt lat="43.1124293" lon="10.8692608"><ele>426.0</ele><time>2026-05-03T08:25:34.756Z</time></trkpt><trkpt lat="43.1123783" lon="10.8694603"><ele>426.0</ele><time>2026-05-03T08:25:35.752Z</time></trkpt><trkpt lat="43.1123315" lon="10.869652"><ele>425.75</ele><time>2026-05-03T08:25:36.745Z</time></trkpt><trkpt lat="43.1122894" lon="10.8698332"><ele>425.5</ele><time>2026-05-03T08:25:37.755Z</time></trkpt><trkpt lat="43.1122597" lon="10.870005"><ele>425.25</ele><time>2026-05-03T08:25:38.751Z</time></trkpt><trkpt lat="43.1122608" lon="10.8701881"><ele>425.0</ele><time>2026-05-03T08:25:39.75Z</time></trkpt><trkpt lat="43.1122843" lon="10.8703637"><ele>425.0</ele><time>2026-05-03T08:25:40.757Z</time></trkpt><trkpt lat="43.1123252" lon="10.870546"><ele>425.0</ele><time>2026-05-03T08:25:41.752Z</time></trkpt><trkpt lat="43.1123663" lon="10.8707412"><ele>425.0</ele><time>2026-05-03T08:25:42.756Z</time></trkpt><trkpt lat="43.1123848" lon="10.8709686"><ele>428.66666666666663</ele><time>2026-05-03T08:25:43.765Z</time></trkpt><trkpt lat="43.1124154" lon="10.8712005"><ele>432.33333333333337</ele><time>2026-05-03T08:25:44.757Z</time></trkpt><trkpt lat="43.1124459" lon="10.8714368"><ele>436.0</ele><time>2026-05-03T08:25:45.765Z</time></trkpt><trkpt lat="43.1124793" lon="10.8716671"><ele>434.33333333333337</ele><time>2026-05-03T08:25:46.753Z</time></trkpt><trkpt lat="43.1125104" lon="10.8719023"><ele>432.66666666666663</ele><time>2026-05-03T08:25:47.758Z</time></trkpt><trkpt lat="43.1125388" lon="10.8721289"><ele>431.0</ele><time>2026-05-03T08:25:48.755Z</time></trkpt><trkpt lat="43.1125692" lon="10.8723421"><ele>431.0</ele><time>2026-05-03T08:25:49.76Z</time></trkpt><trkpt lat="43.1126018" lon="10.8725394"><ele>431.0</ele><time>2026-05-03T08:25:50.755Z</time></trkpt><trkpt lat="43.112636" lon="10.8727241"><ele>431.0</ele><time>2026-05-03T08:25:51.765Z</time></trkpt><trkpt lat="43.1126693" lon="10.8729025"><ele>431.0</ele><time>2026-05-03T08:25:52.752Z</time></trkpt><trkpt lat="43.1127018" lon="10.8730651"><ele>429.99999999999994</ele><time>2026-05-03T08:25:53.752Z</time></trkpt><trkpt lat="43.1127253" lon="10.8732033"><ele>429.0</ele><time>2026-05-03T08:25:54.749Z</time></trkpt><trkpt lat="43.1127433" lon="10.8733301"><ele>428.0</ele><time>2026-05-03T08:25:55.762Z</time></trkpt><trkpt lat="43.1127589" lon="10.8734454"><ele>427.0</ele><time>2026-05-03T08:25:56.761Z</time></trkpt><trkpt lat="43.1127755" lon="10.8735501"><ele>425.99999999999994</ele><time>2026-05-03T08:25:57.759Z</time></trkpt><trkpt lat="43.1127905" lon="10.8736462"><ele>425.0</ele><time>2026-05-03T08:25:58.755Z</time></trkpt><trkpt lat="43.1128021" lon="10.8737369"><ele>424.99999999999994</ele><time>2026-05-03T08:25:59.76Z</time></trkpt><trkpt lat="43.1128121" lon="10.8738248"><ele>425.0</ele><time>2026-05-03T08:26:00.752Z</time></trkpt><trkpt lat="43.1128333" lon="10.8739631"><ele>425.0</ele><time>2026-05-03T08:26:02.753Z</time></trkpt><trkpt lat="43.1128521" lon="10.8740571"><ele>425.0</ele><time>2026-05-03T08:28:12.753Z</time></trkpt><trkpt lat="43.1128675" lon="10.8741745"><ele>424.99999999999994</ele><time>2026-05-03T08:28:14.753Z</time></trkpt><trkpt lat="43.1128766" lon="10.8743118"><ele>425.0</ele><time>2026-05-03T08:28:16.754Z</time></trkpt><trkpt lat="43.1128702" lon="10.8744835"><ele>426.16666666666663</ele><time>2026-05-03T08:28:18.746Z</time></trkpt><trkpt lat="43.1128438" lon="10.8745865"><ele>427.3333333333333</ele><time>2026-05-03T08:28:19.761Z</time></trkpt><trkpt lat="43.1128044" lon="10.874688"><ele>428.5</ele><time>2026-05-03T08:28:20.76Z</time></trkpt><trkpt lat="43.1127471" lon="10.8747784"><ele>429.66666666666663</ele><time>2026-05-03T08:28:21.751Z</time></trkpt><trkpt lat="43.1126722" lon="10.8748509"><ele>430.8333333333333</ele><time>2026-05-03T08:28:22.757Z</time></trkpt><trkpt lat="43.1125922" lon="10.8749267"><ele>432.0</ele><time>2026-05-03T08:28:23.757Z</time></trkpt><trkpt lat="43.1125124" lon="10.8749965"><ele>432.0</ele><time>2026-05-03T08:28:24.756Z</time></trkpt><trkpt lat="43.1124242" lon="10.8750715"><ele>432.00000000000006</ele><time>2026-05-03T08:28:25.764Z</time></trkpt><trkpt lat="43.1123451" lon="10.8751506"><ele>432.00000000000006</ele><time>2026-05-03T08:28:26.747Z</time></trkpt><trkpt lat="43.1122741" lon="10.875233"><ele>432.0</ele><time>2026-05-03T08:28:27.759Z</time></trkpt><trkpt lat="43.1122066" lon="10.8752881"><ele>432.0</ele><time>2026-05-03T08:28:28.76Z</time></trkpt><trkpt lat="43.1121262" lon="10.8753257"><ele>433.0</ele><time>2026-05-03T08:28:29.754Z</time></trkpt><trkpt lat="43.1120422" lon="10.8753514"><ele>434.00000000000006</ele><time>2026-05-03T08:28:30.745Z</time></trkpt><trkpt lat="43.1119502" lon="10.8753721"><ele>435.00000000000006</ele><time>2026-05-03T08:28:31.746Z</time></trkpt><trkpt lat="43.1118456" lon="10.8753844"><ele>436.0</ele><time>2026-05-03T08:28:32.753Z</time></trkpt><trkpt lat="43.1117373" lon="10.875387"><ele>437.0</ele><time>2026-05-03T08:28:33.753Z</time></trkpt><trkpt lat="43.1116238" lon="10.8753894"><ele>434.5</ele><time>2026-05-03T08:28:34.743Z</time></trkpt><trkpt lat="43.1115062" lon="10.8753977"><ele>432.0</ele><time>2026-05-03T08:28:35.755Z</time></trkpt><trkpt lat="43.1113913" lon="10.8754053"><ele>429.5</ele><time>2026-05-03T08:28:36.763Z</time></trkpt><trkpt lat="43.111271" lon="10.875407"><ele>427.0</ele><time>2026-05-03T08:28:37.755Z</time></trkpt><trkpt lat="43.1111577" lon="10.8754132"><ele>427.0</ele><time>2026-05-03T08:28:38.75Z</time></trkpt><trkpt lat="43.1110436" lon="10.8754189"><ele>427.0</ele><time>2026-05-03T08:28:39.76Z</time></trkpt><trkpt lat="43.1109315" lon="10.8754336"><ele>427.0</ele><time>2026-05-03T08:28:40.75Z</time></trkpt><trkpt lat="43.1108197" lon="10.875463"><ele>427.0</ele><time>2026-05-03T08:28:41.762Z</time></trkpt><trkpt lat="43.1107136" lon="10.8755097"><ele>424.6</ele><time>2026-05-03T08:28:42.749Z</time></trkpt><trkpt lat="43.1106099" lon="10.8755811"><ele>422.20000000000005</ele><time>2026-05-03T08:28:43.757Z</time></trkpt><trkpt lat="43.1105088" lon="10.875655"><ele>419.8</ele><time>2026-05-03T08:28:44.765Z</time></trkpt><trkpt lat="43.1104068" lon="10.8757187"><ele>417.4</ele><time>2026-05-03T08:28:45.757Z</time></trkpt><trkpt lat="43.1103144" lon="10.8757699"><ele>415.0</ele><time>2026-05-03T08:28:46.756Z</time></trkpt><trkpt lat="43.1102403" lon="10.8758217"><ele>415.00000000000006</ele><time>2026-05-03T08:28:47.755Z</time></trkpt><trkpt lat="43.1101849" lon="10.8758863"><ele>415.0</ele><time>2026-05-03T08:28:48.763Z</time></trkpt><trkpt lat="43.1101457" lon="10.8759623"><ele>415.0</ele><time>2026-05-03T08:28:49.747Z</time></trkpt><trkpt lat="43.1101198" lon="10.8760529"><ele>415.0</ele><time>2026-05-03T08:28:50.749Z</time></trkpt><trkpt lat="43.1101161" lon="10.8761582"><ele>415.00000000000006</ele><time>2026-05-03T08:28:51.762Z</time></trkpt><trkpt lat="43.1101367" lon="10.8762751"><ele>415.0</ele><time>2026-05-03T08:28:52.754Z</time></trkpt><trkpt lat="43.1101736" lon="10.8763889"><ele>414.00000000000006</ele><time>2026-05-03T08:28:53.766Z</time></trkpt><trkpt lat="43.1102275" lon="10.8764811"><ele>413.0</ele><time>2026-05-03T08:28:54.75Z</time></trkpt><trkpt lat="43.110296" lon="10.8765446"><ele>412.0</ele><time>2026-05-03T08:28:55.752Z</time></trkpt><trkpt lat="43.1103706" lon="10.8766012"><ele>411.0</ele><time>2026-05-03T08:28:56.761Z</time></trkpt><trkpt lat="43.1104443" lon="10.8766528"><ele>410.00000000000006</ele><time>2026-05-03T08:28:57.752Z</time></trkpt><trkpt lat="43.1105117" lon="10.8766982"><ele>409.0</ele><time>2026-05-03T08:28:58.767Z</time></trkpt><trkpt lat="43.1105717" lon="10.8767433"><ele>409.1428571428571</ele><time>2026-05-03T08:28:59.765Z</time></trkpt><trkpt lat="43.1106268" lon="10.8767908"><ele>409.28571428571433</ele><time>2026-05-03T08:29:00.748Z</time></trkpt><trkpt lat="43.1106821" lon="10.8768397"><ele>409.42857142857144</ele><time>2026-05-03T08:29:01.761Z</time></trkpt><trkpt lat="43.1107388" lon="10.8768873"><ele>409.57142857142856</ele><time>2026-05-03T08:29:02.747Z</time></trkpt><trkpt lat="43.110801" lon="10.876932"><ele>409.71428571428567</ele><time>2026-05-03T08:29:03.773Z</time></trkpt><trkpt lat="43.1108648" lon="10.8769771"><ele>409.8571428571429</ele><time>2026-05-03T08:29:04.751Z</time></trkpt><trkpt lat="43.1109391" lon="10.8770286"><ele>410.0</ele><time>2026-05-03T08:29:05.758Z</time></trkpt><trkpt lat="43.111009" lon="10.8770767"><ele>410.0</ele><time>2026-05-03T08:29:06.748Z</time></trkpt><trkpt lat="43.1110739" lon="10.8771437"><ele>410.0</ele><time>2026-05-03T08:29:07.745Z</time></trkpt><trkpt lat="43.1111231" lon="10.8772201"><ele>410.0</ele><time>2026-05-03T08:29:08.753Z</time></trkpt><trkpt lat="43.1111381" lon="10.8773109"><ele>410.0</ele><time>2026-05-03T08:29:09.755Z</time></trkpt><trkpt lat="43.1111276" lon="10.8773972"><ele>410.0</ele><time>2026-05-03T08:29:10.738Z</time></trkpt><trkpt lat="43.111099" lon="10.8774801"><ele>410.0</ele><time>2026-05-03T08:29:11.761Z</time></trkpt><trkpt lat="43.1110543" lon="10.8775753"><ele>410.0</ele><time>2026-05-03T08:29:12.75Z</time></trkpt><trkpt lat="43.1110112" lon="10.8776772"><ele>408.8333333333333</ele><time>2026-05-03T08:29:13.768Z</time></trkpt><trkpt lat="43.1109856" lon="10.8777865"><ele>407.66666666666663</ele><time>2026-05-03T08:29:14.757Z</time></trkpt><trkpt lat="43.1109753" lon="10.8778957"><ele>406.5</ele><time>2026-05-03T08:29:15.745Z</time></trkpt><trkpt lat="43.1109952" lon="10.8780078"><ele>405.33333333333337</ele><time>2026-05-03T08:29:16.753Z</time></trkpt><trkpt lat="43.1110243" lon="10.8781095"><ele>404.1666666666667</ele><time>2026-05-03T08:29:17.752Z</time></trkpt><trkpt lat="43.1110692" lon="10.8782179"><ele>403.0</ele><time>2026-05-03T08:29:18.755Z</time></trkpt><trkpt lat="43.1111027" lon="10.8783326"><ele>402.4</ele><time>2026-05-03T08:29:19.751Z</time></trkpt><trkpt lat="43.1111266" lon="10.8784491"><ele>401.79999999999995</ele><time>2026-05-03T08:29:20.739Z</time></trkpt><trkpt lat="43.1111376" lon="10.8785715"><ele>401.2</ele><time>2026-05-03T08:29:21.76Z</time></trkpt><trkpt lat="43.1111298" lon="10.8786972"><ele>400.6</ele><time>2026-05-03T08:29:22.748Z</time></trkpt><trkpt lat="43.1111142" lon="10.8788274"><ele>400.0</ele><time>2026-05-03T08:29:23.747Z</time></trkpt><trkpt lat="43.1110948" lon="10.8789477"><ele>400.0</ele><time>2026-05-03T08:29:24.757Z</time></trkpt><trkpt lat="43.1110705" lon="10.8790687"><ele>400.0</ele><time>2026-05-03T08:29:25.744Z</time></trkpt><trkpt lat="43.1110508" lon="10.8791893"><ele>400.0</ele><time>2026-05-03T08:29:26.754Z</time></trkpt><trkpt lat="43.11103" lon="10.8793123"><ele>400.0</ele><time>2026-05-03T08:29:27.765Z</time></trkpt><trkpt lat="43.111021" lon="10.8794359"><ele>400.0</ele><time>2026-05-03T08:29:28.735Z</time></trkpt><trkpt lat="43.111032" lon="10.8795532"><ele>398.6666666666667</ele><time>2026-05-03T08:29:29.759Z</time></trkpt><trkpt lat="43.111068" lon="10.8796733"><ele>397.33333333333337</ele><time>2026-05-03T08:29:30.752Z</time></trkpt><trkpt lat="43.1111204" lon="10.8797837"><ele>396.0</ele><time>2026-05-03T08:29:31.764Z</time></trkpt><trkpt lat="43.1111766" lon="10.8798899"><ele>394.66666666666663</ele><time>2026-05-03T08:29:32.751Z</time></trkpt><trkpt lat="43.1112307" lon="10.8799826"><ele>393.3333333333333</ele><time>2026-05-03T08:29:33.76Z</time></trkpt><trkpt lat="43.1112741" lon="10.8800665"><ele>392.0</ele><time>2026-05-03T08:29:34.771Z</time></trkpt><trkpt lat="43.1113093" lon="10.88015"><ele>392.20000000000005</ele><time>2026-05-03T08:29:35.762Z</time></trkpt><trkpt lat="43.1113733" lon="10.8802978"><ele>392.4</ele><time>2026-05-03T08:29:37.759Z</time></trkpt><trkpt lat="43.1114175" lon="10.8803597"><ele>392.6</ele><time>2026-05-03T08:29:38.748Z</time></trkpt><trkpt lat="43.111503" lon="10.8804612"><ele>392.79999999999995</ele><time>2026-05-03T08:29:40.759Z</time></trkpt><trkpt lat="43.111585" lon="10.8805261"><ele>393.0</ele><time>2026-05-03T08:29:42.75Z</time></trkpt><trkpt lat="43.1116518" lon="10.8805719"><ele>393.0</ele><time>2026-05-03T08:29:44.755Z</time></trkpt><trkpt lat="43.1117249" lon="10.8806212"><ele>393.0</ele><time>2026-05-03T08:29:46.754Z</time></trkpt><trkpt lat="43.1117976" lon="10.8806714"><ele>393.0</ele><time>2026-05-03T08:29:48.751Z</time></trkpt><trkpt lat="43.1118685" lon="10.8807081"><ele>393.0</ele><time>2026-05-03T08:29:49.752Z</time></trkpt><trkpt lat="43.1119469" lon="10.8807524"><ele>393.0</ele><time>2026-05-03T08:29:50.742Z</time></trkpt><trkpt lat="43.1120354" lon="10.8808022"><ele>393.0</ele><time>2026-05-03T08:29:51.758Z</time></trkpt><trkpt lat="43.1121285" lon="10.8808652"><ele>393.0</ele><time>2026-05-03T08:29:52.758Z</time></trkpt><trkpt lat="43.1122245" lon="10.8809233"><ele>393.0</ele><time>2026-05-03T08:29:53.745Z</time></trkpt><trkpt lat="43.1123194" lon="10.8809616"><ele>393.0</ele><time>2026-05-03T08:29:54.744Z</time></trkpt><trkpt lat="43.1124069" lon="10.8809782"><ele>393.0</ele><time>2026-05-03T08:29:55.757Z</time></trkpt><trkpt lat="43.1124897" lon="10.8809588"><ele>393.0</ele><time>2026-05-03T08:29:56.745Z</time></trkpt><trkpt lat="43.112562" lon="10.8809068"><ele>393.1666666666667</ele><time>2026-05-03T08:29:57.75Z</time></trkpt><trkpt lat="43.1126247" lon="10.8808301"><ele>393.33333333333337</ele><time>2026-05-03T08:29:58.752Z</time></trkpt><trkpt lat="43.1126903" lon="10.8807465"><ele>393.5</ele><time>2026-05-03T08:29:59.747Z</time></trkpt><trkpt lat="43.1127661" lon="10.8806753"><ele>393.6666666666667</ele><time>2026-05-03T08:30:00.755Z</time></trkpt><trkpt lat="43.1128441" lon="10.8806316"><ele>393.83333333333337</ele><time>2026-05-03T08:30:01.754Z</time></trkpt><trkpt lat="43.1129109" lon="10.8806268"><ele>394.0</ele><time>2026-05-03T08:30:02.761Z</time></trkpt><trkpt lat="43.1130094" lon="10.8807307"><ele>394.0</ele><time>2026-05-03T08:30:04.748Z</time></trkpt><trkpt lat="43.1130384" lon="10.8808217"><ele>394.0</ele><time>2026-05-03T08:30:05.753Z</time></trkpt><trkpt lat="43.113075" lon="10.8809306"><ele>394.0</ele><time>2026-05-03T08:30:06.744Z</time></trkpt><trkpt lat="43.1131028" lon="10.8810602"><ele>394.0</ele><time>2026-05-03T08:30:07.753Z</time></trkpt><trkpt lat="43.1131296" lon="10.8812034"><ele>394.0</ele><time>2026-05-03T08:30:08.749Z</time></trkpt><trkpt lat="43.1131597" lon="10.8813536"><ele>392.0</ele><time>2026-05-03T08:30:09.762Z</time></trkpt><trkpt lat="43.1131896" lon="10.8815015"><ele>390.0</ele><time>2026-05-03T08:30:10.75Z</time></trkpt><trkpt lat="43.1132168" lon="10.8816518"><ele>388.0</ele><time>2026-05-03T08:30:11.751Z</time></trkpt><trkpt lat="43.1132393" lon="10.8818051"><ele>386.0</ele><time>2026-05-03T08:30:12.75Z</time></trkpt><trkpt lat="43.1132605" lon="10.8819569"><ele>386.0</ele><time>2026-05-03T08:30:13.741Z</time></trkpt><trkpt lat="43.1132812" lon="10.8821123"><ele>386.0</ele><time>2026-05-03T08:30:14.737Z</time></trkpt><trkpt lat="43.1133045" lon="10.8822674"><ele>386.0</ele><time>2026-05-03T08:30:15.764Z</time></trkpt><trkpt lat="43.1133261" lon="10.8824173"><ele>386.0</ele><time>2026-05-03T08:30:16.746Z</time></trkpt><trkpt lat="43.1133508" lon="10.8825727"><ele>385.6</ele><time>2026-05-03T08:30:17.755Z</time></trkpt><trkpt lat="43.1133745" lon="10.8827245"><ele>385.20000000000005</ele><time>2026-05-03T08:30:18.731Z</time></trkpt><trkpt lat="43.1133922" lon="10.8828784"><ele>384.79999999999995</ele><time>2026-05-03T08:30:19.75Z</time></trkpt><trkpt lat="43.113396" lon="10.8830187"><ele>384.4</ele><time>2026-05-03T08:30:20.75Z</time></trkpt><trkpt lat="43.1133801" lon="10.8831505"><ele>384.0</ele><time>2026-05-03T08:30:21.754Z</time></trkpt><trkpt lat="43.1133499" lon="10.8832689"><ele>384.0</ele><time>2026-05-03T08:30:22.75Z</time></trkpt><trkpt lat="43.1133124" lon="10.8833637"><ele>384.0</ele><time>2026-05-03T08:30:23.753Z</time></trkpt><trkpt lat="43.1132681" lon="10.883453"><ele>384.0</ele><time>2026-05-03T08:30:24.743Z</time></trkpt><trkpt lat="43.113221" lon="10.8835444"><ele>384.0</ele><time>2026-05-03T08:30:25.761Z</time></trkpt><trkpt lat="43.1131735" lon="10.8836392"><ele>384.0</ele><time>2026-05-03T08:30:26.76Z</time></trkpt><trkpt lat="43.113131" lon="10.8837413"><ele>384.0</ele><time>2026-05-03T08:30:27.763Z</time></trkpt><trkpt lat="43.1130834" lon="10.883853"><ele>384.79999999999995</ele><time>2026-05-03T08:30:28.754Z</time></trkpt><trkpt lat="43.1130321" lon="10.8839657"><ele>385.59999999999997</ele><time>2026-05-03T08:30:29.755Z</time></trkpt><trkpt lat="43.1129821" lon="10.8840832"><ele>386.4</ele><time>2026-05-03T08:30:30.741Z</time></trkpt><trkpt lat="43.1129325" lon="10.8841927"><ele>387.2</ele><time>2026-05-03T08:30:31.759Z</time></trkpt><trkpt lat="43.1128855" lon="10.8843099"><ele>388.0</ele><time>2026-05-03T08:30:32.757Z</time></trkpt><trkpt lat="43.1128366" lon="10.8844263"><ele>388.59999999999997</ele><time>2026-05-03T08:30:33.769Z</time></trkpt><trkpt lat="43.1127741" lon="10.884541"><ele>389.2</ele><time>2026-05-03T08:30:34.757Z</time></trkpt><trkpt lat="43.1127196" lon="10.884664"><ele>389.8</ele><time>2026-05-03T08:30:35.755Z</time></trkpt><trkpt lat="43.1126657" lon="10.8847903"><ele>390.4</ele><time>2026-05-03T08:30:36.75Z</time></trkpt><trkpt lat="43.1126227" lon="10.8849128"><ele>391.0</ele><time>2026-05-03T08:30:37.761Z</time></trkpt><trkpt lat="43.1125749" lon="10.885034"><ele>391.20000000000005</ele><time>2026-05-03T08:30:38.749Z</time></trkpt><trkpt lat="43.1125207" lon="10.8851522"><ele>391.40000000000003</ele><time>2026-05-03T08:30:39.749Z</time></trkpt><trkpt lat="43.1124602" lon="10.8852723"><ele>391.6</ele><time>2026-05-03T08:30:40.759Z</time></trkpt><trkpt lat="43.1124048" lon="10.8853975"><ele>391.8</ele><time>2026-05-03T08:30:41.766Z</time></trkpt><trkpt lat="43.1123532" lon="10.8855124"><ele>392.0</ele><time>2026-05-03T08:30:42.766Z</time></trkpt><trkpt lat="43.1123227" lon="10.8856201"><ele>391.99999999999994</ele><time>2026-05-03T08:30:43.749Z</time></trkpt><trkpt lat="43.1123207" lon="10.8857257"><ele>392.0</ele><time>2026-05-03T08:30:44.754Z</time></trkpt><trkpt lat="43.1123454" lon="10.8858392"><ele>392.0</ele><time>2026-05-03T08:30:45.753Z</time></trkpt><trkpt lat="43.1123792" lon="10.8859563"><ele>392.0</ele><time>2026-05-03T08:30:46.752Z</time></trkpt><trkpt lat="43.1124314" lon="10.8860662"><ele>391.99999999999994</ele><time>2026-05-03T08:30:47.758Z</time></trkpt><trkpt lat="43.1124946" lon="10.8861672"><ele>392.0</ele><time>2026-05-03T08:30:48.757Z</time></trkpt><trkpt lat="43.1125635" lon="10.8862644"><ele>395.0</ele><time>2026-05-03T08:30:49.748Z</time></trkpt><trkpt lat="43.1126527" lon="10.8863289"><ele>398.0</ele><time>2026-05-03T08:30:50.753Z</time></trkpt><trkpt lat="43.1127442" lon="10.8863666"><ele>401.0</ele><time>2026-05-03T08:30:51.754Z</time></trkpt><trkpt lat="43.11284" lon="10.8863945"><ele>404.0</ele><time>2026-05-03T08:30:52.745Z</time></trkpt><trkpt lat="43.1129313" lon="10.8864167"><ele>407.0</ele><time>2026-05-03T08:30:53.759Z</time></trkpt><trkpt lat="43.1130268" lon="10.8864375"><ele>407.0</ele><time>2026-05-03T08:30:54.764Z</time></trkpt><trkpt lat="43.1131157" lon="10.8864743"><ele>407.0</ele><time>2026-05-03T08:30:55.75Z</time></trkpt><trkpt lat="43.1131974" lon="10.886538"><ele>407.0</ele><time>2026-05-03T08:30:56.759Z</time></trkpt><trkpt lat="43.1132598" lon="10.8866356"><ele>407.0</ele><time>2026-05-03T08:30:57.742Z</time></trkpt><trkpt lat="43.1133094" lon="10.8867461"><ele>407.0</ele><time>2026-05-03T08:30:58.745Z</time></trkpt><trkpt lat="43.1109622" lon="10.8600823"><ele>397.0</ele><time>2026-05-03T08:24:43.757Z</time></trkpt><trkpt lat="43.1109596" lon="10.8602691"><ele>387.0</ele><time>2026-05-03T08:24:44.751Z</time></trkpt><trkpt lat="43.1109618" lon="10.8604551"><ele>377.0</ele><time>2026-05-03T08:24:45.77Z</time></trkpt><trkpt lat="43.1109727" lon="10.8606384"><ele>367.0</ele><time>2026-05-03T08:24:46.757Z</time></trkpt><trkpt lat="43.1109807" lon="10.8608235"><ele>368.5</ele><time>2026-05-03T08:24:47.76Z</time></trkpt><trkpt lat="43.1109894" lon="10.8610059"><ele>370.0</ele><time>2026-05-03T08:24:48.751Z</time></trkpt><trkpt lat="43.1109987" lon="10.8611858"><ele>371.5</ele><time>2026-05-03T08:24:49.755Z</time></trkpt><trkpt lat="43.1110052" lon="10.8613611"><ele>373.0</ele><time>2026-05-03T08:24:50.751Z</time></trkpt><trkpt lat="43.1110105" lon="10.8615375"><ele>373.0</ele><time>2026-05-03T08:24:51.747Z</time></trkpt><trkpt lat="43.1110154" lon="10.861716"><ele>373.0</ele><time>2026-05-03T08:24:52.746Z</time></trkpt><trkpt lat="43.1110255" lon="10.8618959"><ele>373.0</ele><time>2026-05-03T08:24:53.758Z</time></trkpt><trkpt lat="43.1110351" lon="10.8620809"><ele>373.0</ele><time>2026-05-03T08:24:54.754Z</time></trkpt><trkpt lat="43.1110428" lon="10.8622679"><ele>374.0</ele><time>2026-05-03T08:24:55.764Z</time></trkpt><trkpt lat="43.1110492" lon="10.8624616"><ele>375.0</ele><time>2026-05-03T08:24:56.751Z</time></trkpt><trkpt lat="43.1110585" lon="10.8626595"><ele>376.0</ele><time>2026-05-03T08:24:57.752Z</time></trkpt><trkpt lat="43.1110684" lon="10.8628678"><ele>377.0</ele><time>2026-05-03T08:24:58.751Z</time></trkpt><trkpt lat="43.1110775" lon="10.8630892"><ele>379.0</ele><time>2026-05-03T08:24:59.764Z</time></trkpt><trkpt lat="43.1110909" lon="10.8633203"><ele>381.0</ele><time>2026-05-03T08:25:00.751Z</time></trkpt><trkpt lat="43.1111054" lon="10.8635615"><ele>383.0</ele><time>2026-05-03T08:25:01.756Z</time></trkpt><trkpt lat="43.1111128" lon="10.8637847"><ele>385.0</ele><time>2026-05-03T08:25:02.753Z</time></trkpt><trkpt lat="43.1111161" lon="10.8639985"><ele>387.0</ele><time>2026-05-03T08:25:03.744Z</time></trkpt><trkpt lat="43.111123" lon="10.8642098"><ele>389.0</ele><time>2026-05-03T08:25:04.753Z</time></trkpt><trkpt lat="43.1111305" lon="10.8644195"><ele>389.25</ele><time>2026-05-03T08:25:05.754Z</time></trkpt><trkpt lat="43.1111434" lon="10.8646232"><ele>389.5</ele><time>2026-05-03T08:25:06.751Z</time></trkpt><trkpt lat="43.111149" lon="10.8648106"><ele>389.75</ele><time>2026-05-03T08:25:07.765Z</time></trkpt><trkpt lat="43.111146" lon="10.8649766"><ele>390.0</ele><time>2026-05-03T08:25:08.75Z</time></trkpt><trkpt lat="43.1111556" lon="10.8651339"><ele>390.0</ele><time>2026-05-03T08:25:09.771Z</time></trkpt><trkpt lat="43.1111831" lon="10.8652879"><ele>390.0</ele><time>2026-05-03T08:25:10.743Z</time></trkpt><trkpt lat="43.1112344" lon="10.8654411"><ele>390.0</ele><time>2026-05-03T08:25:11.766Z</time></trkpt><trkpt lat="43.111307" lon="10.865583"><ele>390.0</ele><time>2026-05-03T08:25:12.752Z</time></trkpt><trkpt lat="43.1113835" lon="10.8657305"><ele>390.0</ele><time>2026-05-03T08:25:13.752Z</time></trkpt><trkpt lat="43.1114545" lon="10.8658894"><ele>390.0</ele><time>2026-05-03T08:25:14.751Z</time></trkpt><trkpt lat="43.111527" lon="10.8660538"><ele>390.0</ele><time>2026-05-03T08:25:15.76Z</time></trkpt><trkpt lat="43.1116013" lon="10.8662152"><ele>390.0</ele><time>2026-05-03T08:25:16.746Z</time></trkpt><trkpt lat="43.1116766" lon="10.8663846"><ele>393.0</ele><time>2026-05-03T08:25:17.757Z</time></trkpt><trkpt lat="43.1117559" lon="10.8665585"><ele>396.0</ele><time>2026-05-03T08:25:18.756Z</time></trkpt><trkpt lat="43.1118359" lon="10.8667339"><ele>399.0</ele><time>2026-05-03T08:25:19.77Z</time></trkpt><trkpt lat="43.1119135" lon="10.8669058"><ele>402.0</ele><time>2026-05-03T08:25:20.752Z</time></trkpt><trkpt lat="43.1119951" lon="10.8670769"><ele>402.0</ele><time>2026-05-03T08:25:21.755Z</time></trkpt><trkpt lat="43.1120785" lon="10.8672458"><ele>402.0</ele><time>2026-05-03T08:25:22.749Z</time></trkpt><trkpt lat="43.1121635" lon="10.8674208"><ele>402.0</ele><time>2026-05-03T08:25:23.758Z</time></trkpt><trkpt lat="43.1122467" lon="10.867593"><ele>403.5</ele><time>2026-05-03T08:25:24.748Z</time></trkpt><trkpt lat="43.1123244" lon="10.8677711"><ele>405.0</ele><time>2026-05-03T08:25:25.756Z</time></trkpt><trkpt lat="43.1123983" lon="10.8679502"><ele>406.5</ele><time>2026-05-03T08:25:26.77Z</time></trkpt><trkpt lat="43.1124626" lon="10.8681178"><ele>408.0</ele><time>2026-05-03T08:25:27.762Z</time></trkpt><trkpt lat="43.1125133" lon="10.8682831"><ele>411.75</ele><time>2026-05-03T08:25:28.756Z</time></trkpt><trkpt lat="43.1125447" lon="10.8684401"><ele>415.5</ele><time>2026-05-03T08:25:29.77Z</time></trkpt><trkpt lat="43.1125542" lon="10.8685879"><ele>419.25</ele><time>2026-05-03T08:25:30.753Z</time></trkpt><trkpt lat="43.1125486" lon="10.8687435"><ele>423.0</ele><time>2026-05-03T08:25:31.764Z</time></trkpt><trkpt lat="43.1125231" lon="10.8688956"><ele>423.0</ele><time>2026-05-03T08:25:32.762Z</time></trkpt><trkpt lat="43.1124823" lon="10.869065"><ele>423.0</ele><time>2026-05-03T08:25:33.76Z</time></trkpt><trkpt lat="43.1124293" lon="10.8692608"><ele>423.0</ele><time>2026-05-03T08:25:34.756Z</time></trkpt><trkpt lat="43.1123783" lon="10.8694603"><ele>423.0</ele><time>2026-05-03T08:25:35.752Z</time></trkpt><trkpt lat="43.1123315" lon="10.869652"><ele>423.0</ele><time>2026-05-03T08:25:36.745Z</time></trkpt><trkpt lat="43.1122894" lon="10.8698332"><ele>423.0</ele><time>2026-05-03T08:25:37.755Z</time></trkpt><trkpt lat="43.1122597" lon="10.870005"><ele>423.0</ele><time>2026-05-03T08:25:38.751Z</time></trkpt><trkpt lat="43.1122608" lon="10.8701881"><ele>423.0</ele><time>2026-05-03T08:25:39.75Z</time></trkpt><trkpt lat="43.1122843" lon="10.8703637"><ele>423.66666666666663</ele><time>2026-05-03T08:25:40.757Z</time></trkpt><trkpt lat="43.1123252" lon="10.870546"><ele>424.3333333333333</ele><time>2026-05-03T08:25:41.752Z</time></trkpt><trkpt lat="43.1123663" lon="10.8707412"><ele>425.0</ele><time>2026-05-03T08:25:42.756Z</time></trkpt><trkpt lat="43.1123848" lon="10.8709686"><ele>428.66666666666663</ele><time>2026-05-03T08:25:43.765Z</time></trkpt><trkpt lat="43.1124154" lon="10.8712005"><ele>432.33333333333337</ele><time>2026-05-03T08:25:44.757Z</time></trkpt><trkpt lat="43.1124459" lon="10.8714368"><ele>436.0</ele><time>2026-05-03T08:25:45.765Z</time></trkpt><trkpt lat="43.1124793" lon="10.8716671"><ele>434.33333333333337</ele><time>2026-05-03T08:25:46.753Z</time></trkpt><trkpt lat="43.1125104" lon="10.8719023"><ele>432.66666666666663</ele><time>2026-05-03T08:25:47.758Z</time></trkpt><trkpt lat="43.1125388" lon="10.8721289"><ele>431.0</ele><time>2026-05-03T08:25:48.755Z</time></trkpt><trkpt lat="43.1125692" lon="10.8723421"><ele>431.0</ele><time>2026-05-03T08:25:49.76Z</time></trkpt><trkpt lat="43.1126018" lon="10.8725394"><ele>431.0</ele><time>2026-05-03T08:25:50.755Z</time></trkpt><trkpt lat="43.112636" lon="10.8727241"><ele>431.0</ele><time>2026-05-03T08:25:51.765Z</time></trkpt><trkpt lat="43.1126693" lon="10.8729025"><ele>431.0</ele><time>2026-05-03T08:25:52.752Z</time></trkpt><trkpt lat="43.1127018" lon="10.8730651"><ele>429.99999999999994</ele><time>2026-05-03T08:25:53.752Z</time></trkpt><trkpt lat="43.1127253" lon="10.8732033"><ele>429.0</ele><time>2026-05-03T08:25:54.749Z</time></trkpt><trkpt lat="43.1127433" lon="10.8733301"><ele>428.0</ele><time>2026-05-03T08:25:55.762Z</time></trkpt><trkpt lat="43.1127589" lon="10.8734454"><ele>427.0</ele><time>2026-05-03T08:25:56.761Z</time></trkpt><trkpt lat="43.1127755" lon="10.8735501"><ele>425.99999999999994</ele><time>2026-05-03T08:25:57.759Z</time></trkpt><trkpt lat="43.1127905" lon="10.8736462"><ele>425.0</ele><time>2026-05-03T08:25:58.755Z</time></trkpt><trkpt lat="43.1128021" lon="10.8737369"><ele>424.99999999999994</ele><time>2026-05-03T08:25:59.76Z</time></trkpt><trkpt lat="43.1128121" lon="10.8738248"><ele>425.0</ele><time>2026-05-03T08:26:00.752Z</time></trkpt><trkpt lat="43.1128333" lon="10.8739631"><ele>425.0</ele><time>2026-05-03T08:26:02.753Z</time></trkpt><trkpt lat="43.1128521" lon="10.8740571"><ele>425.0</ele><time>2026-05-03T08:28:12.753Z</time></trkpt><trkpt lat="43.1128675" lon="10.8741745"><ele>424.99999999999994</ele><time>2026-05-03T08:28:14.753Z</time></trkpt><trkpt lat="43.1128766" lon="10.8743118"><ele>425.0</ele><time>2026-05-03T08:28:16.754Z</time></trkpt><trkpt lat="43.1128702" lon="10.8744835"><ele>426.16666666666663</ele><time>2026-05-03T08:28:18.746Z</time></trkpt><trkpt lat="43.1128438" lon="10.8745865"><ele>427.3333333333333</ele><time>2026-05-03T08:28:19.761Z</time></trkpt><trkpt lat="43.1128044" lon="10.874688"><ele>428.5</ele><time>2026-05-03T08:28:20.76Z</time></trkpt><trkpt lat="43.1127471" lon="10.8747784"><ele>429.66666666666663</ele><time>2026-05-03T08:28:21.751Z</time></trkpt><trkpt lat="43.1126722" lon="10.8748509"><ele>430.8333333333333</ele><time>2026-05-03T08:28:22.757Z</time></trkpt><trkpt lat="43.1125922" lon="10.8749267"><ele>432.0</ele><time>2026-05-03T08:28:23.757Z</time></trkpt><trkpt lat="43.1125124" lon="10.8749965"><ele>432.0</ele><time>2026-05-03T08:28:24.756Z</time></trkpt><trkpt lat="43.1124242" lon="10.8750715"><ele>432.00000000000006</ele><time>2026-05-03T08:28:25.764Z</time></trkpt><trkpt lat="43.1123451" lon="10.8751506"><ele>432.00000000000006</ele><time>2026-05-03T08:28:26.747Z</time></trkpt><trkpt lat="43.1122741" lon="10.875233"><ele>432.0</ele><time>2026-05-03T08:28:27.759Z</time></trkpt><trkpt lat="43.1122066" lon="10.8752881"><ele>432.0</ele><time>2026-05-03T08:28:28.76Z</time></trkpt><trkpt lat="43.1121262" lon="10.8753257"><ele>433.0</ele><time>2026-05-03T08:28:29.754Z</time></trkpt><trkpt lat="43.1120422" lon="10.8753514"><ele>434.00000000000006</ele><time>2026-05-03T08:28:30.745Z</time></trkpt><trkpt lat="43.1119502" lon="10.8753721"><ele>435.00000000000006</ele><time>2026-05-03T08:28:31.746Z</time></trkpt><trkpt lat="43.1118456" lon="10.8753844"><ele>436.0</ele><time>2026-05-03T08:28:32.753Z</time></trkpt><trkpt lat="43.1117373" lon="10.875387"><ele>437.0</ele><time>2026-05-03T08:28:33.753Z</time></trkpt><trkpt lat="43.1116238" lon="10.8753894"><ele>434.5</ele><time>2026-05-03T08:28:34.743Z</time></trkpt><trkpt lat="43.1115062" lon="10.8753977"><ele>432.0</ele><time>2026-05-03T08:28:35.755Z</time></trkpt><trkpt lat="43.1113913" lon="10.8754053"><ele>429.5</ele><time>2026-05-03T08:28:36.763Z</time></trkpt><trkpt lat="43.111271" lon="10.875407"><ele>427.0</ele><time>2026-05-03T08:28:37.755Z</time></trkpt><trkpt lat="43.1111577" lon="10.8754132"><ele>427.0</ele><time>2026-05-03T08:28:38.75Z</time></trkpt><trkpt lat="43.1110436" lon="10.8754189"><ele>427.0</ele><time>2026-05-03T08:28:39.76Z</time></trkpt><trkpt lat="43.1109315" lon="10.8754336"><ele>427.0</ele><time>2026-05-03T08:28:40.75Z</time></trkpt><trkpt lat="43.1108197" lon="10.875463"><ele>427.0</ele><time>2026-05-03T08:28:41.762Z</time></trkpt><trkpt lat="43.1107136" lon="10.8755097"><ele>424.6</ele><time>2026-05-03T08:28:42.749Z</time></trkpt><trkpt lat="43.1106099" lon="10.8755811"><ele>422.20000000000005</ele><time>2026-05-03T08:28:43.757Z</time></trkpt><trkpt lat="43.1105088" lon="10.875655"><ele>419.8</ele><time>2026-05-03T08:28:44.765Z</time></trkpt><trkpt lat="43.1104068" lon="10.8757187"><ele>417.4</ele><time>2026-05-03T08:28:45.757Z</time></trkpt><trkpt lat="43.1103144" lon="10.8757699"><ele>415.0</ele><time>2026-05-03T08:28:46.756Z</time></trkpt><trkpt lat="43.1102403" lon="10.8758217"><ele>415.00000000000006</ele><time>2026-05-03T08:28:47.755Z</time></trkpt><trkpt lat="43.1101849" lon="10.8758863"><ele>415.0</ele><time>2026-05-03T08:28:48.763Z</time></trkpt><trkpt lat="43.1101457" lon="10.8759623"><ele>415.0</ele><time>2026-05-03T08:28:49.747Z</time></trkpt><trkpt lat="43.1101198" lon="10.8760529"><ele>415.0</ele><time>2026-05-03T08:28:50.749Z</time></trkpt><trkpt lat="43.1101161" lon="10.8761582"><ele>415.00000000000006</ele><time>2026-05-03T08:28:51.762Z</time></trkpt><trkpt lat="43.1101367" lon="10.8762751"><ele>415.0</ele><time>2026-05-03T08:28:52.754Z</time></trkpt><trkpt lat="43.1101736" lon="10.8763889"><ele>414.00000000000006</ele><time>2026-05-03T08:28:53.766Z</time></trkpt><trkpt lat="43.1102275" lon="10.8764811"><ele>413.0</ele><time>2026-05-03T08:28:54.75Z</time></trkpt><trkpt lat="43.110296" lon="10.8765446"><ele>412.0</ele><time>2026-05-03T08:28:55.752Z</time></trkpt><trkpt lat="43.1103706" lon="10.8766012"><ele>411.0</ele><time>2026-05-03T08:28:56.761Z</time></trkpt><trkpt lat="43.1104443" lon="10.8766528"><ele>410.00000000000006</ele><time>2026-05-03T08:28:57.752Z</time></trkpt><trkpt lat="43.1105117" lon="10.8766982"><ele>409.0</ele><time>2026-05-03T08:28:58.767Z</time></trkpt><trkpt lat="43.1105717" lon="10.8767433"><ele>409.1428571428571</ele><time>2026-05-03T08:28:59.765Z</time></trkpt><trkpt lat="43.1106268" lon="10.8767908"><ele>409.28571428571433</ele><time>2026-05-03T08:29:00.748Z</time></trkpt><trkpt lat="43.1106821" lon="10.8768397"><ele>409.42857142857144</ele><time>2026-05-03T08:29:01.761Z</time></trkpt><trkpt lat="43.1107388" lon="10.8768873"><ele>409.57142857142856</ele><time>2026-05-03T08:29:02.747Z</time></trkpt><trkpt lat="43.110801" lon="10.876932"><ele>409.71428571428567</ele><time>2026-05-03T08:29:03.773Z</time></trkpt><trkpt lat="43.1108648" lon="10.8769771"><ele>409.8571428571429</ele><time>2026-05-03T08:29:04.751Z</time></trkpt><trkpt lat="43.1109391" lon="10.8770286"><ele>410.0</ele><time>2026-05-03T08:29:05.758Z</time></trkpt><trkpt lat="43.111009" lon="10.8770767"><ele>410.0</ele><time>2026-05-03T08:29:06.748Z</time></trkpt><trkpt lat="43.1110739" lon="10.8771437"><ele>410.0</ele><time>2026-05-03T08:29:07.745Z</time></trkpt><trkpt lat="43.1111231" lon="10.8772201"><ele>410.0</ele><time>2026-05-03T08:29:08.753Z</time></trkpt><trkpt lat="43.1111381" lon="10.8773109"><ele>410.0</ele><time>2026-05-03T08:29:09.755Z</time></trkpt><trkpt lat="43.1111276" lon="10.8773972"><ele>410.0</ele><time>2026-05-03T08:29:10.738Z</time></trkpt><trkpt lat="43.111099" lon="10.8774801"><ele>410.0</ele><time>2026-05-03T08:29:11.761Z</time></trkpt><trkpt lat="43.1110543" lon="10.8775753"><ele>410.0</ele><time>2026-05-03T08:29:12.75Z</time></trkpt><trkpt lat="43.1110112" lon="10.8776772"><ele>408.8333333333333</ele><time>2026-05-03T08:29:13.768Z</time></trkpt><trkpt lat="43.1109856" lon="10.8777865"><ele>407.66666666666663</ele><time>2026-05-03T08:29:14.757Z</time></trkpt><trkpt lat="43.1109753" lon="10.8778957"><ele>406.5</ele><time>2026-05-03T08:29:15.745Z</time></trkpt><trkpt lat="43.1109952" lon="10.8780078"><ele>405.33333333333337</ele><time>2026-05-03T08:29:16.753Z</time></trkpt><trkpt lat="43.1110243" lon="10.8781095"><ele>404.1666666666667</ele><time>2026-05-03T08:29:17.752Z</time></trkpt><trkpt lat="43.1110692" lon="10.8782179"><ele>403.0</ele><time>2026-05-03T08:29:18.755Z</time></trkpt><trkpt lat="43.1111027" lon="10.8783326"><ele>402.4</ele><time>2026-05-03T08:29:19.751Z</time></trkpt><trkpt lat="43.1111266" lon="10.8784491"><ele>401.79999999999995</ele><time>2026-05-03T08:29:20.739Z</time></trkpt><trkpt lat="43.1111376" lon="10.8785715"><ele>401.2</ele><time>2026-05-03T08:29:21.76Z</time></trkpt><trkpt lat="43.1111298" lon="10.8786972"><ele>400.6</ele><time>2026-05-03T08:29:22.748Z</time></trkpt><trkpt lat="43.1111142" lon="10.8788274"><ele>400.0</ele><time>2026-05-03T08:29:23.747Z</time></trkpt><trkpt lat="43.1110948" lon="10.8789477"><ele>400.0</ele><time>2026-05-03T08:29:24.757Z</time></trkpt><trkpt lat="43.1110705" lon="10.8790687"><ele>400.0</ele><time>2026-05-03T08:29:25.744Z</time></trkpt><trkpt lat="43.1110508" lon="10.8791893"><ele>400.0</ele><time>2026-05-03T08:29:26.754Z</time></trkpt><trkpt lat="43.11103" lon="10.8793123"><ele>400.0</ele><time>2026-05-03T08:29:27.765Z</time></trkpt><trkpt lat="43.111021" lon="10.8794359"><ele>400.0</ele><time>2026-05-03T08:29:28.735Z</time></trkpt><trkpt lat="43.111032" lon="10.8795532"><ele>398.6666666666667</ele><time>2026-05-03T08:29:29.759Z</time></trkpt><trkpt lat="43.111068" lon="10.8796733"><ele>397.33333333333337</ele><time>2026-05-03T08:29:30.752Z</time></trkpt><trkpt lat="43.1111204" lon="10.8797837"><ele>396.0</ele><time>2026-05-03T08:29:31.764Z</time></trkpt><trkpt lat="43.1111766" lon="10.8798899"><ele>394.66666666666663</ele><time>2026-05-03T08:29:32.751Z</time></trkpt><trkpt lat="43.1112307" lon="10.8799826"><ele>393.3333333333333</ele><time>2026-05-03T08:29:33.76Z</time></trkpt><trkpt lat="43.1112741" lon="10.8800665"><ele>392.0</ele><time>2026-05-03T08:29:34.771Z</time></trkpt><trkpt lat="43.1113093" lon="10.88015"><ele>392.20000000000005</ele><time>2026-05-03T08:29:35.762Z</time></trkpt><trkpt lat="43.1113733" lon="10.8802978"><ele>392.4</ele><time>2026-05-03T08:29:37.759Z</time></trkpt><trkpt lat="43.1114175" lon="10.8803597"><ele>392.6</ele><time>2026-05-03T08:29:38.748Z</time></trkpt><trkpt lat="43.111503" lon="10.8804612"><ele>392.79999999999995</ele><time>2026-05-03T08:29:40.759Z</time></trkpt><trkpt lat="43.111585" lon="10.8805261"><ele>393.0</ele><time>2026-05-03T08:29:42.75Z</time></trkpt><trkpt lat="43.1116518" lon="10.8805719"><ele>393.0</ele><time>2026-05-03T08:29:44.755Z</time></trkpt><trkpt lat="43.1117249" lon="10.8806212"><ele>393.0</ele><time>2026-05-03T08:29:46.754Z</time></trkpt><trkpt lat="43.1117976" lon="10.8806714"><ele>393.0</ele><time>2026-05-03T08:29:48.751Z</time></trkpt><trkpt lat="43.1118685" lon="10.8807081"><ele>393.0</ele><time>2026-05-03T08:29:49.752Z</time></trkpt><trkpt lat="43.1119469" lon="10.8807524"><ele>393.0</ele><time>2026-05-03T08:29:50.742Z</time></trkpt><trkpt lat="43.1120354" lon="10.8808022"><ele>393.0</ele><time>2026-05-03T08:29:51.758Z</time></trkpt><trkpt lat="43.1121285" lon="10.8808652"><ele>393.0</ele><time>2026-05-03T08:29:52.758Z</time></trkpt><trkpt lat="43.1122245" lon="10.8809233"><ele>393.0</ele><time>2026-05-03T08:29:53.745Z</time></trkpt><trkpt lat="43.1123194" lon="10.8809616"><ele>393.0</ele><time>2026-05-03T08:29:54.744Z</time></trkpt><trkpt lat="43.1124069" lon="10.8809782"><ele>393.0</ele><time>2026-05-03T08:29:55.757Z</time></trkpt><trkpt lat="43.1124897" lon="10.8809588"><ele>393.0</ele><time>2026-05-03T08:29:56.745Z</time></trkpt><trkpt lat="43.112562" lon="10.8809068"><ele>393.1666666666667</ele><time>2026-05-03T08:29:57.75Z</time></trkpt><trkpt lat="43.1126247" lon="10.8808301"><ele>393.33333333333337</ele><time>2026-05-03T08:29:58.752Z</time></trkpt><trkpt lat="43.1126903" lon="10.8807465"><ele>393.5</ele><time>2026-05-03T08:29:59.747Z</time></trkpt><trkpt lat="43.1127661" lon="10.8806753"><ele>393.6666666666667</ele><time>2026-05-03T08:30:00.755Z</time></trkpt><trkpt lat="43.1128441" lon="10.8806316"><ele>393.83333333333337</ele><time>2026-05-03T08:30:01.754Z</time></trkpt><trkpt lat="43.1129109" lon="10.8806268"><ele>394.0</ele><time>2026-05-03T08:30:02.761Z</time></trkpt><trkpt lat="43.1130094" lon="10.8807307"><ele>394.0</ele><time>2026-05-03T08:30:04.748Z</time></trkpt><trkpt lat="43.1130384" lon="10.8808217"><ele>394.0</ele><time>2026-05-03T08:30:05.753Z</time></trkpt><trkpt lat="43.113075" lon="10.8809306"><ele>394.0</ele><time>2026-05-03T08:30:06.744Z</time></trkpt><trkpt lat="43.1131028" lon="10.8810602"><ele>394.0</ele><time>2026-05-03T08:30:07.753Z</time></trkpt><trkpt lat="43.1131296" lon="10.8812034"><ele>394.0</ele><time>2026-05-03T08:30:08.749Z</time></trkpt><trkpt lat="43.1131597" lon="10.8813536"><ele>392.0</ele><time>2026-05-03T08:30:09.762Z</time></trkpt><trkpt lat="43.1131896" lon="10.8815015"><ele>390.0</ele><time>2026-05-03T08:30:10.75Z</time></trkpt><trkpt lat="43.1132168" lon="10.8816518"><ele>388.0</ele><time>2026-05-03T08:30:11.751Z</time></trkpt><trkpt lat="43.1132393" lon="10.8818051"><ele>386.0</ele><time>2026-05-03T08:30:12.75Z</time></trkpt><trkpt lat="43.1132605" lon="10.8819569"><ele>386.0</ele><time>2026-05-03T08:30:13.741Z</time></trkpt><trkpt lat="43.1132812" lon="10.8821123"><ele>386.0</ele><time>2026-05-03T08:30:14.737Z</time></trkpt><trkpt lat="43.1133045" lon="10.8822674"><ele>386.0</ele><time>2026-05-03T08:30:15.764Z</time></trkpt><trkpt lat="43.1133261" lon="10.8824173"><ele>386.0</ele><time>2026-05-03T08:30:16.746Z</time></trkpt><trkpt lat="43.1133508" lon="10.8825727"><ele>385.6</ele><time>2026-05-03T08:30:17.755Z</time></trkpt><trkpt lat="43.1133745" lon="10.8827245"><ele>385.20000000000005</ele><time>2026-05-03T08:30:18.731Z</time></trkpt><trkpt lat="43.1133922" lon="10.8828784"><ele>384.79999999999995</ele><time>2026-05-03T08:30:19.75Z</time></trkpt><trkpt lat="43.113396" lon="10.8830187"><ele>384.4</ele><time>2026-05-03T08:30:20.75Z</time></trkpt><trkpt lat="43.1133801" lon="10.8831505"><ele>384.0</ele><time>2026-05-03T08:30:21.754Z</time></trkpt><trkpt lat="43.1133499" lon="10.8832689"><ele>384.0</ele><time>2026-05-03T08:30:22.75Z</time></trkpt><trkpt lat="43.1133124" lon="10.8833637"><ele>384.0</ele><time>2026-05-03T08:30:23.753Z</time></trkpt><trkpt lat="43.1132681" lon="10.883453"><ele>384.0</ele><time>2026-05-03T08:30:24.743Z</time></trkpt><trkpt lat="43.113221" lon="10.8835444"><ele>384.0</ele><time>2026-05-03T08:30:25.761Z</time></trkpt><trkpt lat="43.1131735" lon="10.8836392"><ele>384.0</ele><time>2026-05-03T08:30:26.76Z</time></trkpt><trkpt lat="43.113131" lon="10.8837413"><ele>384.0</ele><time>2026-05-03T08:30:27.763Z</time></trkpt><trkpt lat="43.1130834" lon="10.883853"><ele>384.79999999999995</ele><time>2026-05-03T08:30:28.754Z</time></trkpt><trkpt lat="43.1130321" lon="10.8839657"><ele>385.59999999999997</ele><time>2026-05-03T08:30:29.755Z</time></trkpt><trkpt lat="43.1129821" lon="10.8840832"><ele>386.4</ele><time>2026-05-03T08:30:30.741Z</time></trkpt><trkpt lat="43.1129325" lon="10.8841927"><ele>387.2</ele><time>2026-05-03T08:30:31.759Z</time></trkpt><trkpt lat="43.1128855" lon="10.8843099"><ele>388.0</ele><time>2026-05-03T08:30:32.757Z</time></trkpt><trkpt lat="43.1128366" lon="10.8844263"><ele>388.59999999999997</ele><time>2026-05-03T08:30:33.769Z</time></trkpt><trkpt lat="43.1127741" lon="10.884541"><ele>389.2</ele><time>2026-05-03T08:30:34.757Z</time></trkpt><trkpt lat="43.1127196" lon="10.884664"><ele>389.8</ele><time>2026-05-03T08:30:35.755Z</time></trkpt><trkpt lat="43.1126657" lon="10.8847903"><ele>390.4</ele><time>2026-05-03T08:30:36.75Z</time></trkpt><trkpt lat="43.1126227" lon="10.8849128"><ele>391.0</ele><time>2026-05-03T08:30:37.761Z</time></trkpt><trkpt lat="43.1125749" lon="10.885034"><ele>391.20000000000005</ele><time>2026-05-03T08:30:38.749Z</time></trkpt><trkpt lat="43.1125207" lon="10.8851522"><ele>391.40000000000003</ele><time>2026-05-03T08:30:39.749Z</time></trkpt><trkpt lat="43.1124602" lon="10.8852723"><ele>391.6</ele><time>2026-05-03T08:30:40.759Z</time></trkpt><trkpt lat="43.1124048" lon="10.8853975"><ele>391.8</ele><time>2026-05-03T08:30:41.766Z</time></trkpt><trkpt lat="43.1123532" lon="10.8855124"><ele>392.0</ele><time>2026-05-03T08:30:42.766Z</time></trkpt><trkpt lat="43.1123227" lon="10.8856201"><ele>391.99999999999994</ele><time>2026-05-03T08:30:43.749Z</time></trkpt><trkpt lat="43.1123207" lon="10.8857257"><ele>392.0</ele><time>2026-05-03T08:30:44.754Z</time></trkpt><trkpt lat="43.1123454" lon="10.8858392"><ele>392.0</ele><time>2026-05-03T08:30:45.753Z</time></trkpt><trkpt lat="43.1123792" lon="10.8859563"><ele>392.0</ele><time>2026-05-03T08:30:46.752Z</time></trkpt><trkpt lat="43.1124314" lon="10.8860662"><ele>391.99999999999994</ele><time>2026-05-03T08:30:47.758Z</time></trkpt><trkpt lat="43.1124946" lon="10.8861672"><ele>392.0</ele><time>2026-05-03T08:30:48.757Z</time></trkpt><trkpt lat="43.1125635" lon="10.8862644"><ele>395.0</ele><time>2026-05-03T08:30:49.748Z</time></trkpt><trkpt lat="43.1126527" lon="10.8863289"><ele>398.0</ele><time>2026-05-03T08:30:50.753Z</time></trkpt><trkpt lat="43.1127442" lon="10.8863666"><ele>401.0</ele><time>2026-05-03T08:30:51.754Z</time></trkpt><trkpt lat="43.11284" lon="10.8863945"><ele>404.0</ele><time>2026-05-03T08:30:52.745Z</time></trkpt><trkpt lat="43.1129313" lon="10.8864167"><ele>407.0</ele><time>2026-05-03T08:30:53.759Z</time></trkpt><trkpt lat="43.1130268" lon="10.8864375"><ele>407.0</ele><time>2026-05-03T08:30:54.764Z</time></trkpt><trkpt lat="43.1131157" lon="10.8864743"><ele>407.0</ele><time>2026-05-03T08:30:55.75Z</time></trkpt><trkpt lat="43.1131974" lon="10.886538"><ele>407.0</ele><time>2026-05-03T08:30:56.759Z</time></trkpt><trkpt lat="43.1132598" lon="10.8866356"><ele>407.0</ele><time>2026-05-03T08:30:57.742Z</time></trkpt><trkpt lat="43.1133094" lon="10.8867461"><ele>407.0</ele><time>2026-05-03T08:30:58.745Z</time></trkpt><trkpt lat="43.113359" lon="10.8868709"><ele>407.20000000000005</ele><time>2026-05-03T08:30:59.753Z</time></trkpt><trkpt lat="43.1134202" lon="10.8869959"><ele>407.4</ele><time>2026-05-03T08:31:00.751Z</time></trkpt><trkpt lat="43.1134922" lon="10.8871172"><ele>407.6</ele><time>2026-05-03T08:31:01.745Z</time></trkpt><trkpt lat="43.1135618" lon="10.8872361"><ele>407.79999999999995</ele><time>2026-05-03T08:31:02.751Z</time></trkpt><trkpt lat="43.1136302" lon="10.8873592"><ele>408.0</ele><time>2026-05-03T08:31:03.748Z</time></trkpt><trkpt lat="43.1136835" lon="10.8874865"><ele>408.0</ele><time>2026-05-03T08:31:04.756Z</time></trkpt><trkpt lat="43.1137257" lon="10.8876343"><ele>408.0</ele><time>2026-05-03T08:31:05.761Z</time></trkpt><trkpt lat="43.1137521" lon="10.8877895"><ele>408.0</ele><time>2026-05-03T08:31:06.742Z</time></trkpt><trkpt lat="43.1137768" lon="10.8879413"><ele>408.0</ele><time>2026-05-03T08:31:07.759Z</time></trkpt><trkpt lat="43.1138019" lon="10.888086"><ele>408.0</ele><time>2026-05-03T08:31:08.75Z</time></trkpt><trkpt lat="43.1138203" lon="10.8882269"><ele>408.0</ele><time>2026-05-03T08:31:09.757Z</time></trkpt><trkpt lat="43.1138145" lon="10.8883603"><ele>408.0</ele><time>2026-05-03T08:31:10.75Z</time></trkpt><trkpt lat="43.1137863" lon="10.8884935"><ele>408.0</ele><time>2026-05-03T08:31:11.757Z</time></trkpt><trkpt lat="43.1137436" lon="10.8886234"><ele>408.0</ele><time>2026-05-03T08:31:12.76Z</time></trkpt><trkpt lat="43.1136886" lon="10.8887407"><ele>410.0</ele><time>2026-05-03T08:31:13.764Z</time></trkpt><trkpt lat="43.1136354" lon="10.8888624"><ele>412.0</ele><time>2026-05-03T08:31:14.75Z</time></trkpt><trkpt lat="43.1136087" lon="10.8890022"><ele>414.0</ele><time>2026-05-03T08:31:15.751Z</time></trkpt><trkpt lat="43.1136073" lon="10.8891511"><ele>416.0</ele><time>2026-05-03T08:31:16.741Z</time></trkpt><trkpt lat="43.1136379" lon="10.8892928"><ele>418.0</ele><time>2026-05-03T08:31:17.752Z</time></trkpt><trkpt lat="43.1136993" lon="10.8894143"><ele>420.4</ele><time>2026-05-03T08:31:18.741Z</time></trkpt><trkpt lat="43.1137742" lon="10.8895259"><ele>422.79999999999995</ele><time>2026-05-03T08:31:19.776Z</time></trkpt><trkpt lat="43.1138395" lon="10.8896451"><ele>425.2</ele><time>2026-05-03T08:31:20.766Z</time></trkpt><trkpt lat="43.1139033" lon="10.8897691"><ele>427.6</ele><time>2026-05-03T08:31:21.757Z</time></trkpt><trkpt lat="43.1139605" lon="10.8898929"><ele>430.0</ele><time>2026-05-03T08:31:22.752Z</time></trkpt><trkpt lat="43.1140117" lon="10.8900197"><ele>432.0</ele><time>2026-05-03T08:31:23.754Z</time></trkpt><trkpt lat="43.1140692" lon="10.890149"><ele>434.0</ele><time>2026-05-03T08:31:24.761Z</time></trkpt><trkpt lat="43.1141137" lon="10.8902843"><ele>436.0</ele><time>2026-05-03T08:31:25.745Z</time></trkpt><trkpt lat="43.1141387" lon="10.8904267"><ele>438.0</ele><time>2026-05-03T08:31:26.76Z</time></trkpt><trkpt lat="43.1141391" lon="10.890578"><ele>440.0</ele><time>2026-05-03T08:31:27.754Z</time></trkpt><trkpt lat="43.1141384" lon="10.8907364"><ele>441.25</ele><time>2026-05-03T08:31:28.738Z</time></trkpt><trkpt lat="43.114138" lon="10.8908991"><ele>442.5</ele><time>2026-05-03T08:31:29.757Z</time></trkpt><trkpt lat="43.1141321" lon="10.8910586"><ele>443.75</ele><time>2026-05-03T08:31:30.757Z</time></trkpt><trkpt lat="43.1141258" lon="10.8912239"><ele>445.0</ele><time>2026-05-03T08:31:31.749Z</time></trkpt><trkpt lat="43.1141176" lon="10.8913851"><ele>446.1666666666667</ele><time>2026-05-03T08:31:32.756Z</time></trkpt><trkpt lat="43.1141094" lon="10.891524"><ele>447.33333333333337</ele><time>2026-05-03T08:31:33.765Z</time></trkpt><trkpt lat="43.1140758" lon="10.8916344"><ele>448.5</ele><time>2026-05-03T08:31:34.738Z</time></trkpt><trkpt lat="43.1140186" lon="10.8916948"><ele>449.66666666666663</ele><time>2026-05-03T08:31:35.755Z</time></trkpt><trkpt lat="43.1139482" lon="10.8917124"><ele>450.8333333333333</ele><time>2026-05-03T08:31:36.754Z</time></trkpt><trkpt lat="43.1138713" lon="10.8916992"><ele>452.0</ele><time>2026-05-03T08:31:37.766Z</time></trkpt><trkpt lat="43.1137817" lon="10.8916613"><ele>452.0</ele><time>2026-05-03T08:31:38.756Z</time></trkpt><trkpt lat="43.1136947" lon="10.8916163"><ele>452.00000000000006</ele><time>2026-05-03T08:31:39.756Z</time></trkpt><trkpt lat="43.113626" lon="10.8916714"><ele>452.00000000000006</ele><time>2026-05-03T08:31:40.753Z</time></trkpt><trkpt lat="43.1135857" lon="10.8918041"><ele>452.0</ele><time>2026-05-03T08:31:41.762Z</time></trkpt><trkpt lat="43.113556" lon="10.8919441"><ele>452.0</ele><time>2026-05-03T08:31:42.751Z</time></trkpt><trkpt lat="43.1135322" lon="10.8920828"><ele>454.8</ele><time>2026-05-03T08:31:43.762Z</time></trkpt><trkpt lat="43.1135102" lon="10.8922165"><ele>457.6</ele><time>2026-05-03T08:31:44.749Z</time></trkpt><trkpt lat="43.1134734" lon="10.8923488"><ele>460.40000000000003</ele><time>2026-05-03T08:31:45.754Z</time></trkpt><trkpt lat="43.1134397" lon="10.892494"><ele>463.20000000000005</ele><time>2026-05-03T08:31:46.744Z</time></trkpt><trkpt lat="43.1133999" lon="10.8926543"><ele>466.0</ele><time>2026-05-03T08:31:47.761Z</time></trkpt><trkpt lat="43.1133591" lon="10.8928417"><ele>469.25</ele><time>2026-05-03T08:31:48.75Z</time></trkpt><trkpt lat="43.1133156" lon="10.8930482"><ele>472.5</ele><time>2026-05-03T08:31:49.745Z</time></trkpt><trkpt lat="43.1132756" lon="10.8932463"><ele>475.75</ele><time>2026-05-03T08:31:50.737Z</time></trkpt><trkpt lat="43.1132377" lon="10.8934229"><ele>479.0</ele><time>2026-05-03T08:31:51.754Z</time></trkpt><trkpt lat="43.1132106" lon="10.8935799"><ele>481.3333333333333</ele><time>2026-05-03T08:31:52.749Z</time></trkpt><trkpt lat="43.1131962" lon="10.8937174"><ele>483.66666666666663</ele><time>2026-05-03T08:31:53.748Z</time></trkpt><trkpt lat="43.1131852" lon="10.8938375"><ele>486.0</ele><time>2026-05-03T08:31:54.741Z</time></trkpt><trkpt lat="43.1131574" lon="10.893941"><ele>488.33333333333337</ele><time>2026-05-03T08:31:55.761Z</time></trkpt><trkpt lat="43.1131053" lon="10.8939929"><ele>490.6666666666667</ele><time>2026-05-03T08:31:56.752Z</time></trkpt><trkpt lat="43.1130076" lon="10.8939927"><ele>493.0</ele><time>2026-05-03T08:31:58.742Z</time></trkpt><trkpt lat="43.1129103" lon="10.8939336"><ele>493.0</ele><time>2026-05-03T08:32:00.737Z</time></trkpt><trkpt lat="43.1128401" lon="10.8938945"><ele>492.99999999999994</ele><time>2026-05-03T08:32:01.748Z</time></trkpt><trkpt lat="43.1127565" lon="10.89385"><ele>492.99999999999994</ele><time>2026-05-03T08:32:02.729Z</time></trkpt><trkpt lat="43.1126596" lon="10.893788"><ele>493.0</ele><time>2026-05-03T08:32:03.753Z</time></trkpt><trkpt lat="43.1125532" lon="10.8937191"><ele>493.0</ele><time>2026-05-03T08:32:04.742Z</time></trkpt><trkpt lat="43.1124371" lon="10.8936341"><ele>493.75</ele><time>2026-05-03T08:32:05.749Z</time></trkpt><trkpt lat="43.1123198" lon="10.8935433"><ele>494.5</ele><time>2026-05-03T08:32:06.735Z</time></trkpt><trkpt lat="43.1122017" lon="10.893463"><ele>495.25</ele><time>2026-05-03T08:32:07.746Z</time></trkpt><trkpt lat="43.1120821" lon="10.8933955"><ele>496.0</ele><time>2026-05-03T08:32:08.743Z</time></trkpt><trkpt lat="43.1119595" lon="10.893345"><ele>496.0</ele><time>2026-05-03T08:32:09.754Z</time></trkpt><trkpt lat="43.1118436" lon="10.8933202"><ele>496.0</ele><time>2026-05-03T08:32:10.758Z</time></trkpt><trkpt lat="43.1117284" lon="10.8933088"><ele>496.0</ele><time>2026-05-03T08:32:11.759Z</time></trkpt><trkpt lat="43.1116114" lon="10.8933066"><ele>496.0</ele><time>2026-05-03T08:32:12.744Z</time></trkpt><trkpt lat="43.1114969" lon="10.8933294"><ele>495.25</ele><time>2026-05-03T08:32:13.762Z</time></trkpt><trkpt lat="43.1113784" lon="10.8933713"><ele>494.5</ele><time>2026-05-03T08:32:14.737Z</time></trkpt><trkpt lat="43.1112602" lon="10.8934087"><ele>493.75</ele><time>2026-05-03T08:32:15.752Z</time></trkpt><trkpt lat="43.1111401" lon="10.8934302"><ele>493.0</ele><time>2026-05-03T08:32:16.743Z</time></trkpt><trkpt lat="43.1110256" lon="10.8934429"><ele>494.1666666666667</ele><time>2026-05-03T08:32:17.757Z</time></trkpt><trkpt lat="43.1109214" lon="10.8934566"><ele>495.33333333333337</ele><time>2026-05-03T08:32:18.745Z</time></trkpt><trkpt lat="43.1108308" lon="10.8934908"><ele>496.5</ele><time>2026-05-03T08:32:19.754Z</time></trkpt><trkpt lat="43.1107528" lon="10.8935457"><ele>497.66666666666663</ele><time>2026-05-03T08:32:20.742Z</time></trkpt><trkpt lat="43.1106971" lon="10.8936208"><ele>498.8333333333333</ele><time>2026-05-03T08:32:21.749Z</time></trkpt><trkpt lat="43.1106617" lon="10.8937197"><ele>500.0</ele><time>2026-05-03T08:32:22.754Z</time></trkpt><trkpt lat="43.1106512" lon="10.8938138"><ele>500.0</ele><time>2026-05-03T08:32:23.754Z</time></trkpt><trkpt lat="43.1106723" lon="10.8939026"><ele>500.0</ele><time>2026-05-03T08:32:24.764Z</time></trkpt><trkpt lat="43.1107119" lon="10.8940026"><ele>500.0</ele><time>2026-05-03T08:32:25.767Z</time></trkpt><trkpt lat="43.1107677" lon="10.8941088"><ele>500.0</ele><time>2026-05-03T08:32:26.75Z</time></trkpt><trkpt lat="43.1108315" lon="10.8942113"><ele>500.0</ele><time>2026-05-03T08:32:27.742Z</time></trkpt><trkpt lat="43.1109096" lon="10.8943123"><ele>499.2</ele><time>2026-05-03T08:32:28.754Z</time></trkpt><trkpt lat="43.1109876" lon="10.8944031"><ele>498.4</ele><time>2026-05-03T08:32:29.761Z</time></trkpt><trkpt lat="43.11107" lon="10.8944941"><ele>497.6</ele><time>2026-05-03T08:32:30.762Z</time></trkpt><trkpt lat="43.1111563" lon="10.8945907"><ele>496.8</ele><time>2026-05-03T08:32:31.758Z</time></trkpt><trkpt lat="43.1112397" lon="10.8946806"><ele>496.0</ele><time>2026-05-03T08:32:32.757Z</time></trkpt><trkpt lat="43.1113252" lon="10.8947747"><ele>496.0</ele><time>2026-05-03T08:32:33.765Z</time></trkpt><trkpt lat="43.1114098" lon="10.894882"><ele>496.0</ele><time>2026-05-03T08:32:34.769Z</time></trkpt><trkpt lat="43.1114931" lon="10.8949878"><ele>496.0</ele><time>2026-05-03T08:32:35.759Z</time></trkpt><trkpt lat="43.111583" lon="10.895086"><ele>496.0</ele><time>2026-05-03T08:32:36.759Z</time></trkpt><trkpt lat="43.1116702" lon="10.8951928"><ele>500.5</ele><time>2026-05-03T08:32:37.761Z</time></trkpt><trkpt lat="43.111744" lon="10.8953135"><ele>505.0</ele><time>2026-05-03T08:32:38.759Z</time></trkpt><trkpt lat="43.1117978" lon="10.8954508"><ele>509.5</ele><time>2026-05-03T08:32:39.745Z</time></trkpt><trkpt lat="43.1118378" lon="10.8956003"><ele>514.0</ele><time>2026-05-03T08:32:40.754Z</time></trkpt><trkpt lat="43.1118627" lon="10.8957592"><ele>514.0</ele><time>2026-05-03T08:32:41.755Z</time></trkpt><trkpt lat="43.1118784" lon="10.8959151"><ele>514.0</ele><time>2026-05-03T08:32:42.745Z</time></trkpt><trkpt lat="43.1118722" lon="10.8960735"><ele>514.0</ele><time>2026-05-03T08:32:43.75Z</time></trkpt><trkpt lat="43.1118508" lon="10.8962271"><ele>514.0</ele><time>2026-05-03T08:32:44.746Z</time></trkpt><trkpt lat="43.1118117" lon="10.896372"><ele>514.0</ele><time>2026-05-03T08:32:45.75Z</time></trkpt><trkpt lat="43.1117648" lon="10.896507"><ele>514.0</ele><time>2026-05-03T08:32:46.762Z</time></trkpt><trkpt lat="43.111716" lon="10.8966407"><ele>514.0</ele><time>2026-05-03T08:32:47.748Z</time></trkpt><trkpt lat="43.1116681" lon="10.8967636"><ele>514.0</ele><time>2026-05-03T08:32:48.762Z</time></trkpt><trkpt lat="43.1116176" lon="10.8968736"><ele>514.0</ele><time>2026-05-03T08:32:49.757Z</time></trkpt><trkpt lat="43.1115665" lon="10.8969695"><ele>514.0</ele><time>2026-05-03T08:32:50.746Z</time></trkpt><trkpt lat="43.1115099" lon="10.8970609"><ele>514.0</ele><time>2026-05-03T08:32:51.741Z</time></trkpt><trkpt lat="43.1114409" lon="10.8971512"><ele>514.0</ele><time>2026-05-03T08:32:52.748Z</time></trkpt><trkpt lat="43.1113767" lon="10.8972492"><ele>514.0</ele><time>2026-05-03T08:32:53.76Z</time></trkpt><trkpt lat="43.1113099" lon="10.89735"><ele>514.0</ele><time>2026-05-03T08:32:54.749Z</time></trkpt><trkpt lat="43.1112392" lon="10.8974536"><ele>514.0</ele><time>2026-05-03T08:32:55.758Z</time></trkpt><trkpt lat="43.1111637" lon="10.8975628"><ele>514.0</ele><time>2026-05-03T08:32:56.74Z</time></trkpt><trkpt lat="43.1110966" lon="10.897667"><ele>514.0</ele><time>2026-05-03T08:32:57.763Z</time></trkpt><trkpt lat="43.1110289" lon="10.8977754"><ele>514.0</ele><time>2026-05-03T08:32:58.765Z</time></trkpt><trkpt lat="43.1109666" lon="10.8978902"><ele>514.0</ele><time>2026-05-03T08:32:59.756Z</time></trkpt><trkpt lat="43.1109135" lon="10.898017"><ele>515.4</ele><time>2026-05-03T08:33:00.754Z</time></trkpt><trkpt lat="43.1108698" lon="10.8981517"><ele>516.8</ele><time>2026-05-03T08:33:01.747Z</time></trkpt><trkpt lat="43.1108311" lon="10.8982937"><ele>518.2</ele><time>2026-05-03T08:33:02.757Z</time></trkpt><trkpt lat="43.110807" lon="10.8984434"><ele>519.6</ele><time>2026-05-03T08:33:03.756Z</time></trkpt><trkpt lat="43.1107943" lon="10.8985849"><ele>521.0</ele><time>2026-05-03T08:33:04.744Z</time></trkpt><trkpt lat="43.1107941" lon="10.8987118"><ele>522.3333333333333</ele><time>2026-05-03T08:33:05.757Z</time></trkpt><trkpt lat="43.1108038" lon="10.8988295"><ele>523.6666666666666</ele><time>2026-05-03T08:33:06.736Z</time></trkpt><trkpt lat="43.110823" lon="10.8989353"><ele>525.0</ele><time>2026-05-03T08:33:07.765Z</time></trkpt><trkpt lat="43.1108557" lon="10.8990285"><ele>526.3333333333334</ele><time>2026-05-03T08:33:08.756Z</time></trkpt><trkpt lat="43.1109032" lon="10.8991034"><ele>527.6666666666667</ele><time>2026-05-03T08:33:09.772Z</time></trkpt><trkpt lat="43.1109665" lon="10.8991538"><ele>529.0</ele><time>2026-05-03T08:33:10.748Z</time></trkpt><trkpt lat="43.1110441" lon="10.8991848"><ele>529.0</ele><time>2026-05-03T08:33:11.753Z</time></trkpt><trkpt lat="43.1111278" lon="10.8991878"><ele>529.0</ele><time>2026-05-03T08:33:12.759Z</time></trkpt><trkpt lat="43.1111973" lon="10.8991598"><ele>529.0</ele><time>2026-05-03T08:33:13.751Z</time></trkpt><trkpt lat="43.1112701" lon="10.8991047"><ele>529.0</ele><time>2026-05-03T08:33:14.752Z</time></trkpt><trkpt lat="43.1113396" lon="10.8990464"><ele>529.0</ele><time>2026-05-03T08:33:15.748Z</time></trkpt><trkpt lat="43.1113989" lon="10.8989753"><ele>529.0</ele><time>2026-05-03T08:33:16.742Z</time></trkpt><trkpt lat="43.1114492" lon="10.8988872"><ele>529.0</ele><time>2026-05-03T08:33:17.752Z</time></trkpt><trkpt lat="43.1115061" lon="10.8987776"><ele>529.0</ele><time>2026-05-03T08:33:18.747Z</time></trkpt><trkpt lat="43.1115696" lon="10.898663"><ele>529.0</ele><time>2026-05-03T08:33:19.757Z</time></trkpt><trkpt lat="43.1116473" lon="10.8985539"><ele>529.0</ele><time>2026-05-03T08:33:20.739Z</time></trkpt><trkpt lat="43.1117407" lon="10.8984613"><ele>529.0</ele><time>2026-05-03T08:33:21.761Z</time></trkpt><trkpt lat="43.1118425" lon="10.898392"><ele>530.5</ele><time>2026-05-03T08:33:22.748Z</time></trkpt><trkpt lat="43.1119554" lon="10.8983566"><ele>532.0</ele><time>2026-05-03T08:33:23.759Z</time></trkpt><trkpt lat="43.1120768" lon="10.8983318"><ele>533.5</ele><time>2026-05-03T08:33:24.744Z</time></trkpt><trkpt lat="43.1121997" lon="10.8983234"><ele>535.0</ele><time>2026-05-03T08:33:25.765Z</time></trkpt><trkpt lat="43.1123216" lon="10.898317"><ele>537.5</ele><time>2026-05-03T08:33:26.742Z</time></trkpt><trkpt lat="43.1124503" lon="10.8983127"><ele>540.0</ele><time>2026-05-03T08:33:27.763Z</time></trkpt><trkpt lat="43.1125807" lon="10.8983134"><ele>542.5</ele><time>2026-05-03T08:33:28.76Z</time></trkpt><trkpt lat="43.112722" lon="10.8982941"><ele>545.0</ele><time>2026-05-03T08:33:29.754Z</time></trkpt><trkpt lat="43.1128594" lon="10.8982789"><ele>545.0</ele><time>2026-05-03T08:33:30.741Z</time></trkpt><trkpt lat="43.1129803" lon="10.8982678"><ele>545.0</ele><time>2026-05-03T08:33:31.747Z</time></trkpt><trkpt lat="43.1130967" lon="10.8982647"><ele>545.0</ele><time>2026-05-03T08:33:32.754Z</time></trkpt><trkpt lat="43.1131912" lon="10.8982894"><ele>545.0</ele><time>2026-05-03T08:33:33.751Z</time></trkpt><trkpt lat="43.1132709" lon="10.8983525"><ele>545.0</ele><time>2026-05-03T08:33:34.744Z</time></trkpt><trkpt lat="43.1133332" lon="10.8984402"><ele>547.8</ele><time>2026-05-03T08:33:35.755Z</time></trkpt><trkpt lat="43.1133758" lon="10.8985614"><ele>550.6</ele><time>2026-05-03T08:33:36.752Z</time></trkpt><trkpt lat="43.1134062" lon="10.8987024"><ele>553.4</ele><time>2026-05-03T08:33:37.754Z</time></trkpt><trkpt lat="43.1134265" lon="10.8988549"><ele>556.2</ele><time>2026-05-03T08:33:38.75Z</time></trkpt><trkpt lat="43.1134373" lon="10.8990162"><ele>559.0</ele><time>2026-05-03T08:33:39.749Z</time></trkpt><trkpt lat="43.1134391" lon="10.8991923"><ele>560.5</ele><time>2026-05-03T08:33:40.743Z</time></trkpt><trkpt lat="43.1134252" lon="10.8993725"><ele>562.0</ele><time>2026-05-03T08:33:41.747Z</time></trkpt><trkpt lat="43.1133973" lon="10.8995508"><ele>563.5</ele><time>2026-05-03T08:33:42.755Z</time></trkpt><trkpt lat="43.1133622" lon="10.8997286"><ele>565.0</ele><time>2026-05-03T08:33:43.758Z</time></trkpt><trkpt lat="43.1133154" lon="10.8999024"><ele>565.0</ele><time>2026-05-03T08:33:44.752Z</time></trkpt><trkpt lat="43.113267" lon="10.9000648"><ele>565.0</ele><time>2026-05-03T08:33:45.758Z</time></trkpt><trkpt lat="43.1132162" lon="10.9002263"><ele>565.0</ele><time>2026-05-03T08:33:46.752Z</time></trkpt><trkpt lat="43.1131693" lon="10.9003897"><ele>565.0</ele><time>2026-05-03T08:33:47.752Z</time></trkpt><trkpt lat="43.1131227" lon="10.9005458"><ele>565.75</ele><time>2026-05-03T08:33:48.75Z</time></trkpt><trkpt lat="43.1130763" lon="10.9006892"><ele>566.5</ele><time>2026-05-03T08:33:49.759Z</time></trkpt><trkpt lat="43.1130282" lon="10.9008374"><ele>567.25</ele><time>2026-05-03T08:33:50.747Z</time></trkpt><trkpt lat="43.1129872" lon="10.9009774"><ele>568.0</ele><time>2026-05-03T08:33:51.749Z</time></trkpt><trkpt lat="43.1129435" lon="10.9011205"><ele>568.4</ele><time>2026-05-03T08:33:52.748Z</time></trkpt><trkpt lat="43.1129056" lon="10.9012609"><ele>568.8</ele><time>2026-05-03T08:33:53.762Z</time></trkpt><trkpt lat="43.1128804" lon="10.9014085"><ele>569.2</ele><time>2026-05-03T08:33:54.747Z</time></trkpt><trkpt lat="43.1128733" lon="10.901548"><ele>569.6</ele><time>2026-05-03T08:33:55.769Z</time></trkpt><trkpt lat="43.1128821" lon="10.9016846"><ele>570.0</ele><time>2026-05-03T08:33:56.759Z</time></trkpt><trkpt lat="43.1129081" lon="10.901819"><ele>570.4</ele><time>2026-05-03T08:33:57.742Z</time></trkpt><trkpt lat="43.1129338" lon="10.9019552"><ele>570.8</ele><time>2026-05-03T08:33:58.745Z</time></trkpt><trkpt lat="43.1129666" lon="10.9020917"><ele>571.2</ele><time>2026-05-03T08:33:59.76Z</time></trkpt><trkpt lat="43.1130202" lon="10.9022157"><ele>571.6</ele><time>2026-05-03T08:34:00.753Z</time></trkpt><trkpt lat="43.1130851" lon="10.9023285"><ele>572.0</ele><time>2026-05-03T08:34:01.752Z</time></trkpt><trkpt lat="43.1131615" lon="10.9024194"><ele>574.1666666666666</ele><time>2026-05-03T08:34:02.744Z</time></trkpt><trkpt lat="43.1132425" lon="10.9024776"><ele>576.3333333333333</ele><time>2026-05-03T08:34:03.751Z</time></trkpt><trkpt lat="43.1133262" lon="10.9024983"><ele>578.5</ele><time>2026-05-03T08:34:04.757Z</time></trkpt><trkpt lat="43.1134029" lon="10.9024933"><ele>580.6666666666666</ele><time>2026-05-03T08:34:05.749Z</time></trkpt><trkpt lat="43.1134737" lon="10.9024695"><ele>582.8333333333334</ele><time>2026-05-03T08:34:06.743Z</time></trkpt><trkpt lat="43.1135468" lon="10.9024352"><ele>585.0</ele><time>2026-05-03T08:34:07.751Z</time></trkpt><trkpt lat="43.1136348" lon="10.9023895"><ele>585.0</ele><time>2026-05-03T08:34:08.757Z</time></trkpt><trkpt lat="43.1137253" lon="10.9023561"><ele>585.0</ele><time>2026-05-03T08:34:09.756Z</time></trkpt><trkpt lat="43.1138212" lon="10.9023396"><ele>585.0</ele><time>2026-05-03T08:34:10.75Z</time></trkpt><trkpt lat="43.1139116" lon="10.9023543"><ele>585.0</ele><time>2026-05-03T08:34:11.759Z</time></trkpt><trkpt lat="43.1140032" lon="10.9024102"><ele>585.0</ele><time>2026-05-03T08:34:12.752Z</time></trkpt><trkpt lat="43.114068" lon="10.9024861"><ele>586.3333333333334</ele><time>2026-05-03T08:34:13.752Z</time></trkpt><trkpt lat="43.1141088" lon="10.9025742"><ele>587.6666666666666</ele><time>2026-05-03T08:34:14.742Z</time></trkpt><trkpt lat="43.1141407" lon="10.9026678"><ele>589.0</ele><time>2026-05-03T08:34:15.758Z</time></trkpt><trkpt lat="43.1141545" lon="10.9027706"><ele>590.3333333333333</ele><time>2026-05-03T08:34:16.746Z</time></trkpt><trkpt lat="43.1141653" lon="10.9028766"><ele>591.6666666666666</ele><time>2026-05-03T08:34:17.764Z</time></trkpt><trkpt lat="43.1141801" lon="10.9029957"><ele>593.0</ele><time>2026-05-03T08:34:18.744Z</time></trkpt><trkpt lat="43.1141793" lon="10.9031208"><ele>593.6</ele><time>2026-05-03T08:34:19.754Z</time></trkpt><trkpt lat="43.114173" lon="10.9032433"><ele>594.1999999999999</ele><time>2026-05-03T08:34:20.747Z</time></trkpt><trkpt lat="43.1141607" lon="10.9033701"><ele>594.8</ele><time>2026-05-03T08:34:21.756Z</time></trkpt><trkpt lat="43.1141542" lon="10.9034966"><ele>595.4</ele><time>2026-05-03T08:34:22.757Z</time></trkpt><trkpt lat="43.1141625" lon="10.903632"><ele>596.0</ele><time>2026-05-03T08:34:23.76Z</time></trkpt><trkpt lat="43.1141897" lon="10.9037763"><ele>596.0</ele><time>2026-05-03T08:34:24.76Z</time></trkpt><trkpt lat="43.1142327" lon="10.9039135"><ele>596.0</ele><time>2026-05-03T08:34:25.758Z</time></trkpt><trkpt lat="43.1142797" lon="10.904045"><ele>596.0</ele><time>2026-05-03T08:34:26.761Z</time></trkpt><trkpt lat="43.1143288" lon="10.904186"><ele>596.0</ele><time>2026-05-03T08:34:27.758Z</time></trkpt><trkpt lat="43.1143786" lon="10.9043267"><ele>596.0</ele><time>2026-05-03T08:34:28.762Z</time></trkpt><trkpt lat="43.1144269" lon="10.9044788"><ele>595.0</ele><time>2026-05-03T08:34:29.767Z</time></trkpt><trkpt lat="43.1144687" lon="10.9046321"><ele>594.0</ele><time>2026-05-03T08:34:30.749Z</time></trkpt><trkpt lat="43.1145041" lon="10.9047848"><ele>593.0</ele><time>2026-05-03T08:34:31.756Z</time></trkpt><trkpt lat="43.1145444" lon="10.9049406"><ele>592.0</ele><time>2026-05-03T08:34:32.742Z</time></trkpt><trkpt lat="43.114584" lon="10.9050883"><ele>591.4</ele><time>2026-05-03T08:34:33.763Z</time></trkpt><trkpt lat="43.1146277" lon="10.9052259"><ele>590.8000000000001</ele><time>2026-05-03T08:34:34.745Z</time></trkpt><trkpt lat="43.1146866" lon="10.9053462"><ele>590.2</ele><time>2026-05-03T08:34:35.75Z</time></trkpt><trkpt lat="43.1147656" lon="10.9054527"><ele>589.6</ele><time>2026-05-03T08:34:36.749Z</time></trkpt><trkpt lat="43.1148586" lon="10.9055431"><ele>589.0</ele><time>2026-05-03T08:34:37.76Z</time></trkpt><trkpt lat="43.1149615" lon="10.9056174"><ele>588.0</ele><time>2026-05-03T08:34:38.754Z</time></trkpt><trkpt lat="43.1150755" lon="10.9056909"><ele>587.0</ele><time>2026-05-03T08:34:39.759Z</time></trkpt><trkpt lat="43.1151852" lon="10.9057746"><ele>586.0</ele><time>2026-05-03T08:34:40.751Z</time></trkpt><trkpt lat="43.1152887" lon="10.9058648"><ele>585.0</ele><time>2026-05-03T08:34:41.749Z</time></trkpt><trkpt lat="43.1153891" lon="10.9059569"><ele>585.0</ele><time>2026-05-03T08:34:42.757Z</time></trkpt><trkpt lat="43.115491" lon="10.9060304"><ele>585.0</ele><time>2026-05-03T08:34:43.756Z</time></trkpt><trkpt lat="43.1156018" lon="10.9060776"><ele>585.0</ele><time>2026-05-03T08:34:44.758Z</time></trkpt><trkpt lat="43.1157148" lon="10.9061056"><ele>585.0</ele><time>2026-05-03T08:34:45.764Z</time></trkpt><trkpt lat="43.1158301" lon="10.9061114"><ele>586.0</ele><time>2026-05-03T08:34:46.753Z</time></trkpt><trkpt lat="43.1159475" lon="10.9061087"><ele>587.0</ele><time>2026-05-03T08:34:47.769Z</time></trkpt><trkpt lat="43.1160673" lon="10.9060831"><ele>588.0</ele><time>2026-05-03T08:34:48.742Z</time></trkpt><trkpt lat="43.1161899" lon="10.9060445"><ele>589.0</ele><time>2026-05-03T08:34:49.763Z</time></trkpt><trkpt lat="43.1163126" lon="10.9059935"><ele>589.0</ele><time>2026-05-03T08:34:50.754Z</time></trkpt><trkpt lat="43.1164328" lon="10.9059417"><ele>589.0</ele><time>2026-05-03T08:34:51.751Z</time></trkpt><trkpt lat="43.1165506" lon="10.9058883"><ele>589.0</ele><time>2026-05-03T08:34:52.76Z</time></trkpt><trkpt lat="43.116659" lon="10.9058443"><ele>589.0</ele><time>2026-05-03T08:34:53.781Z</time></trkpt><trkpt lat="43.11676" lon="10.9058068"><ele>590.6666666666667</ele><time>2026-05-03T08:34:54.748Z</time></trkpt><trkpt lat="43.1168583" lon="10.905778"><ele>592.3333333333334</ele><time>2026-05-03T08:34:55.756Z</time></trkpt><trkpt lat="43.116953" lon="10.9057574"><ele>594.0</ele><time>2026-05-03T08:34:56.755Z</time></trkpt><trkpt lat="43.1170371" lon="10.905731"><ele>595.6666666666666</ele><time>2026-05-03T08:34:57.769Z</time></trkpt><trkpt lat="43.1171079" lon="10.9057123"><ele>597.3333333333333</ele><time>2026-05-03T08:34:58.76Z</time></trkpt><trkpt lat="43.1171792" lon="10.9056896"><ele>599.0</ele><time>2026-05-03T08:34:59.756Z</time></trkpt><trkpt lat="43.1172817" lon="10.9056483"><ele>599.0</ele><time>2026-05-03T08:35:01.755Z</time></trkpt><trkpt lat="43.1173465" lon="10.9056215"><ele>599.0</ele><time>2026-05-03T08:35:03.758Z</time></trkpt><trkpt lat="43.1174212" lon="10.9055892"><ele>599.0</ele><time>2026-05-03T08:35:05.752Z</time></trkpt><trkpt lat="43.1175097" lon="10.9055558"><ele>599.0</ele><time>2026-05-03T08:35:07.753Z</time></trkpt><trkpt lat="43.1175702" lon="10.9055277"><ele>599.0</ele><time>2026-05-03T08:35:08.753Z</time></trkpt><trkpt lat="43.1176396" lon="10.9055041"><ele>599.0</ele><time>2026-05-03T08:35:09.761Z</time></trkpt><trkpt lat="43.1177122" lon="10.9054645"><ele>597.1666666666666</ele><time>2026-05-03T08:35:10.748Z</time></trkpt><trkpt lat="43.1177917" lon="10.9054267"><ele>595.3333333333333</ele><time>2026-05-03T08:35:11.761Z</time></trkpt><trkpt lat="43.1178731" lon="10.9053892"><ele>593.5</ele><time>2026-05-03T08:35:12.753Z</time></trkpt><trkpt lat="43.1179632" lon="10.9053587"><ele>591.6666666666666</ele><time>2026-05-03T08:35:13.754Z</time></trkpt><trkpt lat="43.118054" lon="10.9053383"><ele>589.8333333333334</ele><time>2026-05-03T08:35:14.747Z</time></trkpt><trkpt lat="43.1181389" lon="10.9053314"><ele>588.0</ele><time>2026-05-03T08:35:15.756Z</time></trkpt><trkpt lat="43.118215" lon="10.9053433"><ele>588.3333333333334</ele><time>2026-05-03T08:35:16.748Z</time></trkpt><trkpt lat="43.1182774" lon="10.905365"><ele>588.6666666666666</ele><time>2026-05-03T08:35:17.755Z</time></trkpt><trkpt lat="43.1183753" lon="10.9054345"><ele>589.0</ele><time>2026-05-03T08:35:19.757Z</time></trkpt><trkpt lat="43.1184515" lon="10.9055013"><ele>589.3333333333333</ele><time>2026-05-03T08:35:21.748Z</time></trkpt><trkpt lat="43.118516" lon="10.9055599"><ele>589.6666666666666</ele><time>2026-05-03T08:35:24.75Z</time></trkpt><trkpt lat="43.1185929" lon="10.9056527"><ele>590.0</ele><time>2026-05-03T08:35:42.744Z</time></trkpt><trkpt lat="43.1186921" lon="10.9057888"><ele>590.0</ele><time>2026-05-03T08:35:44.757Z</time></trkpt><trkpt lat="43.1187657" lon="10.9058823"><ele>590.0</ele><time>2026-05-03T08:35:45.761Z</time></trkpt><trkpt lat="43.118841" lon="10.9059835"><ele>590.0</ele><time>2026-05-03T08:35:46.751Z</time></trkpt><trkpt lat="43.1189167" lon="10.9061035"><ele>590.0</ele><time>2026-05-03T08:35:47.778Z</time></trkpt><trkpt lat="43.1189938" lon="10.9062459"><ele>588.75</ele><time>2026-05-03T08:35:48.751Z</time></trkpt><trkpt lat="43.1190593" lon="10.9063939"><ele>587.5</ele><time>2026-05-03T08:35:49.769Z</time></trkpt><trkpt lat="43.1191249" lon="10.9065545"><ele>586.25</ele><time>2026-05-03T08:35:50.752Z</time></trkpt><trkpt lat="43.1191944" lon="10.906708"><ele>585.0</ele><time>2026-05-03T08:35:51.763Z</time></trkpt><trkpt lat="43.1192717" lon="10.9068441"><ele>588.5</ele><time>2026-05-03T08:35:52.757Z</time></trkpt><trkpt lat="43.1193632" lon="10.9069619"><ele>592.0</ele><time>2026-05-03T08:35:53.751Z</time></trkpt><trkpt lat="43.1194608" lon="10.907074"><ele>595.5</ele><time>2026-05-03T08:35:54.744Z</time></trkpt><trkpt lat="43.1195644" lon="10.9071911"><ele>599.0</ele><time>2026-05-03T08:35:55.772Z</time></trkpt><trkpt lat="43.1196669" lon="10.9073107"><ele>599.0</ele><time>2026-05-03T08:35:56.75Z</time></trkpt><trkpt lat="43.119769" lon="10.907433"><ele>599.0</ele><time>2026-05-03T08:35:57.745Z</time></trkpt><trkpt lat="43.1198733" lon="10.9075481"><ele>599.0</ele><time>2026-05-03T08:35:58.757Z</time></trkpt><trkpt lat="43.1199801" lon="10.9076521"><ele>599.0</ele><time>2026-05-03T08:35:59.774Z</time></trkpt><trkpt lat="43.1200918" lon="10.9077398"><ele>599.5</ele><time>2026-05-03T08:36:00.753Z</time></trkpt><trkpt lat="43.1202093" lon="10.9078137"><ele>600.0</ele><time>2026-05-03T08:36:01.761Z</time></trkpt><trkpt lat="43.1203315" lon="10.9078762"><ele>600.5</ele><time>2026-05-03T08:36:02.746Z</time></trkpt><trkpt lat="43.1204534" lon="10.9079424"><ele>601.0</ele><time>2026-05-03T08:36:03.767Z</time></trkpt><trkpt lat="43.1205831" lon="10.9080043"><ele>601.0</ele><time>2026-05-03T08:36:04.741Z</time></trkpt><trkpt lat="43.1207145" lon="10.9080667"><ele>601.0</ele><time>2026-05-03T08:36:05.762Z</time></trkpt><trkpt lat="43.1208389" lon="10.9081276"><ele>601.0</ele><time>2026-05-03T08:36:06.749Z</time></trkpt><trkpt lat="43.1209463" lon="10.908207"><ele>601.0</ele><time>2026-05-03T08:36:07.768Z</time></trkpt><trkpt lat="43.1210341" lon="10.9082977"><ele>600.0</ele><time>2026-05-03T08:36:08.754Z</time></trkpt><trkpt lat="43.1211091" lon="10.9084077"><ele>599.0</ele><time>2026-05-03T08:36:09.758Z</time></trkpt><trkpt lat="43.1211632" lon="10.9085412"><ele>598.0</ele><time>2026-05-03T08:36:10.742Z</time></trkpt><trkpt lat="43.1211998" lon="10.9086993"><ele>597.0</ele><time>2026-05-03T08:36:11.753Z</time></trkpt><trkpt lat="43.1212126" lon="10.9088767"><ele>597.0</ele><time>2026-05-03T08:36:12.749Z</time></trkpt><trkpt lat="43.1212172" lon="10.9090633"><ele>597.0</ele><time>2026-05-03T08:36:13.757Z</time></trkpt><trkpt lat="43.1212219" lon="10.909257"><ele>597.0</ele><time>2026-05-03T08:36:14.76Z</time></trkpt><trkpt lat="43.1212243" lon="10.9094585"><ele>597.0</ele><time>2026-05-03T08:36:15.752Z</time></trkpt><trkpt lat="43.1212254" lon="10.9096549"><ele>596.75</ele><time>2026-05-03T08:36:16.746Z</time></trkpt><trkpt lat="43.1212299" lon="10.9098496"><ele>596.5</ele><time>2026-05-03T08:36:17.755Z</time></trkpt><trkpt lat="43.1212346" lon="10.9100298"><ele>596.25</ele><time>2026-05-03T08:36:18.744Z</time></trkpt><trkpt lat="43.1212295" lon="10.9101985"><ele>596.0</ele><time>2026-05-03T08:36:19.752Z</time></trkpt><trkpt lat="43.1212177" lon="10.9103501"><ele>594.75</ele><time>2026-05-03T08:36:20.751Z</time></trkpt><trkpt lat="43.1211925" lon="10.9105025"><ele>593.5</ele><time>2026-05-03T08:36:21.752Z</time></trkpt><trkpt lat="43.1211509" lon="10.9106564"><ele>592.25</ele><time>2026-05-03T08:36:22.752Z</time></trkpt><trkpt lat="43.1211056" lon="10.9108058"><ele>591.0</ele><time>2026-05-03T08:36:23.75Z</time></trkpt><trkpt lat="43.1210548" lon="10.9109673"><ele>590.5</ele><time>2026-05-03T08:36:24.754Z</time></trkpt><trkpt lat="43.1209939" lon="10.9111266"><ele>590.0</ele><time>2026-05-03T08:36:25.747Z</time></trkpt><trkpt lat="43.1209348" lon="10.9112853"><ele>589.5</ele><time>2026-05-03T08:36:26.739Z</time></trkpt><trkpt lat="43.1208784" lon="10.91144"><ele>589.0</ele><time>2026-05-03T08:36:27.751Z</time></trkpt><trkpt lat="43.1208256" lon="10.9115854"><ele>589.0</ele><time>2026-05-03T08:36:28.746Z</time></trkpt><trkpt lat="43.1207654" lon="10.9117107"><ele>589.0</ele><time>2026-05-03T08:36:29.763Z</time></trkpt><trkpt lat="43.1206958" lon="10.9118202"><ele>589.0</ele><time>2026-05-03T08:36:30.753Z</time></trkpt><trkpt lat="43.120608" lon="10.9119023"><ele>589.0</ele><time>2026-05-03T08:36:31.748Z</time></trkpt><trkpt lat="43.1205063" lon="10.9119593"><ele>589.0</ele><time>2026-05-03T08:36:32.748Z</time></trkpt><trkpt lat="43.1203874" lon="10.9120074"><ele>590.75</ele><time>2026-05-03T08:36:33.738Z</time></trkpt><trkpt lat="43.1202685" lon="10.9120438"><ele>592.5</ele><time>2026-05-03T08:36:34.752Z</time></trkpt><trkpt lat="43.1201378" lon="10.9120783"><ele>594.25</ele><time>2026-05-03T08:36:35.736Z</time></trkpt><trkpt lat="43.1200079" lon="10.9121121"><ele>596.0</ele><time>2026-05-03T08:36:36.73Z</time></trkpt><trkpt lat="43.1198753" lon="10.9121575"><ele>596.0</ele><time>2026-05-03T08:36:37.736Z</time></trkpt><trkpt lat="43.1197365" lon="10.9122152"><ele>596.0</ele><time>2026-05-03T08:36:38.729Z</time></trkpt><trkpt lat="43.1196021" lon="10.9122777"><ele>596.0</ele><time>2026-05-03T08:36:39.729Z</time></trkpt><trkpt lat="43.1194856" lon="10.9123713"><ele>596.0</ele><time>2026-05-03T08:36:40.746Z</time></trkpt><trkpt lat="43.1194038" lon="10.9124976"><ele>598.75</ele><time>2026-05-03T08:36:41.763Z</time></trkpt><trkpt lat="43.119338" lon="10.9126508"><ele>601.5</ele><time>2026-05-03T08:36:42.738Z</time></trkpt><trkpt lat="43.1192771" lon="10.9128333"><ele>604.25</ele><time>2026-05-03T08:36:43.748Z</time></trkpt><trkpt lat="43.1192201" lon="10.9130315"><ele>607.0</ele><time>2026-05-03T08:36:44.731Z</time></trkpt><trkpt lat="43.1191385" lon="10.9132397"><ele>608.75</ele><time>2026-05-03T08:36:45.745Z</time></trkpt><trkpt lat="43.119068" lon="10.9134447"><ele>610.5</ele><time>2026-05-03T08:36:46.755Z</time></trkpt><trkpt lat="43.1190303" lon="10.9136008"><ele>612.25</ele><time>2026-05-03T08:36:47.742Z</time></trkpt><trkpt lat="43.1190144" lon="10.9137444"><ele>614.0</ele><time>2026-05-03T08:36:48.739Z</time></trkpt><trkpt lat="43.1190044" lon="10.9138877"><ele>614.8</ele><time>2026-05-03T08:36:49.76Z</time></trkpt><trkpt lat="43.1190063" lon="10.9140216"><ele>615.5999999999999</ele><time>2026-05-03T08:36:50.729Z</time></trkpt><trkpt lat="43.1190201" lon="10.9141505"><ele>616.4</ele><time>2026-05-03T08:36:51.761Z</time></trkpt><trkpt lat="43.1190491" lon="10.9142725"><ele>617.1999999999999</ele><time>2026-05-03T08:36:52.754Z</time></trkpt><trkpt lat="43.1190922" lon="10.9143782"><ele>618.0</ele><time>2026-05-03T08:36:53.755Z</time></trkpt><trkpt lat="43.1191329" lon="10.9144909"><ele>618.0</ele><time>2026-05-03T08:36:54.729Z</time></trkpt><trkpt lat="43.1191664" lon="10.9145861"><ele>618.0</ele><time>2026-05-03T08:36:55.75Z</time></trkpt><trkpt lat="43.1191985" lon="10.9146748"><ele>618.0</ele><time>2026-05-03T08:36:56.744Z</time></trkpt><trkpt lat="43.1192152" lon="10.9147734"><ele>618.0</ele><time>2026-05-03T08:36:57.755Z</time></trkpt><trkpt lat="43.1192299" lon="10.914871"><ele>618.0</ele><time>2026-05-03T08:48:45.744Z</time></trkpt><trkpt lat="43.1192571" lon="10.9150234"><ele>618.0</ele><time>2026-05-03T08:48:47.754Z</time></trkpt><trkpt lat="43.1192748" lon="10.9151156"><ele>619.4</ele><time>2026-05-03T08:48:48.767Z</time></trkpt><trkpt lat="43.1192982" lon="10.9152207"><ele>620.8</ele><time>2026-05-03T08:48:49.763Z</time></trkpt><trkpt lat="43.1193272" lon="10.9153328"><ele>622.2</ele><time>2026-05-03T08:48:50.746Z</time></trkpt><trkpt lat="43.1193529" lon="10.9154574"><ele>623.6</ele><time>2026-05-03T08:48:51.757Z</time></trkpt><trkpt lat="43.1193801" lon="10.9155937"><ele>625.0</ele><time>2026-05-03T08:48:52.752Z</time></trkpt><trkpt lat="43.1194105" lon="10.915744"><ele>625.0</ele><time>2026-05-03T08:48:53.761Z</time></trkpt><trkpt lat="43.1194417" lon="10.9159014"><ele>625.0</ele><time>2026-05-03T08:48:54.753Z</time></trkpt><trkpt lat="43.1194776" lon="10.9160637"><ele>625.0</ele><time>2026-05-03T08:48:55.767Z</time></trkpt><trkpt lat="43.1195163" lon="10.9162185"><ele>625.0</ele><time>2026-05-03T08:48:56.758Z</time></trkpt><trkpt lat="43.1195507" lon="10.916372"><ele>625.75</ele><time>2026-05-03T08:48:57.754Z</time></trkpt><trkpt lat="43.1195918" lon="10.9165304"><ele>626.5</ele><time>2026-05-03T08:48:58.746Z</time></trkpt><trkpt lat="43.1196366" lon="10.9166873"><ele>627.25</ele><time>2026-05-03T08:48:59.763Z</time></trkpt><trkpt lat="43.1196897" lon="10.9168401"><ele>628.0</ele><time>2026-05-03T08:49:00.765Z</time></trkpt><trkpt lat="43.1197389" lon="10.9169932"><ele>628.25</ele><time>2026-05-03T08:49:01.755Z</time></trkpt><trkpt lat="43.1197922" lon="10.9171428"><ele>628.5</ele><time>2026-05-03T08:49:02.743Z</time></trkpt><trkpt lat="43.1198398" lon="10.9172923"><ele>628.75</ele><time>2026-05-03T08:49:03.747Z</time></trkpt><trkpt lat="43.1198911" lon="10.9174322"><ele>629.0</ele><time>2026-05-03T08:49:04.74Z</time></trkpt><trkpt lat="43.1199412" lon="10.9175725"><ele>630.75</ele><time>2026-05-03T08:49:05.759Z</time></trkpt><trkpt lat="43.1199981" lon="10.9177104"><ele>632.5</ele><time>2026-05-03T08:49:06.743Z</time></trkpt><trkpt lat="43.1200604" lon="10.9178466"><ele>634.25</ele><time>2026-05-03T08:49:07.763Z</time></trkpt><trkpt lat="43.1201297" lon="10.917975"><ele>636.0</ele><time>2026-05-03T08:49:08.759Z</time></trkpt><trkpt lat="43.1201992" lon="10.9181124"><ele>636.0</ele><time>2026-05-03T08:49:09.751Z</time></trkpt><trkpt lat="43.1202739" lon="10.9182604"><ele>636.0</ele><time>2026-05-03T08:49:10.757Z</time></trkpt><trkpt lat="43.1203501" lon="10.9184045"><ele>636.0</ele><time>2026-05-03T08:49:11.759Z</time></trkpt><trkpt lat="43.1204267" lon="10.9185496"><ele>636.0</ele><time>2026-05-03T08:49:12.76Z</time></trkpt><trkpt lat="43.1204939" lon="10.9186926"><ele>636.75</ele><time>2026-05-03T08:49:13.749Z</time></trkpt><trkpt lat="43.1205542" lon="10.9188244"><ele>637.5</ele><time>2026-05-03T08:49:14.755Z</time></trkpt><trkpt lat="43.1206251" lon="10.9189375"><ele>638.25</ele><time>2026-05-03T08:49:15.753Z</time></trkpt><trkpt lat="43.1207129" lon="10.9190381"><ele>639.0</ele><time>2026-05-03T08:49:16.734Z</time></trkpt><trkpt lat="43.1208199" lon="10.9191055"><ele>639.0</ele><time>2026-05-03T08:49:17.752Z</time></trkpt><trkpt lat="43.1209343" lon="10.9191401"><ele>639.0</ele><time>2026-05-03T08:49:18.744Z</time></trkpt><trkpt lat="43.1210493" lon="10.9191576"><ele>639.0</ele><time>2026-05-03T08:49:19.761Z</time></trkpt><trkpt lat="43.121169" lon="10.9191716"><ele>639.0</ele><time>2026-05-03T08:49:20.754Z</time></trkpt><trkpt lat="43.1213008" lon="10.9191751"><ele>639.0</ele><time>2026-05-03T08:49:21.748Z</time></trkpt><trkpt lat="43.1214326" lon="10.9192054"><ele>639.0</ele><time>2026-05-03T08:49:22.758Z</time></trkpt><trkpt lat="43.121566" lon="10.9192182"><ele>639.0</ele><time>2026-05-03T08:49:23.758Z</time></trkpt><trkpt lat="43.1216894" lon="10.9192289"><ele>639.0</ele><time>2026-05-03T08:49:24.756Z</time></trkpt><trkpt lat="43.1218152" lon="10.9192588"><ele>643.5</ele><time>2026-05-03T08:49:25.756Z</time></trkpt><trkpt lat="43.1219377" lon="10.9193162"><ele>648.0</ele><time>2026-05-03T08:49:26.748Z</time></trkpt><trkpt lat="43.1220632" lon="10.9194113"><ele>652.5</ele><time>2026-05-03T08:49:27.747Z</time></trkpt><trkpt lat="43.1221925" lon="10.9195049"><ele>657.0</ele><time>2026-05-03T08:49:28.756Z</time></trkpt><trkpt lat="43.1223193" lon="10.9196049"><ele>656.25</ele><time>2026-05-03T08:49:29.733Z</time></trkpt><trkpt lat="43.1224496" lon="10.9196912"><ele>655.5</ele><time>2026-05-03T08:49:30.746Z</time></trkpt><trkpt lat="43.1225792" lon="10.9197793"><ele>654.75</ele><time>2026-05-03T08:49:31.754Z</time></trkpt><trkpt lat="43.1227127" lon="10.919887"><ele>654.0</ele><time>2026-05-03T08:49:32.744Z</time></trkpt><trkpt lat="43.1228465" lon="10.920011"><ele>658.0</ele><time>2026-05-03T08:49:33.751Z</time></trkpt><trkpt lat="43.1229688" lon="10.9201536"><ele>662.0</ele><time>2026-05-03T08:49:34.749Z</time></trkpt><trkpt lat="43.1230916" lon="10.920303"><ele>666.0</ele><time>2026-05-03T08:49:35.754Z</time></trkpt><trkpt lat="43.1232128" lon="10.9204481"><ele>664.0</ele><time>2026-05-03T08:49:36.754Z</time></trkpt><trkpt lat="43.1233274" lon="10.9205849"><ele>662.0</ele><time>2026-05-03T08:49:37.745Z</time></trkpt><trkpt lat="43.1234353" lon="10.920708"><ele>660.0</ele><time>2026-05-03T08:49:38.746Z</time></trkpt><trkpt lat="43.1235339" lon="10.9208214"><ele>658.0</ele><time>2026-05-03T08:49:39.741Z</time></trkpt><trkpt lat="43.123615" lon="10.9209186"><ele>658.0</ele><time>2026-05-03T08:49:40.735Z</time></trkpt><trkpt lat="43.1236906" lon="10.9210093"><ele>658.0</ele><time>2026-05-03T08:49:41.749Z</time></trkpt><trkpt lat="43.1237525" lon="10.9210903"><ele>658.0</ele><time>2026-05-03T08:49:42.739Z</time></trkpt><trkpt lat="43.1237975" lon="10.9211768"><ele>658.0</ele><time>2026-05-03T08:49:43.749Z</time></trkpt><trkpt lat="43.1238422" lon="10.921272"><ele>658.0</ele><time>2026-05-03T08:49:44.738Z</time></trkpt><trkpt lat="43.1238871" lon="10.9213724"><ele>658.0</ele><time>2026-05-03T08:49:45.751Z</time></trkpt><trkpt lat="43.1239361" lon="10.9214833"><ele>658.0</ele><time>2026-05-03T08:49:46.742Z</time></trkpt><trkpt lat="43.1239913" lon="10.9215982"><ele>658.0</ele><time>2026-05-03T08:49:47.744Z</time></trkpt><trkpt lat="43.1240501" lon="10.9217112"><ele>658.0</ele><time>2026-05-03T08:49:48.742Z</time></trkpt><trkpt lat="43.1241085" lon="10.9218341"><ele>658.0</ele><time>2026-05-03T08:49:49.731Z</time></trkpt><trkpt lat="43.1241653" lon="10.9219617"><ele>658.0</ele><time>2026-05-03T08:49:50.734Z</time></trkpt><trkpt lat="43.1242312" lon="10.9220956"><ele>653.75</ele><time>2026-05-03T08:49:51.744Z</time></trkpt><trkpt lat="43.1243068" lon="10.9222175"><ele>649.5</ele><time>2026-05-03T08:49:52.735Z</time></trkpt><trkpt lat="43.1243894" lon="10.9223418"><ele>645.25</ele><time>2026-05-03T08:49:53.744Z</time></trkpt><trkpt lat="43.1244757" lon="10.9224595"><ele>641.0</ele><time>2026-05-03T08:49:54.735Z</time></trkpt><trkpt lat="43.124564" lon="10.922577"><ele>639.1999999999999</ele><time>2026-05-03T08:49:55.746Z</time></trkpt><trkpt lat="43.124635" lon="10.9226885"><ele>637.4</ele><time>2026-05-03T08:49:56.741Z</time></trkpt><trkpt lat="43.1246868" lon="10.9227915"><ele>635.6</ele><time>2026-05-03T08:49:57.745Z</time></trkpt><trkpt lat="43.1247203" lon="10.9228733"><ele>633.8</ele><time>2026-05-03T08:49:58.738Z</time></trkpt><trkpt lat="43.124658" lon="10.9229534"><ele>632.0</ele><time>2026-05-03T08:50:01.745Z</time></trkpt><trkpt lat="43.1245398" lon="10.9229641"><ele>632.0</ele><time>2026-05-03T08:50:03.766Z</time></trkpt><trkpt lat="43.1244589" lon="10.9230017"><ele>632.0</ele><time>2026-05-03T08:50:04.744Z</time></trkpt><trkpt lat="43.1243576" lon="10.9230605"><ele>632.0</ele><time>2026-05-03T08:50:05.758Z</time></trkpt><trkpt lat="43.1242102" lon="10.9231621"><ele>632.0</ele><time>2026-05-03T08:50:06.744Z</time></trkpt><trkpt lat="43.1240465" lon="10.9232712"><ele>629.3333333333333</ele><time>2026-05-03T08:50:07.74Z</time></trkpt><trkpt lat="43.1238791" lon="10.9233967"><ele>626.6666666666666</ele><time>2026-05-03T08:50:08.754Z</time></trkpt><trkpt lat="43.123707" lon="10.9235429"><ele>624.0</ele><time>2026-05-03T08:50:09.747Z</time></trkpt><trkpt lat="43.1235412" lon="10.9237121"><ele>624.0</ele><time>2026-05-03T08:50:10.725Z</time></trkpt><trkpt lat="43.1233855" lon="10.9238803"><ele>624.0</ele><time>2026-05-03T08:50:11.757Z</time></trkpt><trkpt lat="43.1232367" lon="10.924044"><ele>624.0</ele><time>2026-05-03T08:50:12.74Z</time></trkpt><trkpt lat="43.1230998" lon="10.9242023"><ele>622.6666666666666</ele><time>2026-05-03T08:50:13.755Z</time></trkpt><trkpt lat="43.1229758" lon="10.9243626"><ele>621.3333333333333</ele><time>2026-05-03T08:50:14.753Z</time></trkpt><trkpt lat="43.1228634" lon="10.9245387"><ele>620.0</ele><time>2026-05-03T08:50:15.743Z</time></trkpt><trkpt lat="43.1227631" lon="10.9247489"><ele>620.0</ele><time>2026-05-03T08:50:16.745Z</time></trkpt><trkpt lat="43.122657" lon="10.9249694"><ele>620.0</ele><time>2026-05-03T08:50:17.752Z</time></trkpt><trkpt lat="43.1225296" lon="10.9251747"><ele>620.0</ele><time>2026-05-03T08:50:18.736Z</time></trkpt><trkpt lat="43.1223915" lon="10.9253344"><ele>619.6666666666666</ele><time>2026-05-03T08:50:19.749Z</time></trkpt><trkpt lat="43.1222444" lon="10.9254758"><ele>619.3333333333334</ele><time>2026-05-03T08:50:20.753Z</time></trkpt><trkpt lat="43.1221071" lon="10.9256039"><ele>619.0</ele><time>2026-05-03T08:50:21.756Z</time></trkpt><trkpt lat="43.1219923" lon="10.9257587"><ele>614.0</ele><time>2026-05-03T08:50:22.741Z</time></trkpt><trkpt lat="43.1219" lon="10.9259647"><ele>609.0</ele><time>2026-05-03T08:50:23.756Z</time></trkpt><trkpt lat="43.1218104" lon="10.9261892"><ele>604.0</ele><time>2026-05-03T08:50:24.743Z</time></trkpt><trkpt lat="43.1217178" lon="10.9264161"><ele>604.0</ele><time>2026-05-03T08:50:25.749Z</time></trkpt><trkpt lat="43.1216259" lon="10.9266514"><ele>604.0</ele><time>2026-05-03T08:50:26.753Z</time></trkpt><trkpt lat="43.1215341" lon="10.9268744"><ele>604.0</ele><time>2026-05-03T08:50:27.743Z</time></trkpt><trkpt lat="43.1214505" lon="10.9270908"><ele>601.6666666666667</ele><time>2026-05-03T08:50:28.759Z</time></trkpt><trkpt lat="43.1213855" lon="10.9273213"><ele>599.3333333333334</ele><time>2026-05-03T08:50:29.748Z</time></trkpt><trkpt lat="43.1213558" lon="10.9275616"><ele>597.0</ele><time>2026-05-03T08:50:30.745Z</time></trkpt><trkpt lat="43.1213383" lon="10.9277924"><ele>597.0</ele><time>2026-05-03T08:50:31.747Z</time></trkpt><trkpt lat="43.1212974" lon="10.9280038"><ele>597.0</ele><time>2026-05-03T08:50:32.756Z</time></trkpt><trkpt lat="43.1212146" lon="10.9281646"><ele>597.0</ele><time>2026-05-03T08:50:33.745Z</time></trkpt><trkpt lat="43.1210902" lon="10.9282908"><ele>597.0</ele><time>2026-05-03T08:50:34.742Z</time></trkpt><trkpt lat="43.1209356" lon="10.9283918"><ele>597.0</ele><time>2026-05-03T08:50:35.758Z</time></trkpt><trkpt lat="43.120758" lon="10.9284799"><ele>597.0</ele><time>2026-05-03T08:50:36.752Z</time></trkpt><trkpt lat="43.1205684" lon="10.9285726"><ele>595.0</ele><time>2026-05-03T08:50:37.747Z</time></trkpt><trkpt lat="43.1203875" lon="10.9286552"><ele>593.0</ele><time>2026-05-03T08:50:38.741Z</time></trkpt><trkpt lat="43.1202301" lon="10.9287414"><ele>591.0</ele><time>2026-05-03T08:50:39.741Z</time></trkpt><trkpt lat="43.1201022" lon="10.9288667"><ele>591.0</ele><time>2026-05-03T08:50:40.743Z</time></trkpt><trkpt lat="43.120005" lon="10.9290344"><ele>591.0</ele><time>2026-05-03T08:50:41.741Z</time></trkpt><trkpt lat="43.1199185" lon="10.92925"><ele>591.0</ele><time>2026-05-03T08:50:42.735Z</time></trkpt><trkpt lat="43.1198606" lon="10.9294942"><ele>587.6666666666666</ele><time>2026-05-03T08:50:43.735Z</time></trkpt><trkpt lat="43.1198074" lon="10.92973"><ele>584.3333333333333</ele><time>2026-05-03T08:50:44.748Z</time></trkpt><trkpt lat="43.1197323" lon="10.9299334"><ele>581.0</ele><time>2026-05-03T08:50:45.732Z</time></trkpt><trkpt lat="43.1196359" lon="10.9300928"><ele>580.0</ele><time>2026-05-03T08:50:46.736Z</time></trkpt><trkpt lat="43.1195292" lon="10.9302195"><ele>579.0</ele><time>2026-05-03T08:50:47.739Z</time></trkpt><trkpt lat="43.1194309" lon="10.9303234"><ele>578.0</ele><time>2026-05-03T08:50:48.733Z</time></trkpt><trkpt lat="43.1193543" lon="10.9304044"><ele>577.0</ele><time>2026-05-03T08:50:49.734Z</time></trkpt><trkpt lat="43.1192991" lon="10.9304615"><ele>576.0</ele><time>2026-05-03T08:50:50.735Z</time></trkpt><trkpt lat="43.1192702" lon="10.9306202"><ele>576.0</ele><time>2026-05-03T08:50:52.742Z</time></trkpt><trkpt lat="43.1192813" lon="10.9307265"><ele>576.0</ele><time>2026-05-03T08:50:53.741Z</time></trkpt><trkpt lat="43.1193205" lon="10.9308448"><ele>576.0</ele><time>2026-05-03T08:50:54.742Z</time></trkpt><trkpt lat="43.1193918" lon="10.9309796"><ele>576.0</ele><time>2026-05-03T08:50:55.751Z</time></trkpt><trkpt lat="43.1194646" lon="10.9311206"><ele>576.0</ele><time>2026-05-03T08:50:56.75Z</time></trkpt><trkpt lat="43.1195403" lon="10.931254"><ele>578.5</ele><time>2026-05-03T08:50:57.757Z</time></trkpt><trkpt lat="43.1196374" lon="10.9313687"><ele>581.0</ele><time>2026-05-03T08:50:58.741Z</time></trkpt><trkpt lat="43.119751" lon="10.9314528"><ele>583.5</ele><time>2026-05-03T08:50:59.737Z</time></trkpt><trkpt lat="43.1198629" lon="10.931491"><ele>586.0</ele><time>2026-05-03T08:51:00.742Z</time></trkpt><trkpt lat="43.1199807" lon="10.9315137"><ele>587.25</ele><time>2026-05-03T08:51:01.734Z</time></trkpt><trkpt lat="43.1200972" lon="10.9315329"><ele>588.5</ele><time>2026-05-03T08:51:02.743Z</time></trkpt><trkpt lat="43.1202142" lon="10.9315481"><ele>589.75</ele><time>2026-05-03T08:51:03.736Z</time></trkpt><trkpt lat="43.1203269" lon="10.931573"><ele>591.0</ele><time>2026-05-03T08:51:04.759Z</time></trkpt><trkpt lat="43.1204348" lon="10.931607"><ele>591.0</ele><time>2026-05-03T08:51:05.757Z</time></trkpt><trkpt lat="43.1205345" lon="10.9316524"><ele>591.0</ele><time>2026-05-03T08:51:06.739Z</time></trkpt><trkpt lat="43.120625" lon="10.9317001"><ele>591.0</ele><time>2026-05-03T08:51:07.746Z</time></trkpt><trkpt lat="43.1207155" lon="10.9317522"><ele>591.0</ele><time>2026-05-03T08:51:08.738Z</time></trkpt><trkpt lat="43.1208024" lon="10.9318069"><ele>591.0</ele><time>2026-05-03T08:51:09.757Z</time></trkpt><trkpt lat="43.1208933" lon="10.9318575"><ele>592.4</ele><time>2026-05-03T08:51:10.739Z</time></trkpt><trkpt lat="43.1209769" lon="10.9319198"><ele>593.8</ele><time>2026-05-03T08:51:11.731Z</time></trkpt><trkpt lat="43.121065" lon="10.9319848"><ele>595.1999999999999</ele><time>2026-05-03T08:51:12.739Z</time></trkpt><trkpt lat="43.1211465" lon="10.9320515"><ele>596.6</ele><time>2026-05-03T08:51:13.743Z</time></trkpt><trkpt lat="43.1212371" lon="10.9321039"><ele>598.0</ele><time>2026-05-03T08:51:14.751Z</time></trkpt><trkpt lat="43.1213302" lon="10.9321571"><ele>598.0</ele><time>2026-05-03T08:51:15.739Z</time></trkpt><trkpt lat="43.121426" lon="10.9322126"><ele>598.0</ele><time>2026-05-03T08:51:16.753Z</time></trkpt><trkpt lat="43.1215203" lon="10.932265"><ele>598.0</ele><time>2026-05-03T08:51:17.729Z</time></trkpt><trkpt lat="43.1216161" lon="10.9323237"><ele>598.0</ele><time>2026-05-03T08:51:18.757Z</time></trkpt><trkpt lat="43.121706" lon="10.9323825"><ele>598.0</ele><time>2026-05-03T08:51:19.748Z</time></trkpt><trkpt lat="43.1217955" lon="10.9324542"><ele>599.0</ele><time>2026-05-03T08:51:20.746Z</time></trkpt><trkpt lat="43.121886" lon="10.9325412"><ele>600.0</ele><time>2026-05-03T08:51:21.746Z</time></trkpt><trkpt lat="43.1219625" lon="10.9326481"><ele>601.0</ele><time>2026-05-03T08:51:22.738Z</time></trkpt><trkpt lat="43.1220237" lon="10.9327806"><ele>602.0</ele><time>2026-05-03T08:51:23.756Z</time></trkpt><trkpt lat="43.1220722" lon="10.9329259"><ele>602.0</ele><time>2026-05-03T08:51:24.746Z</time></trkpt><trkpt lat="43.1221037" lon="10.933076"><ele>602.0</ele><time>2026-05-03T08:51:25.753Z</time></trkpt><trkpt lat="43.1221187" lon="10.9332304"><ele>602.0</ele><time>2026-05-03T08:51:26.735Z</time></trkpt><trkpt lat="43.122119" lon="10.9333876"><ele>602.0</ele><time>2026-05-03T08:51:27.756Z</time></trkpt><trkpt lat="43.1221086" lon="10.9335485"><ele>604.0</ele><time>2026-05-03T08:51:28.73Z</time></trkpt><trkpt lat="43.1221015" lon="10.9337115"><ele>606.0</ele><time>2026-05-03T08:51:29.759Z</time></trkpt><trkpt lat="43.1220993" lon="10.9338702"><ele>608.0</ele><time>2026-05-03T08:51:30.747Z</time></trkpt><trkpt lat="43.1220976" lon="10.9340279"><ele>610.0</ele><time>2026-05-03T08:51:31.749Z</time></trkpt><trkpt lat="43.1220973" lon="10.9341872"><ele>608.25</ele><time>2026-05-03T08:51:32.735Z</time></trkpt><trkpt lat="43.1220721" lon="10.934341"><ele>606.5</ele><time>2026-05-03T08:51:33.76Z</time></trkpt><trkpt lat="43.1220339" lon="10.9344857"><ele>604.75</ele><time>2026-05-03T08:51:34.746Z</time></trkpt><trkpt lat="43.1219709" lon="10.9346136"><ele>603.0</ele><time>2026-05-03T08:51:35.754Z</time></trkpt><trkpt lat="43.1218983" lon="10.9347318"><ele>603.0</ele><time>2026-05-03T08:51:36.743Z</time></trkpt><trkpt lat="43.1218259" lon="10.934857"><ele>603.0</ele><time>2026-05-03T08:51:37.757Z</time></trkpt><trkpt lat="43.1217644" lon="10.9349942"><ele>603.0</ele><time>2026-05-03T08:51:38.743Z</time></trkpt><trkpt lat="43.1217121" lon="10.9351434"><ele>603.0</ele><time>2026-05-03T08:51:39.751Z</time></trkpt><trkpt lat="43.1216905" lon="10.9353086"><ele>601.6</ele><time>2026-05-03T08:51:40.744Z</time></trkpt><trkpt lat="43.1216781" lon="10.9354722"><ele>600.1999999999999</ele><time>2026-05-03T08:51:41.742Z</time></trkpt><trkpt lat="43.1216555" lon="10.9356096"><ele>598.8</ele><time>2026-05-03T08:51:42.745Z</time></trkpt><trkpt lat="43.1216079" lon="10.935734"><ele>597.4</ele><time>2026-05-03T08:51:43.744Z</time></trkpt><trkpt lat="43.1215354" lon="10.9358316"><ele>596.0</ele><time>2026-05-03T08:51:44.745Z</time></trkpt><trkpt lat="43.1214418" lon="10.9359062"><ele>591.25</ele><time>2026-05-03T08:51:45.76Z</time></trkpt><trkpt lat="43.1213415" lon="10.935961"><ele>586.5</ele><time>2026-05-03T08:51:46.743Z</time></trkpt><trkpt lat="43.1212286" lon="10.9359946"><ele>581.75</ele><time>2026-05-03T08:51:47.742Z</time></trkpt><trkpt lat="43.1211135" lon="10.936"><ele>577.0</ele><time>2026-05-03T08:51:48.742Z</time></trkpt><trkpt lat="43.1209892" lon="10.9359831"><ele>577.0</ele><time>2026-05-03T08:51:49.745Z</time></trkpt><trkpt lat="43.1208636" lon="10.9359646"><ele>577.0</ele><time>2026-05-03T08:51:50.74Z</time></trkpt><trkpt lat="43.1207328" lon="10.9359443"><ele>577.0</ele><time>2026-05-03T08:51:51.74Z</time></trkpt><trkpt lat="43.1206006" lon="10.9359281"><ele>577.0</ele><time>2026-05-03T08:51:52.741Z</time></trkpt><trkpt lat="43.1204742" lon="10.935918"><ele>579.5</ele><time>2026-05-03T08:51:53.751Z</time></trkpt><trkpt lat="43.1203494" lon="10.9359078"><ele>582.0</ele><time>2026-05-03T08:51:54.741Z</time></trkpt><trkpt lat="43.1202272" lon="10.9359057"><ele>584.5</ele><time>2026-05-03T08:51:55.734Z</time></trkpt><trkpt lat="43.1201189" lon="10.9359303"><ele>587.0</ele><time>2026-05-03T08:51:56.739Z</time></trkpt><trkpt lat="43.120024" lon="10.9359924"><ele>587.0</ele><time>2026-05-03T08:51:57.739Z</time></trkpt><trkpt lat="43.1199484" lon="10.9361063"><ele>587.0</ele><time>2026-05-03T08:51:58.746Z</time></trkpt><trkpt lat="43.1199012" lon="10.936267"><ele>587.0</ele><time>2026-05-03T08:51:59.733Z</time></trkpt><trkpt lat="43.1198833" lon="10.9364219"><ele>587.0</ele><time>2026-05-03T08:52:00.737Z</time></trkpt><trkpt lat="43.1198675" lon="10.9366203"><ele>592.25</ele><time>2026-05-03T08:52:01.749Z</time></trkpt><trkpt lat="43.1198585" lon="10.9368188"><ele>597.5</ele><time>2026-05-03T08:52:02.739Z</time></trkpt><trkpt lat="43.1198528" lon="10.9370226"><ele>602.75</ele><time>2026-05-03T08:52:03.758Z</time></trkpt><trkpt lat="43.119846" lon="10.9372243"><ele>608.0</ele><time>2026-05-03T08:52:04.739Z</time></trkpt><trkpt lat="43.1198411" lon="10.9374218"><ele>606.25</ele><time>2026-05-03T08:52:05.747Z</time></trkpt><trkpt lat="43.1198325" lon="10.9376257"><ele>604.5</ele><time>2026-05-03T08:52:06.729Z</time></trkpt><trkpt lat="43.1198258" lon="10.9378283"><ele>602.75</ele><time>2026-05-03T08:52:07.749Z</time></trkpt><trkpt lat="43.1198172" lon="10.9380218"><ele>601.0</ele><time>2026-05-03T08:52:08.746Z</time></trkpt><trkpt lat="43.119805" lon="10.9382106"><ele>597.0</ele><time>2026-05-03T08:52:09.739Z</time></trkpt><trkpt lat="43.1197961" lon="10.9384023"><ele>593.0</ele><time>2026-05-03T08:52:10.753Z</time></trkpt><trkpt lat="43.1197859" lon="10.9385907"><ele>589.0</ele><time>2026-05-03T08:52:11.738Z</time></trkpt><trkpt lat="43.1197783" lon="10.9387854"><ele>585.0</ele><time>2026-05-03T08:52:12.731Z</time></trkpt><trkpt lat="43.1197804" lon="10.9389745"><ele>585.0</ele><time>2026-05-03T08:52:13.739Z</time></trkpt><trkpt lat="43.1197911" lon="10.939149"><ele>585.0</ele><time>2026-05-03T08:52:14.731Z</time></trkpt><trkpt lat="43.1198182" lon="10.9393228"><ele>585.0</ele><time>2026-05-03T08:52:15.75Z</time></trkpt><trkpt lat="43.1198667" lon="10.9394972"><ele>585.0</ele><time>2026-05-03T08:52:16.743Z</time></trkpt><trkpt lat="43.1199309" lon="10.9396662"><ele>580.75</ele><time>2026-05-03T08:52:17.747Z</time></trkpt><trkpt lat="43.1200036" lon="10.9398357"><ele>576.5</ele><time>2026-05-03T08:52:18.749Z</time></trkpt><trkpt lat="43.1200792" lon="10.9400022"><ele>572.25</ele><time>2026-05-03T08:52:19.759Z</time></trkpt><trkpt lat="43.1201529" lon="10.9401716"><ele>568.0</ele><time>2026-05-03T08:52:20.755Z</time></trkpt><trkpt lat="43.1202243" lon="10.9403412"><ele>566.75</ele><time>2026-05-03T08:52:21.753Z</time></trkpt><trkpt lat="43.1202966" lon="10.9405118"><ele>565.5</ele><time>2026-05-03T08:52:22.736Z</time></trkpt><trkpt lat="43.1203694" lon="10.9406805"><ele>564.25</ele><time>2026-05-03T08:52:23.773Z</time></trkpt><trkpt lat="43.1204418" lon="10.940843"><ele>563.0</ele><time>2026-05-03T08:52:24.762Z</time></trkpt><trkpt lat="43.1205094" lon="10.9410048"><ele>563.25</ele><time>2026-05-03T08:52:25.749Z</time></trkpt><trkpt lat="43.1205769" lon="10.9411579"><ele>563.5</ele><time>2026-05-03T08:52:26.755Z</time></trkpt><trkpt lat="43.1206342" lon="10.9413032"><ele>563.75</ele><time>2026-05-03T08:52:27.749Z</time></trkpt><trkpt lat="43.1206867" lon="10.9414341"><ele>564.0</ele><time>2026-05-03T08:52:28.754Z</time></trkpt><trkpt lat="43.120739" lon="10.9415564"><ele>564.0</ele><time>2026-05-03T08:52:29.751Z</time></trkpt><trkpt lat="43.1207885" lon="10.9416626"><ele>564.0</ele><time>2026-05-03T08:52:30.755Z</time></trkpt><trkpt lat="43.1208311" lon="10.9417583"><ele>564.0</ele><time>2026-05-03T08:52:31.774Z</time></trkpt><trkpt lat="43.1208671" lon="10.9418567"><ele>564.0</ele><time>2026-05-03T08:52:32.759Z</time></trkpt><trkpt lat="43.1209045" lon="10.9419536"><ele>564.0</ele><time>2026-05-03T08:52:33.765Z</time></trkpt><trkpt lat="43.1209482" lon="10.9420519"><ele>564.0</ele><time>2026-05-03T08:52:34.751Z</time></trkpt><trkpt lat="43.1209936" lon="10.9421468"><ele>564.2</ele><time>2026-05-03T08:52:35.746Z</time></trkpt><trkpt lat="43.1210358" lon="10.9422503"><ele>564.4</ele><time>2026-05-03T08:52:36.756Z</time></trkpt><trkpt lat="43.1210737" lon="10.9423567"><ele>564.6</ele><time>2026-05-03T08:52:37.75Z</time></trkpt><trkpt lat="43.121111" lon="10.9424712"><ele>564.8</ele><time>2026-05-03T08:52:38.748Z</time></trkpt><trkpt lat="43.1211474" lon="10.9425964"><ele>565.0</ele><time>2026-05-03T08:52:39.745Z</time></trkpt><trkpt lat="43.1211832" lon="10.9427261"><ele>565.2</ele><time>2026-05-03T08:52:40.751Z</time></trkpt><trkpt lat="43.1212111" lon="10.9428618"><ele>565.4</ele><time>2026-05-03T08:52:41.753Z</time></trkpt><trkpt lat="43.1212408" lon="10.9430021"><ele>565.6</ele><time>2026-05-03T08:52:42.742Z</time></trkpt><trkpt lat="43.12127" lon="10.9431481"><ele>565.8</ele><time>2026-05-03T08:52:43.755Z</time></trkpt><trkpt lat="43.1213" lon="10.9432983"><ele>566.0</ele><time>2026-05-03T08:52:44.758Z</time></trkpt><trkpt lat="43.1213257" lon="10.9434466"><ele>567.0</ele><time>2026-05-03T08:52:45.752Z</time></trkpt><trkpt lat="43.1213325" lon="10.9436001"><ele>568.0</ele><time>2026-05-03T08:52:46.745Z</time></trkpt><trkpt lat="43.1213136" lon="10.9437556"><ele>569.0</ele><time>2026-05-03T08:52:47.758Z</time></trkpt><trkpt lat="43.121279" lon="10.9439291"><ele>570.0</ele><time>2026-05-03T08:52:48.748Z</time></trkpt><trkpt lat="43.1212423" lon="10.944111"><ele>570.0</ele><time>2026-05-03T08:52:49.748Z</time></trkpt><trkpt lat="43.1212106" lon="10.9442935"><ele>570.0</ele><time>2026-05-03T08:52:50.753Z</time></trkpt><trkpt lat="43.121206" lon="10.944484"><ele>570.0</ele><time>2026-05-03T08:52:51.759Z</time></trkpt><trkpt lat="43.1212329" lon="10.9446808"><ele>570.0</ele><time>2026-05-03T08:52:52.752Z</time></trkpt><trkpt lat="43.1212872" lon="10.9448723"><ele>570.3333333333334</ele><time>2026-05-03T08:52:53.769Z</time></trkpt><trkpt lat="43.1213546" lon="10.9450558"><ele>570.6666666666667</ele><time>2026-05-03T08:52:54.744Z</time></trkpt><trkpt lat="43.1214241" lon="10.9452495"><ele>571.0</ele><time>2026-05-03T08:52:55.746Z</time></trkpt><trkpt lat="43.1214904" lon="10.9454485"><ele>571.0</ele><time>2026-05-03T08:52:56.755Z</time></trkpt><trkpt lat="43.1215581" lon="10.945645"><ele>571.0</ele><time>2026-05-03T08:52:57.757Z</time></trkpt><trkpt lat="43.1216136" lon="10.9458526"><ele>571.0</ele><time>2026-05-03T08:52:58.751Z</time></trkpt><trkpt lat="43.1216384" lon="10.9460707"><ele>573.0</ele><time>2026-05-03T08:52:59.75Z</time></trkpt><trkpt lat="43.1216245" lon="10.9463002"><ele>575.0</ele><time>2026-05-03T08:53:00.754Z</time></trkpt><trkpt lat="43.1215924" lon="10.9465288"><ele>577.0</ele><time>2026-05-03T08:53:01.756Z</time></trkpt><trkpt lat="43.1215542" lon="10.9467422"><ele>577.0</ele><time>2026-05-03T08:53:02.75Z</time></trkpt><trkpt lat="43.1215181" lon="10.9469349"><ele>577.0</ele><time>2026-05-03T08:53:03.733Z</time></trkpt><trkpt lat="43.1214997" lon="10.9471203"><ele>577.0</ele><time>2026-05-03T08:53:04.753Z</time></trkpt><trkpt lat="43.1215097" lon="10.947311"><ele>577.0</ele><time>2026-05-03T08:53:05.755Z</time></trkpt><trkpt lat="43.1215402" lon="10.9474982"><ele>577.0</ele><time>2026-05-03T08:53:06.735Z</time></trkpt><trkpt lat="43.121565" lon="10.9476888"><ele>577.0</ele><time>2026-05-03T08:53:07.75Z</time></trkpt><trkpt lat="43.1215926" lon="10.9478772"><ele>577.0</ele><time>2026-05-03T08:53:08.757Z</time></trkpt><trkpt lat="43.1216179" lon="10.9480699"><ele>577.0</ele><time>2026-05-03T08:53:09.747Z</time></trkpt><trkpt lat="43.1216209" lon="10.9482739"><ele>578.75</ele><time>2026-05-03T08:53:10.761Z</time></trkpt><trkpt lat="43.1215967" lon="10.9484807"><ele>580.5</ele><time>2026-05-03T08:53:11.759Z</time></trkpt><trkpt lat="43.1215571" lon="10.9486512"><ele>582.25</ele><time>2026-05-03T08:53:12.741Z</time></trkpt><trkpt lat="43.1215195" lon="10.9487698"><ele>584.0</ele><time>2026-05-03T08:53:13.745Z</time></trkpt><trkpt lat="43.1214963" lon="10.9488666"><ele>584.0</ele><time>2026-05-03T08:53:14.738Z</time></trkpt><trkpt lat="43.1214648" lon="10.9490125"><ele>584.0</ele><time>2026-05-03T08:53:16.745Z</time></trkpt><trkpt lat="43.1214426" lon="10.9491536"><ele>584.0</ele><time>2026-05-03T08:53:18.749Z</time></trkpt><trkpt lat="43.1214188" lon="10.9492377"><ele>584.0</ele><time>2026-05-03T08:53:19.754Z</time></trkpt><trkpt lat="43.1214" lon="10.9493321"><ele>584.0</ele><time>2026-05-03T08:53:20.743Z</time></trkpt><trkpt lat="43.1213732" lon="10.9494291"><ele>584.0</ele><time>2026-05-03T08:53:21.753Z</time></trkpt><trkpt lat="43.1213437" lon="10.9495317"><ele>585.4</ele><time>2026-05-03T08:53:22.754Z</time></trkpt><trkpt lat="43.1213218" lon="10.9496368"><ele>586.8</ele><time>2026-05-03T08:53:23.752Z</time></trkpt><trkpt lat="43.1213008" lon="10.9497496"><ele>588.2</ele><time>2026-05-03T08:53:24.757Z</time></trkpt><trkpt lat="43.1212731" lon="10.949856"><ele>589.6</ele><time>2026-05-03T08:53:25.747Z</time></trkpt><trkpt lat="43.1212366" lon="10.9499859"><ele>591.0</ele><time>2026-05-03T08:53:26.749Z</time></trkpt><trkpt lat="43.1211826" lon="10.9501395"><ele>592.25</ele><time>2026-05-03T08:53:27.75Z</time></trkpt><trkpt lat="43.1211171" lon="10.9502983"><ele>593.5</ele><time>2026-05-03T08:53:28.742Z</time></trkpt><trkpt lat="43.1210456" lon="10.9504698"><ele>594.75</ele><time>2026-05-03T08:53:29.749Z</time></trkpt><trkpt lat="43.1209687" lon="10.9506485"><ele>596.0</ele><time>2026-05-03T08:53:30.749Z</time></trkpt><trkpt lat="43.1208925" lon="10.9508235"><ele>596.3333333333333</ele><time>2026-05-03T08:53:31.751Z</time></trkpt><trkpt lat="43.1208143" lon="10.9510105"><ele>596.6666666666666</ele><time>2026-05-03T08:53:32.755Z</time></trkpt><trkpt lat="43.1207354" lon="10.9512074"><ele>597.0</ele><time>2026-05-03T08:53:33.757Z</time></trkpt><trkpt lat="43.1206743" lon="10.951403"><ele>597.6666666666666</ele><time>2026-05-03T08:53:34.759Z</time></trkpt><trkpt lat="43.1206197" lon="10.9516072"><ele>598.3333333333333</ele><time>2026-05-03T08:53:35.752Z</time></trkpt><trkpt lat="43.1205634" lon="10.9518061"><ele>599.0</ele><time>2026-05-03T08:53:36.746Z</time></trkpt><trkpt lat="43.120509" lon="10.9519876"><ele>599.0</ele><time>2026-05-03T08:53:37.755Z</time></trkpt><trkpt lat="43.1204629" lon="10.9521539"><ele>599.0</ele><time>2026-05-03T08:53:38.741Z</time></trkpt><trkpt lat="43.1204279" lon="10.952299"><ele>599.0</ele><time>2026-05-03T08:53:39.748Z</time></trkpt><trkpt lat="43.1203853" lon="10.9524316"><ele>599.0</ele><time>2026-05-03T08:53:40.752Z</time></trkpt><trkpt lat="43.1203381" lon="10.9525442"><ele>599.0</ele><time>2026-05-03T08:53:41.743Z</time></trkpt><trkpt lat="43.1202876" lon="10.952627"><ele>597.5</ele><time>2026-05-03T08:53:42.743Z</time></trkpt><trkpt lat="43.1202311" lon="10.95269"><ele>596.0</ele><time>2026-05-03T08:53:43.739Z</time></trkpt><trkpt lat="43.1201683" lon="10.9527463"><ele>594.5</ele><time>2026-05-03T08:53:44.738Z</time></trkpt><trkpt lat="43.1200981" lon="10.9527858"><ele>593.0</ele><time>2026-05-03T08:53:45.751Z</time></trkpt><trkpt lat="43.1200235" lon="10.9527967"><ele>591.5</ele><time>2026-05-03T08:53:46.755Z</time></trkpt><trkpt lat="43.1199313" lon="10.9527904"><ele>590.0</ele><time>2026-05-03T08:53:47.742Z</time></trkpt><trkpt lat="43.119834" lon="10.9527731"><ele>590.0</ele><time>2026-05-03T08:53:48.754Z</time></trkpt><trkpt lat="43.1197304" lon="10.9527564"><ele>590.0</ele><time>2026-05-03T08:53:49.756Z</time></trkpt><trkpt lat="43.1196111" lon="10.9527455"><ele>590.0</ele><time>2026-05-03T08:53:50.752Z</time></trkpt><trkpt lat="43.1194817" lon="10.9527312"><ele>590.0</ele><time>2026-05-03T08:53:51.752Z</time></trkpt><trkpt lat="43.1193465" lon="10.9527173"><ele>590.0</ele><time>2026-05-03T08:53:52.752Z</time></trkpt><trkpt lat="43.1192095" lon="10.952704"><ele>590.0</ele><time>2026-05-03T08:53:53.759Z</time></trkpt><trkpt lat="43.1190699" lon="10.9526848"><ele>590.0</ele><time>2026-05-03T08:53:54.763Z</time></trkpt><trkpt lat="43.1189266" lon="10.9526874"><ele>590.0</ele><time>2026-05-03T08:53:55.758Z</time></trkpt><trkpt lat="43.1187929" lon="10.9527213"><ele>592.0</ele><time>2026-05-03T08:53:56.755Z</time></trkpt><trkpt lat="43.1186719" lon="10.9527852"><ele>594.0</ele><time>2026-05-03T08:53:57.759Z</time></trkpt><trkpt lat="43.1185578" lon="10.952903"><ele>596.0</ele><time>2026-05-03T08:53:58.752Z</time></trkpt><trkpt lat="43.11846" lon="10.9530663"><ele>598.0</ele><time>2026-05-03T08:53:59.766Z</time></trkpt><trkpt lat="43.1183804" lon="10.9532539"><ele>596.6666666666667</ele><time>2026-05-03T08:54:00.75Z</time></trkpt><trkpt lat="43.1183077" lon="10.9534563"><ele>595.3333333333334</ele><time>2026-05-03T08:54:01.753Z</time></trkpt><trkpt lat="43.1182411" lon="10.9536503"><ele>594.0</ele><time>2026-05-03T08:54:02.75Z</time></trkpt><trkpt lat="43.1181721" lon="10.9538319"><ele>595.25</ele><time>2026-05-03T08:54:03.747Z</time></trkpt><trkpt lat="43.1181118" lon="10.9540093"><ele>596.5</ele><time>2026-05-03T08:54:04.767Z</time></trkpt><trkpt lat="43.1180594" lon="10.9541844"><ele>597.75</ele><time>2026-05-03T08:54:05.748Z</time></trkpt><trkpt lat="43.1180213" lon="10.9543761"><ele>599.0</ele><time>2026-05-03T08:54:06.745Z</time></trkpt><trkpt lat="43.117995" lon="10.9545804"><ele>599.0</ele><time>2026-05-03T08:54:07.748Z</time></trkpt><trkpt lat="43.117963" lon="10.9547895"><ele>599.0</ele><time>2026-05-03T08:54:08.75Z</time></trkpt><trkpt lat="43.1179351" lon="10.9549956"><ele>599.0</ele><time>2026-05-03T08:54:09.75Z</time></trkpt><trkpt lat="43.1179089" lon="10.95521"><ele>597.6666666666666</ele><time>2026-05-03T08:54:10.746Z</time></trkpt><trkpt lat="43.117882" lon="10.9554214"><ele>596.3333333333334</ele><time>2026-05-03T08:54:11.761Z</time></trkpt><trkpt lat="43.1178514" lon="10.9556385"><ele>595.0</ele><time>2026-05-03T08:54:12.733Z</time></trkpt><trkpt lat="43.117818" lon="10.9558618"><ele>594.3333333333334</ele><time>2026-05-03T08:54:13.751Z</time></trkpt><trkpt lat="43.1177853" lon="10.9560846"><ele>593.6666666666666</ele><time>2026-05-03T08:54:14.757Z</time></trkpt><trkpt lat="43.1177517" lon="10.9563045"><ele>593.0</ele><time>2026-05-03T08:54:15.754Z</time></trkpt><trkpt lat="43.1177235" lon="10.9565265"><ele>594.3333333333333</ele><time>2026-05-03T08:54:16.739Z</time></trkpt><trkpt lat="43.1176903" lon="10.9567491"><ele>595.6666666666666</ele><time>2026-05-03T08:54:17.764Z</time></trkpt><trkpt lat="43.117659" lon="10.9569702"><ele>597.0</ele><time>2026-05-03T08:54:18.741Z</time></trkpt><trkpt lat="43.1176306" lon="10.9571935"><ele>597.0</ele><time>2026-05-03T08:54:19.748Z</time></trkpt><trkpt lat="43.1176086" lon="10.9574183"><ele>597.0</ele><time>2026-05-03T08:54:20.756Z</time></trkpt><trkpt lat="43.117581" lon="10.9576512"><ele>597.0</ele><time>2026-05-03T08:54:21.753Z</time></trkpt><trkpt lat="43.1175557" lon="10.9578815"><ele>596.6666666666666</ele><time>2026-05-03T08:54:22.749Z</time></trkpt><trkpt lat="43.1175271" lon="10.9581005"><ele>596.3333333333333</ele><time>2026-05-03T08:54:23.765Z</time></trkpt><trkpt lat="43.1174941" lon="10.9583324"><ele>596.0</ele><time>2026-05-03T08:54:24.743Z</time></trkpt><trkpt lat="43.1174611" lon="10.9585687"><ele>595.0</ele><time>2026-05-03T08:54:25.761Z</time></trkpt><trkpt lat="43.1174261" lon="10.9588073"><ele>594.0</ele><time>2026-05-03T08:54:26.755Z</time></trkpt><trkpt lat="43.1173838" lon="10.959044"><ele>593.0</ele><time>2026-05-03T08:54:27.75Z</time></trkpt><trkpt lat="43.1173264" lon="10.9592801"><ele>593.0</ele><time>2026-05-03T08:54:28.753Z</time></trkpt><trkpt lat="43.1172527" lon="10.9595143"><ele>593.0</ele><time>2026-05-03T08:54:29.763Z</time></trkpt><trkpt lat="43.1171578" lon="10.9597245"><ele>593.0</ele><time>2026-05-03T08:54:30.735Z</time></trkpt><trkpt lat="43.1170377" lon="10.9599178"><ele>594.3333333333333</ele><time>2026-05-03T08:54:31.757Z</time></trkpt><trkpt lat="43.1168978" lon="10.9600903"><ele>595.6666666666666</ele><time>2026-05-03T08:54:32.746Z</time></trkpt><trkpt lat="43.116749" lon="10.9602464"><ele>597.0</ele><time>2026-05-03T08:54:33.763Z</time></trkpt><trkpt lat="43.116602" lon="10.9603991"><ele>598.3333333333334</ele><time>2026-05-03T08:54:34.751Z</time></trkpt><trkpt lat="43.1164721" lon="10.9605596"><ele>599.6666666666667</ele><time>2026-05-03T08:54:35.76Z</time></trkpt><trkpt lat="43.1163608" lon="10.9607564"><ele>601.0</ele><time>2026-05-03T08:54:36.748Z</time></trkpt><trkpt lat="43.1162908" lon="10.9609796"><ele>601.0</ele><time>2026-05-03T08:54:37.742Z</time></trkpt><trkpt lat="43.116229" lon="10.9612289"><ele>601.0</ele><time>2026-05-03T08:54:38.748Z</time></trkpt><trkpt lat="43.1161684" lon="10.9614708"><ele>601.0</ele><time>2026-05-03T08:54:39.758Z</time></trkpt><trkpt lat="43.116105" lon="10.961708"><ele>603.0</ele><time>2026-05-03T08:54:40.747Z</time></trkpt><trkpt lat="43.116021" lon="10.9619397"><ele>605.0</ele><time>2026-05-03T08:54:41.753Z</time></trkpt><trkpt lat="43.1159158" lon="10.9621513"><ele>607.0</ele><time>2026-05-03T08:54:42.758Z</time></trkpt><trkpt lat="43.1157911" lon="10.9623546"><ele>606.3333333333334</ele><time>2026-05-03T08:54:43.773Z</time></trkpt><trkpt lat="43.1156717" lon="10.9625524"><ele>605.6666666666666</ele><time>2026-05-03T08:54:44.752Z</time></trkpt><trkpt lat="43.1155513" lon="10.9627436"><ele>605.0</ele><time>2026-05-03T08:54:45.758Z</time></trkpt><trkpt lat="43.1154382" lon="10.9629292"><ele>605.0</ele><time>2026-05-03T08:54:46.741Z</time></trkpt><trkpt lat="43.1153305" lon="10.9631075"><ele>605.0</ele><time>2026-05-03T08:54:47.743Z</time></trkpt><trkpt lat="43.1152299" lon="10.9632936"><ele>605.0</ele><time>2026-05-03T08:54:48.753Z</time></trkpt><trkpt lat="43.1151612" lon="10.9635004"><ele>606.0</ele><time>2026-05-03T08:54:49.751Z</time></trkpt><trkpt lat="43.1151179" lon="10.9637182"><ele>607.0</ele><time>2026-05-03T08:54:50.741Z</time></trkpt><trkpt lat="43.1151023" lon="10.9639479"><ele>608.0</ele><time>2026-05-03T08:54:51.733Z</time></trkpt><trkpt lat="43.1151162" lon="10.9641837"><ele>607.6666666666666</ele><time>2026-05-03T08:54:52.745Z</time></trkpt><trkpt lat="43.1151485" lon="10.9644223"><ele>607.3333333333334</ele><time>2026-05-03T08:54:53.751Z</time></trkpt><trkpt lat="43.1151944" lon="10.9646601"><ele>607.0</ele><time>2026-05-03T08:54:54.742Z</time></trkpt><trkpt lat="43.1152358" lon="10.9648953"><ele>606.0</ele><time>2026-05-03T08:54:55.735Z</time></trkpt><trkpt lat="43.1152753" lon="10.9651316"><ele>605.0</ele><time>2026-05-03T08:54:56.766Z</time></trkpt><trkpt lat="43.1153267" lon="10.9653573"><ele>604.0</ele><time>2026-05-03T08:54:57.749Z</time></trkpt><trkpt lat="43.1153945" lon="10.9655755"><ele>604.0</ele><time>2026-05-03T08:54:58.742Z</time></trkpt><trkpt lat="43.1154674" lon="10.9657821"><ele>604.0</ele><time>2026-05-03T08:54:59.741Z</time></trkpt><trkpt lat="43.115543" lon="10.9659784"><ele>604.0</ele><time>2026-05-03T08:55:00.743Z</time></trkpt><trkpt lat="43.1156206" lon="10.9661712"><ele>604.5</ele><time>2026-05-03T08:55:01.724Z</time></trkpt><trkpt lat="43.1156877" lon="10.9663514"><ele>605.0</ele><time>2026-05-03T08:55:02.739Z</time></trkpt><trkpt lat="43.1157403" lon="10.9665224"><ele>605.5</ele><time>2026-05-03T08:55:03.747Z</time></trkpt><trkpt lat="43.1157933" lon="10.966684"><ele>606.0</ele><time>2026-05-03T08:55:04.751Z</time></trkpt><trkpt lat="43.1158439" lon="10.9668341"><ele>608.8</ele><time>2026-05-03T08:55:05.751Z</time></trkpt><trkpt lat="43.1158995" lon="10.9669619"><ele>611.6</ele><time>2026-05-03T08:55:06.738Z</time></trkpt><trkpt lat="43.1159508" lon="10.9670861"><ele>614.4</ele><time>2026-05-03T08:55:07.747Z</time></trkpt><trkpt lat="43.1159962" lon="10.9671949"><ele>617.2</ele><time>2026-05-03T08:55:08.734Z</time></trkpt><trkpt lat="43.1160564" lon="10.9673014"><ele>620.0</ele><time>2026-05-03T08:55:09.747Z</time></trkpt><trkpt lat="43.1161265" lon="10.9673983"><ele>620.0</ele><time>2026-05-03T08:55:10.741Z</time></trkpt><trkpt lat="43.1162154" lon="10.9674872"><ele>620.0</ele><time>2026-05-03T08:55:11.734Z</time></trkpt><trkpt lat="43.1163076" lon="10.9675744"><ele>620.0</ele><time>2026-05-03T08:55:12.736Z</time></trkpt><trkpt lat="43.1164043" lon="10.9676404"><ele>620.0</ele><time>2026-05-03T08:55:13.749Z</time></trkpt><trkpt lat="43.1164686" lon="10.9676883"><ele>620.0</ele><time>2026-05-03T08:55:14.751Z</time></trkpt><trkpt lat="43.1165112" lon="10.9677746"><ele>621.3333333333333</ele><time>2026-05-03T08:55:16.751Z</time></trkpt><trkpt lat="43.116441" lon="10.9678233"><ele>622.6666666666666</ele><time>2026-05-03T08:55:18.741Z</time></trkpt><trkpt lat="43.1163523" lon="10.9678162"><ele>624.0</ele><time>2026-05-03T08:55:20.733Z</time></trkpt><trkpt lat="43.1162653" lon="10.967796"><ele>625.3333333333334</ele><time>2026-05-03T08:55:22.734Z</time></trkpt><trkpt lat="43.1161535" lon="10.9677674"><ele>626.6666666666667</ele><time>2026-05-03T08:55:24.761Z</time></trkpt><trkpt lat="43.1160876" lon="10.9677503"><ele>628.0</ele><time>2026-05-03T08:55:25.753Z</time></trkpt><trkpt lat="43.1160155" lon="10.9677397"><ele>628.0</ele><time>2026-05-03T08:55:26.74Z</time></trkpt><trkpt lat="43.1159059" lon="10.9677396"><ele>628.0</ele><time>2026-05-03T08:55:28.743Z</time></trkpt><trkpt lat="43.1158167" lon="10.9677157"><ele>628.0</ele><time>2026-05-03T08:55:30.748Z</time></trkpt><trkpt lat="43.1157437" lon="10.9677539"><ele>628.0</ele><time>2026-05-03T08:55:32.747Z</time></trkpt><trkpt lat="43.1157625" lon="10.9678518"><ele>628.0</ele><time>2026-05-03T08:55:35.745Z</time></trkpt><trkpt lat="43.1158475" lon="10.9678036"><ele>628.0</ele><time>2026-05-03T08:55:37.754Z</time></trkpt><trkpt lat="43.1159506" lon="10.9677378"><ele>628.0</ele><time>2026-05-03T08:55:39.757Z</time></trkpt><trkpt lat="43.1160194" lon="10.9677266"><ele>628.0</ele><time>2026-05-03T08:55:40.749Z</time></trkpt><trkpt lat="43.1160901" lon="10.9677309"><ele>628.0</ele><time>2026-05-03T08:55:41.753Z</time></trkpt><trkpt lat="43.1161867" lon="10.9677325"><ele>628.0</ele><time>2026-05-03T08:55:43.76Z</time></trkpt><trkpt lat="43.1162562" lon="10.9677539"><ele>628.0</ele><time>2026-05-03T08:55:46.743Z</time></trkpt><trkpt lat="43.1162414" lon="10.9678512"><ele>628.0</ele><time>2026-05-03T08:55:49.761Z</time></trkpt><trkpt lat="43.1161782" lon="10.9679467"><ele>628.0</ele><time>2026-05-03T08:55:51.74Z</time></trkpt><trkpt lat="43.1160991" lon="10.9680694"><ele>628.0</ele><time>2026-05-03T08:55:53.746Z</time></trkpt><trkpt lat="43.1160676" lon="10.9681543"><ele>628.0</ele><time>2026-05-03T08:55:54.733Z</time></trkpt><trkpt lat="43.1160393" lon="10.9682487"><ele>628.0</ele><time>2026-05-03T08:55:55.755Z</time></trkpt><trkpt lat="43.1160188" lon="10.9683573"><ele>628.0</ele><time>2026-05-03T08:55:56.739Z</time></trkpt><trkpt lat="43.1160067" lon="10.9684732"><ele>628.0</ele><time>2026-05-03T08:55:57.746Z</time></trkpt><trkpt lat="43.1160003" lon="10.9685823"><ele>630.5</ele><time>2026-05-03T08:55:58.739Z</time></trkpt><trkpt lat="43.1159956" lon="10.9686985"><ele>633.0</ele><time>2026-05-03T08:55:59.741Z</time></trkpt><trkpt lat="43.1159999" lon="10.9688173"><ele>635.5</ele><time>2026-05-03T08:56:00.741Z</time></trkpt><trkpt lat="43.116007" lon="10.9689366"><ele>638.0</ele><time>2026-05-03T08:56:01.75Z</time></trkpt><trkpt lat="43.1160079" lon="10.969057"><ele>640.5</ele><time>2026-05-03T08:56:02.742Z</time></trkpt><trkpt lat="43.1159884" lon="10.9691799"><ele>643.0</ele><time>2026-05-03T08:56:03.744Z</time></trkpt><trkpt lat="43.1159586" lon="10.9693058"><ele>645.0</ele><time>2026-05-03T08:56:04.747Z</time></trkpt><trkpt lat="43.1159235" lon="10.9694317"><ele>647.0</ele><time>2026-05-03T08:56:05.744Z</time></trkpt><trkpt lat="43.1158915" lon="10.9695554"><ele>649.0</ele><time>2026-05-03T08:56:06.732Z</time></trkpt><trkpt lat="43.1158624" lon="10.9696703"><ele>651.0</ele><time>2026-05-03T08:56:07.753Z</time></trkpt><trkpt lat="43.1158274" lon="10.9697854"><ele>653.0</ele><time>2026-05-03T08:56:08.754Z</time></trkpt><trkpt lat="43.1157851" lon="10.9699096"><ele>653.5</ele><time>2026-05-03T08:56:09.752Z</time></trkpt><trkpt lat="43.1157394" lon="10.9700433"><ele>654.0</ele><time>2026-05-03T08:56:10.745Z</time></trkpt><trkpt lat="43.1156887" lon="10.9701848"><ele>654.5</ele><time>2026-05-03T08:56:11.734Z</time></trkpt><trkpt lat="43.1156411" lon="10.9703259"><ele>655.0</ele><time>2026-05-03T08:56:12.75Z</time></trkpt><trkpt lat="43.1155854" lon="10.9704692"><ele>655.0</ele><time>2026-05-03T08:56:13.742Z</time></trkpt><trkpt lat="43.1155354" lon="10.9706225"><ele>655.0</ele><time>2026-05-03T08:56:14.746Z</time></trkpt><trkpt lat="43.1154955" lon="10.97077"><ele>655.0</ele><time>2026-05-03T08:56:15.748Z</time></trkpt><trkpt lat="43.115453" lon="10.9709097"><ele>655.0</ele><time>2026-05-03T08:56:16.751Z</time></trkpt><trkpt lat="43.1154253" lon="10.9710338"><ele>655.0</ele><time>2026-05-03T08:56:17.763Z</time></trkpt><trkpt lat="43.1154199" lon="10.9711495"><ele>658.0</ele><time>2026-05-03T08:56:18.747Z</time></trkpt><trkpt lat="43.1154314" lon="10.9712872"><ele>661.0</ele><time>2026-05-03T08:56:19.746Z</time></trkpt><trkpt lat="43.1154537" lon="10.9714296"><ele>664.0</ele><time>2026-05-03T08:56:20.743Z</time></trkpt><trkpt lat="43.1154695" lon="10.9715729"><ele>667.0</ele><time>2026-05-03T08:56:21.745Z</time></trkpt><trkpt lat="43.1154789" lon="10.9717178"><ele>670.0</ele><time>2026-05-03T08:56:22.742Z</time></trkpt><trkpt lat="43.1154772" lon="10.971868"><ele>671.25</ele><time>2026-05-03T08:56:23.738Z</time></trkpt><trkpt lat="43.1154686" lon="10.97202"><ele>672.5</ele><time>2026-05-03T08:56:24.763Z</time></trkpt><trkpt lat="43.1154588" lon="10.972178"><ele>673.75</ele><time>2026-05-03T08:56:25.746Z</time></trkpt><trkpt lat="43.1154406" lon="10.9723422"><ele>675.0</ele><time>2026-05-03T08:56:26.744Z</time></trkpt><trkpt lat="43.115416" lon="10.9725132"><ele>677.5</ele><time>2026-05-03T08:56:27.756Z</time></trkpt><trkpt lat="43.1153838" lon="10.972679"><ele>680.0</ele><time>2026-05-03T08:56:28.753Z</time></trkpt><trkpt lat="43.1153442" lon="10.97284"><ele>682.5</ele><time>2026-05-03T08:56:29.743Z</time></trkpt><trkpt lat="43.1152996" lon="10.9729852"><ele>685.0</ele><time>2026-05-03T08:56:30.738Z</time></trkpt><trkpt lat="43.1152393" lon="10.9731189"><ele>685.0</ele><time>2026-05-03T08:56:31.748Z</time></trkpt><trkpt lat="43.1151646" lon="10.9732358"><ele>685.0</ele><time>2026-05-03T08:56:32.743Z</time></trkpt><trkpt lat="43.1150789" lon="10.973333"><ele>685.0</ele><time>2026-05-03T08:56:33.751Z</time></trkpt><trkpt lat="43.1150024" lon="10.9734363"><ele>685.0</ele><time>2026-05-03T08:56:34.753Z</time></trkpt><trkpt lat="43.1149266" lon="10.973542"><ele>685.0</ele><time>2026-05-03T08:56:35.749Z</time></trkpt><trkpt lat="43.1148812" lon="10.9736583"><ele>686.0</ele><time>2026-05-03T08:56:36.748Z</time></trkpt><trkpt lat="43.1148638" lon="10.9737745"><ele>687.0</ele><time>2026-05-03T08:56:37.736Z</time></trkpt><trkpt lat="43.1148792" lon="10.9738831"><ele>688.0</ele><time>2026-05-03T08:56:38.748Z</time></trkpt><trkpt lat="43.1149465" lon="10.9739796"><ele>689.0</ele><time>2026-05-03T08:56:39.752Z</time></trkpt><trkpt lat="43.1150258" lon="10.9740738"><ele>690.0</ele><time>2026-05-03T08:56:40.758Z</time></trkpt><trkpt lat="43.1151339" lon="10.9741531"><ele>691.75</ele><time>2026-05-03T08:56:41.741Z</time></trkpt><trkpt lat="43.1152471" lon="10.9742443"><ele>693.5</ele><time>2026-05-03T08:56:42.745Z</time></trkpt><trkpt lat="43.1153472" lon="10.9743594"><ele>695.25</ele><time>2026-05-03T08:56:43.754Z</time></trkpt><trkpt lat="43.1154475" lon="10.9744838"><ele>697.0</ele><time>2026-05-03T08:56:44.741Z</time></trkpt><trkpt lat="43.1155456" lon="10.9746052"><ele>697.0</ele><time>2026-05-03T08:56:45.754Z</time></trkpt><trkpt lat="43.1156151" lon="10.9747193"><ele>697.0</ele><time>2026-05-03T08:56:46.739Z</time></trkpt><trkpt lat="43.1156594" lon="10.9748323"><ele>697.0</ele><time>2026-05-03T08:56:47.751Z</time></trkpt><trkpt lat="43.1156731" lon="10.9749459"><ele>697.0</ele><time>2026-05-03T08:56:48.754Z</time></trkpt><trkpt lat="43.1156561" lon="10.9750729"><ele>697.0</ele><time>2026-05-03T08:56:49.738Z</time></trkpt><trkpt lat="43.1156236" lon="10.9752162"><ele>698.25</ele><time>2026-05-03T08:56:50.733Z</time></trkpt><trkpt lat="43.1155763" lon="10.9753851"><ele>699.5</ele><time>2026-05-03T08:56:51.746Z</time></trkpt><trkpt lat="43.1155198" lon="10.9755626"><ele>700.75</ele><time>2026-05-03T08:56:52.742Z</time></trkpt><trkpt lat="43.1154658" lon="10.9757515"><ele>702.0</ele><time>2026-05-03T08:56:53.741Z</time></trkpt><trkpt lat="43.1154129" lon="10.9759335"><ele>702.6</ele><time>2026-05-03T08:56:54.741Z</time></trkpt><trkpt lat="43.1153602" lon="10.9760929"><ele>703.2</ele><time>2026-05-03T08:56:55.742Z</time></trkpt><trkpt lat="43.1153122" lon="10.9762269"><ele>703.8</ele><time>2026-05-03T08:56:56.735Z</time></trkpt><trkpt lat="43.1152739" lon="10.9763511"><ele>704.4</ele><time>2026-05-03T08:56:57.738Z</time></trkpt><trkpt lat="43.1152394" lon="10.9764782"><ele>705.0</ele><time>2026-05-03T08:56:58.73Z</time></trkpt><trkpt lat="43.1151998" lon="10.9766174"><ele>706.0</ele><time>2026-05-03T08:56:59.761Z</time></trkpt><trkpt lat="43.1151665" lon="10.9767735"><ele>707.0</ele><time>2026-05-03T08:57:00.74Z</time></trkpt><trkpt lat="43.1151316" lon="10.9769384"><ele>708.0</ele><time>2026-05-03T08:57:01.757Z</time></trkpt><trkpt lat="43.1150912" lon="10.9771038"><ele>709.0</ele><time>2026-05-03T08:57:02.722Z</time></trkpt><trkpt lat="43.1150433" lon="10.977266"><ele>709.0</ele><time>2026-05-03T08:57:03.763Z</time></trkpt><trkpt lat="43.1149928" lon="10.9774141"><ele>709.0</ele><time>2026-05-03T08:57:04.743Z</time></trkpt><trkpt lat="43.114941" lon="10.9775478"><ele>709.0</ele><time>2026-05-03T08:57:05.759Z</time></trkpt><trkpt lat="43.1148812" lon="10.977657"><ele>709.0</ele><time>2026-05-03T08:57:06.741Z</time></trkpt><trkpt lat="43.1148126" lon="10.9777271"><ele>709.0</ele><time>2026-05-03T08:57:07.745Z</time></trkpt><trkpt lat="43.1147366" lon="10.977753"><ele>709.0</ele><time>2026-05-03T08:57:08.742Z</time></trkpt><trkpt lat="43.1146619" lon="10.9777404"><ele>709.0</ele><time>2026-05-03T08:57:09.74Z</time></trkpt><trkpt lat="43.1145855" lon="10.9776928"><ele>709.0</ele><time>2026-05-03T08:57:10.75Z</time></trkpt><trkpt lat="43.114504" lon="10.9776093"><ele>709.0</ele><time>2026-05-03T08:57:11.75Z</time></trkpt><trkpt lat="43.1144228" lon="10.9774945"><ele>709.0</ele><time>2026-05-03T08:57:12.746Z</time></trkpt><trkpt lat="43.1143479" lon="10.9773773"><ele>707.4000000000001</ele><time>2026-05-03T08:57:13.747Z</time></trkpt><trkpt lat="43.1142815" lon="10.9772713"><ele>705.8</ele><time>2026-05-03T08:57:14.746Z</time></trkpt><trkpt lat="43.1142101" lon="10.977197"><ele>704.2</ele><time>2026-05-03T08:57:15.735Z</time></trkpt><trkpt lat="43.1141327" lon="10.9771545"><ele>702.5999999999999</ele><time>2026-05-03T08:57:16.745Z</time></trkpt><trkpt lat="43.1140504" lon="10.9771556"><ele>701.0</ele><time>2026-05-03T08:57:17.738Z</time></trkpt><trkpt lat="43.1139635" lon="10.9772011"><ele>699.25</ele><time>2026-05-03T08:57:18.741Z</time></trkpt><trkpt lat="43.1138788" lon="10.9772827"><ele>697.5</ele><time>2026-05-03T08:57:19.743Z</time></trkpt><trkpt lat="43.1137978" lon="10.9774101"><ele>695.75</ele><time>2026-05-03T08:57:20.751Z</time></trkpt><trkpt lat="43.1137151" lon="10.9775512"><ele>694.0</ele><time>2026-05-03T08:57:21.746Z</time></trkpt><trkpt lat="43.1136387" lon="10.9776785"><ele>693.8000000000001</ele><time>2026-05-03T08:57:22.732Z</time></trkpt><trkpt lat="43.1135648" lon="10.9777938"><ele>693.6</ele><time>2026-05-03T08:57:23.751Z</time></trkpt><trkpt lat="43.1134866" lon="10.9778808"><ele>693.4</ele><time>2026-05-03T08:57:24.731Z</time></trkpt><trkpt lat="43.1133898" lon="10.9779177"><ele>693.2</ele><time>2026-05-03T08:57:25.737Z</time></trkpt><trkpt lat="43.1132973" lon="10.9779352"><ele>693.0</ele><time>2026-05-03T08:57:26.731Z</time></trkpt><trkpt lat="43.1131938" lon="10.9779248"><ele>696.0</ele><time>2026-05-03T08:57:27.751Z</time></trkpt><trkpt lat="43.1130784" lon="10.9778975"><ele>699.0</ele><time>2026-05-03T08:57:28.724Z</time></trkpt><trkpt lat="43.1129523" lon="10.9778601"><ele>702.0</ele><time>2026-05-03T08:57:29.752Z</time></trkpt><trkpt lat="43.1128232" lon="10.9778179"><ele>705.0</ele><time>2026-05-03T08:57:30.734Z</time></trkpt><trkpt lat="43.1126827" lon="10.9777817"><ele>705.0</ele><time>2026-05-03T08:57:31.732Z</time></trkpt><trkpt lat="43.1125322" lon="10.9777384"><ele>705.0</ele><time>2026-05-03T08:57:32.746Z</time></trkpt><trkpt lat="43.1123863" lon="10.9776862"><ele>705.0</ele><time>2026-05-03T08:57:33.737Z</time></trkpt><trkpt lat="43.1122356" lon="10.9776393"><ele>707.5</ele><time>2026-05-03T08:57:34.736Z</time></trkpt><trkpt lat="43.1120919" lon="10.9776006"><ele>710.0</ele><time>2026-05-03T08:57:35.751Z</time></trkpt><trkpt lat="43.1119578" lon="10.977584"><ele>712.5</ele><time>2026-05-03T08:57:36.747Z</time></trkpt><trkpt lat="43.1118305" lon="10.9775917"><ele>715.0</ele><time>2026-05-03T08:57:37.742Z</time></trkpt><trkpt lat="43.1116885" lon="10.9776242"><ele>719.0</ele><time>2026-05-03T08:57:38.734Z</time></trkpt><trkpt lat="43.1115474" lon="10.9776814"><ele>723.0</ele><time>2026-05-03T08:57:39.753Z</time></trkpt><trkpt lat="43.1113991" lon="10.9777281"><ele>727.0</ele><time>2026-05-03T08:57:40.743Z</time></trkpt><trkpt lat="43.1112734" lon="10.9777672"><ele>731.0</ele><time>2026-05-03T08:57:41.744Z</time></trkpt><trkpt lat="43.1111428" lon="10.977788"><ele>731.0</ele><time>2026-05-03T08:57:42.726Z</time></trkpt><trkpt lat="43.1110069" lon="10.9777892"><ele>731.0</ele><time>2026-05-03T08:57:43.758Z</time></trkpt><trkpt lat="43.1108801" lon="10.9777571"><ele>731.0</ele><time>2026-05-03T08:57:44.742Z</time></trkpt><trkpt lat="43.1107631" lon="10.9777063"><ele>731.0</ele><time>2026-05-03T08:57:45.738Z</time></trkpt><trkpt lat="43.110649" lon="10.9776322"><ele>734.5</ele><time>2026-05-03T08:57:46.739Z</time></trkpt><trkpt lat="43.1105386" lon="10.9775517"><ele>738.0</ele><time>2026-05-03T08:57:47.755Z</time></trkpt><trkpt lat="43.1104256" lon="10.9774718"><ele>741.5</ele><time>2026-05-03T08:57:48.735Z</time></trkpt><trkpt lat="43.1103035" lon="10.9773985"><ele>745.0</ele><time>2026-05-03T08:57:49.75Z</time></trkpt><trkpt lat="43.1101806" lon="10.9773193"><ele>745.0</ele><time>2026-05-03T08:57:50.739Z</time></trkpt><trkpt lat="43.1100664" lon="10.9772394"><ele>745.0</ele><time>2026-05-03T08:57:51.735Z</time></trkpt><trkpt lat="43.1099538" lon="10.9771499"><ele>745.0</ele><time>2026-05-03T08:57:52.748Z</time></trkpt><trkpt lat="43.1098469" lon="10.9770508"><ele>745.0</ele><time>2026-05-03T08:57:53.749Z</time></trkpt><trkpt lat="43.109742" lon="10.9769404"><ele>745.75</ele><time>2026-05-03T08:57:54.734Z</time></trkpt><trkpt lat="43.1096348" lon="10.9768244"><ele>746.5</ele><time>2026-05-03T08:57:55.751Z</time></trkpt><trkpt lat="43.10953" lon="10.9766978"><ele>747.25</ele><time>2026-05-03T08:57:56.759Z</time></trkpt><trkpt lat="43.1094168" lon="10.976573"><ele>748.0</ele><time>2026-05-03T08:57:57.746Z</time></trkpt><trkpt lat="43.1092994" lon="10.9764566"><ele>748.0</ele><time>2026-05-03T08:57:58.74Z</time></trkpt><trkpt lat="43.1091751" lon="10.9763418"><ele>748.0</ele><time>2026-05-03T08:57:59.754Z</time></trkpt><trkpt lat="43.1090526" lon="10.9762139"><ele>748.0</ele><time>2026-05-03T08:58:00.746Z</time></trkpt><trkpt lat="43.1089233" lon="10.9760887"><ele>752.0</ele><time>2026-05-03T08:58:01.746Z</time></trkpt><trkpt lat="43.1087984" lon="10.9759608"><ele>756.0</ele><time>2026-05-03T08:58:02.746Z</time></trkpt><trkpt lat="43.1086815" lon="10.9758259"><ele>760.0</ele><time>2026-05-03T08:58:03.737Z</time></trkpt><trkpt lat="43.1085733" lon="10.9756929"><ele>760.0</ele><time>2026-05-03T08:58:04.732Z</time></trkpt><trkpt lat="43.1084806" lon="10.9755681"><ele>760.0</ele><time>2026-05-03T08:58:05.746Z</time></trkpt><trkpt lat="43.1084093" lon="10.9754465"><ele>760.0</ele><time>2026-05-03T08:58:06.742Z</time></trkpt><trkpt lat="43.1083464" lon="10.9753336"><ele>760.0</ele><time>2026-05-03T08:58:07.735Z</time></trkpt><trkpt lat="43.1082822" lon="10.9752348"><ele>760.0</ele><time>2026-05-03T08:58:08.738Z</time></trkpt><trkpt lat="43.1082215" lon="10.9751581"><ele>762.8</ele><time>2026-05-03T08:58:09.746Z</time></trkpt><trkpt lat="43.1081591" lon="10.9751011"><ele>765.6</ele><time>2026-05-03T08:58:10.722Z</time></trkpt><trkpt lat="43.1080738" lon="10.9750786"><ele>768.4000000000001</ele><time>2026-05-03T08:58:11.751Z</time></trkpt><trkpt lat="43.1079716" lon="10.975077"><ele>771.2</ele><time>2026-05-03T08:58:12.746Z</time></trkpt><trkpt lat="43.1078721" lon="10.9750674"><ele>774.0</ele><time>2026-05-03T08:58:13.74Z</time></trkpt><trkpt lat="43.1077798" lon="10.9750464"><ele>769.0</ele><time>2026-05-03T08:58:14.736Z</time></trkpt><trkpt lat="43.1076638" lon="10.9749919"><ele>764.0</ele><time>2026-05-03T08:58:15.744Z</time></trkpt><trkpt lat="43.1075529" lon="10.9748981"><ele>759.0</ele><time>2026-05-03T08:58:16.739Z</time></trkpt><trkpt lat="43.1074589" lon="10.9747831"><ele>754.0</ele><time>2026-05-03T08:58:17.74Z</time></trkpt><trkpt lat="43.1073684" lon="10.9746721"><ele>754.0</ele><time>2026-05-03T08:58:18.73Z</time></trkpt><trkpt lat="43.1072959" lon="10.9745431"><ele>754.0</ele><time>2026-05-03T08:58:19.753Z</time></trkpt><trkpt lat="43.1072246" lon="10.9744134"><ele>754.0</ele><time>2026-05-03T08:58:20.734Z</time></trkpt><trkpt lat="43.1071846" lon="10.9742589"><ele>754.0</ele><time>2026-05-03T08:58:21.763Z</time></trkpt><trkpt lat="43.1071715" lon="10.9740938"><ele>751.6</ele><time>2026-05-03T08:58:22.746Z</time></trkpt><trkpt lat="43.1071622" lon="10.9739346"><ele>749.2</ele><time>2026-05-03T08:58:23.74Z</time></trkpt><trkpt lat="43.1071495" lon="10.9737946"><ele>746.8000000000001</ele><time>2026-05-03T08:58:24.732Z</time></trkpt><trkpt lat="43.1071249" lon="10.9736664"><ele>744.4000000000001</ele><time>2026-05-03T08:58:25.746Z</time></trkpt><trkpt lat="43.1070826" lon="10.973558"><ele>742.0</ele><time>2026-05-03T08:58:26.742Z</time></trkpt><trkpt lat="43.1070225" lon="10.9734714"><ele>742.0</ele><time>2026-05-03T08:58:27.739Z</time></trkpt><trkpt lat="43.1069475" lon="10.9734052"><ele>742.0</ele><time>2026-05-03T08:58:28.731Z</time></trkpt><trkpt lat="43.1068614" lon="10.9733596"><ele>742.0</ele><time>2026-05-03T08:58:29.743Z</time></trkpt><trkpt lat="43.1067575" lon="10.9733294"><ele>742.0</ele><time>2026-05-03T08:58:30.749Z</time></trkpt><trkpt lat="43.1066385" lon="10.9732964"><ele>742.0</ele><time>2026-05-03T08:58:31.737Z</time></trkpt><trkpt lat="43.1065038" lon="10.9732748"><ele>741.3333333333334</ele><time>2026-05-03T08:58:32.729Z</time></trkpt><trkpt lat="43.1063534" lon="10.9732408"><ele>740.6666666666666</ele><time>2026-05-03T08:58:33.739Z</time></trkpt><trkpt lat="43.1061953" lon="10.9732062"><ele>740.0</ele><time>2026-05-03T08:58:34.734Z</time></trkpt><trkpt lat="43.1060448" lon="10.9731591"><ele>740.0</ele><time>2026-05-03T08:58:35.723Z</time></trkpt><trkpt lat="43.1059131" lon="10.9730969"><ele>740.0</ele><time>2026-05-03T08:58:36.734Z</time></trkpt><trkpt lat="43.1057867" lon="10.9730137"><ele>740.0</ele><time>2026-05-03T08:58:37.741Z</time></trkpt><trkpt lat="43.1056668" lon="10.972914"><ele>740.0</ele><time>2026-05-03T08:58:38.729Z</time></trkpt><trkpt lat="43.1055522" lon="10.9727887"><ele>737.6666666666666</ele><time>2026-05-03T08:58:39.738Z</time></trkpt><trkpt lat="43.1054248" lon="10.9726359"><ele>735.3333333333334</ele><time>2026-05-03T08:58:40.739Z</time></trkpt><trkpt lat="43.1052887" lon="10.9724835"><ele>733.0</ele><time>2026-05-03T08:58:41.74Z</time></trkpt><trkpt lat="43.1051547" lon="10.9723369"><ele>733.0</ele><time>2026-05-03T08:58:42.724Z</time></trkpt><trkpt lat="43.1050208" lon="10.9722086"><ele>733.0</ele><time>2026-05-03T08:58:43.738Z</time></trkpt><trkpt lat="43.1049087" lon="10.9720976"><ele>733.0</ele><time>2026-05-03T08:58:44.734Z</time></trkpt><trkpt lat="43.1048111" lon="10.9719991"><ele>733.0</ele><time>2026-05-03T08:58:45.741Z</time></trkpt><trkpt lat="43.1047243" lon="10.9719211"><ele>734.2</ele><time>2026-05-03T08:58:46.739Z</time></trkpt><trkpt lat="43.1046308" lon="10.97187"><ele>735.4</ele><time>2026-05-03T08:58:47.752Z</time></trkpt><trkpt lat="43.1045282" lon="10.9718497"><ele>736.6</ele><time>2026-05-03T08:58:48.726Z</time></trkpt><trkpt lat="43.1044255" lon="10.9718564"><ele>737.8000000000001</ele><time>2026-05-03T08:58:49.746Z</time></trkpt><trkpt lat="43.1043207" lon="10.9718897"><ele>739.0</ele><time>2026-05-03T08:58:50.74Z</time></trkpt><trkpt lat="43.1042088" lon="10.9719515"><ele>739.0</ele><time>2026-05-03T08:58:51.741Z</time></trkpt><trkpt lat="43.1040924" lon="10.9720252"><ele>739.0</ele><time>2026-05-03T08:58:52.741Z</time></trkpt><trkpt lat="43.1039528" lon="10.9721053"><ele>739.0</ele><time>2026-05-03T08:58:53.741Z</time></trkpt><trkpt lat="43.1038041" lon="10.9721894"><ele>739.0</ele><time>2026-05-03T08:58:54.73Z</time></trkpt><trkpt lat="43.1036466" lon="10.9722733"><ele>742.6666666666667</ele><time>2026-05-03T08:58:55.741Z</time></trkpt><trkpt lat="43.103484" lon="10.97236"><ele>746.3333333333334</ele><time>2026-05-03T08:58:56.747Z</time></trkpt><trkpt lat="43.1033276" lon="10.9724581"><ele>750.0</ele><time>2026-05-03T08:58:57.756Z</time></trkpt><trkpt lat="43.1031739" lon="10.9725494"><ele>753.6666666666666</ele><time>2026-05-03T08:58:58.744Z</time></trkpt><trkpt lat="43.1030213" lon="10.9726362"><ele>757.3333333333333</ele><time>2026-05-03T08:58:59.732Z</time></trkpt><trkpt lat="43.1028651" lon="10.9727227"><ele>761.0</ele><time>2026-05-03T08:59:00.738Z</time></trkpt><trkpt lat="43.1027032" lon="10.9728079"><ele>761.0</ele><time>2026-05-03T08:59:01.739Z</time></trkpt><trkpt lat="43.1025437" lon="10.9728968"><ele>761.0</ele><time>2026-05-03T08:59:02.744Z</time></trkpt><trkpt lat="43.1023921" lon="10.9729799"><ele>761.0</ele><time>2026-05-03T08:59:03.73Z</time></trkpt><trkpt lat="43.1022487" lon="10.9730644"><ele>764.75</ele><time>2026-05-03T08:59:04.725Z</time></trkpt><trkpt lat="43.1021264" lon="10.9731559"><ele>768.5</ele><time>2026-05-03T08:59:05.738Z</time></trkpt><trkpt lat="43.1020116" lon="10.9732565"><ele>772.25</ele><time>2026-05-03T08:59:06.725Z</time></trkpt><trkpt lat="43.1019085" lon="10.9733645"><ele>776.0</ele><time>2026-05-03T08:59:07.741Z</time></trkpt><trkpt lat="43.1018075" lon="10.9734887"><ele>777.5</ele><time>2026-05-03T08:59:08.747Z</time></trkpt><trkpt lat="43.1017202" lon="10.9736155"><ele>779.0</ele><time>2026-05-03T08:59:09.737Z</time></trkpt><trkpt lat="43.1016593" lon="10.973746"><ele>780.5</ele><time>2026-05-03T08:59:10.731Z</time></trkpt><trkpt lat="43.1016105" lon="10.9738809"><ele>782.0</ele><time>2026-05-03T08:59:11.734Z</time></trkpt><trkpt lat="43.1015847" lon="10.9740333"><ele>785.25</ele><time>2026-05-03T08:59:12.738Z</time></trkpt><trkpt lat="43.1015752" lon="10.9741993"><ele>788.5</ele><time>2026-05-03T08:59:13.745Z</time></trkpt><trkpt lat="43.1015556" lon="10.9743565"><ele>791.75</ele><time>2026-05-03T08:59:14.734Z</time></trkpt><trkpt lat="43.1015142" lon="10.9745033"><ele>795.0</ele><time>2026-05-03T08:59:15.741Z</time></trkpt><trkpt lat="43.1014637" lon="10.9746461"><ele>795.0</ele><time>2026-05-03T08:59:16.736Z</time></trkpt><trkpt lat="43.1014003" lon="10.9747945"><ele>795.0</ele><time>2026-05-03T08:59:17.739Z</time></trkpt><trkpt lat="43.1013302" lon="10.9749476"><ele>795.0</ele><time>2026-05-03T08:59:18.741Z</time></trkpt><trkpt lat="43.1012452" lon="10.9751122"><ele>795.0</ele><time>2026-05-03T08:59:19.754Z</time></trkpt><trkpt lat="43.1011559" lon="10.9752892"><ele>793.6666666666667</ele><time>2026-05-03T08:59:20.737Z</time></trkpt><trkpt lat="43.1010636" lon="10.9754684"><ele>792.3333333333334</ele><time>2026-05-03T08:59:21.735Z</time></trkpt><trkpt lat="43.1009715" lon="10.9756539"><ele>791.0</ele><time>2026-05-03T08:59:22.734Z</time></trkpt><trkpt lat="43.1008771" lon="10.9758386"><ele>793.6666666666667</ele><time>2026-05-03T08:59:23.734Z</time></trkpt><trkpt lat="43.1007645" lon="10.9760261"><ele>796.3333333333333</ele><time>2026-05-03T08:59:24.741Z</time></trkpt><trkpt lat="43.1006533" lon="10.9762227"><ele>799.0</ele><time>2026-05-03T08:59:25.732Z</time></trkpt><trkpt lat="43.1005473" lon="10.976415"><ele>799.3333333333333</ele><time>2026-05-03T08:59:26.739Z</time></trkpt><trkpt lat="43.1004446" lon="10.9766063"><ele>799.6666666666667</ele><time>2026-05-03T08:59:27.733Z</time></trkpt><trkpt lat="43.1003489" lon="10.9767992"><ele>800.0</ele><time>2026-05-03T08:59:28.735Z</time></trkpt><trkpt lat="43.1002558" lon="10.9769846"><ele>800.0</ele><time>2026-05-03T08:59:29.741Z</time></trkpt><trkpt lat="43.1001658" lon="10.9771546"><ele>800.0</ele><time>2026-05-03T08:59:30.739Z</time></trkpt><trkpt lat="43.1000813" lon="10.9773061"><ele>800.0</ele><time>2026-05-03T08:59:31.735Z</time></trkpt><trkpt lat="43.0999879" lon="10.9774395"><ele>800.0</ele><time>2026-05-03T08:59:32.727Z</time></trkpt><trkpt lat="43.0998883" lon="10.9775491"><ele>802.6</ele><time>2026-05-03T08:59:33.733Z</time></trkpt><trkpt lat="43.0997883" lon="10.9776271"><ele>805.2</ele><time>2026-05-03T08:59:34.737Z</time></trkpt><trkpt lat="43.0996931" lon="10.9776648"><ele>807.8</ele><time>2026-05-03T08:59:35.745Z</time></trkpt><trkpt lat="43.0995978" lon="10.9776639"><ele>810.4</ele><time>2026-05-03T08:59:36.731Z</time></trkpt><trkpt lat="43.0995041" lon="10.9776252"><ele>813.0</ele><time>2026-05-03T08:59:37.739Z</time></trkpt><trkpt lat="43.0994071" lon="10.9775454"><ele>812.0</ele><time>2026-05-03T08:59:38.734Z</time></trkpt><trkpt lat="43.0993184" lon="10.977435"><ele>811.0</ele><time>2026-05-03T08:59:39.735Z</time></trkpt><trkpt lat="43.0992268" lon="10.9773167"><ele>810.0</ele><time>2026-05-03T08:59:40.729Z</time></trkpt><trkpt lat="43.099121" lon="10.9771898"><ele>809.0</ele><time>2026-05-03T08:59:41.742Z</time></trkpt><trkpt lat="43.0990116" lon="10.9770433"><ele>810.75</ele><time>2026-05-03T08:59:42.733Z</time></trkpt><trkpt lat="43.0989053" lon="10.97689"><ele>812.5</ele><time>2026-05-03T08:59:43.74Z</time></trkpt><trkpt lat="43.0988226" lon="10.9767328"><ele>814.25</ele><time>2026-05-03T08:59:44.726Z</time></trkpt><trkpt lat="43.0987622" lon="10.9765832"><ele>816.0</ele><time>2026-05-03T08:59:45.734Z</time></trkpt><trkpt lat="43.0987089" lon="10.9764732"><ele>816.0</ele><time>2026-05-03T08:59:46.734Z</time></trkpt><trkpt lat="43.0986614" lon="10.9763998"><ele>816.0</ele><time>2026-05-03T08:59:47.741Z</time></trkpt><trkpt lat="43.0985815" lon="10.97637"><ele>816.0</ele><time>2026-05-03T08:59:49.726Z</time></trkpt><trkpt lat="43.0985069" lon="10.9764656"><ele>816.0</ele><time>2026-05-03T08:59:51.742Z</time></trkpt><trkpt lat="43.0984788" lon="10.9765604"><ele>816.0</ele><time>2026-05-03T08:59:52.742Z</time></trkpt><trkpt lat="43.0984636" lon="10.9766647"><ele>816.0</ele><time>2026-05-03T08:59:53.735Z</time></trkpt><trkpt lat="43.0984696" lon="10.9767787"><ele>819.0</ele><time>2026-05-03T08:59:54.74Z</time></trkpt><trkpt lat="43.0984922" lon="10.9768927"><ele>822.0</ele><time>2026-05-03T08:59:55.744Z</time></trkpt><trkpt lat="43.0985232" lon="10.9770091"><ele>825.0</ele><time>2026-05-03T08:59:56.734Z</time></trkpt><trkpt lat="43.0985496" lon="10.9771406"><ele>828.0</ele><time>2026-05-03T08:59:57.733Z</time></trkpt><trkpt lat="43.0985716" lon="10.9772869"><ele>831.0</ele><time>2026-05-03T08:59:58.737Z</time></trkpt><trkpt lat="43.0986009" lon="10.977426"><ele>831.4</ele><time>2026-05-03T08:59:59.744Z</time></trkpt><trkpt lat="43.0986315" lon="10.9775695"><ele>831.8</ele><time>2026-05-03T09:00:00.745Z</time></trkpt><trkpt lat="43.0986568" lon="10.9777088"><ele>832.1999999999999</ele><time>2026-05-03T09:00:01.738Z</time></trkpt><trkpt lat="43.0986726" lon="10.9778361"><ele>832.5999999999999</ele><time>2026-05-03T09:00:02.734Z</time></trkpt><trkpt lat="43.0986694" lon="10.977961"><ele>833.0</ele><time>2026-05-03T09:00:03.741Z</time></trkpt><trkpt lat="43.0986432" lon="10.9780813"><ele>833.0</ele><time>2026-05-03T09:00:04.739Z</time></trkpt><trkpt lat="43.0986029" lon="10.9781959"><ele>833.0</ele><time>2026-05-03T09:00:05.733Z</time></trkpt><trkpt lat="43.0985506" lon="10.9782999"><ele>833.0</ele><time>2026-05-03T09:00:06.737Z</time></trkpt><trkpt lat="43.098498" lon="10.9783999"><ele>833.0</ele><time>2026-05-03T09:00:07.747Z</time></trkpt><trkpt lat="43.0984371" lon="10.9784994"><ele>833.0</ele><time>2026-05-03T09:00:08.742Z</time></trkpt><trkpt lat="43.0983778" lon="10.9785943"><ele>832.4</ele><time>2026-05-03T09:00:09.738Z</time></trkpt><trkpt lat="43.0983323" lon="10.9786828"><ele>831.8</ele><time>2026-05-03T09:00:10.739Z</time></trkpt><trkpt lat="43.0983073" lon="10.9787775"><ele>831.2</ele><time>2026-05-03T09:00:11.736Z</time></trkpt><trkpt lat="43.0982962" lon="10.9789009"><ele>830.6</ele><time>2026-05-03T09:00:12.729Z</time></trkpt><trkpt lat="43.0982944" lon="10.9790475"><ele>830.0</ele><time>2026-05-03T09:00:13.732Z</time></trkpt><trkpt lat="43.0983066" lon="10.9791933"><ele>828.2</ele><time>2026-05-03T09:00:14.729Z</time></trkpt><trkpt lat="43.0983333" lon="10.9793381"><ele>826.4</ele><time>2026-05-03T09:00:15.742Z</time></trkpt><trkpt lat="43.0983663" lon="10.9794542"><ele>824.5999999999999</ele><time>2026-05-03T09:00:16.728Z</time></trkpt><trkpt lat="43.0983918" lon="10.9795896"><ele>822.8</ele><time>2026-05-03T09:00:18.73Z</time></trkpt><trkpt lat="43.0983653" lon="10.9797311"><ele>821.0</ele><time>2026-05-03T09:00:20.746Z</time></trkpt><trkpt lat="43.0983254" lon="10.9798731"><ele>818.1999999999999</ele><time>2026-05-03T09:00:22.731Z</time></trkpt><trkpt lat="43.0982986" lon="10.9800167"><ele>815.4</ele><time>2026-05-03T09:00:24.745Z</time></trkpt><trkpt lat="43.0983459" lon="10.9801534"><ele>812.6</ele><time>2026-05-03T09:00:26.739Z</time></trkpt><trkpt lat="43.0983948" lon="10.9802527"><ele>809.8</ele><time>2026-05-03T09:00:27.739Z</time></trkpt><trkpt lat="43.0984509" lon="10.9803637"><ele>807.0</ele><time>2026-05-03T09:00:28.731Z</time></trkpt><trkpt lat="43.0985072" lon="10.9804883"><ele>807.0</ele><time>2026-05-03T09:00:29.732Z</time></trkpt><trkpt lat="43.0985576" lon="10.9806165"><ele>807.0</ele><time>2026-05-03T09:00:30.734Z</time></trkpt><trkpt lat="43.0986176" lon="10.9807383"><ele>807.0</ele><time>2026-05-03T09:00:31.733Z</time></trkpt><trkpt lat="43.0986713" lon="10.9808734"><ele>807.0</ele><time>2026-05-03T09:00:32.748Z</time></trkpt><trkpt lat="43.0987155" lon="10.9809966"><ele>807.0</ele><time>2026-05-03T09:00:33.74Z</time></trkpt><trkpt lat="43.0987465" lon="10.9811179"><ele>806.1666666666666</ele><time>2026-05-03T09:00:34.73Z</time></trkpt><trkpt lat="43.098768" lon="10.9812384"><ele>805.3333333333333</ele><time>2026-05-03T09:00:35.734Z</time></trkpt><trkpt lat="43.0987746" lon="10.9813586"><ele>804.5</ele><time>2026-05-03T09:00:36.737Z</time></trkpt><trkpt lat="43.0987565" lon="10.9814722"><ele>803.6666666666666</ele><time>2026-05-03T09:00:37.74Z</time></trkpt><trkpt lat="43.0987115" lon="10.981573"><ele>802.8333333333333</ele><time>2026-05-03T09:00:38.744Z</time></trkpt><trkpt lat="43.0986609" lon="10.9816405"><ele>802.0</ele><time>2026-05-03T09:00:39.738Z</time></trkpt><trkpt lat="43.098594" lon="10.9816511"><ele>802.0</ele><time>2026-05-03T09:00:40.757Z</time></trkpt><trkpt lat="43.0985073" lon="10.9816302"><ele>802.0</ele><time>2026-05-03T09:00:41.738Z</time></trkpt><trkpt lat="43.0984005" lon="10.9815997"><ele>802.0</ele><time>2026-05-03T09:00:42.744Z</time></trkpt><trkpt lat="43.098291" lon="10.9815789"><ele>802.0</ele><time>2026-05-03T09:00:43.745Z</time></trkpt><trkpt lat="43.0981806" lon="10.9815766"><ele>802.0</ele><time>2026-05-03T09:00:44.74Z</time></trkpt><trkpt lat="43.0980785" lon="10.9816003"><ele>800.2</ele><time>2026-05-03T09:00:45.754Z</time></trkpt><trkpt lat="43.0979837" lon="10.9816762"><ele>798.4000000000001</ele><time>2026-05-03T09:00:46.74Z</time></trkpt><trkpt lat="43.0978984" lon="10.9817529"><ele>796.5999999999999</ele><time>2026-05-03T09:00:47.745Z</time></trkpt><trkpt lat="43.0978122" lon="10.9818064"><ele>794.8</ele><time>2026-05-03T09:00:48.743Z</time></trkpt><trkpt lat="43.0977267" lon="10.9818617"><ele>793.0</ele><time>2026-05-03T09:00:49.738Z</time></trkpt><trkpt lat="43.0976463" lon="10.98194"><ele>793.0</ele><time>2026-05-03T09:00:50.742Z</time></trkpt><trkpt lat="43.0975849" lon="10.9820494"><ele>793.0</ele><time>2026-05-03T09:00:51.753Z</time></trkpt><trkpt lat="43.0975319" lon="10.9821832"><ele>793.0</ele><time>2026-05-03T09:00:52.751Z</time></trkpt><trkpt lat="43.0975117" lon="10.9823433"><ele>793.0</ele><time>2026-05-03T09:00:53.751Z</time></trkpt><trkpt lat="43.0975071" lon="10.9825274"><ele>792.4</ele><time>2026-05-03T09:00:54.746Z</time></trkpt><trkpt lat="43.0974828" lon="10.9826968"><ele>791.8</ele><time>2026-05-03T09:00:55.754Z</time></trkpt><trkpt lat="43.0974389" lon="10.9828317"><ele>791.2</ele><time>2026-05-03T09:00:56.74Z</time></trkpt><trkpt lat="43.0973889" lon="10.9829296"><ele>790.6</ele><time>2026-05-03T09:00:57.743Z</time></trkpt><trkpt lat="43.0973192" lon="10.9830161"><ele>790.0</ele><time>2026-05-03T09:00:58.754Z</time></trkpt><trkpt lat="43.0972556" lon="10.9831117"><ele>790.0</ele><time>2026-05-03T09:00:59.751Z</time></trkpt><trkpt lat="43.0971961" lon="10.9832089"><ele>790.0</ele><time>2026-05-03T09:01:00.743Z</time></trkpt><trkpt lat="43.0971517" lon="10.9833261"><ele>790.0</ele><time>2026-05-03T09:01:01.757Z</time></trkpt><trkpt lat="43.0971271" lon="10.9834577"><ele>790.0</ele><time>2026-05-03T09:01:02.73Z</time></trkpt><trkpt lat="43.0971342" lon="10.9836044"><ele>790.0</ele><time>2026-05-03T09:01:03.737Z</time></trkpt><trkpt lat="43.0971496" lon="10.9837523"><ele>789.1666666666666</ele><time>2026-05-03T09:01:04.752Z</time></trkpt><trkpt lat="43.0971689" lon="10.9838923"><ele>788.3333333333333</ele><time>2026-05-03T09:01:05.736Z</time></trkpt><trkpt lat="43.0971917" lon="10.9840208"><ele>787.5</ele><time>2026-05-03T09:01:06.727Z</time></trkpt><trkpt lat="43.0972105" lon="10.9841372"><ele>786.6666666666667</ele><time>2026-05-03T09:01:07.741Z</time></trkpt><trkpt lat="43.0972196" lon="10.9842363"><ele>785.8333333333334</ele><time>2026-05-03T09:01:08.738Z</time></trkpt><trkpt lat="43.0972182" lon="10.9843254"><ele>785.0</ele><time>2026-05-03T09:01:09.744Z</time></trkpt><trkpt lat="43.0971505" lon="10.9844451"><ele>781.0</ele><time>2026-05-03T09:01:11.757Z</time></trkpt><trkpt lat="43.0970218" lon="10.9845062"><ele>777.0</ele><time>2026-05-03T09:01:13.736Z</time></trkpt><trkpt lat="43.0969245" lon="10.9845289"><ele>773.0</ele><time>2026-05-03T09:01:14.741Z</time></trkpt><trkpt lat="43.0968133" lon="10.9845471"><ele>769.0</ele><time>2026-05-03T09:01:15.735Z</time></trkpt><trkpt lat="43.0967036" lon="10.9845725"><ele>769.0</ele><time>2026-05-03T09:01:16.738Z</time></trkpt><trkpt lat="43.0966028" lon="10.9846049"><ele>769.0</ele><time>2026-05-03T09:01:17.752Z</time></trkpt><trkpt lat="43.0965071" lon="10.9846374"><ele>769.0</ele><time>2026-05-03T09:01:18.74Z</time></trkpt><trkpt lat="43.0964147" lon="10.9846916"><ele>769.0</ele><time>2026-05-03T09:01:19.739Z</time></trkpt><trkpt lat="43.096317" lon="10.9847694"><ele>769.0</ele><time>2026-05-03T09:01:20.739Z</time></trkpt><trkpt lat="43.0962238" lon="10.9848589"><ele>769.4000000000001</ele><time>2026-05-03T09:01:21.738Z</time></trkpt><trkpt lat="43.096123" lon="10.984953"><ele>769.8</ele><time>2026-05-03T09:01:22.731Z</time></trkpt><trkpt lat="43.0960272" lon="10.9850501"><ele>770.2</ele><time>2026-05-03T09:01:23.744Z</time></trkpt><trkpt lat="43.0959375" lon="10.9851415"><ele>770.5999999999999</ele><time>2026-05-03T09:01:24.733Z</time></trkpt><trkpt lat="43.0958786" lon="10.985211"><ele>771.0</ele><time>2026-05-03T09:01:25.748Z</time></trkpt><trkpt lat="43.0958014" lon="10.9853021"><ele>769.0</ele><time>2026-05-03T09:01:27.748Z</time></trkpt><trkpt lat="43.0958113" lon="10.9853894"><ele>767.0</ele><time>2026-05-03T09:01:29.763Z</time></trkpt><trkpt lat="43.0958894" lon="10.9854075"><ele>765.0</ele><time>2026-05-03T09:01:31.74Z</time></trkpt><trkpt lat="43.0959528" lon="10.9854173"><ele>763.0</ele><time>2026-05-03T09:01:32.756Z</time></trkpt><trkpt lat="43.0960378" lon="10.9854147"><ele>761.0</ele><time>2026-05-03T09:01:33.752Z</time></trkpt><trkpt lat="43.0961333" lon="10.985394"><ele>759.0</ele><time>2026-05-03T09:01:34.735Z</time></trkpt><trkpt lat="43.0962331" lon="10.9853575"><ele>759.0</ele><time>2026-05-03T09:01:35.748Z</time></trkpt><trkpt lat="43.0963268" lon="10.9853011"><ele>759.0</ele><time>2026-05-03T09:01:36.743Z</time></trkpt><trkpt lat="43.0964029" lon="10.9852794"><ele>759.0</ele><time>2026-05-03T09:01:37.75Z</time></trkpt><trkpt lat="43.0964734" lon="10.9852859"><ele>759.0</ele><time>2026-05-03T09:01:38.738Z</time></trkpt><trkpt lat="43.0965469" lon="10.9853118"><ele>759.0</ele><time>2026-05-03T09:01:39.747Z</time></trkpt><trkpt lat="43.0966351" lon="10.9853389"><ele>759.0</ele><time>2026-05-03T09:01:40.743Z</time></trkpt><trkpt lat="43.0967294" lon="10.9853541"><ele>757.0</ele><time>2026-05-03T09:01:41.75Z</time></trkpt><trkpt lat="43.096822" lon="10.9853739"><ele>755.0</ele><time>2026-05-03T09:01:42.755Z</time></trkpt><trkpt lat="43.0968984" lon="10.9854055"><ele>753.0</ele><time>2026-05-03T09:01:43.74Z</time></trkpt><trkpt lat="43.0969704" lon="10.9854662"><ele>751.0</ele><time>2026-05-03T09:01:44.747Z</time></trkpt><trkpt lat="43.0970261" lon="10.9855418"><ele>749.0</ele><time>2026-05-03T09:01:45.742Z</time></trkpt><trkpt lat="43.0970815" lon="10.9856223"><ele>747.0</ele><time>2026-05-03T09:01:46.746Z</time></trkpt><trkpt lat="43.0971454" lon="10.9856826"><ele>747.0</ele><time>2026-05-03T09:01:47.747Z</time></trkpt><trkpt lat="43.0972233" lon="10.9857249"><ele>747.0</ele><time>2026-05-03T09:01:48.734Z</time></trkpt><trkpt lat="43.0972953" lon="10.985769"><ele>747.0</ele><time>2026-05-03T09:01:49.744Z</time></trkpt><trkpt lat="43.0973599" lon="10.9858162"><ele>747.0</ele><time>2026-05-03T09:01:50.74Z</time></trkpt><trkpt lat="43.0974102" lon="10.985884"><ele>747.0</ele><time>2026-05-03T09:01:51.742Z</time></trkpt><trkpt lat="43.097456" lon="10.9859654"><ele>747.0</ele><time>2026-05-03T09:01:52.735Z</time></trkpt><trkpt lat="43.0974885" lon="10.986085"><ele>741.25</ele><time>2026-05-03T09:01:53.756Z</time></trkpt><trkpt lat="43.0975228" lon="10.9862417"><ele>735.5</ele><time>2026-05-03T09:01:54.738Z</time></trkpt><trkpt lat="43.097561" lon="10.9864055"><ele>729.75</ele><time>2026-05-03T09:01:55.736Z</time></trkpt><trkpt lat="43.0976098" lon="10.9865553"><ele>724.0</ele><time>2026-05-03T09:01:56.746Z</time></trkpt><trkpt lat="43.097666" lon="10.9867019"><ele>721.6</ele><time>2026-05-03T09:01:57.743Z</time></trkpt><trkpt lat="43.0977422" lon="10.9868215"><ele>719.2</ele><time>2026-05-03T09:01:58.742Z</time></trkpt><trkpt lat="43.0978132" lon="10.9869276"><ele>716.8000000000001</ele><time>2026-05-03T09:01:59.749Z</time></trkpt><trkpt lat="43.0978928" lon="10.9870149"><ele>714.4000000000001</ele><time>2026-05-03T09:02:00.746Z</time></trkpt><trkpt lat="43.0979771" lon="10.9870952"><ele>712.0</ele><time>2026-05-03T09:02:01.746Z</time></trkpt><trkpt lat="43.0980634" lon="10.9871532"><ele>712.0</ele><time>2026-05-03T09:02:02.739Z</time></trkpt><trkpt lat="43.0981355" lon="10.9872012"><ele>712.0</ele><time>2026-05-03T09:02:03.749Z</time></trkpt><trkpt lat="43.0982102" lon="10.9872549"><ele>712.0</ele><time>2026-05-03T09:02:04.744Z</time></trkpt><trkpt lat="43.0982714" lon="10.9873262"><ele>712.0</ele><time>2026-05-03T09:02:05.74Z</time></trkpt><trkpt lat="43.0983256" lon="10.9874296"><ele>712.0</ele><time>2026-05-03T09:02:06.737Z</time></trkpt><trkpt lat="43.0983646" lon="10.9875789"><ele>709.0</ele><time>2026-05-03T09:02:07.73Z</time></trkpt><trkpt lat="43.0984135" lon="10.9877162"><ele>706.0</ele><time>2026-05-03T09:02:08.741Z</time></trkpt><trkpt lat="43.0984605" lon="10.9878486"><ele>703.0</ele><time>2026-05-03T09:02:09.742Z</time></trkpt><trkpt lat="43.0985031" lon="10.9879583"><ele>700.0</ele><time>2026-05-03T09:02:10.744Z</time></trkpt><trkpt lat="43.0985406" lon="10.9880383"><ele>697.0</ele><time>2026-05-03T09:02:11.747Z</time></trkpt><trkpt lat="43.0985462" lon="10.9881623"><ele>697.0</ele><time>2026-05-03T09:02:13.748Z</time></trkpt><trkpt lat="43.0984649" lon="10.9881706"><ele>697.0</ele><time>2026-05-03T09:02:15.751Z</time></trkpt><trkpt lat="43.0983387" lon="10.9880906"><ele>697.0</ele><time>2026-05-03T09:02:17.746Z</time></trkpt><trkpt lat="43.0982552" lon="10.9879983"><ele>697.0</ele><time>2026-05-03T09:02:18.73Z</time></trkpt><trkpt lat="43.0981644" lon="10.9879068"><ele>697.0</ele><time>2026-05-03T09:02:19.75Z</time></trkpt><trkpt lat="43.098079" lon="10.9878166"><ele>696.3333333333334</ele><time>2026-05-03T09:02:20.735Z</time></trkpt><trkpt lat="43.097991" lon="10.9877406"><ele>695.6666666666667</ele><time>2026-05-03T09:02:21.76Z</time></trkpt><trkpt lat="43.0979037" lon="10.9876923"><ele>695.0</ele><time>2026-05-03T09:02:22.737Z</time></trkpt><trkpt lat="43.0978166" lon="10.9876589"><ele>694.3333333333334</ele><time>2026-05-03T09:02:23.744Z</time></trkpt><trkpt lat="43.0977495" lon="10.9876883"><ele>693.6666666666666</ele><time>2026-05-03T09:02:24.735Z</time></trkpt><trkpt lat="43.0977072" lon="10.987777"><ele>693.0</ele><time>2026-05-03T09:02:25.748Z</time></trkpt><trkpt lat="43.0976751" lon="10.9879059"><ele>693.0</ele><time>2026-05-03T09:02:26.73Z</time></trkpt><trkpt lat="43.0976474" lon="10.9880395"><ele>693.0</ele><time>2026-05-03T09:02:27.741Z</time></trkpt><trkpt lat="43.0976174" lon="10.9881571"><ele>693.0</ele><time>2026-05-03T09:02:28.73Z</time></trkpt><trkpt lat="43.0975634" lon="10.9882617"><ele>693.0</ele><time>2026-05-03T09:02:29.742Z</time></trkpt><trkpt lat="43.097484" lon="10.9883472"><ele>693.0</ele><time>2026-05-03T09:02:30.732Z</time></trkpt><trkpt lat="43.0973939" lon="10.9884242"><ele>694.8</ele><time>2026-05-03T09:02:31.731Z</time></trkpt><trkpt lat="43.0973016" lon="10.988461"><ele>696.5999999999999</ele><time>2026-05-03T09:02:32.737Z</time></trkpt><trkpt lat="43.0972022" lon="10.9884679"><ele>698.4000000000001</ele><time>2026-05-03T09:02:33.742Z</time></trkpt><trkpt lat="43.0971017" lon="10.9884591"><ele>700.2</ele><time>2026-05-03T09:02:34.729Z</time></trkpt><trkpt lat="43.0969996" lon="10.9884449"><ele>702.0</ele><time>2026-05-03T09:02:35.74Z</time></trkpt><trkpt lat="43.0969065" lon="10.9884535"><ele>702.0</ele><time>2026-05-03T09:02:36.744Z</time></trkpt><trkpt lat="43.0968405" lon="10.9884874"><ele>702.0</ele><time>2026-05-03T09:02:37.737Z</time></trkpt><trkpt lat="43.0968186" lon="10.9885756"><ele>702.0</ele><time>2026-05-03T09:02:39.748Z</time></trkpt><trkpt lat="43.0969178" lon="10.9887186"><ele>702.0</ele><time>2026-05-03T09:02:41.737Z</time></trkpt><trkpt lat="43.0970128" lon="10.98882"><ele>702.0</ele><time>2026-05-03T09:02:42.736Z</time></trkpt><trkpt lat="43.0970846" lon="10.9889433"><ele>702.0</ele><time>2026-05-03T09:02:43.736Z</time></trkpt><trkpt lat="43.0971455" lon="10.9890758"><ele>702.0</ele><time>2026-05-03T09:02:44.74Z</time></trkpt><trkpt lat="43.0971955" lon="10.9892012"><ele>702.0</ele><time>2026-05-03T09:02:45.73Z</time></trkpt><trkpt lat="43.0972139" lon="10.9893204"><ele>702.0</ele><time>2026-05-03T09:02:46.73Z</time></trkpt><trkpt lat="43.0972247" lon="10.9894499"><ele>702.0</ele><time>2026-05-03T09:02:47.726Z</time></trkpt><trkpt lat="43.0972328" lon="10.9895644"><ele>700.3333333333334</ele><time>2026-05-03T09:02:48.741Z</time></trkpt><trkpt lat="43.0972276" lon="10.9896628"><ele>698.6666666666666</ele><time>2026-05-03T09:02:49.746Z</time></trkpt><trkpt lat="43.0972098" lon="10.9898172"><ele>697.0</ele><time>2026-05-03T09:02:51.733Z</time></trkpt><trkpt lat="43.0971593" lon="10.989929"><ele>695.3333333333333</ele><time>2026-05-03T09:02:53.743Z</time></trkpt><trkpt lat="43.0970659" lon="10.989971"><ele>693.6666666666666</ele><time>2026-05-03T09:02:55.731Z</time></trkpt><trkpt lat="43.0970045" lon="10.9900069"><ele>692.0</ele><time>2026-05-03T09:02:57.742Z</time></trkpt><trkpt lat="43.0969966" lon="10.9901022"><ele>689.5</ele><time>2026-05-03T09:03:01.748Z</time></trkpt><trkpt lat="43.0970637" lon="10.9901838"><ele>687.0</ele><time>2026-05-03T09:03:03.742Z</time></trkpt><trkpt lat="43.0971165" lon="10.9902519"><ele>684.5</ele><time>2026-05-03T09:03:04.733Z</time></trkpt><trkpt lat="43.097188" lon="10.9903299"><ele>682.0</ele><time>2026-05-03T09:03:05.744Z</time></trkpt><trkpt lat="43.0972599" lon="10.9904257"><ele>679.5</ele><time>2026-05-03T09:03:06.758Z</time></trkpt><trkpt lat="43.0973213" lon="10.9905238"><ele>677.0</ele><time>2026-05-03T09:03:07.74Z</time></trkpt><trkpt lat="43.0973788" lon="10.9906326"><ele>677.6666666666666</ele><time>2026-05-03T09:03:08.732Z</time></trkpt><trkpt lat="43.0974234" lon="10.9907507"><ele>678.3333333333333</ele><time>2026-05-03T09:03:09.727Z</time></trkpt><trkpt lat="43.097448" lon="10.9908502"><ele>679.0</ele><time>2026-05-03T09:03:10.735Z</time></trkpt><trkpt lat="43.0974602" lon="10.9909523"><ele>679.6666666666666</ele><time>2026-05-03T09:03:11.741Z</time></trkpt><trkpt lat="43.0974905" lon="10.9910476"><ele>680.3333333333334</ele><time>2026-05-03T09:03:12.735Z</time></trkpt><trkpt lat="43.0975361" lon="10.9911498"><ele>681.0</ele><time>2026-05-03T09:03:13.759Z</time></trkpt><trkpt lat="43.0975857" lon="10.9912382"><ele>681.1666666666666</ele><time>2026-05-03T09:03:14.735Z</time></trkpt><trkpt lat="43.0976475" lon="10.9913316"><ele>681.3333333333334</ele><time>2026-05-03T09:03:15.734Z</time></trkpt><trkpt lat="43.0977139" lon="10.9914214"><ele>681.5</ele><time>2026-05-03T09:03:16.736Z</time></trkpt><trkpt lat="43.0977813" lon="10.9914889"><ele>681.6666666666667</ele><time>2026-05-03T09:03:17.763Z</time></trkpt><trkpt lat="43.0978346" lon="10.9915628"><ele>681.8333333333334</ele><time>2026-05-03T09:03:18.741Z</time></trkpt><trkpt lat="43.097889" lon="10.9916262"><ele>682.0</ele><time>2026-05-03T09:03:19.746Z</time></trkpt><trkpt lat="43.0979303" lon="10.9916939"><ele>679.5</ele><time>2026-05-03T09:03:20.736Z</time></trkpt><trkpt lat="43.0980034" lon="10.9918252"><ele>677.0</ele><time>2026-05-03T09:03:22.74Z</time></trkpt><trkpt lat="43.0980317" lon="10.9919717"><ele>674.5</ele><time>2026-05-03T09:03:24.739Z</time></trkpt><trkpt lat="43.0980456" lon="10.9920606"><ele>672.0</ele><time>2026-05-03T09:03:25.746Z</time></trkpt><trkpt lat="43.0980583" lon="10.9921565"><ele>669.5</ele><time>2026-05-03T09:03:26.744Z</time></trkpt><trkpt lat="43.0980643" lon="10.9922625"><ele>667.0</ele><time>2026-05-03T09:03:27.726Z</time></trkpt><trkpt lat="43.0980627" lon="10.9923788"><ele>667.0</ele><time>2026-05-03T09:03:28.731Z</time></trkpt><trkpt lat="43.0980639" lon="10.9924934"><ele>667.0</ele><time>2026-05-03T09:03:29.74Z</time></trkpt><trkpt lat="43.0980686" lon="10.9926173"><ele>667.0</ele><time>2026-05-03T09:03:30.723Z</time></trkpt><trkpt lat="43.0980726" lon="10.9927492"><ele>667.0</ele><time>2026-05-03T09:03:31.736Z</time></trkpt><trkpt lat="43.0980631" lon="10.992879"><ele>667.0</ele><time>2026-05-03T09:03:32.739Z</time></trkpt><trkpt lat="43.0980429" lon="10.9930064"><ele>667.4000000000001</ele><time>2026-05-03T09:03:33.75Z</time></trkpt><trkpt lat="43.09802" lon="10.9931346"><ele>667.8000000000001</ele><time>2026-05-03T09:03:34.731Z</time></trkpt><trkpt lat="43.0979842" lon="10.9932512"><ele>668.2</ele><time>2026-05-03T09:03:35.734Z</time></trkpt><trkpt lat="43.0979374" lon="10.9933601"><ele>668.6</ele><time>2026-05-03T09:03:36.741Z</time></trkpt><trkpt lat="43.0978812" lon="10.9934642"><ele>669.0</ele><time>2026-05-03T09:03:37.732Z</time></trkpt><trkpt lat="43.0978267" lon="10.9935601"><ele>668.6666666666666</ele><time>2026-05-03T09:03:38.758Z</time></trkpt><trkpt lat="43.0977739" lon="10.9936453"><ele>668.3333333333334</ele><time>2026-05-03T09:03:39.739Z</time></trkpt><trkpt lat="43.0977019" lon="10.9936942"><ele>668.0</ele><time>2026-05-03T09:03:40.749Z</time></trkpt><trkpt lat="43.0976188" lon="10.9937184"><ele>667.6666666666667</ele><time>2026-05-03T09:03:41.761Z</time></trkpt><trkpt lat="43.0975211" lon="10.9937297"><ele>667.3333333333334</ele><time>2026-05-03T09:03:42.745Z</time></trkpt><trkpt lat="43.0974203" lon="10.9937517"><ele>667.0</ele><time>2026-05-03T09:03:43.745Z</time></trkpt><trkpt lat="43.0973296" lon="10.9937655"><ele>667.0</ele><time>2026-05-03T09:03:44.742Z</time></trkpt><trkpt lat="43.0972488" lon="10.9937985"><ele>667.0</ele><time>2026-05-03T09:03:45.756Z</time></trkpt><trkpt lat="43.0971728" lon="10.9938485"><ele>667.0</ele><time>2026-05-03T09:03:46.754Z</time></trkpt><trkpt lat="43.0971017" lon="10.9938989"><ele>667.0</ele><time>2026-05-03T09:03:47.752Z</time></trkpt><trkpt lat="43.0970295" lon="10.9939702"><ele>667.0</ele><time>2026-05-03T09:03:48.743Z</time></trkpt><trkpt lat="43.0969497" lon="10.9940593"><ele>667.0</ele><time>2026-05-03T09:03:49.747Z</time></trkpt><trkpt lat="43.0968685" lon="10.994153"><ele>666.6</ele><time>2026-05-03T09:03:50.748Z</time></trkpt><trkpt lat="43.0967823" lon="10.9942598"><ele>666.2</ele><time>2026-05-03T09:03:51.74Z</time></trkpt><trkpt lat="43.0967027" lon="10.994374"><ele>665.8</ele><time>2026-05-03T09:03:52.749Z</time></trkpt><trkpt lat="43.096632" lon="10.9944862"><ele>665.4</ele><time>2026-05-03T09:03:53.745Z</time></trkpt><trkpt lat="43.0965677" lon="10.9946076"><ele>665.0</ele><time>2026-05-03T09:03:54.747Z</time></trkpt><trkpt lat="43.0965195" lon="10.9947446"><ele>666.5</ele><time>2026-05-03T09:03:55.742Z</time></trkpt><trkpt lat="43.096487" lon="10.9948809"><ele>668.0</ele><time>2026-05-03T09:03:56.726Z</time></trkpt><trkpt lat="43.0964634" lon="10.995029"><ele>669.5</ele><time>2026-05-03T09:03:57.743Z</time></trkpt><trkpt lat="43.0964498" lon="10.995191"><ele>671.0</ele><time>2026-05-03T09:03:58.738Z</time></trkpt><trkpt lat="43.0964451" lon="10.9953787"><ele>672.5</ele><time>2026-05-03T09:03:59.741Z</time></trkpt><trkpt lat="43.0964409" lon="10.9955735"><ele>674.0</ele><time>2026-05-03T09:04:00.735Z</time></trkpt><trkpt lat="43.0964449" lon="10.9957733"><ele>675.5</ele><time>2026-05-03T09:04:01.732Z</time></trkpt><trkpt lat="43.0964469" lon="10.9959571"><ele>677.0</ele><time>2026-05-03T09:04:02.727Z</time></trkpt><trkpt lat="43.0964429" lon="10.9961242"><ele>677.3333333333333</ele><time>2026-05-03T09:04:03.736Z</time></trkpt><trkpt lat="43.0964311" lon="10.9962455"><ele>677.6666666666666</ele><time>2026-05-03T09:04:04.746Z</time></trkpt><trkpt lat="43.0964183" lon="10.996332"><ele>678.0</ele><time>2026-05-03T09:04:05.722Z</time></trkpt><trkpt lat="43.096354" lon="10.9964595"><ele>678.3333333333334</ele><time>2026-05-03T09:04:07.745Z</time></trkpt><trkpt lat="43.096294" lon="10.996522"><ele>678.6666666666667</ele><time>2026-05-03T09:04:08.721Z</time></trkpt><trkpt lat="43.096231" lon="10.996581"><ele>679.0</ele><time>2026-05-03T09:04:09.727Z</time></trkpt><trkpt lat="43.0961627" lon="10.9966198"><ele>679.0</ele><time>2026-05-03T09:04:10.73Z</time></trkpt><trkpt lat="43.0960808" lon="10.9966429"><ele>679.0</ele><time>2026-05-03T09:04:11.751Z</time></trkpt><trkpt lat="43.0959919" lon="10.9966522"><ele>679.0</ele><time>2026-05-03T09:04:12.733Z</time></trkpt><trkpt lat="43.0959034" lon="10.9966384"><ele>679.0</ele><time>2026-05-03T09:04:13.742Z</time></trkpt><trkpt lat="43.0958172" lon="10.9966131"><ele>679.0</ele><time>2026-05-03T09:04:14.748Z</time></trkpt><trkpt lat="43.0957231" lon="10.9965872"><ele>679.0</ele><time>2026-05-03T09:04:15.733Z</time></trkpt><trkpt lat="43.0956323" lon="10.9965659"><ele>679.8000000000001</ele><time>2026-05-03T09:04:16.741Z</time></trkpt><trkpt lat="43.0955596" lon="10.9965545"><ele>680.6</ele><time>2026-05-03T09:04:17.736Z</time></trkpt><trkpt lat="43.095462" lon="10.9965862"><ele>681.4</ele><time>2026-05-03T09:04:19.743Z</time></trkpt><trkpt lat="43.0954217" lon="10.9967421"><ele>682.2</ele><time>2026-05-03T09:04:21.743Z</time></trkpt><trkpt lat="43.0953744" lon="10.9968915"><ele>683.0</ele><time>2026-05-03T09:04:23.737Z</time></trkpt><trkpt lat="43.0953166" lon="10.9969653"><ele>681.2</ele><time>2026-05-03T09:04:24.743Z</time></trkpt><trkpt lat="43.0952341" lon="10.9970477"><ele>679.4</ele><time>2026-05-03T09:04:25.749Z</time></trkpt><trkpt lat="43.0951597" lon="10.9971358"><ele>677.6</ele><time>2026-05-03T09:04:26.744Z</time></trkpt><trkpt lat="43.0950917" lon="10.9972293"><ele>675.8000000000001</ele><time>2026-05-03T09:04:27.729Z</time></trkpt><trkpt lat="43.0950253" lon="10.9973253"><ele>674.0</ele><time>2026-05-03T09:04:28.743Z</time></trkpt><trkpt lat="43.0949522" lon="10.9974195"><ele>672.0</ele><time>2026-05-03T09:04:29.73Z</time></trkpt><trkpt lat="43.0948648" lon="10.997508"><ele>670.0</ele><time>2026-05-03T09:04:30.735Z</time></trkpt><trkpt lat="43.094771" lon="10.9975833"><ele>668.0</ele><time>2026-05-03T09:04:31.738Z</time></trkpt><trkpt lat="43.0946792" lon="10.997661"><ele>666.0</ele><time>2026-05-03T09:04:32.74Z</time></trkpt><trkpt lat="43.0945911" lon="10.997731"><ele>664.0</ele><time>2026-05-03T09:04:33.729Z</time></trkpt><trkpt lat="43.094517" lon="10.9977923"><ele>664.0</ele><time>2026-05-03T09:04:34.738Z</time></trkpt><trkpt lat="43.0944467" lon="10.9978442"><ele>664.0</ele><time>2026-05-03T09:04:35.743Z</time></trkpt><trkpt lat="43.0943751" lon="10.9978941"><ele>664.0</ele><time>2026-05-03T09:04:36.739Z</time></trkpt><trkpt lat="43.0942913" lon="10.9979369"><ele>664.0</ele><time>2026-05-03T09:04:37.732Z</time></trkpt><trkpt lat="43.0942066" lon="10.9979762"><ele>664.0</ele><time>2026-05-03T09:04:38.733Z</time></trkpt><trkpt lat="43.0941328" lon="10.998004"><ele>664.0</ele><time>2026-05-03T09:04:39.737Z</time></trkpt><trkpt lat="43.0940557" lon="10.998015"><ele>662.8333333333334</ele><time>2026-05-03T09:04:40.746Z</time></trkpt><trkpt lat="43.0939922" lon="10.9980253"><ele>661.6666666666667</ele><time>2026-05-03T09:04:41.759Z</time></trkpt><trkpt lat="43.0939115" lon="10.9979915"><ele>660.5</ele><time>2026-05-03T09:04:43.737Z</time></trkpt><trkpt lat="43.0938611" lon="10.9979361"><ele>659.3333333333334</ele><time>2026-05-03T09:04:45.75Z</time></trkpt><trkpt lat="43.0937823" lon="10.9978578"><ele>658.1666666666666</ele><time>2026-05-03T09:04:47.745Z</time></trkpt><trkpt lat="43.0936615" lon="10.9977891"><ele>657.0</ele><time>2026-05-03T09:04:49.746Z</time></trkpt><trkpt lat="43.0935914" lon="10.9977515"><ele>657.0</ele><time>2026-05-03T09:04:50.728Z</time></trkpt><trkpt lat="43.0935138" lon="10.9977089"><ele>657.0</ele><time>2026-05-03T09:04:51.754Z</time></trkpt><trkpt lat="43.0934399" lon="10.9976618"><ele>657.0</ele><time>2026-05-03T09:04:52.733Z</time></trkpt><trkpt lat="43.0933716" lon="10.9975947"><ele>657.0</ele><time>2026-05-03T09:04:53.732Z</time></trkpt><trkpt lat="43.0933109" lon="10.9975102"><ele>657.0</ele><time>2026-05-03T09:04:54.745Z</time></trkpt><trkpt lat="43.0932464" lon="10.9974257"><ele>657.0</ele><time>2026-05-03T09:04:55.75Z</time></trkpt><trkpt lat="43.0931826" lon="10.9973488"><ele>654.3333333333334</ele><time>2026-05-03T09:04:56.746Z</time></trkpt><trkpt lat="43.0931133" lon="10.9972998"><ele>651.6666666666666</ele><time>2026-05-03T09:04:57.743Z</time></trkpt><trkpt lat="43.0930438" lon="10.9972559"><ele>649.0</ele><time>2026-05-03T09:04:58.742Z</time></trkpt><trkpt lat="43.0929707" lon="10.9972229"><ele>646.3333333333333</ele><time>2026-05-03T09:04:59.74Z</time></trkpt><trkpt lat="43.0928958" lon="10.9972047"><ele>643.6666666666666</ele><time>2026-05-03T09:05:00.757Z</time></trkpt><trkpt lat="43.0928108" lon="10.9972009"><ele>641.0</ele><time>2026-05-03T09:05:01.746Z</time></trkpt><trkpt lat="43.0927246" lon="10.9972072"><ele>641.0</ele><time>2026-05-03T09:05:02.742Z</time></trkpt><trkpt lat="43.092627" lon="10.997228"><ele>641.0</ele><time>2026-05-03T09:05:03.761Z</time></trkpt><trkpt lat="43.0925329" lon="10.9972532"><ele>641.0</ele><time>2026-05-03T09:05:04.725Z</time></trkpt><trkpt lat="43.0924504" lon="10.9973092"><ele>641.0</ele><time>2026-05-03T09:05:05.739Z</time></trkpt><trkpt lat="43.0923625" lon="10.9973802"><ele>641.0</ele><time>2026-05-03T09:05:06.73Z</time></trkpt><trkpt lat="43.0922812" lon="10.9974262"><ele>641.1999999999999</ele><time>2026-05-03T09:05:07.755Z</time></trkpt><trkpt lat="43.0921911" lon="10.9974541"><ele>641.4</ele><time>2026-05-03T09:05:08.738Z</time></trkpt><trkpt lat="43.0920851" lon="10.9974739"><ele>641.6</ele><time>2026-05-03T09:05:09.745Z</time></trkpt><trkpt lat="43.0919901" lon="10.9974901"><ele>641.8</ele><time>2026-05-03T09:05:10.746Z</time></trkpt><trkpt lat="43.0918987" lon="10.997522"><ele>642.0</ele><time>2026-05-03T09:05:11.742Z</time></trkpt><trkpt lat="43.0918017" lon="10.997565"><ele>642.0</ele><time>2026-05-03T09:05:12.743Z</time></trkpt><trkpt lat="43.0917087" lon="10.9976157"><ele>642.0</ele><time>2026-05-03T09:05:13.739Z</time></trkpt><trkpt lat="43.0916122" lon="10.9976626"><ele>642.0</ele><time>2026-05-03T09:05:14.741Z</time></trkpt><trkpt lat="43.0915342" lon="10.9977109"><ele>642.0</ele><time>2026-05-03T09:05:15.744Z</time></trkpt><trkpt lat="43.0914608" lon="10.9977448"><ele>642.0</ele><time>2026-05-03T09:05:16.745Z</time></trkpt><trkpt lat="43.0913942" lon="10.9977795"><ele>642.0</ele><time>2026-05-03T09:05:17.754Z</time></trkpt><trkpt lat="43.0913264" lon="10.9978289"><ele>639.5</ele><time>2026-05-03T09:05:18.729Z</time></trkpt><trkpt lat="43.0912663" lon="10.9978985"><ele>637.0</ele><time>2026-05-03T09:05:19.764Z</time></trkpt><trkpt lat="43.0912144" lon="10.9979749"><ele>634.5</ele><time>2026-05-03T09:05:20.743Z</time></trkpt><trkpt lat="43.0911588" lon="10.9980289"><ele>632.0</ele><time>2026-05-03T09:05:21.736Z</time></trkpt><trkpt lat="43.0910952" lon="10.998041"><ele>629.5</ele><time>2026-05-03T09:05:22.758Z</time></trkpt><trkpt lat="43.0909675" lon="10.9980467"><ele>627.0</ele><time>2026-05-03T09:05:24.735Z</time></trkpt><trkpt lat="43.0909029" lon="10.9980618"><ele>627.0</ele><time>2026-05-03T09:05:25.747Z</time></trkpt><trkpt lat="43.0908428" lon="10.9981043"><ele>627.0</ele><time>2026-05-03T09:05:26.735Z</time></trkpt><trkpt lat="43.0908006" lon="10.9981785"><ele>627.0</ele><time>2026-05-03T09:05:27.758Z</time></trkpt><trkpt lat="43.0907695" lon="10.9982661"><ele>627.0</ele><time>2026-05-03T09:05:28.738Z</time></trkpt><trkpt lat="43.0907461" lon="10.9983559"><ele>627.0</ele><time>2026-05-03T09:05:29.742Z</time></trkpt><trkpt lat="43.090727" lon="10.9984497"><ele>627.0</ele><time>2026-05-03T09:05:30.733Z</time></trkpt><trkpt lat="43.0907136" lon="10.9985471"><ele>627.0</ele><time>2026-05-03T09:05:31.739Z</time></trkpt><trkpt lat="43.0907318" lon="10.9987009"><ele>626.4</ele><time>2026-05-03T09:05:33.744Z</time></trkpt><trkpt lat="43.0907685" lon="10.9988419"><ele>625.8000000000001</ele><time>2026-05-03T09:05:35.753Z</time></trkpt><trkpt lat="43.0908256" lon="10.9989588"><ele>625.2</ele><time>2026-05-03T09:05:37.742Z</time></trkpt><trkpt lat="43.0908767" lon="10.9990673"><ele>624.6</ele><time>2026-05-03T09:05:39.742Z</time></trkpt><trkpt lat="43.0908991" lon="10.9991572"><ele>624.0</ele><time>2026-05-03T09:05:41.739Z</time></trkpt><trkpt lat="43.0908487" lon="10.9992446"><ele>622.8571428571429</ele><time>2026-05-03T09:05:43.742Z</time></trkpt><trkpt lat="43.0907897" lon="10.9992778"><ele>621.7142857142857</ele><time>2026-05-03T09:05:44.748Z</time></trkpt><trkpt lat="43.0907238" lon="10.999299"><ele>620.5714285714286</ele><time>2026-05-03T09:05:45.756Z</time></trkpt><trkpt lat="43.0906614" lon="10.9993416"><ele>619.4285714285714</ele><time>2026-05-03T09:05:46.739Z</time></trkpt><trkpt lat="43.0905941" lon="10.9993909"><ele>618.2857142857142</ele><time>2026-05-03T09:05:47.749Z</time></trkpt><trkpt lat="43.0905391" lon="10.9994693"><ele>617.1428571428571</ele><time>2026-05-03T09:05:48.746Z</time></trkpt><trkpt lat="43.0904842" lon="10.9995505"><ele>616.0</ele><time>2026-05-03T09:05:49.756Z</time></trkpt><trkpt lat="43.090435" lon="10.9996424"><ele>614.4285714285714</ele><time>2026-05-03T09:05:50.744Z</time></trkpt><trkpt lat="43.0903912" lon="10.9997425"><ele>612.8571428571429</ele><time>2026-05-03T09:05:51.75Z</time></trkpt><trkpt lat="43.0903457" lon="10.9998312"><ele>611.2857142857142</ele><time>2026-05-03T09:05:52.744Z</time></trkpt><trkpt lat="43.0902967" lon="10.9998929"><ele>609.7142857142858</ele><time>2026-05-03T09:05:53.745Z</time></trkpt><trkpt lat="43.0902474" lon="10.9999547"><ele>608.1428571428571</ele><time>2026-05-03T09:05:54.747Z</time></trkpt><trkpt lat="43.0901951" lon="11.0000055"><ele>606.5714285714286</ele><time>2026-05-03T09:05:55.754Z</time></trkpt><trkpt lat="43.0901373" lon="11.0000471"><ele>605.0</ele><time>2026-05-03T09:05:56.747Z</time></trkpt><trkpt lat="43.09007" lon="11.0000842"><ele>605.0</ele><time>2026-05-03T09:05:57.748Z</time></trkpt><trkpt lat="43.0900052" lon="11.0001266"><ele>605.0</ele><time>2026-05-03T09:05:58.753Z</time></trkpt><trkpt lat="43.0899084" lon="11.0001694"><ele>605.0</ele><time>2026-05-03T09:06:00.741Z</time></trkpt><trkpt lat="43.0898425" lon="11.0001221"><ele>605.0</ele><time>2026-05-03T09:06:03.755Z</time></trkpt><trkpt lat="43.089759" lon="11.0000731"><ele>605.0</ele><time>2026-05-03T09:06:06.743Z</time></trkpt><trkpt lat="43.0897053" lon="11.0001641"><ele>605.0</ele><time>2026-05-03T09:06:09.738Z</time></trkpt><trkpt lat="43.0896954" lon="11.0002772"><ele>601.6</ele><time>2026-05-03T09:06:11.743Z</time></trkpt><trkpt lat="43.0896649" lon="11.0004291"><ele>598.2</ele><time>2026-05-03T09:06:13.749Z</time></trkpt><trkpt lat="43.0895838" lon="11.0005668"><ele>594.8</ele><time>2026-05-03T09:06:15.747Z</time></trkpt><trkpt lat="43.0895085" lon="11.0006153"><ele>591.4</ele><time>2026-05-03T09:06:16.749Z</time></trkpt><trkpt lat="43.0894287" lon="11.0006603"><ele>588.0</ele><time>2026-05-03T09:06:17.748Z</time></trkpt><trkpt lat="43.089348" lon="11.0006945"><ele>588.0</ele><time>2026-05-03T09:06:18.744Z</time></trkpt><trkpt lat="43.0892833" lon="11.0007208"><ele>588.0</ele><time>2026-05-03T09:06:19.76Z</time></trkpt><trkpt lat="43.0891662" lon="11.0007284"><ele>588.0</ele><time>2026-05-03T09:06:21.746Z</time></trkpt><trkpt lat="43.089098" lon="11.0007469"><ele>588.0</ele><time>2026-05-03T09:06:22.738Z</time></trkpt><trkpt lat="43.0890322" lon="11.0007863"><ele>588.0</ele><time>2026-05-03T09:06:23.748Z</time></trkpt><trkpt lat="43.0889695" lon="11.0008382"><ele>588.0</ele><time>2026-05-03T09:06:24.757Z</time></trkpt><trkpt lat="43.0888731" lon="11.0008803"><ele>586.0</ele><time>2026-05-03T09:06:26.751Z</time></trkpt><trkpt lat="43.0888018" lon="11.000801"><ele>584.0</ele><time>2026-05-03T09:06:29.726Z</time></trkpt><trkpt lat="43.088756" lon="11.0007111"><ele>582.0</ele><time>2026-05-03T09:06:31.725Z</time></trkpt><trkpt lat="43.0887402" lon="11.0005864"><ele>580.0</ele><time>2026-05-03T09:06:33.735Z</time></trkpt><trkpt lat="43.0887892" lon="11.0004375"><ele>578.0</ele><time>2026-05-03T09:06:35.737Z</time></trkpt><trkpt lat="43.0888213" lon="11.0003418"><ele>578.0</ele><time>2026-05-03T09:06:36.729Z</time></trkpt><trkpt lat="43.0888557" lon="11.0002253"><ele>578.0</ele><time>2026-05-03T09:06:37.735Z</time></trkpt><trkpt lat="43.0888967" lon="11.0001121"><ele>578.0</ele><time>2026-05-03T09:06:38.734Z</time></trkpt><trkpt lat="43.08894" lon="11.0000124"><ele>578.0</ele><time>2026-05-03T09:06:39.739Z</time></trkpt><trkpt lat="43.0889802" lon="10.999934"><ele>578.0</ele><time>2026-05-03T09:06:40.732Z</time></trkpt><trkpt lat="43.0890125" lon="10.9998119"><ele>578.0</ele><time>2026-05-03T09:06:42.738Z</time></trkpt><trkpt lat="43.0889668" lon="10.9997425"><ele>578.0</ele><time>2026-05-03T09:06:44.735Z</time></trkpt><trkpt lat="43.0888706" lon="10.9997161"><ele>578.0</ele><time>2026-05-03T09:06:46.742Z</time></trkpt><trkpt lat="43.0887979" lon="10.999703"><ele>578.0</ele><time>2026-05-03T09:06:47.735Z</time></trkpt><trkpt lat="43.0887333" lon="10.9996554"><ele>578.0</ele><time>2026-05-03T09:06:48.733Z</time></trkpt><trkpt lat="43.088664" lon="10.9996021"><ele>578.0</ele><time>2026-05-03T09:06:49.73Z</time></trkpt><trkpt lat="43.0885885" lon="10.999564"><ele>578.0</ele><time>2026-05-03T09:06:50.748Z</time></trkpt><trkpt lat="43.0885128" lon="10.999561"><ele>578.0</ele><time>2026-05-03T09:06:51.754Z</time></trkpt><trkpt lat="43.0884502" lon="10.999575"><ele>578.0</ele><time>2026-05-03T09:06:52.731Z</time></trkpt><trkpt lat="43.0883654" lon="10.999603"><ele>578.0</ele><time>2026-05-03T09:06:53.739Z</time></trkpt><trkpt lat="43.088265" lon="10.9996482"><ele>578.0</ele><time>2026-05-03T09:06:54.737Z</time></trkpt><trkpt lat="43.0881618" lon="10.9997129"><ele>578.0</ele><time>2026-05-03T09:06:55.743Z</time></trkpt><trkpt lat="43.0880614" lon="10.999791"><ele>578.1999999999999</ele><time>2026-05-03T09:06:56.742Z</time></trkpt><trkpt lat="43.0879649" lon="10.9998742"><ele>578.4</ele><time>2026-05-03T09:06:57.746Z</time></trkpt><trkpt lat="43.0878759" lon="10.9999489"><ele>578.5999999999999</ele><time>2026-05-03T09:06:58.74Z</time></trkpt><trkpt lat="43.0877962" lon="10.9999985"><ele>578.8</ele><time>2026-05-03T09:06:59.755Z</time></trkpt><trkpt lat="43.0877246" lon="11.0000347"><ele>579.0</ele><time>2026-05-03T09:07:00.741Z</time></trkpt><trkpt lat="43.087685" lon="11.0001113"><ele>578.9999999999999</ele><time>2026-05-03T09:07:01.749Z</time></trkpt><trkpt lat="43.0876655" lon="11.0002024"><ele>579.0</ele><time>2026-05-03T09:07:02.729Z</time></trkpt><trkpt lat="43.0876489" lon="11.0002993"><ele>579.0</ele><time>2026-05-03T09:07:03.741Z</time></trkpt><trkpt lat="43.0876368" lon="11.0004028"><ele>579.0</ele><time>2026-05-03T09:07:04.733Z</time></trkpt><trkpt lat="43.0876215" lon="11.000509"><ele>579.0</ele><time>2026-05-03T09:07:05.758Z</time></trkpt><trkpt lat="43.0876021" lon="11.000606"><ele>578.9999999999999</ele><time>2026-05-03T09:07:06.746Z</time></trkpt><trkpt lat="43.0875666" lon="11.0006849"><ele>579.0</ele><time>2026-05-03T09:07:07.739Z</time></trkpt><trkpt lat="43.0875145" lon="11.0007617"><ele>579.0</ele><time>2026-05-03T09:07:08.738Z</time></trkpt><trkpt lat="43.0874543" lon="11.0008275"><ele>579.0</ele><time>2026-05-03T09:07:09.74Z</time></trkpt><trkpt lat="43.0873894" lon="11.0008748"><ele>579.0</ele><time>2026-05-03T09:07:10.735Z</time></trkpt><trkpt lat="43.0873265" lon="11.0008993"><ele>579.0</ele><time>2026-05-03T09:07:11.731Z</time></trkpt><trkpt lat="43.0872178" lon="11.0008909"><ele>579.0</ele><time>2026-05-03T09:07:13.739Z</time></trkpt><trkpt lat="43.0871585" lon="11.000852"><ele>579.0</ele><time>2026-05-03T09:07:14.742Z</time></trkpt><trkpt lat="43.0870963" lon="11.0008113"><ele>577.4285714285713</ele><time>2026-05-03T09:07:15.742Z</time></trkpt><trkpt lat="43.0870272" lon="11.0007998"><ele>575.8571428571429</ele><time>2026-05-03T09:07:16.738Z</time></trkpt><trkpt lat="43.0869604" lon="11.0008221"><ele>574.2857142857142</ele><time>2026-05-03T09:07:17.739Z</time></trkpt><trkpt lat="43.0869137" lon="11.0008802"><ele>572.7142857142857</ele><time>2026-05-03T09:07:18.729Z</time></trkpt><trkpt lat="43.0868795" lon="11.0009612"><ele>571.1428571428571</ele><time>2026-05-03T09:07:19.743Z</time></trkpt><trkpt lat="43.0868472" lon="11.0010641"><ele>569.5714285714286</ele><time>2026-05-03T09:07:20.742Z</time></trkpt><trkpt lat="43.0868128" lon="11.0011603"><ele>568.0</ele><time>2026-05-03T09:07:21.744Z</time></trkpt><trkpt lat="43.0867722" lon="11.0012396"><ele>568.0</ele><time>2026-05-03T09:07:22.74Z</time></trkpt><trkpt lat="43.0867229" lon="11.0013093"><ele>568.0</ele><time>2026-05-03T09:07:23.75Z</time></trkpt><trkpt lat="43.0866482" lon="11.0013735"><ele>568.0</ele><time>2026-05-03T09:07:24.736Z</time></trkpt><trkpt lat="43.0865656" lon="11.0014131"><ele>568.0</ele><time>2026-05-03T09:07:25.75Z</time></trkpt><trkpt lat="43.0864663" lon="11.001439"><ele>568.0</ele><time>2026-05-03T09:07:26.737Z</time></trkpt><trkpt lat="43.0863668" lon="11.0014526"><ele>568.0</ele><time>2026-05-03T09:07:27.737Z</time></trkpt><trkpt lat="43.0862719" lon="11.0014708"><ele>565.3333333333334</ele><time>2026-05-03T09:07:28.74Z</time></trkpt><trkpt lat="43.0861784" lon="11.0014906"><ele>562.6666666666667</ele><time>2026-05-03T09:07:29.749Z</time></trkpt><trkpt lat="43.0860921" lon="11.0015259"><ele>560.0</ele><time>2026-05-03T09:07:30.737Z</time></trkpt><trkpt lat="43.0860159" lon="11.0015522"><ele>557.3333333333334</ele><time>2026-05-03T09:07:31.752Z</time></trkpt><trkpt lat="43.0859526" lon="11.0015525"><ele>554.6666666666666</ele><time>2026-05-03T09:07:32.728Z</time></trkpt><trkpt lat="43.0858469" lon="11.0014767"><ele>552.0</ele><time>2026-05-03T09:07:34.73Z</time></trkpt><trkpt lat="43.0857871" lon="11.0013919"><ele>552.3333333333334</ele><time>2026-05-03T09:07:35.739Z</time></trkpt><trkpt lat="43.085726" lon="11.0013049"><ele>552.6666666666666</ele><time>2026-05-03T09:07:36.739Z</time></trkpt><trkpt lat="43.0856602" lon="11.0012351"><ele>553.0</ele><time>2026-05-03T09:07:37.743Z</time></trkpt><trkpt lat="43.0855985" lon="11.0011924"><ele>553.3333333333333</ele><time>2026-05-03T09:07:38.738Z</time></trkpt><trkpt lat="43.0855252" lon="11.0011821"><ele>553.6666666666666</ele><time>2026-05-03T09:07:39.741Z</time></trkpt><trkpt lat="43.0854568" lon="11.0011989"><ele>554.0</ele><time>2026-05-03T09:07:40.735Z</time></trkpt><trkpt lat="43.0853514" lon="11.0013036"><ele>554.0</ele><time>2026-05-03T09:07:42.743Z</time></trkpt><trkpt lat="43.0852964" lon="11.001394"><ele>554.0</ele><time>2026-05-03T09:07:43.753Z</time></trkpt><trkpt lat="43.0852439" lon="11.0014988"><ele>554.0</ele><time>2026-05-03T09:07:44.738Z</time></trkpt><trkpt lat="43.085195" lon="11.0015967"><ele>554.0</ele><time>2026-05-03T09:07:45.746Z</time></trkpt><trkpt lat="43.0851451" lon="11.0016764"><ele>554.0</ele><time>2026-05-03T09:07:46.739Z</time></trkpt><trkpt lat="43.085093" lon="11.0017408"><ele>554.0</ele><time>2026-05-03T09:07:47.757Z</time></trkpt><trkpt lat="43.0850373" lon="11.0018075"><ele>553.6666666666666</ele><time>2026-05-03T09:07:48.74Z</time></trkpt><trkpt lat="43.0849717" lon="11.0018666"><ele>553.3333333333333</ele><time>2026-05-03T09:07:49.745Z</time></trkpt><trkpt lat="43.0849111" lon="11.0019071"><ele>553.0</ele><time>2026-05-03T09:07:50.741Z</time></trkpt><trkpt lat="43.0848457" lon="11.0019279"><ele>552.6666666666666</ele><time>2026-05-03T09:07:51.742Z</time></trkpt><trkpt lat="43.0847633" lon="11.0019258"><ele>552.3333333333334</ele><time>2026-05-03T09:07:52.736Z</time></trkpt><trkpt lat="43.084676" lon="11.0019042"><ele>552.0</ele><time>2026-05-03T09:07:53.739Z</time></trkpt><trkpt lat="43.0845889" lon="11.0018827"><ele>552.0</ele><time>2026-05-03T09:07:54.735Z</time></trkpt><trkpt lat="43.0845074" lon="11.0018807"><ele>552.0</ele><time>2026-05-03T09:07:55.743Z</time></trkpt><trkpt lat="43.0844206" lon="11.0019067"><ele>552.0</ele><time>2026-05-03T09:07:56.735Z</time></trkpt><trkpt lat="43.0843295" lon="11.0019548"><ele>552.0</ele><time>2026-05-03T09:07:57.747Z</time></trkpt><trkpt lat="43.0842446" lon="11.0019989"><ele>552.0</ele><time>2026-05-03T09:07:58.753Z</time></trkpt><trkpt lat="43.0841662" lon="11.0020432"><ele>552.0</ele><time>2026-05-03T09:07:59.749Z</time></trkpt><trkpt lat="43.0840826" lon="11.0020807"><ele>548.6</ele><time>2026-05-03T09:08:00.753Z</time></trkpt><trkpt lat="43.0839831" lon="11.0021028"><ele>545.2</ele><time>2026-05-03T09:08:01.745Z</time></trkpt><trkpt lat="43.0838661" lon="11.0021015"><ele>541.8</ele><time>2026-05-03T09:08:02.729Z</time></trkpt><trkpt lat="43.0837517" lon="11.0020956"><ele>538.4</ele><time>2026-05-03T09:08:03.735Z</time></trkpt><trkpt lat="43.0836492" lon="11.0020924"><ele>535.0</ele><time>2026-05-03T09:08:04.731Z</time></trkpt><trkpt lat="43.0835661" lon="11.002084"><ele>535.0</ele><time>2026-05-03T09:08:05.731Z</time></trkpt><trkpt lat="43.0834579" lon="11.002102"><ele>535.0</ele><time>2026-05-03T09:08:07.75Z</time></trkpt><trkpt lat="43.0833571" lon="11.0021423"><ele>535.0</ele><time>2026-05-03T09:08:09.741Z</time></trkpt><trkpt lat="43.0832348" lon="11.0022013"><ele>535.0</ele><time>2026-05-03T09:08:11.749Z</time></trkpt><trkpt lat="43.0831683" lon="11.0022325"><ele>535.0</ele><time>2026-05-03T09:08:12.742Z</time></trkpt><trkpt lat="43.0831038" lon="11.0022757"><ele>534.3333333333334</ele><time>2026-05-03T09:08:13.743Z</time></trkpt><trkpt lat="43.0830426" lon="11.0023341"><ele>533.6666666666667</ele><time>2026-05-03T09:08:14.741Z</time></trkpt><trkpt lat="43.0829893" lon="11.0024018"><ele>533.0</ele><time>2026-05-03T09:08:15.753Z</time></trkpt><trkpt lat="43.0829328" lon="11.0024849"><ele>532.3333333333334</ele><time>2026-05-03T09:08:16.77Z</time></trkpt><trkpt lat="43.0828692" lon="11.0025744"><ele>531.6666666666666</ele><time>2026-05-03T09:08:17.749Z</time></trkpt><trkpt lat="43.0828012" lon="11.0026576"><ele>531.0</ele><time>2026-05-03T09:08:18.746Z</time></trkpt><trkpt lat="43.0827251" lon="11.0027213"><ele>531.0</ele><time>2026-05-03T09:08:19.748Z</time></trkpt><trkpt lat="43.0826461" lon="11.0027884"><ele>531.0</ele><time>2026-05-03T09:08:20.735Z</time></trkpt><trkpt lat="43.0825666" lon="11.0028603"><ele>531.0</ele><time>2026-05-03T09:08:21.743Z</time></trkpt><trkpt lat="43.0824911" lon="11.0029511"><ele>531.0</ele><time>2026-05-03T09:08:22.74Z</time></trkpt><trkpt lat="43.0824336" lon="11.0030504"><ele>531.0</ele><time>2026-05-03T09:08:23.747Z</time></trkpt><trkpt lat="43.0823824" lon="11.0031536"><ele>530.0</ele><time>2026-05-03T09:08:24.737Z</time></trkpt><trkpt lat="43.0823377" lon="11.0032546"><ele>529.0</ele><time>2026-05-03T09:08:25.757Z</time></trkpt><trkpt lat="43.0823026" lon="11.0033527"><ele>528.0</ele><time>2026-05-03T09:08:26.727Z</time></trkpt><trkpt lat="43.0822622" lon="11.003453"><ele>527.0</ele><time>2026-05-03T09:08:27.734Z</time></trkpt><trkpt lat="43.0822265" lon="11.0035605"><ele>526.0</ele><time>2026-05-03T09:08:28.741Z</time></trkpt><trkpt lat="43.0821912" lon="11.0036726"><ele>525.0</ele><time>2026-05-03T09:08:29.755Z</time></trkpt><trkpt lat="43.0821532" lon="11.0037725"><ele>525.0</ele><time>2026-05-03T09:08:30.743Z</time></trkpt><trkpt lat="43.0821108" lon="11.0038581"><ele>525.0</ele><time>2026-05-03T09:08:31.734Z</time></trkpt><trkpt lat="43.082067" lon="11.0039358"><ele>525.0</ele><time>2026-05-03T09:08:32.742Z</time></trkpt><trkpt lat="43.0820237" lon="11.0040074"><ele>525.0</ele><time>2026-05-03T09:08:33.729Z</time></trkpt><trkpt lat="43.0819862" lon="11.004086"><ele>525.0</ele><time>2026-05-03T09:08:34.745Z</time></trkpt><trkpt lat="43.081971" lon="11.0041703"><ele>525.0</ele><time>2026-05-03T09:08:35.744Z</time></trkpt><trkpt lat="43.0819678" lon="11.0042585"><ele>525.0</ele><time>2026-05-03T09:08:36.739Z</time></trkpt><trkpt lat="43.0819747" lon="11.0043558"><ele>525.2857142857143</ele><time>2026-05-03T09:08:37.744Z</time></trkpt><trkpt lat="43.081977" lon="11.0044578"><ele>525.5714285714286</ele><time>2026-05-03T09:08:38.75Z</time></trkpt><trkpt lat="43.0819688" lon="11.0045552"><ele>525.8571428571429</ele><time>2026-05-03T09:08:39.75Z</time></trkpt><trkpt lat="43.0819556" lon="11.0046454"><ele>526.1428571428571</ele><time>2026-05-03T09:08:40.744Z</time></trkpt><trkpt lat="43.0819275" lon="11.0047339"><ele>526.4285714285714</ele><time>2026-05-03T09:08:41.738Z</time></trkpt><trkpt lat="43.0818874" lon="11.0048185"><ele>526.7142857142858</ele><time>2026-05-03T09:08:42.742Z</time></trkpt><trkpt lat="43.0818246" lon="11.0048819"><ele>527.0</ele><time>2026-05-03T09:08:43.739Z</time></trkpt><trkpt lat="43.0817505" lon="11.0049583"><ele>526.3333333333333</ele><time>2026-05-03T09:08:44.739Z</time></trkpt><trkpt lat="43.0816785" lon="11.0050533"><ele>525.6666666666666</ele><time>2026-05-03T09:08:45.744Z</time></trkpt><trkpt lat="43.0816014" lon="11.005137"><ele>525.0</ele><time>2026-05-03T09:08:46.741Z</time></trkpt><trkpt lat="43.081525" lon="11.0052053"><ele>524.3333333333334</ele><time>2026-05-03T09:08:47.74Z</time></trkpt><trkpt lat="43.0814534" lon="11.0052636"><ele>523.6666666666667</ele><time>2026-05-03T09:08:48.74Z</time></trkpt><trkpt lat="43.081387" lon="11.0053053"><ele>523.0</ele><time>2026-05-03T09:08:49.743Z</time></trkpt><trkpt lat="43.0812872" lon="11.0053705"><ele>522.6666666666667</ele><time>2026-05-03T09:08:51.753Z</time></trkpt><trkpt lat="43.0812142" lon="11.0053948"><ele>522.3333333333334</ele><time>2026-05-03T09:08:53.732Z</time></trkpt><trkpt lat="43.0811483" lon="11.0053965"><ele>522.0</ele><time>2026-05-03T09:09:19.755Z</time></trkpt><trkpt lat="43.0810667" lon="11.0054182"><ele>521.6666666666666</ele><time>2026-05-03T09:12:54.743Z</time></trkpt><trkpt lat="43.0810334" lon="11.0053371"><ele>521.3333333333333</ele><time>2026-05-03T09:12:56.728Z</time></trkpt><trkpt lat="43.0810178" lon="11.005202"><ele>521.0</ele><time>2026-05-03T09:12:58.741Z</time></trkpt><trkpt lat="43.0809939" lon="11.0051071"><ele>521.0</ele><time>2026-05-03T09:12:59.735Z</time></trkpt><trkpt lat="43.0809505" lon="11.005012"><ele>521.0</ele><time>2026-05-03T09:13:00.737Z</time></trkpt><trkpt lat="43.0809086" lon="11.0049235"><ele>521.0</ele><time>2026-05-03T09:13:01.728Z</time></trkpt><trkpt lat="43.080862" lon="11.0048535"><ele>521.0</ele><time>2026-05-03T09:13:02.743Z</time></trkpt><trkpt lat="43.0808234" lon="11.0047826"><ele>521.0</ele><time>2026-05-03T09:13:03.744Z</time></trkpt><trkpt lat="43.0807521" lon="11.0046781"><ele>521.0</ele><time>2026-05-03T09:13:05.742Z</time></trkpt><trkpt lat="43.0806847" lon="11.0045886"><ele>519.25</ele><time>2026-05-03T09:13:07.737Z</time></trkpt><trkpt lat="43.0806068" lon="11.0045213"><ele>517.5</ele><time>2026-05-03T09:13:09.737Z</time></trkpt><trkpt lat="43.0804918" lon="11.0045689"><ele>515.75</ele><time>2026-05-03T09:13:11.735Z</time></trkpt><trkpt lat="43.0803769" lon="11.0046433"><ele>514.0</ele><time>2026-05-03T09:13:13.734Z</time></trkpt><trkpt lat="43.0802645" lon="11.0047067"><ele>514.0</ele><time>2026-05-03T09:13:15.742Z</time></trkpt><trkpt lat="43.0801738" lon="11.004712"><ele>514.0</ele><time>2026-05-03T09:13:17.749Z</time></trkpt><trkpt lat="43.0800907" lon="11.0046226"><ele>514.0</ele><time>2026-05-03T09:13:19.744Z</time></trkpt><trkpt lat="43.0800315" lon="11.0045644"><ele>514.0</ele><time>2026-05-03T09:13:20.734Z</time></trkpt><trkpt lat="43.0799536" lon="11.0045291"><ele>514.0</ele><time>2026-05-03T09:13:21.762Z</time></trkpt><trkpt lat="43.0798762" lon="11.0045052"><ele>514.0</ele><time>2026-05-03T09:13:22.74Z</time></trkpt><trkpt lat="43.0797722" lon="11.0044976"><ele>511.50000000000006</ele><time>2026-05-03T09:13:24.744Z</time></trkpt><trkpt lat="43.0797059" lon="11.0045008"><ele>509.0</ele><time>2026-05-03T09:13:31.758Z</time></trkpt><trkpt lat="43.0796217" lon="11.0045404"><ele>506.5</ele><time>2026-05-03T09:13:33.738Z</time></trkpt><trkpt lat="43.0795241" lon="11.0046176"><ele>504.0</ele><time>2026-05-03T09:13:35.745Z</time></trkpt><trkpt lat="43.0794732" lon="11.0046699"><ele>501.50000000000006</ele><time>2026-05-03T09:13:36.747Z</time></trkpt><trkpt lat="43.0794163" lon="11.0047091"><ele>499.0</ele><time>2026-05-03T09:13:37.744Z</time></trkpt><trkpt lat="43.0793614" lon="11.0047516"><ele>499.0</ele><time>2026-05-03T09:13:38.737Z</time></trkpt><trkpt lat="43.0792967" lon="11.00479"><ele>499.0</ele><time>2026-05-03T09:13:39.753Z</time></trkpt><trkpt lat="43.0792353" lon="11.0048262"><ele>499.0</ele><time>2026-05-03T09:13:40.739Z</time></trkpt><trkpt lat="43.07916" lon="11.0049194"><ele>499.0</ele><time>2026-05-03T09:13:42.73Z</time></trkpt><trkpt lat="43.0791295" lon="11.0050547"><ele>499.0</ele><time>2026-05-03T09:13:44.73Z</time></trkpt><trkpt lat="43.0790567" lon="11.0051894"><ele>496.4</ele><time>2026-05-03T09:13:46.744Z</time></trkpt><trkpt lat="43.0790057" lon="11.00524"><ele>493.79999999999995</ele><time>2026-05-03T09:13:47.742Z</time></trkpt><trkpt lat="43.0789113" lon="11.0052095"><ele>491.20000000000005</ele><time>2026-05-03T09:13:49.734Z</time></trkpt><trkpt lat="43.0788418" lon="11.0051445"><ele>488.6</ele><time>2026-05-03T09:13:51.737Z</time></trkpt><trkpt lat="43.0787328" lon="11.005121"><ele>486.0</ele><time>2026-05-03T09:13:53.737Z</time></trkpt><trkpt lat="43.0786323" lon="11.0051908"><ele>486.0</ele><time>2026-05-03T09:13:55.743Z</time></trkpt><trkpt lat="43.0785301" lon="11.0052879"><ele>486.0</ele><time>2026-05-03T09:13:57.721Z</time></trkpt><trkpt lat="43.0784577" lon="11.0053203"><ele>486.0</ele><time>2026-05-03T09:13:58.735Z</time></trkpt><trkpt lat="43.0783785" lon="11.0053455"><ele>486.0</ele><time>2026-05-03T09:13:59.738Z</time></trkpt><trkpt lat="43.0783093" lon="11.0053625"><ele>486.0</ele><time>2026-05-03T09:14:00.737Z</time></trkpt><trkpt lat="43.0782079" lon="11.005377"><ele>485.6666666666667</ele><time>2026-05-03T09:14:02.727Z</time></trkpt><trkpt lat="43.0781514" lon="11.0053287"><ele>485.33333333333337</ele><time>2026-05-03T09:14:15.746Z</time></trkpt><trkpt lat="43.078074" lon="11.005299"><ele>485.0</ele><time>2026-05-03T09:15:49.738Z</time></trkpt><trkpt lat="43.0779825" lon="11.0052536"><ele>484.6666666666667</ele><time>2026-05-03T09:15:51.729Z</time></trkpt><trkpt lat="43.0778864" lon="11.0053014"><ele>484.33333333333337</ele><time>2026-05-03T09:15:53.745Z</time></trkpt><trkpt lat="43.0778301" lon="11.0053466"><ele>484.0</ele><time>2026-05-03T09:15:54.742Z</time></trkpt><trkpt lat="43.0777831" lon="11.0054047"><ele>484.0</ele><time>2026-05-03T09:15:55.735Z</time></trkpt><trkpt lat="43.0777039" lon="11.005512"><ele>484.0</ele><time>2026-05-03T09:15:57.738Z</time></trkpt><trkpt lat="43.0776438" lon="11.005572"><ele>484.0</ele><time>2026-05-03T09:15:58.743Z</time></trkpt><trkpt lat="43.0775679" lon="11.0056461"><ele>484.0</ele><time>2026-05-03T09:15:59.739Z</time></trkpt><trkpt lat="43.0774975" lon="11.0057348"><ele>484.0</ele><time>2026-05-03T09:16:00.725Z</time></trkpt><trkpt lat="43.0774375" lon="11.0058405"><ele>483.6</ele><time>2026-05-03T09:16:01.738Z</time></trkpt><trkpt lat="43.077376" lon="11.005944"><ele>483.2</ele><time>2026-05-03T09:16:02.73Z</time></trkpt><trkpt lat="43.0773163" lon="11.0060532"><ele>482.80000000000007</ele><time>2026-05-03T09:16:03.746Z</time></trkpt><trkpt lat="43.0772588" lon="11.0061453"><ele>482.40000000000003</ele><time>2026-05-03T09:16:04.733Z</time></trkpt><trkpt lat="43.0772051" lon="11.0062245"><ele>482.0</ele><time>2026-05-03T09:16:05.742Z</time></trkpt><trkpt lat="43.0771431" lon="11.0063185"><ele>482.0</ele><time>2026-05-03T09:16:07.747Z</time></trkpt><trkpt lat="43.0771202" lon="11.0064211"><ele>482.00000000000006</ele><time>2026-05-03T09:16:09.745Z</time></trkpt><trkpt lat="43.0771144" lon="11.0065157"><ele>482.00000000000006</ele><time>2026-05-03T09:16:10.73Z</time></trkpt><trkpt lat="43.0771242" lon="11.006651"><ele>482.0</ele><time>2026-05-03T09:16:11.746Z</time></trkpt><trkpt lat="43.0771455" lon="11.0068068"><ele>482.0</ele><time>2026-05-03T09:16:12.741Z</time></trkpt><trkpt lat="43.0771723" lon="11.007"><ele>482.0</ele><time>2026-05-03T09:16:13.743Z</time></trkpt><trkpt lat="43.0771986" lon="11.0072195"><ele>482.0</ele><time>2026-05-03T09:16:14.742Z</time></trkpt><trkpt lat="43.0772235" lon="11.0074468"><ele>482.0</ele><time>2026-05-03T09:16:15.739Z</time></trkpt><trkpt lat="43.0772575" lon="11.0076903"><ele>481.66666666666663</ele><time>2026-05-03T09:16:16.752Z</time></trkpt><trkpt lat="43.0772891" lon="11.0079485"><ele>481.33333333333337</ele><time>2026-05-03T09:16:17.75Z</time></trkpt><trkpt lat="43.0773198" lon="11.0082197"><ele>481.0</ele><time>2026-05-03T09:16:18.742Z</time></trkpt><trkpt lat="43.0773555" lon="11.0084932"><ele>480.0</ele><time>2026-05-03T09:16:19.744Z</time></trkpt><trkpt lat="43.0773931" lon="11.0087645"><ele>479.0</ele><time>2026-05-03T09:16:20.739Z</time></trkpt><trkpt lat="43.0774311" lon="11.0090401"><ele>478.0</ele><time>2026-05-03T09:16:21.755Z</time></trkpt><trkpt lat="43.0774684" lon="11.0093183"><ele>477.6666666666667</ele><time>2026-05-03T09:16:22.756Z</time></trkpt><trkpt lat="43.0775036" lon="11.0095939"><ele>477.33333333333337</ele><time>2026-05-03T09:16:23.743Z</time></trkpt><trkpt lat="43.0775368" lon="11.0098613"><ele>477.0</ele><time>2026-05-03T09:16:24.754Z</time></trkpt><trkpt lat="43.077571" lon="11.010124"><ele>477.0</ele><time>2026-05-03T09:16:25.748Z</time></trkpt><trkpt lat="43.0776074" lon="11.0103743"><ele>477.0</ele><time>2026-05-03T09:16:26.737Z</time></trkpt><trkpt lat="43.0776421" lon="11.0106291"><ele>477.0</ele><time>2026-05-03T09:16:27.754Z</time></trkpt><trkpt lat="43.0776748" lon="11.0108886"><ele>476.66666666666663</ele><time>2026-05-03T09:16:28.737Z</time></trkpt><trkpt lat="43.0777119" lon="11.0111454"><ele>476.3333333333333</ele><time>2026-05-03T09:16:29.752Z</time></trkpt><trkpt lat="43.0777484" lon="11.0114043"><ele>476.0</ele><time>2026-05-03T09:16:30.75Z</time></trkpt><trkpt lat="43.0777849" lon="11.0116659"><ele>475.0</ele><time>2026-05-03T09:16:31.748Z</time></trkpt><trkpt lat="43.0778201" lon="11.011928"><ele>474.0</ele><time>2026-05-03T09:16:32.735Z</time></trkpt><trkpt lat="43.0778534" lon="11.0121908"><ele>473.0</ele><time>2026-05-03T09:16:33.742Z</time></trkpt><trkpt lat="43.0778875" lon="11.0124429"><ele>472.3333333333333</ele><time>2026-05-03T09:16:34.749Z</time></trkpt><trkpt lat="43.0779184" lon="11.0126818"><ele>471.66666666666663</ele><time>2026-05-03T09:16:35.75Z</time></trkpt><trkpt lat="43.077948" lon="11.0129137"><ele>471.0</ele><time>2026-05-03T09:16:36.739Z</time></trkpt><trkpt lat="43.0779796" lon="11.0131532"><ele>471.66666666666663</ele><time>2026-05-03T09:16:37.749Z</time></trkpt><trkpt lat="43.0780126" lon="11.0133884"><ele>472.3333333333333</ele><time>2026-05-03T09:16:38.748Z</time></trkpt><trkpt lat="43.0780454" lon="11.0136145"><ele>473.0</ele><time>2026-05-03T09:16:39.741Z</time></trkpt><trkpt lat="43.0780724" lon="11.0138387"><ele>473.0</ele><time>2026-05-03T09:16:40.742Z</time></trkpt><trkpt lat="43.078103" lon="11.0140501"><ele>473.0</ele><time>2026-05-03T09:16:41.765Z</time></trkpt><trkpt lat="43.0781301" lon="11.0142513"><ele>473.0</ele><time>2026-05-03T09:16:42.75Z</time></trkpt><trkpt lat="43.0781548" lon="11.0144455"><ele>473.0</ele><time>2026-05-03T09:16:43.755Z</time></trkpt><trkpt lat="43.078178" lon="11.0146197"><ele>472.99999999999994</ele><time>2026-05-03T09:16:44.741Z</time></trkpt><trkpt lat="43.0781983" lon="11.0147781"><ele>472.99999999999994</ele><time>2026-05-03T09:16:45.749Z</time></trkpt><trkpt lat="43.0782117" lon="11.0149083"><ele>473.0</ele><time>2026-05-03T09:16:46.741Z</time></trkpt><trkpt lat="43.0782242" lon="11.0150185"><ele>473.0</ele><time>2026-05-03T09:16:47.746Z</time></trkpt><trkpt lat="43.0782502" lon="11.0151765"><ele>472.99999999999994</ele><time>2026-05-03T09:16:49.754Z</time></trkpt><trkpt lat="43.0783117" lon="11.0152679"><ele>473.0</ele><time>2026-05-03T09:16:51.738Z</time></trkpt><trkpt lat="43.0783719" lon="11.0153239"><ele>473.0</ele><time>2026-05-03T09:16:53.747Z</time></trkpt><trkpt lat="43.078392" lon="11.0154119"><ele>473.0</ele><time>2026-05-03T09:16:56.745Z</time></trkpt><trkpt lat="43.0784344" lon="11.0153207"><ele>472.99999999999994</ele><time>2026-05-03T09:24:06.737Z</time></trkpt><trkpt lat="43.0783919" lon="11.015229"><ele>473.0</ele><time>2026-05-03T09:24:46.731Z</time></trkpt><trkpt lat="43.0783242" lon="11.0152167"><ele>472.99999999999994</ele><time>2026-05-03T09:24:48.74Z</time></trkpt><trkpt lat="43.0782912" lon="11.0153503"><ele>473.0</ele><time>2026-05-03T09:24:51.745Z</time></trkpt><trkpt lat="43.0782967" lon="11.0154443"><ele>473.0</ele><time>2026-05-03T09:24:52.749Z</time></trkpt><trkpt lat="43.0783098" lon="11.0155541"><ele>473.0</ele><time>2026-05-03T09:24:53.742Z</time></trkpt><trkpt lat="43.078336" lon="11.0156681"><ele>472.99999999999994</ele><time>2026-05-03T09:24:54.75Z</time></trkpt><trkpt lat="43.0783513" lon="11.0158104"><ele>473.0</ele><time>2026-05-03T09:24:55.741Z</time></trkpt><trkpt lat="43.0783701" lon="11.0159659"><ele>473.0</ele><time>2026-05-03T09:24:56.76Z</time></trkpt><trkpt lat="43.0783924" lon="11.0161287"><ele>473.0</ele><time>2026-05-03T09:24:57.756Z</time></trkpt><trkpt lat="43.0784146" lon="11.0162977"><ele>473.0</ele><time>2026-05-03T09:24:58.739Z</time></trkpt><trkpt lat="43.0784373" lon="11.0164601"><ele>473.0</ele><time>2026-05-03T09:24:59.741Z</time></trkpt><trkpt lat="43.0784564" lon="11.016611"><ele>473.2</ele><time>2026-05-03T09:25:00.754Z</time></trkpt><trkpt lat="43.0784711" lon="11.0167426"><ele>473.4</ele><time>2026-05-03T09:25:01.748Z</time></trkpt><trkpt lat="43.0784869" lon="11.0168626"><ele>473.59999999999997</ele><time>2026-05-03T09:25:02.734Z</time></trkpt><trkpt lat="43.0785016" lon="11.0169833"><ele>473.79999999999995</ele><time>2026-05-03T09:25:03.738Z</time></trkpt><trkpt lat="43.0785211" lon="11.0171164"><ele>474.0</ele><time>2026-05-03T09:25:04.743Z</time></trkpt><trkpt lat="43.0785454" lon="11.0172646"><ele>474.0</ele><time>2026-05-03T09:25:05.732Z</time></trkpt><trkpt lat="43.0785699" lon="11.0174102"><ele>474.0</ele><time>2026-05-03T09:25:06.742Z</time></trkpt><trkpt lat="43.0785917" lon="11.0175643"><ele>474.0</ele><time>2026-05-03T09:25:07.737Z</time></trkpt><trkpt lat="43.0786128" lon="11.0177237"><ele>474.0</ele><time>2026-05-03T09:25:08.727Z</time></trkpt><trkpt lat="43.0786399" lon="11.0178774"><ele>474.0</ele><time>2026-05-03T09:25:09.748Z</time></trkpt><trkpt lat="43.0786626" lon="11.0180178"><ele>474.0</ele><time>2026-05-03T09:25:10.729Z</time></trkpt><trkpt lat="43.0786851" lon="11.0181321"><ele>474.0</ele><time>2026-05-03T09:25:11.743Z</time></trkpt><trkpt lat="43.0787042" lon="11.0182293"><ele>474.0</ele><time>2026-05-03T09:25:12.745Z</time></trkpt><trkpt lat="43.0787307" lon="11.0183153"><ele>474.0</ele><time>2026-05-03T09:25:13.747Z</time></trkpt><trkpt lat="43.0787577" lon="11.0184006"><ele>474.0</ele><time>2026-05-03T09:25:14.748Z</time></trkpt><trkpt lat="43.0787811" lon="11.0184814"><ele>473.79999999999995</ele><time>2026-05-03T09:25:15.739Z</time></trkpt><trkpt lat="43.078829" lon="11.018634"><ele>473.59999999999997</ele><time>2026-05-03T09:25:17.742Z</time></trkpt><trkpt lat="43.0788999" lon="11.0187514"><ele>473.4</ele><time>2026-05-03T09:25:19.733Z</time></trkpt><trkpt lat="43.0789548" lon="11.0188404"><ele>473.2</ele><time>2026-05-03T09:25:21.728Z</time></trkpt><trkpt lat="43.0789908" lon="11.0189232"><ele>473.0</ele><time>2026-05-03T09:25:27.73Z</time></trkpt><trkpt lat="43.079074" lon="11.0189439"><ele>473.3333333333333</ele><time>2026-05-03T09:41:55.732Z</time></trkpt><trkpt lat="43.0791685" lon="11.01899"><ele>473.66666666666663</ele><time>2026-05-03T09:41:57.731Z</time></trkpt><trkpt lat="43.0792063" lon="11.019066"><ele>474.0</ele><time>2026-05-03T09:41:58.733Z</time></trkpt><trkpt lat="43.0792169" lon="11.0191726"><ele>474.33333333333337</ele><time>2026-05-03T09:41:59.735Z</time></trkpt><trkpt lat="43.0792028" lon="11.0193061"><ele>474.6666666666667</ele><time>2026-05-03T09:42:00.72Z</time></trkpt><trkpt lat="43.0791783" lon="11.0194453"><ele>475.0</ele><time>2026-05-03T09:42:01.726Z</time></trkpt><trkpt lat="43.079142" lon="11.0195817"><ele>474.8</ele><time>2026-05-03T09:42:02.72Z</time></trkpt><trkpt lat="43.0791001" lon="11.019706"><ele>474.6</ele><time>2026-05-03T09:42:03.739Z</time></trkpt><trkpt lat="43.0790544" lon="11.0198018"><ele>474.4</ele><time>2026-05-03T09:42:04.729Z</time></trkpt><trkpt lat="43.0789874" lon="11.0198723"><ele>474.2</ele><time>2026-05-03T09:42:05.728Z</time></trkpt><trkpt lat="43.078901" lon="11.0199121"><ele>474.0</ele><time>2026-05-03T09:42:06.735Z</time></trkpt><trkpt lat="43.0788041" lon="11.0199007"><ele>474.0</ele><time>2026-05-03T09:42:07.719Z</time></trkpt><trkpt lat="43.0787064" lon="11.0198448"><ele>474.0</ele><time>2026-05-03T09:42:08.716Z</time></trkpt><trkpt lat="43.0786054" lon="11.0197816"><ele>474.0</ele><time>2026-05-03T09:42:09.725Z</time></trkpt><trkpt lat="43.0784995" lon="11.0197314"><ele>474.0</ele><time>2026-05-03T09:42:10.723Z</time></trkpt><trkpt lat="43.0783949" lon="11.019692"><ele>474.0</ele><time>2026-05-03T09:42:11.727Z</time></trkpt><trkpt lat="43.0783049" lon="11.0196616"><ele>474.0</ele><time>2026-05-03T09:42:12.721Z</time></trkpt><trkpt lat="43.0782291" lon="11.0196438"><ele>474.0</ele><time>2026-05-03T09:42:13.733Z</time></trkpt><trkpt lat="43.0781425" lon="11.0196518"><ele>474.0</ele><time>2026-05-03T09:42:15.74Z</time></trkpt><trkpt lat="43.0781133" lon="11.0197353"><ele>474.0</ele><time>2026-05-03T09:45:25.726Z</time></trkpt><trkpt lat="43.0781959" lon="11.0197642"><ele>474.0</ele><time>2026-05-03T09:45:28.734Z</time></trkpt><trkpt lat="43.0782832" lon="11.0197257"><ele>474.0</ele><time>2026-05-03T09:45:29.722Z</time></trkpt><trkpt lat="43.0783832" lon="11.019702"><ele>474.0</ele><time>2026-05-03T09:45:30.722Z</time></trkpt><trkpt lat="43.0784927" lon="11.0196992"><ele>474.0</ele><time>2026-05-03T09:45:31.726Z</time></trkpt><trkpt lat="43.0786071" lon="11.0197427"><ele>474.0</ele><time>2026-05-03T09:45:32.726Z</time></trkpt><trkpt lat="43.078717" lon="11.0198029"><ele>474.0</ele><time>2026-05-03T09:45:33.721Z</time></trkpt><trkpt lat="43.078831" lon="11.019849"><ele>474.0</ele><time>2026-05-03T09:45:34.721Z</time></trkpt><trkpt lat="43.0789444" lon="11.0198534"><ele>474.0</ele><time>2026-05-03T09:45:35.73Z</time></trkpt><trkpt lat="43.0790401" lon="11.0197869"><ele>474.0</ele><time>2026-05-03T09:45:36.729Z</time></trkpt><trkpt lat="43.079107" lon="11.0196533"><ele>474.0</ele><time>2026-05-03T09:45:37.733Z</time></trkpt><trkpt lat="43.079159" lon="11.0195012"><ele>474.1666666666667</ele><time>2026-05-03T09:45:38.718Z</time></trkpt><trkpt lat="43.0791948" lon="11.0193548"><ele>474.33333333333337</ele><time>2026-05-03T09:45:39.729Z</time></trkpt><trkpt lat="43.0792212" lon="11.0192641"><ele>474.5</ele><time>2026-05-03T09:45:40.722Z</time></trkpt><trkpt lat="43.07927" lon="11.0191555"><ele>474.6666666666667</ele><time>2026-05-03T09:45:42.708Z</time></trkpt><trkpt lat="43.0793514" lon="11.0190938"><ele>474.83333333333337</ele><time>2026-05-03T09:45:44.73Z</time></trkpt><trkpt lat="43.0794154" lon="11.0190861"><ele>475.0</ele><time>2026-05-03T09:45:45.726Z</time></trkpt><trkpt lat="43.0795018" lon="11.0191104"><ele>475.0</ele><time>2026-05-03T09:45:46.724Z</time></trkpt><trkpt lat="43.0795993" lon="11.0191476"><ele>475.0</ele><time>2026-05-03T09:45:47.723Z</time></trkpt><trkpt lat="43.0797006" lon="11.0191916"><ele>475.0</ele><time>2026-05-03T09:45:48.721Z</time></trkpt><trkpt lat="43.0798066" lon="11.0192356"><ele>475.0</ele><time>2026-05-03T09:45:49.729Z</time></trkpt><trkpt lat="43.0799184" lon="11.0192879"><ele>475.0</ele><time>2026-05-03T09:45:50.723Z</time></trkpt><trkpt lat="43.0800342" lon="11.0193389"><ele>475.0</ele><time>2026-05-03T09:45:51.722Z</time></trkpt><trkpt lat="43.0801596" lon="11.0193957"><ele>475.0</ele><time>2026-05-03T09:45:52.723Z</time></trkpt><trkpt lat="43.0802866" lon="11.0194511"><ele>475.0</ele><time>2026-05-03T09:45:53.732Z</time></trkpt><trkpt lat="43.0804199" lon="11.0195168"><ele>475.0</ele><time>2026-05-03T09:45:54.726Z</time></trkpt><trkpt lat="43.0805515" lon="11.0195825"><ele>475.0</ele><time>2026-05-03T09:45:55.73Z</time></trkpt><trkpt lat="43.0806855" lon="11.0196661"><ele>475.0</ele><time>2026-05-03T09:45:56.718Z</time></trkpt><trkpt lat="43.0808209" lon="11.01975"><ele>475.0</ele><time>2026-05-03T09:45:57.737Z</time></trkpt><trkpt lat="43.0809581" lon="11.0198399"><ele>475.0</ele><time>2026-05-03T09:45:58.727Z</time></trkpt><trkpt lat="43.0810947" lon="11.0199343"><ele>476.5</ele><time>2026-05-03T09:45:59.739Z</time></trkpt><trkpt lat="43.0812273" lon="11.0200318"><ele>478.0</ele><time>2026-05-03T09:46:00.715Z</time></trkpt><trkpt lat="43.081358" lon="11.0201228"><ele>479.5</ele><time>2026-05-03T09:46:01.728Z</time></trkpt><trkpt lat="43.0814842" lon="11.0202215"><ele>481.0</ele><time>2026-05-03T09:46:02.727Z</time></trkpt><trkpt lat="43.0816061" lon="11.020329"><ele>486.0</ele><time>2026-05-03T09:46:03.723Z</time></trkpt><trkpt lat="43.0817208" lon="11.0204584"><ele>491.0</ele><time>2026-05-03T09:46:04.721Z</time></trkpt><trkpt lat="43.081824" lon="11.0206107"><ele>496.0</ele><time>2026-05-03T09:46:05.724Z</time></trkpt><trkpt lat="43.0819071" lon="11.0207912"><ele>491.33333333333337</ele><time>2026-05-03T09:46:06.734Z</time></trkpt><trkpt lat="43.0819658" lon="11.0209922"><ele>486.66666666666663</ele><time>2026-05-03T09:46:07.734Z</time></trkpt><trkpt lat="43.0820116" lon="11.0212072"><ele>482.0</ele><time>2026-05-03T09:46:08.719Z</time></trkpt><trkpt lat="43.0820472" lon="11.0214444"><ele>482.66666666666663</ele><time>2026-05-03T09:46:09.73Z</time></trkpt><trkpt lat="43.0820871" lon="11.0216624"><ele>483.33333333333337</ele><time>2026-05-03T09:46:10.735Z</time></trkpt><trkpt lat="43.0821483" lon="11.0218732"><ele>484.0</ele><time>2026-05-03T09:46:11.727Z</time></trkpt><trkpt lat="43.0822177" lon="11.0220666"><ele>484.0</ele><time>2026-05-03T09:46:12.723Z</time></trkpt><trkpt lat="43.0822929" lon="11.0222553"><ele>484.0</ele><time>2026-05-03T09:46:13.726Z</time></trkpt><trkpt lat="43.0823752" lon="11.0224478"><ele>484.0</ele><time>2026-05-03T09:46:14.726Z</time></trkpt><trkpt lat="43.0824525" lon="11.0226492"><ele>484.6666666666667</ele><time>2026-05-03T09:46:15.732Z</time></trkpt><trkpt lat="43.0825299" lon="11.0228512"><ele>485.33333333333337</ele><time>2026-05-03T09:46:16.73Z</time></trkpt><trkpt lat="43.0826108" lon="11.0230593"><ele>486.0</ele><time>2026-05-03T09:46:17.729Z</time></trkpt><trkpt lat="43.0826907" lon="11.0232704"><ele>485.0</ele><time>2026-05-03T09:46:18.725Z</time></trkpt><trkpt lat="43.0827687" lon="11.0234807"><ele>484.0</ele><time>2026-05-03T09:46:19.729Z</time></trkpt><trkpt lat="43.082844" lon="11.023692"><ele>483.0</ele><time>2026-05-03T09:46:20.725Z</time></trkpt><trkpt lat="43.082919" lon="11.023918"><ele>483.0</ele><time>2026-05-03T09:46:21.735Z</time></trkpt><trkpt lat="43.082998" lon="11.0241423"><ele>483.0</ele><time>2026-05-03T09:46:22.729Z</time></trkpt><trkpt lat="43.0830701" lon="11.0243575"><ele>483.0</ele><time>2026-05-03T09:46:23.727Z</time></trkpt><trkpt lat="43.0831343" lon="11.0245635"><ele>483.0</ele><time>2026-05-03T09:46:24.734Z</time></trkpt><trkpt lat="43.0831857" lon="11.0247651"><ele>483.0</ele><time>2026-05-03T09:46:25.729Z</time></trkpt><trkpt lat="43.0832289" lon="11.0249744"><ele>483.0</ele><time>2026-05-03T09:46:26.733Z</time></trkpt><trkpt lat="43.083252" lon="11.0251664"><ele>482.25</ele><time>2026-05-03T09:46:27.728Z</time></trkpt><trkpt lat="43.0832717" lon="11.0253407"><ele>481.5</ele><time>2026-05-03T09:46:28.726Z</time></trkpt><trkpt lat="43.0833024" lon="11.0254951"><ele>480.75</ele><time>2026-05-03T09:46:29.73Z</time></trkpt><trkpt lat="43.0833632" lon="11.0256153"><ele>480.0</ele><time>2026-05-03T09:46:30.733Z</time></trkpt><trkpt lat="43.083459" lon="11.0256939"><ele>480.0</ele><time>2026-05-03T09:46:31.726Z</time></trkpt><trkpt lat="43.0835778" lon="11.025742"><ele>480.0</ele><time>2026-05-03T09:46:32.726Z</time></trkpt><trkpt lat="43.0836915" lon="11.0257725"><ele>480.0</ele><time>2026-05-03T09:46:33.73Z</time></trkpt><trkpt lat="43.0837746" lon="11.0257834"><ele>480.0</ele><time>2026-05-03T09:46:34.729Z</time></trkpt><trkpt lat="43.0838428" lon="11.0257947"><ele>480.0</ele><time>2026-05-03T09:46:35.733Z</time></trkpt><trkpt lat="43.0839425" lon="11.0258057"><ele>479.2</ele><time>2026-05-03T09:46:37.718Z</time></trkpt><trkpt lat="43.0840235" lon="11.025818"><ele>478.4</ele><time>2026-05-03T09:46:39.725Z</time></trkpt><trkpt lat="43.0841003" lon="11.0258241"><ele>477.6</ele><time>2026-05-03T09:46:41.73Z</time></trkpt><trkpt lat="43.084228" lon="11.0258236"><ele>476.8</ele><time>2026-05-03T09:46:43.72Z</time></trkpt><trkpt lat="43.0843092" lon="11.0258288"><ele>476.0</ele><time>2026-05-03T09:46:44.734Z</time></trkpt><trkpt lat="43.0844223" lon="11.0258372"><ele>475.3333333333333</ele><time>2026-05-03T09:46:45.736Z</time></trkpt><trkpt lat="43.084585" lon="11.0258646"><ele>474.66666666666663</ele><time>2026-05-03T09:46:46.737Z</time></trkpt><trkpt lat="43.0847715" lon="11.0258923"><ele>474.0</ele><time>2026-05-03T09:46:47.726Z</time></trkpt><trkpt lat="43.084967" lon="11.0259497"><ele>474.0</ele><time>2026-05-03T09:46:48.725Z</time></trkpt><trkpt lat="43.0851651" lon="11.0260298"><ele>474.0</ele><time>2026-05-03T09:46:49.713Z</time></trkpt><trkpt lat="43.0853592" lon="11.0261078"><ele>474.0</ele><time>2026-05-03T09:46:50.73Z</time></trkpt><trkpt lat="43.0855513" lon="11.0261617"><ele>474.0</ele><time>2026-05-03T09:46:51.719Z</time></trkpt><trkpt lat="43.0857449" lon="11.0261803"><ele>474.0</ele><time>2026-05-03T09:46:52.719Z</time></trkpt><trkpt lat="43.0859521" lon="11.0261846"><ele>474.0</ele><time>2026-05-03T09:46:53.719Z</time></trkpt><trkpt lat="43.0861625" lon="11.0261703"><ele>474.0</ele><time>2026-05-03T09:46:54.712Z</time></trkpt><trkpt lat="43.0863713" lon="11.0261455"><ele>474.0</ele><time>2026-05-03T09:46:55.719Z</time></trkpt><trkpt lat="43.0865761" lon="11.0261012"><ele>474.0</ele><time>2026-05-03T09:46:56.727Z</time></trkpt><trkpt lat="43.0867722" lon="11.0260459"><ele>473.66666666666663</ele><time>2026-05-03T09:46:57.727Z</time></trkpt><trkpt lat="43.0869561" lon="11.0259581"><ele>473.3333333333333</ele><time>2026-05-03T09:46:58.713Z</time></trkpt><trkpt lat="43.0871256" lon="11.0258323"><ele>473.0</ele><time>2026-05-03T09:46:59.716Z</time></trkpt><trkpt lat="43.0872771" lon="11.0256639"><ele>474.66666666666663</ele><time>2026-05-03T09:47:00.722Z</time></trkpt><trkpt lat="43.0874079" lon="11.0254722"><ele>476.33333333333337</ele><time>2026-05-03T09:47:01.73Z</time></trkpt><trkpt lat="43.0875259" lon="11.0252653"><ele>478.0</ele><time>2026-05-03T09:47:02.719Z</time></trkpt><trkpt lat="43.0876453" lon="11.025063"><ele>479.6666666666667</ele><time>2026-05-03T09:47:03.725Z</time></trkpt><trkpt lat="43.0877664" lon="11.0248716"><ele>481.33333333333337</ele><time>2026-05-03T09:47:04.726Z</time></trkpt><trkpt lat="43.0878892" lon="11.0247094"><ele>483.0</ele><time>2026-05-03T09:47:05.718Z</time></trkpt><trkpt lat="43.088007" lon="11.0245895"><ele>483.0</ele><time>2026-05-03T09:47:06.728Z</time></trkpt><trkpt lat="43.0881293" lon="11.0245064"><ele>483.0</ele><time>2026-05-03T09:47:07.734Z</time></trkpt><trkpt lat="43.0882576" lon="11.0244571"><ele>483.0</ele><time>2026-05-03T09:47:08.729Z</time></trkpt><trkpt lat="43.0883932" lon="11.0244642"><ele>483.0</ele><time>2026-05-03T09:47:09.724Z</time></trkpt><trkpt lat="43.088525" lon="11.0245347"><ele>476.66666666666663</ele><time>2026-05-03T09:47:10.724Z</time></trkpt><trkpt lat="43.0886527" lon="11.024635"><ele>470.3333333333333</ele><time>2026-05-03T09:47:11.729Z</time></trkpt><trkpt lat="43.0887801" lon="11.0247448"><ele>464.0</ele><time>2026-05-03T09:47:12.733Z</time></trkpt><trkpt lat="43.0889054" lon="11.0248674"><ele>467.0</ele><time>2026-05-03T09:47:13.727Z</time></trkpt><trkpt lat="43.0890353" lon="11.0250022"><ele>470.0</ele><time>2026-05-03T09:47:14.722Z</time></trkpt><trkpt lat="43.0891681" lon="11.0251302"><ele>473.0</ele><time>2026-05-03T09:47:15.729Z</time></trkpt><trkpt lat="43.0893028" lon="11.0252616"><ele>473.0</ele><time>2026-05-03T09:47:16.727Z</time></trkpt><trkpt lat="43.0894412" lon="11.0254013"><ele>473.0</ele><time>2026-05-03T09:47:17.724Z</time></trkpt><trkpt lat="43.0895821" lon="11.0255492"><ele>473.0</ele><time>2026-05-03T09:47:18.721Z</time></trkpt><trkpt lat="43.0897348" lon="11.0256845"><ele>473.0</ele><time>2026-05-03T09:47:19.738Z</time></trkpt><trkpt lat="43.0899042" lon="11.0257812"><ele>473.0</ele><time>2026-05-03T09:47:20.733Z</time></trkpt><trkpt lat="43.0900871" lon="11.0258339"><ele>473.0</ele><time>2026-05-03T09:47:21.714Z</time></trkpt><trkpt lat="43.090273" lon="11.0258702"><ele>472.0</ele><time>2026-05-03T09:47:22.718Z</time></trkpt><trkpt lat="43.0904563" lon="11.0259017"><ele>471.0</ele><time>2026-05-03T09:47:23.725Z</time></trkpt><trkpt lat="43.0906336" lon="11.0259366"><ele>470.0</ele><time>2026-05-03T09:47:24.731Z</time></trkpt><trkpt lat="43.0908089" lon="11.025978"><ele>468.3333333333333</ele><time>2026-05-03T09:47:25.733Z</time></trkpt><trkpt lat="43.0909806" lon="11.0260247"><ele>466.66666666666663</ele><time>2026-05-03T09:47:26.727Z</time></trkpt><trkpt lat="43.0911442" lon="11.026087"><ele>465.0</ele><time>2026-05-03T09:47:27.718Z</time></trkpt><trkpt lat="43.0913076" lon="11.0261861"><ele>465.0</ele><time>2026-05-03T09:47:28.722Z</time></trkpt><trkpt lat="43.0914545" lon="11.0263164"><ele>465.0</ele><time>2026-05-03T09:47:29.724Z</time></trkpt><trkpt lat="43.0915971" lon="11.026458"><ele>465.0</ele><time>2026-05-03T09:47:30.723Z</time></trkpt><trkpt lat="43.0917445" lon="11.0265947"><ele>463.0</ele><time>2026-05-03T09:47:31.722Z</time></trkpt><trkpt lat="43.0919015" lon="11.0267249"><ele>461.0</ele><time>2026-05-03T09:47:32.727Z</time></trkpt><trkpt lat="43.0920606" lon="11.0268185"><ele>459.0</ele><time>2026-05-03T09:47:33.722Z</time></trkpt><trkpt lat="43.0922203" lon="11.0268786"><ele>459.0</ele><time>2026-05-03T09:47:34.728Z</time></trkpt><trkpt lat="43.0923759" lon="11.0269347"><ele>459.0</ele><time>2026-05-03T09:47:35.736Z</time></trkpt><trkpt lat="43.092512" lon="11.0270233"><ele>459.0</ele><time>2026-05-03T09:47:36.733Z</time></trkpt><trkpt lat="43.0926236" lon="11.0271589"><ele>460.0</ele><time>2026-05-03T09:47:37.732Z</time></trkpt><trkpt lat="43.092705" lon="11.0273352"><ele>461.0</ele><time>2026-05-03T09:47:38.736Z</time></trkpt><trkpt lat="43.0927645" lon="11.0275288"><ele>462.0</ele><time>2026-05-03T09:47:39.734Z</time></trkpt><trkpt lat="43.0928197" lon="11.0277357"><ele>462.0</ele><time>2026-05-03T09:47:40.721Z</time></trkpt><trkpt lat="43.092877" lon="11.0279445"><ele>462.0</ele><time>2026-05-03T09:47:41.717Z</time></trkpt><trkpt lat="43.092951" lon="11.0281496"><ele>462.0</ele><time>2026-05-03T09:47:42.718Z</time></trkpt><trkpt lat="43.0930587" lon="11.0283107"><ele>462.0</ele><time>2026-05-03T09:47:43.723Z</time></trkpt><trkpt lat="43.0932027" lon="11.0284166"><ele>462.0</ele><time>2026-05-03T09:47:44.72Z</time></trkpt><trkpt lat="43.0933569" lon="11.0284862"><ele>462.0</ele><time>2026-05-03T09:47:45.712Z</time></trkpt><trkpt lat="43.0935299" lon="11.0285458"><ele>462.0</ele><time>2026-05-03T09:47:46.722Z</time></trkpt><trkpt lat="43.0936886" lon="11.0286163"><ele>462.0</ele><time>2026-05-03T09:47:47.724Z</time></trkpt><trkpt lat="43.0938429" lon="11.0287157"><ele>462.0</ele><time>2026-05-03T09:47:48.724Z</time></trkpt><trkpt lat="43.0939863" lon="11.028858"><ele>460.0</ele><time>2026-05-03T09:47:49.729Z</time></trkpt><trkpt lat="43.0941046" lon="11.0290528"><ele>458.0</ele><time>2026-05-03T09:47:50.737Z</time></trkpt><trkpt lat="43.0942173" lon="11.029231"><ele>456.0</ele><time>2026-05-03T09:47:51.74Z</time></trkpt><trkpt lat="43.0943224" lon="11.0294055"><ele>456.0</ele><time>2026-05-03T09:47:52.722Z</time></trkpt><trkpt lat="43.0944295" lon="11.0295878"><ele>456.0</ele><time>2026-05-03T09:47:53.72Z</time></trkpt><trkpt lat="43.0945643" lon="11.0297887"><ele>456.0</ele><time>2026-05-03T09:47:54.721Z</time></trkpt><trkpt lat="43.0946938" lon="11.0299961"><ele>455.66666666666663</ele><time>2026-05-03T09:47:55.716Z</time></trkpt><trkpt lat="43.0948442" lon="11.0302091"><ele>455.3333333333333</ele><time>2026-05-03T09:47:56.725Z</time></trkpt><trkpt lat="43.0949796" lon="11.0304166"><ele>455.0</ele><time>2026-05-03T09:47:57.724Z</time></trkpt><trkpt lat="43.0951095" lon="11.0306337"><ele>459.0</ele><time>2026-05-03T09:47:58.733Z</time></trkpt><trkpt lat="43.0952174" lon="11.0308577"><ele>463.0</ele><time>2026-05-03T09:47:59.717Z</time></trkpt><trkpt lat="43.0953458" lon="11.031053"><ele>467.0</ele><time>2026-05-03T09:48:00.723Z</time></trkpt><trkpt lat="43.095508" lon="11.0311894"><ele>467.0</ele><time>2026-05-03T09:48:01.728Z</time></trkpt><trkpt lat="43.0956899" lon="11.0313068"><ele>467.0</ele><time>2026-05-03T09:48:02.722Z</time></trkpt><trkpt lat="43.0958883" lon="11.0314213"><ele>467.0</ele><time>2026-05-03T09:48:03.721Z</time></trkpt><trkpt lat="43.0960918" lon="11.0315135"><ele>467.66666666666663</ele><time>2026-05-03T09:48:04.722Z</time></trkpt><trkpt lat="43.0962927" lon="11.0316114"><ele>468.33333333333337</ele><time>2026-05-03T09:48:05.721Z</time></trkpt><trkpt lat="43.0964972" lon="11.0317244"><ele>469.0</ele><time>2026-05-03T09:48:06.71Z</time></trkpt><trkpt lat="43.0966959" lon="11.0318299"><ele>462.5</ele><time>2026-05-03T09:48:07.719Z</time></trkpt><trkpt lat="43.0969074" lon="11.031928"><ele>456.0</ele><time>2026-05-03T09:48:08.717Z</time></trkpt><trkpt lat="43.0971229" lon="11.0320344"><ele>456.0</ele><time>2026-05-03T09:48:09.712Z</time></trkpt><trkpt lat="43.097326" lon="11.0321316"><ele>456.0</ele><time>2026-05-03T09:48:10.712Z</time></trkpt><trkpt lat="43.0975195" lon="11.032232"><ele>456.0</ele><time>2026-05-03T09:48:11.725Z</time></trkpt><trkpt lat="43.0977045" lon="11.03234"><ele>455.33333333333337</ele><time>2026-05-03T09:48:12.723Z</time></trkpt><trkpt lat="43.0978684" lon="11.0324522"><ele>454.6666666666667</ele><time>2026-05-03T09:48:13.715Z</time></trkpt><trkpt lat="43.0980175" lon="11.0325934"><ele>454.0</ele><time>2026-05-03T09:48:14.713Z</time></trkpt><trkpt lat="43.0981383" lon="11.0327631"><ele>454.0</ele><time>2026-05-03T09:48:15.724Z</time></trkpt><trkpt lat="43.0982301" lon="11.0329463"><ele>454.0</ele><time>2026-05-03T09:48:16.714Z</time></trkpt><trkpt lat="43.0983007" lon="11.0331436"><ele>454.0</ele><time>2026-05-03T09:48:17.722Z</time></trkpt><trkpt lat="43.0983478" lon="11.0333387"><ele>452.6666666666667</ele><time>2026-05-03T09:48:18.723Z</time></trkpt><trkpt lat="43.0983816" lon="11.0335513"><ele>451.33333333333337</ele><time>2026-05-03T09:48:19.723Z</time></trkpt><trkpt lat="43.0984104" lon="11.0337649"><ele>450.0</ele><time>2026-05-03T09:48:20.738Z</time></trkpt><trkpt lat="43.0984448" lon="11.0339888"><ele>448.33333333333337</ele><time>2026-05-03T09:48:21.727Z</time></trkpt><trkpt lat="43.098481" lon="11.0342196"><ele>446.6666666666667</ele><time>2026-05-03T09:48:22.728Z</time></trkpt><trkpt lat="43.0985133" lon="11.0344615"><ele>445.0</ele><time>2026-05-03T09:48:23.722Z</time></trkpt><trkpt lat="43.0985531" lon="11.0347047"><ele>445.0</ele><time>2026-05-03T09:48:24.727Z</time></trkpt><trkpt lat="43.098593" lon="11.0349424"><ele>445.0</ele><time>2026-05-03T09:48:25.73Z</time></trkpt><trkpt lat="43.0986378" lon="11.0351582"><ele>445.0</ele><time>2026-05-03T09:48:26.713Z</time></trkpt><trkpt lat="43.0987169" lon="11.0353459"><ele>443.0</ele><time>2026-05-03T09:48:27.719Z</time></trkpt><trkpt lat="43.0988278" lon="11.0354904"><ele>441.0</ele><time>2026-05-03T09:48:28.707Z</time></trkpt><trkpt lat="43.0989658" lon="11.0355885"><ele>439.0</ele><time>2026-05-03T09:48:29.722Z</time></trkpt><trkpt lat="43.0991213" lon="11.0356288"><ele>439.0</ele><time>2026-05-03T09:48:30.714Z</time></trkpt><trkpt lat="43.099287" lon="11.0356226"><ele>439.0</ele><time>2026-05-03T09:48:31.732Z</time></trkpt><trkpt lat="43.0994603" lon="11.035615"><ele>439.0</ele><time>2026-05-03T09:48:32.722Z</time></trkpt><trkpt lat="43.0996282" lon="11.0356115"><ele>439.0</ele><time>2026-05-03T09:48:33.73Z</time></trkpt><trkpt lat="43.0998054" lon="11.03564"><ele>439.0</ele><time>2026-05-03T09:48:34.722Z</time></trkpt><trkpt lat="43.0999924" lon="11.0356766"><ele>439.0</ele><time>2026-05-03T09:48:35.72Z</time></trkpt><trkpt lat="43.1001822" lon="11.0356953"><ele>441.0</ele><time>2026-05-03T09:48:36.716Z</time></trkpt><trkpt lat="43.1003603" lon="11.0356687"><ele>443.0</ele><time>2026-05-03T09:48:37.714Z</time></trkpt><trkpt lat="43.1005194" lon="11.0355881"><ele>445.0</ele><time>2026-05-03T09:48:38.705Z</time></trkpt><trkpt lat="43.100649" lon="11.0354558"><ele>445.5</ele><time>2026-05-03T09:48:39.718Z</time></trkpt><trkpt lat="43.1007575" lon="11.0352959"><ele>446.0</ele><time>2026-05-03T09:48:40.722Z</time></trkpt><trkpt lat="43.1008416" lon="11.035138"><ele>446.5</ele><time>2026-05-03T09:48:41.741Z</time></trkpt><trkpt lat="43.1009242" lon="11.0350053"><ele>447.0</ele><time>2026-05-03T09:48:42.721Z</time></trkpt><trkpt lat="43.1010287" lon="11.0348964"><ele>445.66666666666663</ele><time>2026-05-03T09:48:43.731Z</time></trkpt><trkpt lat="43.1011753" lon="11.0348464"><ele>444.3333333333333</ele><time>2026-05-03T09:48:44.717Z</time></trkpt><trkpt lat="43.1013427" lon="11.0348373"><ele>443.0</ele><time>2026-05-03T09:48:45.729Z</time></trkpt><trkpt lat="43.1015225" lon="11.0348525"><ele>440.3333333333333</ele><time>2026-05-03T09:48:46.712Z</time></trkpt><trkpt lat="43.101713" lon="11.0348514"><ele>437.66666666666663</ele><time>2026-05-03T09:48:47.733Z</time></trkpt><trkpt lat="43.1018921" lon="11.0347942"><ele>435.0</ele><time>2026-05-03T09:48:48.718Z</time></trkpt><trkpt lat="43.1020611" lon="11.0347205"><ele>435.0</ele><time>2026-05-03T09:48:49.721Z</time></trkpt><trkpt lat="43.102216" lon="11.0346412"><ele>435.0</ele><time>2026-05-03T09:48:50.723Z</time></trkpt><trkpt lat="43.1023532" lon="11.0345972"><ele>435.0</ele><time>2026-05-03T09:48:51.736Z</time></trkpt><trkpt lat="43.1024737" lon="11.0346092"><ele>435.0</ele><time>2026-05-03T09:48:52.725Z</time></trkpt><trkpt lat="43.1025766" lon="11.0346682"><ele>432.66666666666663</ele><time>2026-05-03T09:48:53.726Z</time></trkpt><trkpt lat="43.1026872" lon="11.0347951"><ele>430.3333333333333</ele><time>2026-05-03T09:48:54.726Z</time></trkpt><trkpt lat="43.1028016" lon="11.0349286"><ele>428.0</ele><time>2026-05-03T09:48:55.721Z</time></trkpt><trkpt lat="43.1029389" lon="11.0350615"><ele>431.66666666666663</ele><time>2026-05-03T09:48:56.714Z</time></trkpt><trkpt lat="43.1031055" lon="11.0351541"><ele>435.33333333333337</ele><time>2026-05-03T09:48:57.728Z</time></trkpt><trkpt lat="43.103269" lon="11.035209"><ele>439.0</ele><time>2026-05-03T09:48:58.73Z</time></trkpt><trkpt lat="43.1034222" lon="11.0352462"><ele>439.0</ele><time>2026-05-03T09:48:59.733Z</time></trkpt><trkpt lat="43.1035676" lon="11.0352883"><ele>439.0</ele><time>2026-05-03T09:49:00.727Z</time></trkpt><trkpt lat="43.1036985" lon="11.0353271"><ele>439.0</ele><time>2026-05-03T09:49:01.731Z</time></trkpt><trkpt lat="43.1038285" lon="11.0353719"><ele>439.0</ele><time>2026-05-03T09:49:02.729Z</time></trkpt><trkpt lat="43.1039602" lon="11.0354329"><ele>435.79999999999995</ele><time>2026-05-03T09:49:03.722Z</time></trkpt><trkpt lat="43.1040834" lon="11.0354778"><ele>432.59999999999997</ele><time>2026-05-03T09:49:04.737Z</time></trkpt><trkpt lat="43.1041961" lon="11.0355108"><ele>429.4</ele><time>2026-05-03T09:49:05.721Z</time></trkpt><trkpt lat="43.1042857" lon="11.0355387"><ele>426.2</ele><time>2026-05-03T09:49:06.726Z</time></trkpt><trkpt lat="43.1043585" lon="11.0355702"><ele>423.0</ele><time>2026-05-03T09:49:07.732Z</time></trkpt><trkpt lat="43.1044731" lon="11.0355495"><ele>423.0</ele><time>2026-05-03T09:49:09.714Z</time></trkpt><trkpt lat="43.1045302" lon="11.0354913"><ele>423.0</ele><time>2026-05-03T09:49:10.725Z</time></trkpt><trkpt lat="43.1045844" lon="11.0354002"><ele>423.0</ele><time>2026-05-03T09:49:11.73Z</time></trkpt><trkpt lat="43.104652" lon="11.03529"><ele>423.0</ele><time>2026-05-03T09:49:12.724Z</time></trkpt><trkpt lat="43.1047312" lon="11.0351586"><ele>423.0</ele><time>2026-05-03T09:49:13.725Z</time></trkpt><trkpt lat="43.1048118" lon="11.0350015"><ele>422.5</ele><time>2026-05-03T09:49:14.737Z</time></trkpt><trkpt lat="43.1048874" lon="11.0348514"><ele>422.0</ele><time>2026-05-03T09:49:15.753Z</time></trkpt><trkpt lat="43.1049689" lon="11.0347082"><ele>421.5</ele><time>2026-05-03T09:49:16.714Z</time></trkpt><trkpt lat="43.1050661" lon="11.034566"><ele>421.0</ele><time>2026-05-03T09:49:17.727Z</time></trkpt><trkpt lat="43.1051785" lon="11.0344341"><ele>421.0</ele><time>2026-05-03T09:49:18.727Z</time></trkpt><trkpt lat="43.1053044" lon="11.0343233"><ele>421.0</ele><time>2026-05-03T09:49:19.726Z</time></trkpt><trkpt lat="43.1054442" lon="11.034259"><ele>421.0</ele><time>2026-05-03T09:49:20.73Z</time></trkpt><trkpt lat="43.1055884" lon="11.0342532"><ele>421.0</ele><time>2026-05-03T09:49:21.723Z</time></trkpt><trkpt lat="43.1057435" lon="11.0342835"><ele>426.0</ele><time>2026-05-03T09:49:22.739Z</time></trkpt><trkpt lat="43.1059011" lon="11.0343426"><ele>431.0</ele><time>2026-05-03T09:49:23.737Z</time></trkpt><trkpt lat="43.1060578" lon="11.0344292"><ele>436.0</ele><time>2026-05-03T09:49:24.735Z</time></trkpt><trkpt lat="43.1062002" lon="11.0345576"><ele>436.0</ele><time>2026-05-03T09:49:25.736Z</time></trkpt><trkpt lat="43.1063214" lon="11.034715"><ele>436.0</ele><time>2026-05-03T09:49:26.721Z</time></trkpt><trkpt lat="43.1064303" lon="11.0348645"><ele>436.0</ele><time>2026-05-03T09:49:27.725Z</time></trkpt><trkpt lat="43.1065611" lon="11.0349619"><ele>434.6666666666667</ele><time>2026-05-03T09:49:28.732Z</time></trkpt><trkpt lat="43.1067087" lon="11.0350075"><ele>433.33333333333337</ele><time>2026-05-03T09:49:29.73Z</time></trkpt><trkpt lat="43.1068659" lon="11.0349961"><ele>432.0</ele><time>2026-05-03T09:49:30.735Z</time></trkpt><trkpt lat="43.1070097" lon="11.0349106"><ele>439.33333333333337</ele><time>2026-05-03T09:49:31.728Z</time></trkpt><trkpt lat="43.1071633" lon="11.0347961"><ele>446.6666666666667</ele><time>2026-05-03T09:49:32.732Z</time></trkpt><trkpt lat="43.1072929" lon="11.0346632"><ele>454.0</ele><time>2026-05-03T09:49:33.726Z</time></trkpt><trkpt lat="43.1074234" lon="11.0345848"><ele>454.2</ele><time>2026-05-03T09:49:34.734Z</time></trkpt><trkpt lat="43.1075393" lon="11.034548"><ele>454.4</ele><time>2026-05-03T09:49:35.737Z</time></trkpt><trkpt lat="43.1076339" lon="11.0345588"><ele>454.6</ele><time>2026-05-03T09:49:36.727Z</time></trkpt><trkpt lat="43.1077129" lon="11.0346239"><ele>454.8</ele><time>2026-05-03T09:49:37.723Z</time></trkpt><trkpt lat="43.1077625" lon="11.0347543"><ele>455.0</ele><time>2026-05-03T09:49:38.728Z</time></trkpt><trkpt lat="43.1077561" lon="11.0348982"><ele>451.3333333333333</ele><time>2026-05-03T09:49:39.718Z</time></trkpt><trkpt lat="43.1077046" lon="11.0350879"><ele>447.66666666666663</ele><time>2026-05-03T09:49:40.725Z</time></trkpt><trkpt lat="43.1076269" lon="11.0352923"><ele>444.0</ele><time>2026-05-03T09:49:41.71Z</time></trkpt><trkpt lat="43.1075516" lon="11.0354852"><ele>444.0</ele><time>2026-05-03T09:49:42.722Z</time></trkpt><trkpt lat="43.107482" lon="11.0356599"><ele>444.0</ele><time>2026-05-03T09:49:43.73Z</time></trkpt><trkpt lat="43.1074332" lon="11.0358187"><ele>444.0</ele><time>2026-05-03T09:49:44.732Z</time></trkpt><trkpt lat="43.1074371" lon="11.0359663"><ele>444.0</ele><time>2026-05-03T09:49:45.733Z</time></trkpt><trkpt lat="43.1074648" lon="11.0361289"><ele>444.75</ele><time>2026-05-03T09:49:46.741Z</time></trkpt><trkpt lat="43.1075268" lon="11.0362666"><ele>445.5</ele><time>2026-05-03T09:49:47.737Z</time></trkpt><trkpt lat="43.107637" lon="11.0363492"><ele>446.25</ele><time>2026-05-03T09:49:48.73Z</time></trkpt><trkpt lat="43.1077787" lon="11.036387"><ele>447.0</ele><time>2026-05-03T09:49:49.73Z</time></trkpt><trkpt lat="43.1079442" lon="11.0363883"><ele>447.0</ele><time>2026-05-03T09:49:50.73Z</time></trkpt><trkpt lat="43.1081121" lon="11.0363776"><ele>447.0</ele><time>2026-05-03T09:49:51.73Z</time></trkpt><trkpt lat="43.1082782" lon="11.0363538"><ele>447.0</ele><time>2026-05-03T09:49:52.729Z</time></trkpt><trkpt lat="43.1084423" lon="11.0363336"><ele>452.75</ele><time>2026-05-03T09:49:53.723Z</time></trkpt><trkpt lat="43.1086075" lon="11.036332"><ele>458.5</ele><time>2026-05-03T09:49:54.727Z</time></trkpt><trkpt lat="43.1087437" lon="11.0363347"><ele>464.25</ele><time>2026-05-03T09:49:55.724Z</time></trkpt><trkpt lat="43.1088137" lon="11.0364129"><ele>470.0</ele><time>2026-05-03T09:49:56.726Z</time></trkpt><trkpt lat="43.1088169" lon="11.0365817"><ele>465.66666666666663</ele><time>2026-05-03T09:49:57.717Z</time></trkpt><trkpt lat="43.1087626" lon="11.036787"><ele>461.33333333333337</ele><time>2026-05-03T09:49:58.72Z</time></trkpt><trkpt lat="43.1087147" lon="11.0369869"><ele>457.0</ele><time>2026-05-03T09:49:59.733Z</time></trkpt><trkpt lat="43.1086997" lon="11.0372001"><ele>457.0</ele><time>2026-05-03T09:50:00.725Z</time></trkpt><trkpt lat="43.1087621" lon="11.0374149"><ele>457.0</ele><time>2026-05-03T09:50:01.73Z</time></trkpt><trkpt lat="43.1088522" lon="11.0375843"><ele>457.0</ele><time>2026-05-03T09:50:02.723Z</time></trkpt><trkpt lat="43.1089763" lon="11.0376766"><ele>459.6666666666667</ele><time>2026-05-03T09:50:03.716Z</time></trkpt><trkpt lat="43.1091311" lon="11.0377262"><ele>462.33333333333337</ele><time>2026-05-03T09:50:04.726Z</time></trkpt><trkpt lat="43.1093102" lon="11.0377677"><ele>465.0</ele><time>2026-05-03T09:50:05.719Z</time></trkpt><trkpt lat="43.1094854" lon="11.0378188"><ele>465.0</ele><time>2026-05-03T09:50:06.725Z</time></trkpt><trkpt lat="43.109665" lon="11.0378873"><ele>465.0</ele><time>2026-05-03T09:50:07.733Z</time></trkpt><trkpt lat="43.10983" lon="11.0379407"><ele>465.0</ele><time>2026-05-03T09:50:08.716Z</time></trkpt><trkpt lat="43.1099732" lon="11.0379708"><ele>468.0</ele><time>2026-05-03T09:50:09.725Z</time></trkpt><trkpt lat="43.1101296" lon="11.037944"><ele>471.0</ele><time>2026-05-03T09:50:10.726Z</time></trkpt><trkpt lat="43.110303" lon="11.0378943"><ele>474.0</ele><time>2026-05-03T09:50:11.726Z</time></trkpt><trkpt lat="43.1104763" lon="11.0378447"><ele>474.0</ele><time>2026-05-03T09:50:12.725Z</time></trkpt><trkpt lat="43.1106509" lon="11.0377972"><ele>474.0</ele><time>2026-05-03T09:50:13.734Z</time></trkpt><trkpt lat="43.1108248" lon="11.0377651"><ele>474.0</ele><time>2026-05-03T09:50:14.729Z</time></trkpt><trkpt lat="43.1109784" lon="11.0377492"><ele>474.75</ele><time>2026-05-03T09:50:15.738Z</time></trkpt><trkpt lat="43.1111185" lon="11.037741"><ele>475.5</ele><time>2026-05-03T09:50:16.723Z</time></trkpt><trkpt lat="43.1112522" lon="11.0377115"><ele>476.25</ele><time>2026-05-03T09:50:17.74Z</time></trkpt><trkpt lat="43.1113887" lon="11.0376391"><ele>477.0</ele><time>2026-05-03T09:50:18.733Z</time></trkpt><trkpt lat="43.1114997" lon="11.0375162"><ele>480.25</ele><time>2026-05-03T09:50:19.735Z</time></trkpt><trkpt lat="43.1115944" lon="11.0373922"><ele>483.5</ele><time>2026-05-03T09:50:20.721Z</time></trkpt><trkpt lat="43.1117021" lon="11.0373007"><ele>486.75</ele><time>2026-05-03T09:50:21.739Z</time></trkpt><trkpt lat="43.1118216" lon="11.0372445"><ele>490.0</ele><time>2026-05-03T09:50:22.725Z</time></trkpt><trkpt lat="43.1119485" lon="11.0372299"><ele>490.0</ele><time>2026-05-03T09:50:23.725Z</time></trkpt><trkpt lat="43.112089" lon="11.0372479"><ele>490.0</ele><time>2026-05-03T09:50:24.726Z</time></trkpt><trkpt lat="43.1122248" lon="11.0372179"><ele>490.0</ele><time>2026-05-03T09:50:25.727Z</time></trkpt><trkpt lat="43.1123631" lon="11.0371282"><ele>490.0</ele><time>2026-05-03T09:50:26.73Z</time></trkpt><trkpt lat="43.1124939" lon="11.0370053"><ele>488.33333333333337</ele><time>2026-05-03T09:50:27.729Z</time></trkpt><trkpt lat="43.1126092" lon="11.0368557"><ele>486.66666666666663</ele><time>2026-05-03T09:50:28.745Z</time></trkpt><trkpt lat="43.1127352" lon="11.0367215"><ele>485.0</ele><time>2026-05-03T09:50:29.729Z</time></trkpt><trkpt lat="43.1087626" lon="11.036787"><ele>475.66666666666663</ele><time>2026-05-03T09:49:58.72Z</time></trkpt><trkpt lat="43.1087147" lon="11.0369869"><ele>466.33333333333337</ele><time>2026-05-03T09:49:59.733Z</time></trkpt><trkpt lat="43.1086997" lon="11.0372001"><ele>457.0</ele><time>2026-05-03T09:50:00.725Z</time></trkpt><trkpt lat="43.1087621" lon="11.0374149"><ele>455.0</ele><time>2026-05-03T09:50:01.73Z</time></trkpt><trkpt lat="43.1088522" lon="11.0375843"><ele>453.0</ele><time>2026-05-03T09:50:02.723Z</time></trkpt><trkpt lat="43.1089763" lon="11.0376766"><ele>451.0</ele><time>2026-05-03T09:50:03.716Z</time></trkpt><trkpt lat="43.1091311" lon="11.0377262"><ele>455.6666666666667</ele><time>2026-05-03T09:50:04.726Z</time></trkpt><trkpt lat="43.1093102" lon="11.0377677"><ele>460.33333333333337</ele><time>2026-05-03T09:50:05.719Z</time></trkpt><trkpt lat="43.1094854" lon="11.0378188"><ele>465.0</ele><time>2026-05-03T09:50:06.725Z</time></trkpt><trkpt lat="43.109665" lon="11.0378873"><ele>465.0</ele><time>2026-05-03T09:50:07.733Z</time></trkpt><trkpt lat="43.10983" lon="11.0379407"><ele>465.0</ele><time>2026-05-03T09:50:08.716Z</time></trkpt><trkpt lat="43.1099732" lon="11.0379708"><ele>465.0</ele><time>2026-05-03T09:50:09.725Z</time></trkpt><trkpt lat="43.1101296" lon="11.037944"><ele>468.0</ele><time>2026-05-03T09:50:10.726Z</time></trkpt><trkpt lat="43.110303" lon="11.0378943"><ele>471.0</ele><time>2026-05-03T09:50:11.726Z</time></trkpt><trkpt lat="43.1104763" lon="11.0378447"><ele>474.0</ele><time>2026-05-03T09:50:12.725Z</time></trkpt><trkpt lat="43.1106509" lon="11.0377972"><ele>475.0</ele><time>2026-05-03T09:50:13.734Z</time></trkpt><trkpt lat="43.1108248" lon="11.0377651"><ele>476.0</ele><time>2026-05-03T09:50:14.729Z</time></trkpt><trkpt lat="43.1109784" lon="11.0377492"><ele>477.0</ele><time>2026-05-03T09:50:15.738Z</time></trkpt><trkpt lat="43.1111185" lon="11.037741"><ele>477.0</ele><time>2026-05-03T09:50:16.723Z</time></trkpt><trkpt lat="43.1112522" lon="11.0377115"><ele>477.0</ele><time>2026-05-03T09:50:17.74Z</time></trkpt><trkpt lat="43.1113887" lon="11.0376391"><ele>477.0</ele><time>2026-05-03T09:50:18.733Z</time></trkpt><trkpt lat="43.1114997" lon="11.0375162"><ele>477.0</ele><time>2026-05-03T09:50:19.735Z</time></trkpt><trkpt lat="43.1115944" lon="11.0373922"><ele>480.25</ele><time>2026-05-03T09:50:20.721Z</time></trkpt><trkpt lat="43.1117021" lon="11.0373007"><ele>483.5</ele><time>2026-05-03T09:50:21.739Z</time></trkpt><trkpt lat="43.1118216" lon="11.0372445"><ele>486.75</ele><time>2026-05-03T09:50:22.725Z</time></trkpt><trkpt lat="43.1119485" lon="11.0372299"><ele>490.0</ele><time>2026-05-03T09:50:23.725Z</time></trkpt><trkpt lat="43.112089" lon="11.0372479"><ele>490.0</ele><time>2026-05-03T09:50:24.726Z</time></trkpt><trkpt lat="43.1122248" lon="11.0372179"><ele>490.0</ele><time>2026-05-03T09:50:25.727Z</time></trkpt><trkpt lat="43.1123631" lon="11.0371282"><ele>490.0</ele><time>2026-05-03T09:50:26.73Z</time></trkpt><trkpt lat="43.1124939" lon="11.0370053"><ele>490.0</ele><time>2026-05-03T09:50:27.729Z</time></trkpt><trkpt lat="43.1126092" lon="11.0368557"><ele>488.33333333333337</ele><time>2026-05-03T09:50:28.745Z</time></trkpt><trkpt lat="43.1127352" lon="11.0367215"><ele>486.66666666666663</ele><time>2026-05-03T09:50:29.729Z</time></trkpt><trkpt lat="43.1128705" lon="11.0366032"><ele>485.0</ele><time>2026-05-03T09:50:30.725Z</time></trkpt><trkpt lat="43.1129994" lon="11.0365065"><ele>486.0</ele><time>2026-05-03T09:50:31.727Z</time></trkpt><trkpt lat="43.1131006" lon="11.0364548"><ele>487.0</ele><time>2026-05-03T09:50:32.726Z</time></trkpt><trkpt lat="43.1131765" lon="11.0364984"><ele>488.0</ele><time>2026-05-03T09:50:33.738Z</time></trkpt><trkpt lat="43.1132272" lon="11.0366122"><ele>489.0</ele><time>2026-05-03T09:50:34.722Z</time></trkpt><trkpt lat="43.1132449" lon="11.0367834"><ele>490.0</ele><time>2026-05-03T09:50:35.716Z</time></trkpt><trkpt lat="43.113251" lon="11.0369966"><ele>490.0</ele><time>2026-05-03T09:50:36.724Z</time></trkpt><trkpt lat="43.1132449" lon="11.0372256"><ele>490.0</ele><time>2026-05-03T09:50:37.742Z</time></trkpt><trkpt lat="43.1132395" lon="11.03746"><ele>490.0</ele><time>2026-05-03T09:50:38.731Z</time></trkpt><trkpt lat="43.1132417" lon="11.0377067"><ele>483.33333333333337</ele><time>2026-05-03T09:50:39.73Z</time></trkpt><trkpt lat="43.1132298" lon="11.0379554"><ele>476.66666666666663</ele><time>2026-05-03T09:50:40.721Z</time></trkpt><trkpt lat="43.113206" lon="11.0381628"><ele>470.0</ele><time>2026-05-03T09:50:41.721Z</time></trkpt><trkpt lat="43.1131889" lon="11.03833"><ele>468.8</ele><time>2026-05-03T09:50:42.734Z</time></trkpt><trkpt lat="43.1131834" lon="11.0384585"><ele>467.6</ele><time>2026-05-03T09:50:43.72Z</time></trkpt><trkpt lat="43.1132302" lon="11.0385629"><ele>466.4</ele><time>2026-05-03T09:50:44.718Z</time></trkpt><trkpt lat="43.1133342" lon="11.0386295"><ele>465.2</ele><time>2026-05-03T09:50:45.724Z</time></trkpt><trkpt lat="43.1134475" lon="11.0386716"><ele>464.0</ele><time>2026-05-03T09:50:46.725Z</time></trkpt><trkpt lat="43.113545" lon="11.0387136"><ele>468.75</ele><time>2026-05-03T09:50:47.711Z</time></trkpt><trkpt lat="43.1135964" lon="11.0388184"><ele>473.5</ele><time>2026-05-03T09:50:48.721Z</time></trkpt><trkpt lat="43.1135661" lon="11.0389573"><ele>478.25</ele><time>2026-05-03T09:50:49.738Z</time></trkpt><trkpt lat="43.1135041" lon="11.0391079"><ele>483.0</ele><time>2026-05-03T09:50:50.724Z</time></trkpt><trkpt lat="43.1134429" lon="11.03928"><ele>483.0</ele><time>2026-05-03T09:50:51.726Z</time></trkpt><trkpt lat="43.1133873" lon="11.0394619"><ele>483.0</ele><time>2026-05-03T09:50:52.72Z</time></trkpt><trkpt lat="43.113352" lon="11.0396245"><ele>483.0</ele><time>2026-05-03T09:50:53.734Z</time></trkpt><trkpt lat="43.1133695" lon="11.0397488"><ele>483.0</ele><time>2026-05-03T09:50:54.728Z</time></trkpt><trkpt lat="43.1134348" lon="11.0398476"><ele>483.0</ele><time>2026-05-03T09:50:55.725Z</time></trkpt><trkpt lat="43.1135448" lon="11.039885"><ele>483.0</ele><time>2026-05-03T09:50:56.724Z</time></trkpt><trkpt lat="43.1136866" lon="11.0398705"><ele>483.0</ele><time>2026-05-03T09:50:57.741Z</time></trkpt><trkpt lat="43.113851" lon="11.0398092"><ele>483.0</ele><time>2026-05-03T09:50:58.74Z</time></trkpt><trkpt lat="43.1140215" lon="11.0397193"><ele>487.0</ele><time>2026-05-03T09:50:59.731Z</time></trkpt><trkpt lat="43.1142008" lon="11.0396201"><ele>491.0</ele><time>2026-05-03T09:51:00.729Z</time></trkpt><trkpt lat="43.1143923" lon="11.0395246"><ele>495.0</ele><time>2026-05-03T09:51:01.726Z</time></trkpt><trkpt lat="43.1145922" lon="11.0394309"><ele>495.0</ele><time>2026-05-03T09:51:02.73Z</time></trkpt><trkpt lat="43.1147988" lon="11.0393268"><ele>495.0</ele><time>2026-05-03T09:51:03.729Z</time></trkpt><trkpt lat="43.1150145" lon="11.0392086"><ele>502.5</ele><time>2026-05-03T09:51:04.738Z</time></trkpt><trkpt lat="43.1152265" lon="11.0390743"><ele>510.0</ele><time>2026-05-03T09:51:05.725Z</time></trkpt><trkpt lat="43.1154188" lon="11.0389285"><ele>510.0</ele><time>2026-05-03T09:51:06.739Z</time></trkpt><trkpt lat="43.1156032" lon="11.0388103"><ele>510.0</ele><time>2026-05-03T09:51:07.727Z</time></trkpt><trkpt lat="43.1157636" lon="11.0387044"><ele>510.0</ele><time>2026-05-03T09:51:08.738Z</time></trkpt><trkpt lat="43.1159058" lon="11.0386004"><ele>510.0</ele><time>2026-05-03T09:51:09.737Z</time></trkpt><trkpt lat="43.1160333" lon="11.0385127"><ele>510.0</ele><time>2026-05-03T09:51:10.73Z</time></trkpt><trkpt lat="43.1161567" lon="11.038457"><ele>510.0</ele><time>2026-05-03T09:51:11.725Z</time></trkpt><trkpt lat="43.1162928" lon="11.0384694"><ele>510.0</ele><time>2026-05-03T09:51:12.722Z</time></trkpt><trkpt lat="43.1164243" lon="11.038561"><ele>510.0</ele><time>2026-05-03T09:51:13.728Z</time></trkpt><trkpt lat="43.1165445" lon="11.0386781"><ele>510.0</ele><time>2026-05-03T09:51:14.732Z</time></trkpt><trkpt lat="43.116669" lon="11.0387504"><ele>510.0</ele><time>2026-05-03T09:51:15.734Z</time></trkpt><trkpt lat="43.1168095" lon="11.0387465"><ele>510.0</ele><time>2026-05-03T09:51:16.732Z</time></trkpt><trkpt lat="43.116917" lon="11.0386392"><ele>510.0</ele><time>2026-05-03T09:51:17.737Z</time></trkpt><trkpt lat="43.1170014" lon="11.0384869"><ele>510.0</ele><time>2026-05-03T09:51:18.732Z</time></trkpt><trkpt lat="43.1170503" lon="11.0383406"><ele>510.0</ele><time>2026-05-03T09:51:19.727Z</time></trkpt><trkpt lat="43.1170508" lon="11.0381978"><ele>510.0</ele><time>2026-05-03T09:51:20.724Z</time></trkpt><trkpt lat="43.1170241" lon="11.0381012"><ele>510.0</ele><time>2026-05-03T09:51:21.725Z</time></trkpt><trkpt lat="43.1169483" lon="11.0379888"><ele>514.0</ele><time>2026-05-03T09:51:22.718Z</time></trkpt><trkpt lat="43.116848" lon="11.0378692"><ele>518.0</ele><time>2026-05-03T09:51:23.729Z</time></trkpt><trkpt lat="43.1167113" lon="11.0377547"><ele>522.0</ele><time>2026-05-03T09:51:24.728Z</time></trkpt><trkpt lat="43.1165511" lon="11.0377078"><ele>523.3333333333334</ele><time>2026-05-03T09:51:25.726Z</time></trkpt><trkpt lat="43.1163785" lon="11.0377022"><ele>524.6666666666667</ele><time>2026-05-03T09:51:26.721Z</time></trkpt><trkpt lat="43.1162077" lon="11.0377716"><ele>526.0</ele><time>2026-05-03T09:51:27.723Z</time></trkpt><trkpt lat="43.1160314" lon="11.0378916"><ele>526.0</ele><time>2026-05-03T09:51:28.722Z</time></trkpt><trkpt lat="43.1158672" lon="11.0380069"><ele>526.0</ele><time>2026-05-03T09:51:29.734Z</time></trkpt><trkpt lat="43.1157136" lon="11.0381009"><ele>526.0</ele><time>2026-05-03T09:51:30.733Z</time></trkpt><trkpt lat="43.1155535" lon="11.0381468"><ele>524.75</ele><time>2026-05-03T09:51:31.731Z</time></trkpt><trkpt lat="43.1153991" lon="11.0381298"><ele>523.5</ele><time>2026-05-03T09:51:32.726Z</time></trkpt><trkpt lat="43.1152628" lon="11.0380949"><ele>522.25</ele><time>2026-05-03T09:51:33.736Z</time></trkpt><trkpt lat="43.1151548" lon="11.0380338"><ele>521.0</ele><time>2026-05-03T09:51:34.736Z</time></trkpt><trkpt lat="43.1150952" lon="11.037935"><ele>521.0</ele><time>2026-05-03T09:51:35.735Z</time></trkpt><trkpt lat="43.1150875" lon="11.0377823"><ele>521.0</ele><time>2026-05-03T09:51:36.722Z</time></trkpt><trkpt lat="43.1151181" lon="11.0376036"><ele>521.0</ele><time>2026-05-03T09:51:37.745Z</time></trkpt><trkpt lat="43.1151598" lon="11.0374302"><ele>521.0</ele><time>2026-05-03T09:51:38.734Z</time></trkpt><trkpt lat="43.1151769" lon="11.0372741"><ele>522.5</ele><time>2026-05-03T09:51:39.74Z</time></trkpt><trkpt lat="43.1151372" lon="11.0371256"><ele>524.0</ele><time>2026-05-03T09:51:40.724Z</time></trkpt><trkpt lat="43.115044" lon="11.0370151"><ele>525.5</ele><time>2026-05-03T09:51:41.736Z</time></trkpt><trkpt lat="43.1149192" lon="11.0369541"><ele>527.0</ele><time>2026-05-03T09:51:42.717Z</time></trkpt><trkpt lat="43.1148075" lon="11.0369214"><ele>523.8000000000001</ele><time>2026-05-03T09:51:43.738Z</time></trkpt><trkpt lat="43.114716" lon="11.036896"><ele>520.6</ele><time>2026-05-03T09:51:44.737Z</time></trkpt><trkpt lat="43.1146452" lon="11.0368373"><ele>517.4000000000001</ele><time>2026-05-03T09:51:45.727Z</time></trkpt><trkpt lat="43.1146235" lon="11.0367061"><ele>514.2</ele><time>2026-05-03T09:51:46.726Z</time></trkpt><trkpt lat="43.1146701" lon="11.0365582"><ele>511.0</ele><time>2026-05-03T09:51:47.731Z</time></trkpt><trkpt lat="43.1147478" lon="11.0364123"><ele>511.0</ele><time>2026-05-03T09:51:48.722Z</time></trkpt><trkpt lat="43.1148349" lon="11.0362362"><ele>511.0</ele><time>2026-05-03T09:51:49.743Z</time></trkpt><trkpt lat="43.1149156" lon="11.0360326"><ele>511.0</ele><time>2026-05-03T09:51:50.73Z</time></trkpt><trkpt lat="43.1149875" lon="11.0357969"><ele>517.3333333333334</ele><time>2026-05-03T09:51:51.735Z</time></trkpt><trkpt lat="43.1150466" lon="11.0355343"><ele>523.6666666666666</ele><time>2026-05-03T09:51:52.743Z</time></trkpt><trkpt lat="43.1150937" lon="11.035255"><ele>530.0</ele><time>2026-05-03T09:51:53.721Z</time></trkpt><trkpt lat="43.1151372" lon="11.0349819"><ele>532.75</ele><time>2026-05-03T09:51:54.726Z</time></trkpt><trkpt lat="43.1151685" lon="11.0347227"><ele>535.5</ele><time>2026-05-03T09:51:55.729Z</time></trkpt><trkpt lat="43.115194" lon="11.0345324"><ele>538.25</ele><time>2026-05-03T09:51:56.733Z</time></trkpt><trkpt lat="43.1152269" lon="11.0344099"><ele>541.0</ele><time>2026-05-03T09:51:57.74Z</time></trkpt><trkpt lat="43.1152993" lon="11.0343771"><ele>541.0</ele><time>2026-05-03T09:51:58.731Z</time></trkpt><trkpt lat="43.1153767" lon="11.0344373"><ele>541.0</ele><time>2026-05-03T09:51:59.739Z</time></trkpt><trkpt lat="43.1154464" lon="11.0345706"><ele>541.0</ele><time>2026-05-03T09:52:00.723Z</time></trkpt><trkpt lat="43.1154965" lon="11.0347433"><ele>541.0</ele><time>2026-05-03T09:52:01.735Z</time></trkpt><trkpt lat="43.1155493" lon="11.0349476"><ele>542.3333333333334</ele><time>2026-05-03T09:52:02.723Z</time></trkpt><trkpt lat="43.1156204" lon="11.0351627"><ele>543.6666666666666</ele><time>2026-05-03T09:52:03.734Z</time></trkpt><trkpt lat="43.1157047" lon="11.0353859"><ele>545.0</ele><time>2026-05-03T09:52:04.726Z</time></trkpt><trkpt lat="43.1157982" lon="11.0356123"><ele>544.3333333333333</ele><time>2026-05-03T09:52:05.719Z</time></trkpt><trkpt lat="43.1158862" lon="11.035834"><ele>543.6666666666666</ele><time>2026-05-03T09:52:06.732Z</time></trkpt><trkpt lat="43.1159668" lon="11.0360291"><ele>543.0</ele><time>2026-05-03T09:52:07.729Z</time></trkpt><trkpt lat="43.1160496" lon="11.0361729"><ele>543.0</ele><time>2026-05-03T09:52:08.734Z</time></trkpt><trkpt lat="43.1161559" lon="11.0362634"><ele>543.0</ele><time>2026-05-03T09:52:09.739Z</time></trkpt><trkpt lat="43.116294" lon="11.0363097"><ele>543.0</ele><time>2026-05-03T09:52:10.729Z</time></trkpt><trkpt lat="43.1164351" lon="11.0362952"><ele>543.0</ele><time>2026-05-03T09:52:11.731Z</time></trkpt><trkpt lat="43.116563" lon="11.0362198"><ele>544.75</ele><time>2026-05-03T09:52:12.731Z</time></trkpt><trkpt lat="43.1166748" lon="11.0360798"><ele>546.5</ele><time>2026-05-03T09:52:13.734Z</time></trkpt><trkpt lat="43.1167612" lon="11.03591"><ele>548.25</ele><time>2026-05-03T09:52:14.734Z</time></trkpt><trkpt lat="43.1168244" lon="11.0357307"><ele>550.0</ele><time>2026-05-03T09:52:15.743Z</time></trkpt><trkpt lat="43.11689" lon="11.0355712"><ele>552.25</ele><time>2026-05-03T09:52:16.73Z</time></trkpt><trkpt lat="43.1169871" lon="11.035456"><ele>554.5</ele><time>2026-05-03T09:52:17.743Z</time></trkpt><trkpt lat="43.1171124" lon="11.0353896"><ele>556.75</ele><time>2026-05-03T09:52:18.728Z</time></trkpt><trkpt lat="43.1172514" lon="11.0353312"><ele>559.0</ele><time>2026-05-03T09:52:19.735Z</time></trkpt><trkpt lat="43.11738" lon="11.0352167"><ele>558.0</ele><time>2026-05-03T09:52:20.747Z</time></trkpt><trkpt lat="43.1174997" lon="11.0350464"><ele>557.0</ele><time>2026-05-03T09:52:21.732Z</time></trkpt><trkpt lat="43.1176107" lon="11.034848"><ele>556.0</ele><time>2026-05-03T09:52:22.735Z</time></trkpt><trkpt lat="43.1177179" lon="11.0346397"><ele>560.0</ele><time>2026-05-03T09:52:23.73Z</time></trkpt><trkpt lat="43.1178167" lon="11.0344449"><ele>564.0</ele><time>2026-05-03T09:52:24.733Z</time></trkpt><trkpt lat="43.117915" lon="11.034285"><ele>568.0</ele><time>2026-05-03T09:52:25.744Z</time></trkpt><trkpt lat="43.1180143" lon="11.0341494"><ele>569.75</ele><time>2026-05-03T09:52:26.735Z</time></trkpt><trkpt lat="43.1181213" lon="11.0340245"><ele>571.5</ele><time>2026-05-03T09:52:27.741Z</time></trkpt><trkpt lat="43.118236" lon="11.0339031"><ele>573.25</ele><time>2026-05-03T09:52:28.74Z</time></trkpt><trkpt lat="43.1183593" lon="11.0338263"><ele>575.0</ele><time>2026-05-03T09:52:29.728Z</time></trkpt><trkpt lat="43.1184776" lon="11.0338174"><ele>575.0</ele><time>2026-05-03T09:52:30.724Z</time></trkpt><trkpt lat="43.1185932" lon="11.0338374"><ele>575.0</ele><time>2026-05-03T09:52:31.735Z</time></trkpt><trkpt lat="43.1186997" lon="11.0338435"><ele>575.0</ele><time>2026-05-03T09:52:32.731Z</time></trkpt><trkpt lat="43.1187951" lon="11.0338107"><ele>575.0</ele><time>2026-05-03T09:52:33.73Z</time></trkpt><trkpt lat="43.1188531" lon="11.0337225"><ele>575.0</ele><time>2026-05-03T09:52:34.727Z</time></trkpt><trkpt lat="43.1188514" lon="11.033576"><ele>575.0</ele><time>2026-05-03T09:52:35.726Z</time></trkpt><trkpt lat="43.1188169" lon="11.03344"><ele>575.0</ele><time>2026-05-03T09:52:36.729Z</time></trkpt><trkpt lat="43.1187699" lon="11.0333297"><ele>575.0</ele><time>2026-05-03T09:52:37.737Z</time></trkpt><trkpt lat="43.1187484" lon="11.0332273"><ele>575.0</ele><time>2026-05-03T09:52:38.721Z</time></trkpt><trkpt lat="43.1187639" lon="11.033121"><ele>575.0</ele><time>2026-05-03T09:52:39.723Z</time></trkpt><trkpt lat="43.1188207" lon="11.0330423"><ele>575.0</ele><time>2026-05-03T09:52:40.722Z</time></trkpt><trkpt lat="43.1189132" lon="11.033037"><ele>576.2</ele><time>2026-05-03T09:52:41.748Z</time></trkpt><trkpt lat="43.1190102" lon="11.0330701"><ele>577.4</ele><time>2026-05-03T09:52:42.73Z</time></trkpt><trkpt lat="43.1191028" lon="11.0331034"><ele>578.6</ele><time>2026-05-03T09:52:43.733Z</time></trkpt><trkpt lat="43.1191991" lon="11.0330861"><ele>579.8</ele><time>2026-05-03T09:52:44.722Z</time></trkpt><trkpt lat="43.1192765" lon="11.0329949"><ele>581.0</ele><time>2026-05-03T09:52:45.747Z</time></trkpt><trkpt lat="43.1193396" lon="11.0328601"><ele>581.0</ele><time>2026-05-03T09:52:46.73Z</time></trkpt><trkpt lat="43.1193992" lon="11.0327184"><ele>581.0</ele><time>2026-05-03T09:52:47.747Z</time></trkpt><trkpt lat="43.1194616" lon="11.0325946"><ele>581.0</ele><time>2026-05-03T09:52:48.735Z</time></trkpt><trkpt lat="43.1195296" lon="11.0324827"><ele>581.0</ele><time>2026-05-03T09:52:49.737Z</time></trkpt><trkpt lat="43.1195906" lon="11.0323679"><ele>581.0</ele><time>2026-05-03T09:52:50.719Z</time></trkpt><trkpt lat="43.11965" lon="11.0322616"><ele>583.2</ele><time>2026-05-03T09:52:51.735Z</time></trkpt><trkpt lat="43.1197191" lon="11.0321745"><ele>585.4000000000001</ele><time>2026-05-03T09:52:52.734Z</time></trkpt><trkpt lat="43.1198146" lon="11.0321322"><ele>587.6</ele><time>2026-05-03T09:52:53.737Z</time></trkpt><trkpt lat="43.1199316" lon="11.0321651"><ele>589.8000000000001</ele><time>2026-05-03T09:52:54.734Z</time></trkpt><trkpt lat="43.1200482" lon="11.0322218"><ele>592.0</ele><time>2026-05-03T09:52:55.739Z</time></trkpt><trkpt lat="43.1201708" lon="11.0322735"><ele>592.0</ele><time>2026-05-03T09:52:56.722Z</time></trkpt><trkpt lat="43.1203002" lon="11.0322858"><ele>592.0</ele><time>2026-05-03T09:52:57.728Z</time></trkpt><trkpt lat="43.1204149" lon="11.0322481"><ele>592.0</ele><time>2026-05-03T09:52:58.727Z</time></trkpt><trkpt lat="43.1205128" lon="11.0321524"><ele>592.0</ele><time>2026-05-03T09:52:59.738Z</time></trkpt><trkpt lat="43.1205863" lon="11.0320141"><ele>592.0</ele><time>2026-05-03T09:53:00.727Z</time></trkpt><trkpt lat="43.1206469" lon="11.0318647"><ele>592.0</ele><time>2026-05-03T09:53:01.725Z</time></trkpt><trkpt lat="43.1206937" lon="11.0317067"><ele>592.0</ele><time>2026-05-03T09:53:02.728Z</time></trkpt><trkpt lat="43.1207422" lon="11.0315547"><ele>592.0</ele><time>2026-05-03T09:53:03.734Z</time></trkpt><trkpt lat="43.1208115" lon="11.031417"><ele>596.5</ele><time>2026-05-03T09:53:04.729Z</time></trkpt><trkpt lat="43.1209056" lon="11.0313028"><ele>601.0</ele><time>2026-05-03T09:53:05.723Z</time></trkpt><trkpt lat="43.1210206" lon="11.0312357"><ele>605.5</ele><time>2026-05-03T09:53:06.727Z</time></trkpt><trkpt lat="43.1211617" lon="11.0312553"><ele>610.0</ele><time>2026-05-03T09:53:07.732Z</time></trkpt><trkpt lat="43.1212873" lon="11.031294"><ele>610.0</ele><time>2026-05-03T09:53:08.722Z</time></trkpt><trkpt lat="43.1214086" lon="11.0313579"><ele>610.0</ele><time>2026-05-03T09:53:09.732Z</time></trkpt><trkpt lat="43.1215359" lon="11.0314425"><ele>610.0</ele><time>2026-05-03T09:53:10.727Z</time></trkpt><trkpt lat="43.1216525" lon="11.0315266"><ele>610.0</ele><time>2026-05-03T09:53:11.741Z</time></trkpt><trkpt lat="43.1217648" lon="11.0316036"><ele>605.5</ele><time>2026-05-03T09:53:12.728Z</time></trkpt><trkpt lat="43.1218848" lon="11.0316835"><ele>601.0</ele><time>2026-05-03T09:53:13.738Z</time></trkpt><trkpt lat="43.1220127" lon="11.0317191"><ele>596.5</ele><time>2026-05-03T09:53:14.73Z</time></trkpt><trkpt lat="43.1221399" lon="11.0317125"><ele>592.0</ele><time>2026-05-03T09:53:15.726Z</time></trkpt><trkpt lat="43.1222653" lon="11.0317063"><ele>592.0</ele><time>2026-05-03T09:53:16.734Z</time></trkpt><trkpt lat="43.1223821" lon="11.0317084"><ele>592.0</ele><time>2026-05-03T09:53:17.734Z</time></trkpt><trkpt lat="43.1224956" lon="11.0317069"><ele>592.0</ele><time>2026-05-03T09:53:18.726Z</time></trkpt><trkpt lat="43.1226116" lon="11.0316747"><ele>592.0</ele><time>2026-05-03T09:53:19.741Z</time></trkpt><trkpt lat="43.1227153" lon="11.0316086"><ele>597.5</ele><time>2026-05-03T09:53:20.742Z</time></trkpt><trkpt lat="43.1228059" lon="11.031503"><ele>603.0</ele><time>2026-05-03T09:53:21.729Z</time></trkpt><trkpt lat="43.1228941" lon="11.0313758"><ele>608.5</ele><time>2026-05-03T09:53:22.73Z</time></trkpt><trkpt lat="43.122986" lon="11.0312597"><ele>614.0</ele><time>2026-05-03T09:53:23.724Z</time></trkpt><trkpt lat="43.1230913" lon="11.0312115"><ele>614.0</ele><time>2026-05-03T09:53:24.729Z</time></trkpt><trkpt lat="43.123215" lon="11.0312469"><ele>614.0</ele><time>2026-05-03T09:53:25.719Z</time></trkpt><trkpt lat="43.1233403" lon="11.0313127"><ele>614.0</ele><time>2026-05-03T09:53:26.738Z</time></trkpt><trkpt lat="43.1234579" lon="11.0313602"><ele>614.0</ele><time>2026-05-03T09:53:27.723Z</time></trkpt><trkpt lat="43.1235741" lon="11.0313518"><ele>613.5</ele><time>2026-05-03T09:53:28.724Z</time></trkpt><trkpt lat="43.1236708" lon="11.0312797"><ele>613.0</ele><time>2026-05-03T09:53:29.727Z</time></trkpt><trkpt lat="43.1237392" lon="11.0311483"><ele>612.5</ele><time>2026-05-03T09:53:30.726Z</time></trkpt><trkpt lat="43.123784" lon="11.0310041"><ele>612.0</ele><time>2026-05-03T09:53:31.734Z</time></trkpt><trkpt lat="43.1238063" lon="11.0308524"><ele>614.8000000000001</ele><time>2026-05-03T09:53:32.733Z</time></trkpt><trkpt lat="43.1238138" lon="11.0306992"><ele>617.6</ele><time>2026-05-03T09:53:33.746Z</time></trkpt><trkpt lat="43.1238077" lon="11.0305502"><ele>620.4000000000001</ele><time>2026-05-03T09:53:34.728Z</time></trkpt><trkpt lat="43.1238013" lon="11.0304267"><ele>623.2</ele><time>2026-05-03T09:53:35.74Z</time></trkpt><trkpt lat="43.1238025" lon="11.0303096"><ele>626.0</ele><time>2026-05-03T09:53:36.73Z</time></trkpt><trkpt lat="43.1238196" lon="11.0301829"><ele>626.0</ele><time>2026-05-03T09:53:37.73Z</time></trkpt><trkpt lat="43.123861" lon="11.0300523"><ele>626.0</ele><time>2026-05-03T09:53:38.729Z</time></trkpt><trkpt lat="43.1239224" lon="11.029926"><ele>626.0</ele><time>2026-05-03T09:53:39.732Z</time></trkpt><trkpt lat="43.1239935" lon="11.0298"><ele>626.0</ele><time>2026-05-03T09:53:40.745Z</time></trkpt><trkpt lat="43.1240493" lon="11.0296661"><ele>626.0</ele><time>2026-05-03T09:53:41.734Z</time></trkpt><trkpt lat="43.1240768" lon="11.0295221"><ele>622.25</ele><time>2026-05-03T09:53:42.723Z</time></trkpt><trkpt lat="43.1240821" lon="11.029366"><ele>618.5</ele><time>2026-05-03T09:53:43.728Z</time></trkpt><trkpt lat="43.1240642" lon="11.0291933"><ele>614.75</ele><time>2026-05-03T09:53:44.725Z</time></trkpt><trkpt lat="43.1240347" lon="11.0290063"><ele>611.0</ele><time>2026-05-03T09:53:45.727Z</time></trkpt><trkpt lat="43.1239981" lon="11.0288"><ele>626.6666666666666</ele><time>2026-05-03T09:53:46.728Z</time></trkpt><trkpt lat="43.1239535" lon="11.0285838"><ele>642.3333333333334</ele><time>2026-05-03T09:53:47.736Z</time></trkpt><trkpt lat="43.1239052" lon="11.0283757"><ele>658.0</ele><time>2026-05-03T09:53:48.726Z</time></trkpt><trkpt lat="43.1238851" lon="11.0281806"><ele>660.75</ele><time>2026-05-03T09:53:49.727Z</time></trkpt><trkpt lat="43.1238897" lon="11.0279846"><ele>663.5</ele><time>2026-05-03T09:53:50.724Z</time></trkpt><trkpt lat="43.1239193" lon="11.0278019"><ele>666.25</ele><time>2026-05-03T09:53:51.735Z</time></trkpt><trkpt lat="43.1239725" lon="11.0276294"><ele>669.0</ele><time>2026-05-03T09:53:52.722Z</time></trkpt><trkpt lat="43.1240509" lon="11.0274847"><ele>662.6666666666666</ele><time>2026-05-03T09:53:53.724Z</time></trkpt><trkpt lat="43.1241882" lon="11.0273799"><ele>656.3333333333333</ele><time>2026-05-03T09:53:54.719Z</time></trkpt><trkpt lat="43.1243964" lon="11.0273018"><ele>650.0</ele><time>2026-05-03T09:53:55.737Z</time></trkpt><trkpt lat="43.1245703" lon="11.0272186"><ele>650.0</ele><time>2026-05-03T09:53:56.729Z</time></trkpt><trkpt lat="43.124714" lon="11.027155"><ele>650.0</ele><time>2026-05-03T09:53:57.731Z</time></trkpt><trkpt lat="43.1247863" lon="11.0270234"><ele>650.0</ele><time>2026-05-03T09:53:58.736Z</time></trkpt><trkpt lat="43.1248072" lon="11.0268189"><ele>650.0</ele><time>2026-05-03T09:53:59.731Z</time></trkpt><trkpt lat="43.1248437" lon="11.0266221"><ele>645.5</ele><time>2026-05-03T09:54:00.731Z</time></trkpt><trkpt lat="43.1249141" lon="11.0264271"><ele>641.0</ele><time>2026-05-03T09:54:01.734Z</time></trkpt><trkpt lat="43.1250051" lon="11.0262717"><ele>636.5</ele><time>2026-05-03T09:54:02.729Z</time></trkpt><trkpt lat="43.1250864" lon="11.0261273"><ele>632.0</ele><time>2026-05-03T09:54:03.718Z</time></trkpt><trkpt lat="43.1251277" lon="11.0259732"><ele>633.3333333333333</ele><time>2026-05-03T09:54:04.729Z</time></trkpt><trkpt lat="43.125076" lon="11.0257804"><ele>634.6666666666666</ele><time>2026-05-03T09:54:05.726Z</time></trkpt><trkpt lat="43.1249981" lon="11.0256073"><ele>636.0</ele><time>2026-05-03T09:54:06.719Z</time></trkpt><trkpt lat="43.1248968" lon="11.0254372"><ele>643.75</ele><time>2026-05-03T09:54:07.724Z</time></trkpt><trkpt lat="43.124807" lon="11.0252618"><ele>651.5</ele><time>2026-05-03T09:54:08.726Z</time></trkpt><trkpt lat="43.1247386" lon="11.0250893"><ele>659.25</ele><time>2026-05-03T09:54:09.725Z</time></trkpt><trkpt lat="43.1246899" lon="11.0249405"><ele>667.0</ele><time>2026-05-03T09:54:10.718Z</time></trkpt><trkpt lat="43.1247041" lon="11.0248395"><ele>667.0</ele><time>2026-05-03T09:54:11.729Z</time></trkpt><trkpt lat="43.1247655" lon="11.0247726"><ele>667.0</ele><time>2026-05-03T09:54:12.725Z</time></trkpt><trkpt lat="43.1248954" lon="11.0247481"><ele>667.0</ele><time>2026-05-03T09:54:13.737Z</time></trkpt><trkpt lat="43.1250372" lon="11.0247441"><ele>667.0</ele><time>2026-05-03T09:54:14.723Z</time></trkpt><trkpt lat="43.1251682" lon="11.0247113"><ele>663.25</ele><time>2026-05-03T09:54:15.726Z</time></trkpt><trkpt lat="43.125265" lon="11.0245924"><ele>659.5</ele><time>2026-05-03T09:54:16.731Z</time></trkpt><trkpt lat="43.1253489" lon="11.0244206"><ele>655.75</ele><time>2026-05-03T09:54:17.733Z</time></trkpt><trkpt lat="43.125433" lon="11.0242668"><ele>652.0</ele><time>2026-05-03T09:54:18.721Z</time></trkpt><trkpt lat="43.1255433" lon="11.0241728"><ele>652.0</ele><time>2026-05-03T09:54:19.729Z</time></trkpt><trkpt lat="43.1256893" lon="11.0241787"><ele>652.0</ele><time>2026-05-03T09:54:20.726Z</time></trkpt><trkpt lat="43.1258547" lon="11.024237"><ele>652.0</ele><time>2026-05-03T09:54:21.726Z</time></trkpt><trkpt lat="43.1260433" lon="11.0242996"><ele>649.6666666666667</ele><time>2026-05-03T09:54:22.73Z</time></trkpt><trkpt lat="43.126241" lon="11.0243124"><ele>647.3333333333334</ele><time>2026-05-03T09:54:23.732Z</time></trkpt><trkpt lat="43.1264418" lon="11.0242539"><ele>645.0</ele><time>2026-05-03T09:54:24.755Z</time></trkpt><trkpt lat="43.126651" lon="11.02414"><ele>652.3333333333334</ele><time>2026-05-03T09:54:25.732Z</time></trkpt><trkpt lat="43.1268623" lon="11.0240091"><ele>659.6666666666667</ele><time>2026-05-03T09:54:26.723Z</time></trkpt><trkpt lat="43.1270453" lon="11.023903"><ele>667.0</ele><time>2026-05-03T09:54:27.732Z</time></trkpt><trkpt lat="43.1271834" lon="11.0238076"><ele>667.0</ele><time>2026-05-03T09:54:28.73Z</time></trkpt><trkpt lat="43.1273019" lon="11.0236942"><ele>667.0</ele><time>2026-05-03T09:54:29.728Z</time></trkpt><trkpt lat="43.1274093" lon="11.0235564"><ele>667.0</ele><time>2026-05-03T09:54:30.744Z</time></trkpt><trkpt lat="43.1275116" lon="11.0233844"><ele>665.3333333333334</ele><time>2026-05-03T09:54:31.73Z</time></trkpt><trkpt lat="43.1276084" lon="11.0231673"><ele>663.6666666666666</ele><time>2026-05-03T09:54:32.728Z</time></trkpt><trkpt lat="43.1276942" lon="11.0228487"><ele>662.0</ele><time>2026-05-03T09:54:33.736Z</time></trkpt><trkpt lat="43.1277158" lon="11.0224816"><ele>665.0</ele><time>2026-05-03T09:54:34.723Z</time></trkpt><trkpt lat="43.1277196" lon="11.0221562"><ele>668.0</ele><time>2026-05-03T09:54:35.733Z</time></trkpt><trkpt lat="43.1277436" lon="11.021935"><ele>671.0</ele><time>2026-05-03T09:54:36.719Z</time></trkpt><trkpt lat="43.127796" lon="11.0217374"><ele>676.3333333333333</ele><time>2026-05-03T09:54:37.725Z</time></trkpt><trkpt lat="43.1278859" lon="11.0215679"><ele>681.6666666666666</ele><time>2026-05-03T09:54:38.731Z</time></trkpt><trkpt lat="43.1279837" lon="11.0213823"><ele>687.0</ele><time>2026-05-03T09:54:39.733Z</time></trkpt><trkpt lat="43.1280871" lon="11.0211683"><ele>687.0</ele><time>2026-05-03T09:54:40.721Z</time></trkpt><trkpt lat="43.1281805" lon="11.0208891"><ele>687.0</ele><time>2026-05-03T09:54:41.736Z</time></trkpt><trkpt lat="43.1281922" lon="11.0205573"><ele>688.6666666666666</ele><time>2026-05-03T09:54:42.725Z</time></trkpt><trkpt lat="43.1281947" lon="11.0202509"><ele>690.3333333333333</ele><time>2026-05-03T09:54:43.739Z</time></trkpt><trkpt lat="43.1282129" lon="11.0200006"><ele>692.0</ele><time>2026-05-03T09:54:44.742Z</time></trkpt><trkpt lat="43.1282817" lon="11.0197754"><ele>692.0</ele><time>2026-05-03T09:54:45.73Z</time></trkpt><trkpt lat="43.12841" lon="11.0195671"><ele>692.0</ele><time>2026-05-03T09:54:46.731Z</time></trkpt><trkpt lat="43.1285528" lon="11.019388"><ele>692.0</ele><time>2026-05-03T09:54:47.736Z</time></trkpt><trkpt lat="43.1286948" lon="11.0192443"><ele>691.5</ele><time>2026-05-03T09:54:48.732Z</time></trkpt><trkpt lat="43.1288355" lon="11.0191381"><ele>691.0</ele><time>2026-05-03T09:54:49.718Z</time></trkpt><trkpt lat="43.1289624" lon="11.0190636"><ele>690.5</ele><time>2026-05-03T09:54:50.745Z</time></trkpt><trkpt lat="43.1290929" lon="11.0190336"><ele>690.0</ele><time>2026-05-03T09:54:51.742Z</time></trkpt><trkpt lat="43.1292226" lon="11.0190103"><ele>690.0</ele><time>2026-05-03T09:54:52.721Z</time></trkpt><trkpt lat="43.1293489" lon="11.0189642"><ele>690.0</ele><time>2026-05-03T09:54:53.726Z</time></trkpt><trkpt lat="43.1294647" lon="11.018878"><ele>690.0</ele><time>2026-05-03T09:54:54.736Z</time></trkpt><trkpt lat="43.1295453" lon="11.0187373"><ele>690.0</ele><time>2026-05-03T09:54:55.731Z</time></trkpt><trkpt lat="43.1296167" lon="11.01857"><ele>690.0</ele><time>2026-05-03T09:54:56.74Z</time></trkpt><trkpt lat="43.1296889" lon="11.0183999"><ele>690.0</ele><time>2026-05-03T09:54:57.719Z</time></trkpt><trkpt lat="43.1297694" lon="11.0182395"><ele>690.0</ele><time>2026-05-03T09:54:58.733Z</time></trkpt><trkpt lat="43.1298569" lon="11.0180964"><ele>690.0</ele><time>2026-05-03T09:54:59.734Z</time></trkpt><trkpt lat="43.1299514" lon="11.0179792"><ele>690.25</ele><time>2026-05-03T09:55:00.739Z</time></trkpt><trkpt lat="43.1300358" lon="11.0178659"><ele>690.5</ele><time>2026-05-03T09:55:01.729Z</time></trkpt><trkpt lat="43.1301019" lon="11.0177457"><ele>690.75</ele><time>2026-05-03T09:55:02.733Z</time></trkpt><trkpt lat="43.1301533" lon="11.0176003"><ele>691.0</ele><time>2026-05-03T09:55:03.732Z</time></trkpt><trkpt lat="43.130169" lon="11.0174299"><ele>691.0</ele><time>2026-05-03T09:55:04.721Z</time></trkpt><trkpt lat="43.1301794" lon="11.0172687"><ele>691.0</ele><time>2026-05-03T09:55:05.73Z</time></trkpt><trkpt lat="43.1301887" lon="11.0171283"><ele>691.0</ele><time>2026-05-03T09:55:06.731Z</time></trkpt><trkpt lat="43.1302007" lon="11.0170159"><ele>691.0</ele><time>2026-05-03T09:55:07.72Z</time></trkpt><trkpt lat="43.1302069" lon="11.0169222"><ele>691.0</ele><time>2026-05-03T09:55:08.739Z</time></trkpt><trkpt lat="43.1302175" lon="11.0168313"><ele>691.0</ele><time>2026-05-03T09:55:09.731Z</time></trkpt><trkpt lat="43.1302357" lon="11.0167373"><ele>692.6666666666667</ele><time>2026-05-03T09:55:10.736Z</time></trkpt><trkpt lat="43.1302598" lon="11.016635"><ele>694.3333333333334</ele><time>2026-05-03T09:55:11.727Z</time></trkpt><trkpt lat="43.1302915" lon="11.0165292"><ele>696.0</ele><time>2026-05-03T09:55:12.749Z</time></trkpt><trkpt lat="43.130319" lon="11.0164256"><ele>697.6666666666666</ele><time>2026-05-03T09:55:13.739Z</time></trkpt><trkpt lat="43.1303474" lon="11.0163411"><ele>699.3333333333333</ele><time>2026-05-03T09:55:14.736Z</time></trkpt><trkpt lat="43.1304059" lon="11.0162343"><ele>701.0</ele><time>2026-05-03T09:55:16.732Z</time></trkpt><trkpt lat="43.1304786" lon="11.0161859"><ele>701.0</ele><time>2026-05-03T09:55:18.729Z</time></trkpt><trkpt lat="43.1305607" lon="11.0161946"><ele>701.0</ele><time>2026-05-03T09:55:21.73Z</time></trkpt><trkpt lat="43.1306266" lon="11.0162301"><ele>701.0</ele><time>2026-05-03T09:55:23.735Z</time></trkpt><trkpt lat="43.1306942" lon="11.0162747"><ele>701.0</ele><time>2026-05-03T09:55:25.721Z</time></trkpt><trkpt lat="43.1307712" lon="11.0163577"><ele>701.0</ele><time>2026-05-03T09:55:27.73Z</time></trkpt><trkpt lat="43.1308497" lon="11.0164376"><ele>701.0</ele><time>2026-05-03T09:55:29.727Z</time></trkpt><trkpt lat="43.1309513" lon="11.0164965"><ele>699.8333333333333</ele><time>2026-05-03T09:55:31.72Z</time></trkpt><trkpt lat="43.131015" lon="11.016517"><ele>698.6666666666666</ele><time>2026-05-03T09:55:32.733Z</time></trkpt><trkpt lat="43.1310821" lon="11.0165404"><ele>697.5</ele><time>2026-05-03T09:55:33.732Z</time></trkpt><trkpt lat="43.1311501" lon="11.0165694"><ele>696.3333333333334</ele><time>2026-05-03T09:55:34.723Z</time></trkpt><trkpt lat="43.1312684" lon="11.0165701"><ele>695.1666666666667</ele><time>2026-05-03T09:55:36.706Z</time></trkpt><trkpt lat="43.1313846" lon="11.016526"><ele>694.0</ele><time>2026-05-03T09:55:38.715Z</time></trkpt><trkpt lat="43.1314482" lon="11.016485"><ele>694.0</ele><time>2026-05-03T09:55:39.715Z</time></trkpt><trkpt lat="43.1315378" lon="11.0164595"><ele>694.0</ele><time>2026-05-03T09:55:40.725Z</time></trkpt><trkpt lat="43.1316162" lon="11.0164053"><ele>694.0</ele><time>2026-05-03T09:55:41.72Z</time></trkpt><trkpt lat="43.1316896" lon="11.0163625"><ele>694.0</ele><time>2026-05-03T09:55:42.715Z</time></trkpt><trkpt lat="43.1317535" lon="11.0163137"><ele>694.0</ele><time>2026-05-03T09:55:43.722Z</time></trkpt><trkpt lat="43.1318189" lon="11.0162634"><ele>694.0</ele><time>2026-05-03T09:55:44.713Z</time></trkpt><trkpt lat="43.1319015" lon="11.0161477"><ele>694.0</ele><time>2026-05-03T09:55:46.723Z</time></trkpt><trkpt lat="43.1319777" lon="11.0160497"><ele>694.0</ele><time>2026-05-03T09:55:48.723Z</time></trkpt><trkpt lat="43.1320536" lon="11.0159401"><ele>694.0</ele><time>2026-05-03T09:55:50.723Z</time></trkpt><trkpt lat="43.1321274" lon="11.0158157"><ele>694.0</ele><time>2026-05-03T09:55:52.727Z</time></trkpt><trkpt lat="43.1321811" lon="11.0157548"><ele>694.0</ele><time>2026-05-03T09:55:53.731Z</time></trkpt><trkpt lat="43.1322453" lon="11.0157189"><ele>692.5</ele><time>2026-05-03T09:55:54.731Z</time></trkpt><trkpt lat="43.1323167" lon="11.01573"><ele>691.0</ele><time>2026-05-03T09:55:55.726Z</time></trkpt><trkpt lat="43.132387" lon="11.0157902"><ele>689.5</ele><time>2026-05-03T09:55:56.732Z</time></trkpt><trkpt lat="43.1324576" lon="11.0158753"><ele>688.0</ele><time>2026-05-03T09:55:57.73Z</time></trkpt><trkpt lat="43.1325271" lon="11.0159618"><ele>686.5</ele><time>2026-05-03T09:55:58.715Z</time></trkpt><trkpt lat="43.1325898" lon="11.0160545"><ele>685.0</ele><time>2026-05-03T09:55:59.737Z</time></trkpt><trkpt lat="43.1326523" lon="11.0161408"><ele>685.0</ele><time>2026-05-03T09:56:00.721Z</time></trkpt><trkpt lat="43.1327124" lon="11.0162106"><ele>685.0</ele><time>2026-05-03T09:56:01.742Z</time></trkpt><trkpt lat="43.1327688" lon="11.0162792"><ele>685.0</ele><time>2026-05-03T09:56:02.726Z</time></trkpt><trkpt lat="43.1328275" lon="11.0163493"><ele>685.0</ele><time>2026-05-03T09:56:03.729Z</time></trkpt><trkpt lat="43.1328871" lon="11.0164073"><ele>685.0</ele><time>2026-05-03T09:56:04.735Z</time></trkpt><trkpt lat="43.1329503" lon="11.0164398"><ele>685.0</ele><time>2026-05-03T09:56:05.727Z</time></trkpt><trkpt lat="43.1330291" lon="11.0164581"><ele>685.0</ele><time>2026-05-03T09:56:06.723Z</time></trkpt><trkpt lat="43.1331163" lon="11.0164361"><ele>685.0</ele><time>2026-05-03T09:56:07.727Z</time></trkpt><trkpt lat="43.1332074" lon="11.0163837"><ele>685.0</ele><time>2026-05-03T09:56:08.734Z</time></trkpt><trkpt lat="43.1333001" lon="11.0163254"><ele>685.0</ele><time>2026-05-03T09:56:09.73Z</time></trkpt><trkpt lat="43.1333948" lon="11.0162814"><ele>685.0</ele><time>2026-05-03T09:56:10.737Z</time></trkpt><trkpt lat="43.1335029" lon="11.0162767"><ele>685.6</ele><time>2026-05-03T09:56:11.733Z</time></trkpt><trkpt lat="43.1336108" lon="11.0163028"><ele>686.2</ele><time>2026-05-03T09:56:12.736Z</time></trkpt><trkpt lat="43.1337219" lon="11.0163466"><ele>686.8</ele><time>2026-05-03T09:56:13.737Z</time></trkpt><trkpt lat="43.133826" lon="11.0164043"><ele>687.4</ele><time>2026-05-03T09:56:14.72Z</time></trkpt><trkpt lat="43.1339175" lon="11.0164566"><ele>688.0</ele><time>2026-05-03T09:56:15.731Z</time></trkpt><trkpt lat="43.1339899" lon="11.0165093"><ele>688.0</ele><time>2026-05-03T09:56:16.731Z</time></trkpt><trkpt lat="43.1340536" lon="11.0165752"><ele>688.0</ele><time>2026-05-03T09:56:17.721Z</time></trkpt><trkpt lat="43.1341206" lon="11.0166599"><ele>688.0</ele><time>2026-05-03T09:56:18.732Z</time></trkpt><trkpt lat="43.1342033" lon="11.016728"><ele>688.0</ele><time>2026-05-03T09:56:19.734Z</time></trkpt><trkpt lat="43.1343152" lon="11.0167636"><ele>688.0</ele><time>2026-05-03T09:56:20.732Z</time></trkpt><trkpt lat="43.1344284" lon="11.0167658"><ele>685.5999999999999</ele><time>2026-05-03T09:56:21.728Z</time></trkpt><trkpt lat="43.1345384" lon="11.0167642"><ele>683.1999999999999</ele><time>2026-05-03T09:56:22.723Z</time></trkpt><trkpt lat="43.1346393" lon="11.0167642"><ele>680.8</ele><time>2026-05-03T09:56:23.729Z</time></trkpt><trkpt lat="43.1347297" lon="11.0167705"><ele>678.4</ele><time>2026-05-03T09:56:24.726Z</time></trkpt><trkpt lat="43.1348191" lon="11.0167699"><ele>676.0</ele><time>2026-05-03T09:56:25.735Z</time></trkpt><trkpt lat="43.134904" lon="11.0167652"><ele>676.0</ele><time>2026-05-03T09:56:26.72Z</time></trkpt><trkpt lat="43.1349907" lon="11.0167679"><ele>676.0</ele><time>2026-05-03T09:56:27.747Z</time></trkpt><trkpt lat="43.1350773" lon="11.0167996"><ele>676.0</ele><time>2026-05-03T09:56:28.735Z</time></trkpt><trkpt lat="43.1351589" lon="11.0168655"><ele>676.0</ele><time>2026-05-03T09:56:29.738Z</time></trkpt><trkpt lat="43.1352278" lon="11.0169885"><ele>676.0</ele><time>2026-05-03T09:56:30.735Z</time></trkpt><trkpt lat="43.1352819" lon="11.0171517"><ele>676.0</ele><time>2026-05-03T09:56:31.724Z</time></trkpt><trkpt lat="43.1353202" lon="11.017336"><ele>676.0</ele><time>2026-05-03T09:56:32.739Z</time></trkpt><trkpt lat="43.1353618" lon="11.0175014"><ele>676.0</ele><time>2026-05-03T09:56:33.736Z</time></trkpt><trkpt lat="43.1354099" lon="11.017647"><ele>676.0</ele><time>2026-05-03T09:56:34.721Z</time></trkpt><trkpt lat="43.1354556" lon="11.0177739"><ele>675.5</ele><time>2026-05-03T09:56:35.732Z</time></trkpt><trkpt lat="43.1354979" lon="11.0178842"><ele>675.0</ele><time>2026-05-03T09:56:36.735Z</time></trkpt><trkpt lat="43.1355535" lon="11.0179853"><ele>674.5</ele><time>2026-05-03T09:56:37.729Z</time></trkpt><trkpt lat="43.1356125" lon="11.0180725"><ele>674.0</ele><time>2026-05-03T09:56:38.728Z</time></trkpt><trkpt lat="43.1356758" lon="11.0181452"><ele>673.5</ele><time>2026-05-03T09:56:39.728Z</time></trkpt><trkpt lat="43.1357463" lon="11.0182118"><ele>673.0</ele><time>2026-05-03T09:56:40.731Z</time></trkpt><trkpt lat="43.135828" lon="11.0182824"><ele>674.0</ele><time>2026-05-03T09:56:41.737Z</time></trkpt><trkpt lat="43.1359069" lon="11.0183718"><ele>675.0</ele><time>2026-05-03T09:56:42.729Z</time></trkpt><trkpt lat="43.1359818" lon="11.018488"><ele>676.0</ele><time>2026-05-03T09:56:43.735Z</time></trkpt><trkpt lat="43.1360374" lon="11.0186282"><ele>677.0</ele><time>2026-05-03T09:56:44.732Z</time></trkpt><trkpt lat="43.1360672" lon="11.0187909"><ele>677.0</ele><time>2026-05-03T09:56:45.734Z</time></trkpt><trkpt lat="43.1360698" lon="11.0189559"><ele>677.0</ele><time>2026-05-03T09:56:46.732Z</time></trkpt><trkpt lat="43.1360636" lon="11.0191165"><ele>677.0</ele><time>2026-05-03T09:56:47.737Z</time></trkpt><trkpt lat="43.136053" lon="11.0192697"><ele>677.0</ele><time>2026-05-03T09:56:48.732Z</time></trkpt><trkpt lat="43.1360421" lon="11.0194052"><ele>676.0</ele><time>2026-05-03T09:56:49.722Z</time></trkpt><trkpt lat="43.1360414" lon="11.0195362"><ele>675.0</ele><time>2026-05-03T09:56:50.724Z</time></trkpt><trkpt lat="43.1360593" lon="11.0196733"><ele>674.0</ele><time>2026-05-03T09:56:51.717Z</time></trkpt><trkpt lat="43.1361059" lon="11.0198029"><ele>673.0</ele><time>2026-05-03T09:56:52.728Z</time></trkpt><trkpt lat="43.1361765" lon="11.019896"><ele>672.0</ele><time>2026-05-03T09:56:53.728Z</time></trkpt><trkpt lat="43.1362646" lon="11.0199564"><ele>672.0</ele><time>2026-05-03T09:56:54.732Z</time></trkpt><trkpt lat="43.1363619" lon="11.0199542"><ele>672.0</ele><time>2026-05-03T09:56:55.721Z</time></trkpt><trkpt lat="43.1364741" lon="11.0199215"><ele>672.0</ele><time>2026-05-03T09:56:56.737Z</time></trkpt><trkpt lat="43.1366018" lon="11.0198691"><ele>672.0</ele><time>2026-05-03T09:56:57.734Z</time></trkpt><trkpt lat="43.1367444" lon="11.0198058"><ele>678.3333333333334</ele><time>2026-05-03T09:56:58.727Z</time></trkpt><trkpt lat="43.136914" lon="11.0197204"><ele>684.6666666666667</ele><time>2026-05-03T09:56:59.735Z</time></trkpt><trkpt lat="43.1370907" lon="11.0196241"><ele>691.0</ele><time>2026-05-03T09:57:00.741Z</time></trkpt><trkpt lat="43.1372511" lon="11.0195199"><ele>688.3333333333334</ele><time>2026-05-03T09:57:01.731Z</time></trkpt><trkpt lat="43.1374008" lon="11.0194325"><ele>685.6666666666666</ele><time>2026-05-03T09:57:02.73Z</time></trkpt><trkpt lat="43.1375482" lon="11.019385"><ele>683.0</ele><time>2026-05-03T09:57:03.737Z</time></trkpt><trkpt lat="43.1376923" lon="11.0193844"><ele>683.0</ele><time>2026-05-03T09:57:04.726Z</time></trkpt><trkpt lat="43.137818" lon="11.0194547"><ele>683.0</ele><time>2026-05-03T09:57:05.727Z</time></trkpt><trkpt lat="43.1379106" lon="11.0195989"><ele>683.0</ele><time>2026-05-03T09:57:06.719Z</time></trkpt><trkpt lat="43.1379802" lon="11.0197981"><ele>683.0</ele><time>2026-05-03T09:57:07.745Z</time></trkpt><trkpt lat="43.1380565" lon="11.0200034"><ele>684.3333333333333</ele><time>2026-05-03T09:57:08.73Z</time></trkpt><trkpt lat="43.1381685" lon="11.0201881"><ele>685.6666666666666</ele><time>2026-05-03T09:57:09.725Z</time></trkpt><trkpt lat="43.1383067" lon="11.020343"><ele>687.0</ele><time>2026-05-03T09:57:10.721Z</time></trkpt><trkpt lat="43.1384553" lon="11.0204593"><ele>687.0</ele><time>2026-05-03T09:57:11.739Z</time></trkpt><trkpt lat="43.1386193" lon="11.0205168"><ele>687.0</ele><time>2026-05-03T09:57:12.726Z</time></trkpt><trkpt lat="43.1387857" lon="11.0205255"><ele>687.0</ele><time>2026-05-03T09:57:13.736Z</time></trkpt><trkpt lat="43.1389364" lon="11.0205617"><ele>688.0</ele><time>2026-05-03T09:57:14.73Z</time></trkpt><trkpt lat="43.1390685" lon="11.0206813"><ele>689.0</ele><time>2026-05-03T09:57:15.727Z</time></trkpt><trkpt lat="43.1391956" lon="11.0208605"><ele>690.0</ele><time>2026-05-03T09:57:16.729Z</time></trkpt><trkpt lat="43.1393543" lon="11.0210418"><ele>683.5</ele><time>2026-05-03T09:57:17.732Z</time></trkpt><trkpt lat="43.1395442" lon="11.021198"><ele>677.0</ele><time>2026-05-03T09:57:18.742Z</time></trkpt><trkpt lat="43.1397494" lon="11.0213413"><ele>682.0</ele><time>2026-05-03T09:57:19.723Z</time></trkpt><trkpt lat="43.1399585" lon="11.021478"><ele>687.0</ele><time>2026-05-03T09:57:20.73Z</time></trkpt><trkpt lat="43.1401501" lon="11.0216257"><ele>684.3333333333334</ele><time>2026-05-03T09:57:21.722Z</time></trkpt><trkpt lat="43.1403204" lon="11.0218207"><ele>681.6666666666667</ele><time>2026-05-03T09:57:22.728Z</time></trkpt><trkpt lat="43.1404616" lon="11.0220452"><ele>679.0</ele><time>2026-05-03T09:57:23.732Z</time></trkpt><trkpt lat="43.1405751" lon="11.022252"><ele>679.0</ele><time>2026-05-03T09:57:24.737Z</time></trkpt><trkpt lat="43.140647" lon="11.0223955"><ele>679.0</ele><time>2026-05-03T09:57:25.726Z</time></trkpt><trkpt lat="43.1406684" lon="11.02251"><ele>679.0</ele><time>2026-05-03T09:57:27.73Z</time></trkpt><trkpt lat="43.1405789" lon="11.022567"><ele>679.0</ele><time>2026-05-03T09:57:29.734Z</time></trkpt><trkpt lat="43.1405128" lon="11.0226588"><ele>679.0</ele><time>2026-05-03T09:57:30.717Z</time></trkpt><trkpt lat="43.1404509" lon="11.02277"><ele>677.0</ele><time>2026-05-03T09:57:31.723Z</time></trkpt><trkpt lat="43.1404007" lon="11.0228979"><ele>675.0</ele><time>2026-05-03T09:57:32.722Z</time></trkpt><trkpt lat="43.140376" lon="11.0230448"><ele>673.0</ele><time>2026-05-03T09:57:33.728Z</time></trkpt><trkpt lat="43.1403892" lon="11.0232071"><ele>671.0</ele><time>2026-05-03T09:57:34.735Z</time></trkpt><trkpt lat="43.1404294" lon="11.0233636"><ele>670.25</ele><time>2026-05-03T09:57:35.723Z</time></trkpt><trkpt lat="43.1404925" lon="11.0235131"><ele>669.5</ele><time>2026-05-03T09:57:36.718Z</time></trkpt><trkpt lat="43.1405663" lon="11.0236475"><ele>668.75</ele><time>2026-05-03T09:57:37.728Z</time></trkpt><trkpt lat="43.1406382" lon="11.023776"><ele>668.0</ele><time>2026-05-03T09:57:38.722Z</time></trkpt><trkpt lat="43.1407059" lon="11.0239006"><ele>667.5</ele><time>2026-05-03T09:57:39.73Z</time></trkpt><trkpt lat="43.1407499" lon="11.0240168"><ele>667.0</ele><time>2026-05-03T09:57:40.714Z</time></trkpt><trkpt lat="43.140765" lon="11.0241375"><ele>666.5</ele><time>2026-05-03T09:57:41.726Z</time></trkpt><trkpt lat="43.1407485" lon="11.0242562"><ele>666.0</ele><time>2026-05-03T09:57:42.728Z</time></trkpt><trkpt lat="43.1406987" lon="11.0243568"><ele>665.5</ele><time>2026-05-03T09:57:43.731Z</time></trkpt><trkpt lat="43.1406391" lon="11.0244351"><ele>665.0</ele><time>2026-05-03T09:57:44.726Z</time></trkpt><trkpt lat="43.1405739" lon="11.0244987"><ele>665.0</ele><time>2026-05-03T09:57:45.728Z</time></trkpt><trkpt lat="43.1405146" lon="11.0245585"><ele>665.0</ele><time>2026-05-03T09:57:46.729Z</time></trkpt><trkpt lat="43.1404615" lon="11.0246207"><ele>665.0</ele><time>2026-05-03T09:57:47.724Z</time></trkpt><trkpt lat="43.1403684" lon="11.0247204"><ele>665.0</ele><time>2026-05-03T09:57:49.727Z</time></trkpt><trkpt lat="43.1403126" lon="11.0247723"><ele>665.0</ele><time>2026-05-03T09:58:02.719Z</time></trkpt><trkpt lat="43.140234" lon="11.0248718"><ele>665.0</ele><time>2026-05-03T09:58:04.721Z</time></trkpt><trkpt lat="43.1401662" lon="11.0249721"><ele>666.0</ele><time>2026-05-03T09:58:05.733Z</time></trkpt><trkpt lat="43.1400684" lon="11.0250886"><ele>667.0</ele><time>2026-05-03T09:58:06.719Z</time></trkpt><trkpt lat="43.1399525" lon="11.025228"><ele>668.0</ele><time>2026-05-03T09:58:07.73Z</time></trkpt><trkpt lat="43.1398277" lon="11.0253683"><ele>669.0</ele><time>2026-05-03T09:58:08.732Z</time></trkpt><trkpt lat="43.1397089" lon="11.0255049"><ele>665.25</ele><time>2026-05-03T09:58:09.728Z</time></trkpt><trkpt lat="43.1396035" lon="11.025633"><ele>661.5</ele><time>2026-05-03T09:58:10.727Z</time></trkpt><trkpt lat="43.1395215" lon="11.025745"><ele>657.75</ele><time>2026-05-03T09:58:11.727Z</time></trkpt><trkpt lat="43.1394472" lon="11.0258655"><ele>654.0</ele><time>2026-05-03T09:58:12.734Z</time></trkpt><trkpt lat="43.1393758" lon="11.0260272"><ele>654.0</ele><time>2026-05-03T09:58:13.736Z</time></trkpt><trkpt lat="43.1392991" lon="11.0262395"><ele>654.0</ele><time>2026-05-03T09:58:14.733Z</time></trkpt><trkpt lat="43.1392115" lon="11.0264837"><ele>654.0</ele><time>2026-05-03T09:58:15.731Z</time></trkpt><trkpt lat="43.1391143" lon="11.0267268"><ele>647.6666666666666</ele><time>2026-05-03T09:58:16.74Z</time></trkpt><trkpt lat="43.1390061" lon="11.0269674"><ele>641.3333333333333</ele><time>2026-05-03T09:58:17.727Z</time></trkpt><trkpt lat="43.1389085" lon="11.0271999"><ele>635.0</ele><time>2026-05-03T09:58:18.729Z</time></trkpt><trkpt lat="43.1388228" lon="11.0274205"><ele>636.3333333333333</ele><time>2026-05-03T09:58:19.731Z</time></trkpt><trkpt lat="43.1387529" lon="11.0276365"><ele>637.6666666666666</ele><time>2026-05-03T09:58:20.731Z</time></trkpt><trkpt lat="43.1387098" lon="11.0278507"><ele>639.0</ele><time>2026-05-03T09:58:21.734Z</time></trkpt><trkpt lat="43.1386989" lon="11.0280706"><ele>639.0</ele><time>2026-05-03T09:58:22.722Z</time></trkpt><trkpt lat="43.1386893" lon="11.028282"><ele>639.0</ele><time>2026-05-03T09:58:23.733Z</time></trkpt><trkpt lat="43.1386826" lon="11.0284928"><ele>639.0</ele><time>2026-05-03T09:58:24.739Z</time></trkpt><trkpt lat="43.1386595" lon="11.0286943"><ele>638.75</ele><time>2026-05-03T09:58:25.736Z</time></trkpt><trkpt lat="43.1386171" lon="11.0288851"><ele>638.5</ele><time>2026-05-03T09:58:26.731Z</time></trkpt><trkpt lat="43.138541" lon="11.0290557"><ele>638.25</ele><time>2026-05-03T09:58:27.721Z</time></trkpt><trkpt lat="43.1384321" lon="11.0291995"><ele>638.0</ele><time>2026-05-03T09:58:28.725Z</time></trkpt><trkpt lat="43.1383236" lon="11.0293271"><ele>634.0</ele><time>2026-05-03T09:58:29.731Z</time></trkpt><trkpt lat="43.1382071" lon="11.0294523"><ele>630.0</ele><time>2026-05-03T09:58:30.722Z</time></trkpt><trkpt lat="43.1380834" lon="11.0295825"><ele>626.0</ele><time>2026-05-03T09:58:31.737Z</time></trkpt><trkpt lat="43.137965" lon="11.0297125"><ele>626.0</ele><time>2026-05-03T09:58:32.72Z</time></trkpt><trkpt lat="43.1378496" lon="11.0298214"><ele>626.0</ele><time>2026-05-03T09:58:33.735Z</time></trkpt><trkpt lat="43.1377407" lon="11.0299367"><ele>626.0</ele><time>2026-05-03T09:58:34.737Z</time></trkpt><trkpt lat="43.1376362" lon="11.0300567"><ele>626.0</ele><time>2026-05-03T09:58:35.728Z</time></trkpt><trkpt lat="43.1375526" lon="11.0301871"><ele>627.2</ele><time>2026-05-03T09:58:36.726Z</time></trkpt><trkpt lat="43.1374989" lon="11.0303308"><ele>628.4000000000001</ele><time>2026-05-03T09:58:37.729Z</time></trkpt><trkpt lat="43.1374937" lon="11.0304634"><ele>629.6</ele><time>2026-05-03T09:58:38.726Z</time></trkpt><trkpt lat="43.1375382" lon="11.0305743"><ele>630.8000000000001</ele><time>2026-05-03T09:58:39.734Z</time></trkpt><trkpt lat="43.1376122" lon="11.0306547"><ele>632.0</ele><time>2026-05-03T09:58:40.732Z</time></trkpt><trkpt lat="43.1377142" lon="11.0306914"><ele>632.0</ele><time>2026-05-03T09:58:41.73Z</time></trkpt><trkpt lat="43.1378325" lon="11.0307076"><ele>632.0</ele><time>2026-05-03T09:58:42.724Z</time></trkpt><trkpt lat="43.1379224" lon="11.0307252"><ele>632.0</ele><time>2026-05-03T09:58:43.712Z</time></trkpt><trkpt lat="43.1379716" lon="11.0308162"><ele>632.0</ele><time>2026-05-03T09:58:44.716Z</time></trkpt><trkpt lat="43.1380011" lon="11.0309576"><ele>632.0</ele><time>2026-05-03T09:58:45.73Z</time></trkpt><trkpt lat="43.1380038" lon="11.0311265"><ele>632.25</ele><time>2026-05-03T09:58:46.727Z</time></trkpt><trkpt lat="43.1379844" lon="11.0312791"><ele>632.5</ele><time>2026-05-03T09:58:47.718Z</time></trkpt><trkpt lat="43.1379015" lon="11.0314076"><ele>632.75</ele><time>2026-05-03T09:58:48.721Z</time></trkpt><trkpt lat="43.1377744" lon="11.0314942"><ele>633.0</ele><time>2026-05-03T09:58:49.718Z</time></trkpt><trkpt lat="43.1376186" lon="11.0315516"><ele>632.5</ele><time>2026-05-03T09:58:50.727Z</time></trkpt><trkpt lat="43.1374743" lon="11.0316435"><ele>632.0</ele><time>2026-05-03T09:58:51.728Z</time></trkpt><trkpt lat="43.1373648" lon="11.0317647"><ele>631.5</ele><time>2026-05-03T09:58:52.732Z</time></trkpt><trkpt lat="43.1373019" lon="11.0319273"><ele>631.0</ele><time>2026-05-03T09:58:53.729Z</time></trkpt><trkpt lat="43.137257" lon="11.0321544"><ele>622.3333333333334</ele><time>2026-05-03T09:58:54.719Z</time></trkpt><trkpt lat="43.137222" lon="11.0324067"><ele>613.6666666666666</ele><time>2026-05-03T09:58:55.72Z</time></trkpt><trkpt lat="43.1372064" lon="11.0326687"><ele>605.0</ele><time>2026-05-03T09:58:56.731Z</time></trkpt><trkpt lat="43.1371923" lon="11.0329028"><ele>604.6666666666666</ele><time>2026-05-03T09:58:57.728Z</time></trkpt><trkpt lat="43.1372403" lon="11.0331391"><ele>604.3333333333334</ele><time>2026-05-03T09:58:58.71Z</time></trkpt><trkpt lat="43.137346" lon="11.0333608"><ele>604.0</ele><time>2026-05-03T09:58:59.718Z</time></trkpt><trkpt lat="43.137453" lon="11.0335738"><ele>609.0</ele><time>2026-05-03T09:59:00.725Z</time></trkpt><trkpt lat="43.1375365" lon="11.0338264"><ele>614.0</ele><time>2026-05-03T09:59:01.715Z</time></trkpt><trkpt lat="43.1375655" lon="11.0341153"><ele>619.0</ele><time>2026-05-03T09:59:02.723Z</time></trkpt><trkpt lat="43.1375856" lon="11.0343865"><ele>619.0</ele><time>2026-05-03T09:59:03.722Z</time></trkpt><trkpt lat="43.1375948" lon="11.0346169"><ele>619.0</ele><time>2026-05-03T09:59:04.724Z</time></trkpt><trkpt lat="43.1376173" lon="11.034793"><ele>619.0</ele><time>2026-05-03T09:59:05.722Z</time></trkpt><trkpt lat="43.1376696" lon="11.0349566"><ele>619.0</ele><time>2026-05-03T09:59:06.731Z</time></trkpt><trkpt lat="43.1377487" lon="11.0351222"><ele>616.0</ele><time>2026-05-03T09:59:07.719Z</time></trkpt><trkpt lat="43.1378649" lon="11.0353364"><ele>613.0</ele><time>2026-05-03T09:59:08.723Z</time></trkpt><trkpt lat="43.1379524" lon="11.0355757"><ele>610.0</ele><time>2026-05-03T09:59:09.731Z</time></trkpt><trkpt lat="43.1380085" lon="11.0358234"><ele>608.0</ele><time>2026-05-03T09:59:10.736Z</time></trkpt><trkpt lat="43.1380446" lon="11.0360635"><ele>606.0</ele><time>2026-05-03T09:59:11.729Z</time></trkpt><trkpt lat="43.1380486" lon="11.0363094"><ele>604.0</ele><time>2026-05-03T09:59:12.722Z</time></trkpt><trkpt lat="43.1379956" lon="11.0365446"><ele>603.0</ele><time>2026-05-03T09:59:13.728Z</time></trkpt><trkpt lat="43.1379561" lon="11.0368108"><ele>602.0</ele><time>2026-05-03T09:59:14.724Z</time></trkpt><trkpt lat="43.1379199" lon="11.037083"><ele>601.0</ele><time>2026-05-03T09:59:15.727Z</time></trkpt><trkpt lat="43.137892" lon="11.0373458"><ele>600.0</ele><time>2026-05-03T09:59:16.732Z</time></trkpt><trkpt lat="43.1378397" lon="11.0375711"><ele>599.0</ele><time>2026-05-03T09:59:17.734Z</time></trkpt><trkpt lat="43.1377313" lon="11.0377643"><ele>598.0</ele><time>2026-05-03T09:59:18.723Z</time></trkpt><trkpt lat="43.1376068" lon="11.0379387"><ele>598.0</ele><time>2026-05-03T09:59:19.721Z</time></trkpt><trkpt lat="43.1374909" lon="11.0381161"><ele>598.0</ele><time>2026-05-03T09:59:20.731Z</time></trkpt><trkpt lat="43.1374144" lon="11.0383585"><ele>598.0</ele><time>2026-05-03T09:59:21.74Z</time></trkpt><trkpt lat="43.1373659" lon="11.0386618"><ele>592.3333333333334</ele><time>2026-05-03T09:59:22.727Z</time></trkpt><trkpt lat="43.137313" lon="11.0389609"><ele>586.6666666666666</ele><time>2026-05-03T09:59:23.729Z</time></trkpt><trkpt lat="43.1372503" lon="11.0392106"><ele>581.0</ele><time>2026-05-03T09:59:24.732Z</time></trkpt><trkpt lat="43.1371912" lon="11.0394694"><ele>581.0</ele><time>2026-05-03T09:59:25.728Z</time></trkpt><trkpt lat="43.1371425" lon="11.0397506"><ele>581.0</ele><time>2026-05-03T09:59:26.72Z</time></trkpt><trkpt lat="43.1371377" lon="11.0400979"><ele>581.5</ele><time>2026-05-03T09:59:27.735Z</time></trkpt><trkpt lat="43.1371448" lon="11.0404653"><ele>582.0</ele><time>2026-05-03T09:59:28.723Z</time></trkpt><trkpt lat="43.1371374" lon="11.040824"><ele>582.5</ele><time>2026-05-03T09:59:29.728Z</time></trkpt><trkpt lat="43.1371304" lon="11.0412153"><ele>583.0</ele><time>2026-05-03T09:59:30.714Z</time></trkpt><trkpt lat="43.1371033" lon="11.0416165"><ele>584.5</ele><time>2026-05-03T09:59:31.735Z</time></trkpt><trkpt lat="43.1370771" lon="11.041966"><ele>586.0</ele><time>2026-05-03T09:59:32.725Z</time></trkpt><trkpt lat="43.1370462" lon="11.042274"><ele>586.0</ele><time>2026-05-03T09:59:33.728Z</time></trkpt><trkpt lat="43.1370182" lon="11.0425228"><ele>586.0</ele><time>2026-05-03T09:59:34.706Z</time></trkpt><trkpt lat="43.1369816" lon="11.0427507"><ele>586.0</ele><time>2026-05-03T09:59:35.721Z</time></trkpt><trkpt lat="43.1369208" lon="11.0429748"><ele>586.0</ele><time>2026-05-03T09:59:36.721Z</time></trkpt><trkpt lat="43.1368155" lon="11.0432281"><ele>586.0</ele><time>2026-05-03T09:59:37.726Z</time></trkpt><trkpt lat="43.1366472" lon="11.0435013"><ele>578.5</ele><time>2026-05-03T09:59:38.725Z</time></trkpt><trkpt lat="43.1364746" lon="11.0437833"><ele>571.0</ele><time>2026-05-03T09:59:39.731Z</time></trkpt><trkpt lat="43.136323" lon="11.0440247"><ele>572.0</ele><time>2026-05-03T09:59:40.723Z</time></trkpt><trkpt lat="43.1362183" lon="11.0442115"><ele>573.0</ele><time>2026-05-03T09:59:41.725Z</time></trkpt><trkpt lat="43.136161" lon="11.04439"><ele>574.0</ele><time>2026-05-03T09:59:42.721Z</time></trkpt><trkpt lat="43.1361193" lon="11.0445653"><ele>575.0</ele><time>2026-05-03T09:59:43.73Z</time></trkpt><trkpt lat="43.1361089" lon="11.0447559"><ele>573.6666666666666</ele><time>2026-05-03T09:59:44.725Z</time></trkpt><trkpt lat="43.1361529" lon="11.0449898"><ele>572.3333333333334</ele><time>2026-05-03T09:59:45.726Z</time></trkpt><trkpt lat="43.1362279" lon="11.0452345"><ele>571.0</ele><time>2026-05-03T09:59:46.729Z</time></trkpt><trkpt lat="43.13631" lon="11.0454802"><ele>571.0</ele><time>2026-05-03T09:59:47.721Z</time></trkpt><trkpt lat="43.1363707" lon="11.0457174"><ele>571.0</ele><time>2026-05-03T09:59:48.732Z</time></trkpt><trkpt lat="43.1363661" lon="11.0459267"><ele>571.0</ele><time>2026-05-03T09:59:49.719Z</time></trkpt><trkpt lat="43.1362935" lon="11.046136"><ele>569.5</ele><time>2026-05-03T09:59:50.721Z</time></trkpt><trkpt lat="43.1361566" lon="11.0463776"><ele>568.0</ele><time>2026-05-03T09:59:51.718Z</time></trkpt><trkpt lat="43.1359378" lon="11.0466164"><ele>572.5</ele><time>2026-05-03T09:59:52.718Z</time></trkpt><trkpt lat="43.1357573" lon="11.0468575"><ele>577.0</ele><time>2026-05-03T09:59:53.722Z</time></trkpt><trkpt lat="43.1355831" lon="11.0470891"><ele>573.3333333333334</ele><time>2026-05-03T09:59:54.717Z</time></trkpt><trkpt lat="43.1354273" lon="11.047311"><ele>569.6666666666666</ele><time>2026-05-03T09:59:55.719Z</time></trkpt><trkpt lat="43.135296" lon="11.0475162"><ele>566.0</ele><time>2026-05-03T09:59:56.721Z</time></trkpt><trkpt lat="43.1351931" lon="11.0477417"><ele>566.0</ele><time>2026-05-03T09:59:57.721Z</time></trkpt><trkpt lat="43.1351266" lon="11.0480237"><ele>566.0</ele><time>2026-05-03T09:59:58.729Z</time></trkpt><trkpt lat="43.1350648" lon="11.0483279"><ele>566.0</ele><time>2026-05-03T09:59:59.731Z</time></trkpt><trkpt lat="43.1349937" lon="11.0486314"><ele>568.3333333333333</ele><time>2026-05-03T10:00:00.732Z</time></trkpt><trkpt lat="43.1349222" lon="11.0489345"><ele>570.6666666666666</ele><time>2026-05-03T10:00:01.732Z</time></trkpt><trkpt lat="43.1348717" lon="11.0491895"><ele>573.0</ele><time>2026-05-03T10:00:02.722Z</time></trkpt><trkpt lat="43.1348382" lon="11.0494308"><ele>573.6666666666666</ele><time>2026-05-03T10:00:03.73Z</time></trkpt><trkpt lat="43.1348335" lon="11.0496656"><ele>574.3333333333333</ele><time>2026-05-03T10:00:04.721Z</time></trkpt><trkpt lat="43.1348721" lon="11.0498998"><ele>575.0</ele><time>2026-05-03T10:00:05.721Z</time></trkpt><trkpt lat="43.1349968" lon="11.0501485"><ele>575.0</ele><time>2026-05-03T10:00:06.727Z</time></trkpt><trkpt lat="43.1351226" lon="11.0503747"><ele>575.0</ele><time>2026-05-03T10:00:07.726Z</time></trkpt><trkpt lat="43.1352623" lon="11.0505994"><ele>575.0</ele><time>2026-05-03T10:00:08.726Z</time></trkpt><trkpt lat="43.1354254" lon="11.0508048"><ele>577.0</ele><time>2026-05-03T10:00:09.727Z</time></trkpt><trkpt lat="43.1356066" lon="11.050974"><ele>579.0</ele><time>2026-05-03T10:00:10.709Z</time></trkpt><trkpt lat="43.1357612" lon="11.0511258"><ele>581.0</ele><time>2026-05-03T10:00:11.74Z</time></trkpt><trkpt lat="43.1358607" lon="11.0513213"><ele>581.0</ele><time>2026-05-03T10:00:12.718Z</time></trkpt><trkpt lat="43.1359327" lon="11.0515687"><ele>581.0</ele><time>2026-05-03T10:00:13.737Z</time></trkpt><trkpt lat="43.1359905" lon="11.0518219"><ele>581.0</ele><time>2026-05-03T10:00:14.72Z</time></trkpt><trkpt lat="43.136049" lon="11.0520362"><ele>577.0</ele><time>2026-05-03T10:00:15.725Z</time></trkpt><trkpt lat="43.1361534" lon="11.052226"><ele>573.0</ele><time>2026-05-03T10:00:16.732Z</time></trkpt><trkpt lat="43.1362975" lon="11.052402"><ele>569.0</ele><time>2026-05-03T10:00:17.727Z</time></trkpt><trkpt lat="43.1364821" lon="11.0525722"><ele>572.0</ele><time>2026-05-03T10:00:18.728Z</time></trkpt><trkpt lat="43.136667" lon="11.0527262"><ele>575.0</ele><time>2026-05-03T10:00:19.741Z</time></trkpt><trkpt lat="43.136825" lon="11.0528702"><ele>578.0</ele><time>2026-05-03T10:00:20.737Z</time></trkpt><trkpt lat="43.1369362" lon="11.0530516"><ele>578.0</ele><time>2026-05-03T10:00:21.732Z</time></trkpt><trkpt lat="43.1370159" lon="11.053288"><ele>578.0</ele><time>2026-05-03T10:00:22.726Z</time></trkpt><trkpt lat="43.1371044" lon="11.0535394"><ele>578.0</ele><time>2026-05-03T10:00:23.74Z</time></trkpt><trkpt lat="43.1371984" lon="11.053798"><ele>579.0</ele><time>2026-05-03T10:00:24.729Z</time></trkpt><trkpt lat="43.1373009" lon="11.0540493"><ele>580.0</ele><time>2026-05-03T10:00:25.731Z</time></trkpt><trkpt lat="43.137385" lon="11.0542862"><ele>581.0</ele><time>2026-05-03T10:00:26.726Z</time></trkpt><trkpt lat="43.1374197" lon="11.0545336"><ele>581.0</ele><time>2026-05-03T10:00:27.734Z</time></trkpt><trkpt lat="43.1374174" lon="11.0547844"><ele>581.0</ele><time>2026-05-03T10:00:28.727Z</time></trkpt><trkpt lat="43.1374138" lon="11.0550354"><ele>581.0</ele><time>2026-05-03T10:00:29.725Z</time></trkpt><trkpt lat="43.1374213" lon="11.0552835"><ele>577.0</ele><time>2026-05-03T10:00:30.72Z</time></trkpt><trkpt lat="43.1374683" lon="11.0554854"><ele>573.0</ele><time>2026-05-03T10:00:31.729Z</time></trkpt><trkpt lat="43.1375851" lon="11.0557052"><ele>569.0</ele><time>2026-05-03T10:00:32.726Z</time></trkpt><trkpt lat="43.137737" lon="11.0559586"><ele>564.5</ele><time>2026-05-03T10:00:33.723Z</time></trkpt><trkpt lat="43.1378854" lon="11.0562446"><ele>560.0</ele><time>2026-05-03T10:00:34.737Z</time></trkpt><trkpt lat="43.1380288" lon="11.0565363"><ele>566.5</ele><time>2026-05-03T10:00:35.716Z</time></trkpt><trkpt lat="43.1381568" lon="11.0568193"><ele>573.0</ele><time>2026-05-03T10:00:36.725Z</time></trkpt><trkpt lat="43.1382848" lon="11.0570924"><ele>573.0</ele><time>2026-05-03T10:00:37.738Z</time></trkpt><trkpt lat="43.1384114" lon="11.0573232"><ele>573.0</ele><time>2026-05-03T10:00:38.731Z</time></trkpt><trkpt lat="43.1385428" lon="11.0575098"><ele>573.0</ele><time>2026-05-03T10:00:39.728Z</time></trkpt><trkpt lat="43.1386967" lon="11.0576633"><ele>573.6666666666666</ele><time>2026-05-03T10:00:40.731Z</time></trkpt><trkpt lat="43.1388918" lon="11.0577969"><ele>574.3333333333333</ele><time>2026-05-03T10:00:41.734Z</time></trkpt><trkpt lat="43.1390924" lon="11.0578998"><ele>575.0</ele><time>2026-05-03T10:00:42.719Z</time></trkpt><trkpt lat="43.1392805" lon="11.0579749"><ele>575.0</ele><time>2026-05-03T10:00:43.726Z</time></trkpt><trkpt lat="43.13946" lon="11.058019"><ele>575.0</ele><time>2026-05-03T10:00:44.726Z</time></trkpt><trkpt lat="43.1396883" lon="11.0580084"><ele>575.0</ele><time>2026-05-03T10:00:45.725Z</time></trkpt><trkpt lat="43.1399173" lon="11.0578556"><ele>574.5</ele><time>2026-05-03T10:00:46.726Z</time></trkpt><trkpt lat="43.140156" lon="11.0577336"><ele>574.0</ele><time>2026-05-03T10:00:47.723Z</time></trkpt><trkpt lat="43.1403842" lon="11.0576391"><ele>574.0</ele><time>2026-05-03T10:00:48.729Z</time></trkpt><trkpt lat="43.1406063" lon="11.0576056"><ele>574.0</ele><time>2026-05-03T10:00:49.733Z</time></trkpt><trkpt lat="43.1408315" lon="11.0576209"><ele>574.0</ele><time>2026-05-03T10:00:50.718Z</time></trkpt><trkpt lat="43.1410446" lon="11.0576393"><ele>574.3333333333334</ele><time>2026-05-03T10:00:51.728Z</time></trkpt><trkpt lat="43.141238" lon="11.0576449"><ele>574.6666666666666</ele><time>2026-05-03T10:00:52.741Z</time></trkpt><trkpt lat="43.1414264" lon="11.0576274"><ele>575.0</ele><time>2026-05-03T10:00:53.742Z</time></trkpt><trkpt lat="43.1416103" lon="11.0575874"><ele>573.0</ele><time>2026-05-03T10:00:54.716Z</time></trkpt><trkpt lat="43.1417626" lon="11.0575007"><ele>571.0</ele><time>2026-05-03T10:00:55.737Z</time></trkpt><trkpt lat="43.1418863" lon="11.057364"><ele>569.0</ele><time>2026-05-03T10:00:56.721Z</time></trkpt><trkpt lat="43.1419759" lon="11.057199"><ele>573.6666666666666</ele><time>2026-05-03T10:00:57.73Z</time></trkpt><trkpt lat="43.1420155" lon="11.0569734"><ele>578.3333333333334</ele><time>2026-05-03T10:00:58.728Z</time></trkpt><trkpt lat="43.1420474" lon="11.0567374"><ele>583.0</ele><time>2026-05-03T10:00:59.731Z</time></trkpt><trkpt lat="43.1420916" lon="11.0565619"><ele>580.0</ele><time>2026-05-03T10:01:00.737Z</time></trkpt><trkpt lat="43.1421482" lon="11.0564292"><ele>577.0</ele><time>2026-05-03T10:01:01.731Z</time></trkpt><trkpt lat="43.142239" lon="11.0562956"><ele>574.0</ele><time>2026-05-03T10:01:02.72Z</time></trkpt><trkpt lat="43.1424159" lon="11.0561678"><ele>571.0</ele><time>2026-05-03T10:01:03.744Z</time></trkpt><trkpt lat="43.1425754" lon="11.0559598"><ele>570.6666666666667</ele><time>2026-05-03T10:01:04.722Z</time></trkpt><trkpt lat="43.1427108" lon="11.0557321"><ele>570.3333333333334</ele><time>2026-05-03T10:01:05.728Z</time></trkpt><trkpt lat="43.142805" lon="11.0554941"><ele>570.0</ele><time>2026-05-03T10:01:06.737Z</time></trkpt><trkpt lat="43.1428751" lon="11.0552659"><ele>570.0</ele><time>2026-05-03T10:01:07.734Z</time></trkpt><trkpt lat="43.1429085" lon="11.0550427"><ele>570.0</ele><time>2026-05-03T10:01:08.726Z</time></trkpt><trkpt lat="43.142911" lon="11.05484"><ele>570.0</ele><time>2026-05-03T10:01:09.742Z</time></trkpt><trkpt lat="43.1428744" lon="11.05465"><ele>569.0</ele><time>2026-05-03T10:01:10.734Z</time></trkpt><trkpt lat="43.1427825" lon="11.0544702"><ele>568.0</ele><time>2026-05-03T10:01:11.72Z</time></trkpt><trkpt lat="43.1426774" lon="11.054305"><ele>567.0</ele><time>2026-05-03T10:01:12.735Z</time></trkpt><trkpt lat="43.1425948" lon="11.0541548"><ele>569.0</ele><time>2026-05-03T10:01:13.733Z</time></trkpt><trkpt lat="43.1425724" lon="11.0540411"><ele>571.0</ele><time>2026-05-03T10:01:14.726Z</time></trkpt><trkpt lat="43.1426573" lon="11.0539589"><ele>573.0</ele><time>2026-05-03T10:01:15.731Z</time></trkpt><trkpt lat="43.1427832" lon="11.0539415"><ele>575.0</ele><time>2026-05-03T10:01:16.723Z</time></trkpt><trkpt lat="43.1429167" lon="11.0539449"><ele>575.0</ele><time>2026-05-03T10:01:17.727Z</time></trkpt><trkpt lat="43.1430763" lon="11.0540055"><ele>575.0</ele><time>2026-05-03T10:01:18.722Z</time></trkpt><trkpt lat="43.1432472" lon="11.0541346"><ele>575.0</ele><time>2026-05-03T10:01:19.731Z</time></trkpt><trkpt lat="43.1434036" lon="11.0542971"><ele>573.3333333333333</ele><time>2026-05-03T10:01:20.728Z</time></trkpt><trkpt lat="43.1435529" lon="11.0544774"><ele>571.6666666666666</ele><time>2026-05-03T10:01:21.743Z</time></trkpt><trkpt lat="43.143692" lon="11.0547015"><ele>570.0</ele><time>2026-05-03T10:01:22.742Z</time></trkpt><trkpt lat="43.1438171" lon="11.054949"><ele>564.6666666666666</ele><time>2026-05-03T10:01:23.733Z</time></trkpt><trkpt lat="43.1439166" lon="11.0552139"><ele>559.3333333333333</ele><time>2026-05-03T10:01:24.73Z</time></trkpt><trkpt lat="43.1439755" lon="11.0554701"><ele>554.0</ele><time>2026-05-03T10:01:25.722Z</time></trkpt><trkpt lat="43.1440128" lon="11.0557247"><ele>553.0</ele><time>2026-05-03T10:01:26.725Z</time></trkpt><trkpt lat="43.1440372" lon="11.0559562"><ele>552.0</ele><time>2026-05-03T10:01:27.727Z</time></trkpt><trkpt lat="43.144066" lon="11.0561351"><ele>551.0</ele><time>2026-05-03T10:01:28.723Z</time></trkpt><trkpt lat="43.1441226" lon="11.0562722"><ele>550.0</ele><time>2026-05-03T10:01:29.723Z</time></trkpt><trkpt lat="43.1442192" lon="11.0563658"><ele>550.0</ele><time>2026-05-03T10:01:30.733Z</time></trkpt><trkpt lat="43.1443577" lon="11.0563874"><ele>550.0</ele><time>2026-05-03T10:01:31.714Z</time></trkpt><trkpt lat="43.1444928" lon="11.0564339"><ele>550.0</ele><time>2026-05-03T10:01:32.724Z</time></trkpt><trkpt lat="43.1446159" lon="11.0565101"><ele>550.0</ele><time>2026-05-03T10:01:33.727Z</time></trkpt><trkpt lat="43.1447191" lon="11.0566153"><ele>547.0</ele><time>2026-05-03T10:01:34.726Z</time></trkpt><trkpt lat="43.1448231" lon="11.0567525"><ele>544.0</ele><time>2026-05-03T10:01:35.73Z</time></trkpt><trkpt lat="43.1449352" lon="11.0568894"><ele>541.0</ele><time>2026-05-03T10:01:36.716Z</time></trkpt><trkpt lat="43.1450503" lon="11.0570021"><ele>538.0</ele><time>2026-05-03T10:01:37.733Z</time></trkpt><trkpt lat="43.145173" lon="11.0571296"><ele>538.0</ele><time>2026-05-03T10:01:38.718Z</time></trkpt><trkpt lat="43.145257" lon="11.0572629"><ele>538.0</ele><time>2026-05-03T10:01:39.725Z</time></trkpt><trkpt lat="43.1453049" lon="11.0574173"><ele>538.0</ele><time>2026-05-03T10:01:40.726Z</time></trkpt><trkpt lat="43.1452829" lon="11.0576362"><ele>538.0</ele><time>2026-05-03T10:01:41.714Z</time></trkpt><trkpt lat="43.1451879" lon="11.0578937"><ele>534.3333333333334</ele><time>2026-05-03T10:01:42.715Z</time></trkpt><trkpt lat="43.1450797" lon="11.0581314"><ele>530.6666666666666</ele><time>2026-05-03T10:01:43.736Z</time></trkpt><trkpt lat="43.1449975" lon="11.0583389"><ele>527.0</ele><time>2026-05-03T10:01:44.731Z</time></trkpt><trkpt lat="43.1450002" lon="11.0585333"><ele>525.0</ele><time>2026-05-03T10:01:45.724Z</time></trkpt><trkpt lat="43.1450716" lon="11.0586883"><ele>523.0</ele><time>2026-05-03T10:01:46.723Z</time></trkpt><trkpt lat="43.1451909" lon="11.0588278"><ele>521.0</ele><time>2026-05-03T10:01:47.726Z</time></trkpt><trkpt lat="43.1453616" lon="11.058928"><ele>521.0</ele><time>2026-05-03T10:01:48.712Z</time></trkpt><trkpt lat="43.1455403" lon="11.0590314"><ele>521.0</ele><time>2026-05-03T10:01:49.73Z</time></trkpt><trkpt lat="43.1456819" lon="11.0591148"><ele>521.0</ele><time>2026-05-03T10:01:50.727Z</time></trkpt><trkpt lat="43.145794" lon="11.0592188"><ele>519.0</ele><time>2026-05-03T10:01:51.732Z</time></trkpt><trkpt lat="43.1458523" lon="11.0593748"><ele>517.0</ele><time>2026-05-03T10:01:52.712Z</time></trkpt><trkpt lat="43.1458616" lon="11.0595881"><ele>515.0</ele><time>2026-05-03T10:01:53.728Z</time></trkpt><trkpt lat="43.1458264" lon="11.059823"><ele>514.0</ele><time>2026-05-03T10:01:54.721Z</time></trkpt><trkpt lat="43.1457641" lon="11.0600615"><ele>513.0</ele><time>2026-05-03T10:01:55.713Z</time></trkpt><trkpt lat="43.1456434" lon="11.060303"><ele>512.0</ele><time>2026-05-03T10:01:56.719Z</time></trkpt><trkpt lat="43.1455092" lon="11.0605656"><ele>516.3333333333333</ele><time>2026-05-03T10:01:57.729Z</time></trkpt><trkpt lat="43.1453875" lon="11.0607974"><ele>520.6666666666666</ele><time>2026-05-03T10:01:58.722Z</time></trkpt><trkpt lat="43.1452823" lon="11.0609851"><ele>525.0</ele><time>2026-05-03T10:01:59.729Z</time></trkpt><trkpt lat="43.1451765" lon="11.0611472"><ele>525.0</ele><time>2026-05-03T10:02:00.721Z</time></trkpt><trkpt lat="43.1450709" lon="11.0612871"><ele>525.0</ele><time>2026-05-03T10:02:01.727Z</time></trkpt><trkpt lat="43.1449465" lon="11.0614312"><ele>525.0</ele><time>2026-05-03T10:02:02.72Z</time></trkpt><trkpt lat="43.144785" lon="11.061518"><ele>528.3333333333334</ele><time>2026-05-03T10:02:03.721Z</time></trkpt><trkpt lat="43.1446496" lon="11.0616221"><ele>531.6666666666667</ele><time>2026-05-03T10:02:04.718Z</time></trkpt><trkpt lat="43.1445217" lon="11.0617228"><ele>535.0</ele><time>2026-05-03T10:02:05.719Z</time></trkpt><trkpt lat="43.1444248" lon="11.0618789"><ele>535.0</ele><time>2026-05-03T10:02:06.714Z</time></trkpt><trkpt lat="43.1443636" lon="11.0620726"><ele>535.0</ele><time>2026-05-03T10:02:07.729Z</time></trkpt><trkpt lat="43.1443367" lon="11.0623175"><ele>535.0</ele><time>2026-05-03T10:02:08.721Z</time></trkpt><trkpt lat="43.1443187" lon="11.0625442"><ele>534.6666666666667</ele><time>2026-05-03T10:02:09.723Z</time></trkpt><trkpt lat="43.1443065" lon="11.0627739"><ele>534.3333333333334</ele><time>2026-05-03T10:02:10.733Z</time></trkpt><trkpt lat="43.1442811" lon="11.0630052"><ele>534.0</ele><time>2026-05-03T10:02:11.725Z</time></trkpt><trkpt lat="43.1442467" lon="11.0632273"><ele>534.0</ele><time>2026-05-03T10:02:12.722Z</time></trkpt><trkpt lat="43.1441905" lon="11.0634782"><ele>534.0</ele><time>2026-05-03T10:02:13.73Z</time></trkpt><trkpt lat="43.1441369" lon="11.0637275"><ele>534.0</ele><time>2026-05-03T10:02:14.721Z</time></trkpt><trkpt lat="43.1440531" lon="11.0639326"><ele>531.3333333333334</ele><time>2026-05-03T10:02:15.723Z</time></trkpt><trkpt lat="43.1439597" lon="11.0640771"><ele>528.6666666666667</ele><time>2026-05-03T10:02:16.736Z</time></trkpt><trkpt lat="43.1438165" lon="11.0641782"><ele>526.0</ele><time>2026-05-03T10:02:17.73Z</time></trkpt><trkpt lat="43.1436556" lon="11.064226"><ele>526.0</ele><time>2026-05-03T10:02:18.715Z</time></trkpt><trkpt lat="43.1434752" lon="11.064266"><ele>526.0</ele><time>2026-05-03T10:02:19.716Z</time></trkpt><trkpt lat="43.1433183" lon="11.0643371"><ele>526.0</ele><time>2026-05-03T10:02:20.721Z</time></trkpt><trkpt lat="43.1431723" lon="11.0644442"><ele>522.3333333333334</ele><time>2026-05-03T10:02:21.73Z</time></trkpt><trkpt lat="43.143046" lon="11.0646128"><ele>518.6666666666666</ele><time>2026-05-03T10:02:22.73Z</time></trkpt><trkpt lat="43.142923" lon="11.0648507"><ele>515.0</ele><time>2026-05-03T10:02:23.728Z</time></trkpt><trkpt lat="43.1428089" lon="11.0651418"><ele>515.0</ele><time>2026-05-03T10:02:24.729Z</time></trkpt><trkpt lat="43.1427059" lon="11.0654053"><ele>515.0</ele><time>2026-05-03T10:02:25.727Z</time></trkpt><trkpt lat="43.1426232" lon="11.065659"><ele>515.0</ele><time>2026-05-03T10:02:26.724Z</time></trkpt><trkpt lat="43.1425547" lon="11.0659379"><ele>522.5</ele><time>2026-05-03T10:02:27.742Z</time></trkpt><trkpt lat="43.1424942" lon="11.0662701"><ele>530.0</ele><time>2026-05-03T10:02:28.718Z</time></trkpt><trkpt lat="43.1424384" lon="11.0666105"><ele>529.5</ele><time>2026-05-03T10:02:29.716Z</time></trkpt><trkpt lat="43.1423961" lon="11.0669322"><ele>529.0</ele><time>2026-05-03T10:02:30.718Z</time></trkpt><trkpt lat="43.1423479" lon="11.0672471"><ele>520.0</ele><time>2026-05-03T10:02:31.718Z</time></trkpt><trkpt lat="43.1422985" lon="11.0675432"><ele>511.0</ele><time>2026-05-03T10:02:32.71Z</time></trkpt><trkpt lat="43.1422323" lon="11.0677732"><ele>502.0</ele><time>2026-05-03T10:02:33.729Z</time></trkpt><trkpt lat="43.1421692" lon="11.0679819"><ele>502.0</ele><time>2026-05-03T10:02:34.725Z</time></trkpt><trkpt lat="43.1421007" lon="11.0681409"><ele>502.0</ele><time>2026-05-03T10:02:35.715Z</time></trkpt><trkpt lat="43.1420047" lon="11.0682578"><ele>502.0</ele><time>2026-05-03T10:02:36.728Z</time></trkpt><trkpt lat="43.1418958" lon="11.0683437"><ele>502.0</ele><time>2026-05-03T10:02:37.726Z</time></trkpt><trkpt lat="43.141784" lon="11.068416"><ele>501.25</ele><time>2026-05-03T10:02:38.728Z</time></trkpt><trkpt lat="43.1416706" lon="11.0684803"><ele>500.5</ele><time>2026-05-03T10:02:39.723Z</time></trkpt><trkpt lat="43.1415581" lon="11.068534"><ele>499.75</ele><time>2026-05-03T10:02:40.73Z</time></trkpt><trkpt lat="43.141448" lon="11.068601"><ele>499.0</ele><time>2026-05-03T10:02:41.72Z</time></trkpt><trkpt lat="43.1413579" lon="11.0686856"><ele>499.0</ele><time>2026-05-03T10:02:42.726Z</time></trkpt><trkpt lat="43.1412746" lon="11.0688076"><ele>499.0</ele><time>2026-05-03T10:02:43.727Z</time></trkpt><trkpt lat="43.1412258" lon="11.0689612"><ele>499.0</ele><time>2026-05-03T10:02:44.718Z</time></trkpt><trkpt lat="43.1412042" lon="11.0691482"><ele>499.0</ele><time>2026-05-03T10:02:45.736Z</time></trkpt><trkpt lat="43.1411879" lon="11.0693575"><ele>499.0</ele><time>2026-05-03T10:02:46.715Z</time></trkpt><trkpt lat="43.1411755" lon="11.069562"><ele>499.0</ele><time>2026-05-03T10:02:47.733Z</time></trkpt><trkpt lat="43.141153" lon="11.0697479"><ele>499.0</ele><time>2026-05-03T10:02:48.719Z</time></trkpt><trkpt lat="43.1411289" lon="11.0699182"><ele>499.0</ele><time>2026-05-03T10:02:49.735Z</time></trkpt><trkpt lat="43.1411141" lon="11.0700719"><ele>499.00000000000006</ele><time>2026-05-03T10:02:50.724Z</time></trkpt><trkpt lat="43.1411058" lon="11.0702017"><ele>499.0</ele><time>2026-05-03T10:02:51.727Z</time></trkpt><trkpt lat="43.1410926" lon="11.0703187"><ele>499.0</ele><time>2026-05-03T10:02:52.725Z</time></trkpt><trkpt lat="43.1410709" lon="11.0704443"><ele>499.0</ele><time>2026-05-03T10:02:54.73Z</time></trkpt><trkpt lat="43.1410641" lon="11.0705307"><ele>499.00000000000006</ele><time>2026-05-03T10:02:56.722Z</time></trkpt><trkpt lat="43.1410796" lon="11.0706218"><ele>499.0</ele><time>2026-05-03T10:02:58.74Z</time></trkpt><trkpt lat="43.1410956" lon="11.0707268"><ele>498.6666666666667</ele><time>2026-05-03T10:03:02.728Z</time></trkpt><trkpt lat="43.1411344" lon="11.0708087"><ele>498.33333333333337</ele><time>2026-05-03T10:03:05.731Z</time></trkpt><trkpt lat="43.1411569" lon="11.0709034"><ele>498.0</ele><time>2026-05-03T10:03:43.728Z</time></trkpt><trkpt lat="43.1412037" lon="11.0709683"><ele>497.66666666666663</ele><time>2026-05-03T10:03:45.728Z</time></trkpt><trkpt lat="43.1412464" lon="11.0710383"><ele>497.3333333333333</ele><time>2026-05-03T10:03:46.729Z</time></trkpt><trkpt lat="43.1413385" lon="11.0711384"><ele>497.0</ele><time>2026-05-03T10:03:48.734Z</time></trkpt><trkpt lat="43.1414555" lon="11.0711415"><ele>499.99999999999994</ele><time>2026-05-03T10:03:50.729Z</time></trkpt><trkpt lat="43.1415644" lon="11.0711017"><ele>503.0</ele><time>2026-05-03T10:03:52.714Z</time></trkpt><trkpt lat="43.1416227" lon="11.071065"><ele>506.0</ele><time>2026-05-03T10:03:53.721Z</time></trkpt><trkpt lat="43.1417449" lon="11.071021"><ele>509.0</ele><time>2026-05-03T10:03:55.717Z</time></trkpt><trkpt lat="43.1418087" lon="11.0710283"><ele>511.99999999999994</ele><time>2026-05-03T10:03:56.713Z</time></trkpt><trkpt lat="43.1418812" lon="11.0710525"><ele>515.0</ele><time>2026-05-03T10:03:57.726Z</time></trkpt><trkpt lat="43.1419611" lon="11.0711104"><ele>515.0</ele><time>2026-05-03T10:03:58.74Z</time></trkpt><trkpt lat="43.1420409" lon="11.0712013"><ele>515.0</ele><time>2026-05-03T10:03:59.727Z</time></trkpt><trkpt lat="43.1421162" lon="11.0713006"><ele>515.0</ele><time>2026-05-03T10:04:00.729Z</time></trkpt><trkpt lat="43.1421969" lon="11.0713914"><ele>515.0</ele><time>2026-05-03T10:04:01.723Z</time></trkpt><trkpt lat="43.142286" lon="11.0714458"><ele>515.0</ele><time>2026-05-03T10:04:02.718Z</time></trkpt><trkpt lat="43.1423839" lon="11.0714533"><ele>516.0</ele><time>2026-05-03T10:04:03.725Z</time></trkpt><trkpt lat="43.1424861" lon="11.0714357"><ele>517.0</ele><time>2026-05-03T10:04:04.726Z</time></trkpt><trkpt lat="43.142584" lon="11.0714074"><ele>518.0</ele><time>2026-05-03T10:04:05.72Z</time></trkpt><trkpt lat="43.142684" lon="11.0713946"><ele>519.0</ele><time>2026-05-03T10:04:06.722Z</time></trkpt><trkpt lat="43.1427804" lon="11.0713687"><ele>520.0</ele><time>2026-05-03T10:04:07.729Z</time></trkpt><trkpt lat="43.1428737" lon="11.0713386"><ele>520.0</ele><time>2026-05-03T10:04:08.737Z</time></trkpt><trkpt lat="43.1429569" lon="11.0712868"><ele>520.0</ele><time>2026-05-03T10:04:09.736Z</time></trkpt><trkpt lat="43.1430286" lon="11.0712173"><ele>520.0</ele><time>2026-05-03T10:04:10.725Z</time></trkpt><trkpt lat="43.143095" lon="11.0711373"><ele>520.0</ele><time>2026-05-03T10:04:11.748Z</time></trkpt><trkpt lat="43.1431545" lon="11.071054"><ele>520.0</ele><time>2026-05-03T10:04:12.735Z</time></trkpt><trkpt lat="43.1432258" lon="11.0709701"><ele>520.0</ele><time>2026-05-03T10:04:13.733Z</time></trkpt><trkpt lat="43.1433107" lon="11.070901"><ele>521.0</ele><time>2026-05-03T10:04:14.738Z</time></trkpt><trkpt lat="43.1434118" lon="11.0708616"><ele>522.0</ele><time>2026-05-03T10:04:15.731Z</time></trkpt><trkpt lat="43.1435224" lon="11.0708803"><ele>523.0</ele><time>2026-05-03T10:04:16.732Z</time></trkpt><trkpt lat="43.143631" lon="11.0709551"><ele>524.0</ele><time>2026-05-03T10:04:17.724Z</time></trkpt><trkpt lat="43.1437309" lon="11.0710533"><ele>524.0</ele><time>2026-05-03T10:04:18.732Z</time></trkpt><trkpt lat="43.1438186" lon="11.0711732"><ele>524.0</ele><time>2026-05-03T10:04:19.735Z</time></trkpt><trkpt lat="43.1438897" lon="11.071326"><ele>524.0</ele><time>2026-05-03T10:04:20.73Z</time></trkpt><trkpt lat="43.143943" lon="11.0714994"><ele>524.0</ele><time>2026-05-03T10:04:21.733Z</time></trkpt><trkpt lat="43.143993" lon="11.0716884"><ele>524.5</ele><time>2026-05-03T10:04:22.727Z</time></trkpt><trkpt lat="43.1440402" lon="11.0718803"><ele>525.0</ele><time>2026-05-03T10:04:23.728Z</time></trkpt><trkpt lat="43.1440874" lon="11.0720677"><ele>525.5</ele><time>2026-05-03T10:04:24.732Z</time></trkpt><trkpt lat="43.1441328" lon="11.0722584"><ele>526.0</ele><time>2026-05-03T10:04:25.726Z</time></trkpt><trkpt lat="43.1441753" lon="11.072442"><ele>521.75</ele><time>2026-05-03T10:04:26.726Z</time></trkpt><trkpt lat="43.1442193" lon="11.0726072"><ele>517.5</ele><time>2026-05-03T10:04:27.726Z</time></trkpt><trkpt lat="43.1442872" lon="11.0727472"><ele>513.25</ele><time>2026-05-03T10:04:28.736Z</time></trkpt><trkpt lat="43.1443808" lon="11.072832"><ele>509.0</ele><time>2026-05-03T10:04:29.717Z</time></trkpt><trkpt lat="43.1445026" lon="11.0728728"><ele>509.0</ele><time>2026-05-03T10:04:30.743Z</time></trkpt><trkpt lat="43.1446357" lon="11.0728507"><ele>509.0</ele><time>2026-05-03T10:04:31.74Z</time></trkpt><trkpt lat="43.1447595" lon="11.0727865"><ele>509.0</ele><time>2026-05-03T10:04:32.732Z</time></trkpt><trkpt lat="43.1448665" lon="11.0726599"><ele>509.0</ele><time>2026-05-03T10:04:33.735Z</time></trkpt><trkpt lat="43.1449594" lon="11.0725097"><ele>515.0</ele><time>2026-05-03T10:04:34.734Z</time></trkpt><trkpt lat="43.1450553" lon="11.0723601"><ele>521.0</ele><time>2026-05-03T10:04:35.73Z</time></trkpt><trkpt lat="43.1451797" lon="11.0722143"><ele>527.0</ele><time>2026-05-03T10:04:36.743Z</time></trkpt><trkpt lat="43.145319" lon="11.0720837"><ele>527.0</ele><time>2026-05-03T10:04:37.728Z</time></trkpt><trkpt lat="43.1454481" lon="11.0719891"><ele>527.0</ele><time>2026-05-03T10:04:38.735Z</time></trkpt><trkpt lat="43.1455763" lon="11.0719469"><ele>527.0</ele><time>2026-05-03T10:04:39.729Z</time></trkpt><trkpt lat="43.1457053" lon="11.0719626"><ele>527.0</ele><time>2026-05-03T10:04:40.73Z</time></trkpt><trkpt lat="43.1458333" lon="11.0720351"><ele>525.0</ele><time>2026-05-03T10:04:41.722Z</time></trkpt><trkpt lat="43.1459546" lon="11.0721458"><ele>523.0</ele><time>2026-05-03T10:04:42.731Z</time></trkpt><trkpt lat="43.1460557" lon="11.0722596"><ele>521.0</ele><time>2026-05-03T10:04:43.732Z</time></trkpt><trkpt lat="43.1461558" lon="11.0723177"><ele>519.0</ele><time>2026-05-03T10:04:44.736Z</time></trkpt><trkpt lat="43.146259" lon="11.0722992"><ele>519.0</ele><time>2026-05-03T10:04:45.727Z</time></trkpt><trkpt lat="43.1463904" lon="11.072197"><ele>519.0</ele><time>2026-05-03T10:04:46.727Z</time></trkpt><trkpt lat="43.1465036" lon="11.0720754"><ele>519.0</ele><time>2026-05-03T10:04:47.732Z</time></trkpt><trkpt lat="43.1466265" lon="11.0719674"><ele>519.0</ele><time>2026-05-03T10:04:48.732Z</time></trkpt><trkpt lat="43.1467529" lon="11.0718909"><ele>516.3333333333334</ele><time>2026-05-03T10:04:49.727Z</time></trkpt><trkpt lat="43.1468985" lon="11.0718412"><ele>513.6666666666667</ele><time>2026-05-03T10:04:50.725Z</time></trkpt><trkpt lat="43.1470693" lon="11.0717549"><ele>511.0</ele><time>2026-05-03T10:04:51.732Z</time></trkpt><trkpt lat="43.1472011" lon="11.0716572"><ele>513.6666666666667</ele><time>2026-05-03T10:04:52.724Z</time></trkpt><trkpt lat="43.1473278" lon="11.0715228"><ele>516.3333333333334</ele><time>2026-05-03T10:04:53.733Z</time></trkpt><trkpt lat="43.1474349" lon="11.0713866"><ele>519.0</ele><time>2026-05-03T10:04:54.729Z</time></trkpt><trkpt lat="43.1475336" lon="11.0712433"><ele>519.0</ele><time>2026-05-03T10:04:55.73Z</time></trkpt><trkpt lat="43.1476296" lon="11.0711133"><ele>519.0</ele><time>2026-05-03T10:04:56.733Z</time></trkpt><trkpt lat="43.1477186" lon="11.0710381"><ele>519.0</ele><time>2026-05-03T10:04:57.725Z</time></trkpt><trkpt lat="43.1477869" lon="11.0709858"><ele>519.0</ele><time>2026-05-03T10:04:58.719Z</time></trkpt><trkpt lat="43.1478642" lon="11.0710399"><ele>519.0</ele><time>2026-05-03T10:04:59.729Z</time></trkpt><trkpt lat="43.1479322" lon="11.0711487"><ele>519.0</ele><time>2026-05-03T10:05:00.736Z</time></trkpt><trkpt lat="43.1479983" lon="11.0712784"><ele>519.0</ele><time>2026-05-03T10:05:01.727Z</time></trkpt><trkpt lat="43.148071" lon="11.0714148"><ele>519.0</ele><time>2026-05-03T10:05:02.725Z</time></trkpt><trkpt lat="43.1481487" lon="11.0715163"><ele>519.0</ele><time>2026-05-03T10:05:03.734Z</time></trkpt><trkpt lat="43.1482341" lon="11.0715808"><ele>519.0</ele><time>2026-05-03T10:05:04.718Z</time></trkpt><trkpt lat="43.1483357" lon="11.0715987"><ele>515.25</ele><time>2026-05-03T10:05:05.723Z</time></trkpt><trkpt lat="43.148428" lon="11.0715619"><ele>511.5</ele><time>2026-05-03T10:05:06.72Z</time></trkpt><trkpt lat="43.1485134" lon="11.0714464"><ele>507.75</ele><time>2026-05-03T10:05:07.735Z</time></trkpt><trkpt lat="43.1485798" lon="11.0713184"><ele>504.0</ele><time>2026-05-03T10:05:08.723Z</time></trkpt><trkpt lat="43.1486249" lon="11.0711638"><ele>504.0</ele><time>2026-05-03T10:05:09.745Z</time></trkpt><trkpt lat="43.1486815" lon="11.071012"><ele>504.0</ele><time>2026-05-03T10:05:10.738Z</time></trkpt><trkpt lat="43.1487548" lon="11.0708875"><ele>504.0</ele><time>2026-05-03T10:05:11.734Z</time></trkpt><trkpt lat="43.1488494" lon="11.0708459"><ele>504.0</ele><time>2026-05-03T10:05:12.714Z</time></trkpt><trkpt lat="43.1489357" lon="11.070891"><ele>504.0</ele><time>2026-05-03T10:05:13.712Z</time></trkpt><trkpt lat="43.1490096" lon="11.0709811"><ele>503.0</ele><time>2026-05-03T10:05:14.728Z</time></trkpt><trkpt lat="43.1490963" lon="11.0711382"><ele>502.0</ele><time>2026-05-03T10:05:15.721Z</time></trkpt><trkpt lat="43.1491815" lon="11.0713064"><ele>501.0</ele><time>2026-05-03T10:05:16.723Z</time></trkpt><trkpt lat="43.1492515" lon="11.0714844"><ele>500.0</ele><time>2026-05-03T10:05:17.731Z</time></trkpt><trkpt lat="43.1493038" lon="11.0716916"><ele>496.0</ele><time>2026-05-03T10:05:18.718Z</time></trkpt><trkpt lat="43.149344" lon="11.0719217"><ele>492.0</ele><time>2026-05-03T10:05:19.733Z</time></trkpt><trkpt lat="43.1493755" lon="11.0721619"><ele>488.0</ele><time>2026-05-03T10:05:20.731Z</time></trkpt><trkpt lat="43.149419" lon="11.0724142"><ele>484.3333333333333</ele><time>2026-05-03T10:05:21.719Z</time></trkpt><trkpt lat="43.149472" lon="11.0726431"><ele>480.66666666666663</ele><time>2026-05-03T10:05:22.714Z</time></trkpt><trkpt lat="43.1495147" lon="11.0728334"><ele>477.0</ele><time>2026-05-03T10:05:23.726Z</time></trkpt><trkpt lat="43.1495637" lon="11.0730001"><ele>477.0</ele><time>2026-05-03T10:05:24.729Z</time></trkpt><trkpt lat="43.1496317" lon="11.0731236"><ele>477.00000000000006</ele><time>2026-05-03T10:05:25.722Z</time></trkpt><trkpt lat="43.1497246" lon="11.0731801"><ele>477.00000000000006</ele><time>2026-05-03T10:05:26.721Z</time></trkpt><trkpt lat="43.1498271" lon="11.0731507"><ele>477.0</ele><time>2026-05-03T10:05:27.725Z</time></trkpt><trkpt lat="43.1499006" lon="11.0730354"><ele>477.0</ele><time>2026-05-03T10:05:28.731Z</time></trkpt><trkpt lat="43.1499448" lon="11.072874"><ele>477.75</ele><time>2026-05-03T10:05:29.733Z</time></trkpt><trkpt lat="43.1499755" lon="11.0726775"><ele>478.5</ele><time>2026-05-03T10:05:30.723Z</time></trkpt><trkpt lat="43.1500172" lon="11.072472"><ele>479.25</ele><time>2026-05-03T10:05:31.722Z</time></trkpt><trkpt lat="43.1500777" lon="11.0723002"><ele>480.0</ele><time>2026-05-03T10:05:32.734Z</time></trkpt><trkpt lat="43.1501659" lon="11.0721823"><ele>480.75</ele><time>2026-05-03T10:05:33.728Z</time></trkpt><trkpt lat="43.1502705" lon="11.0721256"><ele>481.5</ele><time>2026-05-03T10:05:34.724Z</time></trkpt><trkpt lat="43.150392" lon="11.0721293"><ele>482.25</ele><time>2026-05-03T10:05:35.735Z</time></trkpt><trkpt lat="43.1505166" lon="11.0721872"><ele>483.0</ele><time>2026-05-03T10:05:36.726Z</time></trkpt><trkpt lat="43.1506478" lon="11.0722843"><ele>480.33333333333337</ele><time>2026-05-03T10:05:37.734Z</time></trkpt><trkpt lat="43.1507778" lon="11.0724121"><ele>477.6666666666667</ele><time>2026-05-03T10:05:38.721Z</time></trkpt><trkpt lat="43.1509083" lon="11.0725572"><ele>475.0</ele><time>2026-05-03T10:05:39.733Z</time></trkpt><trkpt lat="43.1510258" lon="11.0727072"><ele>475.0</ele><time>2026-05-03T10:05:40.724Z</time></trkpt><trkpt lat="43.1511374" lon="11.0728701"><ele>475.0</ele><time>2026-05-03T10:05:41.726Z</time></trkpt><trkpt lat="43.1512396" lon="11.073054"><ele>475.0</ele><time>2026-05-03T10:05:42.743Z</time></trkpt><trkpt lat="43.1513187" lon="11.0732717"><ele>473.33333333333337</ele><time>2026-05-03T10:05:43.734Z</time></trkpt><trkpt lat="43.1513738" lon="11.0735097"><ele>471.66666666666663</ele><time>2026-05-03T10:05:44.739Z</time></trkpt><trkpt lat="43.1514287" lon="11.0737496"><ele>470.0</ele><time>2026-05-03T10:05:45.741Z</time></trkpt><trkpt lat="43.1514966" lon="11.0739674"><ele>471.66666666666663</ele><time>2026-05-03T10:05:46.731Z</time></trkpt><trkpt lat="43.151598" lon="11.0741469"><ele>473.33333333333337</ele><time>2026-05-03T10:05:47.734Z</time></trkpt><trkpt lat="43.1517277" lon="11.0742932"><ele>475.0</ele><time>2026-05-03T10:05:48.722Z</time></trkpt><trkpt lat="43.151885" lon="11.0744065"><ele>475.0</ele><time>2026-05-03T10:05:49.73Z</time></trkpt><trkpt lat="43.1520524" lon="11.0744674"><ele>475.0</ele><time>2026-05-03T10:05:50.725Z</time></trkpt><trkpt lat="43.152223" lon="11.074476"><ele>475.0</ele><time>2026-05-03T10:05:51.731Z</time></trkpt><trkpt lat="43.1523907" lon="11.0744364"><ele>475.75</ele><time>2026-05-03T10:05:52.73Z</time></trkpt><trkpt lat="43.1525515" lon="11.0743811"><ele>476.5</ele><time>2026-05-03T10:05:53.72Z</time></trkpt><trkpt lat="43.1526986" lon="11.0743411"><ele>477.25</ele><time>2026-05-03T10:05:54.717Z</time></trkpt><trkpt lat="43.1528114" lon="11.0743388"><ele>478.0</ele><time>2026-05-03T10:05:55.727Z</time></trkpt><trkpt lat="43.1528751" lon="11.0743801"><ele>478.0</ele><time>2026-05-03T10:05:56.715Z</time></trkpt><trkpt lat="43.1529046" lon="11.0744588"><ele>477.99999999999994</ele><time>2026-05-03T10:05:57.721Z</time></trkpt><trkpt lat="43.1528088" lon="11.0745871"><ele>477.99999999999994</ele><time>2026-05-03T10:05:59.725Z</time></trkpt><trkpt lat="43.1527072" lon="11.0746008"><ele>478.0</ele><time>2026-05-03T10:06:00.72Z</time></trkpt><trkpt lat="43.1525799" lon="11.0746056"><ele>478.0</ele><time>2026-05-03T10:06:01.728Z</time></trkpt><trkpt lat="43.1524377" lon="11.0746332"><ele>478.5</ele><time>2026-05-03T10:06:02.715Z</time></trkpt><trkpt lat="43.1522944" lon="11.0746986"><ele>479.0</ele><time>2026-05-03T10:06:03.73Z</time></trkpt><trkpt lat="43.1521613" lon="11.0748087"><ele>479.5</ele><time>2026-05-03T10:06:04.727Z</time></trkpt><trkpt lat="43.1520609" lon="11.0749461"><ele>480.0</ele><time>2026-05-03T10:06:05.723Z</time></trkpt><trkpt lat="43.1519983" lon="11.0751178"><ele>480.0</ele><time>2026-05-03T10:06:06.714Z</time></trkpt><trkpt lat="43.1519731" lon="11.0753152"><ele>480.0</ele><time>2026-05-03T10:06:07.722Z</time></trkpt><trkpt lat="43.1519797" lon="11.0755317"><ele>480.0</ele><time>2026-05-03T10:06:08.721Z</time></trkpt><trkpt lat="43.1519893" lon="11.0757553"><ele>481.5</ele><time>2026-05-03T10:06:09.723Z</time></trkpt><trkpt lat="43.1519944" lon="11.0759526"><ele>483.0</ele><time>2026-05-03T10:06:10.726Z</time></trkpt><trkpt lat="43.1520367" lon="11.076126"><ele>484.5</ele><time>2026-05-03T10:06:11.72Z</time></trkpt><trkpt lat="43.1521191" lon="11.0762276"><ele>486.0</ele><time>2026-05-03T10:06:12.727Z</time></trkpt><trkpt lat="43.1522282" lon="11.0762525"><ele>486.0</ele><time>2026-05-03T10:06:13.729Z</time></trkpt><trkpt lat="43.1523604" lon="11.0762378"><ele>486.0</ele><time>2026-05-03T10:06:14.728Z</time></trkpt><trkpt lat="43.1524947" lon="11.0762355"><ele>486.0</ele><time>2026-05-03T10:06:15.726Z</time></trkpt><trkpt lat="43.1526221" lon="11.0762834"><ele>486.0</ele><time>2026-05-03T10:06:16.725Z</time></trkpt><trkpt lat="43.1527443" lon="11.0763861"><ele>489.25</ele><time>2026-05-03T10:06:17.741Z</time></trkpt><trkpt lat="43.1528472" lon="11.0765151"><ele>492.5</ele><time>2026-05-03T10:06:18.725Z</time></trkpt><trkpt lat="43.1529525" lon="11.0766565"><ele>495.75</ele><time>2026-05-03T10:06:19.729Z</time></trkpt><trkpt lat="43.1530286" lon="11.076825"><ele>499.0</ele><time>2026-05-03T10:06:20.712Z</time></trkpt><trkpt lat="43.1530761" lon="11.0770099"><ele>499.0</ele><time>2026-05-03T10:06:21.739Z</time></trkpt><trkpt lat="43.1530858" lon="11.0772298"><ele>499.0</ele><time>2026-05-03T10:06:22.719Z</time></trkpt><trkpt lat="43.1530727" lon="11.0774257"><ele>499.0</ele><time>2026-05-03T10:06:23.724Z</time></trkpt><trkpt lat="43.1530455" lon="11.0776248"><ele>498.6666666666667</ele><time>2026-05-03T10:06:24.728Z</time></trkpt><trkpt lat="43.1529948" lon="11.0778238"><ele>498.33333333333337</ele><time>2026-05-03T10:06:25.726Z</time></trkpt><trkpt lat="43.1529361" lon="11.0780166"><ele>498.0</ele><time>2026-05-03T10:06:26.715Z</time></trkpt><trkpt lat="43.1528859" lon="11.0782079"><ele>498.75</ele><time>2026-05-03T10:06:27.738Z</time></trkpt><trkpt lat="43.1528448" lon="11.0784004"><ele>499.5</ele><time>2026-05-03T10:06:28.729Z</time></trkpt><trkpt lat="43.152807" lon="11.0785848"><ele>500.25</ele><time>2026-05-03T10:06:29.715Z</time></trkpt><trkpt lat="43.1527715" lon="11.0787725"><ele>501.0</ele><time>2026-05-03T10:06:30.712Z</time></trkpt><trkpt lat="43.1527407" lon="11.0789586"><ele>502.25</ele><time>2026-05-03T10:06:31.724Z</time></trkpt><trkpt lat="43.1527157" lon="11.0791425"><ele>503.5</ele><time>2026-05-03T10:06:32.726Z</time></trkpt><trkpt lat="43.1527125" lon="11.0793236"><ele>504.75</ele><time>2026-05-03T10:06:33.728Z</time></trkpt><trkpt lat="43.1527411" lon="11.0794959"><ele>506.0</ele><time>2026-05-03T10:06:34.722Z</time></trkpt><trkpt lat="43.1527869" lon="11.079662"><ele>506.0</ele><time>2026-05-03T10:06:35.731Z</time></trkpt><trkpt lat="43.1528266" lon="11.0798278"><ele>506.0</ele><time>2026-05-03T10:06:36.724Z</time></trkpt><trkpt lat="43.1528446" lon="11.0800049"><ele>506.0</ele><time>2026-05-03T10:06:37.737Z</time></trkpt><trkpt lat="43.1528488" lon="11.0801882"><ele>506.0</ele><time>2026-05-03T10:06:38.742Z</time></trkpt><trkpt lat="43.1528429" lon="11.0803764"><ele>507.25</ele><time>2026-05-03T10:06:39.732Z</time></trkpt><trkpt lat="43.1528396" lon="11.0805596"><ele>508.5</ele><time>2026-05-03T10:06:40.737Z</time></trkpt><trkpt lat="43.152822" lon="11.0807389"><ele>509.75</ele><time>2026-05-03T10:06:41.743Z</time></trkpt><trkpt lat="43.1527652" lon="11.0808956"><ele>511.0</ele><time>2026-05-03T10:06:42.732Z</time></trkpt><trkpt lat="43.1526785" lon="11.0810385"><ele>513.0</ele><time>2026-05-03T10:06:43.723Z</time></trkpt><trkpt lat="43.1525823" lon="11.0811597"><ele>515.0</ele><time>2026-05-03T10:06:44.724Z</time></trkpt><trkpt lat="43.1524901" lon="11.0812738"><ele>517.0</ele><time>2026-05-03T10:06:45.729Z</time></trkpt><trkpt lat="43.1524173" lon="11.0814209"><ele>519.0</ele><time>2026-05-03T10:06:46.725Z</time></trkpt><trkpt lat="43.152371" lon="11.0816019"><ele>520.25</ele><time>2026-05-03T10:06:47.723Z</time></trkpt><trkpt lat="43.1523589" lon="11.0817919"><ele>521.5</ele><time>2026-05-03T10:06:48.734Z</time></trkpt><trkpt lat="43.1523854" lon="11.0819646"><ele>522.75</ele><time>2026-05-03T10:06:49.72Z</time></trkpt><trkpt lat="43.1524701" lon="11.0821018"><ele>524.0</ele><time>2026-05-03T10:06:50.724Z</time></trkpt><trkpt lat="43.1525968" lon="11.0821932"><ele>524.0</ele><time>2026-05-03T10:06:51.724Z</time></trkpt><trkpt lat="43.1527268" lon="11.0822246"><ele>524.0</ele><time>2026-05-03T10:06:52.729Z</time></trkpt><trkpt lat="43.1528631" lon="11.0822352"><ele>524.0</ele><time>2026-05-03T10:06:53.749Z</time></trkpt><trkpt lat="43.1529979" lon="11.0822312"><ele>524.0</ele><time>2026-05-03T10:06:54.734Z</time></trkpt><trkpt lat="43.1531386" lon="11.0822723"><ele>526.5</ele><time>2026-05-03T10:06:55.73Z</time></trkpt><trkpt lat="43.1532685" lon="11.0823371"><ele>529.0</ele><time>2026-05-03T10:06:56.724Z</time></trkpt><trkpt lat="43.1533915" lon="11.0824521"><ele>531.5</ele><time>2026-05-03T10:06:57.732Z</time></trkpt><trkpt lat="43.1535002" lon="11.0826021"><ele>534.0</ele><time>2026-05-03T10:06:58.739Z</time></trkpt><trkpt lat="43.1535956" lon="11.0827675"><ele>534.0</ele><time>2026-05-03T10:06:59.735Z</time></trkpt><trkpt lat="43.1536724" lon="11.0829446"><ele>534.0</ele><time>2026-05-03T10:07:00.721Z</time></trkpt><trkpt lat="43.1537395" lon="11.0831233"><ele>534.0</ele><time>2026-05-03T10:07:01.73Z</time></trkpt><trkpt lat="43.1537995" lon="11.0832891"><ele>534.0</ele><time>2026-05-03T10:07:02.729Z</time></trkpt><trkpt lat="43.153854" lon="11.0834472"><ele>531.0</ele><time>2026-05-03T10:07:03.734Z</time></trkpt><trkpt lat="43.1539095" lon="11.0836017"><ele>528.0</ele><time>2026-05-03T10:07:04.726Z</time></trkpt><trkpt lat="43.153967" lon="11.0837489"><ele>525.0</ele><time>2026-05-03T10:07:05.731Z</time></trkpt><trkpt lat="43.1540171" lon="11.0838786"><ele>522.0</ele><time>2026-05-03T10:07:06.733Z</time></trkpt><trkpt lat="43.1540656" lon="11.0840001"><ele>526.6</ele><time>2026-05-03T10:07:07.732Z</time></trkpt><trkpt lat="43.1541149" lon="11.0841261"><ele>531.2</ele><time>2026-05-03T10:07:08.725Z</time></trkpt><trkpt lat="43.1541632" lon="11.0842592"><ele>535.8</ele><time>2026-05-03T10:07:09.721Z</time></trkpt><trkpt lat="43.1542109" lon="11.0843935"><ele>540.4</ele><time>2026-05-03T10:07:10.729Z</time></trkpt><trkpt lat="43.1542496" lon="11.0845293"><ele>545.0</ele><time>2026-05-03T10:07:11.742Z</time></trkpt><trkpt lat="43.1542815" lon="11.0846647"><ele>545.0</ele><time>2026-05-03T10:07:12.717Z</time></trkpt><trkpt lat="43.1543024" lon="11.08481"><ele>545.0</ele><time>2026-05-03T10:07:13.736Z</time></trkpt><trkpt lat="43.1543202" lon="11.0849592"><ele>545.0</ele><time>2026-05-03T10:07:14.741Z</time></trkpt><trkpt lat="43.1543363" lon="11.0851146"><ele>545.0</ele><time>2026-05-03T10:07:15.734Z</time></trkpt><trkpt lat="43.1543526" lon="11.0852759"><ele>543.2</ele><time>2026-05-03T10:07:16.73Z</time></trkpt><trkpt lat="43.1543557" lon="11.0854384"><ele>541.4</ele><time>2026-05-03T10:07:17.726Z</time></trkpt><trkpt lat="43.1543557" lon="11.0856009"><ele>539.6</ele><time>2026-05-03T10:07:18.724Z</time></trkpt><trkpt lat="43.1543514" lon="11.0857429"><ele>537.8</ele><time>2026-05-03T10:07:19.744Z</time></trkpt><trkpt lat="43.1543399" lon="11.0858533"><ele>536.0</ele><time>2026-05-03T10:07:20.722Z</time></trkpt><trkpt lat="43.1543265" lon="11.0859426"><ele>536.0</ele><time>2026-05-03T10:07:21.72Z</time></trkpt><trkpt lat="43.1542988" lon="11.0860944"><ele>536.0</ele><time>2026-05-03T10:07:23.727Z</time></trkpt><trkpt lat="43.1543119" lon="11.0862299"><ele>536.0</ele><time>2026-05-03T10:07:25.73Z</time></trkpt><trkpt lat="43.1543909" lon="11.0862771"><ele>536.0</ele><time>2026-05-03T10:07:27.741Z</time></trkpt><trkpt lat="43.1544573" lon="11.0861782"><ele>536.0</ele><time>2026-05-03T10:07:29.741Z</time></trkpt><trkpt lat="43.1544931" lon="11.0860314"><ele>536.0</ele><time>2026-05-03T10:07:31.73Z</time></trkpt><trkpt lat="43.1545321" lon="11.0858705"><ele>536.0</ele><time>2026-05-03T10:07:33.733Z</time></trkpt><trkpt lat="43.1545579" lon="11.0857776"><ele>536.0</ele><time>2026-05-03T10:07:34.722Z</time></trkpt><trkpt lat="43.1545864" lon="11.0856734"><ele>536.0</ele><time>2026-05-03T10:07:35.716Z</time></trkpt><trkpt lat="43.1546144" lon="11.085582"><ele>536.0</ele><time>2026-05-03T10:07:36.743Z</time></trkpt><trkpt lat="43.1546669" lon="11.0854312"><ele>535.5</ele><time>2026-05-03T10:07:38.719Z</time></trkpt><trkpt lat="43.1546978" lon="11.0853549"><ele>535.0</ele><time>2026-05-03T10:07:39.731Z</time></trkpt><trkpt lat="43.1547384" lon="11.0852649"><ele>534.5</ele><time>2026-05-03T10:07:40.725Z</time></trkpt><trkpt lat="43.1547791" lon="11.0851722"><ele>534.0</ele><time>2026-05-03T10:07:41.729Z</time></trkpt><trkpt lat="43.154825" lon="11.0850716"><ele>533.5</ele><time>2026-05-03T10:07:42.718Z</time></trkpt><trkpt lat="43.1548756" lon="11.0849598"><ele>533.0</ele><time>2026-05-03T10:07:43.733Z</time></trkpt><trkpt lat="43.1549285" lon="11.0848317"><ele>538.75</ele><time>2026-05-03T10:07:44.728Z</time></trkpt><trkpt lat="43.1549789" lon="11.0846911"><ele>544.5</ele><time>2026-05-03T10:07:45.745Z</time></trkpt><trkpt lat="43.1550342" lon="11.0845433"><ele>550.25</ele><time>2026-05-03T10:07:46.734Z</time></trkpt><trkpt lat="43.1550919" lon="11.0843907"><ele>556.0</ele><time>2026-05-03T10:07:47.73Z</time></trkpt><trkpt lat="43.155154" lon="11.0842425"><ele>556.5</ele><time>2026-05-03T10:07:48.718Z</time></trkpt><trkpt lat="43.1552137" lon="11.0840956"><ele>557.0</ele><time>2026-05-03T10:07:49.714Z</time></trkpt><trkpt lat="43.1552679" lon="11.0839495"><ele>557.5</ele><time>2026-05-03T10:07:50.717Z</time></trkpt><trkpt lat="43.1553191" lon="11.0838008"><ele>558.0</ele><time>2026-05-03T10:07:51.726Z</time></trkpt><trkpt lat="43.1553773" lon="11.0836562"><ele>558.0</ele><time>2026-05-03T10:07:52.722Z</time></trkpt><trkpt lat="43.1554434" lon="11.0835278"><ele>558.0</ele><time>2026-05-03T10:07:53.737Z</time></trkpt><trkpt lat="43.155518" lon="11.0834259"><ele>558.0</ele><time>2026-05-03T10:07:54.724Z</time></trkpt><trkpt lat="43.1556184" lon="11.0833699"><ele>558.0</ele><time>2026-05-03T10:07:55.729Z</time></trkpt><trkpt lat="43.1557367" lon="11.0833578"><ele>558.0</ele><time>2026-05-03T10:07:56.726Z</time></trkpt><trkpt lat="43.1558445" lon="11.0833849"><ele>555.6</ele><time>2026-05-03T10:07:57.727Z</time></trkpt><trkpt lat="43.1559266" lon="11.0834602"><ele>553.1999999999999</ele><time>2026-05-03T10:07:58.721Z</time></trkpt><trkpt lat="43.1559725" lon="11.083588"><ele>550.8</ele><time>2026-05-03T10:07:59.722Z</time></trkpt><trkpt lat="43.1559814" lon="11.0837553"><ele>548.4</ele><time>2026-05-03T10:08:00.728Z</time></trkpt><trkpt lat="43.1559814" lon="11.0839227"><ele>546.0</ele><time>2026-05-03T10:08:01.726Z</time></trkpt><trkpt lat="43.1559861" lon="11.0841001"><ele>543.75</ele><time>2026-05-03T10:08:02.725Z</time></trkpt><trkpt lat="43.1560035" lon="11.084279"><ele>541.5</ele><time>2026-05-03T10:08:03.729Z</time></trkpt><trkpt lat="43.1560496" lon="11.0844383"><ele>539.25</ele><time>2026-05-03T10:08:04.724Z</time></trkpt><trkpt lat="43.1561232" lon="11.0845556"><ele>537.0</ele><time>2026-05-03T10:08:05.729Z</time></trkpt><trkpt lat="43.1562231" lon="11.0846223"><ele>537.0</ele><time>2026-05-03T10:08:06.734Z</time></trkpt><trkpt lat="43.1563382" lon="11.0846219"><ele>537.0</ele><time>2026-05-03T10:08:07.734Z</time></trkpt><trkpt lat="43.1564536" lon="11.0845692"><ele>537.0</ele><time>2026-05-03T10:08:08.737Z</time></trkpt><trkpt lat="43.1565719" lon="11.084506"><ele>537.0</ele><time>2026-05-03T10:08:09.727Z</time></trkpt><trkpt lat="43.1566843" lon="11.0844839"><ele>538.75</ele><time>2026-05-03T10:08:10.73Z</time></trkpt><trkpt lat="43.1567786" lon="11.084546"><ele>540.5</ele><time>2026-05-03T10:08:11.726Z</time></trkpt><trkpt lat="43.1568583" lon="11.084653"><ele>542.25</ele><time>2026-05-03T10:08:12.728Z</time></trkpt><trkpt lat="43.1569085" lon="11.0848215"><ele>544.0</ele><time>2026-05-03T10:08:13.73Z</time></trkpt><trkpt lat="43.1569528" lon="11.0850085"><ele>537.3333333333334</ele><time>2026-05-03T10:08:14.732Z</time></trkpt><trkpt lat="43.1570158" lon="11.0851902"><ele>530.6666666666666</ele><time>2026-05-03T10:08:15.756Z</time></trkpt><trkpt lat="43.1571222" lon="11.0853594"><ele>524.0</ele><time>2026-05-03T10:08:16.739Z</time></trkpt><trkpt lat="43.1572444" lon="11.0855145"><ele>523.3333333333333</ele><time>2026-05-03T10:08:17.725Z</time></trkpt><trkpt lat="43.1573752" lon="11.0856651"><ele>522.6666666666666</ele><time>2026-05-03T10:08:18.727Z</time></trkpt><trkpt lat="43.1575075" lon="11.0858101"><ele>522.0</ele><time>2026-05-03T10:08:19.734Z</time></trkpt><trkpt lat="43.1576518" lon="11.0859477"><ele>522.0</ele><time>2026-05-03T10:08:20.721Z</time></trkpt><trkpt lat="43.157819" lon="11.0860607"><ele>522.0</ele><time>2026-05-03T10:08:21.738Z</time></trkpt><trkpt lat="43.1579912" lon="11.0861756"><ele>522.0</ele><time>2026-05-03T10:08:22.717Z</time></trkpt><trkpt lat="43.1581522" lon="11.0863059"><ele>526.3333333333334</ele><time>2026-05-03T10:08:23.728Z</time></trkpt><trkpt lat="43.1583043" lon="11.0864327"><ele>530.6666666666667</ele><time>2026-05-03T10:08:24.727Z</time></trkpt><trkpt lat="43.1584551" lon="11.0865525"><ele>535.0</ele><time>2026-05-03T10:08:25.738Z</time></trkpt><trkpt lat="43.1586008" lon="11.0866541"><ele>528.5</ele><time>2026-05-03T10:08:26.732Z</time></trkpt><trkpt lat="43.1587413" lon="11.0867251"><ele>522.0</ele><time>2026-05-03T10:08:27.725Z</time></trkpt><trkpt lat="43.158871" lon="11.0867818"><ele>515.5</ele><time>2026-05-03T10:08:28.726Z</time></trkpt><trkpt lat="43.1589892" lon="11.0868215"><ele>509.0</ele><time>2026-05-03T10:08:29.731Z</time></trkpt><trkpt lat="43.159095" lon="11.0868337"><ele>508.75</ele><time>2026-05-03T10:08:30.72Z</time></trkpt><trkpt lat="43.1591912" lon="11.0868056"><ele>508.5</ele><time>2026-05-03T10:08:31.729Z</time></trkpt><trkpt lat="43.1592717" lon="11.0867308"><ele>508.25</ele><time>2026-05-03T10:08:32.718Z</time></trkpt><trkpt lat="43.1593198" lon="11.0865737"><ele>508.0</ele><time>2026-05-03T10:08:33.734Z</time></trkpt><trkpt lat="43.1593449" lon="11.0863785"><ele>511.6666666666667</ele><time>2026-05-03T10:08:34.715Z</time></trkpt><trkpt lat="43.1593633" lon="11.0861636"><ele>515.3333333333334</ele><time>2026-05-03T10:08:35.722Z</time></trkpt><trkpt lat="43.1593846" lon="11.0859458"><ele>519.0</ele><time>2026-05-03T10:08:36.71Z</time></trkpt><trkpt lat="43.1594246" lon="11.0857144"><ele>522.6666666666666</ele><time>2026-05-03T10:08:37.752Z</time></trkpt><trkpt lat="43.159484" lon="11.0854787"><ele>526.3333333333333</ele><time>2026-05-03T10:08:38.734Z</time></trkpt><trkpt lat="43.1595512" lon="11.0852427"><ele>530.0</ele><time>2026-05-03T10:08:39.729Z</time></trkpt><trkpt lat="43.1596268" lon="11.0850253"><ele>532.25</ele><time>2026-05-03T10:08:40.725Z</time></trkpt><trkpt lat="43.1597079" lon="11.084834"><ele>534.5</ele><time>2026-05-03T10:08:41.739Z</time></trkpt><trkpt lat="43.1597953" lon="11.0846811"><ele>536.75</ele><time>2026-05-03T10:08:42.722Z</time></trkpt><trkpt lat="43.1598918" lon="11.0845542"><ele>539.0</ele><time>2026-05-03T10:08:43.729Z</time></trkpt><trkpt lat="43.1600018" lon="11.0844662"><ele>531.75</ele><time>2026-05-03T10:08:44.729Z</time></trkpt><trkpt lat="43.1601282" lon="11.0844298"><ele>524.5</ele><time>2026-05-03T10:08:45.725Z</time></trkpt><trkpt lat="43.1602541" lon="11.0844548"><ele>517.25</ele><time>2026-05-03T10:08:46.729Z</time></trkpt><trkpt lat="43.1603613" lon="11.0845318"><ele>510.0</ele><time>2026-05-03T10:08:47.729Z</time></trkpt><trkpt lat="43.1604398" lon="11.0846661"><ele>510.0</ele><time>2026-05-03T10:08:48.736Z</time></trkpt><trkpt lat="43.1604891" lon="11.0848367"><ele>510.0</ele><time>2026-05-03T10:08:49.729Z</time></trkpt><trkpt lat="43.1605342" lon="11.0850183"><ele>510.0</ele><time>2026-05-03T10:08:50.729Z</time></trkpt><trkpt lat="43.160614" lon="11.0852011"><ele>510.0</ele><time>2026-05-03T10:08:51.73Z</time></trkpt><trkpt lat="43.1607198" lon="11.0853995"><ele>506.33333333333337</ele><time>2026-05-03T10:08:52.713Z</time></trkpt><trkpt lat="43.1608373" lon="11.0855999"><ele>502.6666666666667</ele><time>2026-05-03T10:08:53.739Z</time></trkpt><trkpt lat="43.160947" lon="11.0858288"><ele>499.0</ele><time>2026-05-03T10:08:54.725Z</time></trkpt><trkpt lat="43.1610524" lon="11.0860775"><ele>494.33333333333337</ele><time>2026-05-03T10:08:55.73Z</time></trkpt><trkpt lat="43.1611508" lon="11.0863091"><ele>489.66666666666663</ele><time>2026-05-03T10:08:56.734Z</time></trkpt><trkpt lat="43.1612436" lon="11.0865377"><ele>485.0</ele><time>2026-05-03T10:08:57.733Z</time></trkpt><trkpt lat="43.1613248" lon="11.0867729"><ele>480.3333333333333</ele><time>2026-05-03T10:08:58.726Z</time></trkpt><trkpt lat="43.161389" lon="11.0870055"><ele>475.66666666666663</ele><time>2026-05-03T10:08:59.74Z</time></trkpt><trkpt lat="43.1614287" lon="11.0872349"><ele>471.0</ele><time>2026-05-03T10:09:00.732Z</time></trkpt><trkpt lat="43.1614489" lon="11.0874612"><ele>466.66666666666663</ele><time>2026-05-03T10:09:01.728Z</time></trkpt><trkpt lat="43.1614698" lon="11.0876903"><ele>462.3333333333333</ele><time>2026-05-03T10:09:02.723Z</time></trkpt><trkpt lat="43.1614999" lon="11.0879134"><ele>458.0</ele><time>2026-05-03T10:09:03.725Z</time></trkpt><trkpt lat="43.1615647" lon="11.0881174"><ele>463.66666666666663</ele><time>2026-05-03T10:09:04.72Z</time></trkpt><trkpt lat="43.1616581" lon="11.0882936"><ele>469.33333333333337</ele><time>2026-05-03T10:09:05.723Z</time></trkpt><trkpt lat="43.1617867" lon="11.0884315"><ele>475.0</ele><time>2026-05-03T10:09:06.719Z</time></trkpt><trkpt lat="43.1619262" lon="11.0885454"><ele>475.0</ele><time>2026-05-03T10:09:07.726Z</time></trkpt><trkpt lat="43.162076" lon="11.0886205"><ele>475.0</ele><time>2026-05-03T10:09:08.73Z</time></trkpt><trkpt lat="43.1622582" lon="11.0886157"><ele>475.0</ele><time>2026-05-03T10:09:09.726Z</time></trkpt><trkpt lat="43.1624441" lon="11.0885972"><ele>478.6666666666667</ele><time>2026-05-03T10:09:10.723Z</time></trkpt><trkpt lat="43.162623" lon="11.0885808"><ele>482.33333333333337</ele><time>2026-05-03T10:09:11.726Z</time></trkpt><trkpt lat="43.1628026" lon="11.0885697"><ele>486.0</ele><time>2026-05-03T10:09:12.74Z</time></trkpt><trkpt lat="43.1629782" lon="11.0885741"><ele>486.0</ele><time>2026-05-03T10:09:13.731Z</time></trkpt><trkpt lat="43.1631433" lon="11.0885858"><ele>486.0</ele><time>2026-05-03T10:09:14.721Z</time></trkpt><trkpt lat="43.1632932" lon="11.0886364"><ele>486.0</ele><time>2026-05-03T10:09:15.736Z</time></trkpt><trkpt lat="43.1634238" lon="11.0887438"><ele>481.66666666666663</ele><time>2026-05-03T10:09:16.732Z</time></trkpt><trkpt lat="43.1635427" lon="11.0888862"><ele>477.3333333333333</ele><time>2026-05-03T10:09:17.728Z</time></trkpt><trkpt lat="43.1636506" lon="11.0890629"><ele>473.0</ele><time>2026-05-03T10:09:18.727Z</time></trkpt><trkpt lat="43.1637379" lon="11.0892813"><ele>467.3333333333333</ele><time>2026-05-03T10:09:19.727Z</time></trkpt><trkpt lat="43.1637981" lon="11.0894994"><ele>461.66666666666663</ele><time>2026-05-03T10:09:20.724Z</time></trkpt><trkpt lat="43.1638437" lon="11.0897233"><ele>456.0</ele><time>2026-05-03T10:09:21.73Z</time></trkpt><trkpt lat="43.1638824" lon="11.0899506"><ele>453.66666666666663</ele><time>2026-05-03T10:09:22.731Z</time></trkpt><trkpt lat="43.1639326" lon="11.0901732"><ele>451.3333333333333</ele><time>2026-05-03T10:09:23.727Z</time></trkpt><trkpt lat="43.1639929" lon="11.0903732"><ele>449.0</ele><time>2026-05-03T10:09:24.731Z</time></trkpt><trkpt lat="43.1640865" lon="11.0905454"><ele>449.0</ele><time>2026-05-03T10:09:25.728Z</time></trkpt><trkpt lat="43.1642044" lon="11.0906909"><ele>449.0</ele><time>2026-05-03T10:09:26.723Z</time></trkpt><trkpt lat="43.1643415" lon="11.0907998"><ele>449.0</ele><time>2026-05-03T10:09:27.729Z</time></trkpt><trkpt lat="43.1644843" lon="11.0908612"><ele>449.0</ele><time>2026-05-03T10:09:28.72Z</time></trkpt><trkpt lat="43.1646137" lon="11.0908607"><ele>449.0</ele><time>2026-05-03T10:09:29.729Z</time></trkpt><trkpt lat="43.1647349" lon="11.0908011"><ele>449.0</ele><time>2026-05-03T10:09:30.731Z</time></trkpt><trkpt lat="43.1648457" lon="11.0906739"><ele>449.0</ele><time>2026-05-03T10:09:31.732Z</time></trkpt><trkpt lat="43.1649551" lon="11.0905113"><ele>452.66666666666663</ele><time>2026-05-03T10:09:32.725Z</time></trkpt><trkpt lat="43.1650622" lon="11.0903508"><ele>456.33333333333337</ele><time>2026-05-03T10:09:33.732Z</time></trkpt><trkpt lat="43.1651843" lon="11.090217"><ele>460.0</ele><time>2026-05-03T10:09:34.724Z</time></trkpt><trkpt lat="43.1653104" lon="11.0901272"><ele>460.0</ele><time>2026-05-03T10:09:35.727Z</time></trkpt><trkpt lat="43.1654465" lon="11.0900947"><ele>460.0</ele><time>2026-05-03T10:09:36.733Z</time></trkpt><trkpt lat="43.1656005" lon="11.0900838"><ele>460.0</ele><time>2026-05-03T10:09:37.73Z</time></trkpt><trkpt lat="43.165769" lon="11.0900951"><ele>456.6666666666667</ele><time>2026-05-03T10:09:38.739Z</time></trkpt><trkpt lat="43.1659426" lon="11.090116"><ele>453.33333333333337</ele><time>2026-05-03T10:09:39.737Z</time></trkpt><trkpt lat="43.1661093" lon="11.0901346"><ele>450.0</ele><time>2026-05-03T10:09:40.726Z</time></trkpt><trkpt lat="43.1662683" lon="11.0901756"><ele>450.0</ele><time>2026-05-03T10:09:41.738Z</time></trkpt><trkpt lat="43.1664263" lon="11.0902576"><ele>450.0</ele><time>2026-05-03T10:09:42.726Z</time></trkpt><trkpt lat="43.1665756" lon="11.0903878"><ele>450.0</ele><time>2026-05-03T10:09:43.731Z</time></trkpt><trkpt lat="43.1667081" lon="11.09056"><ele>447.33333333333337</ele><time>2026-05-03T10:09:44.732Z</time></trkpt><trkpt lat="43.166818" lon="11.090761"><ele>444.6666666666667</ele><time>2026-05-03T10:09:45.728Z</time></trkpt><trkpt lat="43.1669233" lon="11.0909697"><ele>442.0</ele><time>2026-05-03T10:09:46.724Z</time></trkpt><trkpt lat="43.1670301" lon="11.0911676"><ele>442.0</ele><time>2026-05-03T10:09:47.734Z</time></trkpt><trkpt lat="43.1671582" lon="11.0913418"><ele>442.0</ele><time>2026-05-03T10:09:48.727Z</time></trkpt><trkpt lat="43.1673115" lon="11.0915037"><ele>442.0</ele><time>2026-05-03T10:09:49.737Z</time></trkpt><trkpt lat="43.1674676" lon="11.0916512"><ele>439.6666666666667</ele><time>2026-05-03T10:09:50.723Z</time></trkpt><trkpt lat="43.1676205" lon="11.0917727"><ele>437.33333333333337</ele><time>2026-05-03T10:09:51.737Z</time></trkpt><trkpt lat="43.1677712" lon="11.0918549"><ele>435.0</ele><time>2026-05-03T10:09:52.726Z</time></trkpt><trkpt lat="43.167929" lon="11.0918838"><ele>435.0</ele><time>2026-05-03T10:09:53.725Z</time></trkpt><trkpt lat="43.1680828" lon="11.0918766"><ele>435.0</ele><time>2026-05-03T10:09:54.738Z</time></trkpt><trkpt lat="43.1682095" lon="11.0918835"><ele>435.0</ele><time>2026-05-03T10:09:55.737Z</time></trkpt><trkpt lat="43.1683251" lon="11.0919688"><ele>435.0</ele><time>2026-05-03T10:09:56.721Z</time></trkpt><trkpt lat="43.168411" lon="11.0921238"><ele>435.25</ele><time>2026-05-03T10:09:57.733Z</time></trkpt><trkpt lat="43.1684713" lon="11.0923077"><ele>435.5</ele><time>2026-05-03T10:09:58.724Z</time></trkpt><trkpt lat="43.168527" lon="11.092491"><ele>435.75</ele><time>2026-05-03T10:09:59.737Z</time></trkpt><trkpt lat="43.168608" lon="11.0926307"><ele>436.0</ele><time>2026-05-03T10:10:00.741Z</time></trkpt><trkpt lat="43.16873" lon="11.0927184"><ele>432.33333333333337</ele><time>2026-05-03T10:10:01.729Z</time></trkpt><trkpt lat="43.168885" lon="11.0927487"><ele>428.66666666666663</ele><time>2026-05-03T10:10:02.735Z</time></trkpt><trkpt lat="43.1690494" lon="11.0927439"><ele>425.0</ele><time>2026-05-03T10:10:03.725Z</time></trkpt><trkpt lat="43.1692144" lon="11.0927291"><ele>424.25</ele><time>2026-05-03T10:10:04.732Z</time></trkpt><trkpt lat="43.1693602" lon="11.0927039"><ele>423.5</ele><time>2026-05-03T10:10:05.729Z</time></trkpt><trkpt lat="43.1694965" lon="11.0927023"><ele>422.75</ele><time>2026-05-03T10:10:06.736Z</time></trkpt><trkpt lat="43.1696231" lon="11.0928162"><ele>422.0</ele><time>2026-05-03T10:10:07.733Z</time></trkpt><trkpt lat="43.1697424" lon="11.093003"><ele>422.0</ele><time>2026-05-03T10:10:08.72Z</time></trkpt><trkpt lat="43.1698572" lon="11.0931773"><ele>422.0</ele><time>2026-05-03T10:10:09.733Z</time></trkpt><trkpt lat="43.1699714" lon="11.0933499"><ele>422.0</ele><time>2026-05-03T10:10:10.725Z</time></trkpt><trkpt lat="43.1700901" lon="11.0935231"><ele>423.0</ele><time>2026-05-03T10:10:11.729Z</time></trkpt><trkpt lat="43.1702105" lon="11.0937052"><ele>424.0</ele><time>2026-05-03T10:10:12.725Z</time></trkpt><trkpt lat="43.1703236" lon="11.0939095"><ele>425.0</ele><time>2026-05-03T10:10:13.722Z</time></trkpt><trkpt lat="43.170426" lon="11.0941414"><ele>420.3333333333333</ele><time>2026-05-03T10:10:14.721Z</time></trkpt><trkpt lat="43.1705102" lon="11.0943837"><ele>415.66666666666663</ele><time>2026-05-03T10:10:15.73Z</time></trkpt><trkpt lat="43.1705827" lon="11.0946382"><ele>411.0</ele><time>2026-05-03T10:10:16.723Z</time></trkpt><trkpt lat="43.170646" lon="11.0948965"><ele>414.33333333333337</ele><time>2026-05-03T10:10:17.733Z</time></trkpt><trkpt lat="43.1707036" lon="11.0951494"><ele>417.6666666666667</ele><time>2026-05-03T10:10:18.722Z</time></trkpt><trkpt lat="43.1707626" lon="11.0953889"><ele>421.0</ele><time>2026-05-03T10:10:19.732Z</time></trkpt><trkpt lat="43.1708237" lon="11.0956152"><ele>419.6666666666667</ele><time>2026-05-03T10:10:20.736Z</time></trkpt><trkpt lat="43.17088" lon="11.0958274"><ele>418.33333333333337</ele><time>2026-05-03T10:10:21.729Z</time></trkpt><trkpt lat="43.1709386" lon="11.0960203"><ele>417.0</ele><time>2026-05-03T10:10:22.727Z</time></trkpt><trkpt lat="43.171024" lon="11.0961648"><ele>417.0</ele><time>2026-05-03T10:10:23.734Z</time></trkpt><trkpt lat="43.1711422" lon="11.096244"><ele>417.0</ele><time>2026-05-03T10:10:24.739Z</time></trkpt><trkpt lat="43.1712762" lon="11.0962577"><ele>417.0</ele><time>2026-05-03T10:10:25.718Z</time></trkpt><trkpt lat="43.1714054" lon="11.0962119"><ele>417.0</ele><time>2026-05-03T10:10:26.697Z</time></trkpt><trkpt lat="43.1715382" lon="11.0961415"><ele>418.33333333333337</ele><time>2026-05-03T10:10:27.705Z</time></trkpt><trkpt lat="43.1716764" lon="11.0960485"><ele>419.6666666666667</ele><time>2026-05-03T10:10:28.71Z</time></trkpt><trkpt lat="43.171833" lon="11.095935"><ele>421.0</ele><time>2026-05-03T10:10:29.723Z</time></trkpt><trkpt lat="43.1719932" lon="11.0958218"><ele>419.0</ele><time>2026-05-03T10:10:30.717Z</time></trkpt><trkpt lat="43.172152" lon="11.095711"><ele>417.0</ele><time>2026-05-03T10:10:31.712Z</time></trkpt><trkpt lat="43.1723092" lon="11.0956024"><ele>415.0</ele><time>2026-05-03T10:10:32.728Z</time></trkpt><trkpt lat="43.1724656" lon="11.0955156"><ele>412.33333333333337</ele><time>2026-05-03T10:10:33.723Z</time></trkpt><trkpt lat="43.172621" lon="11.095466"><ele>409.66666666666663</ele><time>2026-05-03T10:10:34.726Z</time></trkpt><trkpt lat="43.172782" lon="11.0954606"><ele>407.0</ele><time>2026-05-03T10:10:35.725Z</time></trkpt><trkpt lat="43.1729483" lon="11.0954942"><ele>407.0</ele><time>2026-05-03T10:10:36.725Z</time></trkpt><trkpt lat="43.1731067" lon="11.0955383"><ele>407.0</ele><time>2026-05-03T10:10:37.721Z</time></trkpt><trkpt lat="43.1732724" lon="11.0956015"><ele>407.0</ele><time>2026-05-03T10:10:38.727Z</time></trkpt><trkpt lat="43.1734313" lon="11.0956744"><ele>404.0</ele><time>2026-05-03T10:10:39.741Z</time></trkpt><trkpt lat="43.1735851" lon="11.0957517"><ele>401.0</ele><time>2026-05-03T10:10:40.724Z</time></trkpt><trkpt lat="43.1737255" lon="11.0958333"><ele>398.0</ele><time>2026-05-03T10:10:41.738Z</time></trkpt><trkpt lat="43.1738449" lon="11.0959258"><ele>398.0</ele><time>2026-05-03T10:10:42.725Z</time></trkpt><trkpt lat="43.1739492" lon="11.0960208"><ele>398.0</ele><time>2026-05-03T10:10:43.736Z</time></trkpt><trkpt lat="43.1740362" lon="11.0961067"><ele>398.0</ele><time>2026-05-03T10:10:44.737Z</time></trkpt><trkpt lat="43.1741176" lon="11.0962057"><ele>398.0</ele><time>2026-05-03T10:10:45.73Z</time></trkpt><trkpt lat="43.1741868" lon="11.096311"><ele>398.0</ele><time>2026-05-03T10:10:46.745Z</time></trkpt><trkpt lat="43.1742537" lon="11.0964319"><ele>398.0</ele><time>2026-05-03T10:10:47.744Z</time></trkpt><trkpt lat="43.1743156" lon="11.0965876"><ele>398.0</ele><time>2026-05-03T10:10:48.729Z</time></trkpt><trkpt lat="43.1743803" lon="11.0967911"><ele>398.0</ele><time>2026-05-03T10:10:49.727Z</time></trkpt><trkpt lat="43.1744528" lon="11.0970349"><ele>398.0</ele><time>2026-05-03T10:10:50.717Z</time></trkpt><trkpt lat="43.1745273" lon="11.0972907"><ele>398.0</ele><time>2026-05-03T10:10:51.723Z</time></trkpt><trkpt lat="43.1745894" lon="11.097551"><ele>398.0</ele><time>2026-05-03T10:10:52.726Z</time></trkpt><trkpt lat="43.1746537" lon="11.0977889"><ele>394.3333333333333</ele><time>2026-05-03T10:10:53.731Z</time></trkpt><trkpt lat="43.1747114" lon="11.0979952"><ele>390.66666666666663</ele><time>2026-05-03T10:10:54.72Z</time></trkpt><trkpt lat="43.1747717" lon="11.0981953"><ele>387.0</ele><time>2026-05-03T10:10:55.718Z</time></trkpt><trkpt lat="43.1748345" lon="11.0983912"><ele>389.25</ele><time>2026-05-03T10:10:56.723Z</time></trkpt><trkpt lat="43.1748933" lon="11.0985745"><ele>391.5</ele><time>2026-05-03T10:10:57.735Z</time></trkpt><trkpt lat="43.1749486" lon="11.0987584"><ele>393.75</ele><time>2026-05-03T10:10:58.723Z</time></trkpt><trkpt lat="43.1749984" lon="11.0989516"><ele>396.0</ele><time>2026-05-03T10:10:59.743Z</time></trkpt><trkpt lat="43.1750553" lon="11.0991561"><ele>396.0</ele><time>2026-05-03T10:11:00.733Z</time></trkpt><trkpt lat="43.1751102" lon="11.09937"><ele>396.0</ele><time>2026-05-03T10:11:01.736Z</time></trkpt><trkpt lat="43.1751722" lon="11.099583"><ele>396.0</ele><time>2026-05-03T10:11:02.74Z</time></trkpt><trkpt lat="43.1752321" lon="11.0997903"><ele>396.0</ele><time>2026-05-03T10:11:03.733Z</time></trkpt><trkpt lat="43.1752933" lon="11.0999943"><ele>396.0</ele><time>2026-05-03T10:11:04.738Z</time></trkpt><trkpt lat="43.1753563" lon="11.1001873"><ele>396.0</ele><time>2026-05-03T10:11:05.723Z</time></trkpt><trkpt lat="43.1754205" lon="11.1003746"><ele>396.0</ele><time>2026-05-03T10:11:06.727Z</time></trkpt><trkpt lat="43.1754778" lon="11.1005467"><ele>396.0</ele><time>2026-05-03T10:11:07.731Z</time></trkpt><trkpt lat="43.1755221" lon="11.100672"><ele>396.0</ele><time>2026-05-03T10:11:08.724Z</time></trkpt><trkpt lat="43.1755416" lon="11.1007947"><ele>396.0</ele><time>2026-05-03T10:11:11.725Z</time></trkpt><trkpt lat="43.1755841" lon="11.1009986"><ele>395.0</ele><time>2026-05-03T10:11:13.734Z</time></trkpt><trkpt lat="43.1756344" lon="11.1011552"><ele>394.0</ele><time>2026-05-03T10:11:14.726Z</time></trkpt><trkpt lat="43.175691" lon="11.1013366"><ele>393.0</ele><time>2026-05-03T10:11:15.727Z</time></trkpt><trkpt lat="43.1757574" lon="11.1015297"><ele>392.0</ele><time>2026-05-03T10:11:16.746Z</time></trkpt><trkpt lat="43.1758249" lon="11.1017407"><ele>391.0</ele><time>2026-05-03T10:11:17.737Z</time></trkpt><trkpt lat="43.1758914" lon="11.1019689"><ele>390.0</ele><time>2026-05-03T10:11:18.734Z</time></trkpt><trkpt lat="43.1759627" lon="11.1022063"><ele>389.0</ele><time>2026-05-03T10:11:19.743Z</time></trkpt><trkpt lat="43.1760376" lon="11.1024576"><ele>388.3333333333333</ele><time>2026-05-03T10:11:20.729Z</time></trkpt><trkpt lat="43.1761125" lon="11.1027069"><ele>387.66666666666663</ele><time>2026-05-03T10:11:21.727Z</time></trkpt><trkpt lat="43.1761953" lon="11.1029572"><ele>387.0</ele><time>2026-05-03T10:11:22.72Z</time></trkpt><trkpt lat="43.1762879" lon="11.1032073"><ele>385.0</ele><time>2026-05-03T10:11:23.716Z</time></trkpt><trkpt lat="43.1763903" lon="11.103447"><ele>383.0</ele><time>2026-05-03T10:11:24.726Z</time></trkpt><trkpt lat="43.1765109" lon="11.1036797"><ele>381.0</ele><time>2026-05-03T10:11:25.735Z</time></trkpt><trkpt lat="43.1766479" lon="11.1039168"><ele>383.0</ele><time>2026-05-03T10:11:26.727Z</time></trkpt><trkpt lat="43.1767844" lon="11.1041534"><ele>385.0</ele><time>2026-05-03T10:11:27.727Z</time></trkpt><trkpt lat="43.1769303" lon="11.1043897"><ele>387.0</ele><time>2026-05-03T10:11:28.719Z</time></trkpt><trkpt lat="43.1770783" lon="11.1046276"><ele>387.0</ele><time>2026-05-03T10:11:29.727Z</time></trkpt><trkpt lat="43.1772225" lon="11.1048689"><ele>387.0</ele><time>2026-05-03T10:11:30.737Z</time></trkpt><trkpt lat="43.1773633" lon="11.1051089"><ele>384.6666666666667</ele><time>2026-05-03T10:11:31.738Z</time></trkpt><trkpt lat="43.1775041" lon="11.1053458"><ele>382.33333333333337</ele><time>2026-05-03T10:11:32.727Z</time></trkpt><trkpt lat="43.1776484" lon="11.1055848"><ele>380.0</ele><time>2026-05-03T10:11:33.726Z</time></trkpt><trkpt lat="43.1778012" lon="11.105834"><ele>377.5</ele><time>2026-05-03T10:11:34.728Z</time></trkpt><trkpt lat="43.1779704" lon="11.106085"><ele>375.0</ele><time>2026-05-03T10:11:35.734Z</time></trkpt><trkpt lat="43.178146" lon="11.1063237"><ele>375.0</ele><time>2026-05-03T10:11:36.735Z</time></trkpt><trkpt lat="43.1783194" lon="11.106545"><ele>375.0</ele><time>2026-05-03T10:11:37.721Z</time></trkpt><trkpt lat="43.1784835" lon="11.1067545"><ele>375.0</ele><time>2026-05-03T10:11:38.732Z</time></trkpt><trkpt lat="43.1786403" lon="11.1069395"><ele>375.0</ele><time>2026-05-03T10:11:39.728Z</time></trkpt><trkpt lat="43.1787982" lon="11.1071108"><ele>375.0</ele><time>2026-05-03T10:11:40.734Z</time></trkpt><trkpt lat="43.1789769" lon="11.1072515"><ele>374.6666666666667</ele><time>2026-05-03T10:11:41.741Z</time></trkpt><trkpt lat="43.1791679" lon="11.1073849"><ele>374.33333333333337</ele><time>2026-05-03T10:11:42.731Z</time></trkpt><trkpt lat="43.1793545" lon="11.1075149"><ele>374.0</ele><time>2026-05-03T10:11:43.731Z</time></trkpt><trkpt lat="43.1795305" lon="11.107636"><ele>374.0</ele><time>2026-05-03T10:11:44.74Z</time></trkpt><trkpt lat="43.1796998" lon="11.1077563"><ele>374.0</ele><time>2026-05-03T10:11:45.745Z</time></trkpt><trkpt lat="43.1798652" lon="11.1078799"><ele>374.0</ele><time>2026-05-03T10:11:46.736Z</time></trkpt><trkpt lat="43.1800341" lon="11.1079989"><ele>374.0</ele><time>2026-05-03T10:11:47.731Z</time></trkpt><trkpt lat="43.1802054" lon="11.1081217"><ele>374.0</ele><time>2026-05-03T10:11:48.728Z</time></trkpt><trkpt lat="43.180378" lon="11.1082411"><ele>374.0</ele><time>2026-05-03T10:11:49.724Z</time></trkpt><trkpt lat="43.1805503" lon="11.1083632"><ele>371.6666666666667</ele><time>2026-05-03T10:11:50.732Z</time></trkpt><trkpt lat="43.1807102" lon="11.108483"><ele>369.3333333333333</ele><time>2026-05-03T10:11:51.75Z</time></trkpt><trkpt lat="43.1808586" lon="11.1086089"><ele>367.0</ele><time>2026-05-03T10:11:52.733Z</time></trkpt><trkpt lat="43.1809969" lon="11.108756"><ele>367.0</ele><time>2026-05-03T10:11:53.735Z</time></trkpt><trkpt lat="43.1811234" lon="11.1089318"><ele>367.0</ele><time>2026-05-03T10:11:54.724Z</time></trkpt><trkpt lat="43.1812378" lon="11.1091291"><ele>367.0</ele><time>2026-05-03T10:11:55.717Z</time></trkpt><trkpt lat="43.1813525" lon="11.1093388"><ele>365.0</ele><time>2026-05-03T10:11:56.702Z</time></trkpt><trkpt lat="43.1814518" lon="11.1095514"><ele>363.0</ele><time>2026-05-03T10:11:57.712Z</time></trkpt><trkpt lat="43.1815325" lon="11.1097716"><ele>361.0</ele><time>2026-05-03T10:11:58.724Z</time></trkpt><trkpt lat="43.1815919" lon="11.1099953"><ele>359.66666666666663</ele><time>2026-05-03T10:11:59.718Z</time></trkpt><trkpt lat="43.1816399" lon="11.1102287"><ele>358.3333333333333</ele><time>2026-05-03T10:12:00.729Z</time></trkpt><trkpt lat="43.1816761" lon="11.1104678"><ele>357.0</ele><time>2026-05-03T10:12:01.726Z</time></trkpt><trkpt lat="43.1817067" lon="11.1107085"><ele>357.6666666666667</ele><time>2026-05-03T10:12:02.719Z</time></trkpt><trkpt lat="43.1817398" lon="11.1109453"><ele>358.33333333333337</ele><time>2026-05-03T10:12:03.737Z</time></trkpt><trkpt lat="43.1817768" lon="11.1111922"><ele>359.0</ele><time>2026-05-03T10:12:04.738Z</time></trkpt><trkpt lat="43.1818092" lon="11.111431"><ele>358.33333333333337</ele><time>2026-05-03T10:12:05.734Z</time></trkpt><trkpt lat="43.1818428" lon="11.1116681"><ele>357.6666666666667</ele><time>2026-05-03T10:12:06.725Z</time></trkpt><trkpt lat="43.1818828" lon="11.1119024"><ele>357.0</ele><time>2026-05-03T10:12:07.736Z</time></trkpt><trkpt lat="43.1819368" lon="11.1121386"><ele>357.0</ele><time>2026-05-03T10:12:08.741Z</time></trkpt><trkpt lat="43.1819949" lon="11.1123776"><ele>357.0</ele><time>2026-05-03T10:12:09.721Z</time></trkpt><trkpt lat="43.1820523" lon="11.1126193"><ele>357.0</ele><time>2026-05-03T10:12:10.731Z</time></trkpt><trkpt lat="43.1820957" lon="11.1128708"><ele>355.3333333333333</ele><time>2026-05-03T10:12:11.738Z</time></trkpt><trkpt lat="43.182124" lon="11.1131277"><ele>353.66666666666663</ele><time>2026-05-03T10:12:12.742Z</time></trkpt><trkpt lat="43.1821305" lon="11.1133788"><ele>352.0</ele><time>2026-05-03T10:12:13.725Z</time></trkpt><trkpt lat="43.1821214" lon="11.1136191"><ele>350.3333333333333</ele><time>2026-05-03T10:12:14.731Z</time></trkpt><trkpt lat="43.1821112" lon="11.1138496"><ele>348.6666666666667</ele><time>2026-05-03T10:12:15.74Z</time></trkpt><trkpt lat="43.1821233" lon="11.1140648"><ele>347.0</ele><time>2026-05-03T10:12:16.719Z</time></trkpt><trkpt lat="43.1821665" lon="11.1142577"><ele>346.0</ele><time>2026-05-03T10:12:17.737Z</time></trkpt><trkpt lat="43.1822425" lon="11.1144287"><ele>345.0</ele><time>2026-05-03T10:12:18.72Z</time></trkpt><trkpt lat="43.1823481" lon="11.1145689"><ele>344.0</ele><time>2026-05-03T10:12:19.728Z</time></trkpt><trkpt lat="43.1824755" lon="11.1146644"><ele>343.0</ele><time>2026-05-03T10:12:20.731Z</time></trkpt><trkpt lat="43.182621" lon="11.1147106"><ele>348.0</ele><time>2026-05-03T10:12:21.734Z</time></trkpt><trkpt lat="43.1827756" lon="11.1147252"><ele>353.0</ele><time>2026-05-03T10:12:22.731Z</time></trkpt><trkpt lat="43.1829432" lon="11.1147318"><ele>358.0</ele><time>2026-05-03T10:12:23.732Z</time></trkpt><trkpt lat="43.1831124" lon="11.1147361"><ele>357.66666666666663</ele><time>2026-05-03T10:12:24.729Z</time></trkpt><trkpt lat="43.183281" lon="11.1147422"><ele>357.3333333333333</ele><time>2026-05-03T10:12:25.724Z</time></trkpt><trkpt lat="43.1834488" lon="11.1147503"><ele>357.0</ele><time>2026-05-03T10:12:26.739Z</time></trkpt><trkpt lat="43.1836188" lon="11.1147562"><ele>357.0</ele><time>2026-05-03T10:12:27.738Z</time></trkpt><trkpt lat="43.1837822" lon="11.1147632"><ele>357.0</ele><time>2026-05-03T10:12:28.735Z</time></trkpt><trkpt lat="43.1839395" lon="11.1147648"><ele>357.0</ele><time>2026-05-03T10:12:29.731Z</time></trkpt><trkpt lat="43.1841055" lon="11.11479"><ele>354.3333333333333</ele><time>2026-05-03T10:12:30.733Z</time></trkpt><trkpt lat="43.1842734" lon="11.1148462"><ele>351.66666666666663</ele><time>2026-05-03T10:12:31.733Z</time></trkpt><trkpt lat="43.1844379" lon="11.1149435"><ele>349.0</ele><time>2026-05-03T10:12:32.74Z</time></trkpt><trkpt lat="43.1845866" lon="11.1150789"><ele>346.3333333333333</ele><time>2026-05-03T10:12:33.733Z</time></trkpt><trkpt lat="43.1847036" lon="11.1152474"><ele>343.6666666666667</ele><time>2026-05-03T10:12:34.726Z</time></trkpt><trkpt lat="43.1847804" lon="11.1154419"><ele>341.0</ele><time>2026-05-03T10:12:35.736Z</time></trkpt><trkpt lat="43.1848329" lon="11.1156651"><ele>340.33333333333337</ele><time>2026-05-03T10:12:36.728Z</time></trkpt><trkpt lat="43.1848616" lon="11.1158922"><ele>339.6666666666667</ele><time>2026-05-03T10:12:37.725Z</time></trkpt><trkpt lat="43.1848791" lon="11.1161182"><ele>339.0</ele><time>2026-05-03T10:12:38.722Z</time></trkpt><trkpt lat="43.1848989" lon="11.1163521"><ele>339.0</ele><time>2026-05-03T10:12:39.739Z</time></trkpt><trkpt lat="43.1849129" lon="11.116594"><ele>339.0</ele><time>2026-05-03T10:12:40.727Z</time></trkpt><trkpt lat="43.1849107" lon="11.1168407"><ele>339.0</ele><time>2026-05-03T10:12:41.73Z</time></trkpt><trkpt lat="43.1848987" lon="11.1170905"><ele>339.0</ele><time>2026-05-03T10:12:42.746Z</time></trkpt><trkpt lat="43.1848824" lon="11.1173376"><ele>339.0</ele><time>2026-05-03T10:12:43.725Z</time></trkpt><trkpt lat="43.1848656" lon="11.117586"><ele>339.0</ele><time>2026-05-03T10:12:44.71Z</time></trkpt><trkpt lat="43.184849" lon="11.1178388"><ele>337.6666666666667</ele><time>2026-05-03T10:12:45.747Z</time></trkpt><trkpt lat="43.1848314" lon="11.1180926"><ele>336.33333333333337</ele><time>2026-05-03T10:12:46.726Z</time></trkpt><trkpt lat="43.1848264" lon="11.118349"><ele>335.0</ele><time>2026-05-03T10:12:47.736Z</time></trkpt><trkpt lat="43.1848386" lon="11.1186118"><ele>335.0</ele><time>2026-05-03T10:12:48.721Z</time></trkpt><trkpt lat="43.1848634" lon="11.1188747"><ele>335.0</ele><time>2026-05-03T10:12:49.738Z</time></trkpt><trkpt lat="43.1848899" lon="11.119146"><ele>335.0</ele><time>2026-05-03T10:12:50.72Z</time></trkpt><trkpt lat="43.1849218" lon="11.1194151"><ele>335.0</ele><time>2026-05-03T10:12:51.732Z</time></trkpt><trkpt lat="43.1849557" lon="11.1196886"><ele>335.0</ele><time>2026-05-03T10:12:52.73Z</time></trkpt><trkpt lat="43.1849889" lon="11.119961"><ele>335.0</ele><time>2026-05-03T10:12:53.727Z</time></trkpt><trkpt lat="43.1850241" lon="11.1202308"><ele>333.6666666666667</ele><time>2026-05-03T10:12:54.73Z</time></trkpt><trkpt lat="43.1850534" lon="11.1204944"><ele>332.3333333333333</ele><time>2026-05-03T10:12:55.734Z</time></trkpt><trkpt lat="43.1850684" lon="11.1207459"><ele>331.0</ele><time>2026-05-03T10:12:56.736Z</time></trkpt><trkpt lat="43.1850742" lon="11.1209909"><ele>328.66666666666663</ele><time>2026-05-03T10:12:57.746Z</time></trkpt><trkpt lat="43.1850678" lon="11.1212358"><ele>326.3333333333333</ele><time>2026-05-03T10:12:58.735Z</time></trkpt><trkpt lat="43.1850445" lon="11.1214796"><ele>324.0</ele><time>2026-05-03T10:12:59.737Z</time></trkpt><trkpt lat="43.185023" lon="11.1217233"><ele>323.6666666666667</ele><time>2026-05-03T10:13:00.722Z</time></trkpt><trkpt lat="43.1850087" lon="11.1219642"><ele>323.33333333333337</ele><time>2026-05-03T10:13:01.727Z</time></trkpt><trkpt lat="43.1850155" lon="11.1222116"><ele>323.0</ele><time>2026-05-03T10:13:02.735Z</time></trkpt><trkpt lat="43.185061" lon="11.1224544"><ele>322.6666666666667</ele><time>2026-05-03T10:13:03.732Z</time></trkpt><trkpt lat="43.1851273" lon="11.12269"><ele>322.3333333333333</ele><time>2026-05-03T10:13:04.733Z</time></trkpt><trkpt lat="43.1852047" lon="11.1229219"><ele>322.0</ele><time>2026-05-03T10:13:05.738Z</time></trkpt><trkpt lat="43.1852844" lon="11.1231458"><ele>321.66666666666663</ele><time>2026-05-03T10:13:06.726Z</time></trkpt><trkpt lat="43.1853642" lon="11.1233687"><ele>321.3333333333333</ele><time>2026-05-03T10:13:07.718Z</time></trkpt><trkpt lat="43.1854365" lon="11.1235924"><ele>321.0</ele><time>2026-05-03T10:13:08.739Z</time></trkpt><trkpt lat="43.1855094" lon="11.1238161"><ele>321.0</ele><time>2026-05-03T10:13:09.723Z</time></trkpt><trkpt lat="43.1855879" lon="11.1240425"><ele>321.0</ele><time>2026-05-03T10:13:10.739Z</time></trkpt><trkpt lat="43.1856615" lon="11.1242743"><ele>321.0</ele><time>2026-05-03T10:13:11.73Z</time></trkpt><trkpt lat="43.1857402" lon="11.1245112"><ele>320.3333333333333</ele><time>2026-05-03T10:13:12.741Z</time></trkpt><trkpt lat="43.1858166" lon="11.1247564"><ele>319.66666666666663</ele><time>2026-05-03T10:13:13.726Z</time></trkpt><trkpt lat="43.1858948" lon="11.1250041"><ele>319.0</ele><time>2026-05-03T10:13:14.727Z</time></trkpt><trkpt lat="43.1859803" lon="11.1252546"><ele>318.0</ele><time>2026-05-03T10:13:15.751Z</time></trkpt><trkpt lat="43.1860665" lon="11.1255092"><ele>317.0</ele><time>2026-05-03T10:13:16.733Z</time></trkpt><trkpt lat="43.18615" lon="11.1257686"><ele>316.0</ele><time>2026-05-03T10:13:17.729Z</time></trkpt><trkpt lat="43.1862311" lon="11.1260293"><ele>315.0</ele><time>2026-05-03T10:13:18.726Z</time></trkpt><trkpt lat="43.1863142" lon="11.1262898"><ele>314.0</ele><time>2026-05-03T10:13:19.736Z</time></trkpt><trkpt lat="43.1864" lon="11.1265501"><ele>313.0</ele><time>2026-05-03T10:13:20.725Z</time></trkpt><trkpt lat="43.1864868" lon="11.1268113"><ele>311.3333333333333</ele><time>2026-05-03T10:13:21.746Z</time></trkpt><trkpt lat="43.1865741" lon="11.1270739"><ele>309.6666666666667</ele><time>2026-05-03T10:13:22.728Z</time></trkpt><trkpt lat="43.1866602" lon="11.1273355"><ele>308.0</ele><time>2026-05-03T10:13:23.742Z</time></trkpt><trkpt lat="43.1867476" lon="11.1275942"><ele>307.33333333333337</ele><time>2026-05-03T10:13:24.742Z</time></trkpt><trkpt lat="43.1868329" lon="11.1278475"><ele>306.6666666666667</ele><time>2026-05-03T10:13:25.729Z</time></trkpt><trkpt lat="43.1869182" lon="11.1280975"><ele>306.0</ele><time>2026-05-03T10:13:26.723Z</time></trkpt><trkpt lat="43.1870028" lon="11.1283508"><ele>306.0</ele><time>2026-05-03T10:13:27.73Z</time></trkpt><trkpt lat="43.1870888" lon="11.1286041"><ele>306.0</ele><time>2026-05-03T10:13:28.723Z</time></trkpt><trkpt lat="43.1871737" lon="11.128849"><ele>306.0</ele><time>2026-05-03T10:13:29.734Z</time></trkpt><trkpt lat="43.1872503" lon="11.1290827"><ele>306.3333333333333</ele><time>2026-05-03T10:13:30.733Z</time></trkpt><trkpt lat="43.187316" lon="11.1292998"><ele>306.66666666666663</ele><time>2026-05-03T10:13:31.742Z</time></trkpt><trkpt lat="43.1873536" lon="11.1295093"><ele>307.0</ele><time>2026-05-03T10:13:32.733Z</time></trkpt><trkpt lat="43.1873502" lon="11.1297095"><ele>307.3333333333333</ele><time>2026-05-03T10:13:33.727Z</time></trkpt><trkpt lat="43.1873062" lon="11.129915"><ele>307.6666666666667</ele><time>2026-05-03T10:13:34.734Z</time></trkpt><trkpt lat="43.1872349" lon="11.1301287"><ele>308.0</ele><time>2026-05-03T10:13:35.745Z</time></trkpt><trkpt lat="43.1871551" lon="11.1303512"><ele>308.0</ele><time>2026-05-03T10:13:36.731Z</time></trkpt><trkpt lat="43.1870933" lon="11.1305793"><ele>308.0</ele><time>2026-05-03T10:13:37.734Z</time></trkpt><trkpt lat="43.1870566" lon="11.1308126"><ele>308.0</ele><time>2026-05-03T10:13:38.726Z</time></trkpt><trkpt lat="43.1870284" lon="11.1310485"><ele>307.33333333333337</ele><time>2026-05-03T10:13:39.731Z</time></trkpt><trkpt lat="43.1869863" lon="11.1312829"><ele>306.6666666666667</ele><time>2026-05-03T10:13:40.723Z</time></trkpt><trkpt lat="43.1869285" lon="11.13152"><ele>306.0</ele><time>2026-05-03T10:13:41.732Z</time></trkpt><trkpt lat="43.1868534" lon="11.1317576"><ele>305.0</ele><time>2026-05-03T10:13:42.72Z</time></trkpt><trkpt lat="43.1867719" lon="11.1319845"><ele>304.0</ele><time>2026-05-03T10:13:43.731Z</time></trkpt><trkpt lat="43.1866921" lon="11.1322155"><ele>303.0</ele><time>2026-05-03T10:13:44.729Z</time></trkpt><trkpt lat="43.1866006" lon="11.1324334"><ele>303.3333333333333</ele><time>2026-05-03T10:13:45.752Z</time></trkpt><trkpt lat="43.1864997" lon="11.1326348"><ele>303.66666666666663</ele><time>2026-05-03T10:13:46.732Z</time></trkpt><trkpt lat="43.1863864" lon="11.1328063"><ele>304.0</ele><time>2026-05-03T10:13:47.732Z</time></trkpt><trkpt lat="43.1862764" lon="11.1329623"><ele>304.0</ele><time>2026-05-03T10:13:48.726Z</time></trkpt><trkpt lat="43.1861867" lon="11.1331206"><ele>304.0</ele><time>2026-05-03T10:13:49.738Z</time></trkpt><trkpt lat="43.186123" lon="11.1332947"><ele>304.0</ele><time>2026-05-03T10:13:50.721Z</time></trkpt><trkpt lat="43.1861127" lon="11.1334756"><ele>304.0</ele><time>2026-05-03T10:13:51.734Z</time></trkpt><trkpt lat="43.1861481" lon="11.1336687"><ele>300.0</ele><time>2026-05-03T10:13:52.728Z</time></trkpt><trkpt lat="43.186211" lon="11.1338712"><ele>296.0</ele><time>2026-05-03T10:13:53.727Z</time></trkpt><trkpt lat="43.1862804" lon="11.13408"><ele>292.0</ele><time>2026-05-03T10:13:54.727Z</time></trkpt><trkpt lat="43.1863519" lon="11.134296"><ele>292.3333333333333</ele><time>2026-05-03T10:13:55.726Z</time></trkpt><trkpt lat="43.1864181" lon="11.1345213"><ele>292.6666666666667</ele><time>2026-05-03T10:13:56.716Z</time></trkpt><trkpt lat="43.1864862" lon="11.134749"><ele>293.0</ele><time>2026-05-03T10:13:57.736Z</time></trkpt><trkpt lat="43.1865537" lon="11.1349814"><ele>293.0</ele><time>2026-05-03T10:13:58.729Z</time></trkpt><trkpt lat="43.1866216" lon="11.1352177"><ele>293.0</ele><time>2026-05-03T10:13:59.735Z</time></trkpt><trkpt lat="43.1866983" lon="11.1354506"><ele>293.0</ele><time>2026-05-03T10:14:00.741Z</time></trkpt><trkpt lat="43.1867736" lon="11.1356856"><ele>291.33333333333337</ele><time>2026-05-03T10:14:01.733Z</time></trkpt><trkpt lat="43.1868485" lon="11.135927"><ele>289.6666666666667</ele><time>2026-05-03T10:14:02.727Z</time></trkpt><trkpt lat="43.1869179" lon="11.1361752"><ele>288.0</ele><time>2026-05-03T10:14:03.745Z</time></trkpt><trkpt lat="43.1869941" lon="11.1364229"><ele>287.6666666666667</ele><time>2026-05-03T10:14:04.746Z</time></trkpt><trkpt lat="43.1870712" lon="11.1366714"><ele>287.33333333333337</ele><time>2026-05-03T10:14:05.722Z</time></trkpt><trkpt lat="43.187147" lon="11.1369268"><ele>287.0</ele><time>2026-05-03T10:14:06.729Z</time></trkpt><trkpt lat="43.1872251" lon="11.1371841"><ele>287.33333333333337</ele><time>2026-05-03T10:14:07.719Z</time></trkpt><trkpt lat="43.1873017" lon="11.137445"><ele>287.6666666666667</ele><time>2026-05-03T10:14:08.733Z</time></trkpt><trkpt lat="43.1873815" lon="11.1377056"><ele>288.0</ele><time>2026-05-03T10:14:09.74Z</time></trkpt><trkpt lat="43.1874569" lon="11.1379635"><ele>288.0</ele><time>2026-05-03T10:14:10.736Z</time></trkpt><trkpt lat="43.1875334" lon="11.1382098"><ele>288.0</ele><time>2026-05-03T10:14:11.74Z</time></trkpt><trkpt lat="43.1876063" lon="11.1384446"><ele>288.0</ele><time>2026-05-03T10:14:12.735Z</time></trkpt><trkpt lat="43.1876776" lon="11.138669"><ele>287.3333333333333</ele><time>2026-05-03T10:14:13.738Z</time></trkpt><trkpt lat="43.1877477" lon="11.1388981"><ele>286.66666666666663</ele><time>2026-05-03T10:14:14.745Z</time></trkpt><trkpt lat="43.187818" lon="11.1391317"><ele>286.0</ele><time>2026-05-03T10:14:15.738Z</time></trkpt><trkpt lat="43.1878857" lon="11.1393622"><ele>285.3333333333333</ele><time>2026-05-03T10:14:16.739Z</time></trkpt><trkpt lat="43.1879448" lon="11.1395739"><ele>284.6666666666667</ele><time>2026-05-03T10:14:17.729Z</time></trkpt><trkpt lat="43.1880029" lon="11.1397679"><ele>284.0</ele><time>2026-05-03T10:14:18.73Z</time></trkpt><trkpt lat="43.1880713" lon="11.1399534"><ele>283.33333333333337</ele><time>2026-05-03T10:14:19.738Z</time></trkpt><trkpt lat="43.1881587" lon="11.1401293"><ele>282.6666666666667</ele><time>2026-05-03T10:14:20.745Z</time></trkpt><trkpt lat="43.1882646" lon="11.1402885"><ele>282.0</ele><time>2026-05-03T10:14:21.74Z</time></trkpt><trkpt lat="43.1883822" lon="11.1404215"><ele>282.0</ele><time>2026-05-03T10:14:22.725Z</time></trkpt><trkpt lat="43.1885043" lon="11.1405341"><ele>282.0</ele><time>2026-05-03T10:14:23.72Z</time></trkpt><trkpt lat="43.1886357" lon="11.1406376"><ele>282.0</ele><time>2026-05-03T10:14:24.719Z</time></trkpt><trkpt lat="43.1887674" lon="11.1407296"><ele>282.0</ele><time>2026-05-03T10:14:25.727Z</time></trkpt><trkpt lat="43.1889007" lon="11.1408124"><ele>281.5</ele><time>2026-05-03T10:14:26.732Z</time></trkpt><trkpt lat="43.1890354" lon="11.1408918"><ele>281.0</ele><time>2026-05-03T10:14:27.73Z</time></trkpt><trkpt lat="43.1891683" lon="11.1409728"><ele>280.5</ele><time>2026-05-03T10:14:28.735Z</time></trkpt><trkpt lat="43.1892896" lon="11.1410475"><ele>280.0</ele><time>2026-05-03T10:14:29.732Z</time></trkpt><trkpt lat="43.189394" lon="11.1411099"><ele>280.0</ele><time>2026-05-03T10:14:30.729Z</time></trkpt><trkpt lat="43.1894847" lon="11.1411647"><ele>280.0</ele><time>2026-05-03T10:14:31.73Z</time></trkpt><trkpt lat="43.1895737" lon="11.1412213"><ele>280.0</ele><time>2026-05-03T10:14:32.73Z</time></trkpt><trkpt lat="43.1896557" lon="11.1412728"><ele>280.0</ele><time>2026-05-03T10:14:33.734Z</time></trkpt><trkpt lat="43.1897358" lon="11.1413215"><ele>280.0</ele><time>2026-05-03T10:14:34.739Z</time></trkpt><trkpt lat="43.1898212" lon="11.1413665"><ele>280.0</ele><time>2026-05-03T10:14:35.739Z</time></trkpt><trkpt lat="43.1899236" lon="11.141422"><ele>280.0</ele><time>2026-05-03T10:14:36.732Z</time></trkpt><trkpt lat="43.1900474" lon="11.1414947"><ele>280.0</ele><time>2026-05-03T10:14:37.725Z</time></trkpt><trkpt lat="43.1901844" lon="11.1415835"><ele>280.0</ele><time>2026-05-03T10:14:38.73Z</time></trkpt><trkpt lat="43.1903312" lon="11.141679"><ele>280.0</ele><time>2026-05-03T10:14:39.738Z</time></trkpt><trkpt lat="43.1904869" lon="11.1417766"><ele>280.0</ele><time>2026-05-03T10:14:40.725Z</time></trkpt><trkpt lat="43.1906482" lon="11.1418718"><ele>280.0</ele><time>2026-05-03T10:14:41.741Z</time></trkpt><trkpt lat="43.1908123" lon="11.1419691"><ele>279.0</ele><time>2026-05-03T10:14:42.733Z</time></trkpt><trkpt lat="43.190972" lon="11.142066"><ele>278.0</ele><time>2026-05-03T10:14:43.735Z</time></trkpt><trkpt lat="43.1911329" lon="11.1421631"><ele>277.0</ele><time>2026-05-03T10:14:44.732Z</time></trkpt><trkpt lat="43.1912983" lon="11.1422614"><ele>277.0</ele><time>2026-05-03T10:14:45.738Z</time></trkpt><trkpt lat="43.191465" lon="11.1423623"><ele>277.0</ele><time>2026-05-03T10:14:46.73Z</time></trkpt><trkpt lat="43.1916391" lon="11.1424712"><ele>277.0</ele><time>2026-05-03T10:14:47.732Z</time></trkpt><trkpt lat="43.1918179" lon="11.1425781"><ele>276.66666666666663</ele><time>2026-05-03T10:14:48.73Z</time></trkpt><trkpt lat="43.1920035" lon="11.1426955"><ele>276.3333333333333</ele><time>2026-05-03T10:14:49.734Z</time></trkpt><trkpt lat="43.1922064" lon="11.1428139"><ele>276.0</ele><time>2026-05-03T10:14:50.736Z</time></trkpt><trkpt lat="43.1924254" lon="11.142943"><ele>275.0</ele><time>2026-05-03T10:14:51.742Z</time></trkpt><trkpt lat="43.19266" lon="11.1430855"><ele>274.0</ele><time>2026-05-03T10:14:52.737Z</time></trkpt><trkpt lat="43.1929083" lon="11.1432349"><ele>274.0</ele><time>2026-05-03T10:14:53.728Z</time></trkpt><trkpt lat="43.1931689" lon="11.1433879"><ele>274.0</ele><time>2026-05-03T10:14:54.712Z</time></trkpt><trkpt lat="43.1934324" lon="11.1435502"><ele>275.0</ele><time>2026-05-03T10:14:55.735Z</time></trkpt><trkpt lat="43.1936989" lon="11.1437117"><ele>276.0</ele><time>2026-05-03T10:14:56.724Z</time></trkpt><trkpt lat="43.193971" lon="11.1438712"><ele>274.5</ele><time>2026-05-03T10:14:57.723Z</time></trkpt><trkpt lat="43.1942421" lon="11.1440303"><ele>273.0</ele><time>2026-05-03T10:14:58.734Z</time></trkpt><trkpt lat="43.1945035" lon="11.1441887"><ele>273.0</ele><time>2026-05-03T10:14:59.723Z</time></trkpt><trkpt lat="43.1947446" lon="11.1443458"><ele>273.0</ele><time>2026-05-03T10:15:00.734Z</time></trkpt><trkpt lat="43.1949716" lon="11.1444966"><ele>273.0</ele><time>2026-05-03T10:15:01.733Z</time></trkpt><trkpt lat="43.1951931" lon="11.1446434"><ele>273.0</ele><time>2026-05-03T10:15:02.724Z</time></trkpt><trkpt lat="43.1954085" lon="11.1447813"><ele>273.5</ele><time>2026-05-03T10:15:03.726Z</time></trkpt><trkpt lat="43.1956238" lon="11.1449044"><ele>274.0</ele><time>2026-05-03T10:15:04.718Z</time></trkpt><trkpt lat="43.1958462" lon="11.1450199"><ele>275.5</ele><time>2026-05-03T10:15:05.735Z</time></trkpt><trkpt lat="43.1960758" lon="11.1451258"><ele>277.0</ele><time>2026-05-03T10:15:06.725Z</time></trkpt><trkpt lat="43.1963074" lon="11.1452243"><ele>278.5</ele><time>2026-05-03T10:15:07.737Z</time></trkpt><trkpt lat="43.1965375" lon="11.1453146"><ele>280.0</ele><time>2026-05-03T10:15:08.727Z</time></trkpt><trkpt lat="43.196767" lon="11.1453983"><ele>280.0</ele><time>2026-05-03T10:15:09.742Z</time></trkpt><trkpt lat="43.1969938" lon="11.1454777"><ele>280.0</ele><time>2026-05-03T10:15:10.724Z</time></trkpt><trkpt lat="43.1972159" lon="11.145535"><ele>283.0</ele><time>2026-05-03T10:15:11.75Z</time></trkpt><trkpt lat="43.1974414" lon="11.1455593"><ele>286.0</ele><time>2026-05-03T10:15:12.743Z</time></trkpt><trkpt lat="43.1976702" lon="11.1455389"><ele>286.0</ele><time>2026-05-03T10:15:13.731Z</time></trkpt><trkpt lat="43.1978984" lon="11.1454752"><ele>286.0</ele><time>2026-05-03T10:15:14.728Z</time></trkpt><trkpt lat="43.1981207" lon="11.1454003"><ele>287.3333333333333</ele><time>2026-05-03T10:15:15.726Z</time></trkpt><trkpt lat="43.1983352" lon="11.145343"><ele>288.6666666666667</ele><time>2026-05-03T10:15:16.729Z</time></trkpt><trkpt lat="43.1985516" lon="11.1453179"><ele>290.0</ele><time>2026-05-03T10:15:17.734Z</time></trkpt><trkpt lat="43.1987738" lon="11.1453199"><ele>291.5</ele><time>2026-05-03T10:15:18.737Z</time></trkpt><trkpt lat="43.1990083" lon="11.145356"><ele>293.0</ele><time>2026-05-03T10:15:19.747Z</time></trkpt><trkpt lat="43.1992392" lon="11.1453985"><ele>293.0</ele><time>2026-05-03T10:15:20.744Z</time></trkpt><trkpt lat="43.1994551" lon="11.1454424"><ele>293.0</ele><time>2026-05-03T10:15:21.718Z</time></trkpt><trkpt lat="43.1996615" lon="11.145494"><ele>293.0</ele><time>2026-05-03T10:15:22.722Z</time></trkpt><trkpt lat="43.1998592" lon="11.1455571"><ele>294.0</ele><time>2026-05-03T10:15:23.728Z</time></trkpt><trkpt lat="43.2000429" lon="11.1456391"><ele>295.0</ele><time>2026-05-03T10:15:24.724Z</time></trkpt><trkpt lat="43.2002167" lon="11.1457441"><ele>296.0</ele><time>2026-05-03T10:15:25.737Z</time></trkpt><trkpt lat="43.2003809" lon="11.1458699"><ele>296.0</ele><time>2026-05-03T10:15:26.735Z</time></trkpt><trkpt lat="43.2005328" lon="11.146002"><ele>296.0</ele><time>2026-05-03T10:15:27.731Z</time></trkpt><trkpt lat="43.2006761" lon="11.146142"><ele>296.0</ele><time>2026-05-03T10:15:28.728Z</time></trkpt><trkpt lat="43.2008159" lon="11.1462739"><ele>296.0</ele><time>2026-05-03T10:15:29.723Z</time></trkpt><trkpt lat="43.2009615" lon="11.1463988"><ele>296.0</ele><time>2026-05-03T10:15:30.737Z</time></trkpt><trkpt lat="43.2011105" lon="11.1465136"><ele>296.0</ele><time>2026-05-03T10:15:31.726Z</time></trkpt><trkpt lat="43.2012625" lon="11.1466139"><ele>295.5</ele><time>2026-05-03T10:15:32.72Z</time></trkpt><trkpt lat="43.2014039" lon="11.1466996"><ele>295.0</ele><time>2026-05-03T10:15:33.744Z</time></trkpt><trkpt lat="43.2015339" lon="11.146778"><ele>294.5</ele><time>2026-05-03T10:15:34.725Z</time></trkpt><trkpt lat="43.2016579" lon="11.1468545"><ele>294.0</ele><time>2026-05-03T10:15:35.738Z</time></trkpt><trkpt lat="43.2017801" lon="11.1469137"><ele>295.75</ele><time>2026-05-03T10:15:36.729Z</time></trkpt><trkpt lat="43.2019077" lon="11.1469554"><ele>297.5</ele><time>2026-05-03T10:15:37.742Z</time></trkpt><trkpt lat="43.2020288" lon="11.1469699"><ele>299.25</ele><time>2026-05-03T10:15:38.717Z</time></trkpt><trkpt lat="43.2021413" lon="11.1469674"><ele>301.0</ele><time>2026-05-03T10:15:39.732Z</time></trkpt><trkpt lat="43.2022455" lon="11.1469675"><ele>303.5</ele><time>2026-05-03T10:15:40.725Z</time></trkpt><trkpt lat="43.202353" lon="11.1469733"><ele>306.0</ele><time>2026-05-03T10:15:41.72Z</time></trkpt><trkpt lat="43.202469" lon="11.147"><ele>308.5</ele><time>2026-05-03T10:15:42.734Z</time></trkpt><trkpt lat="43.2025867" lon="11.1470512"><ele>311.0</ele><time>2026-05-03T10:15:43.728Z</time></trkpt><trkpt lat="43.2026912" lon="11.1471331"><ele>311.0</ele><time>2026-05-03T10:15:44.725Z</time></trkpt><trkpt lat="43.2027731" lon="11.1472519"><ele>311.0</ele><time>2026-05-03T10:15:45.73Z</time></trkpt><trkpt lat="43.2028322" lon="11.1473972"><ele>311.0</ele><time>2026-05-03T10:15:46.716Z</time></trkpt><trkpt lat="43.2028778" lon="11.1475575"><ele>311.0</ele><time>2026-05-03T10:15:47.728Z</time></trkpt><trkpt lat="43.2029234" lon="11.1477099"><ele>310.25</ele><time>2026-05-03T10:15:48.727Z</time></trkpt><trkpt lat="43.2029752" lon="11.1478595"><ele>309.5</ele><time>2026-05-03T10:15:49.727Z</time></trkpt><trkpt lat="43.2030329" lon="11.1480083"><ele>308.75</ele><time>2026-05-03T10:15:50.725Z</time></trkpt><trkpt lat="43.2031052" lon="11.1481665"><ele>308.0</ele><time>2026-05-03T10:15:51.726Z</time></trkpt><trkpt lat="43.2032043" lon="11.1483313"><ele>308.0</ele><time>2026-05-03T10:15:52.726Z</time></trkpt><trkpt lat="43.2033289" lon="11.1484996"><ele>308.0</ele><time>2026-05-03T10:15:53.724Z</time></trkpt><trkpt lat="43.2034695" lon="11.1486844"><ele>308.0</ele><time>2026-05-03T10:15:54.724Z</time></trkpt><trkpt lat="43.2036079" lon="11.1488882"><ele>311.0</ele><time>2026-05-03T10:15:55.729Z</time></trkpt><trkpt lat="43.2037325" lon="11.149105"><ele>314.0</ele><time>2026-05-03T10:15:56.731Z</time></trkpt><trkpt lat="43.2038576" lon="11.149325"><ele>317.0</ele><time>2026-05-03T10:15:57.742Z</time></trkpt><trkpt lat="43.203993" lon="11.1495311"><ele>315.33333333333337</ele><time>2026-05-03T10:15:58.736Z</time></trkpt><trkpt lat="43.2041256" lon="11.1497103"><ele>313.6666666666667</ele><time>2026-05-03T10:15:59.736Z</time></trkpt><trkpt lat="43.2042639" lon="11.1498518"><ele>312.0</ele><time>2026-05-03T10:16:00.731Z</time></trkpt><trkpt lat="43.204397" lon="11.149942"><ele>314.0</ele><time>2026-05-03T10:16:01.726Z</time></trkpt><trkpt lat="43.2045332" lon="11.1499955"><ele>316.0</ele><time>2026-05-03T10:16:02.722Z</time></trkpt><trkpt lat="43.2046644" lon="11.1499879"><ele>318.0</ele><time>2026-05-03T10:16:03.724Z</time></trkpt><trkpt lat="43.2047938" lon="11.149918"><ele>320.0</ele><time>2026-05-03T10:16:04.729Z</time></trkpt><trkpt lat="43.2049074" lon="11.1497919"><ele>320.0</ele><time>2026-05-03T10:16:05.738Z</time></trkpt><trkpt lat="43.2049985" lon="11.1496266"><ele>320.0</ele><time>2026-05-03T10:16:06.757Z</time></trkpt><trkpt lat="43.2050918" lon="11.1494648"><ele>320.0</ele><time>2026-05-03T10:16:07.727Z</time></trkpt><trkpt lat="43.2052038" lon="11.1493364"><ele>320.0</ele><time>2026-05-03T10:16:08.724Z</time></trkpt><trkpt lat="43.2053318" lon="11.1492518"><ele>320.0</ele><time>2026-05-03T10:16:09.747Z</time></trkpt><trkpt lat="43.2054449" lon="11.1491789"><ele>320.0</ele><time>2026-05-03T10:16:10.722Z</time></trkpt><trkpt lat="43.2055277" lon="11.1490703"><ele>320.0</ele><time>2026-05-03T10:16:11.728Z</time></trkpt><trkpt lat="43.2055647" lon="11.14893"><ele>320.0</ele><time>2026-05-03T10:16:12.729Z</time></trkpt><trkpt lat="43.2055417" lon="11.1487734"><ele>321.75</ele><time>2026-05-03T10:16:13.726Z</time></trkpt><trkpt lat="43.2054851" lon="11.148626"><ele>323.5</ele><time>2026-05-03T10:16:14.715Z</time></trkpt><trkpt lat="43.2053839" lon="11.1485073"><ele>325.25</ele><time>2026-05-03T10:16:15.737Z</time></trkpt><trkpt lat="43.2052501" lon="11.1484341"><ele>327.0</ele><time>2026-05-03T10:16:16.723Z</time></trkpt><trkpt lat="43.2051094" lon="11.1483917"><ele>327.0</ele><time>2026-05-03T10:16:17.725Z</time></trkpt><trkpt lat="43.2049863" lon="11.1483412"><ele>327.0</ele><time>2026-05-03T10:16:18.724Z</time></trkpt><trkpt lat="43.2048998" lon="11.1482605"><ele>327.0</ele><time>2026-05-03T10:16:19.728Z</time></trkpt><trkpt lat="43.204861" lon="11.1481481"><ele>327.0</ele><time>2026-05-03T10:16:20.725Z</time></trkpt><trkpt lat="43.2048707" lon="11.14802"><ele>327.0</ele><time>2026-05-03T10:16:21.731Z</time></trkpt><trkpt lat="43.2049232" lon="11.1479111"><ele>330.25</ele><time>2026-05-03T10:16:22.724Z</time></trkpt><trkpt lat="43.205012" lon="11.1478374"><ele>333.5</ele><time>2026-05-03T10:16:23.729Z</time></trkpt><trkpt lat="43.2051368" lon="11.1478087"><ele>336.75</ele><time>2026-05-03T10:16:24.736Z</time></trkpt><trkpt lat="43.2052907" lon="11.1478208"><ele>340.0</ele><time>2026-05-03T10:16:25.718Z</time></trkpt><trkpt lat="43.2054599" lon="11.1478526"><ele>340.0</ele><time>2026-05-03T10:16:26.718Z</time></trkpt><trkpt lat="43.2056361" lon="11.1479158"><ele>340.0</ele><time>2026-05-03T10:16:27.725Z</time></trkpt><trkpt lat="43.2058027" lon="11.1479964"><ele>340.0</ele><time>2026-05-03T10:16:28.731Z</time></trkpt><trkpt lat="43.2059547" lon="11.1481015"><ele>340.5</ele><time>2026-05-03T10:16:29.735Z</time></trkpt><trkpt lat="43.2060858" lon="11.1482046"><ele>341.0</ele><time>2026-05-03T10:16:30.729Z</time></trkpt><trkpt lat="43.2061985" lon="11.1482951"><ele>341.5</ele><time>2026-05-03T10:16:31.734Z</time></trkpt><trkpt lat="43.2063112" lon="11.148394"><ele>342.0</ele><time>2026-05-03T10:16:32.72Z</time></trkpt><trkpt lat="43.2064316" lon="11.1484956"><ele>344.0</ele><time>2026-05-03T10:16:33.725Z</time></trkpt><trkpt lat="43.2065585" lon="11.148602"><ele>346.0</ele><time>2026-05-03T10:16:34.731Z</time></trkpt><trkpt lat="43.2066924" lon="11.1487131"><ele>348.0</ele><time>2026-05-03T10:16:35.731Z</time></trkpt><trkpt lat="43.2068269" lon="11.1488208"><ele>348.0</ele><time>2026-05-03T10:16:36.72Z</time></trkpt><trkpt lat="43.2069571" lon="11.148921"><ele>348.0</ele><time>2026-05-03T10:16:37.73Z</time></trkpt><trkpt lat="43.2070884" lon="11.1490326"><ele>348.0</ele><time>2026-05-03T10:16:38.724Z</time></trkpt><trkpt lat="43.2072304" lon="11.1491511"><ele>349.6666666666667</ele><time>2026-05-03T10:16:39.731Z</time></trkpt><trkpt lat="43.2073811" lon="11.1492871"><ele>351.33333333333337</ele><time>2026-05-03T10:16:40.728Z</time></trkpt><trkpt lat="43.2075437" lon="11.1494296"><ele>353.0</ele><time>2026-05-03T10:16:41.734Z</time></trkpt><trkpt lat="43.2077106" lon="11.1495721"><ele>353.0</ele><time>2026-05-03T10:16:42.732Z</time></trkpt><trkpt lat="43.2078771" lon="11.1497393"><ele>353.0</ele><time>2026-05-03T10:16:43.736Z</time></trkpt><trkpt lat="43.2080353" lon="11.1499352"><ele>353.0</ele><time>2026-05-03T10:16:44.721Z</time></trkpt><trkpt lat="43.2081647" lon="11.1501738"><ele>354.33333333333337</ele><time>2026-05-03T10:16:45.732Z</time></trkpt><trkpt lat="43.208273" lon="11.1504351"><ele>355.6666666666667</ele><time>2026-05-03T10:16:46.745Z</time></trkpt><trkpt lat="43.2083687" lon="11.1507014"><ele>357.0</ele><time>2026-05-03T10:16:47.731Z</time></trkpt><trkpt lat="43.208472" lon="11.1509555"><ele>360.0</ele><time>2026-05-03T10:16:48.737Z</time></trkpt><trkpt lat="43.2085882" lon="11.1511666"><ele>363.0</ele><time>2026-05-03T10:16:49.739Z</time></trkpt><trkpt lat="43.2087287" lon="11.1513283"><ele>366.0</ele><time>2026-05-03T10:16:50.722Z</time></trkpt><trkpt lat="43.2088877" lon="11.151428"><ele>366.0</ele><time>2026-05-03T10:16:51.733Z</time></trkpt><trkpt lat="43.209059" lon="11.1514719"><ele>366.0</ele><time>2026-05-03T10:16:52.717Z</time></trkpt><trkpt lat="43.2092423" lon="11.1514604"><ele>366.0</ele><time>2026-05-03T10:16:53.739Z</time></trkpt><trkpt lat="43.2094332" lon="11.1514168"><ele>366.0</ele><time>2026-05-03T10:16:54.737Z</time></trkpt><trkpt lat="43.2096303" lon="11.1513516"><ele>366.0</ele><time>2026-05-03T10:16:55.73Z</time></trkpt><trkpt lat="43.209826" lon="11.1512844"><ele>366.0</ele><time>2026-05-03T10:16:56.731Z</time></trkpt><trkpt lat="43.2100266" lon="11.1512255"><ele>367.6666666666667</ele><time>2026-05-03T10:16:57.736Z</time></trkpt><trkpt lat="43.2102326" lon="11.1511788"><ele>369.33333333333337</ele><time>2026-05-03T10:16:58.747Z</time></trkpt><trkpt lat="43.2104369" lon="11.1511471"><ele>371.0</ele><time>2026-05-03T10:16:59.735Z</time></trkpt><trkpt lat="43.2106411" lon="11.1511339"><ele>372.33333333333337</ele><time>2026-05-03T10:17:00.733Z</time></trkpt><trkpt lat="43.2108449" lon="11.1511334"><ele>373.6666666666667</ele><time>2026-05-03T10:17:01.731Z</time></trkpt><trkpt lat="43.211051" lon="11.1511341"><ele>375.0</ele><time>2026-05-03T10:17:02.727Z</time></trkpt><trkpt lat="43.2112568" lon="11.1511384"><ele>375.0</ele><time>2026-05-03T10:17:03.736Z</time></trkpt><trkpt lat="43.2114636" lon="11.1511468"><ele>375.0</ele><time>2026-05-03T10:17:04.742Z</time></trkpt><trkpt lat="43.2116735" lon="11.1511585"><ele>375.0</ele><time>2026-05-03T10:17:05.728Z</time></trkpt><trkpt lat="43.211883" lon="11.1511774"><ele>376.6666666666667</ele><time>2026-05-03T10:17:06.726Z</time></trkpt><trkpt lat="43.2120806" lon="11.1512198"><ele>378.33333333333337</ele><time>2026-05-03T10:17:07.731Z</time></trkpt><trkpt lat="43.2122692" lon="11.1512966"><ele>380.0</ele><time>2026-05-03T10:17:08.728Z</time></trkpt><trkpt lat="43.2124369" lon="11.1514103"><ele>384.0</ele><time>2026-05-03T10:17:09.725Z</time></trkpt><trkpt lat="43.2125836" lon="11.1515628"><ele>388.0</ele><time>2026-05-03T10:17:10.751Z</time></trkpt><trkpt lat="43.2127055" lon="11.1517509"><ele>392.0</ele><time>2026-05-03T10:17:11.737Z</time></trkpt><trkpt lat="43.2128018" lon="11.1519603"><ele>392.0</ele><time>2026-05-03T10:17:12.734Z</time></trkpt><trkpt lat="43.2128872" lon="11.1521944"><ele>392.0</ele><time>2026-05-03T10:17:13.739Z</time></trkpt><trkpt lat="43.2129691" lon="11.1524472"><ele>392.0</ele><time>2026-05-03T10:17:14.726Z</time></trkpt><trkpt lat="43.2130499" lon="11.1527045"><ele>394.3333333333333</ele><time>2026-05-03T10:17:15.748Z</time></trkpt><trkpt lat="43.2131342" lon="11.1529623"><ele>396.66666666666663</ele><time>2026-05-03T10:17:16.726Z</time></trkpt><trkpt lat="43.2132243" lon="11.1532106"><ele>399.0</ele><time>2026-05-03T10:17:17.732Z</time></trkpt><trkpt lat="43.2133148" lon="11.1534427"><ele>399.33333333333337</ele><time>2026-05-03T10:17:18.733Z</time></trkpt><trkpt lat="43.2134219" lon="11.1536431"><ele>399.6666666666667</ele><time>2026-05-03T10:17:19.733Z</time></trkpt><trkpt lat="43.2135558" lon="11.1537996"><ele>400.0</ele><time>2026-05-03T10:17:20.726Z</time></trkpt><trkpt lat="43.213713" lon="11.1539106"><ele>400.0</ele><time>2026-05-03T10:17:21.728Z</time></trkpt><trkpt lat="43.213886" lon="11.1539635"><ele>400.0</ele><time>2026-05-03T10:17:22.734Z</time></trkpt><trkpt lat="43.2140697" lon="11.1539667"><ele>400.0</ele><time>2026-05-03T10:17:23.722Z</time></trkpt><trkpt lat="43.2142539" lon="11.153937"><ele>400.33333333333337</ele><time>2026-05-03T10:17:24.728Z</time></trkpt><trkpt lat="43.2144361" lon="11.1538984"><ele>400.66666666666663</ele><time>2026-05-03T10:17:25.742Z</time></trkpt><trkpt lat="43.2146063" lon="11.1538675"><ele>401.0</ele><time>2026-05-03T10:17:26.729Z</time></trkpt><trkpt lat="43.2147556" lon="11.1538539"><ele>401.75</ele><time>2026-05-03T10:17:27.738Z</time></trkpt><trkpt lat="43.2148947" lon="11.1538335"><ele>402.5</ele><time>2026-05-03T10:17:28.726Z</time></trkpt><trkpt lat="43.215023" lon="11.1538197"><ele>403.25</ele><time>2026-05-03T10:17:29.723Z</time></trkpt><trkpt lat="43.2151415" lon="11.153803"><ele>404.0</ele><time>2026-05-03T10:17:30.726Z</time></trkpt><trkpt lat="43.2152543" lon="11.1537906"><ele>404.0</ele><time>2026-05-03T10:17:31.725Z</time></trkpt><trkpt lat="43.2153686" lon="11.1537959"><ele>404.0</ele><time>2026-05-03T10:17:32.744Z</time></trkpt><trkpt lat="43.2154841" lon="11.1538175"><ele>404.0</ele><time>2026-05-03T10:17:33.724Z</time></trkpt><trkpt lat="43.215603" lon="11.1538578"><ele>404.0</ele><time>2026-05-03T10:17:34.75Z</time></trkpt><trkpt lat="43.2157255" lon="11.1539209"><ele>404.25</ele><time>2026-05-03T10:17:35.732Z</time></trkpt><trkpt lat="43.2158459" lon="11.1540132"><ele>404.5</ele><time>2026-05-03T10:17:36.726Z</time></trkpt><trkpt lat="43.2159614" lon="11.1541339"><ele>404.75</ele><time>2026-05-03T10:17:37.725Z</time></trkpt><trkpt lat="43.2160738" lon="11.1542787"><ele>405.0</ele><time>2026-05-03T10:17:38.734Z</time></trkpt><trkpt lat="43.2161822" lon="11.1544347"><ele>406.75</ele><time>2026-05-03T10:17:39.722Z</time></trkpt><trkpt lat="43.2162759" lon="11.154592"><ele>408.5</ele><time>2026-05-03T10:17:40.728Z</time></trkpt><trkpt lat="43.2163432" lon="11.1547537"><ele>410.25</ele><time>2026-05-03T10:17:41.741Z</time></trkpt><trkpt lat="43.2163746" lon="11.15491"><ele>412.0</ele><time>2026-05-03T10:17:42.727Z</time></trkpt><trkpt lat="43.2163693" lon="11.1550593"><ele>412.00000000000006</ele><time>2026-05-03T10:17:43.719Z</time></trkpt><trkpt lat="43.2163607" lon="11.155206"><ele>412.0</ele><time>2026-05-03T10:17:44.718Z</time></trkpt><trkpt lat="43.2163763" lon="11.1553248"><ele>412.0</ele><time>2026-05-03T10:17:45.726Z</time></trkpt><trkpt lat="43.2164169" lon="11.155414"><ele>412.0</ele><time>2026-05-03T10:17:46.721Z</time></trkpt><trkpt lat="43.2164802" lon="11.1554758"><ele>412.00000000000006</ele><time>2026-05-03T10:17:47.724Z</time></trkpt><trkpt lat="43.2165533" lon="11.1555168"><ele>412.0</ele><time>2026-05-03T10:17:48.728Z</time></trkpt><trkpt lat="43.2166299" lon="11.1555592"><ele>412.00000000000006</ele><time>2026-05-03T10:17:49.721Z</time></trkpt><trkpt lat="43.2167076" lon="11.1556021"><ele>412.0</ele><time>2026-05-03T10:17:50.725Z</time></trkpt><trkpt lat="43.2167712" lon="11.1556577"><ele>412.0</ele><time>2026-05-03T10:17:51.725Z</time></trkpt><trkpt lat="43.2168145" lon="11.1557365"><ele>412.0</ele><time>2026-05-03T10:17:52.729Z</time></trkpt><trkpt lat="43.2168365" lon="11.1558397"><ele>412.00000000000006</ele><time>2026-05-03T10:17:53.731Z</time></trkpt><trkpt lat="43.2168327" lon="11.1559517"><ele>412.0</ele><time>2026-05-03T10:17:54.724Z</time></trkpt><trkpt lat="43.216818" lon="11.1560543"><ele>413.50000000000006</ele><time>2026-05-03T10:17:55.728Z</time></trkpt><trkpt lat="43.2167993" lon="11.1561631"><ele>415.0</ele><time>2026-05-03T10:17:56.719Z</time></trkpt><trkpt lat="43.2168" lon="11.1562812"><ele>416.5</ele><time>2026-05-03T10:17:57.718Z</time></trkpt><trkpt lat="43.2168369" lon="11.1563887"><ele>418.0</ele><time>2026-05-03T10:17:58.729Z</time></trkpt><trkpt lat="43.2169073" lon="11.1564594"><ele>419.50000000000006</ele><time>2026-05-03T10:17:59.723Z</time></trkpt><trkpt lat="43.2169889" lon="11.1564832"><ele>421.0</ele><time>2026-05-03T10:18:00.722Z</time></trkpt><trkpt lat="43.2170669" lon="11.1564639"><ele>421.00000000000006</ele><time>2026-05-03T10:18:01.721Z</time></trkpt><trkpt lat="43.2171386" lon="11.1564251"><ele>421.0</ele><time>2026-05-03T10:18:02.715Z</time></trkpt><trkpt lat="43.2172163" lon="11.1563886"><ele>421.0</ele><time>2026-05-03T10:18:03.721Z</time></trkpt><trkpt lat="43.2173072" lon="11.1563797"><ele>421.0</ele><time>2026-05-03T10:18:04.723Z</time></trkpt><trkpt lat="43.2173878" lon="11.156415"><ele>421.00000000000006</ele><time>2026-05-03T10:18:05.73Z</time></trkpt><trkpt lat="43.2174538" lon="11.1564848"><ele>421.0</ele><time>2026-05-03T10:18:06.71Z</time></trkpt><trkpt lat="43.2175019" lon="11.1565771"><ele>422.20000000000005</ele><time>2026-05-03T10:18:07.731Z</time></trkpt><trkpt lat="43.2175377" lon="11.1566689"><ele>423.40000000000003</ele><time>2026-05-03T10:18:08.73Z</time></trkpt><trkpt lat="43.2176172" lon="11.1567947"><ele>424.6</ele><time>2026-05-03T10:18:10.723Z</time></trkpt><trkpt lat="43.2176794" lon="11.1568215"><ele>425.8</ele><time>2026-05-03T10:18:11.727Z</time></trkpt><trkpt lat="43.2177645" lon="11.1568015"><ele>427.0</ele><time>2026-05-03T10:18:12.734Z</time></trkpt><trkpt lat="43.2178526" lon="11.1567173"><ele>427.0</ele><time>2026-05-03T10:18:13.721Z</time></trkpt><trkpt lat="43.2179408" lon="11.1565993"><ele>427.0</ele><time>2026-05-03T10:18:14.735Z</time></trkpt><trkpt lat="43.2180364" lon="11.156479"><ele>427.0</ele><time>2026-05-03T10:18:15.734Z</time></trkpt><trkpt lat="43.2181303" lon="11.1563772"><ele>427.0</ele><time>2026-05-03T10:18:16.72Z</time></trkpt><trkpt lat="43.2182244" lon="11.1562955"><ele>426.6</ele><time>2026-05-03T10:18:17.729Z</time></trkpt><trkpt lat="43.2183134" lon="11.1562257"><ele>426.20000000000005</ele><time>2026-05-03T10:18:18.732Z</time></trkpt><trkpt lat="43.218406" lon="11.1561599"><ele>425.8</ele><time>2026-05-03T10:18:19.728Z</time></trkpt><trkpt lat="43.2185023" lon="11.1561115"><ele>425.4</ele><time>2026-05-03T10:18:20.723Z</time></trkpt><trkpt lat="43.218597" lon="11.1560822"><ele>425.0</ele><time>2026-05-03T10:18:21.731Z</time></trkpt><trkpt lat="43.2186923" lon="11.1560871"><ele>425.0</ele><time>2026-05-03T10:18:22.727Z</time></trkpt><trkpt lat="43.2187846" lon="11.1561368"><ele>425.0</ele><time>2026-05-03T10:18:23.727Z</time></trkpt><trkpt lat="43.2188676" lon="11.1562205"><ele>425.0</ele><time>2026-05-03T10:18:24.719Z</time></trkpt><trkpt lat="43.2189422" lon="11.1563131"><ele>425.0</ele><time>2026-05-03T10:18:25.722Z</time></trkpt><trkpt lat="43.2190388" lon="11.1564179"><ele>425.0</ele><time>2026-05-03T10:18:26.717Z</time></trkpt><trkpt lat="43.2191513" lon="11.1565184"><ele>426.8</ele><time>2026-05-03T10:18:27.73Z</time></trkpt><trkpt lat="43.2192598" lon="11.1565849"><ele>428.6</ele><time>2026-05-03T10:18:28.724Z</time></trkpt><trkpt lat="43.2193606" lon="11.1566245"><ele>430.4</ele><time>2026-05-03T10:18:29.73Z</time></trkpt><trkpt lat="43.2194606" lon="11.1566523"><ele>432.2</ele><time>2026-05-03T10:18:30.727Z</time></trkpt><trkpt lat="43.2195612" lon="11.1566858"><ele>434.0</ele><time>2026-05-03T10:18:31.726Z</time></trkpt><trkpt lat="43.2196598" lon="11.1567331"><ele>434.0</ele><time>2026-05-03T10:18:32.722Z</time></trkpt><trkpt lat="43.2197518" lon="11.1568096"><ele>434.0</ele><time>2026-05-03T10:18:33.731Z</time></trkpt><trkpt lat="43.2198384" lon="11.1569255"><ele>434.0</ele><time>2026-05-03T10:18:34.729Z</time></trkpt><trkpt lat="43.219937" lon="11.1570952"><ele>434.0</ele><time>2026-05-03T10:18:35.735Z</time></trkpt><trkpt lat="43.2200453" lon="11.1573003"><ele>434.3333333333333</ele><time>2026-05-03T10:18:36.738Z</time></trkpt><trkpt lat="43.220144" lon="11.15751"><ele>434.66666666666663</ele><time>2026-05-03T10:18:37.723Z</time></trkpt><trkpt lat="43.2202078" lon="11.1577127"><ele>435.0</ele><time>2026-05-03T10:18:38.723Z</time></trkpt><trkpt lat="43.2202256" lon="11.1579069"><ele>435.0</ele><time>2026-05-03T10:18:39.729Z</time></trkpt><trkpt lat="43.2201817" lon="11.1580807"><ele>435.0</ele><time>2026-05-03T10:18:40.718Z</time></trkpt><trkpt lat="43.2200922" lon="11.1582656"><ele>435.0</ele><time>2026-05-03T10:18:41.73Z</time></trkpt><trkpt lat="43.2199641" lon="11.1584445"><ele>435.33333333333337</ele><time>2026-05-03T10:18:42.716Z</time></trkpt><trkpt lat="43.2198266" lon="11.1586454"><ele>435.6666666666667</ele><time>2026-05-03T10:18:43.743Z</time></trkpt><trkpt lat="43.2197258" lon="11.1588758"><ele>436.0</ele><time>2026-05-03T10:18:44.729Z</time></trkpt><trkpt lat="43.2196562" lon="11.1591232"><ele>439.6666666666667</ele><time>2026-05-03T10:18:45.731Z</time></trkpt><trkpt lat="43.2196357" lon="11.1593761"><ele>443.33333333333337</ele><time>2026-05-03T10:18:46.725Z</time></trkpt><trkpt lat="43.2196642" lon="11.1596403"><ele>447.0</ele><time>2026-05-03T10:18:47.737Z</time></trkpt><trkpt lat="43.2197165" lon="11.1598971"><ele>447.0</ele><time>2026-05-03T10:18:48.731Z</time></trkpt><trkpt lat="43.2197832" lon="11.1601466"><ele>447.0</ele><time>2026-05-03T10:18:49.723Z</time></trkpt><trkpt lat="43.2198529" lon="11.1603768"><ele>447.0</ele><time>2026-05-03T10:18:50.715Z</time></trkpt><trkpt lat="43.2199341" lon="11.1605741"><ele>443.66666666666663</ele><time>2026-05-03T10:18:51.726Z</time></trkpt><trkpt lat="43.2200354" lon="11.1607364"><ele>440.3333333333333</ele><time>2026-05-03T10:18:52.726Z</time></trkpt><trkpt lat="43.2201397" lon="11.160872"><ele>437.0</ele><time>2026-05-03T10:18:53.729Z</time></trkpt><trkpt lat="43.2202518" lon="11.1610118"><ele>437.0</ele><time>2026-05-03T10:18:54.719Z</time></trkpt><trkpt lat="43.2203639" lon="11.1611533"><ele>437.0</ele><time>2026-05-03T10:18:55.738Z</time></trkpt><trkpt lat="43.2204706" lon="11.1612988"><ele>437.0</ele><time>2026-05-03T10:18:56.745Z</time></trkpt><trkpt lat="43.2205733" lon="11.1614538"><ele>435.66666666666663</ele><time>2026-05-03T10:18:57.728Z</time></trkpt><trkpt lat="43.2206689" lon="11.161621"><ele>434.33333333333337</ele><time>2026-05-03T10:18:58.726Z</time></trkpt><trkpt lat="43.2207457" lon="11.1618027"><ele>433.0</ele><time>2026-05-03T10:18:59.729Z</time></trkpt><trkpt lat="43.2208037" lon="11.1620064"><ele>433.0</ele><time>2026-05-03T10:19:00.729Z</time></trkpt><trkpt lat="43.2208504" lon="11.16222"><ele>433.0</ele><time>2026-05-03T10:19:01.733Z</time></trkpt><trkpt lat="43.2208874" lon="11.1624281"><ele>433.0</ele><time>2026-05-03T10:19:02.714Z</time></trkpt><trkpt lat="43.220926" lon="11.1626235"><ele>433.25</ele><time>2026-05-03T10:19:03.73Z</time></trkpt><trkpt lat="43.2209664" lon="11.1628163"><ele>433.5</ele><time>2026-05-03T10:19:04.742Z</time></trkpt><trkpt lat="43.2210044" lon="11.1630048"><ele>433.75</ele><time>2026-05-03T10:19:05.727Z</time></trkpt><trkpt lat="43.2210325" lon="11.163177"><ele>434.0</ele><time>2026-05-03T10:19:06.723Z</time></trkpt><trkpt lat="43.22106" lon="11.1633349"><ele>433.6</ele><time>2026-05-03T10:19:07.733Z</time></trkpt><trkpt lat="43.2210899" lon="11.1634856"><ele>433.2</ele><time>2026-05-03T10:19:08.727Z</time></trkpt><trkpt lat="43.2211182" lon="11.1636203"><ele>432.80000000000007</ele><time>2026-05-03T10:19:09.727Z</time></trkpt><trkpt lat="43.2211542" lon="11.1637527"><ele>432.40000000000003</ele><time>2026-05-03T10:19:10.737Z</time></trkpt><trkpt lat="43.2212043" lon="11.1638866"><ele>432.0</ele><time>2026-05-03T10:19:11.737Z</time></trkpt><trkpt lat="43.2212878" lon="11.1639989"><ele>432.25</ele><time>2026-05-03T10:19:12.726Z</time></trkpt><trkpt lat="43.2214043" lon="11.1640552"><ele>432.5</ele><time>2026-05-03T10:19:13.727Z</time></trkpt><trkpt lat="43.2215378" lon="11.1640589"><ele>432.75</ele><time>2026-05-03T10:19:14.736Z</time></trkpt><trkpt lat="43.2216695" lon="11.16402"><ele>433.0</ele><time>2026-05-03T10:19:15.745Z</time></trkpt><trkpt lat="43.2218011" lon="11.1639953"><ele>433.0</ele><time>2026-05-03T10:19:16.729Z</time></trkpt><trkpt lat="43.2219252" lon="11.1639827"><ele>433.0</ele><time>2026-05-03T10:19:17.738Z</time></trkpt><trkpt lat="43.222057" lon="11.1640028"><ele>433.0</ele><time>2026-05-03T10:19:18.717Z</time></trkpt><trkpt lat="43.2221853" lon="11.1640569"><ele>433.0</ele><time>2026-05-03T10:19:19.74Z</time></trkpt><trkpt lat="43.2223192" lon="11.1641356"><ele>433.5</ele><time>2026-05-03T10:19:20.715Z</time></trkpt><trkpt lat="43.2224457" lon="11.1642271"><ele>434.0</ele><time>2026-05-03T10:19:21.734Z</time></trkpt><trkpt lat="43.2225621" lon="11.1643102"><ele>434.5</ele><time>2026-05-03T10:19:22.735Z</time></trkpt><trkpt lat="43.2226761" lon="11.1643841"><ele>435.0</ele><time>2026-05-03T10:19:23.729Z</time></trkpt><trkpt lat="43.2227885" lon="11.1644456"><ele>435.0</ele><time>2026-05-03T10:19:24.727Z</time></trkpt><trkpt lat="43.2228975" lon="11.1645085"><ele>435.0</ele><time>2026-05-03T10:19:25.736Z</time></trkpt><trkpt lat="43.2230074" lon="11.1645798"><ele>435.0</ele><time>2026-05-03T10:19:26.722Z</time></trkpt><trkpt lat="43.2231199" lon="11.1646705"><ele>435.0</ele><time>2026-05-03T10:19:27.728Z</time></trkpt><trkpt lat="43.2232215" lon="11.1647782"><ele>434.5</ele><time>2026-05-03T10:19:28.738Z</time></trkpt><trkpt lat="43.2233126" lon="11.1649192"><ele>434.0</ele><time>2026-05-03T10:19:29.733Z</time></trkpt><trkpt lat="43.2233848" lon="11.1650833"><ele>433.5</ele><time>2026-05-03T10:19:30.723Z</time></trkpt><trkpt lat="43.2234449" lon="11.1652659"><ele>433.0</ele><time>2026-05-03T10:19:31.742Z</time></trkpt><trkpt lat="43.2234904" lon="11.1654615"><ele>433.0</ele><time>2026-05-03T10:19:32.721Z</time></trkpt><trkpt lat="43.2235123" lon="11.1656579"><ele>433.0</ele><time>2026-05-03T10:19:33.735Z</time></trkpt><trkpt lat="43.2235145" lon="11.1658573"><ele>433.0</ele><time>2026-05-03T10:19:34.734Z</time></trkpt><trkpt lat="43.2234909" lon="11.166043"><ele>433.0</ele><time>2026-05-03T10:19:35.729Z</time></trkpt><trkpt lat="43.2234705" lon="11.1662235"><ele>432.75</ele><time>2026-05-03T10:19:36.727Z</time></trkpt><trkpt lat="43.2234617" lon="11.1664172"><ele>432.5</ele><time>2026-05-03T10:19:37.741Z</time></trkpt><trkpt lat="43.2234802" lon="11.1666163"><ele>432.25</ele><time>2026-05-03T10:19:38.716Z</time></trkpt><trkpt lat="43.2235334" lon="11.1668016"><ele>432.0</ele><time>2026-05-03T10:19:39.725Z</time></trkpt><trkpt lat="43.2236124" lon="11.1669664"><ele>431.5</ele><time>2026-05-03T10:19:40.716Z</time></trkpt><trkpt lat="43.2236992" lon="11.1670981"><ele>431.0</ele><time>2026-05-03T10:19:41.723Z</time></trkpt><trkpt lat="43.2237928" lon="11.1672035"><ele>430.5</ele><time>2026-05-03T10:19:42.728Z</time></trkpt><trkpt lat="43.2238894" lon="11.1672704"><ele>430.0</ele><time>2026-05-03T10:19:43.741Z</time></trkpt><trkpt lat="43.2239891" lon="11.1672787"><ele>429.6</ele><time>2026-05-03T10:19:44.719Z</time></trkpt><trkpt lat="43.2240859" lon="11.1672231"><ele>429.2</ele><time>2026-05-03T10:19:45.726Z</time></trkpt><trkpt lat="43.2241695" lon="11.1671242"><ele>428.79999999999995</ele><time>2026-05-03T10:19:46.729Z</time></trkpt><trkpt lat="43.2242287" lon="11.1670007"><ele>428.4</ele><time>2026-05-03T10:19:47.73Z</time></trkpt><trkpt lat="43.2242782" lon="11.1668656"><ele>428.0</ele><time>2026-05-03T10:19:48.731Z</time></trkpt><trkpt lat="43.2243254" lon="11.166731"><ele>427.99999999999994</ele><time>2026-05-03T10:19:49.729Z</time></trkpt><trkpt lat="43.2243693" lon="11.1666041"><ele>428.0</ele><time>2026-05-03T10:19:50.729Z</time></trkpt><trkpt lat="43.2244153" lon="11.1664903"><ele>428.0</ele><time>2026-05-03T10:19:51.732Z</time></trkpt><trkpt lat="43.224468" lon="11.1664028"><ele>428.0</ele><time>2026-05-03T10:19:52.724Z</time></trkpt><trkpt lat="43.2245377" lon="11.1663455"><ele>427.99999999999994</ele><time>2026-05-03T10:19:53.73Z</time></trkpt><trkpt lat="43.2246182" lon="11.1663401"><ele>428.0</ele><time>2026-05-03T10:19:54.726Z</time></trkpt><trkpt lat="43.2246979" lon="11.1663961"><ele>428.0</ele><time>2026-05-03T10:19:55.73Z</time></trkpt><trkpt lat="43.2247594" lon="11.1664997"><ele>428.0</ele><time>2026-05-03T10:19:56.728Z</time></trkpt><trkpt lat="43.2247921" lon="11.1666359"><ele>428.0</ele><time>2026-05-03T10:19:57.721Z</time></trkpt><trkpt lat="43.2248223" lon="11.1667956"><ele>428.0</ele><time>2026-05-03T10:19:58.716Z</time></trkpt><trkpt lat="43.2248567" lon="11.1669949"><ele>426.3333333333333</ele><time>2026-05-03T10:19:59.738Z</time></trkpt><trkpt lat="43.2248936" lon="11.1672116"><ele>424.66666666666663</ele><time>2026-05-03T10:20:00.726Z</time></trkpt><trkpt lat="43.224929" lon="11.1674372"><ele>423.0</ele><time>2026-05-03T10:20:01.723Z</time></trkpt><trkpt lat="43.2249563" lon="11.1676705"><ele>420.66666666666663</ele><time>2026-05-03T10:20:02.716Z</time></trkpt><trkpt lat="43.2249755" lon="11.1679016"><ele>418.3333333333333</ele><time>2026-05-03T10:20:03.725Z</time></trkpt><trkpt lat="43.2249963" lon="11.1681379"><ele>416.0</ele><time>2026-05-03T10:20:04.733Z</time></trkpt><trkpt lat="43.2250219" lon="11.1683743"><ele>416.0</ele><time>2026-05-03T10:20:05.738Z</time></trkpt><trkpt lat="43.2250587" lon="11.1685933"><ele>416.0</ele><time>2026-05-03T10:20:06.724Z</time></trkpt><trkpt lat="43.2251037" lon="11.1687846"><ele>416.0</ele><time>2026-05-03T10:20:07.73Z</time></trkpt><trkpt lat="43.2251529" lon="11.1689591"><ele>416.0</ele><time>2026-05-03T10:20:08.731Z</time></trkpt><trkpt lat="43.22521" lon="11.169133"><ele>417.25</ele><time>2026-05-03T10:20:09.722Z</time></trkpt><trkpt lat="43.2252674" lon="11.1693067"><ele>418.5</ele><time>2026-05-03T10:20:10.731Z</time></trkpt><trkpt lat="43.2253166" lon="11.1694735"><ele>419.75</ele><time>2026-05-03T10:20:11.73Z</time></trkpt><trkpt lat="43.2253663" lon="11.1696473"><ele>421.0</ele><time>2026-05-03T10:20:12.748Z</time></trkpt><trkpt lat="43.2254165" lon="11.1698367"><ele>421.33333333333337</ele><time>2026-05-03T10:20:13.722Z</time></trkpt><trkpt lat="43.2254558" lon="11.170045"><ele>421.66666666666663</ele><time>2026-05-03T10:20:14.724Z</time></trkpt><trkpt lat="43.2254865" lon="11.1702614"><ele>422.0</ele><time>2026-05-03T10:20:15.734Z</time></trkpt><trkpt lat="43.2255148" lon="11.1704928"><ele>421.3333333333333</ele><time>2026-05-03T10:20:16.725Z</time></trkpt><trkpt lat="43.2255352" lon="11.1707314"><ele>420.66666666666663</ele><time>2026-05-03T10:20:17.732Z</time></trkpt><trkpt lat="43.2255459" lon="11.1709478"><ele>420.0</ele><time>2026-05-03T10:20:18.719Z</time></trkpt><trkpt lat="43.2255529" lon="11.1711378"><ele>420.0</ele><time>2026-05-03T10:20:19.745Z</time></trkpt><trkpt lat="43.2255507" lon="11.171312"><ele>420.0</ele><time>2026-05-03T10:20:20.722Z</time></trkpt><trkpt lat="43.2255482" lon="11.1714855"><ele>420.0</ele><time>2026-05-03T10:20:21.73Z</time></trkpt><trkpt lat="43.2255684" lon="11.171686"><ele>420.0</ele><time>2026-05-03T10:20:22.732Z</time></trkpt><trkpt lat="43.2256133" lon="11.1719117"><ele>416.75</ele><time>2026-05-03T10:20:23.721Z</time></trkpt><trkpt lat="43.2256604" lon="11.1721237"><ele>413.5</ele><time>2026-05-03T10:20:24.713Z</time></trkpt><trkpt lat="43.2257086" lon="11.1722998"><ele>410.25</ele><time>2026-05-03T10:20:25.734Z</time></trkpt><trkpt lat="43.2257684" lon="11.1724278"><ele>407.0</ele><time>2026-05-03T10:20:26.725Z</time></trkpt><trkpt lat="43.225844" lon="11.1725181"><ele>406.5</ele><time>2026-05-03T10:20:27.728Z</time></trkpt><trkpt lat="43.2259469" lon="11.1725656"><ele>406.0</ele><time>2026-05-03T10:20:28.723Z</time></trkpt><trkpt lat="43.2260883" lon="11.1725875"><ele>405.5</ele><time>2026-05-03T10:20:29.731Z</time></trkpt><trkpt lat="43.2262474" lon="11.1726167"><ele>405.0</ele><time>2026-05-03T10:20:30.717Z</time></trkpt><trkpt lat="43.2264262" lon="11.1726842"><ele>401.33333333333337</ele><time>2026-05-03T10:20:31.725Z</time></trkpt><trkpt lat="43.2266221" lon="11.1727764"><ele>397.6666666666667</ele><time>2026-05-03T10:20:32.748Z</time></trkpt><trkpt lat="43.2268432" lon="11.1728718"><ele>394.0</ele><time>2026-05-03T10:20:33.744Z</time></trkpt><trkpt lat="43.2270794" lon="11.1729603"><ele>389.5</ele><time>2026-05-03T10:20:34.728Z</time></trkpt><trkpt lat="43.2273252" lon="11.1730442"><ele>385.0</ele><time>2026-05-03T10:20:35.732Z</time></trkpt><trkpt lat="43.2275602" lon="11.1731244"><ele>388.5</ele><time>2026-05-03T10:20:36.723Z</time></trkpt><trkpt lat="43.2277809" lon="11.1732144"><ele>392.0</ele><time>2026-05-03T10:20:37.73Z</time></trkpt><trkpt lat="43.2279889" lon="11.173331"><ele>388.3333333333333</ele><time>2026-05-03T10:20:38.731Z</time></trkpt><trkpt lat="43.2281884" lon="11.1734718"><ele>384.66666666666663</ele><time>2026-05-03T10:20:39.736Z</time></trkpt><trkpt lat="43.2283733" lon="11.1736239"><ele>381.0</ele><time>2026-05-03T10:20:40.727Z</time></trkpt><trkpt lat="43.2285416" lon="11.1737911"><ele>381.0</ele><time>2026-05-03T10:20:41.73Z</time></trkpt><trkpt lat="43.2286931" lon="11.1739725"><ele>381.0</ele><time>2026-05-03T10:20:42.738Z</time></trkpt><trkpt lat="43.2288195" lon="11.1741524"><ele>381.0</ele><time>2026-05-03T10:20:43.73Z</time></trkpt><trkpt lat="43.2289245" lon="11.1743286"><ele>380.75</ele><time>2026-05-03T10:20:44.73Z</time></trkpt><trkpt lat="43.2290026" lon="11.1745042"><ele>380.5</ele><time>2026-05-03T10:20:45.737Z</time></trkpt><trkpt lat="43.229039" lon="11.1746873"><ele>380.25</ele><time>2026-05-03T10:20:46.722Z</time></trkpt><trkpt lat="43.2290214" lon="11.1748743"><ele>380.0</ele><time>2026-05-03T10:20:47.739Z</time></trkpt><trkpt lat="43.2289621" lon="11.1750645"><ele>380.0</ele><time>2026-05-03T10:20:48.729Z</time></trkpt><trkpt lat="43.2288576" lon="11.17524"><ele>380.0</ele><time>2026-05-03T10:20:49.731Z</time></trkpt><trkpt lat="43.2287171" lon="11.17539"><ele>380.0</ele><time>2026-05-03T10:20:50.724Z</time></trkpt><trkpt lat="43.2285646" lon="11.1755262"><ele>380.0</ele><time>2026-05-03T10:20:51.725Z</time></trkpt><trkpt lat="43.2284125" lon="11.1756575"><ele>380.0</ele><time>2026-05-03T10:20:52.724Z</time></trkpt><trkpt lat="43.2282644" lon="11.1757851"><ele>380.0</ele><time>2026-05-03T10:20:53.724Z</time></trkpt><trkpt lat="43.2281425" lon="11.1759096"><ele>379.25</ele><time>2026-05-03T10:20:54.728Z</time></trkpt><trkpt lat="43.2280531" lon="11.1760436"><ele>378.5</ele><time>2026-05-03T10:20:55.728Z</time></trkpt><trkpt lat="43.2280035" lon="11.1762093"><ele>377.75</ele><time>2026-05-03T10:20:56.725Z</time></trkpt><trkpt lat="43.2280059" lon="11.1763827"><ele>377.0</ele><time>2026-05-03T10:20:57.731Z</time></trkpt><trkpt lat="43.2280656" lon="11.1765596"><ele>374.25</ele><time>2026-05-03T10:20:58.713Z</time></trkpt><trkpt lat="43.2281666" lon="11.1766937"><ele>371.5</ele><time>2026-05-03T10:20:59.713Z</time></trkpt><trkpt lat="43.2282969" lon="11.1767847"><ele>368.75</ele><time>2026-05-03T10:21:00.712Z</time></trkpt><trkpt lat="43.2284503" lon="11.1768276"><ele>366.0</ele><time>2026-05-03T10:21:01.725Z</time></trkpt><trkpt lat="43.2286125" lon="11.1768169"><ele>366.0</ele><time>2026-05-03T10:21:02.724Z</time></trkpt><trkpt lat="43.2287736" lon="11.176786"><ele>366.0</ele><time>2026-05-03T10:21:03.727Z</time></trkpt><trkpt lat="43.2289415" lon="11.1767421"><ele>366.0</ele><time>2026-05-03T10:21:04.73Z</time></trkpt><trkpt lat="43.2291024" lon="11.1767063"><ele>363.3333333333333</ele><time>2026-05-03T10:21:05.725Z</time></trkpt><trkpt lat="43.229258" lon="11.1766705"><ele>360.66666666666663</ele><time>2026-05-03T10:21:06.729Z</time></trkpt><trkpt lat="43.2294158" lon="11.1766392"><ele>358.0</ele><time>2026-05-03T10:21:07.718Z</time></trkpt><trkpt lat="43.2295813" lon="11.1766008"><ele>358.0</ele><time>2026-05-03T10:21:08.713Z</time></trkpt><trkpt lat="43.2297462" lon="11.1765615"><ele>358.0</ele><time>2026-05-03T10:21:09.73Z</time></trkpt><trkpt lat="43.2299037" lon="11.1765179"><ele>358.0</ele><time>2026-05-03T10:21:10.731Z</time></trkpt><trkpt lat="43.2300432" lon="11.1764438"><ele>358.66666666666663</ele><time>2026-05-03T10:21:11.715Z</time></trkpt><trkpt lat="43.2301692" lon="11.1763302"><ele>359.3333333333333</ele><time>2026-05-03T10:21:12.722Z</time></trkpt><trkpt lat="43.2302771" lon="11.1761693"><ele>360.0</ele><time>2026-05-03T10:21:13.724Z</time></trkpt><trkpt lat="43.2303757" lon="11.1759766"><ele>360.0</ele><time>2026-05-03T10:21:14.72Z</time></trkpt><trkpt lat="43.2304791" lon="11.1757706"><ele>360.0</ele><time>2026-05-03T10:21:15.728Z</time></trkpt><trkpt lat="43.2305921" lon="11.1755641"><ele>360.0</ele><time>2026-05-03T10:21:16.727Z</time></trkpt><trkpt lat="43.2307054" lon="11.1753566"><ele>356.0</ele><time>2026-05-03T10:21:17.72Z</time></trkpt><trkpt lat="43.2308121" lon="11.1751532"><ele>352.0</ele><time>2026-05-03T10:21:18.73Z</time></trkpt><trkpt lat="43.2309065" lon="11.1749617"><ele>348.0</ele><time>2026-05-03T10:21:19.716Z</time></trkpt><trkpt lat="43.2309787" lon="11.174778"><ele>347.6666666666667</ele><time>2026-05-03T10:21:20.731Z</time></trkpt><trkpt lat="43.231001" lon="11.1745854"><ele>347.33333333333337</ele><time>2026-05-03T10:21:21.722Z</time></trkpt><trkpt lat="43.2310035" lon="11.1743743"><ele>347.0</ele><time>2026-05-03T10:21:22.715Z</time></trkpt><trkpt lat="43.2310158" lon="11.1741412"><ele>346.33333333333337</ele><time>2026-05-03T10:21:23.722Z</time></trkpt><trkpt lat="43.2310375" lon="11.173886"><ele>345.6666666666667</ele><time>2026-05-03T10:21:24.712Z</time></trkpt><trkpt lat="43.2310611" lon="11.173602"><ele>345.0</ele><time>2026-05-03T10:21:25.729Z</time></trkpt><trkpt lat="43.2310949" lon="11.1733084"><ele>344.6666666666667</ele><time>2026-05-03T10:21:26.725Z</time></trkpt><trkpt lat="43.2311397" lon="11.173033"><ele>344.33333333333337</ele><time>2026-05-03T10:21:27.725Z</time></trkpt><trkpt lat="43.2311894" lon="11.1728043"><ele>344.0</ele><time>2026-05-03T10:21:28.729Z</time></trkpt><trkpt lat="43.2312269" lon="11.1726142"><ele>344.0</ele><time>2026-05-03T10:21:29.72Z</time></trkpt><trkpt lat="43.2312603" lon="11.1724603"><ele>344.0</ele><time>2026-05-03T10:21:30.716Z</time></trkpt><trkpt lat="43.2313136" lon="11.1723547"><ele>344.0</ele><time>2026-05-03T10:21:31.718Z</time></trkpt><trkpt lat="43.2313956" lon="11.1723164"><ele>344.0</ele><time>2026-05-03T10:21:32.72Z</time></trkpt><trkpt lat="43.2314745" lon="11.1723441"><ele>344.0</ele><time>2026-05-03T10:21:33.718Z</time></trkpt><trkpt lat="43.2315428" lon="11.172459"><ele>340.5</ele><time>2026-05-03T10:21:34.711Z</time></trkpt><trkpt lat="43.2315807" lon="11.1726361"><ele>337.0</ele><time>2026-05-03T10:21:35.717Z</time></trkpt><trkpt lat="43.2315923" lon="11.1728468"><ele>333.5</ele><time>2026-05-03T10:21:36.716Z</time></trkpt><trkpt lat="43.2315876" lon="11.1730552"><ele>330.0</ele><time>2026-05-03T10:21:37.72Z</time></trkpt><trkpt lat="43.2315742" lon="11.1732703"><ele>329.3333333333333</ele><time>2026-05-03T10:21:38.723Z</time></trkpt><trkpt lat="43.2315944" lon="11.1735083"><ele>328.66666666666663</ele><time>2026-05-03T10:21:39.717Z</time></trkpt><trkpt lat="43.2316477" lon="11.1737623"><ele>328.0</ele><time>2026-05-03T10:21:40.725Z</time></trkpt><trkpt lat="43.2317098" lon="11.1740051"><ele>327.66666666666663</ele><time>2026-05-03T10:21:41.721Z</time></trkpt><trkpt lat="43.2317601" lon="11.1742095"><ele>327.3333333333333</ele><time>2026-05-03T10:21:42.708Z</time></trkpt><trkpt lat="43.2318265" lon="11.1743717"><ele>327.0</ele><time>2026-05-03T10:21:43.72Z</time></trkpt><trkpt lat="43.2319505" lon="11.1745205"><ele>327.0</ele><time>2026-05-03T10:21:44.732Z</time></trkpt><trkpt lat="43.2321065" lon="11.1746557"><ele>327.0</ele><time>2026-05-03T10:21:45.729Z</time></trkpt><trkpt lat="43.2322626" lon="11.1747691"><ele>327.0</ele><time>2026-05-03T10:21:46.722Z</time></trkpt><trkpt lat="43.2324026" lon="11.1748638"><ele>324.5</ele><time>2026-05-03T10:21:47.721Z</time></trkpt><trkpt lat="43.2325121" lon="11.1749637"><ele>322.0</ele><time>2026-05-03T10:21:48.732Z</time></trkpt><trkpt lat="43.2326164" lon="11.1750793"><ele>319.5</ele><time>2026-05-03T10:21:49.736Z</time></trkpt><trkpt lat="43.2327" lon="11.1752362"><ele>317.0</ele><time>2026-05-03T10:21:50.727Z</time></trkpt><trkpt lat="43.2327535" lon="11.1754344"><ele>317.0</ele><time>2026-05-03T10:21:51.726Z</time></trkpt><trkpt lat="43.2327815" lon="11.1756575"><ele>317.0</ele><time>2026-05-03T10:21:52.732Z</time></trkpt><trkpt lat="43.2328015" lon="11.175893"><ele>317.0</ele><time>2026-05-03T10:21:53.723Z</time></trkpt><trkpt lat="43.2328505" lon="11.1761445"><ele>316.6666666666667</ele><time>2026-05-03T10:21:54.724Z</time></trkpt><trkpt lat="43.2329237" lon="11.1763726"><ele>316.3333333333333</ele><time>2026-05-03T10:21:55.73Z</time></trkpt><trkpt lat="43.2330046" lon="11.1765868"><ele>316.0</ele><time>2026-05-03T10:21:56.731Z</time></trkpt><trkpt lat="43.2330704" lon="11.1767816"><ele>315.66666666666663</ele><time>2026-05-03T10:21:57.73Z</time></trkpt><trkpt lat="43.2330979" lon="11.1769776"><ele>315.3333333333333</ele><time>2026-05-03T10:21:58.736Z</time></trkpt><trkpt lat="43.2330757" lon="11.177198"><ele>315.0</ele><time>2026-05-03T10:21:59.726Z</time></trkpt><trkpt lat="43.2330157" lon="11.1774158"><ele>314.3333333333333</ele><time>2026-05-03T10:22:00.72Z</time></trkpt><trkpt lat="43.232933" lon="11.1776407"><ele>313.66666666666663</ele><time>2026-05-03T10:22:01.728Z</time></trkpt><trkpt lat="43.2328499" lon="11.1778771"><ele>313.0</ele><time>2026-05-03T10:22:02.749Z</time></trkpt><trkpt lat="43.2327613" lon="11.1781243"><ele>312.0</ele><time>2026-05-03T10:22:03.731Z</time></trkpt><trkpt lat="43.2326673" lon="11.1783786"><ele>311.0</ele><time>2026-05-03T10:22:04.727Z</time></trkpt><trkpt lat="43.2325702" lon="11.1786502"><ele>310.0</ele><time>2026-05-03T10:22:05.716Z</time></trkpt><trkpt lat="43.2324692" lon="11.1789428"><ele>309.0</ele><time>2026-05-03T10:22:06.725Z</time></trkpt><trkpt lat="43.2323711" lon="11.1792198"><ele>308.0</ele><time>2026-05-03T10:22:07.727Z</time></trkpt><trkpt lat="43.2322785" lon="11.1794759"><ele>307.0</ele><time>2026-05-03T10:22:08.722Z</time></trkpt><trkpt lat="43.2321907" lon="11.1797229"><ele>304.3333333333333</ele><time>2026-05-03T10:22:09.734Z</time></trkpt><trkpt lat="43.2321052" lon="11.1799656"><ele>301.6666666666667</ele><time>2026-05-03T10:22:10.727Z</time></trkpt><trkpt lat="43.2320196" lon="11.1802157"><ele>299.0</ele><time>2026-05-03T10:22:11.729Z</time></trkpt><trkpt lat="43.2319342" lon="11.1804667"><ele>298.33333333333337</ele><time>2026-05-03T10:22:12.727Z</time></trkpt><trkpt lat="43.2318487" lon="11.1807149"><ele>297.6666666666667</ele><time>2026-05-03T10:22:13.745Z</time></trkpt><trkpt lat="43.2317626" lon="11.1809703"><ele>297.0</ele><time>2026-05-03T10:22:14.719Z</time></trkpt><trkpt lat="43.2316704" lon="11.1812297"><ele>297.0</ele><time>2026-05-03T10:22:15.746Z</time></trkpt><trkpt lat="43.2315783" lon="11.1814849"><ele>297.0</ele><time>2026-05-03T10:22:16.718Z</time></trkpt><trkpt lat="43.2314896" lon="11.1817396"><ele>297.0</ele><time>2026-05-03T10:22:17.73Z</time></trkpt><trkpt lat="43.2314015" lon="11.1819876"><ele>297.0</ele><time>2026-05-03T10:22:18.727Z</time></trkpt><trkpt lat="43.2313159" lon="11.1822317"><ele>297.0</ele><time>2026-05-03T10:22:19.729Z</time></trkpt><trkpt lat="43.231237" lon="11.1824828"><ele>297.0</ele><time>2026-05-03T10:22:20.718Z</time></trkpt><trkpt lat="43.2311651" lon="11.182739"><ele>295.3333333333333</ele><time>2026-05-03T10:22:21.725Z</time></trkpt><trkpt lat="43.2310961" lon="11.182988"><ele>293.66666666666663</ele><time>2026-05-03T10:22:22.718Z</time></trkpt><trkpt lat="43.2310399" lon="11.1832252"><ele>292.0</ele><time>2026-05-03T10:22:23.726Z</time></trkpt><trkpt lat="43.2310054" lon="11.1834614"><ele>292.0</ele><time>2026-05-03T10:22:24.72Z</time></trkpt><trkpt lat="43.2310047" lon="11.1836986"><ele>292.0</ele><time>2026-05-03T10:22:25.721Z</time></trkpt><trkpt lat="43.2310257" lon="11.1839379"><ele>292.0</ele><time>2026-05-03T10:22:26.723Z</time></trkpt><trkpt lat="43.2310286" lon="11.1841706"><ele>292.0</ele><time>2026-05-03T10:22:27.719Z</time></trkpt><trkpt lat="43.2309958" lon="11.1844034"><ele>292.0</ele><time>2026-05-03T10:22:28.715Z</time></trkpt><trkpt lat="43.2309287" lon="11.1846284"><ele>292.0</ele><time>2026-05-03T10:22:29.726Z</time></trkpt><trkpt lat="43.2308466" lon="11.1848484"><ele>290.3333333333333</ele><time>2026-05-03T10:22:30.717Z</time></trkpt><trkpt lat="43.2307836" lon="11.1850754"><ele>288.6666666666667</ele><time>2026-05-03T10:22:31.725Z</time></trkpt><trkpt lat="43.2307666" lon="11.1853185"><ele>287.0</ele><time>2026-05-03T10:22:32.724Z</time></trkpt><trkpt lat="43.2307885" lon="11.1855537"><ele>284.6666666666667</ele><time>2026-05-03T10:22:33.718Z</time></trkpt><trkpt lat="43.2308489" lon="11.1857893"><ele>282.3333333333333</ele><time>2026-05-03T10:22:34.73Z</time></trkpt><trkpt lat="43.2309225" lon="11.1860136"><ele>280.0</ele><time>2026-05-03T10:22:35.733Z</time></trkpt><trkpt lat="43.2309809" lon="11.1862358"><ele>280.0</ele><time>2026-05-03T10:22:36.729Z</time></trkpt><trkpt lat="43.2310138" lon="11.1864513"><ele>280.0</ele><time>2026-05-03T10:22:37.733Z</time></trkpt><trkpt lat="43.2310024" lon="11.1866743"><ele>280.0</ele><time>2026-05-03T10:22:38.718Z</time></trkpt><trkpt lat="43.2309579" lon="11.1868855"><ele>279.75</ele><time>2026-05-03T10:22:39.722Z</time></trkpt><trkpt lat="43.2309264" lon="11.1870709"><ele>279.5</ele><time>2026-05-03T10:22:40.725Z</time></trkpt><trkpt lat="43.2309309" lon="11.1872459"><ele>279.25</ele><time>2026-05-03T10:22:41.715Z</time></trkpt><trkpt lat="43.230995" lon="11.187398"><ele>279.0</ele><time>2026-05-03T10:22:42.719Z</time></trkpt><trkpt lat="43.2310907" lon="11.1875417"><ele>279.0</ele><time>2026-05-03T10:22:43.715Z</time></trkpt><trkpt lat="43.2312047" lon="11.187696"><ele>279.0</ele><time>2026-05-03T10:22:44.725Z</time></trkpt><trkpt lat="43.2313138" lon="11.1878789"><ele>279.0</ele><time>2026-05-03T10:22:45.719Z</time></trkpt><trkpt lat="43.2314108" lon="11.1880833"><ele>284.0</ele><time>2026-05-03T10:22:46.718Z</time></trkpt><trkpt lat="43.2314935" lon="11.1882915"><ele>289.0</ele><time>2026-05-03T10:22:47.725Z</time></trkpt><trkpt lat="43.2315947" lon="11.1884869"><ele>294.0</ele><time>2026-05-03T10:22:48.715Z</time></trkpt><trkpt lat="43.2317422" lon="11.1886593"><ele>294.0</ele><time>2026-05-03T10:22:49.722Z</time></trkpt><trkpt lat="43.2319122" lon="11.1888197"><ele>294.0</ele><time>2026-05-03T10:22:50.719Z</time></trkpt><trkpt lat="43.2320754" lon="11.1889861"><ele>294.0</ele><time>2026-05-03T10:22:51.723Z</time></trkpt><trkpt lat="43.2322265" lon="11.1891481"><ele>295.6666666666667</ele><time>2026-05-03T10:22:52.711Z</time></trkpt><trkpt lat="43.2323552" lon="11.1893249"><ele>297.33333333333337</ele><time>2026-05-03T10:22:53.716Z</time></trkpt><trkpt lat="43.2324775" lon="11.1895216"><ele>299.0</ele><time>2026-05-03T10:22:54.711Z</time></trkpt><trkpt lat="43.2325786" lon="11.1897408"><ele>293.0</ele><time>2026-05-03T10:22:55.734Z</time></trkpt><trkpt lat="43.2326577" lon="11.1899749"><ele>287.0</ele><time>2026-05-03T10:22:56.729Z</time></trkpt><trkpt lat="43.2327121" lon="11.1902129"><ele>281.0</ele><time>2026-05-03T10:22:57.703Z</time></trkpt><trkpt lat="43.2327569" lon="11.1904421"><ele>281.0</ele><time>2026-05-03T10:22:58.719Z</time></trkpt><trkpt lat="43.2328056" lon="11.1906653"><ele>281.0</ele><time>2026-05-03T10:22:59.722Z</time></trkpt><trkpt lat="43.2328618" lon="11.1908858"><ele>281.0</ele><time>2026-05-03T10:23:00.734Z</time></trkpt><trkpt lat="43.2329299" lon="11.1910874"><ele>281.0</ele><time>2026-05-03T10:23:01.71Z</time></trkpt><trkpt lat="43.2330101" lon="11.1912529"><ele>281.0</ele><time>2026-05-03T10:23:02.716Z</time></trkpt><trkpt lat="43.2331053" lon="11.1913858"><ele>281.0</ele><time>2026-05-03T10:23:03.72Z</time></trkpt><trkpt lat="43.2332106" lon="11.1914913"><ele>281.0</ele><time>2026-05-03T10:23:04.716Z</time></trkpt><trkpt lat="43.2333289" lon="11.1915466"><ele>281.0</ele><time>2026-05-03T10:23:05.718Z</time></trkpt><trkpt lat="43.2334691" lon="11.1915247"><ele>281.0</ele><time>2026-05-03T10:23:06.709Z</time></trkpt><trkpt lat="43.2336143" lon="11.1914093"><ele>281.0</ele><time>2026-05-03T10:23:07.72Z</time></trkpt><trkpt lat="43.233758" lon="11.1913075"><ele>282.6666666666667</ele><time>2026-05-03T10:23:08.711Z</time></trkpt><trkpt lat="43.233905" lon="11.1911911"><ele>284.3333333333333</ele><time>2026-05-03T10:23:09.712Z</time></trkpt><trkpt lat="43.2340491" lon="11.1910585"><ele>286.0</ele><time>2026-05-03T10:23:10.716Z</time></trkpt><trkpt lat="43.23419" lon="11.1909421"><ele>283.5</ele><time>2026-05-03T10:23:11.724Z</time></trkpt><trkpt lat="43.2343247" lon="11.1908213"><ele>281.0</ele><time>2026-05-03T10:23:12.717Z</time></trkpt><trkpt lat="43.2344499" lon="11.1907156"><ele>278.5</ele><time>2026-05-03T10:23:13.705Z</time></trkpt><trkpt lat="43.2345646" lon="11.1906461"><ele>276.0</ele><time>2026-05-03T10:23:14.702Z</time></trkpt><trkpt lat="43.2346826" lon="11.1906248"><ele>276.75</ele><time>2026-05-03T10:23:15.711Z</time></trkpt><trkpt lat="43.2348056" lon="11.1906584"><ele>277.5</ele><time>2026-05-03T10:23:16.719Z</time></trkpt><trkpt lat="43.2349281" lon="11.1907471"><ele>278.25</ele><time>2026-05-03T10:23:17.729Z</time></trkpt><trkpt lat="43.2350521" lon="11.190882"><ele>279.0</ele><time>2026-05-03T10:23:18.71Z</time></trkpt><trkpt lat="43.2351729" lon="11.1910406"><ele>279.0</ele><time>2026-05-03T10:23:19.72Z</time></trkpt><trkpt lat="43.2352845" lon="11.1912057"><ele>279.0</ele><time>2026-05-03T10:23:20.725Z</time></trkpt><trkpt lat="43.2354008" lon="11.191347"><ele>279.0</ele><time>2026-05-03T10:23:21.72Z</time></trkpt><trkpt lat="43.2355239" lon="11.1914452"><ele>277.75</ele><time>2026-05-03T10:23:22.724Z</time></trkpt><trkpt lat="43.2356577" lon="11.1915108"><ele>276.5</ele><time>2026-05-03T10:23:23.729Z</time></trkpt><trkpt lat="43.2358029" lon="11.1915531"><ele>275.25</ele><time>2026-05-03T10:23:24.73Z</time></trkpt><trkpt lat="43.2359447" lon="11.1915725"><ele>274.0</ele><time>2026-05-03T10:23:25.725Z</time></trkpt><trkpt lat="43.2360812" lon="11.191593"><ele>274.0</ele><time>2026-05-03T10:23:26.714Z</time></trkpt><trkpt lat="43.2362073" lon="11.1916117"><ele>274.0</ele><time>2026-05-03T10:23:27.721Z</time></trkpt><trkpt lat="43.2363223" lon="11.1916318"><ele>274.0</ele><time>2026-05-03T10:23:28.713Z</time></trkpt><trkpt lat="43.2327569" lon="11.1904421"><ele>276.3333333333333</ele><time>2026-05-03T10:22:58.719Z</time></trkpt><trkpt lat="43.2328056" lon="11.1906653"><ele>278.6666666666667</ele><time>2026-05-03T10:22:59.722Z</time></trkpt><trkpt lat="43.2328618" lon="11.1908858"><ele>281.0</ele><time>2026-05-03T10:23:00.734Z</time></trkpt><trkpt lat="43.2329299" lon="11.1910874"><ele>281.0</ele><time>2026-05-03T10:23:01.71Z</time></trkpt><trkpt lat="43.2330101" lon="11.1912529"><ele>281.0</ele><time>2026-05-03T10:23:02.716Z</time></trkpt><trkpt lat="43.2331053" lon="11.1913858"><ele>281.0</ele><time>2026-05-03T10:23:03.72Z</time></trkpt><trkpt lat="43.2332106" lon="11.1914913"><ele>281.0</ele><time>2026-05-03T10:23:04.716Z</time></trkpt><trkpt lat="43.2333289" lon="11.1915466"><ele>281.0</ele><time>2026-05-03T10:23:05.718Z</time></trkpt><trkpt lat="43.2334691" lon="11.1915247"><ele>281.0</ele><time>2026-05-03T10:23:06.709Z</time></trkpt><trkpt lat="43.2336143" lon="11.1914093"><ele>281.0</ele><time>2026-05-03T10:23:07.72Z</time></trkpt><trkpt lat="43.233758" lon="11.1913075"><ele>282.6666666666667</ele><time>2026-05-03T10:23:08.711Z</time></trkpt><trkpt lat="43.233905" lon="11.1911911"><ele>284.3333333333333</ele><time>2026-05-03T10:23:09.712Z</time></trkpt><trkpt lat="43.2340491" lon="11.1910585"><ele>286.0</ele><time>2026-05-03T10:23:10.716Z</time></trkpt><trkpt lat="43.23419" lon="11.1909421"><ele>283.5</ele><time>2026-05-03T10:23:11.724Z</time></trkpt><trkpt lat="43.2343247" lon="11.1908213"><ele>281.0</ele><time>2026-05-03T10:23:12.717Z</time></trkpt><trkpt lat="43.2344499" lon="11.1907156"><ele>278.5</ele><time>2026-05-03T10:23:13.705Z</time></trkpt><trkpt lat="43.2345646" lon="11.1906461"><ele>276.0</ele><time>2026-05-03T10:23:14.702Z</time></trkpt><trkpt lat="43.2346826" lon="11.1906248"><ele>276.75</ele><time>2026-05-03T10:23:15.711Z</time></trkpt><trkpt lat="43.2348056" lon="11.1906584"><ele>277.5</ele><time>2026-05-03T10:23:16.719Z</time></trkpt><trkpt lat="43.2349281" lon="11.1907471"><ele>278.25</ele><time>2026-05-03T10:23:17.729Z</time></trkpt><trkpt lat="43.2350521" lon="11.190882"><ele>279.0</ele><time>2026-05-03T10:23:18.71Z</time></trkpt><trkpt lat="43.2351729" lon="11.1910406"><ele>279.0</ele><time>2026-05-03T10:23:19.72Z</time></trkpt><trkpt lat="43.2352845" lon="11.1912057"><ele>279.0</ele><time>2026-05-03T10:23:20.725Z</time></trkpt><trkpt lat="43.2354008" lon="11.191347"><ele>279.0</ele><time>2026-05-03T10:23:21.72Z</time></trkpt><trkpt lat="43.2355239" lon="11.1914452"><ele>277.75</ele><time>2026-05-03T10:23:22.724Z</time></trkpt><trkpt lat="43.2356577" lon="11.1915108"><ele>276.5</ele><time>2026-05-03T10:23:23.729Z</time></trkpt><trkpt lat="43.2358029" lon="11.1915531"><ele>275.25</ele><time>2026-05-03T10:23:24.73Z</time></trkpt><trkpt lat="43.2359447" lon="11.1915725"><ele>274.0</ele><time>2026-05-03T10:23:25.725Z</time></trkpt><trkpt lat="43.2360812" lon="11.191593"><ele>274.0</ele><time>2026-05-03T10:23:26.714Z</time></trkpt><trkpt lat="43.2362073" lon="11.1916117"><ele>274.0</ele><time>2026-05-03T10:23:27.721Z</time></trkpt><trkpt lat="43.2363223" lon="11.1916318"><ele>274.0</ele><time>2026-05-03T10:23:28.713Z</time></trkpt><trkpt lat="43.2364368" lon="11.1916612"><ele>274.0</ele><time>2026-05-03T10:23:29.725Z</time></trkpt><trkpt lat="43.2365539" lon="11.1917006"><ele>275.5</ele><time>2026-05-03T10:23:30.719Z</time></trkpt><trkpt lat="43.2366777" lon="11.1917527"><ele>277.0</ele><time>2026-05-03T10:23:31.73Z</time></trkpt><trkpt lat="43.2368065" lon="11.1918103"><ele>278.5</ele><time>2026-05-03T10:23:32.715Z</time></trkpt><trkpt lat="43.2369341" lon="11.1918852"><ele>280.0</ele><time>2026-05-03T10:23:33.728Z</time></trkpt><trkpt lat="43.2370459" lon="11.1919624"><ele>280.0</ele><time>2026-05-03T10:23:34.716Z</time></trkpt><trkpt lat="43.2371447" lon="11.1920385"><ele>280.0</ele><time>2026-05-03T10:23:35.727Z</time></trkpt><trkpt lat="43.2372346" lon="11.192111"><ele>280.0</ele><time>2026-05-03T10:23:36.71Z</time></trkpt><trkpt lat="43.237314" lon="11.1921752"><ele>280.0</ele><time>2026-05-03T10:23:37.719Z</time></trkpt><trkpt lat="43.2373894" lon="11.1922392"><ele>280.0</ele><time>2026-05-03T10:23:38.707Z</time></trkpt><trkpt lat="43.2374592" lon="11.1923259"><ele>278.8</ele><time>2026-05-03T10:23:39.73Z</time></trkpt><trkpt lat="43.2375109" lon="11.1924358"><ele>277.6</ele><time>2026-05-03T10:23:40.723Z</time></trkpt><trkpt lat="43.2375488" lon="11.19256"><ele>276.4</ele><time>2026-05-03T10:23:41.718Z</time></trkpt><trkpt lat="43.2375819" lon="11.1926792"><ele>275.2</ele><time>2026-05-03T10:23:42.714Z</time></trkpt><trkpt lat="43.2376132" lon="11.1927928"><ele>274.0</ele><time>2026-05-03T10:23:43.72Z</time></trkpt><trkpt lat="43.2376416" lon="11.1928932"><ele>274.0</ele><time>2026-05-03T10:23:44.713Z</time></trkpt><trkpt lat="43.2376783" lon="11.192986"><ele>274.0</ele><time>2026-05-03T10:23:45.713Z</time></trkpt><trkpt lat="43.2377324" lon="11.1930622"><ele>274.0</ele><time>2026-05-03T10:23:46.707Z</time></trkpt><trkpt lat="43.2378076" lon="11.1931063"><ele>274.0</ele><time>2026-05-03T10:23:47.733Z</time></trkpt><trkpt lat="43.2378968" lon="11.1931018"><ele>274.0</ele><time>2026-05-03T10:23:48.706Z</time></trkpt><trkpt lat="43.2379832" lon="11.193035"><ele>274.0</ele><time>2026-05-03T10:23:49.72Z</time></trkpt><trkpt lat="43.2380491" lon="11.1929499"><ele>274.0</ele><time>2026-05-03T10:23:50.713Z</time></trkpt><trkpt lat="43.2380968" lon="11.1928509"><ele>274.0</ele><time>2026-05-03T10:23:51.724Z</time></trkpt><trkpt lat="43.2381411" lon="11.1927462"><ele>274.0</ele><time>2026-05-03T10:23:52.722Z</time></trkpt><trkpt lat="43.2381955" lon="11.1926383"><ele>274.0</ele><time>2026-05-03T10:23:53.729Z</time></trkpt><trkpt lat="43.23826" lon="11.1925323"><ele>274.0</ele><time>2026-05-03T10:23:54.727Z</time></trkpt><trkpt lat="43.2383316" lon="11.1924315"><ele>278.8</ele><time>2026-05-03T10:23:55.714Z</time></trkpt><trkpt lat="43.2384074" lon="11.1923376"><ele>283.59999999999997</ele><time>2026-05-03T10:23:56.72Z</time></trkpt><trkpt lat="43.2384954" lon="11.1922688"><ele>288.4</ele><time>2026-05-03T10:23:57.719Z</time></trkpt><trkpt lat="43.23859" lon="11.1922308"><ele>293.2</ele><time>2026-05-03T10:23:58.714Z</time></trkpt><trkpt lat="43.238689" lon="11.1922216"><ele>298.0</ele><time>2026-05-03T10:23:59.733Z</time></trkpt><trkpt lat="43.2387923" lon="11.1922324"><ele>298.0</ele><time>2026-05-03T10:24:00.707Z</time></trkpt><trkpt lat="43.2388863" lon="11.192268"><ele>298.0</ele><time>2026-05-03T10:24:01.734Z</time></trkpt><trkpt lat="43.2389727" lon="11.1923282"><ele>298.0</ele><time>2026-05-03T10:24:02.721Z</time></trkpt><trkpt lat="43.2390349" lon="11.1924162"><ele>298.0</ele><time>2026-05-03T10:24:03.714Z</time></trkpt><trkpt lat="43.23908" lon="11.1925195"><ele>298.0</ele><time>2026-05-03T10:24:04.727Z</time></trkpt><trkpt lat="43.2391137" lon="11.1926355"><ele>293.16666666666663</ele><time>2026-05-03T10:24:05.741Z</time></trkpt><trkpt lat="43.2391548" lon="11.1927521"><ele>288.3333333333333</ele><time>2026-05-03T10:24:06.718Z</time></trkpt><trkpt lat="43.2391966" lon="11.1928617"><ele>283.5</ele><time>2026-05-03T10:24:07.721Z</time></trkpt><trkpt lat="43.2392327" lon="11.1929551"><ele>278.6666666666667</ele><time>2026-05-03T10:24:08.721Z</time></trkpt><trkpt lat="43.2392644" lon="11.1930419"><ele>273.83333333333337</ele><time>2026-05-03T10:24:09.725Z</time></trkpt><trkpt lat="43.2392979" lon="11.1931275"><ele>269.0</ele><time>2026-05-03T10:24:10.714Z</time></trkpt><trkpt lat="43.239333" lon="11.19322"><ele>267.4</ele><time>2026-05-03T10:24:11.718Z</time></trkpt><trkpt lat="43.2393653" lon="11.1933188"><ele>265.79999999999995</ele><time>2026-05-03T10:24:12.722Z</time></trkpt><trkpt lat="43.2394004" lon="11.1934333"><ele>264.20000000000005</ele><time>2026-05-03T10:24:13.709Z</time></trkpt><trkpt lat="43.2394361" lon="11.1935589"><ele>262.6</ele><time>2026-05-03T10:24:14.701Z</time></trkpt><trkpt lat="43.2394739" lon="11.1936901"><ele>261.0</ele><time>2026-05-03T10:24:15.719Z</time></trkpt><trkpt lat="43.2395113" lon="11.1938304"><ele>261.0</ele><time>2026-05-03T10:24:16.725Z</time></trkpt><trkpt lat="43.2395532" lon="11.1939767"><ele>261.0</ele><time>2026-05-03T10:24:17.725Z</time></trkpt><trkpt lat="43.2396039" lon="11.1941315"><ele>261.0</ele><time>2026-05-03T10:24:18.72Z</time></trkpt><trkpt lat="43.2396562" lon="11.1942924"><ele>261.0</ele><time>2026-05-03T10:24:19.716Z</time></trkpt><trkpt lat="43.2397107" lon="11.1944638"><ele>261.75</ele><time>2026-05-03T10:24:20.717Z</time></trkpt><trkpt lat="43.2397614" lon="11.1946462"><ele>262.5</ele><time>2026-05-03T10:24:21.723Z</time></trkpt><trkpt lat="43.2398158" lon="11.1948343"><ele>263.25</ele><time>2026-05-03T10:24:22.721Z</time></trkpt><trkpt lat="43.239873" lon="11.1950281"><ele>264.0</ele><time>2026-05-03T10:24:23.715Z</time></trkpt><trkpt lat="43.2399295" lon="11.195226"><ele>261.0</ele><time>2026-05-03T10:24:24.715Z</time></trkpt><trkpt lat="43.2399845" lon="11.1954308"><ele>258.0</ele><time>2026-05-03T10:24:25.725Z</time></trkpt><trkpt lat="43.2400366" lon="11.1956419"><ele>255.0</ele><time>2026-05-03T10:24:26.716Z</time></trkpt><trkpt lat="43.2400903" lon="11.1958595"><ele>254.0</ele><time>2026-05-03T10:24:27.718Z</time></trkpt><trkpt lat="43.24014" lon="11.196077"><ele>253.0</ele><time>2026-05-03T10:24:28.716Z</time></trkpt><trkpt lat="43.240184" lon="11.1963133"><ele>252.0</ele><time>2026-05-03T10:24:29.721Z</time></trkpt><trkpt lat="43.2402234" lon="11.1965735"><ele>250.0</ele><time>2026-05-03T10:24:30.724Z</time></trkpt><trkpt lat="43.2402634" lon="11.1968695"><ele>248.0</ele><time>2026-05-03T10:24:31.718Z</time></trkpt><trkpt lat="43.2402981" lon="11.1971848"><ele>247.0</ele><time>2026-05-03T10:24:32.73Z</time></trkpt><trkpt lat="43.240332" lon="11.1974968"><ele>246.0</ele><time>2026-05-03T10:24:33.727Z</time></trkpt><trkpt lat="43.240368" lon="11.1978091"><ele>246.0</ele><time>2026-05-03T10:24:34.725Z</time></trkpt><trkpt lat="43.2403974" lon="11.1981157"><ele>246.0</ele><time>2026-05-03T10:24:35.722Z</time></trkpt><trkpt lat="43.2404198" lon="11.1984222"><ele>245.66666666666669</ele><time>2026-05-03T10:24:36.725Z</time></trkpt><trkpt lat="43.2404456" lon="11.1987266"><ele>245.33333333333334</ele><time>2026-05-03T10:24:37.729Z</time></trkpt><trkpt lat="43.2404779" lon="11.1990203"><ele>245.0</ele><time>2026-05-03T10:24:38.729Z</time></trkpt><trkpt lat="43.2405146" lon="11.1993078"><ele>244.33333333333334</ele><time>2026-05-03T10:24:39.718Z</time></trkpt><trkpt lat="43.2405444" lon="11.1995984"><ele>243.66666666666669</ele><time>2026-05-03T10:24:40.718Z</time></trkpt><trkpt lat="43.2405763" lon="11.1998788"><ele>243.0</ele><time>2026-05-03T10:24:41.721Z</time></trkpt><trkpt lat="43.2406171" lon="11.2001548"><ele>243.0</ele><time>2026-05-03T10:24:42.715Z</time></trkpt><trkpt lat="43.240677" lon="11.2004257"><ele>243.0</ele><time>2026-05-03T10:24:43.724Z</time></trkpt><trkpt lat="43.2407581" lon="11.2006897"><ele>243.0</ele><time>2026-05-03T10:24:44.719Z</time></trkpt><trkpt lat="43.2408493" lon="11.200948"><ele>243.0</ele><time>2026-05-03T10:24:45.736Z</time></trkpt><trkpt lat="43.2409426" lon="11.201207"><ele>243.0</ele><time>2026-05-03T10:24:46.727Z</time></trkpt><trkpt lat="43.2410354" lon="11.2014617"><ele>243.0</ele><time>2026-05-03T10:24:47.728Z</time></trkpt><trkpt lat="43.2411348" lon="11.2017177"><ele>243.0</ele><time>2026-05-03T10:24:48.711Z</time></trkpt><trkpt lat="43.2412437" lon="11.2019517"><ele>243.0</ele><time>2026-05-03T10:24:49.728Z</time></trkpt><trkpt lat="43.2413807" lon="11.2021566"><ele>243.0</ele><time>2026-05-03T10:24:50.724Z</time></trkpt><trkpt lat="43.2415377" lon="11.2023553"><ele>243.0</ele><time>2026-05-03T10:24:51.725Z</time></trkpt><trkpt lat="43.2417147" lon="11.2025389"><ele>243.0</ele><time>2026-05-03T10:24:52.705Z</time></trkpt><trkpt lat="43.2418992" lon="11.2027228"><ele>243.0</ele><time>2026-05-03T10:24:53.716Z</time></trkpt><trkpt lat="43.2420888" lon="11.202914"><ele>243.0</ele><time>2026-05-03T10:24:54.715Z</time></trkpt><trkpt lat="43.2422871" lon="11.2030985"><ele>241.5</ele><time>2026-05-03T10:24:55.719Z</time></trkpt><trkpt lat="43.2424878" lon="11.2032714"><ele>240.0</ele><time>2026-05-03T10:24:56.715Z</time></trkpt><trkpt lat="43.2426936" lon="11.20343"><ele>240.0</ele><time>2026-05-03T10:24:57.713Z</time></trkpt><trkpt lat="43.2428989" lon="11.2035728"><ele>240.0</ele><time>2026-05-03T10:24:58.712Z</time></trkpt><trkpt lat="43.2430987" lon="11.2037175"><ele>240.66666666666669</ele><time>2026-05-03T10:24:59.731Z</time></trkpt><trkpt lat="43.24327" lon="11.2038577"><ele>241.33333333333334</ele><time>2026-05-03T10:25:00.723Z</time></trkpt><trkpt lat="43.2434058" lon="11.2040171"><ele>242.0</ele><time>2026-05-03T10:25:01.731Z</time></trkpt><trkpt lat="43.2435184" lon="11.2042093"><ele>242.0</ele><time>2026-05-03T10:25:02.708Z</time></trkpt><trkpt lat="43.2435969" lon="11.2044291"><ele>242.0</ele><time>2026-05-03T10:25:03.719Z</time></trkpt><trkpt lat="43.243657" lon="11.2046651"><ele>242.0</ele><time>2026-05-03T10:25:04.723Z</time></trkpt><trkpt lat="43.2437439" lon="11.2048927"><ele>241.66666666666669</ele><time>2026-05-03T10:25:05.715Z</time></trkpt><trkpt lat="43.2438593" lon="11.2051219"><ele>241.33333333333331</ele><time>2026-05-03T10:25:06.717Z</time></trkpt><trkpt lat="43.2440246" lon="11.2053431"><ele>241.0</ele><time>2026-05-03T10:25:07.712Z</time></trkpt><trkpt lat="43.2442098" lon="11.2055652"><ele>239.0</ele><time>2026-05-03T10:25:08.701Z</time></trkpt><trkpt lat="43.2444012" lon="11.2058073"><ele>237.0</ele><time>2026-05-03T10:25:09.713Z</time></trkpt><trkpt lat="43.2445888" lon="11.2060499"><ele>237.0</ele><time>2026-05-03T10:25:10.711Z</time></trkpt><trkpt lat="43.2447588" lon="11.206288"><ele>237.0</ele><time>2026-05-03T10:25:11.727Z</time></trkpt><trkpt lat="43.2449129" lon="11.2065201"><ele>237.0</ele><time>2026-05-03T10:25:12.723Z</time></trkpt><trkpt lat="43.2450572" lon="11.2067784"><ele>237.0</ele><time>2026-05-03T10:25:13.73Z</time></trkpt><trkpt lat="43.2451822" lon="11.2070676"><ele>235.0</ele><time>2026-05-03T10:25:14.722Z</time></trkpt><trkpt lat="43.2453035" lon="11.2073714"><ele>233.0</ele><time>2026-05-03T10:25:15.724Z</time></trkpt><trkpt lat="43.2454244" lon="11.2076946"><ele>233.0</ele><time>2026-05-03T10:25:16.715Z</time></trkpt><trkpt lat="43.2455494" lon="11.2080039"><ele>233.0</ele><time>2026-05-03T10:25:17.703Z</time></trkpt><trkpt lat="43.2456922" lon="11.2082984"><ele>229.5</ele><time>2026-05-03T10:25:18.713Z</time></trkpt><trkpt lat="43.2458503" lon="11.2085817"><ele>226.0</ele><time>2026-05-03T10:25:19.728Z</time></trkpt><trkpt lat="43.2460241" lon="11.2088599"><ele>226.5</ele><time>2026-05-03T10:25:20.707Z</time></trkpt><trkpt lat="43.2462037" lon="11.2091193"><ele>227.0</ele><time>2026-05-03T10:25:21.722Z</time></trkpt><trkpt lat="43.2463803" lon="11.2093753"><ele>226.33333333333334</ele><time>2026-05-03T10:25:22.727Z</time></trkpt><trkpt lat="43.2465365" lon="11.2096067"><ele>225.66666666666669</ele><time>2026-05-03T10:25:23.716Z</time></trkpt><trkpt lat="43.2466673" lon="11.2098366"><ele>225.0</ele><time>2026-05-03T10:25:24.727Z</time></trkpt><trkpt lat="43.2467694" lon="11.2100921"><ele>225.0</ele><time>2026-05-03T10:25:25.72Z</time></trkpt><trkpt lat="43.2468436" lon="11.2103754"><ele>225.0</ele><time>2026-05-03T10:25:26.723Z</time></trkpt><trkpt lat="43.2468862" lon="11.2106688"><ele>225.0</ele><time>2026-05-03T10:25:27.721Z</time></trkpt><trkpt lat="43.2468973" lon="11.2109527"><ele>223.66666666666669</ele><time>2026-05-03T10:25:28.725Z</time></trkpt><trkpt lat="43.2468857" lon="11.2112388"><ele>222.33333333333334</ele><time>2026-05-03T10:25:29.716Z</time></trkpt><trkpt lat="43.2468414" lon="11.2115186"><ele>221.0</ele><time>2026-05-03T10:25:30.722Z</time></trkpt><trkpt lat="43.2467543" lon="11.211787"><ele>220.66666666666669</ele><time>2026-05-03T10:25:31.715Z</time></trkpt><trkpt lat="43.2466406" lon="11.2120503"><ele>220.33333333333331</ele><time>2026-05-03T10:25:32.725Z</time></trkpt><trkpt lat="43.2465167" lon="11.2123052"><ele>220.0</ele><time>2026-05-03T10:25:33.713Z</time></trkpt><trkpt lat="43.2463909" lon="11.2125509"><ele>218.66666666666666</ele><time>2026-05-03T10:25:34.721Z</time></trkpt><trkpt lat="43.2462723" lon="11.2127913"><ele>217.33333333333331</ele><time>2026-05-03T10:25:35.717Z</time></trkpt><trkpt lat="43.2461621" lon="11.2130259"><ele>216.0</ele><time>2026-05-03T10:25:36.715Z</time></trkpt><trkpt lat="43.2460546" lon="11.2132516"><ele>214.66666666666669</ele><time>2026-05-03T10:25:37.713Z</time></trkpt><trkpt lat="43.245957" lon="11.2134808"><ele>213.33333333333334</ele><time>2026-05-03T10:25:38.711Z</time></trkpt><trkpt lat="43.2458661" lon="11.213718"><ele>212.0</ele><time>2026-05-03T10:25:39.715Z</time></trkpt><trkpt lat="43.2457855" lon="11.2139676"><ele>213.33333333333334</ele><time>2026-05-03T10:25:40.709Z</time></trkpt><trkpt lat="43.2457256" lon="11.214224"><ele>214.66666666666669</ele><time>2026-05-03T10:25:41.722Z</time></trkpt><trkpt lat="43.2456717" lon="11.214479"><ele>216.0</ele><time>2026-05-03T10:25:42.733Z</time></trkpt><trkpt lat="43.2456175" lon="11.2147266"><ele>214.33333333333331</ele><time>2026-05-03T10:25:43.715Z</time></trkpt><trkpt lat="43.2455654" lon="11.2149704"><ele>212.66666666666666</ele><time>2026-05-03T10:25:44.724Z</time></trkpt><trkpt lat="43.2455121" lon="11.2152171"><ele>211.0</ele><time>2026-05-03T10:25:45.719Z</time></trkpt><trkpt lat="43.2454642" lon="11.2154627"><ele>210.33333333333331</ele><time>2026-05-03T10:25:46.732Z</time></trkpt><trkpt lat="43.2454151" lon="11.2157049"><ele>209.66666666666669</ele><time>2026-05-03T10:25:47.733Z</time></trkpt><trkpt lat="43.245365" lon="11.2159452"><ele>209.0</ele><time>2026-05-03T10:25:48.73Z</time></trkpt><trkpt lat="43.2453097" lon="11.2161859"><ele>209.0</ele><time>2026-05-03T10:25:49.728Z</time></trkpt><trkpt lat="43.2452562" lon="11.2164306"><ele>209.0</ele><time>2026-05-03T10:25:50.719Z</time></trkpt><trkpt lat="43.245204" lon="11.2166792"><ele>209.0</ele><time>2026-05-03T10:25:51.728Z</time></trkpt><trkpt lat="43.2451564" lon="11.2169243"><ele>211.0</ele><time>2026-05-03T10:25:52.73Z</time></trkpt><trkpt lat="43.2451163" lon="11.2171573"><ele>213.0</ele><time>2026-05-03T10:25:53.729Z</time></trkpt><trkpt lat="43.2450789" lon="11.217375"><ele>215.0</ele><time>2026-05-03T10:25:54.717Z</time></trkpt><trkpt lat="43.2450416" lon="11.2175788"><ele>215.0</ele><time>2026-05-03T10:25:55.727Z</time></trkpt><trkpt lat="43.2449996" lon="11.2177763"><ele>215.0</ele><time>2026-05-03T10:25:56.73Z</time></trkpt><trkpt lat="43.2449459" lon="11.2179727"><ele>215.0</ele><time>2026-05-03T10:25:57.732Z</time></trkpt><trkpt lat="43.2448797" lon="11.2181624"><ele>213.66666666666669</ele><time>2026-05-03T10:25:58.725Z</time></trkpt><trkpt lat="43.2448006" lon="11.2183504"><ele>212.33333333333331</ele><time>2026-05-03T10:25:59.732Z</time></trkpt><trkpt lat="43.244719" lon="11.2185358"><ele>211.0</ele><time>2026-05-03T10:26:00.729Z</time></trkpt><trkpt lat="43.2446438" lon="11.2187104"><ele>209.25</ele><time>2026-05-03T10:26:01.724Z</time></trkpt><trkpt lat="43.2445796" lon="11.2188719"><ele>207.5</ele><time>2026-05-03T10:26:02.719Z</time></trkpt><trkpt lat="43.2445193" lon="11.2190237"><ele>205.75</ele><time>2026-05-03T10:26:03.724Z</time></trkpt><trkpt lat="43.2444662" lon="11.2191608"><ele>204.0</ele><time>2026-05-03T10:26:04.713Z</time></trkpt><trkpt lat="43.2444252" lon="11.2192874"><ele>204.0</ele><time>2026-05-03T10:26:05.729Z</time></trkpt><trkpt lat="43.2443963" lon="11.2194176"><ele>204.0</ele><time>2026-05-03T10:26:06.732Z</time></trkpt><trkpt lat="43.2443867" lon="11.2195686"><ele>204.0</ele><time>2026-05-03T10:26:07.726Z</time></trkpt><trkpt lat="43.2444046" lon="11.2197399"><ele>204.0</ele><time>2026-05-03T10:26:08.721Z</time></trkpt><trkpt lat="43.2444411" lon="11.2199042"><ele>204.0</ele><time>2026-05-03T10:26:09.728Z</time></trkpt><trkpt lat="43.2444867" lon="11.220057"><ele>204.0</ele><time>2026-05-03T10:26:10.726Z</time></trkpt><trkpt lat="43.2445252" lon="11.2202046"><ele>204.0</ele><time>2026-05-03T10:26:11.725Z</time></trkpt><trkpt lat="43.2445639" lon="11.2203689"><ele>204.0</ele><time>2026-05-03T10:26:12.726Z</time></trkpt><trkpt lat="43.2446042" lon="11.2205552"><ele>203.66666666666669</ele><time>2026-05-03T10:26:13.722Z</time></trkpt><trkpt lat="43.2446509" lon="11.2207524"><ele>203.33333333333334</ele><time>2026-05-03T10:26:14.726Z</time></trkpt><trkpt lat="43.244701" lon="11.220953"><ele>203.0</ele><time>2026-05-03T10:26:15.728Z</time></trkpt><trkpt lat="43.2447492" lon="11.2211416"><ele>202.75</ele><time>2026-05-03T10:26:16.73Z</time></trkpt><trkpt lat="43.2448" lon="11.2213213"><ele>202.5</ele><time>2026-05-03T10:26:17.72Z</time></trkpt><trkpt lat="43.2448508" lon="11.2214957"><ele>202.25</ele><time>2026-05-03T10:26:18.729Z</time></trkpt><trkpt lat="43.2449109" lon="11.2216653"><ele>202.0</ele><time>2026-05-03T10:26:19.729Z</time></trkpt><trkpt lat="43.2449761" lon="11.2218289"><ele>202.0</ele><time>2026-05-03T10:26:20.725Z</time></trkpt><trkpt lat="43.2450556" lon="11.221978"><ele>202.0</ele><time>2026-05-03T10:26:21.729Z</time></trkpt><trkpt lat="43.2451579" lon="11.2221103"><ele>202.0</ele><time>2026-05-03T10:26:22.733Z</time></trkpt><trkpt lat="43.2452724" lon="11.2222166"><ele>202.0</ele><time>2026-05-03T10:26:23.729Z</time></trkpt><trkpt lat="43.2453994" lon="11.2223054"><ele>202.0</ele><time>2026-05-03T10:26:24.734Z</time></trkpt><trkpt lat="43.245526" lon="11.2223779"><ele>202.0</ele><time>2026-05-03T10:26:25.741Z</time></trkpt><trkpt lat="43.2456545" lon="11.222437"><ele>202.0</ele><time>2026-05-03T10:26:26.719Z</time></trkpt><trkpt lat="43.2457646" lon="11.2224856"><ele>202.0</ele><time>2026-05-03T10:26:27.725Z</time></trkpt><trkpt lat="43.245856" lon="11.2225268"><ele>201.99999999999997</ele><time>2026-05-03T10:26:28.72Z</time></trkpt><trkpt lat="43.2459379" lon="11.2225693"><ele>202.0</ele><time>2026-05-03T10:26:29.732Z</time></trkpt><trkpt lat="43.2460176" lon="11.2225982"><ele>202.0</ele><time>2026-05-03T10:26:30.728Z</time></trkpt><trkpt lat="43.2460904" lon="11.2226259"><ele>202.0</ele><time>2026-05-03T10:26:31.741Z</time></trkpt><trkpt lat="43.2461576" lon="11.2226515"><ele>201.99999999999997</ele><time>2026-05-03T10:26:32.721Z</time></trkpt><trkpt lat="43.2462225" lon="11.2226739"><ele>202.0</ele><time>2026-05-03T10:26:33.73Z</time></trkpt><trkpt lat="43.2463514" lon="11.2227169"><ele>201.99999999999997</ele><time>2026-05-03T10:26:35.72Z</time></trkpt><trkpt lat="43.2464277" lon="11.2227465"><ele>202.0</ele><time>2026-05-03T10:26:36.722Z</time></trkpt><trkpt lat="43.2465104" lon="11.2227754"><ele>202.0</ele><time>2026-05-03T10:26:37.729Z</time></trkpt><trkpt lat="43.2465927" lon="11.2228057"><ele>202.0</ele><time>2026-05-03T10:26:38.725Z</time></trkpt><trkpt lat="43.2466658" lon="11.2228343"><ele>201.99999999999997</ele><time>2026-05-03T10:26:39.731Z</time></trkpt><trkpt lat="43.2467398" lon="11.2228524"><ele>202.0</ele><time>2026-05-03T10:26:40.719Z</time></trkpt><trkpt lat="43.246828" lon="11.2228638"><ele>201.8</ele><time>2026-05-03T10:26:41.722Z</time></trkpt><trkpt lat="43.24692" lon="11.2228779"><ele>201.6</ele><time>2026-05-03T10:26:42.715Z</time></trkpt><trkpt lat="43.2470252" lon="11.2229018"><ele>201.4</ele><time>2026-05-03T10:26:43.718Z</time></trkpt><trkpt lat="43.2471372" lon="11.2229306"><ele>201.20000000000002</ele><time>2026-05-03T10:26:44.726Z</time></trkpt><trkpt lat="43.2472472" lon="11.2229527"><ele>201.0</ele><time>2026-05-03T10:26:45.721Z</time></trkpt><trkpt lat="43.2473502" lon="11.2229658"><ele>201.0</ele><time>2026-05-03T10:26:46.726Z</time></trkpt><trkpt lat="43.2474462" lon="11.2229715"><ele>201.0</ele><time>2026-05-03T10:26:47.732Z</time></trkpt><trkpt lat="43.2475352" lon="11.222972"><ele>201.0</ele><time>2026-05-03T10:26:48.716Z</time></trkpt><trkpt lat="43.2476091" lon="11.2229768"><ele>201.0</ele><time>2026-05-03T10:26:49.726Z</time></trkpt><trkpt lat="43.2476784" lon="11.2229819"><ele>201.0</ele><time>2026-05-03T10:26:50.716Z</time></trkpt><trkpt lat="43.2477532" lon="11.222984"><ele>201.0</ele><time>2026-05-03T10:26:51.724Z</time></trkpt><trkpt lat="43.2478304" lon="11.2229879"><ele>201.0</ele><time>2026-05-03T10:26:52.724Z</time></trkpt><trkpt lat="43.2479024" lon="11.2229869"><ele>201.0</ele><time>2026-05-03T10:26:53.73Z</time></trkpt><trkpt lat="43.2479792" lon="11.2229891"><ele>201.0</ele><time>2026-05-03T10:26:54.729Z</time></trkpt><trkpt lat="43.2480659" lon="11.222991"><ele>201.0</ele><time>2026-05-03T10:26:55.727Z</time></trkpt><trkpt lat="43.2481613" lon="11.2229923"><ele>201.0</ele><time>2026-05-03T10:26:56.724Z</time></trkpt><trkpt lat="43.2482634" lon="11.222995"><ele>201.0</ele><time>2026-05-03T10:26:57.727Z</time></trkpt><trkpt lat="43.24838" lon="11.2229954"><ele>201.0</ele><time>2026-05-03T10:26:58.718Z</time></trkpt><trkpt lat="43.248505" lon="11.2229937"><ele>201.0</ele><time>2026-05-03T10:26:59.729Z</time></trkpt><trkpt lat="43.2486422" lon="11.2229974"><ele>201.0</ele><time>2026-05-03T10:27:00.722Z</time></trkpt><trkpt lat="43.2488027" lon="11.2230042"><ele>201.0</ele><time>2026-05-03T10:27:01.714Z</time></trkpt><trkpt lat="43.2489781" lon="11.2230147"><ele>201.25</ele><time>2026-05-03T10:27:02.735Z</time></trkpt><trkpt lat="43.2491504" lon="11.2230297"><ele>201.5</ele><time>2026-05-03T10:27:03.729Z</time></trkpt><trkpt lat="43.2492967" lon="11.2230519"><ele>201.75</ele><time>2026-05-03T10:27:04.742Z</time></trkpt><trkpt lat="43.2494207" lon="11.2230671"><ele>202.0</ele><time>2026-05-03T10:27:05.737Z</time></trkpt><trkpt lat="43.2495381" lon="11.2230804"><ele>202.0</ele><time>2026-05-03T10:27:06.725Z</time></trkpt><trkpt lat="43.2496617" lon="11.2230935"><ele>202.0</ele><time>2026-05-03T10:27:07.743Z</time></trkpt><trkpt lat="43.2498023" lon="11.2231169"><ele>202.0</ele><time>2026-05-03T10:27:08.728Z</time></trkpt><trkpt lat="43.2499598" lon="11.2231528"><ele>202.0</ele><time>2026-05-03T10:27:09.722Z</time></trkpt><trkpt lat="43.2501233" lon="11.2232026"><ele>200.66666666666666</ele><time>2026-05-03T10:27:10.721Z</time></trkpt><trkpt lat="43.2502877" lon="11.2232611"><ele>199.33333333333331</ele><time>2026-05-03T10:27:11.72Z</time></trkpt><trkpt lat="43.2504476" lon="11.2233175"><ele>198.0</ele><time>2026-05-03T10:27:12.725Z</time></trkpt><trkpt lat="43.2505986" lon="11.2233667"><ele>197.33333333333331</ele><time>2026-05-03T10:27:13.725Z</time></trkpt><trkpt lat="43.2507478" lon="11.2234073"><ele>196.66666666666666</ele><time>2026-05-03T10:27:14.726Z</time></trkpt><trkpt lat="43.2509017" lon="11.2234509"><ele>196.0</ele><time>2026-05-03T10:27:15.725Z</time></trkpt><trkpt lat="43.2510516" lon="11.2234963"><ele>196.0</ele><time>2026-05-03T10:27:16.718Z</time></trkpt><trkpt lat="43.2511858" lon="11.2235287"><ele>196.0</ele><time>2026-05-03T10:27:17.722Z</time></trkpt><trkpt lat="43.2513071" lon="11.2235613"><ele>196.0</ele><time>2026-05-03T10:27:18.726Z</time></trkpt><trkpt lat="43.2514207" lon="11.2235988"><ele>196.0</ele><time>2026-05-03T10:27:19.725Z</time></trkpt><trkpt lat="43.2515178" lon="11.2236462"><ele>196.4</ele><time>2026-05-03T10:27:20.736Z</time></trkpt><trkpt lat="43.2515896" lon="11.2237097"><ele>196.8</ele><time>2026-05-03T10:27:21.722Z</time></trkpt><trkpt lat="43.2516492" lon="11.2237927"><ele>197.20000000000002</ele><time>2026-05-03T10:27:22.719Z</time></trkpt><trkpt lat="43.251717" lon="11.2238692"><ele>197.60000000000002</ele><time>2026-05-03T10:27:23.73Z</time></trkpt><trkpt lat="43.2518161" lon="11.2238861"><ele>198.0</ele><time>2026-05-03T10:27:24.728Z</time></trkpt><trkpt lat="43.251922" lon="11.2238721"><ele>198.0</ele><time>2026-05-03T10:27:25.724Z</time></trkpt><trkpt lat="43.2520254" lon="11.2238704"><ele>198.0</ele><time>2026-05-03T10:27:26.721Z</time></trkpt><trkpt lat="43.252138" lon="11.2239133"><ele>198.0</ele><time>2026-05-03T10:27:27.729Z</time></trkpt><trkpt lat="43.2522548" lon="11.2239774"><ele>198.0</ele><time>2026-05-03T10:27:28.733Z</time></trkpt><trkpt lat="43.2523767" lon="11.2240458"><ele>198.25</ele><time>2026-05-03T10:27:29.736Z</time></trkpt><trkpt lat="43.2525091" lon="11.2241172"><ele>198.5</ele><time>2026-05-03T10:27:30.723Z</time></trkpt><trkpt lat="43.2526477" lon="11.224195"><ele>198.75</ele><time>2026-05-03T10:27:31.734Z</time></trkpt><trkpt lat="43.2527859" lon="11.2242831"><ele>199.0</ele><time>2026-05-03T10:27:32.729Z</time></trkpt><trkpt lat="43.2529251" lon="11.2243759"><ele>199.0</ele><time>2026-05-03T10:27:33.733Z</time></trkpt><trkpt lat="43.2530598" lon="11.2244587"><ele>199.0</ele><time>2026-05-03T10:27:34.727Z</time></trkpt><trkpt lat="43.253196" lon="11.2245339"><ele>199.0</ele><time>2026-05-03T10:27:35.729Z</time></trkpt><trkpt lat="43.2533356" lon="11.2246063"><ele>199.0</ele><time>2026-05-03T10:27:36.733Z</time></trkpt><trkpt lat="43.2534832" lon="11.224661"><ele>199.0</ele><time>2026-05-03T10:27:37.729Z</time></trkpt><trkpt lat="43.2536412" lon="11.2246923"><ele>199.0</ele><time>2026-05-03T10:27:38.721Z</time></trkpt><trkpt lat="43.2538045" lon="11.2247074"><ele>199.0</ele><time>2026-05-03T10:27:39.717Z</time></trkpt><trkpt lat="43.2539707" lon="11.2247124"><ele>199.0</ele><time>2026-05-03T10:27:40.738Z</time></trkpt><trkpt lat="43.2541359" lon="11.2247162"><ele>199.0</ele><time>2026-05-03T10:27:41.728Z</time></trkpt><trkpt lat="43.2542955" lon="11.2247301"><ele>199.0</ele><time>2026-05-03T10:27:42.717Z</time></trkpt><trkpt lat="43.254452" lon="11.2247566"><ele>199.0</ele><time>2026-05-03T10:27:43.741Z</time></trkpt><trkpt lat="43.2546103" lon="11.2247958"><ele>199.0</ele><time>2026-05-03T10:27:44.708Z</time></trkpt><trkpt lat="43.2547658" lon="11.2248515"><ele>199.0</ele><time>2026-05-03T10:27:45.741Z</time></trkpt><trkpt lat="43.2549148" lon="11.2249168"><ele>199.0</ele><time>2026-05-03T10:27:46.718Z</time></trkpt><trkpt lat="43.2550632" lon="11.2249804"><ele>199.0</ele><time>2026-05-03T10:27:47.717Z</time></trkpt><trkpt lat="43.2552095" lon="11.2250488"><ele>199.0</ele><time>2026-05-03T10:27:48.72Z</time></trkpt><trkpt lat="43.2553547" lon="11.2251311"><ele>199.0</ele><time>2026-05-03T10:27:49.722Z</time></trkpt><trkpt lat="43.2554956" lon="11.2252259"><ele>199.0</ele><time>2026-05-03T10:27:50.719Z</time></trkpt><trkpt lat="43.2556312" lon="11.2253371"><ele>199.0</ele><time>2026-05-03T10:27:51.718Z</time></trkpt><trkpt lat="43.2557596" lon="11.2254375"><ele>199.5</ele><time>2026-05-03T10:27:52.749Z</time></trkpt><trkpt lat="43.2558815" lon="11.2255338"><ele>200.0</ele><time>2026-05-03T10:27:53.733Z</time></trkpt><trkpt lat="43.2559968" lon="11.2256234"><ele>200.5</ele><time>2026-05-03T10:27:54.724Z</time></trkpt><trkpt lat="43.2561126" lon="11.2257146"><ele>201.0</ele><time>2026-05-03T10:27:55.73Z</time></trkpt><trkpt lat="43.256234" lon="11.2258118"><ele>199.66666666666669</ele><time>2026-05-03T10:27:56.726Z</time></trkpt><trkpt lat="43.2563645" lon="11.2258991"><ele>198.33333333333334</ele><time>2026-05-03T10:27:57.73Z</time></trkpt><trkpt lat="43.2565101" lon="11.2259723"><ele>197.0</ele><time>2026-05-03T10:27:58.716Z</time></trkpt><trkpt lat="43.2566692" lon="11.2260136"><ele>197.0</ele><time>2026-05-03T10:27:59.735Z</time></trkpt><trkpt lat="43.2568281" lon="11.2260319"><ele>197.0</ele><time>2026-05-03T10:28:00.716Z</time></trkpt><trkpt lat="43.256991" lon="11.2260425"><ele>197.0</ele><time>2026-05-03T10:28:01.73Z</time></trkpt><trkpt lat="43.2571524" lon="11.2260546"><ele>197.33333333333334</ele><time>2026-05-03T10:28:02.723Z</time></trkpt><trkpt lat="43.2573186" lon="11.2260708"><ele>197.66666666666669</ele><time>2026-05-03T10:28:03.739Z</time></trkpt><trkpt lat="43.2574845" lon="11.2260778"><ele>198.0</ele><time>2026-05-03T10:28:04.727Z</time></trkpt><trkpt lat="43.2576442" lon="11.2260717"><ele>198.0</ele><time>2026-05-03T10:28:05.734Z</time></trkpt><trkpt lat="43.2578023" lon="11.2260696"><ele>198.0</ele><time>2026-05-03T10:28:06.73Z</time></trkpt><trkpt lat="43.2579623" lon="11.2260709"><ele>198.0</ele><time>2026-05-03T10:28:07.74Z</time></trkpt><trkpt lat="43.2581262" lon="11.2260929"><ele>197.66666666666669</ele><time>2026-05-03T10:28:08.725Z</time></trkpt><trkpt lat="43.2582872" lon="11.2261341"><ele>197.33333333333334</ele><time>2026-05-03T10:28:09.729Z</time></trkpt><trkpt lat="43.258445" lon="11.2261915"><ele>197.0</ele><time>2026-05-03T10:28:10.724Z</time></trkpt><trkpt lat="43.2585991" lon="11.2262703"><ele>197.0</ele><time>2026-05-03T10:28:11.729Z</time></trkpt><trkpt lat="43.2587428" lon="11.2263643"><ele>197.0</ele><time>2026-05-03T10:28:12.717Z</time></trkpt><trkpt lat="43.258869" lon="11.2264678"><ele>197.0</ele><time>2026-05-03T10:28:13.725Z</time></trkpt><trkpt lat="43.258991" lon="11.2265947"><ele>197.0</ele><time>2026-05-03T10:28:14.713Z</time></trkpt><trkpt lat="43.2591223" lon="11.2267503"><ele>197.0</ele><time>2026-05-03T10:28:15.718Z</time></trkpt><trkpt lat="43.2592488" lon="11.2269167"><ele>197.0</ele><time>2026-05-03T10:28:16.717Z</time></trkpt><trkpt lat="43.2593744" lon="11.2270837"><ele>197.0</ele><time>2026-05-03T10:28:17.716Z</time></trkpt><trkpt lat="43.2594981" lon="11.2272511"><ele>197.0</ele><time>2026-05-03T10:28:18.723Z</time></trkpt><trkpt lat="43.259617" lon="11.2274121"><ele>197.0</ele><time>2026-05-03T10:28:19.729Z</time></trkpt><trkpt lat="43.2597356" lon="11.2275784"><ele>198.0</ele><time>2026-05-03T10:28:20.737Z</time></trkpt><trkpt lat="43.2598553" lon="11.2277388"><ele>199.0</ele><time>2026-05-03T10:28:21.721Z</time></trkpt><trkpt lat="43.2599812" lon="11.2279056"><ele>200.0</ele><time>2026-05-03T10:28:22.719Z</time></trkpt><trkpt lat="43.2601165" lon="11.2280764"><ele>197.66666666666669</ele><time>2026-05-03T10:28:23.734Z</time></trkpt><trkpt lat="43.2602589" lon="11.2282562"><ele>195.33333333333331</ele><time>2026-05-03T10:28:24.729Z</time></trkpt><trkpt lat="43.2604049" lon="11.2284522"><ele>193.0</ele><time>2026-05-03T10:28:25.731Z</time></trkpt><trkpt lat="43.2605538" lon="11.2286572"><ele>193.66666666666666</ele><time>2026-05-03T10:28:26.717Z</time></trkpt><trkpt lat="43.2607017" lon="11.2288724"><ele>194.33333333333331</ele><time>2026-05-03T10:28:27.728Z</time></trkpt><trkpt lat="43.2608535" lon="11.2290969"><ele>195.0</ele><time>2026-05-03T10:28:28.716Z</time></trkpt><trkpt lat="43.2610104" lon="11.229327"><ele>195.0</ele><time>2026-05-03T10:28:29.722Z</time></trkpt><trkpt lat="43.2611696" lon="11.2295558"><ele>195.0</ele><time>2026-05-03T10:28:30.731Z</time></trkpt><trkpt lat="43.2613322" lon="11.2297749"><ele>196.33333333333331</ele><time>2026-05-03T10:28:31.722Z</time></trkpt><trkpt lat="43.2614954" lon="11.2299874"><ele>197.66666666666666</ele><time>2026-05-03T10:28:32.723Z</time></trkpt><trkpt lat="43.2616541" lon="11.2301964"><ele>199.0</ele><time>2026-05-03T10:28:33.731Z</time></trkpt><trkpt lat="43.2618077" lon="11.2304028"><ele>199.0</ele><time>2026-05-03T10:28:34.731Z</time></trkpt><trkpt lat="43.261957" lon="11.2306047"><ele>199.0</ele><time>2026-05-03T10:28:35.726Z</time></trkpt><trkpt lat="43.2621044" lon="11.2308072"><ele>199.0</ele><time>2026-05-03T10:28:36.737Z</time></trkpt><trkpt lat="43.2622485" lon="11.2310064"><ele>200.66666666666666</ele><time>2026-05-03T10:28:37.728Z</time></trkpt><trkpt lat="43.262384" lon="11.2312075"><ele>202.33333333333331</ele><time>2026-05-03T10:28:38.725Z</time></trkpt><trkpt lat="43.2625176" lon="11.2314134"><ele>204.0</ele><time>2026-05-03T10:28:39.724Z</time></trkpt><trkpt lat="43.2626455" lon="11.2316237"><ele>204.0</ele><time>2026-05-03T10:28:40.721Z</time></trkpt><trkpt lat="43.262768" lon="11.2318383"><ele>204.0</ele><time>2026-05-03T10:28:41.726Z</time></trkpt><trkpt lat="43.2628909" lon="11.2320506"><ele>204.0</ele><time>2026-05-03T10:28:42.714Z</time></trkpt><trkpt lat="43.2630059" lon="11.2322645"><ele>206.66666666666669</ele><time>2026-05-03T10:28:43.722Z</time></trkpt><trkpt lat="43.2631147" lon="11.2324623"><ele>209.33333333333334</ele><time>2026-05-03T10:28:44.722Z</time></trkpt><trkpt lat="43.2632174" lon="11.2326416"><ele>212.0</ele><time>2026-05-03T10:28:45.727Z</time></trkpt><trkpt lat="43.2633208" lon="11.232814"><ele>212.0</ele><time>2026-05-03T10:28:46.723Z</time></trkpt><trkpt lat="43.2634207" lon="11.2329901"><ele>212.0</ele><time>2026-05-03T10:28:47.722Z</time></trkpt><trkpt lat="43.2635232" lon="11.2331618"><ele>212.0</ele><time>2026-05-03T10:28:48.718Z</time></trkpt><trkpt lat="43.2636251" lon="11.2333363"><ele>212.33333333333334</ele><time>2026-05-03T10:28:49.724Z</time></trkpt><trkpt lat="43.2637291" lon="11.2335192"><ele>212.66666666666669</ele><time>2026-05-03T10:28:50.726Z</time></trkpt><trkpt lat="43.2638336" lon="11.2337092"><ele>213.0</ele><time>2026-05-03T10:28:51.724Z</time></trkpt><trkpt lat="43.2639377" lon="11.2339033"><ele>210.33333333333331</ele><time>2026-05-03T10:28:52.734Z</time></trkpt><trkpt lat="43.2640459" lon="11.2340987"><ele>207.66666666666666</ele><time>2026-05-03T10:28:53.74Z</time></trkpt><trkpt lat="43.264156" lon="11.2342999"><ele>205.0</ele><time>2026-05-03T10:28:54.722Z</time></trkpt><trkpt lat="43.2642734" lon="11.2345061"><ele>205.0</ele><time>2026-05-03T10:28:55.744Z</time></trkpt><trkpt lat="43.2643917" lon="11.2347172"><ele>205.0</ele><time>2026-05-03T10:28:56.739Z</time></trkpt><trkpt lat="43.2645119" lon="11.2349344"><ele>205.0</ele><time>2026-05-03T10:28:57.732Z</time></trkpt><trkpt lat="43.2646316" lon="11.2351498"><ele>205.33333333333331</ele><time>2026-05-03T10:28:58.734Z</time></trkpt><trkpt lat="43.2647541" lon="11.2353644"><ele>205.66666666666669</ele><time>2026-05-03T10:28:59.724Z</time></trkpt><trkpt lat="43.2648764" lon="11.2355771"><ele>206.0</ele><time>2026-05-03T10:29:00.741Z</time></trkpt><trkpt lat="43.2649955" lon="11.235789"><ele>205.33333333333334</ele><time>2026-05-03T10:29:01.74Z</time></trkpt><trkpt lat="43.2651197" lon="11.2360026"><ele>204.66666666666669</ele><time>2026-05-03T10:29:02.729Z</time></trkpt><trkpt lat="43.2652403" lon="11.2362131"><ele>204.0</ele><time>2026-05-03T10:29:03.733Z</time></trkpt><trkpt lat="43.2653618" lon="11.2364244"><ele>204.0</ele><time>2026-05-03T10:29:04.732Z</time></trkpt><trkpt lat="43.2654847" lon="11.2366311"><ele>204.0</ele><time>2026-05-03T10:29:05.718Z</time></trkpt><trkpt lat="43.2656034" lon="11.2368402"><ele>204.0</ele><time>2026-05-03T10:29:06.724Z</time></trkpt><trkpt lat="43.2657306" lon="11.2370552"><ele>205.33333333333331</ele><time>2026-05-03T10:29:07.723Z</time></trkpt><trkpt lat="43.2658644" lon="11.2372734"><ele>206.66666666666666</ele><time>2026-05-03T10:29:08.732Z</time></trkpt><trkpt lat="43.2660001" lon="11.2374993"><ele>208.0</ele><time>2026-05-03T10:29:09.737Z</time></trkpt><trkpt lat="43.2661371" lon="11.2377337"><ele>208.0</ele><time>2026-05-03T10:29:10.72Z</time></trkpt><trkpt lat="43.2662831" lon="11.2379745"><ele>208.0</ele><time>2026-05-03T10:29:11.732Z</time></trkpt><trkpt lat="43.2664351" lon="11.2382229"><ele>204.5</ele><time>2026-05-03T10:29:12.728Z</time></trkpt><trkpt lat="43.2665895" lon="11.2384777"><ele>201.0</ele><time>2026-05-03T10:29:13.723Z</time></trkpt><trkpt lat="43.2667471" lon="11.2387459"><ele>200.5</ele><time>2026-05-03T10:29:14.739Z</time></trkpt><trkpt lat="43.2669129" lon="11.2390277"><ele>200.0</ele><time>2026-05-03T10:29:15.739Z</time></trkpt><trkpt lat="43.2670842" lon="11.2393181"><ele>200.0</ele><time>2026-05-03T10:29:16.722Z</time></trkpt><trkpt lat="43.2672512" lon="11.2396011"><ele>200.0</ele><time>2026-05-03T10:29:17.739Z</time></trkpt><trkpt lat="43.2674053" lon="11.239868"><ele>199.0</ele><time>2026-05-03T10:29:18.746Z</time></trkpt><trkpt lat="43.2675486" lon="11.2401212"><ele>198.0</ele><time>2026-05-03T10:29:19.727Z</time></trkpt><trkpt lat="43.2676865" lon="11.2403566"><ele>198.0</ele><time>2026-05-03T10:29:20.722Z</time></trkpt><trkpt lat="43.2678243" lon="11.2405834"><ele>198.0</ele><time>2026-05-03T10:29:21.72Z</time></trkpt><trkpt lat="43.2679482" lon="11.240802"><ele>198.0</ele><time>2026-05-03T10:29:22.733Z</time></trkpt><trkpt lat="43.2680692" lon="11.2410051"><ele>200.0</ele><time>2026-05-03T10:29:23.722Z</time></trkpt><trkpt lat="43.2681801" lon="11.241189"><ele>202.0</ele><time>2026-05-03T10:29:24.723Z</time></trkpt><trkpt lat="43.2682845" lon="11.2413631"><ele>204.0</ele><time>2026-05-03T10:29:25.742Z</time></trkpt><trkpt lat="43.2683878" lon="11.2415298"><ele>204.66666666666669</ele><time>2026-05-03T10:29:26.726Z</time></trkpt><trkpt lat="43.2684969" lon="11.2416976"><ele>205.33333333333334</ele><time>2026-05-03T10:29:27.737Z</time></trkpt><trkpt lat="43.2686085" lon="11.241871"><ele>206.0</ele><time>2026-05-03T10:29:28.729Z</time></trkpt><trkpt lat="43.2687244" lon="11.2420478"><ele>206.0</ele><time>2026-05-03T10:29:29.732Z</time></trkpt><trkpt lat="43.2688431" lon="11.2422366"><ele>206.0</ele><time>2026-05-03T10:29:30.735Z</time></trkpt><trkpt lat="43.2689687" lon="11.2424284"><ele>206.0</ele><time>2026-05-03T10:29:31.736Z</time></trkpt><trkpt lat="43.2690968" lon="11.2426283"><ele>205.0</ele><time>2026-05-03T10:29:32.72Z</time></trkpt><trkpt lat="43.2692296" lon="11.2428337"><ele>204.0</ele><time>2026-05-03T10:29:33.726Z</time></trkpt><trkpt lat="43.2693655" lon="11.2430444"><ele>203.0</ele><time>2026-05-03T10:29:34.733Z</time></trkpt><trkpt lat="43.2694999" lon="11.2432593"><ele>201.66666666666669</ele><time>2026-05-03T10:29:35.726Z</time></trkpt><trkpt lat="43.2696365" lon="11.2434716"><ele>200.33333333333331</ele><time>2026-05-03T10:29:36.733Z</time></trkpt><trkpt lat="43.269774" lon="11.2436862"><ele>199.0</ele><time>2026-05-03T10:29:37.748Z</time></trkpt><trkpt lat="43.2699185" lon="11.2439001"><ele>198.0</ele><time>2026-05-03T10:29:38.732Z</time></trkpt><trkpt lat="43.2700609" lon="11.2441174"><ele>197.0</ele><time>2026-05-03T10:29:39.726Z</time></trkpt><trkpt lat="43.2702023" lon="11.2443343"><ele>196.0</ele><time>2026-05-03T10:29:40.728Z</time></trkpt><trkpt lat="43.2703372" lon="11.2445425"><ele>196.0</ele><time>2026-05-03T10:29:41.708Z</time></trkpt><trkpt lat="43.2704707" lon="11.2447462"><ele>196.0</ele><time>2026-05-03T10:29:42.724Z</time></trkpt><trkpt lat="43.2706004" lon="11.2449425"><ele>196.0</ele><time>2026-05-03T10:29:43.745Z</time></trkpt><trkpt lat="43.2707249" lon="11.2451337"><ele>196.33333333333331</ele><time>2026-05-03T10:29:44.732Z</time></trkpt><trkpt lat="43.2708462" lon="11.2453246"><ele>196.66666666666669</ele><time>2026-05-03T10:29:45.734Z</time></trkpt><trkpt lat="43.2709679" lon="11.2455199"><ele>197.0</ele><time>2026-05-03T10:29:46.718Z</time></trkpt><trkpt lat="43.2710884" lon="11.2457097"><ele>197.0</ele><time>2026-05-03T10:29:47.723Z</time></trkpt><trkpt lat="43.2712103" lon="11.2458976"><ele>197.0</ele><time>2026-05-03T10:29:48.724Z</time></trkpt><trkpt lat="43.2713308" lon="11.2460848"><ele>197.0</ele><time>2026-05-03T10:29:49.737Z</time></trkpt><trkpt lat="43.2714505" lon="11.2462763"><ele>198.33333333333334</ele><time>2026-05-03T10:29:50.729Z</time></trkpt><trkpt lat="43.2715602" lon="11.2464671"><ele>199.66666666666669</ele><time>2026-05-03T10:29:51.729Z</time></trkpt><trkpt lat="43.2716601" lon="11.2466539"><ele>201.0</ele><time>2026-05-03T10:29:52.723Z</time></trkpt><trkpt lat="43.2717547" lon="11.2468332"><ele>201.0</ele><time>2026-05-03T10:29:53.734Z</time></trkpt><trkpt lat="43.2718532" lon="11.2470134"><ele>201.0</ele><time>2026-05-03T10:29:54.73Z</time></trkpt><trkpt lat="43.2719549" lon="11.2471914"><ele>201.0</ele><time>2026-05-03T10:29:55.722Z</time></trkpt><trkpt lat="43.2720576" lon="11.2473692"><ele>200.75</ele><time>2026-05-03T10:29:56.717Z</time></trkpt><trkpt lat="43.2721567" lon="11.2475345"><ele>200.5</ele><time>2026-05-03T10:29:57.731Z</time></trkpt><trkpt lat="43.2722416" lon="11.2476849"><ele>200.25</ele><time>2026-05-03T10:29:58.733Z</time></trkpt><trkpt lat="43.2723123" lon="11.2478197"><ele>200.0</ele><time>2026-05-03T10:29:59.739Z</time></trkpt><trkpt lat="43.2723768" lon="11.2479337"><ele>200.00000000000003</ele><time>2026-05-03T10:30:00.735Z</time></trkpt><trkpt lat="43.2724376" lon="11.248014"><ele>200.0</ele><time>2026-05-03T10:30:01.738Z</time></trkpt><trkpt lat="43.2725069" lon="11.2480518"><ele>200.0</ele><time>2026-05-03T10:30:02.734Z</time></trkpt><trkpt lat="43.2725691" lon="11.2480358"><ele>200.0</ele><time>2026-05-03T10:30:03.731Z</time></trkpt><trkpt lat="43.2726323" lon="11.2479728"><ele>200.00000000000003</ele><time>2026-05-03T10:30:04.731Z</time></trkpt><trkpt lat="43.272709" lon="11.2478701"><ele>200.0</ele><time>2026-05-03T10:30:05.728Z</time></trkpt><trkpt lat="43.2727999" lon="11.2477353"><ele>200.0</ele><time>2026-05-03T10:30:06.711Z</time></trkpt><trkpt lat="43.2729189" lon="11.2476008"><ele>200.0</ele><time>2026-05-03T10:30:07.721Z</time></trkpt><trkpt lat="43.2730594" lon="11.2474672"><ele>200.0</ele><time>2026-05-03T10:30:08.729Z</time></trkpt><trkpt lat="43.2732184" lon="11.2473382"><ele>200.33333333333334</ele><time>2026-05-03T10:30:09.725Z</time></trkpt><trkpt lat="43.2733994" lon="11.2472143"><ele>200.66666666666669</ele><time>2026-05-03T10:30:10.75Z</time></trkpt><trkpt lat="43.2735894" lon="11.2471013"><ele>201.0</ele><time>2026-05-03T10:30:11.719Z</time></trkpt><trkpt lat="43.2737691" lon="11.2469956"><ele>201.0</ele><time>2026-05-03T10:30:12.731Z</time></trkpt><trkpt lat="43.2739321" lon="11.246905"><ele>201.0</ele><time>2026-05-03T10:30:13.723Z</time></trkpt><trkpt lat="43.2740872" lon="11.2468223"><ele>201.0</ele><time>2026-05-03T10:30:14.726Z</time></trkpt><trkpt lat="43.2742327" lon="11.2467384"><ele>202.0</ele><time>2026-05-03T10:30:15.741Z</time></trkpt><trkpt lat="43.2743743" lon="11.24666"><ele>203.0</ele><time>2026-05-03T10:30:16.731Z</time></trkpt><trkpt lat="43.2745264" lon="11.2465727"><ele>204.0</ele><time>2026-05-03T10:30:17.717Z</time></trkpt><trkpt lat="43.2746817" lon="11.2464825"><ele>204.66666666666669</ele><time>2026-05-03T10:30:18.736Z</time></trkpt><trkpt lat="43.2748319" lon="11.2463984"><ele>205.33333333333334</ele><time>2026-05-03T10:30:19.724Z</time></trkpt><trkpt lat="43.2749785" lon="11.2463156"><ele>206.0</ele><time>2026-05-03T10:30:20.729Z</time></trkpt><trkpt lat="43.275126" lon="11.246209"><ele>206.0</ele><time>2026-05-03T10:30:21.73Z</time></trkpt><trkpt lat="43.2752847" lon="11.2460683"><ele>206.0</ele><time>2026-05-03T10:30:22.736Z</time></trkpt><trkpt lat="43.2754379" lon="11.2458795"><ele>206.0</ele><time>2026-05-03T10:30:23.732Z</time></trkpt><trkpt lat="43.2755769" lon="11.2456383"><ele>206.66666666666669</ele><time>2026-05-03T10:30:24.729Z</time></trkpt><trkpt lat="43.2756998" lon="11.245374"><ele>207.33333333333331</ele><time>2026-05-03T10:30:25.722Z</time></trkpt><trkpt lat="43.2757993" lon="11.245113"><ele>208.0</ele><time>2026-05-03T10:30:26.717Z</time></trkpt><trkpt lat="43.2758833" lon="11.2448648"><ele>208.33333333333331</ele><time>2026-05-03T10:30:27.717Z</time></trkpt><trkpt lat="43.2759641" lon="11.2446371"><ele>208.66666666666669</ele><time>2026-05-03T10:30:28.726Z</time></trkpt><trkpt lat="43.2760395" lon="11.2444287"><ele>209.0</ele><time>2026-05-03T10:30:29.739Z</time></trkpt><trkpt lat="43.2761289" lon="11.2442418"><ele>209.0</ele><time>2026-05-03T10:30:30.724Z</time></trkpt><trkpt lat="43.2762418" lon="11.2440756"><ele>209.0</ele><time>2026-05-03T10:30:31.739Z</time></trkpt><trkpt lat="43.2763745" lon="11.2439261"><ele>209.0</ele><time>2026-05-03T10:30:32.714Z</time></trkpt><trkpt lat="43.2765263" lon="11.2437874"><ele>210.33333333333334</ele><time>2026-05-03T10:30:33.729Z</time></trkpt><trkpt lat="43.2766954" lon="11.2436609"><ele>211.66666666666669</ele><time>2026-05-03T10:30:34.734Z</time></trkpt><trkpt lat="43.2768708" lon="11.2435356"><ele>213.0</ele><time>2026-05-03T10:30:35.74Z</time></trkpt><trkpt lat="43.2770487" lon="11.2434101"><ele>213.0</ele><time>2026-05-03T10:30:36.726Z</time></trkpt><trkpt lat="43.277223" lon="11.2432838"><ele>213.0</ele><time>2026-05-03T10:30:37.727Z</time></trkpt><trkpt lat="43.2773977" lon="11.2431542"><ele>213.0</ele><time>2026-05-03T10:30:38.725Z</time></trkpt><trkpt lat="43.2775745" lon="11.2430217"><ele>212.33333333333331</ele><time>2026-05-03T10:30:39.737Z</time></trkpt><trkpt lat="43.2777523" lon="11.2428823"><ele>211.66666666666666</ele><time>2026-05-03T10:30:40.722Z</time></trkpt><trkpt lat="43.2779421" lon="11.2427448"><ele>211.0</ele><time>2026-05-03T10:30:41.725Z</time></trkpt><trkpt lat="43.2781367" lon="11.2426009"><ele>209.0</ele><time>2026-05-03T10:30:42.731Z</time></trkpt><trkpt lat="43.278336" lon="11.2424582"><ele>207.0</ele><time>2026-05-03T10:30:43.731Z</time></trkpt><trkpt lat="43.278532" lon="11.2423139"><ele>205.0</ele><time>2026-05-03T10:30:44.726Z</time></trkpt><trkpt lat="43.278735" lon="11.2421713"><ele>204.0</ele><time>2026-05-03T10:30:45.733Z</time></trkpt><trkpt lat="43.2789387" lon="11.2420253"><ele>203.0</ele><time>2026-05-03T10:30:46.731Z</time></trkpt><trkpt lat="43.2791454" lon="11.2418763"><ele>203.0</ele><time>2026-05-03T10:30:47.724Z</time></trkpt><trkpt lat="43.2793504" lon="11.2417265"><ele>203.0</ele><time>2026-05-03T10:30:48.728Z</time></trkpt><trkpt lat="43.2795522" lon="11.2415794"><ele>203.0</ele><time>2026-05-03T10:30:49.723Z</time></trkpt><trkpt lat="43.2797536" lon="11.2414383"><ele>203.0</ele><time>2026-05-03T10:30:50.722Z</time></trkpt><trkpt lat="43.2799586" lon="11.2413144"><ele>203.0</ele><time>2026-05-03T10:30:51.737Z</time></trkpt><trkpt lat="43.2801703" lon="11.2412095"><ele>203.0</ele><time>2026-05-03T10:30:52.722Z</time></trkpt><trkpt lat="43.2803876" lon="11.2411305"><ele>203.33333333333334</ele><time>2026-05-03T10:30:53.732Z</time></trkpt><trkpt lat="43.280605" lon="11.2410584"><ele>203.66666666666669</ele><time>2026-05-03T10:30:54.728Z</time></trkpt><trkpt lat="43.2808193" lon="11.2409874"><ele>204.0</ele><time>2026-05-03T10:30:55.724Z</time></trkpt><trkpt lat="43.2810317" lon="11.240917"><ele>204.0</ele><time>2026-05-03T10:30:56.724Z</time></trkpt><trkpt lat="43.2812291" lon="11.2408479"><ele>204.0</ele><time>2026-05-03T10:30:57.729Z</time></trkpt><trkpt lat="43.2814182" lon="11.2407836"><ele>204.0</ele><time>2026-05-03T10:30:58.721Z</time></trkpt><trkpt lat="43.2815955" lon="11.2407234"><ele>204.66666666666669</ele><time>2026-05-03T10:30:59.729Z</time></trkpt><trkpt lat="43.2817623" lon="11.24067"><ele>205.33333333333334</ele><time>2026-05-03T10:31:00.722Z</time></trkpt><trkpt lat="43.281922" lon="11.2406109"><ele>206.0</ele><time>2026-05-03T10:31:01.73Z</time></trkpt><trkpt lat="43.2820792" lon="11.2405223"><ele>205.66666666666669</ele><time>2026-05-03T10:31:02.732Z</time></trkpt><trkpt lat="43.2822311" lon="11.2403957"><ele>205.33333333333331</ele><time>2026-05-03T10:31:03.73Z</time></trkpt><trkpt lat="43.2823712" lon="11.240219"><ele>205.0</ele><time>2026-05-03T10:31:04.715Z</time></trkpt><trkpt lat="43.2824988" lon="11.2400144"><ele>205.0</ele><time>2026-05-03T10:31:05.722Z</time></trkpt><trkpt lat="43.2826117" lon="11.2397908"><ele>205.0</ele><time>2026-05-03T10:31:06.702Z</time></trkpt><trkpt lat="43.2827231" lon="11.2395518"><ele>205.0</ele><time>2026-05-03T10:31:07.725Z</time></trkpt><trkpt lat="43.2828345" lon="11.23933"><ele>205.0</ele><time>2026-05-03T10:31:08.722Z</time></trkpt><trkpt lat="43.2829411" lon="11.239135"><ele>205.0</ele><time>2026-05-03T10:31:09.724Z</time></trkpt><trkpt lat="43.2830318" lon="11.2389723"><ele>205.0</ele><time>2026-05-03T10:31:10.724Z</time></trkpt><trkpt lat="43.2831159" lon="11.238848"><ele>205.4</ele><time>2026-05-03T10:31:11.725Z</time></trkpt><trkpt lat="43.2831962" lon="11.2387727"><ele>205.8</ele><time>2026-05-03T10:31:12.721Z</time></trkpt><trkpt lat="43.2832774" lon="11.2387318"><ele>206.2</ele><time>2026-05-03T10:31:13.721Z</time></trkpt><trkpt lat="43.28336" lon="11.2387292"><ele>206.6</ele><time>2026-05-03T10:31:14.715Z</time></trkpt><trkpt lat="43.2834511" lon="11.2387683"><ele>207.0</ele><time>2026-05-03T10:31:15.722Z</time></trkpt><trkpt lat="43.283556" lon="11.2388237"><ele>207.0</ele><time>2026-05-03T10:31:16.711Z</time></trkpt><trkpt lat="43.283682" lon="11.2388904"><ele>207.0</ele><time>2026-05-03T10:31:17.719Z</time></trkpt><trkpt lat="43.2838058" lon="11.2389462"><ele>207.0</ele><time>2026-05-03T10:31:18.724Z</time></trkpt><trkpt lat="43.2839133" lon="11.2389912"><ele>207.0</ele><time>2026-05-03T10:31:19.732Z</time></trkpt><trkpt lat="43.2840176" lon="11.2390318"><ele>206.75</ele><time>2026-05-03T10:31:20.724Z</time></trkpt><trkpt lat="43.2841284" lon="11.2390785"><ele>206.5</ele><time>2026-05-03T10:31:21.717Z</time></trkpt><trkpt lat="43.284246" lon="11.2391256"><ele>206.25</ele><time>2026-05-03T10:31:22.724Z</time></trkpt><trkpt lat="43.2843802" lon="11.2391858"><ele>206.0</ele><time>2026-05-03T10:31:23.73Z</time></trkpt><trkpt lat="43.2845222" lon="11.2392524"><ele>206.0</ele><time>2026-05-03T10:31:24.727Z</time></trkpt><trkpt lat="43.284677" lon="11.2393236"><ele>206.0</ele><time>2026-05-03T10:31:25.729Z</time></trkpt><trkpt lat="43.2848423" lon="11.239399"><ele>206.0</ele><time>2026-05-03T10:31:26.716Z</time></trkpt><trkpt lat="43.2850164" lon="11.2394806"><ele>205.66666666666669</ele><time>2026-05-03T10:31:27.727Z</time></trkpt><trkpt lat="43.2851901" lon="11.2395556"><ele>205.33333333333331</ele><time>2026-05-03T10:31:28.725Z</time></trkpt><trkpt lat="43.2853635" lon="11.2396312"><ele>205.0</ele><time>2026-05-03T10:31:29.726Z</time></trkpt><trkpt lat="43.2855341" lon="11.2397178"><ele>204.66666666666666</ele><time>2026-05-03T10:31:30.726Z</time></trkpt><trkpt lat="43.2856887" lon="11.2398279"><ele>204.33333333333331</ele><time>2026-05-03T10:31:31.729Z</time></trkpt><trkpt lat="43.2858268" lon="11.2399869"><ele>204.0</ele><time>2026-05-03T10:31:32.738Z</time></trkpt><trkpt lat="43.2859451" lon="11.2401902"><ele>204.0</ele><time>2026-05-03T10:31:33.714Z</time></trkpt><trkpt lat="43.2860485" lon="11.2404053"><ele>204.0</ele><time>2026-05-03T10:31:34.725Z</time></trkpt><trkpt lat="43.2861472" lon="11.2406162"><ele>204.0</ele><time>2026-05-03T10:31:35.734Z</time></trkpt><trkpt lat="43.286249" lon="11.2408225"><ele>203.66666666666669</ele><time>2026-05-03T10:31:36.74Z</time></trkpt><trkpt lat="43.2863673" lon="11.2410211"><ele>203.33333333333334</ele><time>2026-05-03T10:31:37.733Z</time></trkpt><trkpt lat="43.2865172" lon="11.2411993"><ele>203.0</ele><time>2026-05-03T10:31:38.717Z</time></trkpt><trkpt lat="43.2866789" lon="11.2413474"><ele>203.33333333333334</ele><time>2026-05-03T10:31:39.72Z</time></trkpt><trkpt lat="43.2868504" lon="11.241484"><ele>203.66666666666669</ele><time>2026-05-03T10:31:40.721Z</time></trkpt><trkpt lat="43.2870136" lon="11.2416045"><ele>204.0</ele><time>2026-05-03T10:31:41.719Z</time></trkpt><trkpt lat="43.2871655" lon="11.24173"><ele>205.0</ele><time>2026-05-03T10:31:42.723Z</time></trkpt><trkpt lat="43.2873158" lon="11.2418477"><ele>206.0</ele><time>2026-05-03T10:31:43.734Z</time></trkpt><trkpt lat="43.2874692" lon="11.2419702"><ele>207.0</ele><time>2026-05-03T10:31:44.729Z</time></trkpt><trkpt lat="43.2876264" lon="11.2420977"><ele>207.0</ele><time>2026-05-03T10:31:45.728Z</time></trkpt><trkpt lat="43.2877828" lon="11.2422235"><ele>207.0</ele><time>2026-05-03T10:31:46.735Z</time></trkpt><trkpt lat="43.2879413" lon="11.2423512"><ele>207.0</ele><time>2026-05-03T10:31:47.739Z</time></trkpt><trkpt lat="43.2881097" lon="11.2424829"><ele>207.66666666666669</ele><time>2026-05-03T10:31:48.723Z</time></trkpt><trkpt lat="43.2882763" lon="11.242627"><ele>208.33333333333334</ele><time>2026-05-03T10:31:49.725Z</time></trkpt><trkpt lat="43.2884235" lon="11.2427778"><ele>209.0</ele><time>2026-05-03T10:31:50.736Z</time></trkpt><trkpt lat="43.2885459" lon="11.242933"><ele>209.0</ele><time>2026-05-03T10:31:51.73Z</time></trkpt><trkpt lat="43.2886382" lon="11.2431014"><ele>209.0</ele><time>2026-05-03T10:31:52.715Z</time></trkpt><trkpt lat="43.288703" lon="11.2432548"><ele>209.0</ele><time>2026-05-03T10:31:53.732Z</time></trkpt><trkpt lat="43.288759" lon="11.243383"><ele>209.0</ele><time>2026-05-03T10:31:54.745Z</time></trkpt><trkpt lat="43.2888094" lon="11.243503"><ele>208.79999999999998</ele><time>2026-05-03T10:31:55.726Z</time></trkpt><trkpt lat="43.2888573" lon="11.2436142"><ele>208.6</ele><time>2026-05-03T10:31:56.72Z</time></trkpt><trkpt lat="43.2889044" lon="11.2437287"><ele>208.4</ele><time>2026-05-03T10:31:57.733Z</time></trkpt><trkpt lat="43.2889585" lon="11.2438603"><ele>208.2</ele><time>2026-05-03T10:31:58.721Z</time></trkpt><trkpt lat="43.289019" lon="11.2440154"><ele>208.0</ele><time>2026-05-03T10:31:59.731Z</time></trkpt><trkpt lat="43.2890666" lon="11.2441876"><ele>208.0</ele><time>2026-05-03T10:32:00.724Z</time></trkpt><trkpt lat="43.2890962" lon="11.2443749"><ele>208.0</ele><time>2026-05-03T10:32:01.728Z</time></trkpt><trkpt lat="43.2891114" lon="11.2445765"><ele>208.0</ele><time>2026-05-03T10:32:02.719Z</time></trkpt><trkpt lat="43.2891172" lon="11.2447914"><ele>208.0</ele><time>2026-05-03T10:32:03.735Z</time></trkpt><trkpt lat="43.2891192" lon="11.2450132"><ele>208.0</ele><time>2026-05-03T10:32:04.723Z</time></trkpt><trkpt lat="43.2891279" lon="11.2452413"><ele>208.0</ele><time>2026-05-03T10:32:05.727Z</time></trkpt><trkpt lat="43.289139" lon="11.2454734"><ele>208.0</ele><time>2026-05-03T10:32:06.728Z</time></trkpt><trkpt lat="43.2891512" lon="11.2457057"><ele>206.66666666666666</ele><time>2026-05-03T10:32:07.742Z</time></trkpt><trkpt lat="43.2891678" lon="11.2459477"><ele>205.33333333333331</ele><time>2026-05-03T10:32:08.717Z</time></trkpt><trkpt lat="43.2891845" lon="11.2462015"><ele>204.0</ele><time>2026-05-03T10:32:09.729Z</time></trkpt><trkpt lat="43.2892005" lon="11.2464602"><ele>203.33333333333331</ele><time>2026-05-03T10:32:10.712Z</time></trkpt><trkpt lat="43.2892189" lon="11.2467199"><ele>202.66666666666666</ele><time>2026-05-03T10:32:11.729Z</time></trkpt><trkpt lat="43.2892384" lon="11.2469761"><ele>202.0</ele><time>2026-05-03T10:32:12.722Z</time></trkpt><trkpt lat="43.289259" lon="11.2472298"><ele>202.0</ele><time>2026-05-03T10:32:13.717Z</time></trkpt><trkpt lat="43.2892781" lon="11.2474853"><ele>202.0</ele><time>2026-05-03T10:32:14.725Z</time></trkpt><trkpt lat="43.2892992" lon="11.2477457"><ele>202.0</ele><time>2026-05-03T10:32:15.728Z</time></trkpt><trkpt lat="43.2893259" lon="11.2480111"><ele>202.0</ele><time>2026-05-03T10:32:16.717Z</time></trkpt><trkpt lat="43.2893511" lon="11.2482781"><ele>202.0</ele><time>2026-05-03T10:32:17.727Z</time></trkpt><trkpt lat="43.2893755" lon="11.2485393"><ele>202.0</ele><time>2026-05-03T10:32:18.72Z</time></trkpt><trkpt lat="43.2894015" lon="11.2488038"><ele>201.66666666666666</ele><time>2026-05-03T10:32:19.739Z</time></trkpt><trkpt lat="43.2894295" lon="11.2490786"><ele>201.33333333333331</ele><time>2026-05-03T10:32:20.736Z</time></trkpt><trkpt lat="43.2894541" lon="11.2493585"><ele>201.0</ele><time>2026-05-03T10:32:21.746Z</time></trkpt><trkpt lat="43.2894777" lon="11.2496379"><ele>201.33333333333331</ele><time>2026-05-03T10:32:22.724Z</time></trkpt><trkpt lat="43.2895021" lon="11.2499117"><ele>201.66666666666666</ele><time>2026-05-03T10:32:23.734Z</time></trkpt><trkpt lat="43.2895256" lon="11.2501712"><ele>202.0</ele><time>2026-05-03T10:32:24.72Z</time></trkpt><trkpt lat="43.2895468" lon="11.2504312"><ele>201.0</ele><time>2026-05-03T10:32:25.728Z</time></trkpt><trkpt lat="43.2895709" lon="11.2506949"><ele>200.0</ele><time>2026-05-03T10:32:26.723Z</time></trkpt><trkpt lat="43.2895955" lon="11.2509572"><ele>199.0</ele><time>2026-05-03T10:32:27.73Z</time></trkpt><trkpt lat="43.2896204" lon="11.251223"><ele>199.33333333333331</ele><time>2026-05-03T10:32:28.716Z</time></trkpt><trkpt lat="43.2896458" lon="11.2514873"><ele>199.66666666666669</ele><time>2026-05-03T10:32:29.727Z</time></trkpt><trkpt lat="43.2896737" lon="11.2517417"><ele>200.0</ele><time>2026-05-03T10:32:30.722Z</time></trkpt><trkpt lat="43.2896991" lon="11.2519897"><ele>200.0</ele><time>2026-05-03T10:32:31.74Z</time></trkpt><trkpt lat="43.2897224" lon="11.2522446"><ele>200.0</ele><time>2026-05-03T10:32:32.717Z</time></trkpt><trkpt lat="43.2897451" lon="11.2525069"><ele>200.0</ele><time>2026-05-03T10:32:33.742Z</time></trkpt><trkpt lat="43.2897654" lon="11.2527716"><ele>200.66666666666669</ele><time>2026-05-03T10:32:34.718Z</time></trkpt><trkpt lat="43.2897843" lon="11.2530394"><ele>201.33333333333331</ele><time>2026-05-03T10:32:35.729Z</time></trkpt><trkpt lat="43.2898048" lon="11.2533084"><ele>202.0</ele><time>2026-05-03T10:32:36.71Z</time></trkpt><trkpt lat="43.2898263" lon="11.2535834"><ele>202.33333333333331</ele><time>2026-05-03T10:32:37.723Z</time></trkpt><trkpt lat="43.289846" lon="11.2538623"><ele>202.66666666666669</ele><time>2026-05-03T10:32:38.722Z</time></trkpt><trkpt lat="43.2898598" lon="11.2541374"><ele>203.0</ele><time>2026-05-03T10:32:39.737Z</time></trkpt><trkpt lat="43.2898711" lon="11.2544"><ele>203.0</ele><time>2026-05-03T10:32:40.724Z</time></trkpt><trkpt lat="43.289885" lon="11.2546633"><ele>203.0</ele><time>2026-05-03T10:32:41.726Z</time></trkpt><trkpt lat="43.2898978" lon="11.2549241"><ele>203.0</ele><time>2026-05-03T10:32:42.742Z</time></trkpt><trkpt lat="43.2899035" lon="11.2551894"><ele>203.0</ele><time>2026-05-03T10:32:43.714Z</time></trkpt><trkpt lat="43.2899129" lon="11.2554634"><ele>203.0</ele><time>2026-05-03T10:32:44.721Z</time></trkpt><trkpt lat="43.2899255" lon="11.2557399"><ele>203.0</ele><time>2026-05-03T10:32:45.714Z</time></trkpt><trkpt lat="43.289939" lon="11.2560182"><ele>203.0</ele><time>2026-05-03T10:32:46.738Z</time></trkpt><trkpt lat="43.2899515" lon="11.2562945"><ele>203.0</ele><time>2026-05-03T10:32:47.728Z</time></trkpt><trkpt lat="43.2899632" lon="11.2565656"><ele>203.0</ele><time>2026-05-03T10:32:48.741Z</time></trkpt><trkpt lat="43.2899747" lon="11.2568302"><ele>202.66666666666669</ele><time>2026-05-03T10:32:49.735Z</time></trkpt><trkpt lat="43.2899842" lon="11.2570929"><ele>202.33333333333331</ele><time>2026-05-03T10:32:50.71Z</time></trkpt><trkpt lat="43.2899955" lon="11.2573516"><ele>202.0</ele><time>2026-05-03T10:32:51.718Z</time></trkpt><trkpt lat="43.2900063" lon="11.2576153"><ele>202.0</ele><time>2026-05-03T10:32:52.717Z</time></trkpt><trkpt lat="43.2900195" lon="11.2578784"><ele>202.0</ele><time>2026-05-03T10:32:53.717Z</time></trkpt><trkpt lat="43.290028" lon="11.2581446"><ele>202.0</ele><time>2026-05-03T10:32:54.723Z</time></trkpt><trkpt lat="43.2900353" lon="11.2584133"><ele>202.33333333333331</ele><time>2026-05-03T10:32:55.74Z</time></trkpt><trkpt lat="43.2900441" lon="11.2586885"><ele>202.66666666666669</ele><time>2026-05-03T10:32:56.725Z</time></trkpt><trkpt lat="43.2900561" lon="11.2589669"><ele>203.0</ele><time>2026-05-03T10:32:57.721Z</time></trkpt><trkpt lat="43.2900671" lon="11.2592484"><ele>203.33333333333334</ele><time>2026-05-03T10:32:58.719Z</time></trkpt><trkpt lat="43.2900757" lon="11.2595355"><ele>203.66666666666669</ele><time>2026-05-03T10:32:59.717Z</time></trkpt><trkpt lat="43.2900833" lon="11.2598236"><ele>204.0</ele><time>2026-05-03T10:33:00.724Z</time></trkpt><trkpt lat="43.290093" lon="11.2601143"><ele>204.0</ele><time>2026-05-03T10:33:01.728Z</time></trkpt><trkpt lat="43.2901049" lon="11.2604065"><ele>204.0</ele><time>2026-05-03T10:33:02.731Z</time></trkpt><trkpt lat="43.2901164" lon="11.260698"><ele>204.0</ele><time>2026-05-03T10:33:03.737Z</time></trkpt><trkpt lat="43.2901301" lon="11.2609888"><ele>204.66666666666669</ele><time>2026-05-03T10:33:04.752Z</time></trkpt><trkpt lat="43.2901444" lon="11.2612735"><ele>205.33333333333334</ele><time>2026-05-03T10:33:05.735Z</time></trkpt><trkpt lat="43.2901582" lon="11.2615537"><ele>206.0</ele><time>2026-05-03T10:33:06.719Z</time></trkpt><trkpt lat="43.2901653" lon="11.2618332"><ele>206.0</ele><time>2026-05-03T10:33:07.723Z</time></trkpt><trkpt lat="43.2901746" lon="11.262117"><ele>206.0</ele><time>2026-05-03T10:33:08.731Z</time></trkpt><trkpt lat="43.2901839" lon="11.2624062"><ele>206.0</ele><time>2026-05-03T10:33:09.733Z</time></trkpt><trkpt lat="43.2901962" lon="11.2627047"><ele>206.0</ele><time>2026-05-03T10:33:10.722Z</time></trkpt><trkpt lat="43.2902075" lon="11.2630081"><ele>206.0</ele><time>2026-05-03T10:33:11.725Z</time></trkpt><trkpt lat="43.290221" lon="11.2633158"><ele>206.0</ele><time>2026-05-03T10:33:12.724Z</time></trkpt><trkpt lat="43.2902353" lon="11.263626"><ele>206.0</ele><time>2026-05-03T10:33:13.735Z</time></trkpt><trkpt lat="43.29025" lon="11.2639351"><ele>206.0</ele><time>2026-05-03T10:33:14.728Z</time></trkpt><trkpt lat="43.2902646" lon="11.2642435"><ele>206.5</ele><time>2026-05-03T10:33:15.733Z</time></trkpt><trkpt lat="43.2902773" lon="11.2645569"><ele>207.0</ele><time>2026-05-03T10:33:16.733Z</time></trkpt><trkpt lat="43.2902907" lon="11.2648737"><ele>207.5</ele><time>2026-05-03T10:33:17.733Z</time></trkpt><trkpt lat="43.2903042" lon="11.2651898"><ele>208.0</ele><time>2026-05-03T10:33:18.721Z</time></trkpt><trkpt lat="43.2903166" lon="11.265503"><ele>209.0</ele><time>2026-05-03T10:33:19.734Z</time></trkpt><trkpt lat="43.2903231" lon="11.2658153"><ele>210.0</ele><time>2026-05-03T10:33:20.726Z</time></trkpt><trkpt lat="43.2903331" lon="11.2661249"><ele>210.0</ele><time>2026-05-03T10:33:21.731Z</time></trkpt><trkpt lat="43.2903363" lon="11.2664262"><ele>210.0</ele><time>2026-05-03T10:33:22.721Z</time></trkpt><trkpt lat="43.2903457" lon="11.2667202"><ele>210.0</ele><time>2026-05-03T10:33:23.722Z</time></trkpt><trkpt lat="43.2903498" lon="11.2670038"><ele>210.0</ele><time>2026-05-03T10:33:24.726Z</time></trkpt><trkpt lat="43.2903588" lon="11.2672703"><ele>210.0</ele><time>2026-05-03T10:33:25.726Z</time></trkpt><trkpt lat="43.290368" lon="11.2675194"><ele>210.0</ele><time>2026-05-03T10:33:26.722Z</time></trkpt><trkpt lat="43.2903673" lon="11.2677559"><ele>211.0</ele><time>2026-05-03T10:33:27.731Z</time></trkpt><trkpt lat="43.2903495" lon="11.2679945"><ele>212.0</ele><time>2026-05-03T10:33:28.73Z</time></trkpt><trkpt lat="43.2903003" lon="11.2682208"><ele>213.0</ele><time>2026-05-03T10:33:29.725Z</time></trkpt><trkpt lat="43.290222" lon="11.2684293"><ele>213.66666666666669</ele><time>2026-05-03T10:33:30.729Z</time></trkpt><trkpt lat="43.2901124" lon="11.2686217"><ele>214.33333333333334</ele><time>2026-05-03T10:33:31.726Z</time></trkpt><trkpt lat="43.2899957" lon="11.268806"><ele>215.0</ele><time>2026-05-03T10:33:32.725Z</time></trkpt><trkpt lat="43.2898876" lon="11.2689796"><ele>216.0</ele><time>2026-05-03T10:33:33.728Z</time></trkpt><trkpt lat="43.28979" lon="11.269135"><ele>217.0</ele><time>2026-05-03T10:33:34.715Z</time></trkpt><trkpt lat="43.2896977" lon="11.2692795"><ele>218.0</ele><time>2026-05-03T10:33:35.721Z</time></trkpt><trkpt lat="43.2896108" lon="11.2694266"><ele>219.0</ele><time>2026-05-03T10:33:36.725Z</time></trkpt><trkpt lat="43.2895238" lon="11.2695747"><ele>219.0</ele><time>2026-05-03T10:33:37.72Z</time></trkpt><trkpt lat="43.289431" lon="11.2697287"><ele>219.0</ele><time>2026-05-03T10:33:38.732Z</time></trkpt><trkpt lat="43.2893383" lon="11.2698898"><ele>219.0</ele><time>2026-05-03T10:33:39.743Z</time></trkpt><trkpt lat="43.2892417" lon="11.2700506"><ele>219.0</ele><time>2026-05-03T10:33:40.729Z</time></trkpt><trkpt lat="43.2891505" lon="11.2701959"><ele>218.6</ele><time>2026-05-03T10:33:41.723Z</time></trkpt><trkpt lat="43.2890692" lon="11.2703244"><ele>218.2</ele><time>2026-05-03T10:33:42.718Z</time></trkpt><trkpt lat="43.2890008" lon="11.2704321"><ele>217.79999999999998</ele><time>2026-05-03T10:33:43.722Z</time></trkpt><trkpt lat="43.2889583" lon="11.2705147"><ele>217.39999999999998</ele><time>2026-05-03T10:33:44.719Z</time></trkpt><trkpt lat="43.2888938" lon="11.2706288"><ele>217.0</ele><time>2026-05-03T10:33:46.716Z</time></trkpt><trkpt lat="43.2888766" lon="11.2707491"><ele>217.0</ele><time>2026-05-03T10:33:48.722Z</time></trkpt><trkpt lat="43.2889081" lon="11.2708264"><ele>217.0</ele><time>2026-05-03T10:33:49.726Z</time></trkpt><trkpt lat="43.2889664" lon="11.2709273"><ele>217.0</ele><time>2026-05-03T10:33:50.731Z</time></trkpt><trkpt lat="43.2890428" lon="11.2710366"><ele>217.0</ele><time>2026-05-03T10:33:51.723Z</time></trkpt><trkpt lat="43.2891281" lon="11.2711618"><ele>217.0</ele><time>2026-05-03T10:33:52.72Z</time></trkpt><trkpt lat="43.2892085" lon="11.2713032"><ele>219.0</ele><time>2026-05-03T10:33:53.74Z</time></trkpt><trkpt lat="43.2892749" lon="11.271449"><ele>221.0</ele><time>2026-05-03T10:33:54.729Z</time></trkpt><trkpt lat="43.2893398" lon="11.2715904"><ele>223.0</ele><time>2026-05-03T10:33:55.727Z</time></trkpt><trkpt lat="43.2894212" lon="11.2717113"><ele>225.0</ele><time>2026-05-03T10:33:56.723Z</time></trkpt><trkpt lat="43.289512" lon="11.2718158"><ele>225.0</ele><time>2026-05-03T10:33:57.718Z</time></trkpt><trkpt lat="43.2896012" lon="11.2719048"><ele>225.0</ele><time>2026-05-03T10:33:58.724Z</time></trkpt><trkpt lat="43.2896793" lon="11.2719942"><ele>225.0</ele><time>2026-05-03T10:33:59.721Z</time></trkpt><trkpt lat="43.2897531" lon="11.2720974"><ele>225.0</ele><time>2026-05-03T10:34:00.73Z</time></trkpt><trkpt lat="43.289827" lon="11.2722202"><ele>225.0</ele><time>2026-05-03T10:34:01.721Z</time></trkpt><trkpt lat="43.2898955" lon="11.2723714"><ele>225.33333333333331</ele><time>2026-05-03T10:34:02.718Z</time></trkpt><trkpt lat="43.2899674" lon="11.2725553"><ele>225.66666666666666</ele><time>2026-05-03T10:34:03.723Z</time></trkpt><trkpt lat="43.2900394" lon="11.2727567"><ele>226.0</ele><time>2026-05-03T10:34:04.734Z</time></trkpt><trkpt lat="43.290108" lon="11.2729584"><ele>225.5</ele><time>2026-05-03T10:34:05.725Z</time></trkpt><trkpt lat="43.2901696" lon="11.2731506"><ele>225.0</ele><time>2026-05-03T10:34:06.728Z</time></trkpt><trkpt lat="43.2902229" lon="11.2733384"><ele>224.5</ele><time>2026-05-03T10:34:07.726Z</time></trkpt><trkpt lat="43.2902707" lon="11.2735287"><ele>224.0</ele><time>2026-05-03T10:34:08.728Z</time></trkpt><trkpt lat="43.2903162" lon="11.2737163"><ele>224.0</ele><time>2026-05-03T10:34:09.728Z</time></trkpt><trkpt lat="43.2903562" lon="11.2738918"><ele>223.99999999999997</ele><time>2026-05-03T10:34:10.723Z</time></trkpt><trkpt lat="43.2903831" lon="11.2740504"><ele>223.99999999999997</ele><time>2026-05-03T10:34:11.717Z</time></trkpt><trkpt lat="43.2904064" lon="11.2741867"><ele>224.0</ele><time>2026-05-03T10:34:12.724Z</time></trkpt><trkpt lat="43.2904389" lon="11.2742969"><ele>224.0</ele><time>2026-05-03T10:34:13.727Z</time></trkpt><trkpt lat="43.2904829" lon="11.2743768"><ele>224.2</ele><time>2026-05-03T10:34:14.721Z</time></trkpt><trkpt lat="43.2905444" lon="11.2744177"><ele>224.39999999999998</ele><time>2026-05-03T10:34:15.724Z</time></trkpt><trkpt lat="43.2906274" lon="11.274429"><ele>224.6</ele><time>2026-05-03T10:34:16.728Z</time></trkpt><trkpt lat="43.2907205" lon="11.2744252"><ele>224.8</ele><time>2026-05-03T10:34:17.722Z</time></trkpt><trkpt lat="43.2908363" lon="11.2744371"><ele>225.0</ele><time>2026-05-03T10:34:18.723Z</time></trkpt><trkpt lat="43.2909796" lon="11.2744681"><ele>223.33333333333331</ele><time>2026-05-03T10:34:19.729Z</time></trkpt><trkpt lat="43.2911404" lon="11.2745021"><ele>221.66666666666666</ele><time>2026-05-03T10:34:20.728Z</time></trkpt><trkpt lat="43.2913207" lon="11.274538"><ele>220.0</ele><time>2026-05-03T10:34:21.742Z</time></trkpt><trkpt lat="43.2915225" lon="11.2745767"><ele>219.33333333333331</ele><time>2026-05-03T10:34:22.722Z</time></trkpt><trkpt lat="43.2917313" lon="11.2746295"><ele>218.66666666666669</ele><time>2026-05-03T10:34:23.732Z</time></trkpt><trkpt lat="43.2919396" lon="11.2746791"><ele>218.0</ele><time>2026-05-03T10:34:24.726Z</time></trkpt><trkpt lat="43.292143" lon="11.2747271"><ele>217.66666666666669</ele><time>2026-05-03T10:34:25.722Z</time></trkpt><trkpt lat="43.292335" lon="11.2747739"><ele>217.33333333333331</ele><time>2026-05-03T10:34:26.723Z</time></trkpt><trkpt lat="43.2925188" lon="11.2748145"><ele>217.0</ele><time>2026-05-03T10:34:27.726Z</time></trkpt><trkpt lat="43.2927" lon="11.2748544"><ele>217.0</ele><time>2026-05-03T10:34:28.716Z</time></trkpt><trkpt lat="43.2928805" lon="11.2748953"><ele>217.0</ele><time>2026-05-03T10:34:29.718Z</time></trkpt><trkpt lat="43.2930607" lon="11.2749316"><ele>217.0</ele><time>2026-05-03T10:34:30.719Z</time></trkpt><trkpt lat="43.2932395" lon="11.2749538"><ele>218.33333333333331</ele><time>2026-05-03T10:34:31.736Z</time></trkpt><trkpt lat="43.2934195" lon="11.274956"><ele>219.66666666666669</ele><time>2026-05-03T10:34:32.728Z</time></trkpt><trkpt lat="43.2936019" lon="11.2749419"><ele>221.0</ele><time>2026-05-03T10:34:33.726Z</time></trkpt><trkpt lat="43.2937852" lon="11.2749218"><ele>222.33333333333334</ele><time>2026-05-03T10:34:34.733Z</time></trkpt><trkpt lat="43.2939699" lon="11.2749011"><ele>223.66666666666669</ele><time>2026-05-03T10:34:35.731Z</time></trkpt><trkpt lat="43.2941541" lon="11.2748858"><ele>225.0</ele><time>2026-05-03T10:34:36.724Z</time></trkpt><trkpt lat="43.2943361" lon="11.2748637"><ele>225.0</ele><time>2026-05-03T10:34:37.728Z</time></trkpt><trkpt lat="43.294518" lon="11.2748423"><ele>225.0</ele><time>2026-05-03T10:34:38.729Z</time></trkpt><trkpt lat="43.2947029" lon="11.2748185"><ele>225.0</ele><time>2026-05-03T10:34:39.73Z</time></trkpt><trkpt lat="43.2948852" lon="11.2747991"><ele>225.0</ele><time>2026-05-03T10:34:40.723Z</time></trkpt><trkpt lat="43.2950642" lon="11.2747921"><ele>225.0</ele><time>2026-05-03T10:34:41.729Z</time></trkpt><trkpt lat="43.2952427" lon="11.2748133"><ele>225.0</ele><time>2026-05-03T10:34:42.714Z</time></trkpt><trkpt lat="43.295415" lon="11.2748663"><ele>224.66666666666669</ele><time>2026-05-03T10:34:43.721Z</time></trkpt><trkpt lat="43.2955889" lon="11.2749625"><ele>224.33333333333334</ele><time>2026-05-03T10:34:44.728Z</time></trkpt><trkpt lat="43.2957666" lon="11.2750842"><ele>224.0</ele><time>2026-05-03T10:34:45.727Z</time></trkpt><trkpt lat="43.295947" lon="11.2752141"><ele>224.0</ele><time>2026-05-03T10:34:46.73Z</time></trkpt><trkpt lat="43.29613" lon="11.2753453"><ele>224.0</ele><time>2026-05-03T10:34:47.739Z</time></trkpt><trkpt lat="43.2963118" lon="11.2754738"><ele>224.0</ele><time>2026-05-03T10:34:48.716Z</time></trkpt><trkpt lat="43.2964927" lon="11.2755983"><ele>224.33333333333334</ele><time>2026-05-03T10:34:49.723Z</time></trkpt><trkpt lat="43.2966648" lon="11.2757222"><ele>224.66666666666669</ele><time>2026-05-03T10:34:50.714Z</time></trkpt><trkpt lat="43.2968368" lon="11.2758438"><ele>225.0</ele><time>2026-05-03T10:34:51.738Z</time></trkpt><trkpt lat="43.2970078" lon="11.2759544"><ele>225.0</ele><time>2026-05-03T10:34:52.729Z</time></trkpt><trkpt lat="43.2971736" lon="11.2760603"><ele>225.0</ele><time>2026-05-03T10:34:53.729Z</time></trkpt><trkpt lat="43.2973468" lon="11.2761415"><ele>225.0</ele><time>2026-05-03T10:34:54.718Z</time></trkpt><trkpt lat="43.2975354" lon="11.2761859"><ele>225.0</ele><time>2026-05-03T10:34:55.728Z</time></trkpt><trkpt lat="43.2977316" lon="11.2761954"><ele>225.0</ele><time>2026-05-03T10:34:56.72Z</time></trkpt><trkpt lat="43.2979372" lon="11.2761864"><ele>225.0</ele><time>2026-05-03T10:34:57.725Z</time></trkpt><trkpt lat="43.2981455" lon="11.2761628"><ele>225.66666666666669</ele><time>2026-05-03T10:34:58.717Z</time></trkpt><trkpt lat="43.2983569" lon="11.2761181"><ele>226.33333333333334</ele><time>2026-05-03T10:34:59.725Z</time></trkpt><trkpt lat="43.2985648" lon="11.2760651"><ele>227.0</ele><time>2026-05-03T10:35:00.722Z</time></trkpt><trkpt lat="43.2987722" lon="11.2760079"><ele>228.0</ele><time>2026-05-03T10:35:01.72Z</time></trkpt><trkpt lat="43.2989753" lon="11.2759445"><ele>229.0</ele><time>2026-05-03T10:35:02.719Z</time></trkpt><trkpt lat="43.2991689" lon="11.275882"><ele>230.0</ele><time>2026-05-03T10:35:03.73Z</time></trkpt><trkpt lat="43.299353" lon="11.2758214"><ele>230.0</ele><time>2026-05-03T10:35:04.722Z</time></trkpt><trkpt lat="43.2995337" lon="11.2757439"><ele>230.0</ele><time>2026-05-03T10:35:05.718Z</time></trkpt><trkpt lat="43.2997108" lon="11.2756243"><ele>230.0</ele><time>2026-05-03T10:35:06.717Z</time></trkpt><trkpt lat="43.2998758" lon="11.2754517"><ele>230.66666666666669</ele><time>2026-05-03T10:35:07.721Z</time></trkpt><trkpt lat="43.3000348" lon="11.2752693"><ele>231.33333333333331</ele><time>2026-05-03T10:35:08.729Z</time></trkpt><trkpt lat="43.3001979" lon="11.275121"><ele>232.0</ele><time>2026-05-03T10:35:09.722Z</time></trkpt><trkpt lat="43.3003686" lon="11.2750293"><ele>232.0</ele><time>2026-05-03T10:35:10.719Z</time></trkpt><trkpt lat="43.3005452" lon="11.2749943"><ele>232.0</ele><time>2026-05-03T10:35:11.726Z</time></trkpt><trkpt lat="43.300726" lon="11.2750065"><ele>232.0</ele><time>2026-05-03T10:35:12.718Z</time></trkpt><trkpt lat="43.3009143" lon="11.2750517"><ele>234.0</ele><time>2026-05-03T10:35:13.72Z</time></trkpt><trkpt lat="43.3011126" lon="11.2751187"><ele>236.0</ele><time>2026-05-03T10:35:14.721Z</time></trkpt><trkpt lat="43.301315" lon="11.2752001"><ele>238.0</ele><time>2026-05-03T10:35:15.722Z</time></trkpt><trkpt lat="43.3015157" lon="11.2752894"><ele>240.0</ele><time>2026-05-03T10:35:16.715Z</time></trkpt><trkpt lat="43.3017163" lon="11.2753864"><ele>242.0</ele><time>2026-05-03T10:35:17.737Z</time></trkpt><trkpt lat="43.3019161" lon="11.2754729"><ele>244.0</ele><time>2026-05-03T10:35:18.715Z</time></trkpt><trkpt lat="43.3021228" lon="11.2755371"><ele>244.66666666666666</ele><time>2026-05-03T10:35:19.718Z</time></trkpt><trkpt lat="43.3023322" lon="11.27557"><ele>245.33333333333331</ele><time>2026-05-03T10:35:20.708Z</time></trkpt><trkpt lat="43.3025419" lon="11.2755729"><ele>246.0</ele><time>2026-05-03T10:35:21.73Z</time></trkpt><trkpt lat="43.3027446" lon="11.2755599"><ele>246.0</ele><time>2026-05-03T10:35:22.718Z</time></trkpt><trkpt lat="43.3029471" lon="11.275556"><ele>246.0</ele><time>2026-05-03T10:35:23.725Z</time></trkpt><trkpt lat="43.303142" lon="11.2755606"><ele>246.0</ele><time>2026-05-03T10:35:24.72Z</time></trkpt><trkpt lat="43.3033271" lon="11.2755678"><ele>246.33333333333331</ele><time>2026-05-03T10:35:25.723Z</time></trkpt><trkpt lat="43.3035074" lon="11.2755954"><ele>246.66666666666666</ele><time>2026-05-03T10:35:26.721Z</time></trkpt><trkpt lat="43.3036868" lon="11.2756545"><ele>247.0</ele><time>2026-05-03T10:35:27.726Z</time></trkpt><trkpt lat="43.3038594" lon="11.2757408"><ele>248.33333333333331</ele><time>2026-05-03T10:35:28.719Z</time></trkpt><trkpt lat="43.3040312" lon="11.2758455"><ele>249.66666666666669</ele><time>2026-05-03T10:35:29.714Z</time></trkpt><trkpt lat="43.3042" lon="11.275965"><ele>251.0</ele><time>2026-05-03T10:35:30.725Z</time></trkpt><trkpt lat="43.3043651" lon="11.2761052"><ele>251.0</ele><time>2026-05-03T10:35:31.717Z</time></trkpt><trkpt lat="43.3045262" lon="11.2762432"><ele>251.0</ele><time>2026-05-03T10:35:32.732Z</time></trkpt><trkpt lat="43.304686" lon="11.2763702"><ele>251.0</ele><time>2026-05-03T10:35:33.725Z</time></trkpt><trkpt lat="43.3048568" lon="11.2764589"><ele>250.0</ele><time>2026-05-03T10:35:34.726Z</time></trkpt><trkpt lat="43.3050404" lon="11.276503"><ele>249.0</ele><time>2026-05-03T10:35:35.717Z</time></trkpt><trkpt lat="43.3052324" lon="11.2764988"><ele>248.0</ele><time>2026-05-03T10:35:36.715Z</time></trkpt><trkpt lat="43.3054286" lon="11.2764695"><ele>249.33333333333334</ele><time>2026-05-03T10:35:37.73Z</time></trkpt><trkpt lat="43.3056278" lon="11.2764365"><ele>250.66666666666669</ele><time>2026-05-03T10:35:38.706Z</time></trkpt><trkpt lat="43.305829" lon="11.2764098"><ele>252.0</ele><time>2026-05-03T10:35:39.72Z</time></trkpt><trkpt lat="43.3060363" lon="11.2763854"><ele>251.33333333333331</ele><time>2026-05-03T10:35:40.72Z</time></trkpt><trkpt lat="43.3062408" lon="11.2763482"><ele>250.66666666666666</ele><time>2026-05-03T10:35:41.725Z</time></trkpt><trkpt lat="43.306445" lon="11.2763033"><ele>250.0</ele><time>2026-05-03T10:35:42.714Z</time></trkpt><trkpt lat="43.3066456" lon="11.2762489"><ele>250.0</ele><time>2026-05-03T10:35:43.726Z</time></trkpt><trkpt lat="43.306842" lon="11.2761869"><ele>250.0</ele><time>2026-05-03T10:35:44.729Z</time></trkpt><trkpt lat="43.3070372" lon="11.2761261"><ele>250.0</ele><time>2026-05-03T10:35:45.714Z</time></trkpt><trkpt lat="43.3072301" lon="11.2760689"><ele>250.66666666666666</ele><time>2026-05-03T10:35:46.709Z</time></trkpt><trkpt lat="43.3074193" lon="11.2760106"><ele>251.33333333333331</ele><time>2026-05-03T10:35:47.726Z</time></trkpt><trkpt lat="43.3076053" lon="11.2759536"><ele>252.0</ele><time>2026-05-03T10:35:48.714Z</time></trkpt><trkpt lat="43.3077904" lon="11.2758983"><ele>252.0</ele><time>2026-05-03T10:35:49.727Z</time></trkpt><trkpt lat="43.3079746" lon="11.2758513"><ele>252.0</ele><time>2026-05-03T10:35:50.723Z</time></trkpt><trkpt lat="43.3081623" lon="11.2758181"><ele>252.0</ele><time>2026-05-03T10:35:51.728Z</time></trkpt><trkpt lat="43.3083494" lon="11.2758044"><ele>254.33333333333331</ele><time>2026-05-03T10:35:52.73Z</time></trkpt><trkpt lat="43.308542" lon="11.2758173"><ele>256.66666666666663</ele><time>2026-05-03T10:35:53.709Z</time></trkpt><trkpt lat="43.3087392" lon="11.2758602"><ele>259.0</ele><time>2026-05-03T10:35:54.718Z</time></trkpt><trkpt lat="43.3089365" lon="11.2759329"><ele>261.3333333333333</ele><time>2026-05-03T10:35:55.724Z</time></trkpt><trkpt lat="43.3091304" lon="11.2760201"><ele>263.6666666666667</ele><time>2026-05-03T10:35:56.716Z</time></trkpt><trkpt lat="43.3093307" lon="11.2761024"><ele>266.0</ele><time>2026-05-03T10:35:57.727Z</time></trkpt><trkpt lat="43.3095508" lon="11.27615"><ele>269.0</ele><time>2026-05-03T10:35:58.723Z</time></trkpt><trkpt lat="43.3097946" lon="11.2761648"><ele>272.0</ele><time>2026-05-03T10:35:59.715Z</time></trkpt><trkpt lat="43.3100423" lon="11.2761532"><ele>272.0</ele><time>2026-05-03T10:36:00.721Z</time></trkpt><trkpt lat="43.3102853" lon="11.2761002"><ele>272.0</ele><time>2026-05-03T10:36:01.725Z</time></trkpt><trkpt lat="43.310527" lon="11.276036"><ele>269.5</ele><time>2026-05-03T10:36:02.727Z</time></trkpt><trkpt lat="43.3107578" lon="11.2759827"><ele>267.0</ele><time>2026-05-03T10:36:03.712Z</time></trkpt><trkpt lat="43.3109852" lon="11.2759484"><ele>267.0</ele><time>2026-05-03T10:36:04.717Z</time></trkpt><trkpt lat="43.3112068" lon="11.2759259"><ele>267.0</ele><time>2026-05-03T10:36:05.725Z</time></trkpt><trkpt lat="43.3114251" lon="11.2759032"><ele>267.0</ele><time>2026-05-03T10:36:06.711Z</time></trkpt><trkpt lat="43.3116441" lon="11.2758673"><ele>267.0</ele><time>2026-05-03T10:36:07.721Z</time></trkpt><trkpt lat="43.3118639" lon="11.2758169"><ele>267.0</ele><time>2026-05-03T10:36:08.717Z</time></trkpt><trkpt lat="43.3120855" lon="11.2757547"><ele>267.0</ele><time>2026-05-03T10:36:09.72Z</time></trkpt><trkpt lat="43.3123109" lon="11.2756787"><ele>274.5</ele><time>2026-05-03T10:36:10.721Z</time></trkpt><trkpt lat="43.3125425" lon="11.2755851"><ele>282.0</ele><time>2026-05-03T10:36:11.724Z</time></trkpt><trkpt lat="43.3127765" lon="11.2754774"><ele>282.0</ele><time>2026-05-03T10:36:12.721Z</time></trkpt><trkpt lat="43.3130052" lon="11.2753562"><ele>282.0</ele><time>2026-05-03T10:36:13.721Z</time></trkpt><trkpt lat="43.313236" lon="11.2752355"><ele>277.0</ele><time>2026-05-03T10:36:14.731Z</time></trkpt><trkpt lat="43.3134654" lon="11.2751108"><ele>272.0</ele><time>2026-05-03T10:36:15.723Z</time></trkpt><trkpt lat="43.3136905" lon="11.2749922"><ele>275.0</ele><time>2026-05-03T10:36:16.706Z</time></trkpt><trkpt lat="43.313914" lon="11.2748761"><ele>278.0</ele><time>2026-05-03T10:36:17.716Z</time></trkpt><trkpt lat="43.3141362" lon="11.2747584"><ele>278.0</ele><time>2026-05-03T10:36:18.711Z</time></trkpt><trkpt lat="43.3143528" lon="11.2746448"><ele>278.0</ele><time>2026-05-03T10:36:19.719Z</time></trkpt><trkpt lat="43.3145641" lon="11.2745305"><ele>275.0</ele><time>2026-05-03T10:36:20.716Z</time></trkpt><trkpt lat="43.314772" lon="11.2744202"><ele>272.0</ele><time>2026-05-03T10:36:21.715Z</time></trkpt><trkpt lat="43.314979" lon="11.2743208"><ele>269.0</ele><time>2026-05-03T10:36:22.718Z</time></trkpt><trkpt lat="43.3151963" lon="11.2742445"><ele>269.0</ele><time>2026-05-03T10:36:23.728Z</time></trkpt><trkpt lat="43.3154188" lon="11.2742046"><ele>269.0</ele><time>2026-05-03T10:36:24.703Z</time></trkpt><trkpt lat="43.3156421" lon="11.2741988"><ele>269.0</ele><time>2026-05-03T10:36:25.728Z</time></trkpt><trkpt lat="43.3158579" lon="11.2742269"><ele>268.0</ele><time>2026-05-03T10:36:26.719Z</time></trkpt><trkpt lat="43.3160497" lon="11.2742716"><ele>267.0</ele><time>2026-05-03T10:36:27.726Z</time></trkpt><trkpt lat="43.3162121" lon="11.2743061"><ele>266.0</ele><time>2026-05-03T10:36:28.704Z</time></trkpt><trkpt lat="43.3163485" lon="11.2743353"><ele>266.2</ele><time>2026-05-03T10:36:29.739Z</time></trkpt><trkpt lat="43.3164614" lon="11.2743571"><ele>266.40000000000003</ele><time>2026-05-03T10:36:30.719Z</time></trkpt><trkpt lat="43.3165682" lon="11.2743891"><ele>266.6</ele><time>2026-05-03T10:36:31.72Z</time></trkpt><trkpt lat="43.3166598" lon="11.2744399"><ele>266.8</ele><time>2026-05-03T10:36:32.712Z</time></trkpt><trkpt lat="43.3167383" lon="11.2745023"><ele>267.0</ele><time>2026-05-03T10:36:33.735Z</time></trkpt><trkpt lat="43.3168103" lon="11.2745819"><ele>267.0</ele><time>2026-05-03T10:36:34.719Z</time></trkpt><trkpt lat="43.3168644" lon="11.2746786"><ele>267.0</ele><time>2026-05-03T10:36:35.72Z</time></trkpt><trkpt lat="43.3168757" lon="11.2747892"><ele>267.0</ele><time>2026-05-03T10:36:36.715Z</time></trkpt><trkpt lat="43.3168527" lon="11.2749186"><ele>267.0</ele><time>2026-05-03T10:36:37.722Z</time></trkpt><trkpt lat="43.3167989" lon="11.2750548"><ele>267.0</ele><time>2026-05-03T10:36:38.709Z</time></trkpt><trkpt lat="43.3167159" lon="11.2751847"><ele>267.0</ele><time>2026-05-03T10:36:39.726Z</time></trkpt><trkpt lat="43.3165985" lon="11.2752875"><ele>267.0</ele><time>2026-05-03T10:36:40.717Z</time></trkpt><trkpt lat="43.3164621" lon="11.2753768"><ele>267.0</ele><time>2026-05-03T10:36:41.724Z</time></trkpt><trkpt lat="43.3163165" lon="11.2754524"><ele>267.0</ele><time>2026-05-03T10:36:42.723Z</time></trkpt><trkpt lat="43.3161655" lon="11.2755347"><ele>269.25</ele><time>2026-05-03T10:36:43.72Z</time></trkpt><trkpt lat="43.3160193" lon="11.2756264"><ele>271.5</ele><time>2026-05-03T10:36:44.723Z</time></trkpt><trkpt lat="43.3158905" lon="11.2757203"><ele>273.75</ele><time>2026-05-03T10:36:45.729Z</time></trkpt><trkpt lat="43.3157904" lon="11.2758338"><ele>276.0</ele><time>2026-05-03T10:36:46.711Z</time></trkpt><trkpt lat="43.3157155" lon="11.2759853"><ele>276.0</ele><time>2026-05-03T10:36:47.723Z</time></trkpt><trkpt lat="43.3156602" lon="11.2761656"><ele>276.0</ele><time>2026-05-03T10:36:48.721Z</time></trkpt><trkpt lat="43.3156385" lon="11.2763798"><ele>276.0</ele><time>2026-05-03T10:36:49.721Z</time></trkpt><trkpt lat="43.3156562" lon="11.2766199"><ele>278.6666666666667</ele><time>2026-05-03T10:36:50.721Z</time></trkpt><trkpt lat="43.3156991" lon="11.2768544"><ele>281.33333333333337</ele><time>2026-05-03T10:36:51.728Z</time></trkpt><trkpt lat="43.3157471" lon="11.2770809"><ele>284.0</ele><time>2026-05-03T10:36:52.702Z</time></trkpt><trkpt lat="43.3157714" lon="11.2773149"><ele>285.0</ele><time>2026-05-03T10:36:53.702Z</time></trkpt><trkpt lat="43.3157726" lon="11.2775502"><ele>286.0</ele><time>2026-05-03T10:36:54.714Z</time></trkpt><trkpt lat="43.3157515" lon="11.2777949"><ele>287.0</ele><time>2026-05-03T10:36:55.702Z</time></trkpt><trkpt lat="43.3157219" lon="11.2780277"><ele>289.0</ele><time>2026-05-03T10:36:56.713Z</time></trkpt><trkpt lat="43.3156891" lon="11.2782748"><ele>291.0</ele><time>2026-05-03T10:36:57.719Z</time></trkpt><trkpt lat="43.315633" lon="11.2785098"><ele>293.0</ele><time>2026-05-03T10:36:58.733Z</time></trkpt><trkpt lat="43.3155565" lon="11.2787406"><ele>295.6666666666667</ele><time>2026-05-03T10:36:59.726Z</time></trkpt><trkpt lat="43.3154489" lon="11.2789603"><ele>298.3333333333333</ele><time>2026-05-03T10:37:00.728Z</time></trkpt><trkpt lat="43.3153449" lon="11.2791669"><ele>301.0</ele><time>2026-05-03T10:37:01.72Z</time></trkpt><trkpt lat="43.3152354" lon="11.2793563"><ele>301.0</ele><time>2026-05-03T10:37:02.716Z</time></trkpt><trkpt lat="43.3151379" lon="11.2795457"><ele>301.0</ele><time>2026-05-03T10:37:03.722Z</time></trkpt><trkpt lat="43.3150399" lon="11.2797249"><ele>301.0</ele><time>2026-05-03T10:37:04.715Z</time></trkpt><trkpt lat="43.3149266" lon="11.2798898"><ele>302.3333333333333</ele><time>2026-05-03T10:37:05.718Z</time></trkpt><trkpt lat="43.3147969" lon="11.2800386"><ele>303.6666666666667</ele><time>2026-05-03T10:37:06.718Z</time></trkpt><trkpt lat="43.3146511" lon="11.2801602"><ele>305.0</ele><time>2026-05-03T10:37:07.732Z</time></trkpt><trkpt lat="43.3145004" lon="11.2802689"><ele>306.0</ele><time>2026-05-03T10:37:08.721Z</time></trkpt><trkpt lat="43.3143521" lon="11.2803808"><ele>307.0</ele><time>2026-05-03T10:37:09.725Z</time></trkpt><trkpt lat="43.3142124" lon="11.2805125"><ele>308.0</ele><time>2026-05-03T10:37:10.715Z</time></trkpt><trkpt lat="43.3140938" lon="11.2806713"><ele>309.6666666666667</ele><time>2026-05-03T10:37:11.723Z</time></trkpt><trkpt lat="43.3140081" lon="11.2808436"><ele>311.3333333333333</ele><time>2026-05-03T10:37:12.715Z</time></trkpt><trkpt lat="43.3139579" lon="11.2810344"><ele>313.0</ele><time>2026-05-03T10:37:13.711Z</time></trkpt><trkpt lat="43.313935" lon="11.28125"><ele>314.3333333333333</ele><time>2026-05-03T10:37:14.712Z</time></trkpt><trkpt lat="43.3139329" lon="11.2814835"><ele>315.6666666666667</ele><time>2026-05-03T10:37:15.723Z</time></trkpt><trkpt lat="43.3139384" lon="11.2817259"><ele>317.0</ele><time>2026-05-03T10:37:16.722Z</time></trkpt><trkpt lat="43.3139529" lon="11.2819798"><ele>317.0</ele><time>2026-05-03T10:37:17.723Z</time></trkpt><trkpt lat="43.313963" lon="11.2822344"><ele>317.0</ele><time>2026-05-03T10:37:18.723Z</time></trkpt><trkpt lat="43.3139769" lon="11.2824871"><ele>317.0</ele><time>2026-05-03T10:37:19.715Z</time></trkpt><trkpt lat="43.3140024" lon="11.2827349"><ele>318.6666666666667</ele><time>2026-05-03T10:37:20.729Z</time></trkpt><trkpt lat="43.3140631" lon="11.2829608"><ele>320.3333333333333</ele><time>2026-05-03T10:37:21.714Z</time></trkpt><trkpt lat="43.3141498" lon="11.2831753"><ele>322.0</ele><time>2026-05-03T10:37:22.728Z</time></trkpt><trkpt lat="43.3142487" lon="11.2833894"><ele>323.66666666666663</ele><time>2026-05-03T10:37:23.721Z</time></trkpt><trkpt lat="43.3143522" lon="11.2835969"><ele>325.3333333333333</ele><time>2026-05-03T10:37:24.723Z</time></trkpt><trkpt lat="43.3144558" lon="11.2838039"><ele>327.0</ele><time>2026-05-03T10:37:25.713Z</time></trkpt><trkpt lat="43.3145522" lon="11.2840111"><ele>330.3333333333333</ele><time>2026-05-03T10:37:26.703Z</time></trkpt><trkpt lat="43.3146299" lon="11.2842135"><ele>333.66666666666663</ele><time>2026-05-03T10:37:27.724Z</time></trkpt><trkpt lat="43.3146823" lon="11.2844133"><ele>337.0</ele><time>2026-05-03T10:37:28.722Z</time></trkpt><trkpt lat="43.3147068" lon="11.2846137"><ele>339.3333333333333</ele><time>2026-05-03T10:37:29.724Z</time></trkpt><trkpt lat="43.3147024" lon="11.2848108"><ele>341.6666666666667</ele><time>2026-05-03T10:37:30.714Z</time></trkpt><trkpt lat="43.3146722" lon="11.2850141"><ele>344.0</ele><time>2026-05-03T10:37:31.715Z</time></trkpt><trkpt lat="43.3146366" lon="11.2852251"><ele>344.0</ele><time>2026-05-03T10:37:32.709Z</time></trkpt><trkpt lat="43.3146133" lon="11.2854395"><ele>344.0</ele><time>2026-05-03T10:37:33.72Z</time></trkpt><trkpt lat="43.3146195" lon="11.2856556"><ele>344.0</ele><time>2026-05-03T10:37:34.709Z</time></trkpt><trkpt lat="43.3146456" lon="11.2858564"><ele>345.75</ele><time>2026-05-03T10:37:35.721Z</time></trkpt><trkpt lat="43.3146838" lon="11.2860423"><ele>347.5</ele><time>2026-05-03T10:37:36.704Z</time></trkpt><trkpt lat="43.3147151" lon="11.2862185"><ele>349.25</ele><time>2026-05-03T10:37:37.731Z</time></trkpt><trkpt lat="43.3147245" lon="11.286373"><ele>351.0</ele><time>2026-05-03T10:37:38.724Z</time></trkpt><trkpt lat="43.3147208" lon="11.2865016"><ele>351.6666666666667</ele><time>2026-05-03T10:37:39.714Z</time></trkpt><trkpt lat="43.3147018" lon="11.2866361"><ele>352.3333333333333</ele><time>2026-05-03T10:37:41.722Z</time></trkpt><trkpt lat="43.3146858" lon="11.2867221"><ele>353.0</ele><time>2026-05-03T10:38:19.727Z</time></trkpt><trkpt lat="43.3145952" lon="11.2868434"><ele>353.66666666666663</ele><time>2026-05-03T10:38:21.724Z</time></trkpt><trkpt lat="43.3145351" lon="11.2869049"><ele>354.3333333333333</ele><time>2026-05-03T10:38:22.724Z</time></trkpt><trkpt lat="43.3144719" lon="11.2869803"><ele>355.0</ele><time>2026-05-03T10:38:23.732Z</time></trkpt><trkpt lat="43.3143939" lon="11.2870618"><ele>355.0</ele><time>2026-05-03T10:38:24.712Z</time></trkpt><trkpt lat="43.3143086" lon="11.2871502"><ele>355.0</ele><time>2026-05-03T10:38:25.721Z</time></trkpt><trkpt lat="43.3142196" lon="11.287238"><ele>355.0</ele><time>2026-05-03T10:38:26.716Z</time></trkpt><trkpt lat="43.3141386" lon="11.287313"><ele>355.0</ele><time>2026-05-03T10:38:27.719Z</time></trkpt><trkpt lat="43.3140864" lon="11.2873669"><ele>355.0</ele><time>2026-05-03T10:38:28.715Z</time></trkpt><trkpt lat="43.3140272" lon="11.2874921"><ele>355.0</ele><time>2026-05-03T10:38:30.715Z</time></trkpt><trkpt lat="43.3140642" lon="11.2876617"><ele>355.0</ele><time>2026-05-03T10:38:32.722Z</time></trkpt><trkpt lat="43.3141104" lon="11.2877592"><ele>355.0</ele><time>2026-05-03T10:38:33.714Z</time></trkpt><trkpt lat="43.314171" lon="11.2878727"><ele>355.0</ele><time>2026-05-03T10:38:34.713Z</time></trkpt><trkpt lat="43.3142364" lon="11.2879979"><ele>355.0</ele><time>2026-05-03T10:38:35.718Z</time></trkpt><trkpt lat="43.3143061" lon="11.2881384"><ele>355.0</ele><time>2026-05-03T10:38:36.717Z</time></trkpt><trkpt lat="43.3143796" lon="11.2882888"><ele>355.0</ele><time>2026-05-03T10:38:37.729Z</time></trkpt><trkpt lat="43.3144528" lon="11.2884271"><ele>355.0</ele><time>2026-05-03T10:38:38.712Z</time></trkpt><trkpt lat="43.3145206" lon="11.2885451"><ele>355.0</ele><time>2026-05-03T10:38:39.706Z</time></trkpt><trkpt lat="43.3145764" lon="11.2886412"><ele>355.0</ele><time>2026-05-03T10:38:40.703Z</time></trkpt><trkpt lat="43.3146182" lon="11.2887151"><ele>355.0</ele><time>2026-05-03T10:38:41.71Z</time></trkpt><trkpt lat="43.3146918" lon="11.2888292"><ele>355.0</ele><time>2026-05-03T10:38:43.73Z</time></trkpt><trkpt lat="43.3147569" lon="11.2889282"><ele>355.0</ele><time>2026-05-03T10:38:45.712Z</time></trkpt><trkpt lat="43.3148093" lon="11.2890138"><ele>355.0</ele><time>2026-05-03T10:38:47.713Z</time></trkpt><trkpt lat="43.3148691" lon="11.2891172"><ele>354.5</ele><time>2026-05-03T10:38:49.715Z</time></trkpt><trkpt lat="43.3149363" lon="11.2892648"><ele>354.0</ele><time>2026-05-03T10:38:51.714Z</time></trkpt><trkpt lat="43.3149737" lon="11.289346"><ele>353.5</ele><time>2026-05-03T10:38:52.716Z</time></trkpt><trkpt lat="43.3150035" lon="11.2894293"><ele>353.0</ele><time>2026-05-03T10:38:53.713Z</time></trkpt><trkpt lat="43.3150462" lon="11.2895785"><ele>352.5</ele><time>2026-05-03T10:38:55.717Z</time></trkpt><trkpt lat="43.3150722" lon="11.2896576"><ele>352.0</ele><time>2026-05-03T10:38:56.715Z</time></trkpt><trkpt lat="43.3151036" lon="11.2897537"><ele>353.0</ele><time>2026-05-03T10:38:57.732Z</time></trkpt><trkpt lat="43.3151352" lon="11.2898714"><ele>354.0</ele><time>2026-05-03T10:38:58.708Z</time></trkpt><trkpt lat="43.3151778" lon="11.2900052"><ele>355.0</ele><time>2026-05-03T10:38:59.723Z</time></trkpt><trkpt lat="43.3152163" lon="11.2901358"><ele>356.0</ele><time>2026-05-03T10:39:00.721Z</time></trkpt><trkpt lat="43.3152569" lon="11.2902547"><ele>357.0</ele><time>2026-05-03T10:39:01.712Z</time></trkpt><trkpt lat="43.3152978" lon="11.290372"><ele>357.0</ele><time>2026-05-03T10:39:02.717Z</time></trkpt><trkpt lat="43.3153324" lon="11.2904879"><ele>357.0</ele><time>2026-05-03T10:39:03.716Z</time></trkpt><trkpt lat="43.3153678" lon="11.2906056"><ele>357.0</ele><time>2026-05-03T10:39:04.707Z</time></trkpt><trkpt lat="43.3154132" lon="11.2907286"><ele>357.0</ele><time>2026-05-03T10:39:05.733Z</time></trkpt><trkpt lat="43.3154722" lon="11.2908587"><ele>357.0</ele><time>2026-05-03T10:39:06.717Z</time></trkpt><trkpt lat="43.3155309" lon="11.2909883"><ele>356.40000000000003</ele><time>2026-05-03T10:39:07.729Z</time></trkpt><trkpt lat="43.3155933" lon="11.291124"><ele>355.8</ele><time>2026-05-03T10:39:08.707Z</time></trkpt><trkpt lat="43.3156433" lon="11.2912609"><ele>355.2</ele><time>2026-05-03T10:39:09.728Z</time></trkpt><trkpt lat="43.3156881" lon="11.2913927"><ele>354.6</ele><time>2026-05-03T10:39:10.717Z</time></trkpt><trkpt lat="43.3157299" lon="11.2915387"><ele>354.0</ele><time>2026-05-03T10:39:11.724Z</time></trkpt><trkpt lat="43.3157696" lon="11.2917027"><ele>354.0</ele><time>2026-05-03T10:39:12.715Z</time></trkpt><trkpt lat="43.3157849" lon="11.2918881"><ele>354.0</ele><time>2026-05-03T10:39:13.729Z</time></trkpt><trkpt lat="43.3157841" lon="11.2920756"><ele>354.0</ele><time>2026-05-03T10:39:14.718Z</time></trkpt><trkpt lat="43.3157775" lon="11.2922622"><ele>354.0</ele><time>2026-05-03T10:39:15.71Z</time></trkpt><trkpt lat="43.3157782" lon="11.2924452"><ele>353.2</ele><time>2026-05-03T10:39:16.712Z</time></trkpt><trkpt lat="43.3157871" lon="11.2926225"><ele>352.4</ele><time>2026-05-03T10:39:17.711Z</time></trkpt><trkpt lat="43.3158186" lon="11.2927721"><ele>351.6</ele><time>2026-05-03T10:39:18.716Z</time></trkpt><trkpt lat="43.315875" lon="11.2928907"><ele>350.8</ele><time>2026-05-03T10:39:19.724Z</time></trkpt><trkpt lat="43.3159499" lon="11.2929755"><ele>350.0</ele><time>2026-05-03T10:39:20.719Z</time></trkpt><trkpt lat="43.3160317" lon="11.2930484"><ele>348.2</ele><time>2026-05-03T10:39:21.718Z</time></trkpt><trkpt lat="43.3161093" lon="11.2931237"><ele>346.4</ele><time>2026-05-03T10:39:22.726Z</time></trkpt><trkpt lat="43.3161786" lon="11.2931871"><ele>344.6</ele><time>2026-05-03T10:39:23.736Z</time></trkpt><trkpt lat="43.316259" lon="11.2932572"><ele>342.8</ele><time>2026-05-03T10:39:24.724Z</time></trkpt><trkpt lat="43.3163485" lon="11.2933165"><ele>341.0</ele><time>2026-05-03T10:39:25.729Z</time></trkpt><trkpt lat="43.3164481" lon="11.2933679"><ele>341.0</ele><time>2026-05-03T10:39:26.721Z</time></trkpt><trkpt lat="43.3165575" lon="11.2933998"><ele>341.0</ele><time>2026-05-03T10:39:27.711Z</time></trkpt><trkpt lat="43.3166712" lon="11.2934243"><ele>341.0</ele><time>2026-05-03T10:39:28.721Z</time></trkpt><trkpt lat="43.316773" lon="11.293451"><ele>341.0</ele><time>2026-05-03T10:39:29.729Z</time></trkpt><trkpt lat="43.3168679" lon="11.2934887"><ele>341.0</ele><time>2026-05-03T10:39:30.718Z</time></trkpt><trkpt lat="43.3169509" lon="11.2935434"><ele>341.0</ele><time>2026-05-03T10:39:31.722Z</time></trkpt><trkpt lat="43.3170247" lon="11.2936273"><ele>341.0</ele><time>2026-05-03T10:39:32.729Z</time></trkpt><trkpt lat="43.3170782" lon="11.2937446"><ele>341.0</ele><time>2026-05-03T10:39:33.734Z</time></trkpt><trkpt lat="43.3171062" lon="11.2938832"><ele>341.0</ele><time>2026-05-03T10:39:34.716Z</time></trkpt><trkpt lat="43.3170961" lon="11.2940277"><ele>341.0</ele><time>2026-05-03T10:39:35.725Z</time></trkpt><trkpt lat="43.3170649" lon="11.2941632"><ele>340.0</ele><time>2026-05-03T10:39:36.731Z</time></trkpt><trkpt lat="43.317001" lon="11.2942814"><ele>339.0</ele><time>2026-05-03T10:39:37.727Z</time></trkpt><trkpt lat="43.3169157" lon="11.2943601"><ele>338.0</ele><time>2026-05-03T10:39:38.704Z</time></trkpt><trkpt lat="43.3168161" lon="11.2944198"><ele>337.0</ele><time>2026-05-03T10:39:39.718Z</time></trkpt><trkpt lat="43.3167013" lon="11.2944727"><ele>336.0</ele><time>2026-05-03T10:39:40.72Z</time></trkpt><trkpt lat="43.3165798" lon="11.2945273"><ele>336.0</ele><time>2026-05-03T10:39:41.721Z</time></trkpt><trkpt lat="43.3164573" lon="11.2945798"><ele>336.0</ele><time>2026-05-03T10:39:42.721Z</time></trkpt><trkpt lat="43.3163379" lon="11.2946246"><ele>336.0</ele><time>2026-05-03T10:39:43.733Z</time></trkpt><trkpt lat="43.3162338" lon="11.2946642"><ele>336.0</ele><time>2026-05-03T10:39:44.731Z</time></trkpt><trkpt lat="43.3161385" lon="11.294729"><ele>333.6</ele><time>2026-05-03T10:39:45.727Z</time></trkpt><trkpt lat="43.3160663" lon="11.2948265"><ele>331.20000000000005</ele><time>2026-05-03T10:39:46.731Z</time></trkpt><trkpt lat="43.3160151" lon="11.2949454"><ele>328.79999999999995</ele><time>2026-05-03T10:39:47.724Z</time></trkpt><trkpt lat="43.3159716" lon="11.2950771"><ele>326.4</ele><time>2026-05-03T10:39:48.717Z</time></trkpt><trkpt lat="43.3159314" lon="11.2952339"><ele>324.0</ele><time>2026-05-03T10:39:49.706Z</time></trkpt><trkpt lat="43.315897" lon="11.2954141"><ele>323.5</ele><time>2026-05-03T10:39:50.719Z</time></trkpt><trkpt lat="43.3158843" lon="11.2956139"><ele>323.0</ele><time>2026-05-03T10:39:51.724Z</time></trkpt><trkpt lat="43.3158901" lon="11.2958169"><ele>322.5</ele><time>2026-05-03T10:39:52.708Z</time></trkpt><trkpt lat="43.3158941" lon="11.2960194"><ele>322.0</ele><time>2026-05-03T10:39:53.718Z</time></trkpt><trkpt lat="43.3158831" lon="11.2962145"><ele>322.0</ele><time>2026-05-03T10:39:54.718Z</time></trkpt><trkpt lat="43.3158536" lon="11.2964123"><ele>322.0</ele><time>2026-05-03T10:39:55.726Z</time></trkpt><trkpt lat="43.3158174" lon="11.2966082"><ele>322.0</ele><time>2026-05-03T10:39:56.727Z</time></trkpt><trkpt lat="43.3157791" lon="11.2968082"><ele>322.0</ele><time>2026-05-03T10:39:57.723Z</time></trkpt><trkpt lat="43.3157375" lon="11.296999"><ele>321.75</ele><time>2026-05-03T10:39:58.721Z</time></trkpt><trkpt lat="43.3156916" lon="11.2971708"><ele>321.5</ele><time>2026-05-03T10:39:59.731Z</time></trkpt><trkpt lat="43.3156342" lon="11.2973377"><ele>321.25</ele><time>2026-05-03T10:40:00.737Z</time></trkpt><trkpt lat="43.315578" lon="11.2975067"><ele>321.0</ele><time>2026-05-03T10:40:01.734Z</time></trkpt><trkpt lat="43.3155426" lon="11.2976892"><ele>318.0</ele><time>2026-05-03T10:40:02.703Z</time></trkpt><trkpt lat="43.3155305" lon="11.2978771"><ele>315.0</ele><time>2026-05-03T10:40:03.721Z</time></trkpt><trkpt lat="43.3155144" lon="11.2980735"><ele>312.0</ele><time>2026-05-03T10:40:04.719Z</time></trkpt><trkpt lat="43.3154855" lon="11.2982556"><ele>309.0</ele><time>2026-05-03T10:40:05.719Z</time></trkpt><trkpt lat="43.3154347" lon="11.2984327"><ele>307.75</ele><time>2026-05-03T10:40:06.72Z</time></trkpt><trkpt lat="43.3153731" lon="11.2986099"><ele>306.5</ele><time>2026-05-03T10:40:07.718Z</time></trkpt><trkpt lat="43.3153098" lon="11.2987922"><ele>305.25</ele><time>2026-05-03T10:40:08.718Z</time></trkpt><trkpt lat="43.3152445" lon="11.2989723"><ele>304.0</ele><time>2026-05-03T10:40:09.728Z</time></trkpt><trkpt lat="43.3151738" lon="11.2991387"><ele>303.0</ele><time>2026-05-03T10:40:10.702Z</time></trkpt><trkpt lat="43.3151114" lon="11.2993053"><ele>302.0</ele><time>2026-05-03T10:40:11.716Z</time></trkpt><trkpt lat="43.3150613" lon="11.299472"><ele>301.0</ele><time>2026-05-03T10:40:12.718Z</time></trkpt><trkpt lat="43.3150021" lon="11.2996277"><ele>300.0</ele><time>2026-05-03T10:40:13.718Z</time></trkpt><trkpt lat="43.3149333" lon="11.2997577"><ele>299.5</ele><time>2026-05-03T10:40:14.723Z</time></trkpt><trkpt lat="43.3148407" lon="11.2998744"><ele>299.0</ele><time>2026-05-03T10:40:15.717Z</time></trkpt><trkpt lat="43.3147179" lon="11.2999768"><ele>298.5</ele><time>2026-05-03T10:40:16.714Z</time></trkpt><trkpt lat="43.3145817" lon="11.300074"><ele>298.0</ele><time>2026-05-03T10:40:17.722Z</time></trkpt><trkpt lat="43.3144437" lon="11.3001779"><ele>295.0</ele><time>2026-05-03T10:40:18.714Z</time></trkpt><trkpt lat="43.3143107" lon="11.3002938"><ele>292.0</ele><time>2026-05-03T10:40:19.735Z</time></trkpt><trkpt lat="43.3141755" lon="11.3004145"><ele>289.0</ele><time>2026-05-03T10:40:20.703Z</time></trkpt><trkpt lat="43.3140437" lon="11.3005327"><ele>292.0</ele><time>2026-05-03T10:40:21.717Z</time></trkpt><trkpt lat="43.3139153" lon="11.3006614"><ele>295.0</ele><time>2026-05-03T10:40:22.717Z</time></trkpt><trkpt lat="43.3138048" lon="11.3008184"><ele>298.0</ele><time>2026-05-03T10:40:23.72Z</time></trkpt><trkpt lat="43.3137113" lon="11.3010068"><ele>292.66666666666663</ele><time>2026-05-03T10:40:24.718Z</time></trkpt><trkpt lat="43.3136281" lon="11.3012207"><ele>287.3333333333333</ele><time>2026-05-03T10:40:25.721Z</time></trkpt><trkpt lat="43.3135575" lon="11.3014299"><ele>282.0</ele><time>2026-05-03T10:40:26.73Z</time></trkpt><trkpt lat="43.3135026" lon="11.3016227"><ele>282.0</ele><time>2026-05-03T10:40:27.73Z</time></trkpt><trkpt lat="43.3134542" lon="11.3018026"><ele>282.0</ele><time>2026-05-03T10:40:28.72Z</time></trkpt><trkpt lat="43.3134492" lon="11.3019842"><ele>282.0</ele><time>2026-05-03T10:40:29.722Z</time></trkpt><trkpt lat="43.3134869" lon="11.3021763"><ele>282.0</ele><time>2026-05-03T10:40:30.72Z</time></trkpt><trkpt lat="43.3135553" lon="11.3023786"><ele>280.6666666666667</ele><time>2026-05-03T10:40:31.725Z</time></trkpt><trkpt lat="43.3136146" lon="11.3025864"><ele>279.33333333333337</ele><time>2026-05-03T10:40:32.711Z</time></trkpt><trkpt lat="43.3136669" lon="11.3027977"><ele>278.0</ele><time>2026-05-03T10:40:33.721Z</time></trkpt><trkpt lat="43.313713" lon="11.302977"><ele>277.0</ele><time>2026-05-03T10:40:34.731Z</time></trkpt><trkpt lat="43.313741" lon="11.3031269"><ele>276.0</ele><time>2026-05-03T10:40:35.719Z</time></trkpt><trkpt lat="43.3137469" lon="11.3032577"><ele>275.0</ele><time>2026-05-03T10:40:36.722Z</time></trkpt><trkpt lat="43.3137249" lon="11.3033853"><ele>274.0</ele><time>2026-05-03T10:40:37.725Z</time></trkpt><trkpt lat="43.3136467" lon="11.3035133"><ele>273.0</ele><time>2026-05-03T10:40:38.702Z</time></trkpt><trkpt lat="43.31354" lon="11.3036456"><ele>273.0</ele><time>2026-05-03T10:40:39.711Z</time></trkpt><trkpt lat="43.3134384" lon="11.3037758"><ele>273.0</ele><time>2026-05-03T10:40:40.692Z</time></trkpt><trkpt lat="43.3133441" lon="11.3039076"><ele>273.0</ele><time>2026-05-03T10:40:41.716Z</time></trkpt><trkpt lat="43.3132839" lon="11.3040805"><ele>273.0</ele><time>2026-05-03T10:40:42.723Z</time></trkpt><trkpt lat="43.3132572" lon="11.3042803"><ele>273.6666666666667</ele><time>2026-05-03T10:40:43.714Z</time></trkpt><trkpt lat="43.3132417" lon="11.3044942"><ele>274.33333333333337</ele><time>2026-05-03T10:40:44.695Z</time></trkpt><trkpt lat="43.3132275" lon="11.3047311"><ele>275.0</ele><time>2026-05-03T10:40:45.714Z</time></trkpt><trkpt lat="43.3132075" lon="11.3049924"><ele>275.0</ele><time>2026-05-03T10:40:46.706Z</time></trkpt><trkpt lat="43.3131858" lon="11.3052456"><ele>275.0</ele><time>2026-05-03T10:40:47.716Z</time></trkpt><trkpt lat="43.313159" lon="11.3054868"><ele>275.0</ele><time>2026-05-03T10:40:48.712Z</time></trkpt><trkpt lat="43.313136" lon="11.3057086"><ele>273.33333333333337</ele><time>2026-05-03T10:40:49.722Z</time></trkpt><trkpt lat="43.3131323" lon="11.3059357"><ele>271.6666666666667</ele><time>2026-05-03T10:40:50.721Z</time></trkpt><trkpt lat="43.3131525" lon="11.3061653"><ele>270.0</ele><time>2026-05-03T10:40:51.708Z</time></trkpt><trkpt lat="43.3131815" lon="11.3063748"><ele>267.25</ele><time>2026-05-03T10:40:52.717Z</time></trkpt><trkpt lat="43.3132209" lon="11.306547"><ele>264.5</ele><time>2026-05-03T10:40:53.728Z</time></trkpt><trkpt lat="43.3132769" lon="11.3066675"><ele>261.75</ele><time>2026-05-03T10:40:54.72Z</time></trkpt><trkpt lat="43.3133654" lon="11.3067416"><ele>259.0</ele><time>2026-05-03T10:40:55.72Z</time></trkpt><trkpt lat="43.3134908" lon="11.3067465"><ele>259.0</ele><time>2026-05-03T10:40:56.727Z</time></trkpt><trkpt lat="43.31362" lon="11.306701"><ele>259.0</ele><time>2026-05-03T10:40:57.722Z</time></trkpt><trkpt lat="43.313758" lon="11.3066189"><ele>259.0</ele><time>2026-05-03T10:40:58.711Z</time></trkpt><trkpt lat="43.3139012" lon="11.3065142"><ele>259.0</ele><time>2026-05-03T10:40:59.713Z</time></trkpt><trkpt lat="43.3140361" lon="11.3064038"><ele>261.2</ele><time>2026-05-03T10:41:00.72Z</time></trkpt><trkpt lat="43.3141583" lon="11.306321"><ele>263.4</ele><time>2026-05-03T10:41:01.717Z</time></trkpt><trkpt lat="43.3142626" lon="11.3062572"><ele>265.6</ele><time>2026-05-03T10:41:02.721Z</time></trkpt><trkpt lat="43.314359" lon="11.3062396"><ele>267.8</ele><time>2026-05-03T10:41:03.721Z</time></trkpt><trkpt lat="43.3144422" lon="11.3062606"><ele>270.0</ele><time>2026-05-03T10:41:04.707Z</time></trkpt><trkpt lat="43.3145026" lon="11.3063471"><ele>266.75</ele><time>2026-05-03T10:41:05.71Z</time></trkpt><trkpt lat="43.3145348" lon="11.306481"><ele>263.5</ele><time>2026-05-03T10:41:06.717Z</time></trkpt><trkpt lat="43.3145001" lon="11.306628"><ele>260.25</ele><time>2026-05-03T10:41:07.714Z</time></trkpt><trkpt lat="43.3143981" lon="11.3067292"><ele>257.0</ele><time>2026-05-03T10:41:08.706Z</time></trkpt><trkpt lat="43.3142668" lon="11.3068287"><ele>257.0</ele><time>2026-05-03T10:41:09.729Z</time></trkpt><trkpt lat="43.314124" lon="11.3069469"><ele>257.0</ele><time>2026-05-03T10:41:10.701Z</time></trkpt><trkpt lat="43.313981" lon="11.3070876"><ele>257.0</ele><time>2026-05-03T10:41:11.715Z</time></trkpt><trkpt lat="43.3138349" lon="11.3072518"><ele>253.0</ele><time>2026-05-03T10:41:12.711Z</time></trkpt><trkpt lat="43.3136796" lon="11.3074257"><ele>249.0</ele><time>2026-05-03T10:41:13.716Z</time></trkpt><trkpt lat="43.3135253" lon="11.3076057"><ele>245.0</ele><time>2026-05-03T10:41:14.708Z</time></trkpt><trkpt lat="43.3133817" lon="11.3077784"><ele>245.0</ele><time>2026-05-03T10:41:15.72Z</time></trkpt><trkpt lat="43.3132411" lon="11.307944"><ele>245.0</ele><time>2026-05-03T10:41:16.72Z</time></trkpt><trkpt lat="43.3131003" lon="11.3081003"><ele>245.0</ele><time>2026-05-03T10:41:17.717Z</time></trkpt><trkpt lat="43.3129566" lon="11.3082573"><ele>245.33333333333334</ele><time>2026-05-03T10:41:18.701Z</time></trkpt><trkpt lat="43.3128249" lon="11.3084122"><ele>245.66666666666669</ele><time>2026-05-03T10:41:19.722Z</time></trkpt><trkpt lat="43.3126979" lon="11.3085677"><ele>246.0</ele><time>2026-05-03T10:41:20.706Z</time></trkpt><trkpt lat="43.3125652" lon="11.3087193"><ele>246.0</ele><time>2026-05-03T10:41:21.72Z</time></trkpt><trkpt lat="43.31243" lon="11.3088679"><ele>246.0</ele><time>2026-05-03T10:41:22.706Z</time></trkpt><trkpt lat="43.3122926" lon="11.3090256"><ele>246.0</ele><time>2026-05-03T10:41:23.72Z</time></trkpt><trkpt lat="43.3121475" lon="11.3091892"><ele>244.66666666666669</ele><time>2026-05-03T10:41:24.717Z</time></trkpt><trkpt lat="43.311995" lon="11.3093632"><ele>243.33333333333334</ele><time>2026-05-03T10:41:25.721Z</time></trkpt><trkpt lat="43.311837" lon="11.3095489"><ele>242.0</ele><time>2026-05-03T10:41:26.723Z</time></trkpt><trkpt lat="43.3116734" lon="11.3097386"><ele>240.33333333333334</ele><time>2026-05-03T10:41:27.714Z</time></trkpt><trkpt lat="43.31151" lon="11.3099252"><ele>238.66666666666669</ele><time>2026-05-03T10:41:28.723Z</time></trkpt><trkpt lat="43.3113592" lon="11.3100961"><ele>237.0</ele><time>2026-05-03T10:41:29.717Z</time></trkpt><trkpt lat="43.3112249" lon="11.3102516"><ele>238.0</ele><time>2026-05-03T10:41:30.705Z</time></trkpt><trkpt lat="43.3111021" lon="11.3104065"><ele>239.0</ele><time>2026-05-03T10:41:31.721Z</time></trkpt><trkpt lat="43.3110038" lon="11.3105777"><ele>240.0</ele><time>2026-05-03T10:41:32.717Z</time></trkpt><trkpt lat="43.3109407" lon="11.3107866"><ele>240.0</ele><time>2026-05-03T10:41:33.709Z</time></trkpt><trkpt lat="43.3109257" lon="11.3110126"><ele>240.0</ele><time>2026-05-03T10:41:34.723Z</time></trkpt><trkpt lat="43.3109517" lon="11.3112264"><ele>240.0</ele><time>2026-05-03T10:41:35.718Z</time></trkpt><trkpt lat="43.3110146" lon="11.3114112"><ele>239.75</ele><time>2026-05-03T10:41:36.718Z</time></trkpt><trkpt lat="43.3110986" lon="11.311571"><ele>239.5</ele><time>2026-05-03T10:41:37.717Z</time></trkpt><trkpt lat="43.3111825" lon="11.3117393"><ele>239.25</ele><time>2026-05-03T10:41:38.716Z</time></trkpt><trkpt lat="43.3112512" lon="11.3119226"><ele>239.0</ele><time>2026-05-03T10:41:39.724Z</time></trkpt><trkpt lat="43.3112909" lon="11.3121218"><ele>240.66666666666669</ele><time>2026-05-03T10:41:40.715Z</time></trkpt><trkpt lat="43.3113064" lon="11.312346"><ele>242.33333333333331</ele><time>2026-05-03T10:41:41.713Z</time></trkpt><trkpt lat="43.3113071" lon="11.3125588"><ele>244.0</ele><time>2026-05-03T10:41:42.708Z</time></trkpt><trkpt lat="43.3113059" lon="11.3127464"><ele>244.0</ele><time>2026-05-03T10:41:43.721Z</time></trkpt><trkpt lat="43.3113053" lon="11.3129189"><ele>244.0</ele><time>2026-05-03T10:41:44.711Z</time></trkpt><trkpt lat="43.3113109" lon="11.3130877"><ele>244.0</ele><time>2026-05-03T10:41:45.724Z</time></trkpt><trkpt lat="43.3113211" lon="11.3132494"><ele>244.0</ele><time>2026-05-03T10:41:46.733Z</time></trkpt><trkpt lat="43.311325" lon="11.3134099"><ele>245.0</ele><time>2026-05-03T10:41:47.738Z</time></trkpt><trkpt lat="43.3113091" lon="11.3135736"><ele>246.0</ele><time>2026-05-03T10:41:48.714Z</time></trkpt><trkpt lat="43.3112625" lon="11.3137388"><ele>247.0</ele><time>2026-05-03T10:41:49.709Z</time></trkpt><trkpt lat="43.3111878" lon="11.3139015"><ele>248.0</ele><time>2026-05-03T10:41:50.73Z</time></trkpt><trkpt lat="43.3111031" lon="11.3140534"><ele>249.25</ele><time>2026-05-03T10:41:51.711Z</time></trkpt><trkpt lat="43.311016" lon="11.3142145"><ele>250.5</ele><time>2026-05-03T10:41:52.717Z</time></trkpt><trkpt lat="43.3109289" lon="11.3143788"><ele>251.75</ele><time>2026-05-03T10:41:53.721Z</time></trkpt><trkpt lat="43.3108546" lon="11.3145444"><ele>253.0</ele><time>2026-05-03T10:41:54.711Z</time></trkpt><trkpt lat="43.3107866" lon="11.3147011"><ele>253.75</ele><time>2026-05-03T10:41:55.72Z</time></trkpt><trkpt lat="43.3107278" lon="11.3148544"><ele>254.5</ele><time>2026-05-03T10:41:56.708Z</time></trkpt><trkpt lat="43.3106752" lon="11.3150073"><ele>255.25</ele><time>2026-05-03T10:41:57.719Z</time></trkpt><trkpt lat="43.3106231" lon="11.3151589"><ele>256.0</ele><time>2026-05-03T10:41:58.711Z</time></trkpt><trkpt lat="43.3105725" lon="11.3153007"><ele>253.0</ele><time>2026-05-03T10:41:59.718Z</time></trkpt><trkpt lat="43.3105203" lon="11.3154434"><ele>250.0</ele><time>2026-05-03T10:42:00.716Z</time></trkpt><trkpt lat="43.3104765" lon="11.3156007"><ele>247.0</ele><time>2026-05-03T10:42:01.725Z</time></trkpt><trkpt lat="43.3104537" lon="11.3157674"><ele>244.0</ele><time>2026-05-03T10:42:02.707Z</time></trkpt><trkpt lat="43.3104449" lon="11.3159251"><ele>243.6</ele><time>2026-05-03T10:42:03.717Z</time></trkpt><trkpt lat="43.3104348" lon="11.316068"><ele>243.2</ele><time>2026-05-03T10:42:04.714Z</time></trkpt><trkpt lat="43.3104277" lon="11.3162066"><ele>242.79999999999998</ele><time>2026-05-03T10:42:05.721Z</time></trkpt><trkpt lat="43.3104206" lon="11.3163429"><ele>242.39999999999998</ele><time>2026-05-03T10:42:06.711Z</time></trkpt><trkpt lat="43.3104071" lon="11.3164728"><ele>242.0</ele><time>2026-05-03T10:42:07.733Z</time></trkpt><trkpt lat="43.3103789" lon="11.3165801"><ele>241.50000000000003</ele><time>2026-05-03T10:42:08.704Z</time></trkpt><trkpt lat="43.310334" lon="11.316645"><ele>241.0</ele><time>2026-05-03T10:42:09.725Z</time></trkpt><trkpt lat="43.3102721" lon="11.3166805"><ele>240.5</ele><time>2026-05-03T10:42:10.71Z</time></trkpt><trkpt lat="43.3101968" lon="11.3166604"><ele>240.0</ele><time>2026-05-03T10:42:11.717Z</time></trkpt><trkpt lat="43.3101141" lon="11.3166171"><ele>239.50000000000003</ele><time>2026-05-03T10:42:12.712Z</time></trkpt><trkpt lat="43.3100308" lon="11.3165749"><ele>239.0</ele><time>2026-05-03T10:42:13.723Z</time></trkpt><trkpt lat="43.3099444" lon="11.3165287"><ele>239.0</ele><time>2026-05-03T10:42:14.705Z</time></trkpt><trkpt lat="43.3098645" lon="11.3164822"><ele>238.99999999999997</ele><time>2026-05-03T10:42:15.706Z</time></trkpt><trkpt lat="43.309795" lon="11.31642"><ele>238.99999999999997</ele><time>2026-05-03T10:42:16.706Z</time></trkpt><trkpt lat="43.3097266" lon="11.3163588"><ele>239.0</ele><time>2026-05-03T10:42:17.719Z</time></trkpt><trkpt lat="43.3096492" lon="11.3162861"><ele>239.0</ele><time>2026-05-03T10:42:18.714Z</time></trkpt><trkpt lat="43.3095618" lon="11.3162041"><ele>239.0</ele><time>2026-05-03T10:42:19.723Z</time></trkpt><trkpt lat="43.3094697" lon="11.3160997"><ele>239.0</ele><time>2026-05-03T10:42:20.717Z</time></trkpt><trkpt lat="43.3093775" lon="11.3159719"><ele>239.0</ele><time>2026-05-03T10:42:21.712Z</time></trkpt><trkpt lat="43.3092864" lon="11.3158298"><ele>239.0</ele><time>2026-05-03T10:42:22.723Z</time></trkpt><trkpt lat="43.3092108" lon="11.3156744"><ele>238.75</ele><time>2026-05-03T10:42:23.716Z</time></trkpt><trkpt lat="43.3091617" lon="11.3155164"><ele>238.5</ele><time>2026-05-03T10:42:24.709Z</time></trkpt><trkpt lat="43.3091302" lon="11.3153466"><ele>238.25</ele><time>2026-05-03T10:42:25.72Z</time></trkpt><trkpt lat="43.3090981" lon="11.3151779"><ele>238.0</ele><time>2026-05-03T10:42:26.722Z</time></trkpt><trkpt lat="43.3090516" lon="11.3150107"><ele>238.0</ele><time>2026-05-03T10:42:27.729Z</time></trkpt><trkpt lat="43.3089961" lon="11.3148397"><ele>238.0</ele><time>2026-05-03T10:42:28.711Z</time></trkpt><trkpt lat="43.3089281" lon="11.3146774"><ele>238.0</ele><time>2026-05-03T10:42:29.714Z</time></trkpt><trkpt lat="43.308844" lon="11.3145226"><ele>238.0</ele><time>2026-05-03T10:42:30.722Z</time></trkpt><trkpt lat="43.3087531" lon="11.3143764"><ele>237.0</ele><time>2026-05-03T10:42:31.719Z</time></trkpt><trkpt lat="43.3086483" lon="11.3142483"><ele>236.0</ele><time>2026-05-03T10:42:32.717Z</time></trkpt><trkpt lat="43.3085407" lon="11.3141247"><ele>235.0</ele><time>2026-05-03T10:42:33.728Z</time></trkpt><trkpt lat="43.3084347" lon="11.3140102"><ele>234.0</ele><time>2026-05-03T10:42:34.718Z</time></trkpt><trkpt lat="43.308329" lon="11.3138942"><ele>236.0</ele><time>2026-05-03T10:42:35.721Z</time></trkpt><trkpt lat="43.3082232" lon="11.3137822"><ele>238.0</ele><time>2026-05-03T10:42:36.728Z</time></trkpt><trkpt lat="43.3081224" lon="11.3136734"><ele>240.0</ele><time>2026-05-03T10:42:37.725Z</time></trkpt><trkpt lat="43.3080241" lon="11.3135709"><ele>242.0</ele><time>2026-05-03T10:42:38.725Z</time></trkpt><trkpt lat="43.3079223" lon="11.3134855"><ele>243.0</ele><time>2026-05-03T10:42:39.73Z</time></trkpt><trkpt lat="43.3078106" lon="11.313423"><ele>244.0</ele><time>2026-05-03T10:42:40.718Z</time></trkpt><trkpt lat="43.3076888" lon="11.3133964"><ele>245.0</ele><time>2026-05-03T10:42:41.727Z</time></trkpt><trkpt lat="43.3075678" lon="11.3134132"><ele>246.0</ele><time>2026-05-03T10:42:42.708Z</time></trkpt><trkpt lat="43.307461" lon="11.313467"><ele>246.0</ele><time>2026-05-03T10:42:43.722Z</time></trkpt><trkpt lat="43.3073654" lon="11.3135567"><ele>246.0</ele><time>2026-05-03T10:42:44.717Z</time></trkpt><trkpt lat="43.3072794" lon="11.313678"><ele>246.0</ele><time>2026-05-03T10:42:45.718Z</time></trkpt><trkpt lat="43.3072066" lon="11.3138034"><ele>246.0</ele><time>2026-05-03T10:42:46.721Z</time></trkpt><trkpt lat="43.3071495" lon="11.3139128"><ele>245.83333333333334</ele><time>2026-05-03T10:42:47.735Z</time></trkpt><trkpt lat="43.3071179" lon="11.3140178"><ele>245.66666666666669</ele><time>2026-05-03T10:42:48.721Z</time></trkpt><trkpt lat="43.3071239" lon="11.3141284"><ele>245.5</ele><time>2026-05-03T10:42:49.719Z</time></trkpt><trkpt lat="43.3071612" lon="11.3142129"><ele>245.33333333333334</ele><time>2026-05-03T10:42:50.73Z</time></trkpt><trkpt lat="43.3072203" lon="11.3142893"><ele>245.16666666666669</ele><time>2026-05-03T10:42:51.731Z</time></trkpt><trkpt lat="43.3072884" lon="11.3143855"><ele>245.0</ele><time>2026-05-03T10:42:52.723Z</time></trkpt><trkpt lat="43.3073383" lon="11.3145022"><ele>242.5</ele><time>2026-05-03T10:42:53.715Z</time></trkpt><trkpt lat="43.3073283" lon="11.3146566"><ele>240.0</ele><time>2026-05-03T10:42:54.714Z</time></trkpt><trkpt lat="43.3072789" lon="11.3148128"><ele>237.5</ele><time>2026-05-03T10:42:55.72Z</time></trkpt><trkpt lat="43.3071988" lon="11.3149673"><ele>235.0</ele><time>2026-05-03T10:42:56.724Z</time></trkpt><trkpt lat="43.3070863" lon="11.3151075"><ele>235.0</ele><time>2026-05-03T10:42:57.735Z</time></trkpt><trkpt lat="43.3069573" lon="11.3152436"><ele>235.0</ele><time>2026-05-03T10:42:58.727Z</time></trkpt><trkpt lat="43.3068273" lon="11.3153879"><ele>235.0</ele><time>2026-05-03T10:42:59.725Z</time></trkpt><trkpt lat="43.3067052" lon="11.3155378"><ele>234.33333333333331</ele><time>2026-05-03T10:43:00.718Z</time></trkpt><trkpt lat="43.3065842" lon="11.3156973"><ele>233.66666666666669</ele><time>2026-05-03T10:43:01.71Z</time></trkpt><trkpt lat="43.3064573" lon="11.3158619"><ele>233.0</ele><time>2026-05-03T10:43:02.727Z</time></trkpt><trkpt lat="43.3063273" lon="11.3160371"><ele>233.33333333333334</ele><time>2026-05-03T10:43:03.727Z</time></trkpt><trkpt lat="43.3061918" lon="11.3162221"><ele>233.66666666666669</ele><time>2026-05-03T10:43:04.723Z</time></trkpt><trkpt lat="43.3060513" lon="11.3164207"><ele>234.0</ele><time>2026-05-03T10:43:05.718Z</time></trkpt><trkpt lat="43.3059076" lon="11.3166214"><ele>234.0</ele><time>2026-05-03T10:43:06.712Z</time></trkpt><trkpt lat="43.3057594" lon="11.3168293"><ele>234.0</ele><time>2026-05-03T10:43:07.726Z</time></trkpt><trkpt lat="43.3056168" lon="11.3170521"><ele>234.0</ele><time>2026-05-03T10:43:08.714Z</time></trkpt><trkpt lat="43.3054645" lon="11.3172856"><ele>231.66666666666669</ele><time>2026-05-03T10:43:09.723Z</time></trkpt><trkpt lat="43.3053182" lon="11.3175128"><ele>229.33333333333334</ele><time>2026-05-03T10:43:10.72Z</time></trkpt><trkpt lat="43.3051735" lon="11.3177207"><ele>227.0</ele><time>2026-05-03T10:43:11.719Z</time></trkpt><trkpt lat="43.305041" lon="11.3179171"><ele>226.33333333333334</ele><time>2026-05-03T10:43:12.727Z</time></trkpt><trkpt lat="43.3049128" lon="11.3181114"><ele>225.66666666666669</ele><time>2026-05-03T10:43:13.72Z</time></trkpt><trkpt lat="43.3047846" lon="11.3183196"><ele>225.0</ele><time>2026-05-03T10:43:14.733Z</time></trkpt><trkpt lat="43.3046441" lon="11.3185478"><ele>226.0</ele><time>2026-05-03T10:43:15.731Z</time></trkpt><trkpt lat="43.3044914" lon="11.3187966"><ele>227.0</ele><time>2026-05-03T10:43:16.708Z</time></trkpt><trkpt lat="43.3043306" lon="11.319056"><ele>227.0</ele><time>2026-05-03T10:43:17.723Z</time></trkpt><trkpt lat="43.3041628" lon="11.319311"><ele>227.0</ele><time>2026-05-03T10:43:18.724Z</time></trkpt><trkpt lat="43.303991" lon="11.3195701"><ele>230.0</ele><time>2026-05-03T10:43:19.732Z</time></trkpt><trkpt lat="43.3038158" lon="11.319831"><ele>233.0</ele><time>2026-05-03T10:43:20.717Z</time></trkpt><trkpt lat="43.3036399" lon="11.3200865"><ele>233.0</ele><time>2026-05-03T10:43:21.738Z</time></trkpt><trkpt lat="43.3034641" lon="11.3203324"><ele>233.0</ele><time>2026-05-03T10:43:22.728Z</time></trkpt><trkpt lat="43.3032949" lon="11.3205729"><ele>229.5</ele><time>2026-05-03T10:43:23.731Z</time></trkpt><trkpt lat="43.3031266" lon="11.3208168"><ele>226.0</ele><time>2026-05-03T10:43:24.729Z</time></trkpt><trkpt lat="43.3029574" lon="11.3210654"><ele>227.0</ele><time>2026-05-03T10:43:25.725Z</time></trkpt><trkpt lat="43.3027863" lon="11.3213237"><ele>228.0</ele><time>2026-05-03T10:43:26.715Z</time></trkpt><trkpt lat="43.3026043" lon="11.321612"><ele>228.0</ele><time>2026-05-03T10:43:27.723Z</time></trkpt><trkpt lat="43.3024135" lon="11.3219262"><ele>228.0</ele><time>2026-05-03T10:43:28.725Z</time></trkpt><trkpt lat="43.3022111" lon="11.3222611"><ele>227.5</ele><time>2026-05-03T10:43:29.725Z</time></trkpt><trkpt lat="43.3019923" lon="11.3225961"><ele>227.0</ele><time>2026-05-03T10:43:30.713Z</time></trkpt><trkpt lat="43.3017719" lon="11.3229164"><ele>227.0</ele><time>2026-05-03T10:43:31.73Z</time></trkpt><trkpt lat="43.3015581" lon="11.3232282"><ele>227.0</ele><time>2026-05-03T10:43:32.721Z</time></trkpt><trkpt lat="43.3013463" lon="11.3235363"><ele>227.0</ele><time>2026-05-03T10:43:33.711Z</time></trkpt><trkpt lat="43.3011476" lon="11.3238524"><ele>227.0</ele><time>2026-05-03T10:43:34.715Z</time></trkpt><trkpt lat="43.3009589" lon="11.3241665"><ele>225.5</ele><time>2026-05-03T10:43:35.724Z</time></trkpt><trkpt lat="43.3007784" lon="11.3244777"><ele>224.0</ele><time>2026-05-03T10:43:36.712Z</time></trkpt><trkpt lat="43.3006087" lon="11.3247742"><ele>223.0</ele><time>2026-05-03T10:43:37.721Z</time></trkpt><trkpt lat="43.3004409" lon="11.3250691"><ele>222.0</ele><time>2026-05-03T10:43:38.722Z</time></trkpt><trkpt lat="43.3002747" lon="11.3253611"><ele>221.5</ele><time>2026-05-03T10:43:39.723Z</time></trkpt><trkpt lat="43.300115" lon="11.3256509"><ele>221.0</ele><time>2026-05-03T10:43:40.736Z</time></trkpt><trkpt lat="43.2999649" lon="11.325943"><ele>221.0</ele><time>2026-05-03T10:43:41.714Z</time></trkpt><trkpt lat="43.2998057" lon="11.3262356"><ele>221.0</ele><time>2026-05-03T10:43:42.721Z</time></trkpt><trkpt lat="43.2996389" lon="11.3265242"><ele>220.0</ele><time>2026-05-03T10:43:43.721Z</time></trkpt><trkpt lat="43.2994732" lon="11.3268109"><ele>219.0</ele><time>2026-05-03T10:43:44.723Z</time></trkpt><trkpt lat="43.2993086" lon="11.3271032"><ele>217.5</ele><time>2026-05-03T10:43:45.725Z</time></trkpt><trkpt lat="43.2991556" lon="11.3273862"><ele>216.0</ele><time>2026-05-03T10:43:46.72Z</time></trkpt><trkpt lat="43.2990164" lon="11.3276494"><ele>216.5</ele><time>2026-05-03T10:43:47.731Z</time></trkpt><trkpt lat="43.2988716" lon="11.3279101"><ele>217.0</ele><time>2026-05-03T10:43:48.725Z</time></trkpt><trkpt lat="43.2987229" lon="11.3281754"><ele>217.5</ele><time>2026-05-03T10:43:49.724Z</time></trkpt><trkpt lat="43.2985729" lon="11.3284435"><ele>218.0</ele><time>2026-05-03T10:43:50.73Z</time></trkpt><trkpt lat="43.2984218" lon="11.3287186"><ele>219.5</ele><time>2026-05-03T10:43:51.726Z</time></trkpt><trkpt lat="43.2982669" lon="11.3289927"><ele>221.0</ele><time>2026-05-03T10:43:52.714Z</time></trkpt><trkpt lat="43.2981111" lon="11.3292718"><ele>218.0</ele><time>2026-05-03T10:43:53.716Z</time></trkpt><trkpt lat="43.2979524" lon="11.329553"><ele>215.0</ele><time>2026-05-03T10:43:54.716Z</time></trkpt><trkpt lat="43.2977897" lon="11.3298344"><ele>215.0</ele><time>2026-05-03T10:43:55.714Z</time></trkpt><trkpt lat="43.297623" lon="11.3301126"><ele>215.0</ele><time>2026-05-03T10:43:56.715Z</time></trkpt><trkpt lat="43.2974565" lon="11.3303865"><ele>214.5</ele><time>2026-05-03T10:43:57.723Z</time></trkpt><trkpt lat="43.2972956" lon="11.3306679"><ele>214.0</ele><time>2026-05-03T10:43:58.715Z</time></trkpt><trkpt lat="43.297135" lon="11.3309506"><ele>214.0</ele><time>2026-05-03T10:43:59.721Z</time></trkpt><trkpt lat="43.2969691" lon="11.331234"><ele>214.0</ele><time>2026-05-03T10:44:00.726Z</time></trkpt><trkpt lat="43.2968044" lon="11.3315209"><ele>215.0</ele><time>2026-05-03T10:44:01.731Z</time></trkpt><trkpt lat="43.2966459" lon="11.3318049"><ele>216.0</ele><time>2026-05-03T10:44:02.718Z</time></trkpt><trkpt lat="43.2964879" lon="11.3320868"><ele>214.0</ele><time>2026-05-03T10:44:03.727Z</time></trkpt><trkpt lat="43.2963334" lon="11.3323717"><ele>212.0</ele><time>2026-05-03T10:44:04.721Z</time></trkpt><trkpt lat="43.2961813" lon="11.3326538"><ele>212.0</ele><time>2026-05-03T10:44:05.731Z</time></trkpt><trkpt lat="43.296026" lon="11.3329368"><ele>212.0</ele><time>2026-05-03T10:44:06.724Z</time></trkpt><trkpt lat="43.2958782" lon="11.3332129"><ele>212.0</ele><time>2026-05-03T10:44:07.72Z</time></trkpt><trkpt lat="43.2957344" lon="11.3334713"><ele>212.0</ele><time>2026-05-03T10:44:08.726Z</time></trkpt><trkpt lat="43.2955988" lon="11.3337101"><ele>211.66666666666669</ele><time>2026-05-03T10:44:09.726Z</time></trkpt><trkpt lat="43.2954695" lon="11.3339358"><ele>211.33333333333331</ele><time>2026-05-03T10:44:10.715Z</time></trkpt><trkpt lat="43.2953443" lon="11.3341519"><ele>211.0</ele><time>2026-05-03T10:44:11.72Z</time></trkpt><trkpt lat="43.2952162" lon="11.3343576"><ele>211.0</ele><time>2026-05-03T10:44:12.727Z</time></trkpt><trkpt lat="43.2950787" lon="11.3345512"><ele>211.0</ele><time>2026-05-03T10:44:13.722Z</time></trkpt><trkpt lat="43.2949297" lon="11.3347301"><ele>211.0</ele><time>2026-05-03T10:44:14.727Z</time></trkpt><trkpt lat="43.2947794" lon="11.3348897"><ele>211.33333333333331</ele><time>2026-05-03T10:44:15.723Z</time></trkpt><trkpt lat="43.2946262" lon="11.335032"><ele>211.66666666666669</ele><time>2026-05-03T10:44:16.712Z</time></trkpt><trkpt lat="43.2944619" lon="11.3351581"><ele>212.0</ele><time>2026-05-03T10:44:17.708Z</time></trkpt><trkpt lat="43.2942846" lon="11.3352746"><ele>212.0</ele><time>2026-05-03T10:44:18.709Z</time></trkpt><trkpt lat="43.2940916" lon="11.3353823"><ele>212.0</ele><time>2026-05-03T10:44:19.718Z</time></trkpt><trkpt lat="43.2938836" lon="11.3354728"><ele>212.0</ele><time>2026-05-03T10:44:20.723Z</time></trkpt><trkpt lat="43.2936603" lon="11.3355535"><ele>213.0</ele><time>2026-05-03T10:44:21.729Z</time></trkpt><trkpt lat="43.2934378" lon="11.3356163"><ele>214.0</ele><time>2026-05-03T10:44:22.709Z</time></trkpt><trkpt lat="43.293213" lon="11.3356631"><ele>212.5</ele><time>2026-05-03T10:44:23.729Z</time></trkpt><trkpt lat="43.2929856" lon="11.3356948"><ele>211.0</ele><time>2026-05-03T10:44:24.714Z</time></trkpt><trkpt lat="43.2927594" lon="11.335709"><ele>211.0</ele><time>2026-05-03T10:44:25.717Z</time></trkpt><trkpt lat="43.292527" lon="11.3356864"><ele>211.0</ele><time>2026-05-03T10:44:26.728Z</time></trkpt><trkpt lat="43.2922991" lon="11.3356159"><ele>213.0</ele><time>2026-05-03T10:44:27.725Z</time></trkpt><trkpt lat="43.2920918" lon="11.335512"><ele>215.0</ele><time>2026-05-03T10:44:28.718Z</time></trkpt><trkpt lat="43.2918986" lon="11.3353963"><ele>217.0</ele><time>2026-05-03T10:44:29.712Z</time></trkpt><trkpt lat="43.2917177" lon="11.3352825"><ele>217.0</ele><time>2026-05-03T10:44:30.721Z</time></trkpt><trkpt lat="43.2915459" lon="11.3351885"><ele>217.0</ele><time>2026-05-03T10:44:31.725Z</time></trkpt><trkpt lat="43.2913812" lon="11.3351276"><ele>217.0</ele><time>2026-05-03T10:44:32.713Z</time></trkpt><trkpt lat="43.2912153" lon="11.3351133"><ele>215.66666666666666</ele><time>2026-05-03T10:44:33.732Z</time></trkpt><trkpt lat="43.2910541" lon="11.335151"><ele>214.33333333333331</ele><time>2026-05-03T10:44:34.716Z</time></trkpt><trkpt lat="43.2909069" lon="11.3352342"><ele>213.0</ele><time>2026-05-03T10:44:35.738Z</time></trkpt><trkpt lat="43.2907893" lon="11.3353528"><ele>213.0</ele><time>2026-05-03T10:44:36.718Z</time></trkpt><trkpt lat="43.2907044" lon="11.3355142"><ele>213.0</ele><time>2026-05-03T10:44:37.715Z</time></trkpt><trkpt lat="43.2906544" lon="11.3357069"><ele>213.0</ele><time>2026-05-03T10:44:38.72Z</time></trkpt><trkpt lat="43.2906235" lon="11.335886"><ele>213.0</ele><time>2026-05-03T10:44:39.712Z</time></trkpt><trkpt lat="43.2906049" lon="11.3360546"><ele>211.5</ele><time>2026-05-03T10:44:40.73Z</time></trkpt><trkpt lat="43.2906111" lon="11.3362103"><ele>210.0</ele><time>2026-05-03T10:44:41.715Z</time></trkpt><trkpt lat="43.2906596" lon="11.3363417"><ele>208.5</ele><time>2026-05-03T10:44:42.719Z</time></trkpt><trkpt lat="43.290739" lon="11.3364643"><ele>207.0</ele><time>2026-05-03T10:44:43.723Z</time></trkpt><trkpt lat="43.2908369" lon="11.3365656"><ele>207.0</ele><time>2026-05-03T10:44:44.72Z</time></trkpt><trkpt lat="43.2909527" lon="11.3366401"><ele>207.0</ele><time>2026-05-03T10:44:45.732Z</time></trkpt><trkpt lat="43.2910799" lon="11.3366863"><ele>207.0</ele><time>2026-05-03T10:44:46.732Z</time></trkpt><trkpt lat="43.2912084" lon="11.3366952"><ele>207.0</ele><time>2026-05-03T10:44:47.725Z</time></trkpt><trkpt lat="43.2913363" lon="11.336671"><ele>207.25</ele><time>2026-05-03T10:44:48.722Z</time></trkpt><trkpt lat="43.2914686" lon="11.3366351"><ele>207.5</ele><time>2026-05-03T10:44:49.726Z</time></trkpt><trkpt lat="43.2915987" lon="11.3365895"><ele>207.75</ele><time>2026-05-03T10:44:50.718Z</time></trkpt><trkpt lat="43.2917347" lon="11.3365406"><ele>208.0</ele><time>2026-05-03T10:44:51.724Z</time></trkpt><trkpt lat="43.2918697" lon="11.3364891"><ele>208.0</ele><time>2026-05-03T10:44:52.707Z</time></trkpt><trkpt lat="43.2920074" lon="11.3364383"><ele>208.0</ele><time>2026-05-03T10:44:53.812Z</time></trkpt><trkpt lat="43.2921501" lon="11.336389"><ele>208.0</ele><time>2026-05-03T10:44:54.726Z</time></trkpt><trkpt lat="43.2922994" lon="11.3363416"><ele>208.0</ele><time>2026-05-03T10:44:55.751Z</time></trkpt><trkpt lat="43.2924507" lon="11.3363004"><ele>209.0</ele><time>2026-05-03T10:44:56.713Z</time></trkpt><trkpt lat="43.292601" lon="11.3362645"><ele>210.0</ele><time>2026-05-03T10:44:57.739Z</time></trkpt><trkpt lat="43.2927455" lon="11.3362286"><ele>211.0</ele><time>2026-05-03T10:44:58.725Z</time></trkpt><trkpt lat="43.2928946" lon="11.3361922"><ele>211.0</ele><time>2026-05-03T10:44:59.709Z</time></trkpt><trkpt lat="43.293047" lon="11.3361557"><ele>211.0</ele><time>2026-05-03T10:45:00.719Z</time></trkpt><trkpt lat="43.2932051" lon="11.3361169"><ele>211.0</ele><time>2026-05-03T10:45:01.733Z</time></trkpt><trkpt lat="43.293368" lon="11.3360754"><ele>212.0</ele><time>2026-05-03T10:45:02.709Z</time></trkpt><trkpt lat="43.293534" lon="11.3360274"><ele>213.0</ele><time>2026-05-03T10:45:03.729Z</time></trkpt><trkpt lat="43.2937004" lon="11.3359792"><ele>214.0</ele><time>2026-05-03T10:45:04.735Z</time></trkpt><trkpt lat="43.2938637" lon="11.3359397"><ele>212.66666666666666</ele><time>2026-05-03T10:45:05.724Z</time></trkpt><trkpt lat="43.2940239" lon="11.335917"><ele>211.33333333333331</ele><time>2026-05-03T10:45:06.717Z</time></trkpt><trkpt lat="43.2941799" lon="11.335905"><ele>210.0</ele><time>2026-05-03T10:45:07.729Z</time></trkpt><trkpt lat="43.294334" lon="11.3359085"><ele>210.0</ele><time>2026-05-03T10:45:08.728Z</time></trkpt><trkpt lat="43.2944884" lon="11.33592"><ele>210.0</ele><time>2026-05-03T10:45:09.722Z</time></trkpt><trkpt lat="43.2946436" lon="11.3359411"><ele>210.0</ele><time>2026-05-03T10:45:10.715Z</time></trkpt><trkpt lat="43.2948033" lon="11.3359763"><ele>210.66666666666669</ele><time>2026-05-03T10:45:11.725Z</time></trkpt><trkpt lat="43.2949616" lon="11.3360284"><ele>211.33333333333334</ele><time>2026-05-03T10:45:12.719Z</time></trkpt><trkpt lat="43.2951168" lon="11.3360908"><ele>212.0</ele><time>2026-05-03T10:45:13.703Z</time></trkpt><trkpt lat="43.2952752" lon="11.3361694"><ele>212.0</ele><time>2026-05-03T10:45:14.724Z</time></trkpt><trkpt lat="43.2954358" lon="11.3362654"><ele>212.0</ele><time>2026-05-03T10:45:15.727Z</time></trkpt><trkpt lat="43.2955943" lon="11.3363788"><ele>212.0</ele><time>2026-05-03T10:45:16.724Z</time></trkpt><trkpt lat="43.2957486" lon="11.3365031"><ele>213.66666666666669</ele><time>2026-05-03T10:45:17.721Z</time></trkpt><trkpt lat="43.2958991" lon="11.3366401"><ele>215.33333333333331</ele><time>2026-05-03T10:45:18.717Z</time></trkpt><trkpt lat="43.296046" lon="11.3367864"><ele>217.0</ele><time>2026-05-03T10:45:19.73Z</time></trkpt><trkpt lat="43.2961906" lon="11.3369424"><ele>217.0</ele><time>2026-05-03T10:45:20.727Z</time></trkpt><trkpt lat="43.2963348" lon="11.3370965"><ele>217.0</ele><time>2026-05-03T10:45:21.735Z</time></trkpt><trkpt lat="43.2964749" lon="11.3372473"><ele>217.0</ele><time>2026-05-03T10:45:22.742Z</time></trkpt><trkpt lat="43.2966017" lon="11.3373948"><ele>220.0</ele><time>2026-05-03T10:45:23.733Z</time></trkpt><trkpt lat="43.2967144" lon="11.3375439"><ele>223.0</ele><time>2026-05-03T10:45:24.726Z</time></trkpt><trkpt lat="43.2968182" lon="11.3376969"><ele>226.0</ele><time>2026-05-03T10:45:25.723Z</time></trkpt><trkpt lat="43.296917" lon="11.3378592"><ele>226.0</ele><time>2026-05-03T10:45:26.721Z</time></trkpt><trkpt lat="43.2970067" lon="11.338034"><ele>226.0</ele><time>2026-05-03T10:45:27.725Z</time></trkpt><trkpt lat="43.2970927" lon="11.3382118"><ele>226.0</ele><time>2026-05-03T10:45:28.714Z</time></trkpt><trkpt lat="43.2978332" lon="11.3399013"><ele>227.66666666666666</ele><time>2026-05-03T10:45:38.718Z</time></trkpt><trkpt lat="43.2979197" lon="11.3401084"><ele>229.33333333333331</ele><time>2026-05-03T10:45:39.707Z</time></trkpt><trkpt lat="43.297974" lon="11.3402853"><ele>231.0</ele><time>2026-05-03T10:45:40.701Z</time></trkpt><trkpt lat="43.2980379" lon="11.3404663"><ele>229.75</ele><time>2026-05-03T10:45:41.717Z</time></trkpt><trkpt lat="43.2980911" lon="11.3406354"><ele>228.5</ele><time>2026-05-03T10:45:42.716Z</time></trkpt><trkpt lat="43.2981508" lon="11.3408151"><ele>227.25</ele><time>2026-05-03T10:45:43.711Z</time></trkpt><trkpt lat="43.2982141" lon="11.3409924"><ele>226.0</ele><time>2026-05-03T10:45:44.717Z</time></trkpt><trkpt lat="43.2982739" lon="11.3411853"><ele>225.33333333333331</ele><time>2026-05-03T10:45:45.729Z</time></trkpt><trkpt lat="43.2983382" lon="11.3413866"><ele>224.66666666666669</ele><time>2026-05-03T10:45:46.711Z</time></trkpt><trkpt lat="43.2984059" lon="11.3415938"><ele>224.0</ele><time>2026-05-03T10:45:47.715Z</time></trkpt><trkpt lat="43.2984739" lon="11.3418064"><ele>224.0</ele><time>2026-05-03T10:45:48.721Z</time></trkpt><trkpt lat="43.2985445" lon="11.3420226"><ele>224.0</ele><time>2026-05-03T10:45:49.716Z</time></trkpt><trkpt lat="43.2986118" lon="11.3422413"><ele>224.0</ele><time>2026-05-03T10:45:50.721Z</time></trkpt><trkpt lat="43.2986765" lon="11.342463"><ele>221.66666666666669</ele><time>2026-05-03T10:45:51.729Z</time></trkpt><trkpt lat="43.2987386" lon="11.3426831"><ele>219.33333333333331</ele><time>2026-05-03T10:45:52.713Z</time></trkpt><trkpt lat="43.2987924" lon="11.3428991"><ele>217.0</ele><time>2026-05-03T10:45:53.725Z</time></trkpt><trkpt lat="43.2988432" lon="11.3431103"><ele>217.66666666666666</ele><time>2026-05-03T10:45:54.715Z</time></trkpt><trkpt lat="43.2988922" lon="11.3433237"><ele>218.33333333333331</ele><time>2026-05-03T10:45:55.716Z</time></trkpt><trkpt lat="43.2989361" lon="11.3435442"><ele>219.0</ele><time>2026-05-03T10:45:56.714Z</time></trkpt><trkpt lat="43.2989791" lon="11.3437632"><ele>216.33333333333331</ele><time>2026-05-03T10:45:57.715Z</time></trkpt><trkpt lat="43.2990164" lon="11.3439808"><ele>213.66666666666666</ele><time>2026-05-03T10:45:58.707Z</time></trkpt><trkpt lat="43.2990547" lon="11.344208"><ele>211.0</ele><time>2026-05-03T10:45:59.726Z</time></trkpt><trkpt lat="43.2990928" lon="11.3444356"><ele>211.0</ele><time>2026-05-03T10:46:00.714Z</time></trkpt><trkpt lat="43.2991318" lon="11.3446646"><ele>211.0</ele><time>2026-05-03T10:46:01.726Z</time></trkpt><trkpt lat="43.2991688" lon="11.3448935"><ele>211.0</ele><time>2026-05-03T10:46:02.73Z</time></trkpt><trkpt lat="43.2992029" lon="11.3451224"><ele>211.0</ele><time>2026-05-03T10:46:03.725Z</time></trkpt><trkpt lat="43.2992361" lon="11.3453504"><ele>211.0</ele><time>2026-05-03T10:46:04.726Z</time></trkpt><trkpt lat="43.2992728" lon="11.345585"><ele>211.0</ele><time>2026-05-03T10:46:05.725Z</time></trkpt><trkpt lat="43.2993083" lon="11.3458215"><ele>210.66666666666666</ele><time>2026-05-03T10:46:06.708Z</time></trkpt><trkpt lat="43.2993454" lon="11.3460506"><ele>210.33333333333331</ele><time>2026-05-03T10:46:07.718Z</time></trkpt><trkpt lat="43.2993775" lon="11.3462745"><ele>210.0</ele><time>2026-05-03T10:46:08.718Z</time></trkpt><trkpt lat="43.2994102" lon="11.3464968"><ele>208.33333333333331</ele><time>2026-05-03T10:46:09.728Z</time></trkpt><trkpt lat="43.2994464" lon="11.3467217"><ele>206.66666666666666</ele><time>2026-05-03T10:46:10.727Z</time></trkpt><trkpt lat="43.299483" lon="11.3469504"><ele>205.0</ele><time>2026-05-03T10:46:11.735Z</time></trkpt><trkpt lat="43.2995196" lon="11.3471794"><ele>205.0</ele><time>2026-05-03T10:46:12.718Z</time></trkpt><trkpt lat="43.299555" lon="11.3474092"><ele>205.0</ele><time>2026-05-03T10:46:13.738Z</time></trkpt><trkpt lat="43.2995881" lon="11.347627"><ele>205.0</ele><time>2026-05-03T10:46:14.724Z</time></trkpt><trkpt lat="43.2996189" lon="11.347842"><ele>204.0</ele><time>2026-05-03T10:46:15.722Z</time></trkpt><trkpt lat="43.2996534" lon="11.3480564"><ele>203.0</ele><time>2026-05-03T10:46:16.726Z</time></trkpt><trkpt lat="43.2996858" lon="11.3482745"><ele>202.0</ele><time>2026-05-03T10:46:17.729Z</time></trkpt><trkpt lat="43.2997208" lon="11.3484914"><ele>205.0</ele><time>2026-05-03T10:46:18.729Z</time></trkpt><trkpt lat="43.2997543" lon="11.3487091"><ele>208.0</ele><time>2026-05-03T10:46:19.726Z</time></trkpt><trkpt lat="43.2997862" lon="11.348927"><ele>211.0</ele><time>2026-05-03T10:46:20.726Z</time></trkpt><trkpt lat="43.2998195" lon="11.349135"><ele>211.0</ele><time>2026-05-03T10:46:21.732Z</time></trkpt><trkpt lat="43.2998521" lon="11.3493365"><ele>211.0</ele><time>2026-05-03T10:46:22.718Z</time></trkpt><trkpt lat="43.299882" lon="11.3495322"><ele>211.0</ele><time>2026-05-03T10:46:23.73Z</time></trkpt><trkpt lat="43.2999098" lon="11.3497319"><ele>211.0</ele><time>2026-05-03T10:46:24.722Z</time></trkpt><trkpt lat="43.2999413" lon="11.3499334"><ele>210.25</ele><time>2026-05-03T10:46:25.733Z</time></trkpt><trkpt lat="43.2999724" lon="11.350129"><ele>209.5</ele><time>2026-05-03T10:46:26.717Z</time></trkpt><trkpt lat="43.3000019" lon="11.3503099"><ele>208.75</ele><time>2026-05-03T10:46:27.727Z</time></trkpt><trkpt lat="43.3000312" lon="11.3504891"><ele>208.0</ele><time>2026-05-03T10:46:28.73Z</time></trkpt><trkpt lat="43.3000591" lon="11.3506702"><ele>206.5</ele><time>2026-05-03T10:46:29.725Z</time></trkpt><trkpt lat="43.3000908" lon="11.3508552"><ele>205.0</ele><time>2026-05-03T10:46:30.731Z</time></trkpt><trkpt lat="43.3001208" lon="11.3510461"><ele>203.5</ele><time>2026-05-03T10:46:31.729Z</time></trkpt><trkpt lat="43.3001511" lon="11.3512354"><ele>202.0</ele><time>2026-05-03T10:46:32.736Z</time></trkpt><trkpt lat="43.3001801" lon="11.351426"><ele>201.5</ele><time>2026-05-03T10:46:33.713Z</time></trkpt><trkpt lat="43.3002091" lon="11.3516141"><ele>201.0</ele><time>2026-05-03T10:46:34.719Z</time></trkpt><trkpt lat="43.3002387" lon="11.3518067"><ele>200.5</ele><time>2026-05-03T10:46:35.725Z</time></trkpt><trkpt lat="43.3002702" lon="11.3520032"><ele>200.0</ele><time>2026-05-03T10:46:36.731Z</time></trkpt><trkpt lat="43.300302" lon="11.3522021"><ele>199.33333333333334</ele><time>2026-05-03T10:46:37.71Z</time></trkpt><trkpt lat="43.3003328" lon="11.3524051"><ele>198.66666666666669</ele><time>2026-05-03T10:46:38.719Z</time></trkpt><trkpt lat="43.3003635" lon="11.3526118"><ele>198.0</ele><time>2026-05-03T10:46:39.741Z</time></trkpt><trkpt lat="43.3003967" lon="11.3528218"><ele>198.0</ele><time>2026-05-03T10:46:40.724Z</time></trkpt><trkpt lat="43.3004307" lon="11.3530292"><ele>198.0</ele><time>2026-05-03T10:46:41.732Z</time></trkpt><trkpt lat="43.3004642" lon="11.3532282"><ele>198.0</ele><time>2026-05-03T10:46:42.724Z</time></trkpt><trkpt lat="43.3004942" lon="11.3534151"><ele>198.0</ele><time>2026-05-03T10:46:43.727Z</time></trkpt><trkpt lat="43.3005201" lon="11.353588"><ele>197.75</ele><time>2026-05-03T10:46:44.727Z</time></trkpt><trkpt lat="43.3005483" lon="11.3537625"><ele>197.5</ele><time>2026-05-03T10:46:45.723Z</time></trkpt><trkpt lat="43.300578" lon="11.3539391"><ele>197.25</ele><time>2026-05-03T10:46:46.725Z</time></trkpt><trkpt lat="43.3006076" lon="11.3541157"><ele>197.0</ele><time>2026-05-03T10:46:47.729Z</time></trkpt><trkpt lat="43.3006346" lon="11.3542947"><ele>199.25</ele><time>2026-05-03T10:46:48.719Z</time></trkpt><trkpt lat="43.3006611" lon="11.3544714"><ele>201.5</ele><time>2026-05-03T10:46:49.723Z</time></trkpt><trkpt lat="43.3006881" lon="11.3546535"><ele>203.75</ele><time>2026-05-03T10:46:50.727Z</time></trkpt><trkpt lat="43.3007115" lon="11.354847"><ele>206.0</ele><time>2026-05-03T10:46:51.735Z</time></trkpt><trkpt lat="43.3007299" lon="11.3550536"><ele>206.33333333333334</ele><time>2026-05-03T10:46:52.727Z</time></trkpt><trkpt lat="43.3007449" lon="11.3552651"><ele>206.66666666666669</ele><time>2026-05-03T10:46:53.719Z</time></trkpt><trkpt lat="43.3007566" lon="11.3554797"><ele>207.0</ele><time>2026-05-03T10:46:54.713Z</time></trkpt><trkpt lat="43.3007634" lon="11.3556924"><ele>207.0</ele><time>2026-05-03T10:46:55.728Z</time></trkpt><trkpt lat="43.3007668" lon="11.3559067"><ele>207.0</ele><time>2026-05-03T10:46:56.725Z</time></trkpt><trkpt lat="43.3007652" lon="11.3561192"><ele>207.0</ele><time>2026-05-03T10:46:57.713Z</time></trkpt><trkpt lat="43.3007588" lon="11.3563338"><ele>206.0</ele><time>2026-05-03T10:46:58.723Z</time></trkpt><trkpt lat="43.3007464" lon="11.3565516"><ele>205.0</ele><time>2026-05-03T10:46:59.721Z</time></trkpt><trkpt lat="43.300732" lon="11.3567739"><ele>204.0</ele><time>2026-05-03T10:47:00.723Z</time></trkpt><trkpt lat="43.3007086" lon="11.357001"><ele>202.66666666666669</ele><time>2026-05-03T10:47:01.729Z</time></trkpt><trkpt lat="43.3006837" lon="11.3572287"><ele>201.33333333333334</ele><time>2026-05-03T10:47:02.723Z</time></trkpt><trkpt lat="43.3006553" lon="11.3574525"><ele>200.0</ele><time>2026-05-03T10:47:03.723Z</time></trkpt><trkpt lat="43.3006224" lon="11.3576644"><ele>200.0</ele><time>2026-05-03T10:47:04.725Z</time></trkpt><trkpt lat="43.3005875" lon="11.3578637"><ele>200.0</ele><time>2026-05-03T10:47:05.739Z</time></trkpt><trkpt lat="43.3005481" lon="11.3580561"><ele>200.0</ele><time>2026-05-03T10:47:06.709Z</time></trkpt><trkpt lat="43.300502" lon="11.3582514"><ele>200.0</ele><time>2026-05-03T10:47:07.716Z</time></trkpt><trkpt lat="43.3004512" lon="11.3584571"><ele>199.66666666666669</ele><time>2026-05-03T10:47:08.714Z</time></trkpt><trkpt lat="43.300395" lon="11.358663"><ele>199.33333333333331</ele><time>2026-05-03T10:47:09.723Z</time></trkpt><trkpt lat="43.300336" lon="11.3588672"><ele>199.0</ele><time>2026-05-03T10:47:10.728Z</time></trkpt><trkpt lat="43.3002747" lon="11.3590656"><ele>199.0</ele><time>2026-05-03T10:47:11.734Z</time></trkpt><trkpt lat="43.3002121" lon="11.3592639"><ele>199.0</ele><time>2026-05-03T10:47:12.727Z</time></trkpt><trkpt lat="43.3001495" lon="11.3594656"><ele>199.0</ele><time>2026-05-03T10:47:13.728Z</time></trkpt><trkpt lat="43.3000889" lon="11.3596614"><ele>200.0</ele><time>2026-05-03T10:47:14.725Z</time></trkpt><trkpt lat="43.3000286" lon="11.3598553"><ele>201.0</ele><time>2026-05-03T10:47:15.731Z</time></trkpt><trkpt lat="43.2999693" lon="11.3600458"><ele>202.0</ele><time>2026-05-03T10:47:16.724Z</time></trkpt><trkpt lat="43.2999074" lon="11.3602349"><ele>202.0</ele><time>2026-05-03T10:47:17.729Z</time></trkpt><trkpt lat="43.2998493" lon="11.3604281"><ele>202.0</ele><time>2026-05-03T10:47:18.733Z</time></trkpt><trkpt lat="43.2997918" lon="11.3606152"><ele>202.0</ele><time>2026-05-03T10:47:19.733Z</time></trkpt><trkpt lat="43.2997366" lon="11.3607982"><ele>202.0</ele><time>2026-05-03T10:47:20.73Z</time></trkpt><trkpt lat="43.2996786" lon="11.3609836"><ele>201.33333333333331</ele><time>2026-05-03T10:47:21.725Z</time></trkpt><trkpt lat="43.2996161" lon="11.3611733"><ele>200.66666666666669</ele><time>2026-05-03T10:47:22.717Z</time></trkpt><trkpt lat="43.2995566" lon="11.3613682"><ele>200.0</ele><time>2026-05-03T10:47:23.723Z</time></trkpt><trkpt lat="43.2994977" lon="11.3615644"><ele>200.0</ele><time>2026-05-03T10:47:24.727Z</time></trkpt><trkpt lat="43.2994382" lon="11.3617646"><ele>200.0</ele><time>2026-05-03T10:47:25.719Z</time></trkpt><trkpt lat="43.2993787" lon="11.3619663"><ele>200.0</ele><time>2026-05-03T10:47:26.728Z</time></trkpt><trkpt lat="43.2993243" lon="11.3621743"><ele>200.33333333333334</ele><time>2026-05-03T10:47:27.718Z</time></trkpt><trkpt lat="43.2992748" lon="11.3623822"><ele>200.66666666666669</ele><time>2026-05-03T10:47:28.731Z</time></trkpt><trkpt lat="43.2992255" lon="11.3625964"><ele>201.0</ele><time>2026-05-03T10:47:29.718Z</time></trkpt><trkpt lat="43.2991808" lon="11.3628099"><ele>201.0</ele><time>2026-05-03T10:47:30.722Z</time></trkpt><trkpt lat="43.2991349" lon="11.3630167"><ele>201.0</ele><time>2026-05-03T10:47:31.721Z</time></trkpt><trkpt lat="43.299091" lon="11.3632257"><ele>201.0</ele><time>2026-05-03T10:47:32.72Z</time></trkpt><trkpt lat="43.2990502" lon="11.363432"><ele>203.0</ele><time>2026-05-03T10:47:33.719Z</time></trkpt><trkpt lat="43.2990157" lon="11.3636377"><ele>205.0</ele><time>2026-05-03T10:47:34.731Z</time></trkpt><trkpt lat="43.2989834" lon="11.3638482"><ele>207.0</ele><time>2026-05-03T10:47:35.721Z</time></trkpt><trkpt lat="43.2989535" lon="11.3640597"><ele>207.33333333333331</ele><time>2026-05-03T10:47:36.704Z</time></trkpt><trkpt lat="43.2989245" lon="11.3642717"><ele>207.66666666666666</ele><time>2026-05-03T10:47:37.725Z</time></trkpt><trkpt lat="43.2989" lon="11.3644815"><ele>208.0</ele><time>2026-05-03T10:47:38.72Z</time></trkpt><trkpt lat="43.2988805" lon="11.3646936"><ele>208.66666666666666</ele><time>2026-05-03T10:47:39.729Z</time></trkpt><trkpt lat="43.2988622" lon="11.3649045"><ele>209.33333333333331</ele><time>2026-05-03T10:47:40.726Z</time></trkpt><trkpt lat="43.2988482" lon="11.3651114"><ele>210.0</ele><time>2026-05-03T10:47:41.733Z</time></trkpt><trkpt lat="43.298834" lon="11.3653236"><ele>212.0</ele><time>2026-05-03T10:47:42.731Z</time></trkpt><trkpt lat="43.2988197" lon="11.3655382"><ele>214.0</ele><time>2026-05-03T10:47:43.728Z</time></trkpt><trkpt lat="43.2988104" lon="11.3657595"><ele>216.0</ele><time>2026-05-03T10:47:44.729Z</time></trkpt><trkpt lat="43.2988058" lon="11.3659819"><ele>216.0</ele><time>2026-05-03T10:47:45.726Z</time></trkpt><trkpt lat="43.2988055" lon="11.3662037"><ele>216.0</ele><time>2026-05-03T10:47:46.729Z</time></trkpt><trkpt lat="43.2988068" lon="11.3664229"><ele>216.0</ele><time>2026-05-03T10:47:47.713Z</time></trkpt><trkpt lat="43.2988157" lon="11.3666417"><ele>218.66666666666669</ele><time>2026-05-03T10:47:48.719Z</time></trkpt><trkpt lat="43.2988255" lon="11.3668718"><ele>221.33333333333334</ele><time>2026-05-03T10:47:49.72Z</time></trkpt><trkpt lat="43.2988298" lon="11.3671085"><ele>224.0</ele><time>2026-05-03T10:47:50.708Z</time></trkpt><trkpt lat="43.2987865" lon="11.3691421"><ele>223.33333333333334</ele><time>2026-05-03T10:47:59.711Z</time></trkpt><trkpt lat="43.2987802" lon="11.3693617"><ele>222.66666666666669</ele><time>2026-05-03T10:48:00.694Z</time></trkpt><trkpt lat="43.2987867" lon="11.3695784"><ele>222.0</ele><time>2026-05-03T10:48:01.705Z</time></trkpt><trkpt lat="43.2987944" lon="11.3697953"><ele>222.0</ele><time>2026-05-03T10:48:02.711Z</time></trkpt><trkpt lat="43.2987925" lon="11.3700143"><ele>222.0</ele><time>2026-05-03T10:48:03.726Z</time></trkpt><trkpt lat="43.2987773" lon="11.3702465"><ele>222.0</ele><time>2026-05-03T10:48:04.719Z</time></trkpt><trkpt lat="43.2987714" lon="11.37048"><ele>219.0</ele><time>2026-05-03T10:48:05.721Z</time></trkpt><trkpt lat="43.298761" lon="11.3707126"><ele>216.0</ele><time>2026-05-03T10:48:06.72Z</time></trkpt><trkpt lat="43.2987543" lon="11.3709461"><ele>213.0</ele><time>2026-05-03T10:48:07.72Z</time></trkpt><trkpt lat="43.2987469" lon="11.3711789"><ele>212.33333333333331</ele><time>2026-05-03T10:48:08.714Z</time></trkpt><trkpt lat="43.2987475" lon="11.3714197"><ele>211.66666666666666</ele><time>2026-05-03T10:48:09.721Z</time></trkpt><trkpt lat="43.2987543" lon="11.3716601"><ele>211.0</ele><time>2026-05-03T10:48:10.728Z</time></trkpt><trkpt lat="43.2987711" lon="11.3718989"><ele>211.0</ele><time>2026-05-03T10:48:11.711Z</time></trkpt><trkpt lat="43.2987958" lon="11.3721387"><ele>211.0</ele><time>2026-05-03T10:48:12.709Z</time></trkpt><trkpt lat="43.2988279" lon="11.37239"><ele>211.0</ele><time>2026-05-03T10:48:13.715Z</time></trkpt><trkpt lat="43.2988715" lon="11.3726537"><ele>211.66666666666666</ele><time>2026-05-03T10:48:14.72Z</time></trkpt><trkpt lat="43.2989254" lon="11.3729253"><ele>212.33333333333331</ele><time>2026-05-03T10:48:15.731Z</time></trkpt><trkpt lat="43.2989932" lon="11.373201"><ele>213.0</ele><time>2026-05-03T10:48:16.725Z</time></trkpt><trkpt lat="43.2990778" lon="11.3734923"><ele>208.5</ele><time>2026-05-03T10:48:17.724Z</time></trkpt><trkpt lat="43.2991815" lon="11.3737858"><ele>204.0</ele><time>2026-05-03T10:48:18.707Z</time></trkpt><trkpt lat="43.2992924" lon="11.3740768"><ele>201.0</ele><time>2026-05-03T10:48:19.722Z</time></trkpt><trkpt lat="43.2994127" lon="11.3743585"><ele>198.0</ele><time>2026-05-03T10:48:20.713Z</time></trkpt><trkpt lat="43.2995356" lon="11.3746245"><ele>197.33333333333331</ele><time>2026-05-03T10:48:21.729Z</time></trkpt><trkpt lat="43.2996602" lon="11.3748727"><ele>196.66666666666666</ele><time>2026-05-03T10:48:22.712Z</time></trkpt><trkpt lat="43.2997773" lon="11.3751007"><ele>196.0</ele><time>2026-05-03T10:48:23.725Z</time></trkpt><trkpt lat="43.2998955" lon="11.3753115"><ele>196.0</ele><time>2026-05-03T10:48:24.719Z</time></trkpt><trkpt lat="43.300014" lon="11.3755125"><ele>196.0</ele><time>2026-05-03T10:48:25.734Z</time></trkpt><trkpt lat="43.3001558" lon="11.375718"><ele>196.0</ele><time>2026-05-03T10:48:26.704Z</time></trkpt><trkpt lat="43.3003142" lon="11.3759438"><ele>197.0</ele><time>2026-05-03T10:48:27.73Z</time></trkpt><trkpt lat="43.3004766" lon="11.3761757"><ele>198.0</ele><time>2026-05-03T10:48:28.717Z</time></trkpt><trkpt lat="43.3006336" lon="11.3764035"><ele>198.0</ele><time>2026-05-03T10:48:29.719Z</time></trkpt><trkpt lat="43.30078" lon="11.3766226"><ele>198.0</ele><time>2026-05-03T10:48:30.72Z</time></trkpt><trkpt lat="43.3009158" lon="11.3768448"><ele>198.0</ele><time>2026-05-03T10:48:31.728Z</time></trkpt><trkpt lat="43.3010367" lon="11.3770669"><ele>197.0</ele><time>2026-05-03T10:48:32.733Z</time></trkpt><trkpt lat="43.3011421" lon="11.3773188"><ele>196.0</ele><time>2026-05-03T10:48:33.724Z</time></trkpt><trkpt lat="43.3012362" lon="11.3775864"><ele>195.0</ele><time>2026-05-03T10:48:34.73Z</time></trkpt><trkpt lat="43.3013104" lon="11.3778623"><ele>195.33333333333331</ele><time>2026-05-03T10:48:35.728Z</time></trkpt><trkpt lat="43.3013728" lon="11.3781344"><ele>195.66666666666666</ele><time>2026-05-03T10:48:36.733Z</time></trkpt><trkpt lat="43.3014092" lon="11.3784002"><ele>196.0</ele><time>2026-05-03T10:48:37.727Z</time></trkpt><trkpt lat="43.3014261" lon="11.3786603"><ele>195.66666666666666</ele><time>2026-05-03T10:48:38.731Z</time></trkpt><trkpt lat="43.3014356" lon="11.3789175"><ele>195.33333333333331</ele><time>2026-05-03T10:48:39.717Z</time></trkpt><trkpt lat="43.3014417" lon="11.3791867"><ele>195.0</ele><time>2026-05-03T10:48:40.729Z</time></trkpt><trkpt lat="43.3014478" lon="11.3794683"><ele>196.0</ele><time>2026-05-03T10:48:41.732Z</time></trkpt><trkpt lat="43.301456" lon="11.3797427"><ele>197.0</ele><time>2026-05-03T10:48:42.72Z</time></trkpt><trkpt lat="43.3014696" lon="11.3800088"><ele>198.0</ele><time>2026-05-03T10:48:43.741Z</time></trkpt><trkpt lat="43.3014819" lon="11.3802613"><ele>198.0</ele><time>2026-05-03T10:48:44.727Z</time></trkpt><trkpt lat="43.3014958" lon="11.3805108"><ele>198.0</ele><time>2026-05-03T10:48:45.725Z</time></trkpt><trkpt lat="43.301506" lon="11.380759"><ele>198.0</ele><time>2026-05-03T10:48:46.704Z</time></trkpt><trkpt lat="43.3015149" lon="11.3810128"><ele>198.33333333333331</ele><time>2026-05-03T10:48:47.717Z</time></trkpt><trkpt lat="43.3015235" lon="11.3812671"><ele>198.66666666666666</ele><time>2026-05-03T10:48:48.72Z</time></trkpt><trkpt lat="43.3015301" lon="11.3815358"><ele>199.0</ele><time>2026-05-03T10:48:49.709Z</time></trkpt><trkpt lat="43.3015227" lon="11.3818233"><ele>199.0</ele><time>2026-05-03T10:48:50.714Z</time></trkpt><trkpt lat="43.3014995" lon="11.3821261"><ele>199.0</ele><time>2026-05-03T10:48:51.724Z</time></trkpt><trkpt lat="43.3014525" lon="11.3824321"><ele>199.0</ele><time>2026-05-03T10:48:52.717Z</time></trkpt><trkpt lat="43.3013869" lon="11.38273"><ele>194.5</ele><time>2026-05-03T10:48:53.715Z</time></trkpt><trkpt lat="43.3012965" lon="11.3830219"><ele>190.0</ele><time>2026-05-03T10:48:54.711Z</time></trkpt><trkpt lat="43.3011875" lon="11.3833215"><ele>190.0</ele><time>2026-05-03T10:48:55.723Z</time></trkpt><trkpt lat="43.3010472" lon="11.3836129"><ele>190.0</ele><time>2026-05-03T10:48:56.716Z</time></trkpt><trkpt lat="43.3008863" lon="11.383897"><ele>189.0</ele><time>2026-05-03T10:48:57.748Z</time></trkpt><trkpt lat="43.3007223" lon="11.3841663"><ele>188.0</ele><time>2026-05-03T10:48:58.723Z</time></trkpt><trkpt lat="43.3005295" lon="11.3844383"><ele>187.5</ele><time>2026-05-03T10:48:59.752Z</time></trkpt><trkpt lat="43.3003428" lon="11.384717"><ele>187.0</ele><time>2026-05-03T10:49:00.714Z</time></trkpt><trkpt lat="43.3001496" lon="11.3850036"><ele>187.0</ele><time>2026-05-03T10:49:01.729Z</time></trkpt><trkpt lat="43.2999535" lon="11.3852931"><ele>187.0</ele><time>2026-05-03T10:49:02.722Z</time></trkpt><trkpt lat="43.2997582" lon="11.3855783"><ele>185.0</ele><time>2026-05-03T10:49:03.727Z</time></trkpt><trkpt lat="43.2995672" lon="11.3858715"><ele>183.0</ele><time>2026-05-03T10:49:04.726Z</time></trkpt><trkpt lat="43.2993686" lon="11.3861633"><ele>183.5</ele><time>2026-05-03T10:49:05.731Z</time></trkpt><trkpt lat="43.2991751" lon="11.3864485"><ele>184.0</ele><time>2026-05-03T10:49:06.725Z</time></trkpt><trkpt lat="43.2989899" lon="11.3867331"><ele>184.0</ele><time>2026-05-03T10:49:07.731Z</time></trkpt><trkpt lat="43.2987993" lon="11.387017"><ele>184.0</ele><time>2026-05-03T10:49:08.724Z</time></trkpt><trkpt lat="43.2986134" lon="11.3872961"><ele>186.0</ele><time>2026-05-03T10:49:09.73Z</time></trkpt><trkpt lat="43.2984267" lon="11.3875738"><ele>188.0</ele><time>2026-05-03T10:49:10.716Z</time></trkpt><trkpt lat="43.2982313" lon="11.387867"><ele>192.0</ele><time>2026-05-03T10:49:11.725Z</time></trkpt><trkpt lat="43.2980413" lon="11.388154"><ele>196.0</ele><time>2026-05-03T10:49:12.716Z</time></trkpt><trkpt lat="43.2978601" lon="11.3884177"><ele>196.0</ele><time>2026-05-03T10:49:13.731Z</time></trkpt><trkpt lat="43.2976852" lon="11.3886705"><ele>196.0</ele><time>2026-05-03T10:49:14.72Z</time></trkpt><trkpt lat="43.2975057" lon="11.3889253"><ele>198.5</ele><time>2026-05-03T10:49:15.737Z</time></trkpt><trkpt lat="43.2973247" lon="11.3891869"><ele>201.0</ele><time>2026-05-03T10:49:16.721Z</time></trkpt><trkpt lat="43.2971439" lon="11.3894551"><ele>203.0</ele><time>2026-05-03T10:49:17.725Z</time></trkpt><trkpt lat="43.2969613" lon="11.3897239"><ele>205.0</ele><time>2026-05-03T10:49:18.72Z</time></trkpt><trkpt lat="43.296781" lon="11.3899886"><ele>205.0</ele><time>2026-05-03T10:49:19.716Z</time></trkpt><trkpt lat="43.2966087" lon="11.3902515"><ele>205.0</ele><time>2026-05-03T10:49:20.712Z</time></trkpt><trkpt lat="43.2964452" lon="11.3905243"><ele>202.5</ele><time>2026-05-03T10:49:21.722Z</time></trkpt><trkpt lat="43.2962913" lon="11.3908037"><ele>200.0</ele><time>2026-05-03T10:49:22.716Z</time></trkpt><trkpt lat="43.2961568" lon="11.391092"><ele>197.5</ele><time>2026-05-03T10:49:23.729Z</time></trkpt><trkpt lat="43.2960403" lon="11.3913957"><ele>195.0</ele><time>2026-05-03T10:49:24.71Z</time></trkpt><trkpt lat="43.2959394" lon="11.391704"><ele>195.0</ele><time>2026-05-03T10:49:25.725Z</time></trkpt><trkpt lat="43.295851" lon="11.3920269"><ele>195.0</ele><time>2026-05-03T10:49:26.715Z</time></trkpt><trkpt lat="43.2957874" lon="11.3923599"><ele>195.0</ele><time>2026-05-03T10:49:27.726Z</time></trkpt><trkpt lat="43.2957381" lon="11.3927063"><ele>195.0</ele><time>2026-05-03T10:49:28.719Z</time></trkpt><trkpt lat="43.2956997" lon="11.3930541"><ele>195.5</ele><time>2026-05-03T10:49:29.725Z</time></trkpt><trkpt lat="43.2956748" lon="11.3934082"><ele>196.0</ele><time>2026-05-03T10:49:30.723Z</time></trkpt><trkpt lat="43.2956613" lon="11.3937702"><ele>195.5</ele><time>2026-05-03T10:49:31.719Z</time></trkpt><trkpt lat="43.2956512" lon="11.3941273"><ele>195.0</ele><time>2026-05-03T10:49:32.724Z</time></trkpt><trkpt lat="43.2956428" lon="11.3944711"><ele>195.0</ele><time>2026-05-03T10:49:33.728Z</time></trkpt><trkpt lat="43.2956336" lon="11.3948076"><ele>195.0</ele><time>2026-05-03T10:49:34.717Z</time></trkpt><trkpt lat="43.2956239" lon="11.3951417"><ele>195.0</ele><time>2026-05-03T10:49:35.742Z</time></trkpt><trkpt lat="43.2956161" lon="11.3954593"><ele>195.0</ele><time>2026-05-03T10:49:36.72Z</time></trkpt><trkpt lat="43.2956138" lon="11.3957741"><ele>196.5</ele><time>2026-05-03T10:49:37.728Z</time></trkpt><trkpt lat="43.2956267" lon="11.3960973"><ele>198.0</ele><time>2026-05-03T10:49:38.725Z</time></trkpt><trkpt lat="43.2956526" lon="11.3964155"><ele>199.5</ele><time>2026-05-03T10:49:39.729Z</time></trkpt><trkpt lat="43.2956861" lon="11.3967338"><ele>201.0</ele><time>2026-05-03T10:49:40.721Z</time></trkpt><trkpt lat="43.2957352" lon="11.3970495"><ele>199.0</ele><time>2026-05-03T10:49:41.737Z</time></trkpt><trkpt lat="43.295806" lon="11.3973648"><ele>197.0</ele><time>2026-05-03T10:49:42.721Z</time></trkpt><trkpt lat="43.2958936" lon="11.3976801"><ele>197.0</ele><time>2026-05-03T10:49:43.712Z</time></trkpt><trkpt lat="43.2959995" lon="11.3979926"><ele>197.0</ele><time>2026-05-03T10:49:44.726Z</time></trkpt><trkpt lat="43.2961222" lon="11.3983052"><ele>197.5</ele><time>2026-05-03T10:49:45.717Z</time></trkpt><trkpt lat="43.296265" lon="11.398609"><ele>198.0</ele><time>2026-05-03T10:49:46.729Z</time></trkpt><trkpt lat="43.2964213" lon="11.3989016"><ele>198.0</ele><time>2026-05-03T10:49:47.722Z</time></trkpt><trkpt lat="43.2965991" lon="11.399192"><ele>198.0</ele><time>2026-05-03T10:49:48.727Z</time></trkpt><trkpt lat="43.2967796" lon="11.3994794"><ele>197.5</ele><time>2026-05-03T10:49:49.713Z</time></trkpt><trkpt lat="43.2969569" lon="11.399764"><ele>197.0</ele><time>2026-05-03T10:49:50.713Z</time></trkpt><trkpt lat="43.2971381" lon="11.4000472"><ele>196.0</ele><time>2026-05-03T10:49:51.726Z</time></trkpt><trkpt lat="43.2973196" lon="11.4003231"><ele>195.0</ele><time>2026-05-03T10:49:52.725Z</time></trkpt><trkpt lat="43.2974802" lon="11.4005878"><ele>192.5</ele><time>2026-05-03T10:49:53.722Z</time></trkpt><trkpt lat="43.297635" lon="11.4008344"><ele>190.0</ele><time>2026-05-03T10:49:54.717Z</time></trkpt><trkpt lat="43.2977868" lon="11.401071"><ele>190.0</ele><time>2026-05-03T10:49:55.731Z</time></trkpt><trkpt lat="43.2979327" lon="11.4013014"><ele>190.0</ele><time>2026-05-03T10:49:56.722Z</time></trkpt><trkpt lat="43.2980744" lon="11.4015249"><ele>190.0</ele><time>2026-05-03T10:49:57.722Z</time></trkpt><trkpt lat="43.2982095" lon="11.4017383"><ele>190.33333333333334</ele><time>2026-05-03T10:49:58.737Z</time></trkpt><trkpt lat="43.2983328" lon="11.4019414"><ele>190.66666666666666</ele><time>2026-05-03T10:49:59.728Z</time></trkpt><trkpt lat="43.2984459" lon="11.4021338"><ele>191.0</ele><time>2026-05-03T10:50:00.727Z</time></trkpt><trkpt lat="43.29856" lon="11.4023091"><ele>188.66666666666666</ele><time>2026-05-03T10:50:01.72Z</time></trkpt><trkpt lat="43.2986639" lon="11.40248"><ele>186.33333333333334</ele><time>2026-05-03T10:50:02.725Z</time></trkpt><trkpt lat="43.2987632" lon="11.402636"><ele>184.0</ele><time>2026-05-03T10:50:03.723Z</time></trkpt><trkpt lat="43.2988591" lon="11.4027835"><ele>183.75</ele><time>2026-05-03T10:50:04.72Z</time></trkpt><trkpt lat="43.2989583" lon="11.4029416"><ele>183.5</ele><time>2026-05-03T10:50:05.723Z</time></trkpt><trkpt lat="43.2990513" lon="11.4030948"><ele>183.25</ele><time>2026-05-03T10:50:06.721Z</time></trkpt><trkpt lat="43.2991386" lon="11.403242"><ele>183.0</ele><time>2026-05-03T10:50:07.727Z</time></trkpt><trkpt lat="43.2992168" lon="11.403382"><ele>183.0</ele><time>2026-05-03T10:50:08.72Z</time></trkpt><trkpt lat="43.2992793" lon="11.4035308"><ele>183.0</ele><time>2026-05-03T10:50:09.718Z</time></trkpt><trkpt lat="43.2993159" lon="11.4036934"><ele>183.0</ele><time>2026-05-03T10:50:10.729Z</time></trkpt><trkpt lat="43.2993144" lon="11.4038544"><ele>183.0</ele><time>2026-05-03T10:50:11.73Z</time></trkpt><trkpt lat="43.2992776" lon="11.4040097"><ele>182.5</ele><time>2026-05-03T10:50:12.721Z</time></trkpt><trkpt lat="43.2992005" lon="11.4041453"><ele>182.0</ele><time>2026-05-03T10:50:13.723Z</time></trkpt><trkpt lat="43.2991088" lon="11.4042569"><ele>181.5</ele><time>2026-05-03T10:50:14.721Z</time></trkpt><trkpt lat="43.2989982" lon="11.4043217"><ele>181.0</ele><time>2026-05-03T10:50:15.722Z</time></trkpt><trkpt lat="43.2988756" lon="11.4043408"><ele>180.75</ele><time>2026-05-03T10:50:16.724Z</time></trkpt><trkpt lat="43.298756" lon="11.404312"><ele>180.5</ele><time>2026-05-03T10:50:17.717Z</time></trkpt><trkpt lat="43.2986528" lon="11.4042388"><ele>180.25</ele><time>2026-05-03T10:50:18.706Z</time></trkpt><trkpt lat="43.2985706" lon="11.4041455"><ele>180.0</ele><time>2026-05-03T10:50:19.719Z</time></trkpt><trkpt lat="43.2985028" lon="11.4040211"><ele>180.0</ele><time>2026-05-03T10:50:20.715Z</time></trkpt><trkpt lat="43.2984509" lon="11.4038789"><ele>180.0</ele><time>2026-05-03T10:50:21.716Z</time></trkpt><trkpt lat="43.2984231" lon="11.4037333"><ele>180.0</ele><time>2026-05-03T10:50:22.701Z</time></trkpt><trkpt lat="43.2984072" lon="11.4035969"><ele>180.0</ele><time>2026-05-03T10:50:23.723Z</time></trkpt><trkpt lat="43.2984137" lon="11.4034735"><ele>180.0</ele><time>2026-05-03T10:50:24.705Z</time></trkpt><trkpt lat="43.2984387" lon="11.4033682"><ele>180.2</ele><time>2026-05-03T10:50:25.725Z</time></trkpt><trkpt lat="43.2984861" lon="11.4032892"><ele>180.4</ele><time>2026-05-03T10:50:26.714Z</time></trkpt><trkpt lat="43.2985486" lon="11.403229"><ele>180.60000000000002</ele><time>2026-05-03T10:50:27.727Z</time></trkpt><trkpt lat="43.2986351" lon="11.4031815"><ele>180.8</ele><time>2026-05-03T10:50:28.715Z</time></trkpt><trkpt lat="43.2987396" lon="11.4031436"><ele>181.0</ele><time>2026-05-03T10:50:29.728Z</time></trkpt><trkpt lat="43.2988555" lon="11.4031056"><ele>181.5</ele><time>2026-05-03T10:50:30.73Z</time></trkpt><trkpt lat="43.2989894" lon="11.4030714"><ele>182.0</ele><time>2026-05-03T10:50:31.726Z</time></trkpt><trkpt lat="43.2991283" lon="11.4030396"><ele>182.5</ele><time>2026-05-03T10:50:32.723Z</time></trkpt><trkpt lat="43.2992842" lon="11.403003"><ele>183.0</ele><time>2026-05-03T10:50:33.725Z</time></trkpt><trkpt lat="43.2994459" lon="11.4029548"><ele>183.0</ele><time>2026-05-03T10:50:34.715Z</time></trkpt><trkpt lat="43.2996273" lon="11.4029186"><ele>183.0</ele><time>2026-05-03T10:50:35.719Z</time></trkpt><trkpt lat="43.2998184" lon="11.4029119"><ele>183.0</ele><time>2026-05-03T10:50:36.72Z</time></trkpt><trkpt lat="43.3000006" lon="11.4029298"><ele>183.33333333333334</ele><time>2026-05-03T10:50:37.732Z</time></trkpt><trkpt lat="43.3001678" lon="11.4029602"><ele>183.66666666666669</ele><time>2026-05-03T10:50:38.718Z</time></trkpt><trkpt lat="43.3003313" lon="11.4030008"><ele>184.0</ele><time>2026-05-03T10:50:39.738Z</time></trkpt><trkpt lat="43.3004841" lon="11.4030457"><ele>187.66666666666669</ele><time>2026-05-03T10:50:40.719Z</time></trkpt><trkpt lat="43.3006416" lon="11.4030878"><ele>191.33333333333334</ele><time>2026-05-03T10:50:41.732Z</time></trkpt><trkpt lat="43.3007995" lon="11.4030986"><ele>195.0</ele><time>2026-05-03T10:50:42.713Z</time></trkpt><trkpt lat="43.3009577" lon="11.4030742"><ele>195.0</ele><time>2026-05-03T10:50:43.732Z</time></trkpt><trkpt lat="43.3011209" lon="11.4030255"><ele>195.0</ele><time>2026-05-03T10:50:44.724Z</time></trkpt><trkpt lat="43.3012876" lon="11.4029742"><ele>195.0</ele><time>2026-05-03T10:50:45.722Z</time></trkpt><trkpt lat="43.3014411" lon="11.4029104"><ele>198.0</ele><time>2026-05-03T10:50:46.724Z</time></trkpt><trkpt lat="43.3015943" lon="11.4028302"><ele>201.0</ele><time>2026-05-03T10:50:47.727Z</time></trkpt><trkpt lat="43.3017305" lon="11.402726"><ele>204.0</ele><time>2026-05-03T10:50:48.719Z</time></trkpt><trkpt lat="43.3018537" lon="11.4026076"><ele>204.0</ele><time>2026-05-03T10:50:49.71Z</time></trkpt><trkpt lat="43.3019733" lon="11.4024772"><ele>204.0</ele><time>2026-05-03T10:50:50.715Z</time></trkpt><trkpt lat="43.3020877" lon="11.4023486"><ele>204.0</ele><time>2026-05-03T10:50:51.721Z</time></trkpt><trkpt lat="43.302193" lon="11.402241"><ele>204.0</ele><time>2026-05-03T10:50:52.725Z</time></trkpt><trkpt lat="43.3022986" lon="11.4021376"><ele>206.5</ele><time>2026-05-03T10:50:53.712Z</time></trkpt><trkpt lat="43.3024009" lon="11.4020297"><ele>209.0</ele><time>2026-05-03T10:50:54.722Z</time></trkpt><trkpt lat="43.3025047" lon="11.4019237"><ele>211.5</ele><time>2026-05-03T10:50:55.71Z</time></trkpt><trkpt lat="43.3026038" lon="11.4018311"><ele>214.0</ele><time>2026-05-03T10:50:56.71Z</time></trkpt><trkpt lat="43.3027031" lon="11.4017736"><ele>214.0</ele><time>2026-05-03T10:50:57.713Z</time></trkpt><trkpt lat="43.3028019" lon="11.4017534"><ele>213.99999999999997</ele><time>2026-05-03T10:50:58.718Z</time></trkpt><trkpt lat="43.3029038" lon="11.4017817"><ele>213.99999999999997</ele><time>2026-05-03T10:50:59.719Z</time></trkpt><trkpt lat="43.302999" lon="11.4018479"><ele>214.0</ele><time>2026-05-03T10:51:00.719Z</time></trkpt><trkpt lat="43.3030894" lon="11.4019347"><ele>214.0</ele><time>2026-05-03T10:51:01.714Z</time></trkpt><trkpt lat="43.3031835" lon="11.4020314"><ele>215.5</ele><time>2026-05-03T10:51:02.721Z</time></trkpt><trkpt lat="43.3032754" lon="11.4021293"><ele>217.0</ele><time>2026-05-03T10:51:03.715Z</time></trkpt><trkpt lat="43.3033703" lon="11.4022175"><ele>218.5</ele><time>2026-05-03T10:51:04.727Z</time></trkpt><trkpt lat="43.3034712" lon="11.4022942"><ele>220.0</ele><time>2026-05-03T10:51:05.718Z</time></trkpt><trkpt lat="43.3035732" lon="11.4023566"><ele>220.5</ele><time>2026-05-03T10:51:06.72Z</time></trkpt><trkpt lat="43.3036844" lon="11.4024028"><ele>221.0</ele><time>2026-05-03T10:51:07.727Z</time></trkpt><trkpt lat="43.3038148" lon="11.4024375"><ele>221.5</ele><time>2026-05-03T10:51:08.725Z</time></trkpt><trkpt lat="43.3039528" lon="11.4024591"><ele>222.0</ele><time>2026-05-03T10:51:09.71Z</time></trkpt><trkpt lat="43.3040928" lon="11.4024722"><ele>222.0</ele><time>2026-05-03T10:51:10.718Z</time></trkpt><trkpt lat="43.30423" lon="11.4024758"><ele>222.0</ele><time>2026-05-03T10:51:11.73Z</time></trkpt><trkpt lat="43.3043746" lon="11.4024794"><ele>222.0</ele><time>2026-05-03T10:51:12.721Z</time></trkpt><trkpt lat="43.3045123" lon="11.4024791"><ele>222.0</ele><time>2026-05-03T10:51:13.708Z</time></trkpt><trkpt lat="43.3046363" lon="11.4024843"><ele>222.0</ele><time>2026-05-03T10:51:14.719Z</time></trkpt><trkpt lat="43.3047398" lon="11.4024887"><ele>222.0</ele><time>2026-05-03T10:51:15.727Z</time></trkpt><trkpt lat="43.3048284" lon="11.4025081"><ele>222.0</ele><time>2026-05-03T10:51:16.723Z</time></trkpt><trkpt lat="43.3048994" lon="11.4025558"><ele>222.0</ele><time>2026-05-03T10:51:17.713Z</time></trkpt><trkpt lat="43.3049685" lon="11.4026231"><ele>222.0</ele><time>2026-05-03T10:51:18.707Z</time></trkpt><trkpt lat="43.3050395" lon="11.402704"><ele>222.0</ele><time>2026-05-03T10:51:19.721Z</time></trkpt><trkpt lat="43.3051288" lon="11.4027829"><ele>221.8</ele><time>2026-05-03T10:51:20.707Z</time></trkpt><trkpt lat="43.3052275" lon="11.4028652"><ele>221.6</ele><time>2026-05-03T10:51:21.712Z</time></trkpt><trkpt lat="43.3053226" lon="11.4029493"><ele>221.40000000000003</ele><time>2026-05-03T10:51:22.718Z</time></trkpt><trkpt lat="43.3054117" lon="11.4030267"><ele>221.20000000000002</ele><time>2026-05-03T10:51:23.714Z</time></trkpt><trkpt lat="43.3054909" lon="11.4030979"><ele>221.0</ele><time>2026-05-03T10:51:24.713Z</time></trkpt><trkpt lat="43.3055836" lon="11.4031576"><ele>221.60000000000002</ele><time>2026-05-03T10:51:25.708Z</time></trkpt><trkpt lat="43.3056893" lon="11.4031878"><ele>222.20000000000002</ele><time>2026-05-03T10:51:26.726Z</time></trkpt><trkpt lat="43.3057964" lon="11.4031945"><ele>222.79999999999998</ele><time>2026-05-03T10:51:27.714Z</time></trkpt><trkpt lat="43.3059077" lon="11.4031887"><ele>223.39999999999998</ele><time>2026-05-03T10:51:28.709Z</time></trkpt><trkpt lat="43.306023" lon="11.4031876"><ele>224.0</ele><time>2026-05-03T10:51:29.707Z</time></trkpt><trkpt lat="43.3061432" lon="11.4031826"><ele>224.0</ele><time>2026-05-03T10:51:30.706Z</time></trkpt><trkpt lat="43.3062599" lon="11.4031795"><ele>224.0</ele><time>2026-05-03T10:51:31.702Z</time></trkpt><trkpt lat="43.3063781" lon="11.4031713"><ele>224.0</ele><time>2026-05-03T10:51:32.714Z</time></trkpt><trkpt lat="43.3065043" lon="11.4031702"><ele>224.0</ele><time>2026-05-03T10:51:33.722Z</time></trkpt><trkpt lat="43.3066346" lon="11.4031717"><ele>224.25</ele><time>2026-05-03T10:51:34.708Z</time></trkpt><trkpt lat="43.3067683" lon="11.4031708"><ele>224.5</ele><time>2026-05-03T10:51:35.723Z</time></trkpt><trkpt lat="43.3069071" lon="11.4031713"><ele>224.75</ele><time>2026-05-03T10:51:36.722Z</time></trkpt><trkpt lat="43.307045" lon="11.4031651"><ele>225.0</ele><time>2026-05-03T10:51:37.717Z</time></trkpt><trkpt lat="43.3071823" lon="11.4031686"><ele>225.0</ele><time>2026-05-03T10:51:38.713Z</time></trkpt><trkpt lat="43.3073174" lon="11.4031748"><ele>225.0</ele><time>2026-05-03T10:51:39.723Z</time></trkpt><trkpt lat="43.3074518" lon="11.4031841"><ele>225.0</ele><time>2026-05-03T10:51:40.719Z</time></trkpt><trkpt lat="43.3075865" lon="11.4031765"><ele>225.0</ele><time>2026-05-03T10:51:41.708Z</time></trkpt><trkpt lat="43.3077267" lon="11.4031703"><ele>225.0</ele><time>2026-05-03T10:51:42.709Z</time></trkpt><trkpt lat="43.3078708" lon="11.4031675"><ele>225.0</ele><time>2026-05-03T10:51:43.726Z</time></trkpt><trkpt lat="43.3080227" lon="11.403151"><ele>225.0</ele><time>2026-05-03T10:51:44.722Z</time></trkpt><trkpt lat="43.3081717" lon="11.4031299"><ele>225.0</ele><time>2026-05-03T10:51:45.717Z</time></trkpt><trkpt lat="43.3083071" lon="11.4031123"><ele>225.33333333333334</ele><time>2026-05-03T10:51:46.72Z</time></trkpt><trkpt lat="43.3084236" lon="11.4031147"><ele>225.66666666666669</ele><time>2026-05-03T10:51:47.73Z</time></trkpt><trkpt lat="43.3085106" lon="11.4031271"><ele>226.0</ele><time>2026-05-03T10:51:48.717Z</time></trkpt><trkpt lat="43.308572" lon="11.4031664"><ele>226.33333333333334</ele><time>2026-05-03T10:51:49.718Z</time></trkpt><trkpt lat="43.3086183" lon="11.4032338"><ele>226.66666666666669</ele><time>2026-05-03T10:51:50.719Z</time></trkpt><trkpt lat="43.3086643" lon="11.4033096"><ele>227.0</ele><time>2026-05-03T10:51:51.722Z</time></trkpt><trkpt lat="43.3087254" lon="11.4033922"><ele>227.0</ele><time>2026-05-03T10:51:52.71Z</time></trkpt><trkpt lat="43.3088002" lon="11.4034878"><ele>227.0</ele><time>2026-05-03T10:51:53.722Z</time></trkpt><trkpt lat="43.3088839" lon="11.403585"><ele>227.0</ele><time>2026-05-03T10:51:54.723Z</time></trkpt><trkpt lat="43.3089717" lon="11.4036887"><ele>227.0</ele><time>2026-05-03T10:51:55.734Z</time></trkpt><trkpt lat="43.3090651" lon="11.4037912"><ele>227.0</ele><time>2026-05-03T10:51:56.721Z</time></trkpt><trkpt lat="43.3091649" lon="11.403891"><ele>226.75</ele><time>2026-05-03T10:51:57.709Z</time></trkpt><trkpt lat="43.3092702" lon="11.4039913"><ele>226.5</ele><time>2026-05-03T10:51:58.718Z</time></trkpt><trkpt lat="43.3093854" lon="11.4040761"><ele>226.25</ele><time>2026-05-03T10:51:59.721Z</time></trkpt><trkpt lat="43.3094967" lon="11.4041404"><ele>226.0</ele><time>2026-05-03T10:52:00.711Z</time></trkpt><trkpt lat="43.3095969" lon="11.4042051"><ele>225.99999999999997</ele><time>2026-05-03T10:52:01.719Z</time></trkpt><trkpt lat="43.3096769" lon="11.4042512"><ele>226.0</ele><time>2026-05-03T10:52:02.709Z</time></trkpt><trkpt lat="43.3097522" lon="11.4043025"><ele>226.0</ele><time>2026-05-03T10:52:03.718Z</time></trkpt><trkpt lat="43.3098213" lon="11.4043491"><ele>226.0</ele><time>2026-05-03T10:52:04.721Z</time></trkpt><trkpt lat="43.3098994" lon="11.4044078"><ele>225.99999999999997</ele><time>2026-05-03T10:52:05.73Z</time></trkpt><trkpt lat="43.3099731" lon="11.4044759"><ele>226.0</ele><time>2026-05-03T10:52:06.721Z</time></trkpt><trkpt lat="43.3100511" lon="11.4045535"><ele>226.4</ele><time>2026-05-03T10:52:07.722Z</time></trkpt><trkpt lat="43.3101215" lon="11.4046474"><ele>226.8</ele><time>2026-05-03T10:52:08.722Z</time></trkpt><trkpt lat="43.3101732" lon="11.4047407"><ele>227.20000000000002</ele><time>2026-05-03T10:52:09.719Z</time></trkpt><trkpt lat="43.3102054" lon="11.4048253"><ele>227.60000000000002</ele><time>2026-05-03T10:52:10.71Z</time></trkpt><trkpt lat="43.3102584" lon="11.4049627"><ele>228.0</ele><time>2026-05-03T10:52:12.719Z</time></trkpt><trkpt lat="43.3103048" lon="11.4050904"><ele>228.0</ele><time>2026-05-03T10:52:14.708Z</time></trkpt><trkpt lat="43.3103376" lon="11.4052111"><ele>228.0</ele><time>2026-05-03T10:52:16.729Z</time></trkpt><trkpt lat="43.3103625" lon="11.4053297"><ele>228.0</ele><time>2026-05-03T10:52:18.713Z</time></trkpt><trkpt lat="43.3103976" lon="11.4054448"><ele>228.0</ele><time>2026-05-03T10:52:20.719Z</time></trkpt><trkpt lat="43.3104515" lon="11.4055807"><ele>228.0</ele><time>2026-05-03T10:52:22.733Z</time></trkpt><trkpt lat="43.3104892" lon="11.4056703"><ele>228.16666666666666</ele><time>2026-05-03T10:52:23.712Z</time></trkpt><trkpt lat="43.3105287" lon="11.4057718"><ele>228.33333333333331</ele><time>2026-05-03T10:52:24.725Z</time></trkpt><trkpt lat="43.3105701" lon="11.4058762"><ele>228.5</ele><time>2026-05-03T10:52:25.702Z</time></trkpt><trkpt lat="43.3106174" lon="11.4059803"><ele>228.66666666666666</ele><time>2026-05-03T10:52:26.709Z</time></trkpt><trkpt lat="43.3106693" lon="11.4060749"><ele>228.83333333333331</ele><time>2026-05-03T10:52:27.711Z</time></trkpt><trkpt lat="43.3107231" lon="11.4061719"><ele>229.0</ele><time>2026-05-03T10:52:28.716Z</time></trkpt><trkpt lat="43.3107733" lon="11.4062667"><ele>228.0</ele><time>2026-05-03T10:52:29.715Z</time></trkpt><trkpt lat="43.3108272" lon="11.4063559"><ele>226.99999999999997</ele><time>2026-05-03T10:52:30.712Z</time></trkpt><trkpt lat="43.3108902" lon="11.4064445"><ele>225.99999999999997</ele><time>2026-05-03T10:52:31.714Z</time></trkpt><trkpt lat="43.3109528" lon="11.4065328"><ele>225.0</ele><time>2026-05-03T10:52:32.715Z</time></trkpt><trkpt lat="43.3110206" lon="11.4066278"><ele>224.0</ele><time>2026-05-03T10:52:33.721Z</time></trkpt><trkpt lat="43.3111003" lon="11.4067185"><ele>224.0</ele><time>2026-05-03T10:52:34.725Z</time></trkpt><trkpt lat="43.3111877" lon="11.4068086"><ele>224.0</ele><time>2026-05-03T10:52:35.724Z</time></trkpt><trkpt lat="43.3112781" lon="11.4069025"><ele>224.0</ele><time>2026-05-03T10:52:36.718Z</time></trkpt><trkpt lat="43.3113716" lon="11.4070003"><ele>224.0</ele><time>2026-05-03T10:52:37.716Z</time></trkpt><trkpt lat="43.3114716" lon="11.4071069"><ele>223.0</ele><time>2026-05-03T10:52:38.715Z</time></trkpt><trkpt lat="43.3115686" lon="11.4072134"><ele>222.0</ele><time>2026-05-03T10:52:39.724Z</time></trkpt><trkpt lat="43.3116643" lon="11.4073177"><ele>221.0</ele><time>2026-05-03T10:52:40.719Z</time></trkpt><trkpt lat="43.3117574" lon="11.4074269"><ele>220.0</ele><time>2026-05-03T10:52:41.727Z</time></trkpt><trkpt lat="43.3118508" lon="11.4075436"><ele>220.0</ele><time>2026-05-03T10:52:42.715Z</time></trkpt><trkpt lat="43.311944" lon="11.4076664"><ele>220.0</ele><time>2026-05-03T10:52:43.731Z</time></trkpt><trkpt lat="43.3120406" lon="11.4077944"><ele>220.0</ele><time>2026-05-03T10:52:44.728Z</time></trkpt><trkpt lat="43.3121367" lon="11.4079234"><ele>220.0</ele><time>2026-05-03T10:52:45.727Z</time></trkpt><trkpt lat="43.3122327" lon="11.4080539"><ele>216.75</ele><time>2026-05-03T10:52:46.723Z</time></trkpt><trkpt lat="43.3123325" lon="11.408183"><ele>213.5</ele><time>2026-05-03T10:52:47.723Z</time></trkpt><trkpt lat="43.3124356" lon="11.408316"><ele>210.25</ele><time>2026-05-03T10:52:48.726Z</time></trkpt><trkpt lat="43.312538" lon="11.408449"><ele>207.0</ele><time>2026-05-03T10:52:49.726Z</time></trkpt><trkpt lat="43.3126369" lon="11.4085808"><ele>207.0</ele><time>2026-05-03T10:52:50.704Z</time></trkpt><trkpt lat="43.3127317" lon="11.4087102"><ele>207.0</ele><time>2026-05-03T10:52:51.726Z</time></trkpt><trkpt lat="43.3128244" lon="11.4088299"><ele>207.0</ele><time>2026-05-03T10:52:52.712Z</time></trkpt><trkpt lat="43.3129079" lon="11.4089449"><ele>207.0</ele><time>2026-05-03T10:52:53.724Z</time></trkpt><trkpt lat="43.3129832" lon="11.409052"><ele>207.6</ele><time>2026-05-03T10:52:54.714Z</time></trkpt><trkpt lat="43.3130483" lon="11.4091591"><ele>208.2</ele><time>2026-05-03T10:52:55.717Z</time></trkpt><trkpt lat="43.3131018" lon="11.4092737"><ele>208.8</ele><time>2026-05-03T10:52:56.711Z</time></trkpt><trkpt lat="43.3131466" lon="11.4094056"><ele>209.4</ele><time>2026-05-03T10:52:57.71Z</time></trkpt><trkpt lat="43.3131887" lon="11.4095586"><ele>210.0</ele><time>2026-05-03T10:52:58.73Z</time></trkpt><trkpt lat="43.3132264" lon="11.4097138"><ele>206.25</ele><time>2026-05-03T10:52:59.731Z</time></trkpt><trkpt lat="43.3132706" lon="11.4098834"><ele>202.5</ele><time>2026-05-03T10:53:00.71Z</time></trkpt><trkpt lat="43.3133139" lon="11.4100621"><ele>198.75</ele><time>2026-05-03T10:53:01.722Z</time></trkpt><trkpt lat="43.3133564" lon="11.4102441"><ele>195.0</ele><time>2026-05-03T10:53:02.715Z</time></trkpt><trkpt lat="43.3134061" lon="11.4104367"><ele>195.0</ele><time>2026-05-03T10:53:03.706Z</time></trkpt><trkpt lat="43.3134597" lon="11.4106273"><ele>195.0</ele><time>2026-05-03T10:53:04.727Z</time></trkpt><trkpt lat="43.3135158" lon="11.4108171"><ele>195.0</ele><time>2026-05-03T10:53:05.708Z</time></trkpt><trkpt lat="43.3135799" lon="11.4110065"><ele>195.0</ele><time>2026-05-03T10:53:06.708Z</time></trkpt><trkpt lat="43.3136307" lon="11.411179"><ele>195.0</ele><time>2026-05-03T10:53:07.722Z</time></trkpt><trkpt lat="43.3136571" lon="11.411341"><ele>195.0</ele><time>2026-05-03T10:53:08.715Z</time></trkpt><trkpt lat="43.313659" lon="11.411494"><ele>195.0</ele><time>2026-05-03T10:53:09.714Z</time></trkpt><trkpt lat="43.3136438" lon="11.4116573"><ele>195.0</ele><time>2026-05-03T10:53:10.704Z</time></trkpt><trkpt lat="43.3136213" lon="11.4118167"><ele>195.0</ele><time>2026-05-03T10:53:11.721Z</time></trkpt><trkpt lat="43.3136176" lon="11.4119665"><ele>195.0</ele><time>2026-05-03T10:53:12.722Z</time></trkpt><trkpt lat="43.3136383" lon="11.412103"><ele>195.0</ele><time>2026-05-03T10:53:13.722Z</time></trkpt><trkpt lat="43.3136778" lon="11.4122059"><ele>195.0</ele><time>2026-05-03T10:53:14.718Z</time></trkpt><trkpt lat="43.3137383" lon="11.4122757"><ele>195.0</ele><time>2026-05-03T10:53:15.73Z</time></trkpt><trkpt lat="43.3137967" lon="11.4123093"><ele>195.0</ele><time>2026-05-03T10:53:16.721Z</time></trkpt><trkpt lat="43.3138697" lon="11.412288"><ele>195.0</ele><time>2026-05-03T10:53:18.721Z</time></trkpt><trkpt lat="43.3139144" lon="11.4121738"><ele>195.0</ele><time>2026-05-03T10:53:20.713Z</time></trkpt><trkpt lat="43.3139551" lon="11.4121056"><ele>195.0</ele><time>2026-05-03T10:53:21.745Z</time></trkpt><trkpt lat="43.3140039" lon="11.4120284"><ele>195.0</ele><time>2026-05-03T10:53:22.722Z</time></trkpt><trkpt lat="43.3140652" lon="11.4119472"><ele>196.0</ele><time>2026-05-03T10:53:23.727Z</time></trkpt><trkpt lat="43.3141298" lon="11.4118647"><ele>197.0</ele><time>2026-05-03T10:53:24.717Z</time></trkpt><trkpt lat="43.3142069" lon="11.4117716"><ele>198.0</ele><time>2026-05-03T10:53:25.724Z</time></trkpt><trkpt lat="43.314295" lon="11.411678"><ele>199.0</ele><time>2026-05-03T10:53:26.712Z</time></trkpt><trkpt lat="43.3143937" lon="11.4115941"><ele>200.0</ele><time>2026-05-03T10:53:27.716Z</time></trkpt><trkpt lat="43.3145001" lon="11.4115287"><ele>200.0</ele><time>2026-05-03T10:53:28.711Z</time></trkpt><trkpt lat="43.3146076" lon="11.4114781"><ele>200.0</ele><time>2026-05-03T10:53:29.724Z</time></trkpt><trkpt lat="43.3147206" lon="11.4114307"><ele>200.0</ele><time>2026-05-03T10:53:30.71Z</time></trkpt><trkpt lat="43.31484" lon="11.4113835"><ele>200.0</ele><time>2026-05-03T10:53:31.718Z</time></trkpt><trkpt lat="43.3149617" lon="11.4113333"><ele>202.5</ele><time>2026-05-03T10:53:32.711Z</time></trkpt><trkpt lat="43.3150848" lon="11.4112827"><ele>205.0</ele><time>2026-05-03T10:53:33.72Z</time></trkpt><trkpt lat="43.3152075" lon="11.4112352"><ele>207.5</ele><time>2026-05-03T10:53:34.714Z</time></trkpt><trkpt lat="43.3153294" lon="11.4111852"><ele>210.0</ele><time>2026-05-03T10:53:35.718Z</time></trkpt><trkpt lat="43.3154575" lon="11.4111397"><ele>212.75</ele><time>2026-05-03T10:53:36.702Z</time></trkpt><trkpt lat="43.3155906" lon="11.411091"><ele>215.5</ele><time>2026-05-03T10:53:37.727Z</time></trkpt><trkpt lat="43.3157277" lon="11.4110401"><ele>218.25</ele><time>2026-05-03T10:53:38.722Z</time></trkpt><trkpt lat="43.3158657" lon="11.4109874"><ele>221.0</ele><time>2026-05-03T10:53:39.725Z</time></trkpt><trkpt lat="43.3160028" lon="11.410933"><ele>221.0</ele><time>2026-05-03T10:53:40.717Z</time></trkpt><trkpt lat="43.316137" lon="11.4108831"><ele>221.0</ele><time>2026-05-03T10:53:41.734Z</time></trkpt><trkpt lat="43.3162655" lon="11.4108325"><ele>221.0</ele><time>2026-05-03T10:53:42.717Z</time></trkpt><trkpt lat="43.3163914" lon="11.4107797"><ele>221.0</ele><time>2026-05-03T10:53:43.722Z</time></trkpt><trkpt lat="43.3165172" lon="11.4107332"><ele>223.0</ele><time>2026-05-03T10:53:44.733Z</time></trkpt><trkpt lat="43.3166411" lon="11.410696"><ele>225.0</ele><time>2026-05-03T10:53:45.721Z</time></trkpt><trkpt lat="43.3167684" lon="11.4106682"><ele>227.0</ele><time>2026-05-03T10:53:46.704Z</time></trkpt><trkpt lat="43.3169007" lon="11.4106389"><ele>229.0</ele><time>2026-05-03T10:53:47.709Z</time></trkpt><trkpt lat="43.3170386" lon="11.4106087"><ele>229.0</ele><time>2026-05-03T10:53:48.717Z</time></trkpt><trkpt lat="43.3171819" lon="11.4105802"><ele>229.0</ele><time>2026-05-03T10:53:49.716Z</time></trkpt><trkpt lat="43.31733" lon="11.4105614"><ele>229.0</ele><time>2026-05-03T10:53:50.722Z</time></trkpt><trkpt lat="43.3174772" lon="11.4105546"><ele>229.0</ele><time>2026-05-03T10:53:51.713Z</time></trkpt><trkpt lat="43.317618" lon="11.4105626"><ele>228.75</ele><time>2026-05-03T10:53:52.721Z</time></trkpt><trkpt lat="43.3177545" lon="11.4105659"><ele>228.5</ele><time>2026-05-03T10:53:53.726Z</time></trkpt><trkpt lat="43.3178857" lon="11.4105611"><ele>228.25</ele><time>2026-05-03T10:53:54.729Z</time></trkpt><trkpt lat="43.3180188" lon="11.4105399"><ele>228.0</ele><time>2026-05-03T10:53:55.72Z</time></trkpt><trkpt lat="43.318157" lon="11.4105117"><ele>228.0</ele><time>2026-05-03T10:53:56.725Z</time></trkpt><trkpt lat="43.3182953" lon="11.4104861"><ele>228.0</ele><time>2026-05-03T10:53:57.716Z</time></trkpt><trkpt lat="43.3184339" lon="11.4104647"><ele>228.0</ele><time>2026-05-03T10:53:58.719Z</time></trkpt><trkpt lat="43.3185666" lon="11.4104468"><ele>228.0</ele><time>2026-05-03T10:53:59.719Z</time></trkpt><trkpt lat="43.3186982" lon="11.4104348"><ele>228.0</ele><time>2026-05-03T10:54:00.723Z</time></trkpt><trkpt lat="43.3188317" lon="11.4104225"><ele>228.0</ele><time>2026-05-03T10:54:01.729Z</time></trkpt><trkpt lat="43.3189666" lon="11.4104033"><ele>228.0</ele><time>2026-05-03T10:54:02.714Z</time></trkpt><trkpt lat="43.319101" lon="11.4103762"><ele>228.0</ele><time>2026-05-03T10:54:03.724Z</time></trkpt><trkpt lat="43.3192382" lon="11.4103404"><ele>226.5</ele><time>2026-05-03T10:54:04.72Z</time></trkpt><trkpt lat="43.3193797" lon="11.4103038"><ele>225.0</ele><time>2026-05-03T10:54:05.721Z</time></trkpt><trkpt lat="43.3195238" lon="11.4102666"><ele>223.5</ele><time>2026-05-03T10:54:06.724Z</time></trkpt><trkpt lat="43.319669" lon="11.4102291"><ele>222.0</ele><time>2026-05-03T10:54:07.729Z</time></trkpt><trkpt lat="43.3198084" lon="11.4101876"><ele>221.75</ele><time>2026-05-03T10:54:08.726Z</time></trkpt><trkpt lat="43.319941" lon="11.4101425"><ele>221.5</ele><time>2026-05-03T10:54:09.73Z</time></trkpt><trkpt lat="43.3200694" lon="11.4101057"><ele>221.25</ele><time>2026-05-03T10:54:10.725Z</time></trkpt><trkpt lat="43.3201974" lon="11.4100916"><ele>221.0</ele><time>2026-05-03T10:54:11.712Z</time></trkpt><trkpt lat="43.3203296" lon="11.4100969"><ele>221.0</ele><time>2026-05-03T10:54:12.72Z</time></trkpt><trkpt lat="43.3204687" lon="11.4101024"><ele>221.0</ele><time>2026-05-03T10:54:13.722Z</time></trkpt><trkpt lat="43.3206073" lon="11.4100875"><ele>221.0</ele><time>2026-05-03T10:54:14.736Z</time></trkpt><trkpt lat="43.3207459" lon="11.4100557"><ele>221.0</ele><time>2026-05-03T10:54:15.72Z</time></trkpt><trkpt lat="43.3208816" lon="11.4100028"><ele>222.25</ele><time>2026-05-03T10:54:16.729Z</time></trkpt><trkpt lat="43.3210099" lon="11.4099275"><ele>223.5</ele><time>2026-05-03T10:54:17.727Z</time></trkpt><trkpt lat="43.3211371" lon="11.4098612"><ele>224.75</ele><time>2026-05-03T10:54:18.717Z</time></trkpt><trkpt lat="43.3212622" lon="11.4098379"><ele>226.0</ele><time>2026-05-03T10:54:19.729Z</time></trkpt><trkpt lat="43.3213882" lon="11.4098541"><ele>228.0</ele><time>2026-05-03T10:54:20.725Z</time></trkpt><trkpt lat="43.3215201" lon="11.4098841"><ele>230.0</ele><time>2026-05-03T10:54:21.726Z</time></trkpt><trkpt lat="43.3216474" lon="11.4099184"><ele>232.0</ele><time>2026-05-03T10:54:22.716Z</time></trkpt><trkpt lat="43.3217783" lon="11.4099405"><ele>234.0</ele><time>2026-05-03T10:54:23.738Z</time></trkpt><trkpt lat="43.3219127" lon="11.4099516"><ele>234.0</ele><time>2026-05-03T10:54:24.719Z</time></trkpt><trkpt lat="43.3220417" lon="11.4099577"><ele>234.0</ele><time>2026-05-03T10:54:25.72Z</time></trkpt><trkpt lat="43.3221635" lon="11.4099498"><ele>234.0</ele><time>2026-05-03T10:54:26.714Z</time></trkpt><trkpt lat="43.3222858" lon="11.4099332"><ele>234.0</ele><time>2026-05-03T10:54:27.707Z</time></trkpt><trkpt lat="43.3224061" lon="11.4099111"><ele>235.79999999999998</ele><time>2026-05-03T10:54:28.731Z</time></trkpt><trkpt lat="43.3225233" lon="11.4098917"><ele>237.59999999999997</ele><time>2026-05-03T10:54:29.71Z</time></trkpt><trkpt lat="43.3226381" lon="11.4098812"><ele>239.4</ele><time>2026-05-03T10:54:30.71Z</time></trkpt><trkpt lat="43.3227376" lon="11.409869"><ele>241.2</ele><time>2026-05-03T10:54:31.728Z</time></trkpt><trkpt lat="43.3228222" lon="11.4098567"><ele>243.0</ele><time>2026-05-03T10:54:32.72Z</time></trkpt><trkpt lat="43.3229028" lon="11.409848"><ele>243.0</ele><time>2026-05-03T10:54:33.729Z</time></trkpt><trkpt lat="43.322981" lon="11.4098416"><ele>243.0</ele><time>2026-05-03T10:54:34.709Z</time></trkpt><trkpt lat="43.3230538" lon="11.4098313"><ele>243.0</ele><time>2026-05-03T10:54:35.731Z</time></trkpt><trkpt lat="43.323129" lon="11.4098188"><ele>243.0</ele><time>2026-05-03T10:54:36.715Z</time></trkpt><trkpt lat="43.3232074" lon="11.4098185"><ele>243.0</ele><time>2026-05-03T10:54:37.716Z</time></trkpt><trkpt lat="43.3232918" lon="11.4098296"><ele>243.0</ele><time>2026-05-03T10:54:38.727Z</time></trkpt><trkpt lat="43.3233804" lon="11.4098382"><ele>245.0</ele><time>2026-05-03T10:54:39.712Z</time></trkpt><trkpt lat="43.3234724" lon="11.4098378"><ele>247.0</ele><time>2026-05-03T10:54:40.717Z</time></trkpt><trkpt lat="43.3235687" lon="11.4098248"><ele>249.0</ele><time>2026-05-03T10:54:41.721Z</time></trkpt><trkpt lat="43.3236678" lon="11.4098027"><ele>251.0</ele><time>2026-05-03T10:54:42.726Z</time></trkpt><trkpt lat="43.3237688" lon="11.4097773"><ele>253.0</ele><time>2026-05-03T10:54:43.721Z</time></trkpt><trkpt lat="43.3238716" lon="11.4097536"><ele>253.4</ele><time>2026-05-03T10:54:44.712Z</time></trkpt><trkpt lat="43.323972" lon="11.409726"><ele>253.8</ele><time>2026-05-03T10:54:45.71Z</time></trkpt><trkpt lat="43.3240668" lon="11.4097038"><ele>254.2</ele><time>2026-05-03T10:54:46.716Z</time></trkpt><trkpt lat="43.3241509" lon="11.409685"><ele>254.6</ele><time>2026-05-03T10:54:47.709Z</time></trkpt><trkpt lat="43.3242333" lon="11.4096957"><ele>255.0</ele><time>2026-05-03T10:54:48.707Z</time></trkpt><trkpt lat="43.3243219" lon="11.409739"><ele>255.0</ele><time>2026-05-03T10:54:49.718Z</time></trkpt><trkpt lat="43.3244121" lon="11.4097837"><ele>255.0</ele><time>2026-05-03T10:54:50.717Z</time></trkpt><trkpt lat="43.324504" lon="11.4098308"><ele>255.0</ele><time>2026-05-03T10:54:51.722Z</time></trkpt><trkpt lat="43.3245919" lon="11.4098893"><ele>255.0</ele><time>2026-05-03T10:54:52.7Z</time></trkpt><trkpt lat="43.3246779" lon="11.4099659"><ele>255.0</ele><time>2026-05-03T10:54:53.72Z</time></trkpt><trkpt lat="43.3247654" lon="11.4100594"><ele>253.5</ele><time>2026-05-03T10:54:54.717Z</time></trkpt><trkpt lat="43.324854" lon="11.4101537"><ele>252.0</ele><time>2026-05-03T10:54:55.73Z</time></trkpt><trkpt lat="43.3249495" lon="11.4102451"><ele>250.5</ele><time>2026-05-03T10:54:56.718Z</time></trkpt><trkpt lat="43.3250489" lon="11.4103249"><ele>249.0</ele><time>2026-05-03T10:54:57.724Z</time></trkpt><trkpt lat="43.3251486" lon="11.4104043"><ele>249.0</ele><time>2026-05-03T10:54:58.722Z</time></trkpt><trkpt lat="43.3252441" lon="11.4104741"><ele>248.99999999999997</ele><time>2026-05-03T10:54:59.716Z</time></trkpt><trkpt lat="43.3253335" lon="11.4105409"><ele>248.99999999999997</ele><time>2026-05-03T10:55:00.698Z</time></trkpt><trkpt lat="43.3254148" lon="11.4105948"><ele>249.0</ele><time>2026-05-03T10:55:01.714Z</time></trkpt><trkpt lat="43.3254839" lon="11.4106554"><ele>249.0</ele><time>2026-05-03T10:55:02.705Z</time></trkpt><trkpt lat="43.3255454" lon="11.4107042"><ele>249.0</ele><time>2026-05-03T10:55:03.725Z</time></trkpt><trkpt lat="43.3256032" lon="11.4107436"><ele>249.0</ele><time>2026-05-03T10:55:04.72Z</time></trkpt><trkpt lat="43.3257021" lon="11.4107719"><ele>249.0</ele><time>2026-05-03T10:55:06.709Z</time></trkpt><trkpt lat="43.3257801" lon="11.41075"><ele>249.0</ele><time>2026-05-03T10:55:08.714Z</time></trkpt><trkpt lat="43.3258455" lon="11.4108179"><ele>249.0</ele><time>2026-05-03T10:58:43.726Z</time></trkpt><trkpt lat="43.325816" lon="11.4109812"><ele>249.0</ele><time>2026-05-03T10:58:45.715Z</time></trkpt><trkpt lat="43.3257852" lon="11.4110994"><ele>249.0</ele><time>2026-05-03T10:58:46.719Z</time></trkpt><trkpt lat="43.3257559" lon="11.4112503"><ele>249.0</ele><time>2026-05-03T10:58:47.724Z</time></trkpt><trkpt lat="43.3257209" lon="11.4114132"><ele>249.0</ele><time>2026-05-03T10:58:48.71Z</time></trkpt><trkpt lat="43.3256854" lon="11.4115897"><ele>249.0</ele><time>2026-05-03T10:58:49.719Z</time></trkpt><trkpt lat="43.3256495" lon="11.411766"><ele>249.25</ele><time>2026-05-03T10:58:50.722Z</time></trkpt><trkpt lat="43.3256186" lon="11.4119398"><ele>249.5</ele><time>2026-05-03T10:58:51.733Z</time></trkpt><trkpt lat="43.3255841" lon="11.4121136"><ele>249.75</ele><time>2026-05-03T10:58:52.726Z</time></trkpt><trkpt lat="43.3255513" lon="11.4122841"><ele>250.0</ele><time>2026-05-03T10:58:53.729Z</time></trkpt><trkpt lat="43.3255188" lon="11.4124394"><ele>250.4</ele><time>2026-05-03T10:58:54.718Z</time></trkpt><trkpt lat="43.3254879" lon="11.4125837"><ele>250.8</ele><time>2026-05-03T10:58:55.715Z</time></trkpt><trkpt lat="43.3254583" lon="11.4127269"><ele>251.2</ele><time>2026-05-03T10:58:56.699Z</time></trkpt><trkpt lat="43.3254248" lon="11.4128723"><ele>251.6</ele><time>2026-05-03T10:58:57.717Z</time></trkpt><trkpt lat="43.3253972" lon="11.4130198"><ele>252.0</ele><time>2026-05-03T10:58:58.703Z</time></trkpt><trkpt lat="43.3253802" lon="11.4131787"><ele>253.25</ele><time>2026-05-03T10:58:59.716Z</time></trkpt><trkpt lat="43.3253802" lon="11.4133466"><ele>254.5</ele><time>2026-05-03T10:59:00.712Z</time></trkpt><trkpt lat="43.325394" lon="11.4135197"><ele>255.75</ele><time>2026-05-03T10:59:01.702Z</time></trkpt><trkpt lat="43.3254167" lon="11.4136956"><ele>257.0</ele><time>2026-05-03T10:59:02.708Z</time></trkpt><trkpt lat="43.3254408" lon="11.4138718"><ele>257.75</ele><time>2026-05-03T10:59:03.715Z</time></trkpt><trkpt lat="43.3254674" lon="11.4140528"><ele>258.5</ele><time>2026-05-03T10:59:04.722Z</time></trkpt><trkpt lat="43.3254833" lon="11.414235"><ele>259.25</ele><time>2026-05-03T10:59:05.719Z</time></trkpt><trkpt lat="43.3254894" lon="11.4144109"><ele>260.0</ele><time>2026-05-03T10:59:06.718Z</time></trkpt><trkpt lat="43.3254912" lon="11.4145861"><ele>260.5</ele><time>2026-05-03T10:59:07.726Z</time></trkpt><trkpt lat="43.3254946" lon="11.4147657"><ele>261.0</ele><time>2026-05-03T10:59:08.709Z</time></trkpt><trkpt lat="43.3255044" lon="11.41495"><ele>261.5</ele><time>2026-05-03T10:59:09.703Z</time></trkpt><trkpt lat="43.3255269" lon="11.41513"><ele>262.0</ele><time>2026-05-03T10:59:10.71Z</time></trkpt><trkpt lat="43.325563" lon="11.4152817"><ele>258.75</ele><time>2026-05-03T10:59:11.714Z</time></trkpt><trkpt lat="43.3256028" lon="11.41542"><ele>255.5</ele><time>2026-05-03T10:59:12.726Z</time></trkpt><trkpt lat="43.3256431" lon="11.4155687"><ele>252.25</ele><time>2026-05-03T10:59:13.721Z</time></trkpt><trkpt lat="43.3256693" lon="11.4157213"><ele>249.0</ele><time>2026-05-03T10:59:14.724Z</time></trkpt><trkpt lat="43.3256821" lon="11.4158785"><ele>249.0</ele><time>2026-05-03T10:59:15.721Z</time></trkpt><trkpt lat="43.3256903" lon="11.416022"><ele>248.99999999999997</ele><time>2026-05-03T10:59:16.706Z</time></trkpt><trkpt lat="43.3256928" lon="11.4161309"><ele>248.99999999999997</ele><time>2026-05-03T10:59:17.724Z</time></trkpt><trkpt lat="43.3256886" lon="11.4162206"><ele>249.0</ele><time>2026-05-03T10:59:18.717Z</time></trkpt><trkpt lat="43.3256748" lon="11.4163752"><ele>249.0</ele><time>2026-05-03T10:59:20.712Z</time></trkpt><trkpt lat="43.3256814" lon="11.4165279"><ele>247.6</ele><time>2026-05-03T10:59:22.71Z</time></trkpt><trkpt lat="43.3257029" lon="11.4166729"><ele>246.2</ele><time>2026-05-03T10:59:24.711Z</time></trkpt><trkpt lat="43.3257131" lon="11.4168466"><ele>244.79999999999998</ele><time>2026-05-03T10:59:26.721Z</time></trkpt><trkpt lat="43.3257216" lon="11.4169543"><ele>243.39999999999998</ele><time>2026-05-03T10:59:27.718Z</time></trkpt><trkpt lat="43.325739" lon="11.4170885"><ele>242.0</ele><time>2026-05-03T10:59:28.708Z</time></trkpt><trkpt lat="43.3257606" lon="11.417252"><ele>240.0</ele><time>2026-05-03T10:59:29.732Z</time></trkpt><trkpt lat="43.3257908" lon="11.417436"><ele>238.0</ele><time>2026-05-03T10:59:30.706Z</time></trkpt><trkpt lat="43.3258323" lon="11.4176167"><ele>236.0</ele><time>2026-05-03T10:59:31.72Z</time></trkpt><trkpt lat="43.3258674" lon="11.4177826"><ele>234.0</ele><time>2026-05-03T10:59:32.723Z</time></trkpt><trkpt lat="43.3258995" lon="11.417932"><ele>232.39999999999998</ele><time>2026-05-03T10:59:33.723Z</time></trkpt><trkpt lat="43.3259182" lon="11.4180778"><ele>230.79999999999998</ele><time>2026-05-03T10:59:34.715Z</time></trkpt><trkpt lat="43.3259147" lon="11.4182192"><ele>229.20000000000002</ele><time>2026-05-03T10:59:35.715Z</time></trkpt><trkpt lat="43.3258856" lon="11.4183493"><ele>227.60000000000002</ele><time>2026-05-03T10:59:36.71Z</time></trkpt><trkpt lat="43.3258197" lon="11.4184602"><ele>226.0</ele><time>2026-05-03T10:59:37.706Z</time></trkpt><trkpt lat="43.3257402" lon="11.418531"><ele>225.99999999999997</ele><time>2026-05-03T10:59:38.717Z</time></trkpt><trkpt lat="43.325659" lon="11.4185928"><ele>226.0</ele><time>2026-05-03T10:59:39.723Z</time></trkpt><trkpt lat="43.3255854" lon="11.4186517"><ele>226.0</ele><time>2026-05-03T10:59:40.717Z</time></trkpt><trkpt lat="43.3255313" lon="11.4187218"><ele>226.0</ele><time>2026-05-03T10:59:41.717Z</time></trkpt><trkpt lat="43.3254822" lon="11.4188209"><ele>225.99999999999997</ele><time>2026-05-03T10:59:42.709Z</time></trkpt><trkpt lat="43.3254572" lon="11.4189238"><ele>226.0</ele><time>2026-05-03T10:59:43.706Z</time></trkpt><trkpt lat="43.3254485" lon="11.4190352"><ele>225.4</ele><time>2026-05-03T10:59:44.717Z</time></trkpt><trkpt lat="43.3254705" lon="11.4191678"><ele>224.8</ele><time>2026-05-03T10:59:45.701Z</time></trkpt><trkpt lat="43.3255058" lon="11.4193127"><ele>224.20000000000002</ele><time>2026-05-03T10:59:46.723Z</time></trkpt><trkpt lat="43.3255465" lon="11.4194651"><ele>223.60000000000002</ele><time>2026-05-03T10:59:47.719Z</time></trkpt><trkpt lat="43.3255857" lon="11.4196201"><ele>223.0</ele><time>2026-05-03T10:59:48.715Z</time></trkpt><trkpt lat="43.325626" lon="11.4197806"><ele>220.5</ele><time>2026-05-03T10:59:49.711Z</time></trkpt><trkpt lat="43.3256531" lon="11.4199493"><ele>218.0</ele><time>2026-05-03T10:59:50.71Z</time></trkpt><trkpt lat="43.3256671" lon="11.4201176"><ele>215.5</ele><time>2026-05-03T10:59:51.71Z</time></trkpt><trkpt lat="43.3256727" lon="11.4202841"><ele>213.0</ele><time>2026-05-03T10:59:52.705Z</time></trkpt><trkpt lat="43.3256763" lon="11.4204412"><ele>211.5</ele><time>2026-05-03T10:59:53.713Z</time></trkpt><trkpt lat="43.3256944" lon="11.4205998"><ele>210.0</ele><time>2026-05-03T10:59:54.725Z</time></trkpt><trkpt lat="43.3257204" lon="11.4207689"><ele>208.5</ele><time>2026-05-03T10:59:55.731Z</time></trkpt><trkpt lat="43.3257599" lon="11.4209499"><ele>207.0</ele><time>2026-05-03T10:59:56.715Z</time></trkpt><trkpt lat="43.325805" lon="11.4211331"><ele>206.0</ele><time>2026-05-03T10:59:57.726Z</time></trkpt><trkpt lat="43.3258463" lon="11.4213235"><ele>205.0</ele><time>2026-05-03T10:59:58.709Z</time></trkpt><trkpt lat="43.3258854" lon="11.4215136"><ele>204.0</ele><time>2026-05-03T10:59:59.713Z</time></trkpt><trkpt lat="43.3259207" lon="11.4217056"><ele>203.0</ele><time>2026-05-03T11:00:00.724Z</time></trkpt><trkpt lat="43.3259468" lon="11.4219191"><ele>203.0</ele><time>2026-05-03T11:00:01.729Z</time></trkpt><trkpt lat="43.3259618" lon="11.4221395"><ele>203.0</ele><time>2026-05-03T11:00:02.712Z</time></trkpt><trkpt lat="43.3259655" lon="11.4223646"><ele>203.0</ele><time>2026-05-03T11:00:03.725Z</time></trkpt><trkpt lat="43.325976" lon="11.4226039"><ele>201.33333333333334</ele><time>2026-05-03T11:00:04.738Z</time></trkpt><trkpt lat="43.3259894" lon="11.4228524"><ele>199.66666666666669</ele><time>2026-05-03T11:00:05.715Z</time></trkpt><trkpt lat="43.3260171" lon="11.423105"><ele>198.0</ele><time>2026-05-03T11:00:06.72Z</time></trkpt><trkpt lat="43.3260691" lon="11.4233557"><ele>197.33333333333331</ele><time>2026-05-03T11:00:07.725Z</time></trkpt><trkpt lat="43.3261246" lon="11.4235989"><ele>196.66666666666666</ele><time>2026-05-03T11:00:08.715Z</time></trkpt><trkpt lat="43.3261683" lon="11.4238181"><ele>196.0</ele><time>2026-05-03T11:00:09.732Z</time></trkpt><trkpt lat="43.3261955" lon="11.4240289"><ele>196.0</ele><time>2026-05-03T11:00:10.719Z</time></trkpt><trkpt lat="43.326207" lon="11.4242264"><ele>196.0</ele><time>2026-05-03T11:00:11.73Z</time></trkpt><trkpt lat="43.3261928" lon="11.4244241"><ele>196.0</ele><time>2026-05-03T11:00:12.715Z</time></trkpt><trkpt lat="43.3261603" lon="11.424621"><ele>196.0</ele><time>2026-05-03T11:00:13.726Z</time></trkpt><trkpt lat="43.3261036" lon="11.4248113"><ele>196.66666666666666</ele><time>2026-05-03T11:00:14.719Z</time></trkpt><trkpt lat="43.3260093" lon="11.4249838"><ele>197.33333333333331</ele><time>2026-05-03T11:00:15.705Z</time></trkpt><trkpt lat="43.3258879" lon="11.4251424"><ele>198.0</ele><time>2026-05-03T11:00:16.71Z</time></trkpt><trkpt lat="43.3257274" lon="11.4252869"><ele>197.33333333333331</ele><time>2026-05-03T11:00:17.708Z</time></trkpt><trkpt lat="43.3255358" lon="11.4254147"><ele>196.66666666666666</ele><time>2026-05-03T11:00:18.711Z</time></trkpt><trkpt lat="43.3253384" lon="11.4255332"><ele>196.0</ele><time>2026-05-03T11:00:19.721Z</time></trkpt><trkpt lat="43.3251473" lon="11.4256507"><ele>196.0</ele><time>2026-05-03T11:00:20.723Z</time></trkpt><trkpt lat="43.3249543" lon="11.4257673"><ele>196.0</ele><time>2026-05-03T11:00:21.71Z</time></trkpt><trkpt lat="43.3247705" lon="11.4258872"><ele>196.0</ele><time>2026-05-03T11:00:22.716Z</time></trkpt><trkpt lat="43.3245994" lon="11.4260019"><ele>197.0</ele><time>2026-05-03T11:00:23.715Z</time></trkpt><trkpt lat="43.3244507" lon="11.4260943"><ele>198.0</ele><time>2026-05-03T11:00:24.718Z</time></trkpt><trkpt lat="43.3243096" lon="11.4261704"><ele>199.0</ele><time>2026-05-03T11:00:25.723Z</time></trkpt><trkpt lat="43.3241763" lon="11.4262121"><ele>199.0</ele><time>2026-05-03T11:00:26.714Z</time></trkpt><trkpt lat="43.3240307" lon="11.4261968"><ele>199.0</ele><time>2026-05-03T11:00:27.712Z</time></trkpt><trkpt lat="43.323872" lon="11.4261387"><ele>199.0</ele><time>2026-05-03T11:00:28.712Z</time></trkpt><trkpt lat="43.3237057" lon="11.4260736"><ele>200.66666666666666</ele><time>2026-05-03T11:00:29.716Z</time></trkpt><trkpt lat="43.3235366" lon="11.4260393"><ele>202.33333333333331</ele><time>2026-05-03T11:00:30.715Z</time></trkpt><trkpt lat="43.3233848" lon="11.4260277"><ele>204.0</ele><time>2026-05-03T11:00:31.698Z</time></trkpt><trkpt lat="43.323249" lon="11.4260743"><ele>204.0</ele><time>2026-05-03T11:00:32.711Z</time></trkpt><trkpt lat="43.3231538" lon="11.4261541"><ele>204.0</ele><time>2026-05-03T11:00:33.717Z</time></trkpt><trkpt lat="43.3231049" lon="11.4262778"><ele>204.0</ele><time>2026-05-03T11:00:34.71Z</time></trkpt><trkpt lat="43.3230988" lon="11.4264274"><ele>204.0</ele><time>2026-05-03T11:00:35.701Z</time></trkpt><trkpt lat="43.3231263" lon="11.4265988"><ele>207.33333333333331</ele><time>2026-05-03T11:00:36.713Z</time></trkpt><trkpt lat="43.3231812" lon="11.4267834"><ele>210.66666666666666</ele><time>2026-05-03T11:00:37.706Z</time></trkpt><trkpt lat="43.3232574" lon="11.4269652"><ele>214.0</ele><time>2026-05-03T11:00:38.701Z</time></trkpt><trkpt lat="43.3233353" lon="11.4271493"><ele>215.25</ele><time>2026-05-03T11:00:39.712Z</time></trkpt><trkpt lat="43.3233977" lon="11.4273311"><ele>216.5</ele><time>2026-05-03T11:00:40.706Z</time></trkpt><trkpt lat="43.3234302" lon="11.427509"><ele>217.75</ele><time>2026-05-03T11:00:41.707Z</time></trkpt><trkpt lat="43.3234257" lon="11.4276891"><ele>219.0</ele><time>2026-05-03T11:00:42.71Z</time></trkpt><trkpt lat="43.3233893" lon="11.4278711"><ele>220.0</ele><time>2026-05-03T11:00:43.707Z</time></trkpt><trkpt lat="43.3233514" lon="11.4280507"><ele>221.0</ele><time>2026-05-03T11:00:44.709Z</time></trkpt><trkpt lat="43.3233194" lon="11.4282388"><ele>222.0</ele><time>2026-05-03T11:00:45.721Z</time></trkpt><trkpt lat="43.3232831" lon="11.4284329"><ele>223.0</ele><time>2026-05-03T11:00:46.703Z</time></trkpt><trkpt lat="43.3232429" lon="11.4286467"><ele>222.33333333333331</ele><time>2026-05-03T11:00:47.712Z</time></trkpt><trkpt lat="43.3231836" lon="11.4288564"><ele>221.66666666666669</ele><time>2026-05-03T11:00:48.718Z</time></trkpt><trkpt lat="43.3231125" lon="11.4290756"><ele>221.0</ele><time>2026-05-03T11:00:49.708Z</time></trkpt><trkpt lat="43.3230363" lon="11.4293083"><ele>221.0</ele><time>2026-05-03T11:00:50.713Z</time></trkpt><trkpt lat="43.3229612" lon="11.4295399"><ele>221.0</ele><time>2026-05-03T11:00:51.694Z</time></trkpt><trkpt lat="43.3228982" lon="11.4297396"><ele>221.0</ele><time>2026-05-03T11:00:52.693Z</time></trkpt><trkpt lat="43.3228583" lon="11.4299052"><ele>221.50000000000003</ele><time>2026-05-03T11:00:53.695Z</time></trkpt><trkpt lat="43.3228426" lon="11.4300418"><ele>222.0</ele><time>2026-05-03T11:00:54.698Z</time></trkpt><trkpt lat="43.3228369" lon="11.4301623"><ele>222.5</ele><time>2026-05-03T11:00:55.696Z</time></trkpt><trkpt lat="43.3228306" lon="11.4302758"><ele>223.0</ele><time>2026-05-03T11:00:56.695Z</time></trkpt><trkpt lat="43.3228212" lon="11.4303661"><ele>223.50000000000003</ele><time>2026-05-03T11:00:57.716Z</time></trkpt><trkpt lat="43.3228115" lon="11.4305039"><ele>224.0</ele><time>2026-05-03T11:00:59.722Z</time></trkpt><trkpt lat="43.3228106" lon="11.4306039"><ele>224.00000000000003</ele><time>2026-05-03T11:01:01.706Z</time></trkpt><trkpt lat="43.3228104" lon="11.4307027"><ele>224.0</ele><time>2026-05-03T11:01:04.715Z</time></trkpt><trkpt lat="43.3228794" lon="11.4307956"><ele>224.0</ele><time>2026-05-03T11:01:06.716Z</time></trkpt><trkpt lat="43.3229548" lon="11.4308192"><ele>224.0</ele><time>2026-05-03T11:01:07.718Z</time></trkpt><trkpt lat="43.3230399" lon="11.4308454"><ele>224.00000000000003</ele><time>2026-05-03T11:01:08.703Z</time></trkpt><trkpt lat="43.3231413" lon="11.4308847"><ele>224.0</ele><time>2026-05-03T11:01:09.721Z</time></trkpt><trkpt lat="43.3232576" lon="11.4309296"><ele>227.66666666666669</ele><time>2026-05-03T11:01:10.727Z</time></trkpt><trkpt lat="43.3233919" lon="11.4309866"><ele>231.33333333333331</ele><time>2026-05-03T11:01:11.72Z</time></trkpt><trkpt lat="43.3235404" lon="11.4310515"><ele>235.0</ele><time>2026-05-03T11:01:12.705Z</time></trkpt><trkpt lat="43.3237003" lon="11.4311139"><ele>235.0</ele><time>2026-05-03T11:01:13.713Z</time></trkpt><trkpt lat="43.3238624" lon="11.4311816"><ele>235.0</ele><time>2026-05-03T11:01:14.717Z</time></trkpt><trkpt lat="43.3240163" lon="11.4312473"><ele>235.0</ele><time>2026-05-03T11:01:15.708Z</time></trkpt><trkpt lat="43.3241618" lon="11.4313104"><ele>237.33333333333331</ele><time>2026-05-03T11:01:16.714Z</time></trkpt><trkpt lat="43.3243161" lon="11.431355"><ele>239.66666666666669</ele><time>2026-05-03T11:01:17.726Z</time></trkpt><trkpt lat="43.3244881" lon="11.4313591"><ele>242.0</ele><time>2026-05-03T11:01:18.703Z</time></trkpt><trkpt lat="43.3246801" lon="11.4313358"><ele>243.33333333333334</ele><time>2026-05-03T11:01:19.703Z</time></trkpt><trkpt lat="43.3248834" lon="11.4313172"><ele>244.66666666666669</ele><time>2026-05-03T11:01:20.723Z</time></trkpt><trkpt lat="43.3250816" lon="11.4312976"><ele>246.0</ele><time>2026-05-03T11:01:21.726Z</time></trkpt><trkpt lat="43.3252639" lon="11.4312864"><ele>247.0</ele><time>2026-05-03T11:01:22.718Z</time></trkpt><trkpt lat="43.3254176" lon="11.4312755"><ele>248.0</ele><time>2026-05-03T11:01:23.722Z</time></trkpt><trkpt lat="43.3255567" lon="11.431266"><ele>249.0</ele><time>2026-05-03T11:01:24.712Z</time></trkpt><trkpt lat="43.3256881" lon="11.4312577"><ele>250.0</ele><time>2026-05-03T11:01:25.719Z</time></trkpt><trkpt lat="43.3258162" lon="11.4312628"><ele>250.5</ele><time>2026-05-03T11:01:26.71Z</time></trkpt><trkpt lat="43.3259475" lon="11.4312789"><ele>251.0</ele><time>2026-05-03T11:01:27.718Z</time></trkpt><trkpt lat="43.3260647" lon="11.4313045"><ele>251.5</ele><time>2026-05-03T11:01:28.728Z</time></trkpt><trkpt lat="43.3261661" lon="11.4313454"><ele>252.0</ele><time>2026-05-03T11:01:29.721Z</time></trkpt><trkpt lat="43.3262569" lon="11.4313793"><ele>251.66666666666666</ele><time>2026-05-03T11:01:30.714Z</time></trkpt><trkpt lat="43.3263388" lon="11.4314027"><ele>251.33333333333331</ele><time>2026-05-03T11:01:31.719Z</time></trkpt><trkpt lat="43.3264164" lon="11.4314262"><ele>251.0</ele><time>2026-05-03T11:01:32.715Z</time></trkpt><trkpt lat="43.3264867" lon="11.431438"><ele>250.66666666666666</ele><time>2026-05-03T11:01:33.72Z</time></trkpt><trkpt lat="43.3265659" lon="11.4314547"><ele>250.33333333333331</ele><time>2026-05-03T11:01:34.718Z</time></trkpt><trkpt lat="43.3266747" lon="11.4314887"><ele>250.0</ele><time>2026-05-03T11:01:35.725Z</time></trkpt><trkpt lat="43.3268031" lon="11.4315483"><ele>250.0</ele><time>2026-05-03T11:01:36.716Z</time></trkpt><trkpt lat="43.3269394" lon="11.4316161"><ele>250.0</ele><time>2026-05-03T11:01:37.717Z</time></trkpt><trkpt lat="43.3270888" lon="11.4316769"><ele>250.0</ele><time>2026-05-03T11:01:38.714Z</time></trkpt><trkpt lat="43.3272372" lon="11.4317299"><ele>251.25</ele><time>2026-05-03T11:01:39.734Z</time></trkpt><trkpt lat="43.3273829" lon="11.4317763"><ele>252.5</ele><time>2026-05-03T11:01:40.703Z</time></trkpt><trkpt lat="43.3275296" lon="11.4318202"><ele>253.75</ele><time>2026-05-03T11:01:41.715Z</time></trkpt><trkpt lat="43.3276741" lon="11.4318664"><ele>255.0</ele><time>2026-05-03T11:01:42.721Z</time></trkpt><trkpt lat="43.3278259" lon="11.4319166"><ele>255.0</ele><time>2026-05-03T11:01:43.726Z</time></trkpt><trkpt lat="43.3279661" lon="11.4319694"><ele>255.0</ele><time>2026-05-03T11:01:44.702Z</time></trkpt><trkpt lat="43.3281035" lon="11.4320184"><ele>255.0</ele><time>2026-05-03T11:01:45.714Z</time></trkpt><trkpt lat="43.3282415" lon="11.432069"><ele>255.0</ele><time>2026-05-03T11:01:46.714Z</time></trkpt><trkpt lat="43.328374" lon="11.4321184"><ele>255.0</ele><time>2026-05-03T11:01:47.718Z</time></trkpt><trkpt lat="43.3285088" lon="11.4321659"><ele>255.0</ele><time>2026-05-03T11:01:48.714Z</time></trkpt><trkpt lat="43.3286414" lon="11.4322133"><ele>255.0</ele><time>2026-05-03T11:01:49.733Z</time></trkpt><trkpt lat="43.3287732" lon="11.4322592"><ele>255.0</ele><time>2026-05-03T11:01:50.721Z</time></trkpt><trkpt lat="43.3289057" lon="11.4323131"><ele>255.5</ele><time>2026-05-03T11:01:51.71Z</time></trkpt><trkpt lat="43.3290392" lon="11.4323663"><ele>256.0</ele><time>2026-05-03T11:01:52.708Z</time></trkpt><trkpt lat="43.3291732" lon="11.4324241"><ele>256.5</ele><time>2026-05-03T11:01:53.722Z</time></trkpt><trkpt lat="43.3292996" lon="11.4324806"><ele>257.0</ele><time>2026-05-03T11:01:54.715Z</time></trkpt><trkpt lat="43.3294194" lon="11.4325239"><ele>257.0</ele><time>2026-05-03T11:01:55.718Z</time></trkpt><trkpt lat="43.3295318" lon="11.4325563"><ele>257.0</ele><time>2026-05-03T11:01:56.704Z</time></trkpt><trkpt lat="43.3296465" lon="11.4325777"><ele>257.0</ele><time>2026-05-03T11:01:57.703Z</time></trkpt><trkpt lat="43.3297704" lon="11.432585"><ele>257.0</ele><time>2026-05-03T11:01:58.713Z</time></trkpt><trkpt lat="43.3299091" lon="11.4325913"><ele>255.66666666666669</ele><time>2026-05-03T11:01:59.711Z</time></trkpt><trkpt lat="43.3300605" lon="11.4325999"><ele>254.33333333333331</ele><time>2026-05-03T11:02:00.715Z</time></trkpt><trkpt lat="43.3302236" lon="11.4326132"><ele>253.0</ele><time>2026-05-03T11:02:01.718Z</time></trkpt><trkpt lat="43.3303849" lon="11.4326256"><ele>253.0</ele><time>2026-05-03T11:02:02.714Z</time></trkpt><trkpt lat="43.3305558" lon="11.4326425"><ele>253.0</ele><time>2026-05-03T11:02:03.733Z</time></trkpt><trkpt lat="43.3307307" lon="11.4326579"><ele>253.0</ele><time>2026-05-03T11:02:04.719Z</time></trkpt><trkpt lat="43.3309149" lon="11.4326751"><ele>252.33333333333331</ele><time>2026-05-03T11:02:05.728Z</time></trkpt><trkpt lat="43.3311062" lon="11.432691"><ele>251.66666666666669</ele><time>2026-05-03T11:02:06.731Z</time></trkpt><trkpt lat="43.3313044" lon="11.432705"><ele>251.0</ele><time>2026-05-03T11:02:07.718Z</time></trkpt><trkpt lat="43.3315097" lon="11.4327207"><ele>250.66666666666669</ele><time>2026-05-03T11:02:08.714Z</time></trkpt><trkpt lat="43.3317218" lon="11.4327371"><ele>250.33333333333331</ele><time>2026-05-03T11:02:09.719Z</time></trkpt><trkpt lat="43.3319358" lon="11.4327526"><ele>250.0</ele><time>2026-05-03T11:02:10.723Z</time></trkpt><trkpt lat="43.3321481" lon="11.4327733"><ele>250.0</ele><time>2026-05-03T11:02:11.716Z</time></trkpt><trkpt lat="43.3323557" lon="11.4327951"><ele>250.0</ele><time>2026-05-03T11:02:12.711Z</time></trkpt><trkpt lat="43.3325439" lon="11.4328335"><ele>250.0</ele><time>2026-05-03T11:02:13.711Z</time></trkpt><trkpt lat="43.332717" lon="11.4328961"><ele>250.0</ele><time>2026-05-03T11:02:14.71Z</time></trkpt><trkpt lat="43.3328803" lon="11.4329763"><ele>250.0</ele><time>2026-05-03T11:02:15.713Z</time></trkpt><trkpt lat="43.3330319" lon="11.433066"><ele>250.0</ele><time>2026-05-03T11:02:16.716Z</time></trkpt><trkpt lat="43.3331814" lon="11.4331567"><ele>250.0</ele><time>2026-05-03T11:02:17.718Z</time></trkpt><trkpt lat="43.3333288" lon="11.4332397"><ele>250.0</ele><time>2026-05-03T11:02:18.711Z</time></trkpt><trkpt lat="43.3334839" lon="11.4332591"><ele>250.0</ele><time>2026-05-03T11:02:19.72Z</time></trkpt><trkpt lat="43.3336413" lon="11.4332249"><ele>250.0</ele><time>2026-05-03T11:02:20.709Z</time></trkpt><trkpt lat="43.333801" lon="11.4331583"><ele>250.0</ele><time>2026-05-03T11:02:21.704Z</time></trkpt><trkpt lat="43.3339558" lon="11.4330683"><ele>250.0</ele><time>2026-05-03T11:02:22.711Z</time></trkpt><trkpt lat="43.3341182" lon="11.4329723"><ele>250.33333333333331</ele><time>2026-05-03T11:02:23.719Z</time></trkpt><trkpt lat="43.3342921" lon="11.4328705"><ele>250.66666666666669</ele><time>2026-05-03T11:02:24.709Z</time></trkpt><trkpt lat="43.334469" lon="11.4327681"><ele>251.0</ele><time>2026-05-03T11:02:25.712Z</time></trkpt><trkpt lat="43.3346377" lon="11.432673"><ele>251.33333333333334</ele><time>2026-05-03T11:02:26.698Z</time></trkpt><trkpt lat="43.3347928" lon="11.4325874"><ele>251.66666666666669</ele><time>2026-05-03T11:02:27.713Z</time></trkpt><trkpt lat="43.3349402" lon="11.4325025"><ele>252.0</ele><time>2026-05-03T11:02:28.718Z</time></trkpt><trkpt lat="43.3350843" lon="11.4324207"><ele>252.0</ele><time>2026-05-03T11:02:29.716Z</time></trkpt><trkpt lat="43.3352245" lon="11.4323427"><ele>252.0</ele><time>2026-05-03T11:02:30.709Z</time></trkpt><trkpt lat="43.3353604" lon="11.432268"><ele>252.0</ele><time>2026-05-03T11:02:31.71Z</time></trkpt><trkpt lat="43.3354946" lon="11.4321932"><ele>252.0</ele><time>2026-05-03T11:02:32.712Z</time></trkpt><trkpt lat="43.3356307" lon="11.4321137"><ele>253.33333333333331</ele><time>2026-05-03T11:02:33.722Z</time></trkpt><trkpt lat="43.3357735" lon="11.432031"><ele>254.66666666666666</ele><time>2026-05-03T11:02:34.72Z</time></trkpt><trkpt lat="43.3359239" lon="11.4319425"><ele>256.0</ele><time>2026-05-03T11:02:35.735Z</time></trkpt><trkpt lat="43.3360809" lon="11.4318587"><ele>256.0</ele><time>2026-05-03T11:02:36.704Z</time></trkpt><trkpt lat="43.3362437" lon="11.4317723"><ele>256.0</ele><time>2026-05-03T11:02:37.728Z</time></trkpt><trkpt lat="43.3364135" lon="11.4316808"><ele>256.0</ele><time>2026-05-03T11:02:38.726Z</time></trkpt><trkpt lat="43.3365902" lon="11.431581"><ele>254.66666666666666</ele><time>2026-05-03T11:02:39.721Z</time></trkpt><trkpt lat="43.3367721" lon="11.4314904"><ele>253.33333333333331</ele><time>2026-05-03T11:02:40.706Z</time></trkpt><trkpt lat="43.3369591" lon="11.4314202"><ele>252.0</ele><time>2026-05-03T11:02:41.722Z</time></trkpt><trkpt lat="43.3371537" lon="11.4313796"><ele>250.66666666666669</ele><time>2026-05-03T11:02:42.71Z</time></trkpt><trkpt lat="43.3373532" lon="11.4313727"><ele>249.33333333333334</ele><time>2026-05-03T11:02:43.717Z</time></trkpt><trkpt lat="43.3375469" lon="11.4313835"><ele>248.0</ele><time>2026-05-03T11:02:44.72Z</time></trkpt><trkpt lat="43.3377261" lon="11.4313876"><ele>248.0</ele><time>2026-05-03T11:02:45.72Z</time></trkpt><trkpt lat="43.3378963" lon="11.4313913"><ele>248.0</ele><time>2026-05-03T11:02:46.707Z</time></trkpt><trkpt lat="43.3380603" lon="11.431403"><ele>248.0</ele><time>2026-05-03T11:02:47.739Z</time></trkpt><trkpt lat="43.3382222" lon="11.4314326"><ele>248.66666666666669</ele><time>2026-05-03T11:02:48.719Z</time></trkpt><trkpt lat="43.3383703" lon="11.4314992"><ele>249.33333333333331</ele><time>2026-05-03T11:02:49.728Z</time></trkpt><trkpt lat="43.3385129" lon="11.4316021"><ele>250.0</ele><time>2026-05-03T11:02:50.715Z</time></trkpt><trkpt lat="43.3386525" lon="11.431742"><ele>250.0</ele><time>2026-05-03T11:02:51.711Z</time></trkpt><trkpt lat="43.3387924" lon="11.4318922"><ele>250.0</ele><time>2026-05-03T11:02:52.725Z</time></trkpt><trkpt lat="43.3389262" lon="11.432052"><ele>250.0</ele><time>2026-05-03T11:02:53.721Z</time></trkpt><trkpt lat="43.339055" lon="11.4322125"><ele>250.0</ele><time>2026-05-03T11:02:54.717Z</time></trkpt><trkpt lat="43.3391772" lon="11.4323791"><ele>250.0</ele><time>2026-05-03T11:02:55.724Z</time></trkpt><trkpt lat="43.3392924" lon="11.4325418"><ele>250.0</ele><time>2026-05-03T11:02:56.716Z</time></trkpt><trkpt lat="43.3393966" lon="11.4327107"><ele>250.0</ele><time>2026-05-03T11:02:57.727Z</time></trkpt><trkpt lat="43.3394828" lon="11.432881"><ele>250.0</ele><time>2026-05-03T11:02:58.706Z</time></trkpt><trkpt lat="43.3395625" lon="11.4330516"><ele>250.0</ele><time>2026-05-03T11:02:59.725Z</time></trkpt><trkpt lat="43.3396369" lon="11.433224"><ele>250.0</ele><time>2026-05-03T11:03:00.715Z</time></trkpt><trkpt lat="43.339708" lon="11.4334004"><ele>249.75</ele><time>2026-05-03T11:03:01.715Z</time></trkpt><trkpt lat="43.3397797" lon="11.433569"><ele>249.5</ele><time>2026-05-03T11:03:02.726Z</time></trkpt><trkpt lat="43.3398483" lon="11.4337285"><ele>249.25</ele><time>2026-05-03T11:03:03.721Z</time></trkpt><trkpt lat="43.3399134" lon="11.4338822"><ele>249.0</ele><time>2026-05-03T11:03:04.725Z</time></trkpt><trkpt lat="43.3399798" lon="11.434033"><ele>249.0</ele><time>2026-05-03T11:03:05.724Z</time></trkpt><trkpt lat="43.3400469" lon="11.4341768"><ele>249.0</ele><time>2026-05-03T11:03:06.724Z</time></trkpt><trkpt lat="43.3401184" lon="11.434303"><ele>249.0</ele><time>2026-05-03T11:03:07.716Z</time></trkpt><trkpt lat="43.3401973" lon="11.4344142"><ele>249.0</ele><time>2026-05-03T11:03:08.717Z</time></trkpt><trkpt lat="43.3402851" lon="11.4345102"><ele>249.0</ele><time>2026-05-03T11:03:09.719Z</time></trkpt><trkpt lat="43.3403859" lon="11.4345813"><ele>248.99999999999997</ele><time>2026-05-03T11:03:10.715Z</time></trkpt><trkpt lat="43.3404908" lon="11.4346225"><ele>248.99999999999997</ele><time>2026-05-03T11:03:11.713Z</time></trkpt><trkpt lat="43.3405891" lon="11.4346396"><ele>249.0</ele><time>2026-05-03T11:03:12.721Z</time></trkpt><trkpt lat="43.3406799" lon="11.4346285"><ele>249.0</ele><time>2026-05-03T11:03:13.721Z</time></trkpt><trkpt lat="43.340777" lon="11.4345998"><ele>248.0</ele><time>2026-05-03T11:03:14.719Z</time></trkpt><trkpt lat="43.3408777" lon="11.4345648"><ele>247.0</ele><time>2026-05-03T11:03:15.728Z</time></trkpt><trkpt lat="43.340988" lon="11.4345237"><ele>246.0</ele><time>2026-05-03T11:03:16.732Z</time></trkpt><trkpt lat="43.3411025" lon="11.4344805"><ele>245.0</ele><time>2026-05-03T11:03:17.717Z</time></trkpt><trkpt lat="43.3412233" lon="11.4344429"><ele>245.0</ele><time>2026-05-03T11:03:18.717Z</time></trkpt><trkpt lat="43.3413453" lon="11.4344047"><ele>245.0</ele><time>2026-05-03T11:03:19.716Z</time></trkpt><trkpt lat="43.3414716" lon="11.4343704"><ele>245.0</ele><time>2026-05-03T11:03:20.725Z</time></trkpt><trkpt lat="43.3415959" lon="11.4343289"><ele>245.0</ele><time>2026-05-03T11:03:21.721Z</time></trkpt><trkpt lat="43.3417211" lon="11.4342859"><ele>245.25</ele><time>2026-05-03T11:03:22.729Z</time></trkpt><trkpt lat="43.3418507" lon="11.4342448"><ele>245.5</ele><time>2026-05-03T11:03:23.713Z</time></trkpt><trkpt lat="43.341979" lon="11.4342019"><ele>245.75</ele><time>2026-05-03T11:03:24.728Z</time></trkpt><trkpt lat="43.3421119" lon="11.4341554"><ele>246.0</ele><time>2026-05-03T11:03:25.724Z</time></trkpt><trkpt lat="43.342244" lon="11.4341129"><ele>246.25</ele><time>2026-05-03T11:03:26.718Z</time></trkpt><trkpt lat="43.3423765" lon="11.4340636"><ele>246.5</ele><time>2026-05-03T11:03:27.727Z</time></trkpt><trkpt lat="43.3425111" lon="11.4340133"><ele>246.75</ele><time>2026-05-03T11:03:28.717Z</time></trkpt><trkpt lat="43.3426491" lon="11.4339653"><ele>247.0</ele><time>2026-05-03T11:03:29.725Z</time></trkpt><trkpt lat="43.3427885" lon="11.4339153"><ele>247.0</ele><time>2026-05-03T11:03:30.722Z</time></trkpt><trkpt lat="43.3429322" lon="11.4338663"><ele>247.0</ele><time>2026-05-03T11:03:31.716Z</time></trkpt><trkpt lat="43.3430727" lon="11.4338562"><ele>247.0</ele><time>2026-05-03T11:03:32.719Z</time></trkpt><trkpt lat="43.3431989" lon="11.4338891"><ele>247.0</ele><time>2026-05-03T11:03:33.723Z</time></trkpt><trkpt lat="43.3433218" lon="11.4339639"><ele>248.25</ele><time>2026-05-03T11:03:34.713Z</time></trkpt><trkpt lat="43.3434325" lon="11.434068"><ele>249.5</ele><time>2026-05-03T11:03:35.725Z</time></trkpt><trkpt lat="43.3435346" lon="11.4341924"><ele>250.75</ele><time>2026-05-03T11:03:36.713Z</time></trkpt><trkpt lat="43.3436334" lon="11.434335"><ele>252.0</ele><time>2026-05-03T11:03:37.719Z</time></trkpt><trkpt lat="43.3437298" lon="11.4344867"><ele>252.0</ele><time>2026-05-03T11:03:38.723Z</time></trkpt><trkpt lat="43.3438263" lon="11.4346391"><ele>252.0</ele><time>2026-05-03T11:03:39.737Z</time></trkpt><trkpt lat="43.3439235" lon="11.4347789"><ele>252.0</ele><time>2026-05-03T11:03:40.708Z</time></trkpt><trkpt lat="43.3440222" lon="11.4349161"><ele>252.0</ele><time>2026-05-03T11:03:41.73Z</time></trkpt><trkpt lat="43.3441241" lon="11.435048"><ele>253.5</ele><time>2026-05-03T11:03:42.716Z</time></trkpt><trkpt lat="43.3442337" lon="11.4351785"><ele>255.0</ele><time>2026-05-03T11:03:43.717Z</time></trkpt><trkpt lat="43.3443531" lon="11.4353005"><ele>256.5</ele><time>2026-05-03T11:03:44.72Z</time></trkpt><trkpt lat="43.3444805" lon="11.4354183"><ele>258.0</ele><time>2026-05-03T11:03:45.72Z</time></trkpt><trkpt lat="43.344623" lon="11.4355199"><ele>259.0</ele><time>2026-05-03T11:03:46.719Z</time></trkpt><trkpt lat="43.344777" lon="11.4355847"><ele>260.0</ele><time>2026-05-03T11:03:47.726Z</time></trkpt><trkpt lat="43.344942" lon="11.4356121"><ele>261.0</ele><time>2026-05-03T11:03:48.724Z</time></trkpt><trkpt lat="43.345105" lon="11.4356281"><ele>261.0</ele><time>2026-05-03T11:03:49.704Z</time></trkpt><trkpt lat="43.3452709" lon="11.4356228"><ele>261.0</ele><time>2026-05-03T11:03:50.716Z</time></trkpt><trkpt lat="43.3454354" lon="11.435622"><ele>261.0</ele><time>2026-05-03T11:03:51.721Z</time></trkpt><trkpt lat="43.3455875" lon="11.435627"><ele>262.25</ele><time>2026-05-03T11:03:52.72Z</time></trkpt><trkpt lat="43.3457207" lon="11.4356535"><ele>263.5</ele><time>2026-05-03T11:03:53.722Z</time></trkpt><trkpt lat="43.345839" lon="11.4357027"><ele>264.75</ele><time>2026-05-03T11:03:54.718Z</time></trkpt><trkpt lat="43.3459538" lon="11.4357772"><ele>266.0</ele><time>2026-05-03T11:03:55.725Z</time></trkpt><trkpt lat="43.3460656" lon="11.4358716"><ele>266.0</ele><time>2026-05-03T11:03:56.708Z</time></trkpt><trkpt lat="43.3461842" lon="11.4359782"><ele>266.0</ele><time>2026-05-03T11:03:57.709Z</time></trkpt><trkpt lat="43.3463051" lon="11.4360857"><ele>266.0</ele><time>2026-05-03T11:03:58.716Z</time></trkpt><trkpt lat="43.3464318" lon="11.4361999"><ele>266.0</ele><time>2026-05-03T11:03:59.712Z</time></trkpt><trkpt lat="43.3465542" lon="11.4363268"><ele>265.33333333333337</ele><time>2026-05-03T11:04:00.727Z</time></trkpt><trkpt lat="43.3466641" lon="11.4364626"><ele>264.6666666666667</ele><time>2026-05-03T11:04:01.723Z</time></trkpt><trkpt lat="43.3467669" lon="11.436609"><ele>264.0</ele><time>2026-05-03T11:04:02.721Z</time></trkpt><trkpt lat="43.3468701" lon="11.4367693"><ele>264.0</ele><time>2026-05-03T11:04:03.703Z</time></trkpt><trkpt lat="43.3469711" lon="11.4369348"><ele>264.0</ele><time>2026-05-03T11:04:04.717Z</time></trkpt><trkpt lat="43.3470663" lon="11.4371044"><ele>264.0</ele><time>2026-05-03T11:04:05.72Z</time></trkpt><trkpt lat="43.3471576" lon="11.4372762"><ele>262.75</ele><time>2026-05-03T11:04:06.711Z</time></trkpt><trkpt lat="43.3472485" lon="11.4374381"><ele>261.5</ele><time>2026-05-03T11:04:07.714Z</time></trkpt><trkpt lat="43.3473391" lon="11.4375985"><ele>260.25</ele><time>2026-05-03T11:04:08.707Z</time></trkpt><trkpt lat="43.3474297" lon="11.4377602"><ele>259.0</ele><time>2026-05-03T11:04:09.722Z</time></trkpt><trkpt lat="43.3475214" lon="11.437919"><ele>259.0</ele><time>2026-05-03T11:04:10.716Z</time></trkpt><trkpt lat="43.3476144" lon="11.4380765"><ele>259.0</ele><time>2026-05-03T11:04:11.724Z</time></trkpt><trkpt lat="43.3477127" lon="11.4382166"><ele>259.0</ele><time>2026-05-03T11:04:12.707Z</time></trkpt><trkpt lat="43.3478261" lon="11.4383374"><ele>259.0</ele><time>2026-05-03T11:04:13.719Z</time></trkpt><trkpt lat="43.3479656" lon="11.438417"><ele>257.66666666666663</ele><time>2026-05-03T11:04:14.712Z</time></trkpt><trkpt lat="43.3481185" lon="11.4384582"><ele>256.3333333333333</ele><time>2026-05-03T11:04:15.749Z</time></trkpt><trkpt lat="43.3482814" lon="11.4384833"><ele>255.0</ele><time>2026-05-03T11:04:16.713Z</time></trkpt><trkpt lat="43.3484441" lon="11.4385052"><ele>255.0</ele><time>2026-05-03T11:04:17.717Z</time></trkpt><trkpt lat="43.3486085" lon="11.4385291"><ele>255.0</ele><time>2026-05-03T11:04:18.713Z</time></trkpt><trkpt lat="43.3487668" lon="11.4385585"><ele>255.0</ele><time>2026-05-03T11:04:19.722Z</time></trkpt><trkpt lat="43.3489267" lon="11.4385833"><ele>255.0</ele><time>2026-05-03T11:04:20.709Z</time></trkpt><trkpt lat="43.3490868" lon="11.43861"><ele>255.0</ele><time>2026-05-03T11:04:21.725Z</time></trkpt><trkpt lat="43.3492435" lon="11.4386642"><ele>255.0</ele><time>2026-05-03T11:04:22.714Z</time></trkpt><trkpt lat="43.3493941" lon="11.4387564"><ele>253.66666666666669</ele><time>2026-05-03T11:04:23.714Z</time></trkpt><trkpt lat="43.3495212" lon="11.4388979"><ele>252.33333333333334</ele><time>2026-05-03T11:04:24.719Z</time></trkpt><trkpt lat="43.349623" lon="11.4390679"><ele>251.0</ele><time>2026-05-03T11:04:25.719Z</time></trkpt><trkpt lat="43.3497066" lon="11.4392462"><ele>250.66666666666669</ele><time>2026-05-03T11:04:26.718Z</time></trkpt><trkpt lat="43.3497989" lon="11.4394293"><ele>250.33333333333331</ele><time>2026-05-03T11:04:27.727Z</time></trkpt><trkpt lat="43.3498983" lon="11.4396085"><ele>250.0</ele><time>2026-05-03T11:04:28.724Z</time></trkpt><trkpt lat="43.3500201" lon="11.4397636"><ele>249.0</ele><time>2026-05-03T11:04:29.714Z</time></trkpt><trkpt lat="43.3501578" lon="11.4398965"><ele>248.0</ele><time>2026-05-03T11:04:30.734Z</time></trkpt><trkpt lat="43.35031" lon="11.4400016"><ele>247.0</ele><time>2026-05-03T11:04:31.717Z</time></trkpt><trkpt lat="43.3504669" lon="11.4400778"><ele>247.25</ele><time>2026-05-03T11:04:32.716Z</time></trkpt><trkpt lat="43.3506282" lon="11.4401099"><ele>247.5</ele><time>2026-05-03T11:04:33.717Z</time></trkpt><trkpt lat="43.3507739" lon="11.4401106"><ele>247.75</ele><time>2026-05-03T11:04:34.713Z</time></trkpt><trkpt lat="43.3509052" lon="11.4400844"><ele>248.0</ele><time>2026-05-03T11:04:35.722Z</time></trkpt><trkpt lat="43.3510238" lon="11.4400483"><ele>248.0</ele><time>2026-05-03T11:04:36.7Z</time></trkpt><trkpt lat="43.3511291" lon="11.4399991"><ele>248.0</ele><time>2026-05-03T11:04:37.721Z</time></trkpt><trkpt lat="43.351227" lon="11.4399768"><ele>248.0</ele><time>2026-05-03T11:04:38.71Z</time></trkpt><trkpt lat="43.351308" lon="11.4400045"><ele>248.0</ele><time>2026-05-03T11:04:39.73Z</time></trkpt><trkpt lat="43.3513603" lon="11.4400826"><ele>248.0</ele><time>2026-05-03T11:04:40.717Z</time></trkpt><trkpt lat="43.3513894" lon="11.4402031"><ele>247.25</ele><time>2026-05-03T11:04:41.718Z</time></trkpt><trkpt lat="43.3513885" lon="11.4403748"><ele>246.5</ele><time>2026-05-03T11:04:42.703Z</time></trkpt><trkpt lat="43.3513363" lon="11.4405486"><ele>245.75</ele><time>2026-05-03T11:04:43.715Z</time></trkpt><trkpt lat="43.3513318" lon="11.440734"><ele>245.0</ele><time>2026-05-03T11:04:44.72Z</time></trkpt><trkpt lat="43.351398" lon="11.4409211"><ele>245.0</ele><time>2026-05-03T11:04:45.722Z</time></trkpt><trkpt lat="43.3515021" lon="11.4410657"><ele>245.0</ele><time>2026-05-03T11:04:46.715Z</time></trkpt><trkpt lat="43.3516347" lon="11.4411459"><ele>245.0</ele><time>2026-05-03T11:04:47.721Z</time></trkpt><trkpt lat="43.3517814" lon="11.4411736"><ele>245.0</ele><time>2026-05-03T11:04:48.727Z</time></trkpt><trkpt lat="43.3519483" lon="11.4411876"><ele>245.0</ele><time>2026-05-03T11:04:49.73Z</time></trkpt><trkpt lat="43.3521243" lon="11.4412278"><ele>245.0</ele><time>2026-05-03T11:04:50.715Z</time></trkpt><trkpt lat="43.3522949" lon="11.4413317"><ele>245.0</ele><time>2026-05-03T11:04:51.72Z</time></trkpt><trkpt lat="43.3524457" lon="11.4414754"><ele>243.33333333333334</ele><time>2026-05-03T11:04:52.719Z</time></trkpt><trkpt lat="43.35257" lon="11.4416446"><ele>241.66666666666669</ele><time>2026-05-03T11:04:53.723Z</time></trkpt><trkpt lat="43.3526687" lon="11.4418502"><ele>240.0</ele><time>2026-05-03T11:04:54.707Z</time></trkpt><trkpt lat="43.3527387" lon="11.4420652"><ele>238.0</ele><time>2026-05-03T11:04:55.722Z</time></trkpt><trkpt lat="43.3527879" lon="11.442278"><ele>236.0</ele><time>2026-05-03T11:04:56.711Z</time></trkpt><trkpt lat="43.3528043" lon="11.4424873"><ele>234.0</ele><time>2026-05-03T11:04:57.719Z</time></trkpt><trkpt lat="43.3527794" lon="11.4426559"><ele>232.0</ele><time>2026-05-03T11:04:58.719Z</time></trkpt><trkpt lat="43.3527158" lon="11.442773"><ele>232.0</ele><time>2026-05-03T11:04:59.706Z</time></trkpt><trkpt lat="43.3526036" lon="11.442858"><ele>232.0</ele><time>2026-05-03T11:05:00.724Z</time></trkpt><trkpt lat="43.3524516" lon="11.4429139"><ele>232.0</ele><time>2026-05-03T11:05:01.719Z</time></trkpt><trkpt lat="43.3522732" lon="11.4429564"><ele>234.33333333333331</ele><time>2026-05-03T11:05:02.712Z</time></trkpt><trkpt lat="43.3520738" lon="11.4430097"><ele>236.66666666666669</ele><time>2026-05-03T11:05:03.72Z</time></trkpt><trkpt lat="43.3518741" lon="11.4430795"><ele>239.0</ele><time>2026-05-03T11:05:04.709Z</time></trkpt><trkpt lat="43.3517109" lon="11.443161"><ele>239.0</ele><time>2026-05-03T11:05:05.717Z</time></trkpt><trkpt lat="43.3516003" lon="11.4432705"><ele>239.0</ele><time>2026-05-03T11:05:06.706Z</time></trkpt><trkpt lat="43.3515326" lon="11.4434214"><ele>239.0</ele><time>2026-05-03T11:05:07.719Z</time></trkpt><trkpt lat="43.351499" lon="11.4436194"><ele>239.0</ele><time>2026-05-03T11:05:08.722Z</time></trkpt><trkpt lat="43.3515047" lon="11.4438505"><ele>241.33333333333334</ele><time>2026-05-03T11:05:09.713Z</time></trkpt><trkpt lat="43.3515404" lon="11.4441044"><ele>243.66666666666669</ele><time>2026-05-03T11:05:10.716Z</time></trkpt><trkpt lat="43.3515939" lon="11.4443575"><ele>246.0</ele><time>2026-05-03T11:05:11.723Z</time></trkpt><trkpt lat="43.3516528" lon="11.444603"><ele>245.33333333333331</ele><time>2026-05-03T11:05:12.728Z</time></trkpt><trkpt lat="43.3517082" lon="11.4448478"><ele>244.66666666666666</ele><time>2026-05-03T11:05:13.716Z</time></trkpt><trkpt lat="43.3517489" lon="11.4451003"><ele>244.0</ele><time>2026-05-03T11:05:14.723Z</time></trkpt><trkpt lat="43.3517685" lon="11.4453668"><ele>242.66666666666666</ele><time>2026-05-03T11:05:15.725Z</time></trkpt><trkpt lat="43.3517772" lon="11.4456377"><ele>241.33333333333331</ele><time>2026-05-03T11:05:16.727Z</time></trkpt><trkpt lat="43.3517832" lon="11.445905"><ele>240.0</ele><time>2026-05-03T11:05:17.725Z</time></trkpt><trkpt lat="43.3517948" lon="11.4461703"><ele>238.33333333333331</ele><time>2026-05-03T11:05:18.714Z</time></trkpt><trkpt lat="43.3518049" lon="11.4464151"><ele>236.66666666666666</ele><time>2026-05-03T11:05:19.719Z</time></trkpt><trkpt lat="43.3518095" lon="11.446642"><ele>235.0</ele><time>2026-05-03T11:05:20.713Z</time></trkpt><trkpt lat="43.3518155" lon="11.4468608"><ele>235.0</ele><time>2026-05-03T11:05:21.721Z</time></trkpt><trkpt lat="43.3518158" lon="11.4470809"><ele>235.0</ele><time>2026-05-03T11:05:22.727Z</time></trkpt><trkpt lat="43.3518129" lon="11.4473038"><ele>235.0</ele><time>2026-05-03T11:05:23.719Z</time></trkpt><trkpt lat="43.3518076" lon="11.4475214"><ele>234.75</ele><time>2026-05-03T11:05:24.711Z</time></trkpt><trkpt lat="43.3518073" lon="11.4477258"><ele>234.5</ele><time>2026-05-03T11:05:25.717Z</time></trkpt><trkpt lat="43.3518159" lon="11.4479161"><ele>234.25</ele><time>2026-05-03T11:05:26.711Z</time></trkpt><trkpt lat="43.3518316" lon="11.4480971"><ele>234.0</ele><time>2026-05-03T11:05:27.723Z</time></trkpt><trkpt lat="43.3518559" lon="11.4482669"><ele>234.0</ele><time>2026-05-03T11:05:28.707Z</time></trkpt><trkpt lat="43.3518955" lon="11.4484217"><ele>234.0</ele><time>2026-05-03T11:05:29.726Z</time></trkpt><trkpt lat="43.3519576" lon="11.4485594"><ele>234.0</ele><time>2026-05-03T11:05:30.709Z</time></trkpt><trkpt lat="43.3520436" lon="11.448666"><ele>234.0</ele><time>2026-05-03T11:05:31.725Z</time></trkpt><trkpt lat="43.3521403" lon="11.4487442"><ele>233.5</ele><time>2026-05-03T11:05:32.709Z</time></trkpt><trkpt lat="43.3522442" lon="11.4488244"><ele>233.0</ele><time>2026-05-03T11:05:33.728Z</time></trkpt><trkpt lat="43.352351" lon="11.4488964"><ele>232.5</ele><time>2026-05-03T11:05:34.721Z</time></trkpt><trkpt lat="43.3524575" lon="11.4489703"><ele>232.0</ele><time>2026-05-03T11:05:35.724Z</time></trkpt><trkpt lat="43.352574" lon="11.449053"><ele>232.0</ele><time>2026-05-03T11:05:36.716Z</time></trkpt><trkpt lat="43.3526845" lon="11.4491609"><ele>232.0</ele><time>2026-05-03T11:05:37.718Z</time></trkpt><trkpt lat="43.3527755" lon="11.4493138"><ele>232.0</ele><time>2026-05-03T11:05:38.712Z</time></trkpt><trkpt lat="43.3528438" lon="11.4495029"><ele>232.0</ele><time>2026-05-03T11:05:39.709Z</time></trkpt><trkpt lat="43.3528811" lon="11.4497284"><ele>230.33333333333331</ele><time>2026-05-03T11:05:40.728Z</time></trkpt><trkpt lat="43.3528704" lon="11.4499625"><ele>228.66666666666669</ele><time>2026-05-03T11:05:41.719Z</time></trkpt><trkpt lat="43.3528364" lon="11.4502158"><ele>227.0</ele><time>2026-05-03T11:05:42.704Z</time></trkpt><trkpt lat="43.3528052" lon="11.4504793"><ele>227.0</ele><time>2026-05-03T11:05:43.723Z</time></trkpt><trkpt lat="43.3527756" lon="11.4507473"><ele>227.0</ele><time>2026-05-03T11:05:44.722Z</time></trkpt><trkpt lat="43.3527427" lon="11.4510138"><ele>227.0</ele><time>2026-05-03T11:05:45.724Z</time></trkpt><trkpt lat="43.3527164" lon="11.4512768"><ele>228.33333333333334</ele><time>2026-05-03T11:05:46.707Z</time></trkpt><trkpt lat="43.3526896" lon="11.4515257"><ele>229.66666666666669</ele><time>2026-05-03T11:05:47.72Z</time></trkpt><trkpt lat="43.3526759" lon="11.4517581"><ele>231.0</ele><time>2026-05-03T11:05:48.712Z</time></trkpt><trkpt lat="43.3526925" lon="11.4519915"><ele>233.33333333333331</ele><time>2026-05-03T11:05:49.702Z</time></trkpt><trkpt lat="43.3527464" lon="11.4522278"><ele>235.66666666666666</ele><time>2026-05-03T11:05:50.71Z</time></trkpt><trkpt lat="43.3528291" lon="11.4524504"><ele>238.0</ele><time>2026-05-03T11:05:51.715Z</time></trkpt><trkpt lat="43.3529323" lon="11.4526632"><ele>240.33333333333331</ele><time>2026-05-03T11:05:52.714Z</time></trkpt><trkpt lat="43.3530587" lon="11.4528653"><ele>242.66666666666669</ele><time>2026-05-03T11:05:53.707Z</time></trkpt><trkpt lat="43.353206" lon="11.4530529"><ele>245.0</ele><time>2026-05-03T11:05:54.724Z</time></trkpt><trkpt lat="43.3533597" lon="11.4532487"><ele>246.66666666666669</ele><time>2026-05-03T11:05:55.712Z</time></trkpt><trkpt lat="43.3535021" lon="11.4534658"><ele>248.33333333333331</ele><time>2026-05-03T11:05:56.719Z</time></trkpt><trkpt lat="43.3536371" lon="11.4537104"><ele>250.0</ele><time>2026-05-03T11:05:57.726Z</time></trkpt><trkpt lat="43.3537593" lon="11.4539625"><ele>251.0</ele><time>2026-05-03T11:05:58.722Z</time></trkpt><trkpt lat="43.3538614" lon="11.4542322"><ele>252.0</ele><time>2026-05-03T11:05:59.719Z</time></trkpt><trkpt lat="43.3539441" lon="11.4545153"><ele>253.0</ele><time>2026-05-03T11:06:00.71Z</time></trkpt><trkpt lat="43.3540129" lon="11.4547841"><ele>255.66666666666666</ele><time>2026-05-03T11:06:01.723Z</time></trkpt><trkpt lat="43.3540724" lon="11.4550238"><ele>258.3333333333333</ele><time>2026-05-03T11:06:02.698Z</time></trkpt><trkpt lat="43.3541209" lon="11.4552265"><ele>261.0</ele><time>2026-05-03T11:06:03.723Z</time></trkpt><trkpt lat="43.3541405" lon="11.4553825"><ele>261.0</ele><time>2026-05-03T11:06:04.719Z</time></trkpt><trkpt lat="43.3541261" lon="11.4555025"><ele>261.0</ele><time>2026-05-03T11:06:05.71Z</time></trkpt><trkpt lat="43.354008" lon="11.4555446"><ele>261.0</ele><time>2026-05-03T11:06:07.704Z</time></trkpt><trkpt lat="43.353944" lon="11.4554554"><ele>261.0</ele><time>2026-05-03T11:06:08.713Z</time></trkpt><trkpt lat="43.3538596" lon="11.4553061"><ele>261.0</ele><time>2026-05-03T11:06:09.706Z</time></trkpt><trkpt lat="43.3537569" lon="11.4551472"><ele>261.0</ele><time>2026-05-03T11:06:10.715Z</time></trkpt><trkpt lat="43.3536393" lon="11.455049"><ele>261.0</ele><time>2026-05-03T11:06:11.715Z</time></trkpt><trkpt lat="43.3535236" lon="11.4550566"><ele>261.0</ele><time>2026-05-03T11:06:12.705Z</time></trkpt><trkpt lat="43.3534223" lon="11.4551437"><ele>261.0</ele><time>2026-05-03T11:06:13.71Z</time></trkpt><trkpt lat="43.3533338" lon="11.4552863"><ele>263.3333333333333</ele><time>2026-05-03T11:06:14.701Z</time></trkpt><trkpt lat="43.3532634" lon="11.4554916"><ele>265.66666666666663</ele><time>2026-05-03T11:06:15.722Z</time></trkpt><trkpt lat="43.3531992" lon="11.4557194"><ele>268.0</ele><time>2026-05-03T11:06:16.704Z</time></trkpt><trkpt lat="43.3531298" lon="11.4559263"><ele>268.0</ele><time>2026-05-03T11:06:17.709Z</time></trkpt><trkpt lat="43.3530343" lon="11.4560719"><ele>268.0</ele><time>2026-05-03T11:06:18.71Z</time></trkpt><trkpt lat="43.3529024" lon="11.4561367"><ele>268.0</ele><time>2026-05-03T11:06:19.709Z</time></trkpt><trkpt lat="43.352751" lon="11.4561439"><ele>268.0</ele><time>2026-05-03T11:06:20.704Z</time></trkpt><trkpt lat="43.352594" lon="11.4561125"><ele>268.0</ele><time>2026-05-03T11:06:21.724Z</time></trkpt><trkpt lat="43.3524612" lon="11.456112"><ele>268.0</ele><time>2026-05-03T11:06:22.716Z</time></trkpt><trkpt lat="43.3523532" lon="11.4561997"><ele>268.0</ele><time>2026-05-03T11:06:23.717Z</time></trkpt><trkpt lat="43.3522774" lon="11.4563319"><ele>268.0</ele><time>2026-05-03T11:06:24.712Z</time></trkpt><trkpt lat="43.3522282" lon="11.4564859"><ele>270.0</ele><time>2026-05-03T11:06:25.717Z</time></trkpt><trkpt lat="43.3522123" lon="11.4566387"><ele>272.0</ele><time>2026-05-03T11:06:26.71Z</time></trkpt><trkpt lat="43.3522254" lon="11.4568006"><ele>274.0</ele><time>2026-05-03T11:06:27.698Z</time></trkpt><trkpt lat="43.3522766" lon="11.4569872"><ele>276.0</ele><time>2026-05-03T11:06:28.7Z</time></trkpt><trkpt lat="43.3523467" lon="11.4572128"><ele>278.3333333333333</ele><time>2026-05-03T11:06:29.713Z</time></trkpt><trkpt lat="43.3524208" lon="11.4574719"><ele>280.66666666666663</ele><time>2026-05-03T11:06:30.696Z</time></trkpt><trkpt lat="43.3524964" lon="11.4577472"><ele>283.0</ele><time>2026-05-03T11:06:31.717Z</time></trkpt><trkpt lat="43.352585" lon="11.4580256"><ele>283.5</ele><time>2026-05-03T11:06:32.703Z</time></trkpt><trkpt lat="43.3526914" lon="11.4583132"><ele>284.0</ele><time>2026-05-03T11:06:33.723Z</time></trkpt><trkpt lat="43.3528125" lon="11.458612"><ele>282.0</ele><time>2026-05-03T11:06:34.717Z</time></trkpt><trkpt lat="43.3529344" lon="11.4589017"><ele>280.0</ele><time>2026-05-03T11:06:35.713Z</time></trkpt><trkpt lat="43.3530709" lon="11.4591916"><ele>289.5</ele><time>2026-05-03T11:06:36.707Z</time></trkpt><trkpt lat="43.3532349" lon="11.4594556"><ele>299.0</ele><time>2026-05-03T11:06:37.722Z</time></trkpt><trkpt lat="43.3534112" lon="11.4597027"><ele>299.0</ele><time>2026-05-03T11:06:38.71Z</time></trkpt><trkpt lat="43.3535651" lon="11.4599103"><ele>299.0</ele><time>2026-05-03T11:06:39.719Z</time></trkpt><trkpt lat="43.3536625" lon="11.4600593"><ele>299.0</ele><time>2026-05-03T11:06:40.726Z</time></trkpt><trkpt lat="43.3537445" lon="11.460199"><ele>299.0</ele><time>2026-05-03T11:06:41.707Z</time></trkpt><trkpt lat="43.3537816" lon="11.4603268"><ele>299.0</ele><time>2026-05-03T11:06:42.704Z</time></trkpt><trkpt lat="43.3537519" lon="11.4604475"><ele>299.0</ele><time>2026-05-03T11:06:43.716Z</time></trkpt><trkpt lat="43.353666" lon="11.4605393"><ele>299.0</ele><time>2026-05-03T11:06:44.697Z</time></trkpt><trkpt lat="43.3535235" lon="11.4606102"><ele>300.0</ele><time>2026-05-03T11:06:45.713Z</time></trkpt><trkpt lat="43.3533578" lon="11.4606371"><ele>301.0</ele><time>2026-05-03T11:06:46.697Z</time></trkpt><trkpt lat="43.3531901" lon="11.4606397"><ele>302.0</ele><time>2026-05-03T11:06:47.704Z</time></trkpt><trkpt lat="43.3530334" lon="11.4606425"><ele>302.0</ele><time>2026-05-03T11:06:48.693Z</time></trkpt><trkpt lat="43.3528798" lon="11.4606801"><ele>302.0</ele><time>2026-05-03T11:06:49.696Z</time></trkpt><trkpt lat="43.3528454" lon="11.4608511"><ele>302.0</ele><time>2026-05-03T11:06:50.705Z</time></trkpt><trkpt lat="43.3528323" lon="11.461051"><ele>302.0</ele><time>2026-05-03T11:06:51.703Z</time></trkpt><trkpt lat="43.3528266" lon="11.4612551"><ele>305.75</ele><time>2026-05-03T11:06:52.71Z</time></trkpt><trkpt lat="43.3528089" lon="11.4614387"><ele>309.5</ele><time>2026-05-03T11:06:53.716Z</time></trkpt><trkpt lat="43.3527648" lon="11.4615925"><ele>313.25</ele><time>2026-05-03T11:06:54.699Z</time></trkpt><trkpt lat="43.3526617" lon="11.4616814"><ele>317.0</ele><time>2026-05-03T11:06:55.709Z</time></trkpt><trkpt lat="43.3524757" lon="11.4617122"><ele>317.0</ele><time>2026-05-03T11:06:56.709Z</time></trkpt><trkpt lat="43.352307" lon="11.4617983"><ele>317.0</ele><time>2026-05-03T11:06:57.706Z</time></trkpt><trkpt lat="43.3521371" lon="11.4619009"><ele>317.0</ele><time>2026-05-03T11:06:58.7Z</time></trkpt><trkpt lat="43.3519675" lon="11.4619774"><ele>315.6666666666667</ele><time>2026-05-03T11:06:59.706Z</time></trkpt><trkpt lat="43.351789" lon="11.4620179"><ele>314.3333333333333</ele><time>2026-05-03T11:07:00.701Z</time></trkpt><trkpt lat="43.3516366" lon="11.4619921"><ele>313.0</ele><time>2026-05-03T11:07:01.707Z</time></trkpt><trkpt lat="43.3515013" lon="11.4619306"><ele>313.0</ele><time>2026-05-03T11:07:02.695Z</time></trkpt><trkpt lat="43.3513819" lon="11.4619034"><ele>313.0</ele><time>2026-05-03T11:07:03.691Z</time></trkpt><trkpt lat="43.3512365" lon="11.4619442"><ele>313.0</ele><time>2026-05-03T11:07:04.719Z</time></trkpt><trkpt lat="43.3510795" lon="11.4620635"><ele>313.0</ele><time>2026-05-03T11:07:05.702Z</time></trkpt><trkpt lat="43.3508811" lon="11.4621826"><ele>314.0</ele><time>2026-05-03T11:07:06.71Z</time></trkpt><trkpt lat="43.3506891" lon="11.4622661"><ele>315.0</ele><time>2026-05-03T11:07:07.7Z</time></trkpt><trkpt lat="43.3505007" lon="11.4623258"><ele>316.0</ele><time>2026-05-03T11:07:08.715Z</time></trkpt><trkpt lat="43.3503371" lon="11.4623808"><ele>314.2</ele><time>2026-05-03T11:07:09.72Z</time></trkpt><trkpt lat="43.3502149" lon="11.4624592"><ele>312.40000000000003</ele><time>2026-05-03T11:07:10.724Z</time></trkpt><trkpt lat="43.3501344" lon="11.4625686"><ele>310.6</ele><time>2026-05-03T11:07:11.72Z</time></trkpt><trkpt lat="43.3500816" lon="11.4626803"><ele>308.8</ele><time>2026-05-03T11:07:12.711Z</time></trkpt><trkpt lat="43.3500835" lon="11.4627975"><ele>307.0</ele><time>2026-05-03T11:07:13.721Z</time></trkpt><trkpt lat="43.3501653" lon="11.4629252"><ele>304.3333333333333</ele><time>2026-05-03T11:07:14.705Z</time></trkpt><trkpt lat="43.3502843" lon="11.4630545"><ele>301.6666666666667</ele><time>2026-05-03T11:07:15.7Z</time></trkpt><trkpt lat="43.3504014" lon="11.4632051"><ele>299.0</ele><time>2026-05-03T11:07:16.715Z</time></trkpt><trkpt lat="43.3504687" lon="11.4633734"><ele>299.0</ele><time>2026-05-03T11:07:17.715Z</time></trkpt><trkpt lat="43.3505015" lon="11.4635508"><ele>299.0</ele><time>2026-05-03T11:07:18.728Z</time></trkpt><trkpt lat="43.3504918" lon="11.4637062"><ele>299.0</ele><time>2026-05-03T11:07:19.71Z</time></trkpt><trkpt lat="43.3504273" lon="11.4638415"><ele>299.0</ele><time>2026-05-03T11:07:20.708Z</time></trkpt><trkpt lat="43.3503137" lon="11.4639405"><ele>300.0</ele><time>2026-05-03T11:07:21.711Z</time></trkpt><trkpt lat="43.3501897" lon="11.4640568"><ele>301.0</ele><time>2026-05-03T11:07:22.71Z</time></trkpt><trkpt lat="43.3500962" lon="11.4642334"><ele>302.0</ele><time>2026-05-03T11:07:23.714Z</time></trkpt><trkpt lat="43.3500419" lon="11.4644512"><ele>303.5</ele><time>2026-05-03T11:07:24.701Z</time></trkpt><trkpt lat="43.3500129" lon="11.4646647"><ele>305.0</ele><time>2026-05-03T11:07:25.7Z</time></trkpt><trkpt lat="43.3499615" lon="11.464841"><ele>306.5</ele><time>2026-05-03T11:07:26.716Z</time></trkpt><trkpt lat="43.3498728" lon="11.4649469"><ele>308.0</ele><time>2026-05-03T11:07:27.712Z</time></trkpt><trkpt lat="43.349747" lon="11.4649958"><ele>306.6666666666667</ele><time>2026-05-03T11:07:28.704Z</time></trkpt><trkpt lat="43.3496095" lon="11.4649973"><ele>305.3333333333333</ele><time>2026-05-03T11:07:29.711Z</time></trkpt><trkpt lat="43.3494627" lon="11.4649402"><ele>304.0</ele><time>2026-05-03T11:07:30.706Z</time></trkpt><trkpt lat="43.34932" lon="11.4648406"><ele>304.0</ele><time>2026-05-03T11:07:31.709Z</time></trkpt><trkpt lat="43.3491756" lon="11.4646897"><ele>304.0</ele><time>2026-05-03T11:07:32.718Z</time></trkpt><trkpt lat="43.349024" lon="11.464538"><ele>304.0</ele><time>2026-05-03T11:07:33.704Z</time></trkpt><trkpt lat="43.348854" lon="11.4643933"><ele>298.0</ele><time>2026-05-03T11:07:34.705Z</time></trkpt><trkpt lat="43.3486753" lon="11.4642953"><ele>292.0</ele><time>2026-05-03T11:07:35.701Z</time></trkpt><trkpt lat="43.3484552" lon="11.4642697"><ele>286.0</ele><time>2026-05-03T11:07:36.705Z</time></trkpt><trkpt lat="43.3482168" lon="11.4642926"><ele>283.0</ele><time>2026-05-03T11:07:37.707Z</time></trkpt><trkpt lat="43.3480038" lon="11.4643324"><ele>280.0</ele><time>2026-05-03T11:07:38.703Z</time></trkpt><trkpt lat="43.3478364" lon="11.4643995"><ele>277.0</ele><time>2026-05-03T11:07:39.71Z</time></trkpt><trkpt lat="43.3476833" lon="11.4644859"><ele>280.3333333333333</ele><time>2026-05-03T11:07:40.708Z</time></trkpt><trkpt lat="43.3475442" lon="11.4646518"><ele>283.6666666666667</ele><time>2026-05-03T11:07:41.714Z</time></trkpt><trkpt lat="43.3474158" lon="11.464877"><ele>287.0</ele><time>2026-05-03T11:07:42.701Z</time></trkpt><trkpt lat="43.3472847" lon="11.4651047"><ele>283.33333333333337</ele><time>2026-05-03T11:07:43.694Z</time></trkpt><trkpt lat="43.3471513" lon="11.4653064"><ele>279.6666666666667</ele><time>2026-05-03T11:07:44.706Z</time></trkpt><trkpt lat="43.3470244" lon="11.465491"><ele>276.0</ele><time>2026-05-03T11:07:45.704Z</time></trkpt><trkpt lat="43.346889" lon="11.4656427"><ele>276.0</ele><time>2026-05-03T11:07:46.7Z</time></trkpt><trkpt lat="43.3467522" lon="11.465768"><ele>276.0</ele><time>2026-05-03T11:07:47.715Z</time></trkpt><trkpt lat="43.3466127" lon="11.4658461"><ele>276.0</ele><time>2026-05-03T11:07:48.721Z</time></trkpt><trkpt lat="43.3464763" lon="11.465868"><ele>276.25</ele><time>2026-05-03T11:07:49.702Z</time></trkpt><trkpt lat="43.3463308" lon="11.4658678"><ele>276.5</ele><time>2026-05-03T11:07:50.711Z</time></trkpt><trkpt lat="43.3461829" lon="11.4658643"><ele>276.75</ele><time>2026-05-03T11:07:51.71Z</time></trkpt><trkpt lat="43.3460449" lon="11.4658638"><ele>277.0</ele><time>2026-05-03T11:07:52.71Z</time></trkpt><trkpt lat="43.3459214" lon="11.4658858"><ele>277.0</ele><time>2026-05-03T11:07:53.713Z</time></trkpt><trkpt lat="43.3458084" lon="11.4659177"><ele>277.0</ele><time>2026-05-03T11:07:54.702Z</time></trkpt><trkpt lat="43.3457013" lon="11.4659524"><ele>277.0</ele><time>2026-05-03T11:07:55.712Z</time></trkpt><trkpt lat="43.3456064" lon="11.4659788"><ele>277.0</ele><time>2026-05-03T11:07:56.707Z</time></trkpt><trkpt lat="43.3455161" lon="11.4659866"><ele>277.0</ele><time>2026-05-03T11:07:57.706Z</time></trkpt><trkpt lat="43.3454208" lon="11.465969"><ele>275.75</ele><time>2026-05-03T11:07:58.713Z</time></trkpt><trkpt lat="43.3453116" lon="11.4659183"><ele>274.5</ele><time>2026-05-03T11:07:59.719Z</time></trkpt><trkpt lat="43.3451992" lon="11.4658402"><ele>273.25</ele><time>2026-05-03T11:08:00.704Z</time></trkpt><trkpt lat="43.3450799" lon="11.4657582"><ele>272.0</ele><time>2026-05-03T11:08:01.72Z</time></trkpt><trkpt lat="43.3449417" lon="11.4656861"><ele>272.0</ele><time>2026-05-03T11:08:02.722Z</time></trkpt><trkpt lat="43.3447909" lon="11.4656302"><ele>272.0</ele><time>2026-05-03T11:08:03.714Z</time></trkpt><trkpt lat="43.3446341" lon="11.4655913"><ele>272.0</ele><time>2026-05-03T11:08:04.725Z</time></trkpt><trkpt lat="43.344472" lon="11.4655623"><ele>269.33333333333337</ele><time>2026-05-03T11:08:05.714Z</time></trkpt><trkpt lat="43.344311" lon="11.4655313"><ele>266.6666666666667</ele><time>2026-05-03T11:08:06.725Z</time></trkpt><trkpt lat="43.3441477" lon="11.4654958"><ele>264.0</ele><time>2026-05-03T11:08:07.717Z</time></trkpt><trkpt lat="43.3439867" lon="11.4654567"><ele>264.3333333333333</ele><time>2026-05-03T11:08:08.724Z</time></trkpt><trkpt lat="43.3438246" lon="11.4654174"><ele>264.66666666666663</ele><time>2026-05-03T11:08:09.716Z</time></trkpt><trkpt lat="43.3436615" lon="11.4653833"><ele>265.0</ele><time>2026-05-03T11:08:10.729Z</time></trkpt><trkpt lat="43.3435013" lon="11.4653631"><ele>265.0</ele><time>2026-05-03T11:08:11.708Z</time></trkpt><trkpt lat="43.3433499" lon="11.4653851"><ele>265.0</ele><time>2026-05-03T11:08:12.71Z</time></trkpt><trkpt lat="43.3432137" lon="11.4654482"><ele>265.0</ele><time>2026-05-03T11:08:13.711Z</time></trkpt><trkpt lat="43.3430878" lon="11.4655328"><ele>265.0</ele><time>2026-05-03T11:08:14.715Z</time></trkpt><trkpt lat="43.3429565" lon="11.4656048"><ele>264.5</ele><time>2026-05-03T11:08:15.709Z</time></trkpt><trkpt lat="43.3428192" lon="11.4656363"><ele>264.0</ele><time>2026-05-03T11:08:16.716Z</time></trkpt><trkpt lat="43.3426804" lon="11.4656207"><ele>263.5</ele><time>2026-05-03T11:08:17.71Z</time></trkpt><trkpt lat="43.342546" lon="11.4655441"><ele>263.0</ele><time>2026-05-03T11:08:18.714Z</time></trkpt><trkpt lat="43.3424191" lon="11.4654354"><ele>263.0</ele><time>2026-05-03T11:08:19.703Z</time></trkpt><trkpt lat="43.3423025" lon="11.4653052"><ele>263.0</ele><time>2026-05-03T11:08:20.706Z</time></trkpt><trkpt lat="43.3421879" lon="11.4651634"><ele>263.0</ele><time>2026-05-03T11:08:21.716Z</time></trkpt><trkpt lat="43.342068" lon="11.465035"><ele>261.5</ele><time>2026-05-03T11:08:22.704Z</time></trkpt><trkpt lat="43.3419348" lon="11.4649406"><ele>260.0</ele><time>2026-05-03T11:08:23.713Z</time></trkpt><trkpt lat="43.3418077" lon="11.4649095"><ele>258.5</ele><time>2026-05-03T11:08:24.693Z</time></trkpt><trkpt lat="43.3416835" lon="11.4649295"><ele>257.0</ele><time>2026-05-03T11:08:25.695Z</time></trkpt><trkpt lat="43.3415755" lon="11.4650074"><ele>257.0</ele><time>2026-05-03T11:08:26.698Z</time></trkpt><trkpt lat="43.3414847" lon="11.4651384"><ele>257.0</ele><time>2026-05-03T11:08:27.715Z</time></trkpt><trkpt lat="43.3414333" lon="11.4652909"><ele>257.0</ele><time>2026-05-03T11:08:28.715Z</time></trkpt><trkpt lat="43.3414291" lon="11.4654767"><ele>257.0</ele><time>2026-05-03T11:08:29.706Z</time></trkpt><trkpt lat="43.3414702" lon="11.4656719"><ele>256.33333333333337</ele><time>2026-05-03T11:08:30.705Z</time></trkpt><trkpt lat="43.3415506" lon="11.4658737"><ele>255.66666666666669</ele><time>2026-05-03T11:08:31.717Z</time></trkpt><trkpt lat="43.3416417" lon="11.4660866"><ele>255.0</ele><time>2026-05-03T11:08:32.71Z</time></trkpt><trkpt lat="43.3417242" lon="11.4663206"><ele>254.33333333333331</ele><time>2026-05-03T11:08:33.715Z</time></trkpt><trkpt lat="43.3417778" lon="11.4665899"><ele>253.66666666666666</ele><time>2026-05-03T11:08:34.715Z</time></trkpt><trkpt lat="43.3418031" lon="11.4668688"><ele>253.0</ele><time>2026-05-03T11:08:35.726Z</time></trkpt><trkpt lat="43.3418136" lon="11.4671715"><ele>251.0</ele><time>2026-05-03T11:08:36.722Z</time></trkpt><trkpt lat="43.3418219" lon="11.4674769"><ele>249.0</ele><time>2026-05-03T11:08:37.72Z</time></trkpt><trkpt lat="43.3418386" lon="11.4677854"><ele>247.0</ele><time>2026-05-03T11:08:38.709Z</time></trkpt><trkpt lat="43.3418539" lon="11.4680821"><ele>245.33333333333331</ele><time>2026-05-03T11:08:39.71Z</time></trkpt><trkpt lat="43.341865" lon="11.4683576"><ele>243.66666666666669</ele><time>2026-05-03T11:08:40.692Z</time></trkpt><trkpt lat="43.3418613" lon="11.4686138"><ele>242.0</ele><time>2026-05-03T11:08:41.712Z</time></trkpt><trkpt lat="43.3418325" lon="11.4688382"><ele>242.0</ele><time>2026-05-03T11:08:42.718Z</time></trkpt><trkpt lat="43.341774" lon="11.4690281"><ele>242.0</ele><time>2026-05-03T11:08:43.726Z</time></trkpt><trkpt lat="43.3416775" lon="11.4691858"><ele>242.0</ele><time>2026-05-03T11:08:44.705Z</time></trkpt><trkpt lat="43.3415358" lon="11.4692877"><ele>240.66666666666669</ele><time>2026-05-03T11:08:45.723Z</time></trkpt><trkpt lat="43.3413661" lon="11.4693358"><ele>239.33333333333331</ele><time>2026-05-03T11:08:46.693Z</time></trkpt><trkpt lat="43.3411855" lon="11.4693513"><ele>238.0</ele><time>2026-05-03T11:08:47.706Z</time></trkpt><trkpt lat="43.3409966" lon="11.4693148"><ele>238.0</ele><time>2026-05-03T11:08:48.706Z</time></trkpt><trkpt lat="43.3408212" lon="11.4692456"><ele>238.0</ele><time>2026-05-03T11:08:49.71Z</time></trkpt><trkpt lat="43.3406599" lon="11.4691818"><ele>238.0</ele><time>2026-05-03T11:08:50.708Z</time></trkpt><trkpt lat="43.340506" lon="11.46916"><ele>236.0</ele><time>2026-05-03T11:08:51.708Z</time></trkpt><trkpt lat="43.3403568" lon="11.4691954"><ele>234.0</ele><time>2026-05-03T11:08:52.718Z</time></trkpt><trkpt lat="43.3402157" lon="11.4692875"><ele>232.0</ele><time>2026-05-03T11:08:53.704Z</time></trkpt><trkpt lat="43.3400883" lon="11.4694386"><ele>233.0</ele><time>2026-05-03T11:08:54.699Z</time></trkpt><trkpt lat="43.3399758" lon="11.4696412"><ele>234.0</ele><time>2026-05-03T11:08:55.709Z</time></trkpt><trkpt lat="43.3398951" lon="11.4698731"><ele>235.0</ele><time>2026-05-03T11:08:56.703Z</time></trkpt><trkpt lat="43.3398483" lon="11.4701146"><ele>235.0</ele><time>2026-05-03T11:08:57.718Z</time></trkpt><trkpt lat="43.3398316" lon="11.4703571"><ele>235.0</ele><time>2026-05-03T11:08:58.7Z</time></trkpt><trkpt lat="43.3398571" lon="11.4706098"><ele>235.0</ele><time>2026-05-03T11:08:59.713Z</time></trkpt><trkpt lat="43.3399253" lon="11.4708639"><ele>234.33333333333331</ele><time>2026-05-03T11:09:00.702Z</time></trkpt><trkpt lat="43.3400115" lon="11.4710933"><ele>233.66666666666669</ele><time>2026-05-03T11:09:01.709Z</time></trkpt><trkpt lat="43.3400706" lon="11.4713197"><ele>233.0</ele><time>2026-05-03T11:09:02.698Z</time></trkpt><trkpt lat="43.3400944" lon="11.471558"><ele>232.0</ele><time>2026-05-03T11:09:03.718Z</time></trkpt><trkpt lat="43.3400795" lon="11.4718019"><ele>231.0</ele><time>2026-05-03T11:09:04.711Z</time></trkpt><trkpt lat="43.340015" lon="11.4720366"><ele>230.0</ele><time>2026-05-03T11:09:05.723Z</time></trkpt><trkpt lat="43.3399107" lon="11.4722769"><ele>229.33333333333334</ele><time>2026-05-03T11:09:06.71Z</time></trkpt><trkpt lat="43.3397863" lon="11.4725083"><ele>228.66666666666669</ele><time>2026-05-03T11:09:07.714Z</time></trkpt><trkpt lat="43.3396604" lon="11.4727466"><ele>228.0</ele><time>2026-05-03T11:09:08.719Z</time></trkpt><trkpt lat="43.3395211" lon="11.4730046"><ele>231.0</ele><time>2026-05-03T11:09:09.706Z</time></trkpt><trkpt lat="43.3393934" lon="11.4732613"><ele>234.0</ele><time>2026-05-03T11:09:10.718Z</time></trkpt><trkpt lat="43.3392587" lon="11.4734901"><ele>237.0</ele><time>2026-05-03T11:09:11.72Z</time></trkpt><trkpt lat="43.3391161" lon="11.4736752"><ele>241.33333333333331</ele><time>2026-05-03T11:09:12.709Z</time></trkpt><trkpt lat="43.3389594" lon="11.4738028"><ele>245.66666666666666</ele><time>2026-05-03T11:09:13.704Z</time></trkpt><trkpt lat="43.3387835" lon="11.4738763"><ele>250.0</ele><time>2026-05-03T11:09:14.706Z</time></trkpt><trkpt lat="43.3385988" lon="11.4739066"><ele>250.0</ele><time>2026-05-03T11:09:15.709Z</time></trkpt><trkpt lat="43.3384178" lon="11.4739518"><ele>250.0</ele><time>2026-05-03T11:09:16.698Z</time></trkpt><trkpt lat="43.3382524" lon="11.4740415"><ele>250.0</ele><time>2026-05-03T11:09:17.71Z</time></trkpt><trkpt lat="43.3381093" lon="11.4741784"><ele>251.0</ele><time>2026-05-03T11:09:18.698Z</time></trkpt><trkpt lat="43.3380034" lon="11.4743481"><ele>252.0</ele><time>2026-05-03T11:09:19.7Z</time></trkpt><trkpt lat="43.3379239" lon="11.4745715"><ele>253.0</ele><time>2026-05-03T11:09:20.708Z</time></trkpt><trkpt lat="43.3378599" lon="11.4748228"><ele>253.0</ele><time>2026-05-03T11:09:21.712Z</time></trkpt><trkpt lat="43.3378045" lon="11.4750917"><ele>253.0</ele><time>2026-05-03T11:09:22.697Z</time></trkpt><trkpt lat="43.337762" lon="11.4753929"><ele>253.0</ele><time>2026-05-03T11:09:23.71Z</time></trkpt><trkpt lat="43.3377273" lon="11.4757092"><ele>255.66666666666666</ele><time>2026-05-03T11:09:24.706Z</time></trkpt><trkpt lat="43.3376707" lon="11.4760017"><ele>258.3333333333333</ele><time>2026-05-03T11:09:25.693Z</time></trkpt><trkpt lat="43.3376233" lon="11.4762707"><ele>261.0</ele><time>2026-05-03T11:09:26.703Z</time></trkpt><trkpt lat="43.337588" lon="11.4765317"><ele>261.6666666666667</ele><time>2026-05-03T11:09:27.705Z</time></trkpt><trkpt lat="43.3375874" lon="11.476781"><ele>262.33333333333337</ele><time>2026-05-03T11:09:28.724Z</time></trkpt><trkpt lat="43.3376122" lon="11.477007"><ele>263.0</ele><time>2026-05-03T11:09:29.714Z</time></trkpt><trkpt lat="43.3376508" lon="11.4772396"><ele>264.0</ele><time>2026-05-03T11:09:30.706Z</time></trkpt><trkpt lat="43.3376996" lon="11.4774786"><ele>265.0</ele><time>2026-05-03T11:09:31.722Z</time></trkpt><trkpt lat="43.3377552" lon="11.4777267"><ele>266.0</ele><time>2026-05-03T11:09:32.713Z</time></trkpt><trkpt lat="43.337808" lon="11.4779785"><ele>267.6666666666667</ele><time>2026-05-03T11:09:33.725Z</time></trkpt><trkpt lat="43.3378624" lon="11.4782311"><ele>269.3333333333333</ele><time>2026-05-03T11:09:34.709Z</time></trkpt><trkpt lat="43.3379102" lon="11.4784681"><ele>271.0</ele><time>2026-05-03T11:09:35.716Z</time></trkpt><trkpt lat="43.3379504" lon="11.4786673"><ele>271.75</ele><time>2026-05-03T11:09:36.703Z</time></trkpt><trkpt lat="43.3379628" lon="11.4788495"><ele>272.5</ele><time>2026-05-03T11:09:37.714Z</time></trkpt><trkpt lat="43.3379359" lon="11.4790136"><ele>273.25</ele><time>2026-05-03T11:09:38.719Z</time></trkpt><trkpt lat="43.33787" lon="11.4791385"><ele>274.0</ele><time>2026-05-03T11:09:39.71Z</time></trkpt><trkpt lat="43.3377704" lon="11.4792259"><ele>274.0</ele><time>2026-05-03T11:09:40.709Z</time></trkpt><trkpt lat="43.3376446" lon="11.4792701"><ele>274.0</ele><time>2026-05-03T11:09:41.718Z</time></trkpt><trkpt lat="43.337496" lon="11.4792682"><ele>274.0</ele><time>2026-05-03T11:09:42.697Z</time></trkpt><trkpt lat="43.3373472" lon="11.4792594"><ele>274.0</ele><time>2026-05-03T11:09:43.721Z</time></trkpt><trkpt lat="43.337188" lon="11.4792482"><ele>274.66666666666663</ele><time>2026-05-03T11:09:44.707Z</time></trkpt><trkpt lat="43.3370214" lon="11.4792489"><ele>275.3333333333333</ele><time>2026-05-03T11:09:45.714Z</time></trkpt><trkpt lat="43.3368633" lon="11.4792824"><ele>276.0</ele><time>2026-05-03T11:09:46.705Z</time></trkpt><trkpt lat="43.3367134" lon="11.4793505"><ele>276.0</ele><time>2026-05-03T11:09:47.708Z</time></trkpt><trkpt lat="43.336569" lon="11.4794449"><ele>276.0</ele><time>2026-05-03T11:09:48.713Z</time></trkpt><trkpt lat="43.3364388" lon="11.4795669"><ele>276.0</ele><time>2026-05-03T11:09:49.709Z</time></trkpt><trkpt lat="43.3363057" lon="11.4796892"><ele>277.3333333333333</ele><time>2026-05-03T11:09:50.705Z</time></trkpt><trkpt lat="43.3361629" lon="11.4798203"><ele>278.66666666666663</ele><time>2026-05-03T11:09:51.714Z</time></trkpt><trkpt lat="43.336023" lon="11.4799479"><ele>280.0</ele><time>2026-05-03T11:09:52.715Z</time></trkpt><trkpt lat="43.3358851" lon="11.4800758"><ele>280.0</ele><time>2026-05-03T11:09:53.714Z</time></trkpt><trkpt lat="43.3357515" lon="11.4801984"><ele>280.0</ele><time>2026-05-03T11:09:54.689Z</time></trkpt><trkpt lat="43.3356225" lon="11.4803184"><ele>280.0</ele><time>2026-05-03T11:09:55.717Z</time></trkpt><trkpt lat="43.3354994" lon="11.4804425"><ele>279.66666666666663</ele><time>2026-05-03T11:09:56.707Z</time></trkpt><trkpt lat="43.3353858" lon="11.4805773"><ele>279.3333333333333</ele><time>2026-05-03T11:09:57.71Z</time></trkpt><trkpt lat="43.3352826" lon="11.480731"><ele>279.0</ele><time>2026-05-03T11:09:58.699Z</time></trkpt><trkpt lat="43.3351818" lon="11.4808954"><ele>279.0</ele><time>2026-05-03T11:09:59.717Z</time></trkpt><trkpt lat="43.3350702" lon="11.4810713"><ele>279.0</ele><time>2026-05-03T11:10:00.706Z</time></trkpt><trkpt lat="43.3349586" lon="11.481257"><ele>279.0</ele><time>2026-05-03T11:10:01.709Z</time></trkpt><trkpt lat="43.3348524" lon="11.4814493"><ele>277.3333333333333</ele><time>2026-05-03T11:10:02.709Z</time></trkpt><trkpt lat="43.3347557" lon="11.4816378"><ele>275.66666666666663</ele><time>2026-05-03T11:10:03.715Z</time></trkpt><trkpt lat="43.334665" lon="11.4818356"><ele>274.0</ele><time>2026-05-03T11:10:04.714Z</time></trkpt><trkpt lat="43.3346015" lon="11.4820509"><ele>276.3333333333333</ele><time>2026-05-03T11:10:05.703Z</time></trkpt><trkpt lat="43.3345775" lon="11.4822864"><ele>278.6666666666667</ele><time>2026-05-03T11:10:06.711Z</time></trkpt><trkpt lat="43.3345912" lon="11.4825315"><ele>281.0</ele><time>2026-05-03T11:10:07.721Z</time></trkpt><trkpt lat="43.3346266" lon="11.4827714"><ele>282.0</ele><time>2026-05-03T11:10:08.705Z</time></trkpt><trkpt lat="43.3346668" lon="11.4830188"><ele>283.0</ele><time>2026-05-03T11:10:09.709Z</time></trkpt><trkpt lat="43.3346986" lon="11.4832731"><ele>284.0</ele><time>2026-05-03T11:10:10.706Z</time></trkpt><trkpt lat="43.3347267" lon="11.4835354"><ele>281.0</ele><time>2026-05-03T11:10:11.714Z</time></trkpt><trkpt lat="43.3347501" lon="11.4838039"><ele>278.0</ele><time>2026-05-03T11:10:12.714Z</time></trkpt><trkpt lat="43.3347753" lon="11.4840784"><ele>275.0</ele><time>2026-05-03T11:10:13.712Z</time></trkpt><trkpt lat="43.3348" lon="11.4843521"><ele>276.33333333333337</ele><time>2026-05-03T11:10:14.712Z</time></trkpt><trkpt lat="43.3348342" lon="11.4846298"><ele>277.6666666666667</ele><time>2026-05-03T11:10:15.728Z</time></trkpt><trkpt lat="43.3348676" lon="11.4849083"><ele>279.0</ele><time>2026-05-03T11:10:16.708Z</time></trkpt><trkpt lat="43.3348965" lon="11.485186"><ele>281.0</ele><time>2026-05-03T11:10:17.714Z</time></trkpt><trkpt lat="43.3349337" lon="11.485464"><ele>283.0</ele><time>2026-05-03T11:10:18.712Z</time></trkpt><trkpt lat="43.3349891" lon="11.4857425"><ele>285.0</ele><time>2026-05-03T11:10:19.705Z</time></trkpt><trkpt lat="43.3350658" lon="11.4860135"><ele>288.0</ele><time>2026-05-03T11:10:20.717Z</time></trkpt><trkpt lat="43.3351637" lon="11.4862781"><ele>291.0</ele><time>2026-05-03T11:10:21.72Z</time></trkpt><trkpt lat="43.3352728" lon="11.4865443"><ele>294.0</ele><time>2026-05-03T11:10:22.7Z</time></trkpt><trkpt lat="43.3353809" lon="11.486814"><ele>294.0</ele><time>2026-05-03T11:10:23.722Z</time></trkpt><trkpt lat="43.3354874" lon="11.4870738"><ele>294.0</ele><time>2026-05-03T11:10:24.705Z</time></trkpt><trkpt lat="43.335618" lon="11.487328"><ele>294.0</ele><time>2026-05-03T11:10:25.703Z</time></trkpt><trkpt lat="43.33578" lon="11.4875629"><ele>292.5</ele><time>2026-05-03T11:10:26.709Z</time></trkpt><trkpt lat="43.3359531" lon="11.4877833"><ele>291.0</ele><time>2026-05-03T11:10:27.713Z</time></trkpt><trkpt lat="43.3361175" lon="11.4880081"><ele>291.6666666666667</ele><time>2026-05-03T11:10:28.719Z</time></trkpt><trkpt lat="43.3362604" lon="11.4882271"><ele>292.33333333333337</ele><time>2026-05-03T11:10:29.721Z</time></trkpt><trkpt lat="43.3363849" lon="11.4884346"><ele>293.0</ele><time>2026-05-03T11:10:30.715Z</time></trkpt><trkpt lat="43.3365203" lon="11.4886273"><ele>295.0</ele><time>2026-05-03T11:10:31.716Z</time></trkpt><trkpt lat="43.3366978" lon="11.4887716"><ele>297.0</ele><time>2026-05-03T11:10:32.716Z</time></trkpt><trkpt lat="43.3368945" lon="11.4888891"><ele>299.0</ele><time>2026-05-03T11:10:33.707Z</time></trkpt><trkpt lat="43.3370964" lon="11.4890064"><ele>298.33333333333337</ele><time>2026-05-03T11:10:34.715Z</time></trkpt><trkpt lat="43.3372832" lon="11.4891564"><ele>297.6666666666667</ele><time>2026-05-03T11:10:35.711Z</time></trkpt><trkpt lat="43.3374668" lon="11.4893384"><ele>297.0</ele><time>2026-05-03T11:10:36.7Z</time></trkpt><trkpt lat="43.3376494" lon="11.4895388"><ele>297.5</ele><time>2026-05-03T11:10:37.723Z</time></trkpt><trkpt lat="43.3378342" lon="11.4897369"><ele>298.0</ele><time>2026-05-03T11:10:38.723Z</time></trkpt><trkpt lat="43.3380187" lon="11.4899314"><ele>300.5</ele><time>2026-05-03T11:10:39.709Z</time></trkpt><trkpt lat="43.3382043" lon="11.4901203"><ele>303.0</ele><time>2026-05-03T11:10:40.711Z</time></trkpt><trkpt lat="43.3383841" lon="11.4903103"><ele>302.3333333333333</ele><time>2026-05-03T11:10:41.731Z</time></trkpt><trkpt lat="43.3385634" lon="11.4904962"><ele>301.66666666666663</ele><time>2026-05-03T11:10:42.707Z</time></trkpt><trkpt lat="43.3387391" lon="11.4906859"><ele>301.0</ele><time>2026-05-03T11:10:43.71Z</time></trkpt><trkpt lat="43.3389095" lon="11.4908719"><ele>302.66666666666663</ele><time>2026-05-03T11:10:44.714Z</time></trkpt><trkpt lat="43.3390779" lon="11.491071"><ele>304.3333333333333</ele><time>2026-05-03T11:10:45.718Z</time></trkpt><trkpt lat="43.339242" lon="11.4912869"><ele>306.0</ele><time>2026-05-03T11:10:46.711Z</time></trkpt><trkpt lat="43.3394012" lon="11.4915217"><ele>306.0</ele><time>2026-05-03T11:10:47.717Z</time></trkpt><trkpt lat="43.3395595" lon="11.4917691"><ele>306.0</ele><time>2026-05-03T11:10:48.727Z</time></trkpt><trkpt lat="43.3397229" lon="11.4920186"><ele>308.5</ele><time>2026-05-03T11:10:49.721Z</time></trkpt><trkpt lat="43.3398876" lon="11.4922583"><ele>311.0</ele><time>2026-05-03T11:10:50.713Z</time></trkpt><trkpt lat="43.3400437" lon="11.4924874"><ele>311.0</ele><time>2026-05-03T11:10:51.72Z</time></trkpt><trkpt lat="43.3401943" lon="11.4927097"><ele>311.0</ele><time>2026-05-03T11:10:52.706Z</time></trkpt><trkpt lat="43.3403515" lon="11.4929315"><ele>311.0</ele><time>2026-05-03T11:10:53.715Z</time></trkpt><trkpt lat="43.3405234" lon="11.4931451"><ele>310.5</ele><time>2026-05-03T11:10:54.726Z</time></trkpt><trkpt lat="43.3407007" lon="11.4933608"><ele>310.0</ele><time>2026-05-03T11:10:55.712Z</time></trkpt><trkpt lat="43.3408815" lon="11.4935796"><ele>308.5</ele><time>2026-05-03T11:10:56.719Z</time></trkpt><trkpt lat="43.3410686" lon="11.4937988"><ele>307.0</ele><time>2026-05-03T11:10:57.73Z</time></trkpt><trkpt lat="43.3412622" lon="11.4940151"><ele>310.0</ele><time>2026-05-03T11:10:58.725Z</time></trkpt><trkpt lat="43.3414519" lon="11.4942308"><ele>313.0</ele><time>2026-05-03T11:10:59.709Z</time></trkpt><trkpt lat="43.3416339" lon="11.4944474"><ele>314.5</ele><time>2026-05-03T11:11:00.714Z</time></trkpt><trkpt lat="43.3418167" lon="11.4946591"><ele>316.0</ele><time>2026-05-03T11:11:01.715Z</time></trkpt><trkpt lat="43.341997" lon="11.494866"><ele>316.0</ele><time>2026-05-03T11:11:02.718Z</time></trkpt><trkpt lat="43.3421752" lon="11.4950716"><ele>316.0</ele><time>2026-05-03T11:11:03.72Z</time></trkpt><trkpt lat="43.3423474" lon="11.4952678"><ele>321.0</ele><time>2026-05-03T11:11:04.712Z</time></trkpt><trkpt lat="43.3425079" lon="11.4954615"><ele>326.0</ele><time>2026-05-03T11:11:05.717Z</time></trkpt><trkpt lat="43.3426576" lon="11.4956431"><ele>331.0</ele><time>2026-05-03T11:11:06.716Z</time></trkpt><trkpt lat="43.3427981" lon="11.4958119"><ele>331.0</ele><time>2026-05-03T11:11:07.711Z</time></trkpt><trkpt lat="43.3429272" lon="11.495965"><ele>331.0</ele><time>2026-05-03T11:11:08.704Z</time></trkpt><trkpt lat="43.3430384" lon="11.4961021"><ele>331.0</ele><time>2026-05-03T11:11:09.729Z</time></trkpt><trkpt lat="43.3431378" lon="11.4962281"><ele>331.75</ele><time>2026-05-03T11:11:10.703Z</time></trkpt><trkpt lat="43.3432306" lon="11.4963532"><ele>332.5</ele><time>2026-05-03T11:11:11.714Z</time></trkpt><trkpt lat="43.3433148" lon="11.496463"><ele>333.25</ele><time>2026-05-03T11:11:12.708Z</time></trkpt><trkpt lat="43.3434019" lon="11.4965707"><ele>334.0</ele><time>2026-05-03T11:11:13.711Z</time></trkpt><trkpt lat="43.3434862" lon="11.4966726"><ele>334.0</ele><time>2026-05-03T11:11:14.69Z</time></trkpt><trkpt lat="43.3435647" lon="11.4967697"><ele>334.0</ele><time>2026-05-03T11:11:15.718Z</time></trkpt><trkpt lat="43.3436377" lon="11.4968629"><ele>334.0</ele><time>2026-05-03T11:11:16.723Z</time></trkpt><trkpt lat="43.3437139" lon="11.4969568"><ele>334.0</ele><time>2026-05-03T11:11:17.714Z</time></trkpt><trkpt lat="43.3437808" lon="11.4970558"><ele>334.0</ele><time>2026-05-03T11:11:18.715Z</time></trkpt><trkpt lat="43.3438396" lon="11.4971587"><ele>334.6</ele><time>2026-05-03T11:11:19.722Z</time></trkpt><trkpt lat="43.3438893" lon="11.4972691"><ele>335.2</ele><time>2026-05-03T11:11:20.703Z</time></trkpt><trkpt lat="43.3439366" lon="11.4973922"><ele>335.8</ele><time>2026-05-03T11:11:21.707Z</time></trkpt><trkpt lat="43.3439868" lon="11.4975342"><ele>336.40000000000003</ele><time>2026-05-03T11:11:22.705Z</time></trkpt><trkpt lat="43.3440391" lon="11.4976852"><ele>337.0</ele><time>2026-05-03T11:11:23.718Z</time></trkpt><trkpt lat="43.3440974" lon="11.4978407"><ele>336.25</ele><time>2026-05-03T11:11:24.704Z</time></trkpt><trkpt lat="43.3441559" lon="11.4979907"><ele>335.5</ele><time>2026-05-03T11:11:25.71Z</time></trkpt><trkpt lat="43.3442123" lon="11.4981393"><ele>334.75</ele><time>2026-05-03T11:11:26.705Z</time></trkpt><trkpt lat="43.344269" lon="11.4982872"><ele>334.0</ele><time>2026-05-03T11:11:27.713Z</time></trkpt><trkpt lat="43.3443226" lon="11.4984373"><ele>334.0</ele><time>2026-05-03T11:11:28.724Z</time></trkpt><trkpt lat="43.3443736" lon="11.4985912"><ele>334.0</ele><time>2026-05-03T11:11:29.718Z</time></trkpt><trkpt lat="43.3444218" lon="11.4987384"><ele>334.0</ele><time>2026-05-03T11:11:30.708Z</time></trkpt><trkpt lat="43.3444658" lon="11.4988694"><ele>334.0</ele><time>2026-05-03T11:11:31.719Z</time></trkpt><trkpt lat="43.3445053" lon="11.4989911"><ele>334.0</ele><time>2026-05-03T11:11:32.707Z</time></trkpt><trkpt lat="43.3445433" lon="11.4991114"><ele>334.2</ele><time>2026-05-03T11:11:33.715Z</time></trkpt><trkpt lat="43.3445887" lon="11.4992402"><ele>334.4</ele><time>2026-05-03T11:11:34.71Z</time></trkpt><trkpt lat="43.3446389" lon="11.4993739"><ele>334.6</ele><time>2026-05-03T11:11:35.723Z</time></trkpt><trkpt lat="43.3446926" lon="11.4995142"><ele>334.8</ele><time>2026-05-03T11:11:36.701Z</time></trkpt><trkpt lat="43.3447501" lon="11.499658"><ele>335.0</ele><time>2026-05-03T11:11:37.717Z</time></trkpt><trkpt lat="43.3448076" lon="11.4998041"><ele>335.0</ele><time>2026-05-03T11:11:38.714Z</time></trkpt><trkpt lat="43.3448642" lon="11.4999492"><ele>335.0</ele><time>2026-05-03T11:11:39.71Z</time></trkpt><trkpt lat="43.3449149" lon="11.5000921"><ele>335.0</ele><time>2026-05-03T11:11:40.701Z</time></trkpt><trkpt lat="43.3449527" lon="11.5002182"><ele>335.0</ele><time>2026-05-03T11:11:41.717Z</time></trkpt><trkpt lat="43.3449925" lon="11.5003256"><ele>335.0</ele><time>2026-05-03T11:11:42.699Z</time></trkpt><trkpt lat="43.3450282" lon="11.5004184"><ele>334.99999999999994</ele><time>2026-05-03T11:11:43.721Z</time></trkpt><trkpt lat="43.3450388" lon="11.5005049"><ele>335.0</ele><time>2026-05-03T11:11:44.721Z</time></trkpt><trkpt lat="43.3450105" lon="11.5005869"><ele>335.0</ele><time>2026-05-03T11:11:45.705Z</time></trkpt><trkpt lat="43.3449678" lon="11.5006539"><ele>335.0</ele><time>2026-05-03T11:11:46.702Z</time></trkpt><trkpt lat="43.3449044" lon="11.5007052"><ele>335.0</ele><time>2026-05-03T11:11:47.7Z</time></trkpt><trkpt lat="43.3449022" lon="11.5007978"><ele>334.99999999999994</ele><time>2026-05-03T11:11:48.714Z</time></trkpt><trkpt lat="43.3449448" lon="11.5009131"><ele>335.0</ele><time>2026-05-03T11:11:49.716Z</time></trkpt><trkpt lat="43.3450037" lon="11.501027"><ele>335.0</ele><time>2026-05-03T11:11:50.714Z</time></trkpt><trkpt lat="43.3450651" lon="11.5011391"><ele>335.0</ele><time>2026-05-03T11:11:51.723Z</time></trkpt><trkpt lat="43.3451146" lon="11.5012606"><ele>335.0</ele><time>2026-05-03T11:11:52.721Z</time></trkpt><trkpt lat="43.3451508" lon="11.5014055"><ele>335.0</ele><time>2026-05-03T11:11:53.716Z</time></trkpt><trkpt lat="43.3451846" lon="11.5015592"><ele>335.0</ele><time>2026-05-03T11:11:54.719Z</time></trkpt><trkpt lat="43.345193" lon="11.5017207"><ele>335.25</ele><time>2026-05-03T11:11:55.705Z</time></trkpt><trkpt lat="43.3451672" lon="11.5018887"><ele>335.5</ele><time>2026-05-03T11:11:56.714Z</time></trkpt><trkpt lat="43.3451243" lon="11.5020542"><ele>335.75</ele><time>2026-05-03T11:11:57.708Z</time></trkpt><trkpt lat="43.3450695" lon="11.5022126"><ele>336.0</ele><time>2026-05-03T11:11:58.712Z</time></trkpt><trkpt lat="43.3450252" lon="11.5023652"><ele>337.4</ele><time>2026-05-03T11:11:59.71Z</time></trkpt><trkpt lat="43.3449844" lon="11.502499"><ele>338.8</ele><time>2026-05-03T11:12:00.704Z</time></trkpt><trkpt lat="43.3449489" lon="11.5026212"><ele>340.2</ele><time>2026-05-03T11:12:01.701Z</time></trkpt><trkpt lat="43.3449125" lon="11.5027529"><ele>341.59999999999997</ele><time>2026-05-03T11:12:02.699Z</time></trkpt><trkpt lat="43.344894" lon="11.502892"><ele>343.0</ele><time>2026-05-03T11:12:03.708Z</time></trkpt><trkpt lat="43.344894" lon="11.5030359"><ele>343.0</ele><time>2026-05-03T11:12:04.707Z</time></trkpt><trkpt lat="43.3449053" lon="11.5031699"><ele>343.0</ele><time>2026-05-03T11:12:05.722Z</time></trkpt><trkpt lat="43.3449317" lon="11.5032973"><ele>343.0</ele><time>2026-05-03T11:12:06.715Z</time></trkpt><trkpt lat="43.3449697" lon="11.5034315"><ele>343.0</ele><time>2026-05-03T11:12:07.718Z</time></trkpt><trkpt lat="43.3449967" lon="11.5035768"><ele>343.0</ele><time>2026-05-03T11:12:08.712Z</time></trkpt><trkpt lat="43.3449922" lon="11.5037299"><ele>343.0</ele><time>2026-05-03T11:12:09.708Z</time></trkpt><trkpt lat="43.3449647" lon="11.5038737"><ele>343.0</ele><time>2026-05-03T11:12:10.707Z</time></trkpt><trkpt lat="43.3449187" lon="11.5040025"><ele>343.0</ele><time>2026-05-03T11:12:11.714Z</time></trkpt><trkpt lat="43.3448669" lon="11.5041148"><ele>343.0</ele><time>2026-05-03T11:12:12.713Z</time></trkpt><trkpt lat="43.3448206" lon="11.5042087"><ele>343.0</ele><time>2026-05-03T11:12:13.713Z</time></trkpt><trkpt lat="43.3447878" lon="11.504294"><ele>343.0</ele><time>2026-05-03T11:12:14.706Z</time></trkpt><trkpt lat="43.3447517" lon="11.5043891"><ele>343.0</ele><time>2026-05-03T11:12:16.717Z</time></trkpt><trkpt lat="43.34479" lon="11.5044802"><ele>343.0</ele><time>2026-05-03T11:12:19.711Z</time></trkpt><trkpt lat="43.3448621" lon="11.5045072"><ele>343.0</ele><time>2026-05-03T11:12:20.7Z</time></trkpt><trkpt lat="43.34495" lon="11.5045203"><ele>343.0</ele><time>2026-05-03T11:12:21.721Z</time></trkpt><trkpt lat="43.3450565" lon="11.5045381"><ele>343.0</ele><time>2026-05-03T11:12:22.699Z</time></trkpt><trkpt lat="43.3451739" lon="11.504566"><ele>343.25</ele><time>2026-05-03T11:12:23.713Z</time></trkpt><trkpt lat="43.3452904" lon="11.5046032"><ele>343.5</ele><time>2026-05-03T11:12:24.702Z</time></trkpt><trkpt lat="43.3454057" lon="11.504651"><ele>343.75</ele><time>2026-05-03T11:12:25.724Z</time></trkpt><trkpt lat="43.3455066" lon="11.5047265"><ele>344.0</ele><time>2026-05-03T11:12:26.709Z</time></trkpt><trkpt lat="43.3456064" lon="11.504844"><ele>346.6666666666667</ele><time>2026-05-03T11:12:27.699Z</time></trkpt><trkpt lat="43.3457073" lon="11.5049793"><ele>349.3333333333333</ele><time>2026-05-03T11:12:28.7Z</time></trkpt><trkpt lat="43.3458247" lon="11.505123"><ele>352.0</ele><time>2026-05-03T11:12:29.713Z</time></trkpt><trkpt lat="43.3459479" lon="11.5052566"><ele>352.0</ele><time>2026-05-03T11:12:30.7Z</time></trkpt><trkpt lat="43.3460884" lon="11.5053709"><ele>352.0</ele><time>2026-05-03T11:12:31.718Z</time></trkpt><trkpt lat="43.3462394" lon="11.505459"><ele>352.0</ele><time>2026-05-03T11:12:32.714Z</time></trkpt><trkpt lat="43.3463959" lon="11.5055216"><ele>349.66666666666663</ele><time>2026-05-03T11:12:33.713Z</time></trkpt><trkpt lat="43.3465572" lon="11.5055558"><ele>347.3333333333333</ele><time>2026-05-03T11:12:34.712Z</time></trkpt><trkpt lat="43.3467236" lon="11.5055703"><ele>345.0</ele><time>2026-05-03T11:12:35.715Z</time></trkpt><trkpt lat="43.3468724" lon="11.5055715"><ele>345.0</ele><time>2026-05-03T11:12:36.712Z</time></trkpt><trkpt lat="43.3469939" lon="11.5055538"><ele>345.0</ele><time>2026-05-03T11:12:37.718Z</time></trkpt><trkpt lat="43.347088" lon="11.5055078"><ele>345.0</ele><time>2026-05-03T11:12:38.717Z</time></trkpt><trkpt lat="43.3471495" lon="11.5054127"><ele>345.0</ele><time>2026-05-03T11:12:39.726Z</time></trkpt><trkpt lat="43.3471824" lon="11.5052868"><ele>345.0</ele><time>2026-05-03T11:12:40.703Z</time></trkpt><trkpt lat="43.3471732" lon="11.5051494"><ele>346.75</ele><time>2026-05-03T11:12:41.711Z</time></trkpt><trkpt lat="43.3471393" lon="11.5050035"><ele>348.5</ele><time>2026-05-03T11:12:42.712Z</time></trkpt><trkpt lat="43.3470838" lon="11.5048526"><ele>350.25</ele><time>2026-05-03T11:12:43.714Z</time></trkpt><trkpt lat="43.3470269" lon="11.5046936"><ele>352.0</ele><time>2026-05-03T11:12:44.704Z</time></trkpt><trkpt lat="43.34698" lon="11.504551"><ele>352.0</ele><time>2026-05-03T11:12:45.726Z</time></trkpt><trkpt lat="43.3469433" lon="11.5044203"><ele>352.0</ele><time>2026-05-03T11:12:46.701Z</time></trkpt><trkpt lat="43.3469211" lon="11.5042938"><ele>352.0</ele><time>2026-05-03T11:12:47.707Z</time></trkpt><trkpt lat="43.3469232" lon="11.5041757"><ele>352.0</ele><time>2026-05-03T11:12:48.696Z</time></trkpt><trkpt lat="43.3469387" lon="11.504081"><ele>352.0</ele><time>2026-05-03T11:12:49.711Z</time></trkpt><trkpt lat="43.3469925" lon="11.503951"><ele>352.0</ele><time>2026-05-03T11:12:51.701Z</time></trkpt><trkpt lat="43.3470529" lon="11.5038873"><ele>352.0</ele><time>2026-05-03T11:12:52.705Z</time></trkpt><trkpt lat="43.347129" lon="11.503798"><ele>352.0</ele><time>2026-05-03T11:12:54.713Z</time></trkpt><trkpt lat="43.3472156" lon="11.5037269"><ele>352.0</ele><time>2026-05-03T11:12:56.711Z</time></trkpt><trkpt lat="43.3473077" lon="11.5036849"><ele>352.0</ele><time>2026-05-03T11:12:58.7Z</time></trkpt><trkpt lat="43.3473977" lon="11.5036415"><ele>348.5</ele><time>2026-05-03T11:13:00.703Z</time></trkpt><trkpt lat="43.3474941" lon="11.5036073"><ele>345.0</ele><time>2026-05-03T11:13:02.715Z</time></trkpt><trkpt lat="43.3476078" lon="11.5035747"><ele>341.5</ele><time>2026-05-03T11:13:04.714Z</time></trkpt><trkpt lat="43.347731" lon="11.5035846"><ele>338.0</ele><time>2026-05-03T11:13:06.702Z</time></trkpt><trkpt lat="43.3478395" lon="11.5036241"><ele>338.0</ele><time>2026-05-03T11:13:08.706Z</time></trkpt><trkpt lat="43.3479304" lon="11.5036928"><ele>338.0</ele><time>2026-05-03T11:13:10.696Z</time></trkpt><trkpt lat="43.3480146" lon="11.5037568"><ele>338.0</ele><time>2026-05-03T11:13:12.714Z</time></trkpt><trkpt lat="43.3480909" lon="11.5038171"><ele>338.0</ele><time>2026-05-03T11:13:14.704Z</time></trkpt><trkpt lat="43.3481656" lon="11.5038705"><ele>338.0</ele><time>2026-05-03T11:13:16.703Z</time></trkpt><trkpt lat="43.34826" lon="11.5039396"><ele>338.33333333333337</ele><time>2026-05-03T11:13:18.703Z</time></trkpt><trkpt lat="43.3483191" lon="11.503984"><ele>338.6666666666667</ele><time>2026-05-03T11:13:19.719Z</time></trkpt><trkpt lat="43.3483894" lon="11.5040318"><ele>339.0</ele><time>2026-05-03T11:13:20.703Z</time></trkpt><trkpt lat="43.3484543" lon="11.5040828"><ele>339.3333333333333</ele><time>2026-05-03T11:13:21.694Z</time></trkpt><trkpt lat="43.3485174" lon="11.5041295"><ele>339.66666666666663</ele><time>2026-05-03T11:13:22.697Z</time></trkpt><trkpt lat="43.3486102" lon="11.5042136"><ele>340.0</ele><time>2026-05-03T11:13:24.698Z</time></trkpt><trkpt lat="43.3486789" lon="11.5042955"><ele>340.0</ele><time>2026-05-03T11:13:26.708Z</time></trkpt><trkpt lat="43.3488184" lon="11.5043839"><ele>340.0</ele><time>2026-05-03T11:13:28.698Z</time></trkpt><trkpt lat="43.3489144" lon="11.5044465"><ele>340.0</ele><time>2026-05-03T11:13:29.715Z</time></trkpt><trkpt lat="43.3490119" lon="11.5045235"><ele>340.0</ele><time>2026-05-03T11:13:30.723Z</time></trkpt><trkpt lat="43.3491118" lon="11.5046075"><ele>338.5</ele><time>2026-05-03T11:13:31.706Z</time></trkpt><trkpt lat="43.3492218" lon="11.5046982"><ele>337.0</ele><time>2026-05-03T11:13:32.705Z</time></trkpt><trkpt lat="43.349335" lon="11.5047941"><ele>335.5</ele><time>2026-05-03T11:13:33.715Z</time></trkpt><trkpt lat="43.3494411" lon="11.5048912"><ele>334.0</ele><time>2026-05-03T11:13:34.713Z</time></trkpt><trkpt lat="43.3495399" lon="11.5049834"><ele>334.0</ele><time>2026-05-03T11:13:35.709Z</time></trkpt><trkpt lat="43.3496358" lon="11.5050611"><ele>334.0</ele><time>2026-05-03T11:13:36.701Z</time></trkpt><trkpt lat="43.3497286" lon="11.5051169"><ele>334.0</ele><time>2026-05-03T11:13:37.688Z</time></trkpt><trkpt lat="43.3498146" lon="11.5051835"><ele>334.0</ele><time>2026-05-03T11:13:38.706Z</time></trkpt><trkpt lat="43.3499089" lon="11.5052757"><ele>334.0</ele><time>2026-05-03T11:13:39.708Z</time></trkpt><trkpt lat="43.3500219" lon="11.5053894"><ele>334.3333333333333</ele><time>2026-05-03T11:13:40.714Z</time></trkpt><trkpt lat="43.3501434" lon="11.5055116"><ele>334.6666666666667</ele><time>2026-05-03T11:13:41.71Z</time></trkpt><trkpt lat="43.3502804" lon="11.5056241"><ele>335.0</ele><time>2026-05-03T11:13:42.71Z</time></trkpt><trkpt lat="43.350434" lon="11.5056925"><ele>335.0</ele><time>2026-05-03T11:13:43.728Z</time></trkpt><trkpt lat="43.3506093" lon="11.5057336"><ele>335.0</ele><time>2026-05-03T11:13:44.713Z</time></trkpt><trkpt lat="43.3508021" lon="11.5057382"><ele>335.0</ele><time>2026-05-03T11:13:45.73Z</time></trkpt><trkpt lat="43.3510071" lon="11.5057439"><ele>335.0</ele><time>2026-05-03T11:13:46.722Z</time></trkpt><trkpt lat="43.3512131" lon="11.5057401"><ele>335.0</ele><time>2026-05-03T11:13:47.717Z</time></trkpt><trkpt lat="43.3514235" lon="11.5057339"><ele>335.0</ele><time>2026-05-03T11:13:48.705Z</time></trkpt><trkpt lat="43.3516346" lon="11.5057319"><ele>335.33333333333337</ele><time>2026-05-03T11:13:49.726Z</time></trkpt><trkpt lat="43.3518435" lon="11.5057243"><ele>335.6666666666667</ele><time>2026-05-03T11:13:50.711Z</time></trkpt><trkpt lat="43.3520504" lon="11.5057083"><ele>336.0</ele><time>2026-05-03T11:13:51.705Z</time></trkpt><trkpt lat="43.3522525" lon="11.5056864"><ele>336.3333333333333</ele><time>2026-05-03T11:13:52.687Z</time></trkpt><trkpt lat="43.3524387" lon="11.5056686"><ele>336.66666666666663</ele><time>2026-05-03T11:13:53.711Z</time></trkpt><trkpt lat="43.3526422" lon="11.5056454"><ele>337.0</ele><time>2026-05-03T11:13:54.711Z</time></trkpt><trkpt lat="43.3528254" lon="11.505618"><ele>337.0</ele><time>2026-05-03T11:13:55.712Z</time></trkpt><trkpt lat="43.3529971" lon="11.5055908"><ele>337.0</ele><time>2026-05-03T11:13:56.721Z</time></trkpt><trkpt lat="43.3531555" lon="11.5055616"><ele>337.0</ele><time>2026-05-03T11:13:57.722Z</time></trkpt><trkpt lat="43.3533052" lon="11.5054885"><ele>338.66666666666663</ele><time>2026-05-03T11:13:58.697Z</time></trkpt><trkpt lat="43.3534498" lon="11.5053833"><ele>340.3333333333333</ele><time>2026-05-03T11:13:59.705Z</time></trkpt><trkpt lat="43.353592" lon="11.5052444"><ele>342.0</ele><time>2026-05-03T11:14:00.721Z</time></trkpt><trkpt lat="43.353731" lon="11.5050889"><ele>342.0</ele><time>2026-05-03T11:14:01.717Z</time></trkpt><trkpt lat="43.3538645" lon="11.5049437"><ele>342.0</ele><time>2026-05-03T11:14:02.718Z</time></trkpt><trkpt lat="43.3540095" lon="11.5047894"><ele>342.0</ele><time>2026-05-03T11:14:03.722Z</time></trkpt><trkpt lat="43.3541572" lon="11.5046348"><ele>343.0</ele><time>2026-05-03T11:14:04.716Z</time></trkpt><trkpt lat="43.3543069" lon="11.5044762"><ele>344.0</ele><time>2026-05-03T11:14:05.728Z</time></trkpt><trkpt lat="43.3544602" lon="11.5043116"><ele>345.0</ele><time>2026-05-03T11:14:06.72Z</time></trkpt><trkpt lat="43.354614" lon="11.5041423"><ele>346.6666666666667</ele><time>2026-05-03T11:14:07.717Z</time></trkpt><trkpt lat="43.3547645" lon="11.503965"><ele>348.33333333333337</ele><time>2026-05-03T11:14:08.711Z</time></trkpt><trkpt lat="43.354912" lon="11.5037784"><ele>350.0</ele><time>2026-05-03T11:14:09.727Z</time></trkpt><trkpt lat="43.3550543" lon="11.5035823"><ele>350.0</ele><time>2026-05-03T11:14:10.72Z</time></trkpt><trkpt lat="43.35518" lon="11.5033987"><ele>350.0</ele><time>2026-05-03T11:14:11.711Z</time></trkpt><trkpt lat="43.3552897" lon="11.503247"><ele>350.0</ele><time>2026-05-03T11:14:12.712Z</time></trkpt><trkpt lat="43.3554013" lon="11.5031283"><ele>350.0</ele><time>2026-05-03T11:14:13.72Z</time></trkpt><trkpt lat="43.3555236" lon="11.5030539"><ele>350.0</ele><time>2026-05-03T11:14:14.739Z</time></trkpt><trkpt lat="43.3556541" lon="11.5030345"><ele>350.0</ele><time>2026-05-03T11:14:15.715Z</time></trkpt><trkpt lat="43.3557936" lon="11.5030683"><ele>350.0</ele><time>2026-05-03T11:14:16.709Z</time></trkpt><trkpt lat="43.3559409" lon="11.5031178"><ele>351.75</ele><time>2026-05-03T11:14:17.707Z</time></trkpt><trkpt lat="43.3560945" lon="11.5031506"><ele>353.5</ele><time>2026-05-03T11:14:18.722Z</time></trkpt><trkpt lat="43.3562396" lon="11.5031367"><ele>355.25</ele><time>2026-05-03T11:14:19.709Z</time></trkpt><trkpt lat="43.3563696" lon="11.5030466"><ele>357.0</ele><time>2026-05-03T11:14:20.71Z</time></trkpt><trkpt lat="43.3564824" lon="11.5028941"><ele>357.6666666666667</ele><time>2026-05-03T11:14:21.703Z</time></trkpt><trkpt lat="43.3565818" lon="11.5027144"><ele>358.33333333333337</ele><time>2026-05-03T11:14:22.709Z</time></trkpt><trkpt lat="43.3566711" lon="11.5025195"><ele>359.0</ele><time>2026-05-03T11:14:23.703Z</time></trkpt><trkpt lat="43.3567319" lon="11.5023186"><ele>359.0</ele><time>2026-05-03T11:14:24.71Z</time></trkpt><trkpt lat="43.3567651" lon="11.5021016"><ele>359.0</ele><time>2026-05-03T11:14:25.715Z</time></trkpt><trkpt lat="43.3567551" lon="11.501904"><ele>359.0</ele><time>2026-05-03T11:14:26.71Z</time></trkpt><trkpt lat="43.3567199" lon="11.5017342"><ele>359.0</ele><time>2026-05-03T11:14:27.713Z</time></trkpt><trkpt lat="43.3566857" lon="11.5015694"><ele>358.75</ele><time>2026-05-03T11:14:28.71Z</time></trkpt><trkpt lat="43.3566713" lon="11.5013977"><ele>358.5</ele><time>2026-05-03T11:14:29.704Z</time></trkpt><trkpt lat="43.3566715" lon="11.5012208"><ele>358.25</ele><time>2026-05-03T11:14:30.714Z</time></trkpt><trkpt lat="43.3566997" lon="11.5010456"><ele>358.0</ele><time>2026-05-03T11:14:31.721Z</time></trkpt><trkpt lat="43.3567804" lon="11.5009029"><ele>358.0</ele><time>2026-05-03T11:14:32.713Z</time></trkpt><trkpt lat="43.3568965" lon="11.5008057"><ele>358.0</ele><time>2026-05-03T11:14:33.697Z</time></trkpt><trkpt lat="43.3570435" lon="11.5007635"><ele>358.0</ele><time>2026-05-03T11:14:34.681Z</time></trkpt><trkpt lat="43.3572058" lon="11.5007566"><ele>358.0</ele><time>2026-05-03T11:14:35.701Z</time></trkpt><trkpt lat="43.3573873" lon="11.500768"><ele>361.66666666666663</ele><time>2026-05-03T11:14:36.71Z</time></trkpt><trkpt lat="43.357582" lon="11.5007937"><ele>365.3333333333333</ele><time>2026-05-03T11:14:37.711Z</time></trkpt><trkpt lat="43.357793" lon="11.5008111"><ele>369.0</ele><time>2026-05-03T11:14:38.708Z</time></trkpt><trkpt lat="43.3580149" lon="11.5008233"><ele>372.5</ele><time>2026-05-03T11:14:39.712Z</time></trkpt><trkpt lat="43.3582433" lon="11.5008352"><ele>376.0</ele><time>2026-05-03T11:14:40.709Z</time></trkpt><trkpt lat="43.3584707" lon="11.5008397"><ele>376.0</ele><time>2026-05-03T11:14:41.712Z</time></trkpt><trkpt lat="43.3586909" lon="11.5008478"><ele>376.0</ele><time>2026-05-03T11:14:42.709Z</time></trkpt><trkpt lat="43.3588962" lon="11.5008574"><ele>376.0</ele><time>2026-05-03T11:14:43.704Z</time></trkpt><trkpt lat="43.3590928" lon="11.5008663"><ele>377.66666666666663</ele><time>2026-05-03T11:14:44.702Z</time></trkpt><trkpt lat="43.3592723" lon="11.5008804"><ele>379.3333333333333</ele><time>2026-05-03T11:14:45.702Z</time></trkpt><trkpt lat="43.3594365" lon="11.5008763"><ele>381.0</ele><time>2026-05-03T11:14:46.709Z</time></trkpt><trkpt lat="43.3595934" lon="11.5008294"><ele>382.33333333333337</ele><time>2026-05-03T11:14:47.711Z</time></trkpt><trkpt lat="43.3597357" lon="11.5007304"><ele>383.6666666666667</ele><time>2026-05-03T11:14:48.701Z</time></trkpt><trkpt lat="43.3598657" lon="11.5005895"><ele>385.0</ele><time>2026-05-03T11:14:49.71Z</time></trkpt><trkpt lat="43.359986" lon="11.5004523"><ele>384.0</ele><time>2026-05-03T11:14:50.699Z</time></trkpt><trkpt lat="43.3601105" lon="11.500363"><ele>383.0</ele><time>2026-05-03T11:14:51.702Z</time></trkpt><trkpt lat="43.3602528" lon="11.5003248"><ele>382.0</ele><time>2026-05-03T11:14:52.7Z</time></trkpt><trkpt lat="43.3604096" lon="11.5003242"><ele>381.0</ele><time>2026-05-03T11:14:53.706Z</time></trkpt><trkpt lat="43.3605781" lon="11.5003427"><ele>379.0</ele><time>2026-05-03T11:14:54.698Z</time></trkpt><trkpt lat="43.3607601" lon="11.5003517"><ele>377.0</ele><time>2026-05-03T11:14:55.72Z</time></trkpt><trkpt lat="43.3609571" lon="11.5003558"><ele>375.0</ele><time>2026-05-03T11:14:56.707Z</time></trkpt><trkpt lat="43.3611282" lon="11.5003277"><ele>375.0</ele><time>2026-05-03T11:14:57.715Z</time></trkpt><trkpt lat="43.3612811" lon="11.5003079"><ele>375.0</ele><time>2026-05-03T11:14:58.704Z</time></trkpt><trkpt lat="43.3614287" lon="11.5003114"><ele>375.0</ele><time>2026-05-03T11:14:59.711Z</time></trkpt><trkpt lat="43.3615578" lon="11.5003709"><ele>375.0</ele><time>2026-05-03T11:15:00.71Z</time></trkpt><trkpt lat="43.3616674" lon="11.5004834"><ele>376.6666666666667</ele><time>2026-05-03T11:15:01.714Z</time></trkpt><trkpt lat="43.361767" lon="11.5006311"><ele>378.33333333333337</ele><time>2026-05-03T11:15:02.7Z</time></trkpt><trkpt lat="43.36185" lon="11.5008247"><ele>380.0</ele><time>2026-05-03T11:15:03.721Z</time></trkpt><trkpt lat="43.3619269" lon="11.5010333"><ele>380.0</ele><time>2026-05-03T11:15:04.71Z</time></trkpt><trkpt lat="43.3620064" lon="11.5012388"><ele>380.0</ele><time>2026-05-03T11:15:05.71Z</time></trkpt><trkpt lat="43.362084" lon="11.5014171"><ele>380.0</ele><time>2026-05-03T11:15:06.709Z</time></trkpt><trkpt lat="43.3621722" lon="11.5015692"><ele>380.5</ele><time>2026-05-03T11:15:07.709Z</time></trkpt><trkpt lat="43.3622881" lon="11.5016737"><ele>381.0</ele><time>2026-05-03T11:15:08.71Z</time></trkpt><trkpt lat="43.3624269" lon="11.5017254"><ele>381.5</ele><time>2026-05-03T11:15:09.716Z</time></trkpt><trkpt lat="43.3625767" lon="11.5017099"><ele>382.0</ele><time>2026-05-03T11:15:10.702Z</time></trkpt><trkpt lat="43.362724" lon="11.5016409"><ele>382.0</ele><time>2026-05-03T11:15:11.711Z</time></trkpt><trkpt lat="43.362878" lon="11.5015478"><ele>382.0</ele><time>2026-05-03T11:15:12.72Z</time></trkpt><trkpt lat="43.3630378" lon="11.5014614"><ele>382.0</ele><time>2026-05-03T11:15:13.695Z</time></trkpt><trkpt lat="43.3631902" lon="11.5014192"><ele>380.66666666666663</ele><time>2026-05-03T11:15:14.708Z</time></trkpt><trkpt lat="43.363337" lon="11.5014058"><ele>379.3333333333333</ele><time>2026-05-03T11:15:15.712Z</time></trkpt><trkpt lat="43.3634923" lon="11.5014284"><ele>378.0</ele><time>2026-05-03T11:15:16.715Z</time></trkpt><trkpt lat="43.3636605" lon="11.5014837"><ele>378.0</ele><time>2026-05-03T11:15:17.715Z</time></trkpt><trkpt lat="43.363835" lon="11.5015486"><ele>378.0</ele><time>2026-05-03T11:15:18.706Z</time></trkpt><trkpt lat="43.3640144" lon="11.5016098"><ele>378.0</ele><time>2026-05-03T11:15:19.702Z</time></trkpt><trkpt lat="43.3641942" lon="11.5016721"><ele>376.0</ele><time>2026-05-03T11:15:20.715Z</time></trkpt><trkpt lat="43.3643869" lon="11.501737"><ele>374.0</ele><time>2026-05-03T11:15:21.716Z</time></trkpt><trkpt lat="43.3645905" lon="11.501808"><ele>372.0</ele><time>2026-05-03T11:15:22.701Z</time></trkpt><trkpt lat="43.3648098" lon="11.5018511"><ele>369.0</ele><time>2026-05-03T11:15:23.718Z</time></trkpt><trkpt lat="43.3650411" lon="11.50186"><ele>366.0</ele><time>2026-05-03T11:15:24.716Z</time></trkpt><trkpt lat="43.3652766" lon="11.5018593"><ele>366.0</ele><time>2026-05-03T11:15:25.722Z</time></trkpt><trkpt lat="43.3654938" lon="11.501863"><ele>366.0</ele><time>2026-05-03T11:15:26.706Z</time></trkpt><trkpt lat="43.3656988" lon="11.501866"><ele>366.0</ele><time>2026-05-03T11:15:27.704Z</time></trkpt><trkpt lat="43.365894" lon="11.5018723"><ele>365.6666666666667</ele><time>2026-05-03T11:15:28.705Z</time></trkpt><trkpt lat="43.3660805" lon="11.5018724"><ele>365.33333333333337</ele><time>2026-05-03T11:15:29.717Z</time></trkpt><trkpt lat="43.3662654" lon="11.5018532"><ele>365.0</ele><time>2026-05-03T11:15:30.712Z</time></trkpt><trkpt lat="43.3664517" lon="11.5018029"><ele>364.0</ele><time>2026-05-03T11:15:31.718Z</time></trkpt><trkpt lat="43.3666405" lon="11.5017193"><ele>363.0</ele><time>2026-05-03T11:15:32.706Z</time></trkpt><trkpt lat="43.3668257" lon="11.5016229"><ele>362.0</ele><time>2026-05-03T11:15:33.716Z</time></trkpt><trkpt lat="43.367005" lon="11.501519"><ele>362.0</ele><time>2026-05-03T11:15:34.714Z</time></trkpt><trkpt lat="43.3671906" lon="11.501424"><ele>362.0</ele><time>2026-05-03T11:15:35.713Z</time></trkpt><trkpt lat="43.3673797" lon="11.5013663"><ele>362.0</ele><time>2026-05-03T11:15:36.711Z</time></trkpt><trkpt lat="43.3675668" lon="11.5013369"><ele>361.33333333333337</ele><time>2026-05-03T11:15:37.715Z</time></trkpt><trkpt lat="43.3677373" lon="11.5012914"><ele>360.6666666666667</ele><time>2026-05-03T11:15:38.709Z</time></trkpt><trkpt lat="43.3678932" lon="11.5011769"><ele>360.0</ele><time>2026-05-03T11:15:39.717Z</time></trkpt><trkpt lat="43.3680333" lon="11.5010274"><ele>359.0</ele><time>2026-05-03T11:15:40.707Z</time></trkpt><trkpt lat="43.3681344" lon="11.5008443"><ele>358.0</ele><time>2026-05-03T11:15:41.708Z</time></trkpt><trkpt lat="43.3682194" lon="11.5006541"><ele>357.0</ele><time>2026-05-03T11:15:42.708Z</time></trkpt><trkpt lat="43.3683037" lon="11.5004668"><ele>357.6666666666667</ele><time>2026-05-03T11:15:43.721Z</time></trkpt><trkpt lat="43.3684201" lon="11.5003021"><ele>358.33333333333337</ele><time>2026-05-03T11:15:44.71Z</time></trkpt><trkpt lat="43.3685648" lon="11.5001529"><ele>359.0</ele><time>2026-05-03T11:15:45.715Z</time></trkpt><trkpt lat="43.3687274" lon="11.5000167"><ele>357.6666666666667</ele><time>2026-05-03T11:15:46.702Z</time></trkpt><trkpt lat="43.3688989" lon="11.4998817"><ele>356.3333333333333</ele><time>2026-05-03T11:15:47.716Z</time></trkpt><trkpt lat="43.3690694" lon="11.4997582"><ele>355.0</ele><time>2026-05-03T11:15:48.721Z</time></trkpt><trkpt lat="43.3692437" lon="11.49963"><ele>355.0</ele><time>2026-05-03T11:15:49.702Z</time></trkpt><trkpt lat="43.3694239" lon="11.4995016"><ele>355.0</ele><time>2026-05-03T11:15:50.715Z</time></trkpt><trkpt lat="43.3696051" lon="11.4993723"><ele>355.0</ele><time>2026-05-03T11:15:51.714Z</time></trkpt><trkpt lat="43.36979" lon="11.499236"><ele>355.66666666666663</ele><time>2026-05-03T11:15:52.716Z</time></trkpt><trkpt lat="43.3699746" lon="11.4990988"><ele>356.3333333333333</ele><time>2026-05-03T11:15:53.71Z</time></trkpt><trkpt lat="43.3701606" lon="11.4989552"><ele>357.0</ele><time>2026-05-03T11:15:54.719Z</time></trkpt><trkpt lat="43.3703438" lon="11.4987999"><ele>357.3333333333333</ele><time>2026-05-03T11:15:55.712Z</time></trkpt><trkpt lat="43.3705186" lon="11.4986252"><ele>357.66666666666663</ele><time>2026-05-03T11:15:56.715Z</time></trkpt><trkpt lat="43.3706785" lon="11.4984268"><ele>358.0</ele><time>2026-05-03T11:15:57.714Z</time></trkpt><trkpt lat="43.3708335" lon="11.4982264"><ele>358.0</ele><time>2026-05-03T11:15:58.707Z</time></trkpt><trkpt lat="43.3709962" lon="11.4980403"><ele>358.0</ele><time>2026-05-03T11:15:59.715Z</time></trkpt><trkpt lat="43.3711753" lon="11.4978884"><ele>358.0</ele><time>2026-05-03T11:16:00.705Z</time></trkpt><trkpt lat="43.3713693" lon="11.4977862"><ele>358.3333333333333</ele><time>2026-05-03T11:16:01.718Z</time></trkpt><trkpt lat="43.371573" lon="11.497714"><ele>358.6666666666667</ele><time>2026-05-03T11:16:02.708Z</time></trkpt><trkpt lat="43.3717721" lon="11.4976641"><ele>359.0</ele><time>2026-05-03T11:16:03.714Z</time></trkpt><trkpt lat="43.3719732" lon="11.4976272"><ele>359.0</ele><time>2026-05-03T11:16:04.711Z</time></trkpt><trkpt lat="43.3721789" lon="11.4976206"><ele>359.0</ele><time>2026-05-03T11:16:05.714Z</time></trkpt><trkpt lat="43.3723878" lon="11.4976435"><ele>359.0</ele><time>2026-05-03T11:16:06.712Z</time></trkpt><trkpt lat="43.3725929" lon="11.497696"><ele>359.6666666666667</ele><time>2026-05-03T11:16:07.714Z</time></trkpt><trkpt lat="43.3727962" lon="11.4977657"><ele>360.3333333333333</ele><time>2026-05-03T11:16:08.721Z</time></trkpt><trkpt lat="43.3730038" lon="11.4978535"><ele>361.0</ele><time>2026-05-03T11:16:09.718Z</time></trkpt><trkpt lat="43.3732113" lon="11.4979463"><ele>363.0</ele><time>2026-05-03T11:16:10.713Z</time></trkpt><trkpt lat="43.3734126" lon="11.498024"><ele>365.0</ele><time>2026-05-03T11:16:11.713Z</time></trkpt><trkpt lat="43.3736042" lon="11.4980721"><ele>367.0</ele><time>2026-05-03T11:16:12.706Z</time></trkpt><trkpt lat="43.373791" lon="11.498076"><ele>368.66666666666663</ele><time>2026-05-03T11:16:13.713Z</time></trkpt><trkpt lat="43.3739565" lon="11.4980256"><ele>370.3333333333333</ele><time>2026-05-03T11:16:14.697Z</time></trkpt><trkpt lat="43.3741073" lon="11.4979842"><ele>372.0</ele><time>2026-05-03T11:16:15.713Z</time></trkpt><trkpt lat="43.3742561" lon="11.4979587"><ele>372.0</ele><time>2026-05-03T11:16:16.711Z</time></trkpt><trkpt lat="43.3744055" lon="11.497953"><ele>372.0</ele><time>2026-05-03T11:16:17.729Z</time></trkpt><trkpt lat="43.3745493" lon="11.4979747"><ele>372.0</ele><time>2026-05-03T11:16:18.719Z</time></trkpt><trkpt lat="43.3746881" lon="11.498017"><ele>372.0</ele><time>2026-05-03T11:16:19.709Z</time></trkpt><trkpt lat="43.3748351" lon="11.4980825"><ele>373.6666666666667</ele><time>2026-05-03T11:16:20.714Z</time></trkpt><trkpt lat="43.3749806" lon="11.4981736"><ele>375.33333333333337</ele><time>2026-05-03T11:16:21.718Z</time></trkpt><trkpt lat="43.3751257" lon="11.4982748"><ele>377.0</ele><time>2026-05-03T11:16:22.71Z</time></trkpt><trkpt lat="43.3752717" lon="11.4983667"><ele>377.0</ele><time>2026-05-03T11:16:23.713Z</time></trkpt><trkpt lat="43.3754095" lon="11.4984347"><ele>377.0</ele><time>2026-05-03T11:16:24.713Z</time></trkpt><trkpt lat="43.3755258" lon="11.4984814"><ele>377.0</ele><time>2026-05-03T11:16:25.712Z</time></trkpt><trkpt lat="43.3756207" lon="11.4985425"><ele>377.0</ele><time>2026-05-03T11:16:26.706Z</time></trkpt><trkpt lat="43.3756836" lon="11.4986314"><ele>377.6</ele><time>2026-05-03T11:16:27.707Z</time></trkpt><trkpt lat="43.375715" lon="11.4987473"><ele>378.20000000000005</ele><time>2026-05-03T11:16:28.706Z</time></trkpt><trkpt lat="43.3757139" lon="11.4988762"><ele>378.8</ele><time>2026-05-03T11:16:29.707Z</time></trkpt><trkpt lat="43.3757012" lon="11.4990099"><ele>379.4</ele><time>2026-05-03T11:16:30.702Z</time></trkpt><trkpt lat="43.3756932" lon="11.4991408"><ele>380.0</ele><time>2026-05-03T11:16:31.712Z</time></trkpt><trkpt lat="43.3756851" lon="11.4992656"><ele>380.0</ele><time>2026-05-03T11:16:32.715Z</time></trkpt><trkpt lat="43.3756596" lon="11.4999405"><ele>380.0</ele><time>2026-05-03T11:16:37.708Z</time></trkpt><trkpt lat="43.3757124" lon="11.5000919"><ele>380.0</ele><time>2026-05-03T11:16:38.698Z</time></trkpt><trkpt lat="43.3757766" lon="11.5001963"><ele>380.0</ele><time>2026-05-03T11:16:39.711Z</time></trkpt><trkpt lat="43.3758465" lon="11.5003024"><ele>380.0</ele><time>2026-05-03T11:16:40.7Z</time></trkpt><trkpt lat="43.3758977" lon="11.5004109"><ele>380.0</ele><time>2026-05-03T11:16:41.708Z</time></trkpt><trkpt lat="43.375931" lon="11.5005126"><ele>378.83333333333337</ele><time>2026-05-03T11:16:42.699Z</time></trkpt><trkpt lat="43.3759554" lon="11.500614"><ele>377.6666666666667</ele><time>2026-05-03T11:16:43.712Z</time></trkpt><trkpt lat="43.3759671" lon="11.5007067"><ele>376.5</ele><time>2026-05-03T11:16:44.712Z</time></trkpt><trkpt lat="43.3759739" lon="11.5008412"><ele>375.3333333333333</ele><time>2026-05-03T11:16:46.711Z</time></trkpt><trkpt lat="43.3759817" lon="11.5009478"><ele>374.16666666666663</ele><time>2026-05-03T11:16:49.708Z</time></trkpt><trkpt lat="43.3759633" lon="11.501067"><ele>373.0</ele><time>2026-05-03T11:17:06.704Z</time></trkpt><trkpt lat="43.375974" lon="11.5011904"><ele>371.2</ele><time>2026-05-03T11:17:08.696Z</time></trkpt><trkpt lat="43.3759781" lon="11.5013764"><ele>369.4</ele><time>2026-05-03T11:17:10.705Z</time></trkpt><trkpt lat="43.3760011" lon="11.5014876"><ele>367.59999999999997</ele><time>2026-05-03T11:17:11.706Z</time></trkpt><trkpt lat="43.3760344" lon="11.5016115"><ele>365.79999999999995</ele><time>2026-05-03T11:17:12.703Z</time></trkpt><trkpt lat="43.3760641" lon="11.5017454"><ele>364.0</ele><time>2026-05-03T11:17:13.712Z</time></trkpt><trkpt lat="43.3760962" lon="11.501895"><ele>364.0</ele><time>2026-05-03T11:17:14.714Z</time></trkpt><trkpt lat="43.3761137" lon="11.5020493"><ele>364.0</ele><time>2026-05-03T11:17:15.706Z</time></trkpt><trkpt lat="43.3761305" lon="11.5022146"><ele>364.0</ele><time>2026-05-03T11:17:16.721Z</time></trkpt><trkpt lat="43.3761454" lon="11.5023827"><ele>364.0</ele><time>2026-05-03T11:17:17.7Z</time></trkpt><trkpt lat="43.3761638" lon="11.5025567"><ele>362.75</ele><time>2026-05-03T11:17:18.71Z</time></trkpt><trkpt lat="43.3761771" lon="11.5027311"><ele>361.5</ele><time>2026-05-03T11:17:19.726Z</time></trkpt><trkpt lat="43.3761642" lon="11.5028953"><ele>360.25</ele><time>2026-05-03T11:17:20.707Z</time></trkpt><trkpt lat="43.3761384" lon="11.5030544"><ele>359.0</ele><time>2026-05-03T11:17:21.705Z</time></trkpt><trkpt lat="43.3761082" lon="11.5031954"><ele>357.79999999999995</ele><time>2026-05-03T11:17:22.686Z</time></trkpt><trkpt lat="43.376098" lon="11.5033299"><ele>356.59999999999997</ele><time>2026-05-03T11:17:23.712Z</time></trkpt><trkpt lat="43.3761161" lon="11.5034625"><ele>355.4</ele><time>2026-05-03T11:17:24.708Z</time></trkpt><trkpt lat="43.3761508" lon="11.5035856"><ele>354.2</ele><time>2026-05-03T11:17:25.726Z</time></trkpt><trkpt lat="43.3761974" lon="11.5036927"><ele>353.0</ele><time>2026-05-03T11:17:26.72Z</time></trkpt><trkpt lat="43.3762581" lon="11.5037658"><ele>353.0</ele><time>2026-05-03T11:17:27.722Z</time></trkpt><trkpt lat="43.3763381" lon="11.5038016"><ele>353.0</ele><time>2026-05-03T11:17:28.689Z</time></trkpt><trkpt lat="43.376427" lon="11.5038051"><ele>353.0</ele><time>2026-05-03T11:17:29.713Z</time></trkpt><trkpt lat="43.3765326" lon="11.5037924"><ele>353.0</ele><time>2026-05-03T11:17:30.707Z</time></trkpt><trkpt lat="43.3766411" lon="11.5037894"><ele>353.0</ele><time>2026-05-03T11:17:31.71Z</time></trkpt><trkpt lat="43.3767374" lon="11.5038217"><ele>353.0</ele><time>2026-05-03T11:17:32.716Z</time></trkpt><trkpt lat="43.3768173" lon="11.5038887"><ele>353.0</ele><time>2026-05-03T11:17:33.699Z</time></trkpt><trkpt lat="43.3768691" lon="11.5039834"><ele>353.0</ele><time>2026-05-03T11:17:34.722Z</time></trkpt><trkpt lat="43.3768826" lon="11.5040971"><ele>353.0</ele><time>2026-05-03T11:17:35.694Z</time></trkpt><trkpt lat="43.3768548" lon="11.504215"><ele>353.0</ele><time>2026-05-03T11:17:36.689Z</time></trkpt><trkpt lat="43.376803" lon="11.5043269"><ele>353.0</ele><time>2026-05-03T11:17:37.723Z</time></trkpt><trkpt lat="43.3767281" lon="11.5044069"><ele>353.0</ele><time>2026-05-03T11:17:38.719Z</time></trkpt><trkpt lat="43.3766331" lon="11.5044578"><ele>353.0</ele><time>2026-05-03T11:17:39.713Z</time></trkpt><trkpt lat="43.3765111" lon="11.504496"><ele>353.0</ele><time>2026-05-03T11:17:40.707Z</time></trkpt><trkpt lat="43.3763776" lon="11.5045302"><ele>352.25</ele><time>2026-05-03T11:17:41.706Z</time></trkpt><trkpt lat="43.3762384" lon="11.5045632"><ele>351.5</ele><time>2026-05-03T11:17:42.716Z</time></trkpt><trkpt lat="43.3760926" lon="11.5046146"><ele>350.75</ele><time>2026-05-03T11:17:43.706Z</time></trkpt><trkpt lat="43.3759469" lon="11.5046581"><ele>350.0</ele><time>2026-05-03T11:17:44.727Z</time></trkpt><trkpt lat="43.375804" lon="11.5046985"><ele>350.0</ele><time>2026-05-03T11:17:45.709Z</time></trkpt><trkpt lat="43.3756615" lon="11.5047299"><ele>350.0</ele><time>2026-05-03T11:17:46.71Z</time></trkpt><trkpt lat="43.3755234" lon="11.5047583"><ele>350.0</ele><time>2026-05-03T11:17:47.734Z</time></trkpt><trkpt lat="43.3753844" lon="11.5047757"><ele>350.0</ele><time>2026-05-03T11:17:48.701Z</time></trkpt><trkpt lat="43.3752519" lon="11.504787"><ele>350.75</ele><time>2026-05-03T11:17:49.718Z</time></trkpt><trkpt lat="43.3751248" lon="11.5048075"><ele>351.5</ele><time>2026-05-03T11:17:50.71Z</time></trkpt><trkpt lat="43.3750027" lon="11.5048356"><ele>352.25</ele><time>2026-05-03T11:17:51.703Z</time></trkpt><trkpt lat="43.3748796" lon="11.5048832"><ele>353.0</ele><time>2026-05-03T11:17:52.706Z</time></trkpt><trkpt lat="43.3747647" lon="11.5049498"><ele>351.2</ele><time>2026-05-03T11:17:53.705Z</time></trkpt><trkpt lat="43.3746574" lon="11.5050323"><ele>349.4</ele><time>2026-05-03T11:17:54.71Z</time></trkpt><trkpt lat="43.3745664" lon="11.5051127"><ele>347.59999999999997</ele><time>2026-05-03T11:17:55.717Z</time></trkpt><trkpt lat="43.3745007" lon="11.5051977"><ele>345.79999999999995</ele><time>2026-05-03T11:17:56.714Z</time></trkpt><trkpt lat="43.3744735" lon="11.5052992"><ele>344.0</ele><time>2026-05-03T11:17:57.71Z</time></trkpt><trkpt lat="43.3744836" lon="11.5053973"><ele>346.0</ele><time>2026-05-03T11:17:58.71Z</time></trkpt><trkpt lat="43.3745178" lon="11.505496"><ele>348.0</ele><time>2026-05-03T11:17:59.713Z</time></trkpt><trkpt lat="43.374573" lon="11.5056133"><ele>350.0</ele><time>2026-05-03T11:18:00.703Z</time></trkpt><trkpt lat="43.3746371" lon="11.5057532"><ele>352.0</ele><time>2026-05-03T11:18:01.701Z</time></trkpt><trkpt lat="43.3746806" lon="11.5059151"><ele>354.0</ele><time>2026-05-03T11:18:02.698Z</time></trkpt><trkpt lat="43.3746875" lon="11.5060831"><ele>354.0</ele><time>2026-05-03T11:18:03.705Z</time></trkpt><trkpt lat="43.3746775" lon="11.5062386"><ele>354.0</ele><time>2026-05-03T11:18:04.7Z</time></trkpt><trkpt lat="43.3746448" lon="11.506366"><ele>354.0</ele><time>2026-05-03T11:18:05.707Z</time></trkpt><trkpt lat="43.3745831" lon="11.5064374"><ele>354.0</ele><time>2026-05-03T11:18:06.7Z</time></trkpt><trkpt lat="43.3745148" lon="11.5064509"><ele>354.0</ele><time>2026-05-03T11:18:07.703Z</time></trkpt><trkpt lat="43.3744479" lon="11.5064214"><ele>354.0</ele><time>2026-05-03T11:18:08.701Z</time></trkpt><trkpt lat="43.3743958" lon="11.506351"><ele>354.0</ele><time>2026-05-03T11:18:09.696Z</time></trkpt><trkpt lat="43.3743557" lon="11.5062617"><ele>354.0</ele><time>2026-05-03T11:18:10.693Z</time></trkpt><trkpt lat="43.3743334" lon="11.506178"><ele>354.0</ele><time>2026-05-03T11:18:11.688Z</time></trkpt><trkpt lat="43.3742605" lon="11.5061031"><ele>354.0</ele><time>2026-05-03T11:18:13.692Z</time></trkpt><trkpt lat="43.3741798" lon="11.5061288"><ele>354.0</ele><time>2026-05-03T11:18:15.692Z</time></trkpt><trkpt lat="43.3741075" lon="11.5062118"><ele>354.0</ele><time>2026-05-03T11:18:17.701Z</time></trkpt><trkpt lat="43.3740656" lon="11.5062958"><ele>354.5</ele><time>2026-05-03T11:18:18.692Z</time></trkpt><trkpt lat="43.3739993" lon="11.5064193"><ele>355.0</ele><time>2026-05-03T11:18:19.703Z</time></trkpt><trkpt lat="43.3739254" lon="11.5065773"><ele>355.5</ele><time>2026-05-03T11:18:20.704Z</time></trkpt><trkpt lat="43.3738556" lon="11.5066985"><ele>356.0</ele><time>2026-05-03T11:18:21.706Z</time></trkpt><trkpt lat="43.3737897" lon="11.5068079"><ele>356.0</ele><time>2026-05-03T11:18:22.692Z</time></trkpt><trkpt lat="43.3737139" lon="11.5069068"><ele>356.0</ele><time>2026-05-03T11:18:23.703Z</time></trkpt><trkpt lat="43.373629" lon="11.5070169"><ele>356.0</ele><time>2026-05-03T11:18:24.702Z</time></trkpt><trkpt lat="43.3735776" lon="11.5071316"><ele>356.0</ele><time>2026-05-03T11:18:25.703Z</time></trkpt><trkpt lat="43.3735555" lon="11.5072461"><ele>356.0</ele><time>2026-05-03T11:18:26.696Z</time></trkpt><trkpt lat="43.3735555" lon="11.5073699"><ele>357.0</ele><time>2026-05-03T11:18:27.709Z</time></trkpt><trkpt lat="43.3735865" lon="11.5075144"><ele>358.0</ele><time>2026-05-03T11:18:28.698Z</time></trkpt><trkpt lat="43.3736269" lon="11.5076597"><ele>359.0</ele><time>2026-05-03T11:18:29.698Z</time></trkpt><trkpt lat="43.3736867" lon="11.5077878"><ele>360.0</ele><time>2026-05-03T11:18:30.718Z</time></trkpt><trkpt lat="43.3737738" lon="11.5079084"><ele>363.25</ele><time>2026-05-03T11:18:31.723Z</time></trkpt><trkpt lat="43.3738772" lon="11.5080174"><ele>366.5</ele><time>2026-05-03T11:18:32.709Z</time></trkpt><trkpt lat="43.3739904" lon="11.5081147"><ele>369.75</ele><time>2026-05-03T11:18:33.711Z</time></trkpt><trkpt lat="43.3741065" lon="11.5081997"><ele>373.0</ele><time>2026-05-03T11:18:34.714Z</time></trkpt><trkpt lat="43.3742218" lon="11.5082665"><ele>373.0</ele><time>2026-05-03T11:18:35.716Z</time></trkpt><trkpt lat="43.3743315" lon="11.5083203"><ele>373.0</ele><time>2026-05-03T11:18:36.713Z</time></trkpt><trkpt lat="43.3744408" lon="11.5083754"><ele>373.0</ele><time>2026-05-03T11:18:37.717Z</time></trkpt><trkpt lat="43.3745468" lon="11.5084365"><ele>373.0</ele><time>2026-05-03T11:18:38.703Z</time></trkpt><trkpt lat="43.3746537" lon="11.5084986"><ele>375.0</ele><time>2026-05-03T11:18:39.711Z</time></trkpt><trkpt lat="43.3747554" lon="11.5085734"><ele>377.0</ele><time>2026-05-03T11:18:40.715Z</time></trkpt><trkpt lat="43.3748422" lon="11.5086727"><ele>379.0</ele><time>2026-05-03T11:18:41.723Z</time></trkpt><trkpt lat="43.3749128" lon="11.5087932"><ele>381.0</ele><time>2026-05-03T11:18:42.71Z</time></trkpt><trkpt lat="43.3749662" lon="11.5089428"><ele>381.0</ele><time>2026-05-03T11:18:43.717Z</time></trkpt><trkpt lat="43.3750076" lon="11.5090912"><ele>381.0</ele><time>2026-05-03T11:18:44.713Z</time></trkpt><trkpt lat="43.3750535" lon="11.5092377"><ele>381.0</ele><time>2026-05-03T11:18:45.712Z</time></trkpt><trkpt lat="43.3751046" lon="11.5093802"><ele>381.0</ele><time>2026-05-03T11:18:46.705Z</time></trkpt><trkpt lat="43.3751621" lon="11.5095077"><ele>381.0</ele><time>2026-05-03T11:18:47.722Z</time></trkpt><trkpt lat="43.3752354" lon="11.50963"><ele>381.0</ele><time>2026-05-03T11:18:48.716Z</time></trkpt><trkpt lat="43.3753128" lon="11.5097372"><ele>381.0</ele><time>2026-05-03T11:18:49.712Z</time></trkpt><trkpt lat="43.3753964" lon="11.5098342"><ele>381.0</ele><time>2026-05-03T11:18:50.708Z</time></trkpt><trkpt lat="43.3754911" lon="11.5099294"><ele>381.75</ele><time>2026-05-03T11:18:51.73Z</time></trkpt><trkpt lat="43.375591" lon="11.5100233"><ele>382.5</ele><time>2026-05-03T11:18:52.709Z</time></trkpt><trkpt lat="43.3756923" lon="11.5101146"><ele>383.25</ele><time>2026-05-03T11:18:53.71Z</time></trkpt><trkpt lat="43.3757946" lon="11.5102119"><ele>384.0</ele><time>2026-05-03T11:18:54.71Z</time></trkpt><trkpt lat="43.3758972" lon="11.5103105"><ele>384.0</ele><time>2026-05-03T11:18:55.703Z</time></trkpt><trkpt lat="43.376004" lon="11.5104041"><ele>384.0</ele><time>2026-05-03T11:18:56.716Z</time></trkpt><trkpt lat="43.3761045" lon="11.5105044"><ele>384.0</ele><time>2026-05-03T11:18:57.719Z</time></trkpt><trkpt lat="43.3761953" lon="11.510611"><ele>384.0</ele><time>2026-05-03T11:18:58.717Z</time></trkpt><trkpt lat="43.3762696" lon="11.5107149"><ele>384.0</ele><time>2026-05-03T11:18:59.712Z</time></trkpt><trkpt lat="43.3763242" lon="11.5108218"><ele>384.0</ele><time>2026-05-03T11:19:00.724Z</time></trkpt><trkpt lat="43.3763555" lon="11.5109504"><ele>384.0</ele><time>2026-05-03T11:19:01.714Z</time></trkpt><trkpt lat="43.3763673" lon="11.5110911"><ele>384.0</ele><time>2026-05-03T11:19:02.714Z</time></trkpt><trkpt lat="43.3763572" lon="11.5112372"><ele>384.0</ele><time>2026-05-03T11:19:03.712Z</time></trkpt><trkpt lat="43.3763465" lon="11.5113883"><ele>385.0</ele><time>2026-05-03T11:19:04.703Z</time></trkpt><trkpt lat="43.376327" lon="11.5115341"><ele>386.0</ele><time>2026-05-03T11:19:05.715Z</time></trkpt><trkpt lat="43.3763065" lon="11.5116799"><ele>387.0</ele><time>2026-05-03T11:19:06.711Z</time></trkpt><trkpt lat="43.3762987" lon="11.5118188"><ele>388.0</ele><time>2026-05-03T11:19:07.711Z</time></trkpt><trkpt lat="43.3763349" lon="11.5119397"><ele>389.0</ele><time>2026-05-03T11:19:08.706Z</time></trkpt><trkpt lat="43.376406" lon="11.5120434"><ele>389.79999999999995</ele><time>2026-05-03T11:19:09.718Z</time></trkpt><trkpt lat="43.3764975" lon="11.512104"><ele>390.59999999999997</ele><time>2026-05-03T11:19:10.708Z</time></trkpt><trkpt lat="43.376599" lon="11.5121427"><ele>391.4</ele><time>2026-05-03T11:19:11.713Z</time></trkpt><trkpt lat="43.3767026" lon="11.5121879"><ele>392.2</ele><time>2026-05-03T11:19:12.706Z</time></trkpt><trkpt lat="43.3768133" lon="11.5122425"><ele>393.0</ele><time>2026-05-03T11:19:13.715Z</time></trkpt><trkpt lat="43.3769305" lon="11.5122951"><ele>393.0</ele><time>2026-05-03T11:19:14.717Z</time></trkpt><trkpt lat="43.3770471" lon="11.5123452"><ele>393.0</ele><time>2026-05-03T11:19:15.731Z</time></trkpt><trkpt lat="43.3771652" lon="11.5124057"><ele>393.0</ele><time>2026-05-03T11:19:16.717Z</time></trkpt><trkpt lat="43.37728" lon="11.5124564"><ele>393.0</ele><time>2026-05-03T11:19:17.708Z</time></trkpt><trkpt lat="43.3773944" lon="11.512499"><ele>393.5</ele><time>2026-05-03T11:19:18.703Z</time></trkpt><trkpt lat="43.3775101" lon="11.5125386"><ele>394.0</ele><time>2026-05-03T11:19:19.706Z</time></trkpt><trkpt lat="43.3776254" lon="11.5125782"><ele>394.5</ele><time>2026-05-03T11:19:20.722Z</time></trkpt><trkpt lat="43.3777443" lon="11.5126141"><ele>395.0</ele><time>2026-05-03T11:19:21.712Z</time></trkpt><trkpt lat="43.3778644" lon="11.5126552"><ele>395.0</ele><time>2026-05-03T11:19:22.716Z</time></trkpt><trkpt lat="43.3779846" lon="11.5126933"><ele>395.0</ele><time>2026-05-03T11:19:23.709Z</time></trkpt><trkpt lat="43.3781081" lon="11.5127306"><ele>395.0</ele><time>2026-05-03T11:19:24.72Z</time></trkpt><trkpt lat="43.3782278" lon="11.5127717"><ele>395.0</ele><time>2026-05-03T11:19:25.706Z</time></trkpt><trkpt lat="43.3783467" lon="11.5128201"><ele>395.75</ele><time>2026-05-03T11:19:26.72Z</time></trkpt><trkpt lat="43.3784684" lon="11.5128598"><ele>396.5</ele><time>2026-05-03T11:19:27.717Z</time></trkpt><trkpt lat="43.3785904" lon="11.5128884"><ele>397.25</ele><time>2026-05-03T11:19:28.719Z</time></trkpt><trkpt lat="43.3787149" lon="11.5128922"><ele>398.0</ele><time>2026-05-03T11:19:29.712Z</time></trkpt><trkpt lat="43.3788363" lon="11.5128716"><ele>398.0</ele><time>2026-05-03T11:19:30.703Z</time></trkpt><trkpt lat="43.3789533" lon="11.5128152"><ele>398.0</ele><time>2026-05-03T11:19:31.721Z</time></trkpt><trkpt lat="43.3790639" lon="11.5127348"><ele>398.0</ele><time>2026-05-03T11:19:32.698Z</time></trkpt><trkpt lat="43.3791717" lon="11.5126485"><ele>398.0</ele><time>2026-05-03T11:19:33.718Z</time></trkpt><trkpt lat="43.379282" lon="11.5125661"><ele>398.0</ele><time>2026-05-03T11:19:34.706Z</time></trkpt><trkpt lat="43.3793914" lon="11.5124879"><ele>398.0</ele><time>2026-05-03T11:19:35.721Z</time></trkpt><trkpt lat="43.3795026" lon="11.5124076"><ele>398.0</ele><time>2026-05-03T11:19:36.715Z</time></trkpt><trkpt lat="43.3796195" lon="11.5123267"><ele>398.0</ele><time>2026-05-03T11:19:37.714Z</time></trkpt><trkpt lat="43.3797318" lon="11.5122483"><ele>398.75</ele><time>2026-05-03T11:19:38.72Z</time></trkpt><trkpt lat="43.3798431" lon="11.5121725"><ele>399.5</ele><time>2026-05-03T11:19:39.711Z</time></trkpt><trkpt lat="43.3799544" lon="11.5120962"><ele>400.25</ele><time>2026-05-03T11:19:40.706Z</time></trkpt><trkpt lat="43.3800599" lon="11.5120248"><ele>401.0</ele><time>2026-05-03T11:19:41.724Z</time></trkpt><trkpt lat="43.3801655" lon="11.5119589"><ele>401.20000000000005</ele><time>2026-05-03T11:19:42.715Z</time></trkpt><trkpt lat="43.3802707" lon="11.5118957"><ele>401.40000000000003</ele><time>2026-05-03T11:19:43.71Z</time></trkpt><trkpt lat="43.3803728" lon="11.5118401"><ele>401.6</ele><time>2026-05-03T11:19:44.721Z</time></trkpt><trkpt lat="43.3804742" lon="11.5117936"><ele>401.8</ele><time>2026-05-03T11:19:45.711Z</time></trkpt><trkpt lat="43.3805705" lon="11.511758"><ele>402.0</ele><time>2026-05-03T11:19:46.71Z</time></trkpt><trkpt lat="43.3806542" lon="11.5117341"><ele>403.1666666666667</ele><time>2026-05-03T11:19:47.711Z</time></trkpt><trkpt lat="43.3807182" lon="11.5117357"><ele>404.33333333333337</ele><time>2026-05-03T11:19:48.7Z</time></trkpt><trkpt lat="43.3807957" lon="11.5117683"><ele>405.5</ele><time>2026-05-03T11:19:50.704Z</time></trkpt><trkpt lat="43.3807874" lon="11.5118706"><ele>406.6666666666667</ele><time>2026-05-03T11:19:52.697Z</time></trkpt><trkpt lat="43.3807448" lon="11.5120341"><ele>407.83333333333337</ele><time>2026-05-03T11:19:54.716Z</time></trkpt><trkpt lat="43.3807263" lon="11.5121418"><ele>409.0</ele><time>2026-05-03T11:19:55.705Z</time></trkpt><trkpt lat="43.3807085" lon="11.5122661"><ele>409.0</ele><time>2026-05-03T11:19:56.706Z</time></trkpt><trkpt lat="43.3806896" lon="11.5123982"><ele>409.0</ele><time>2026-05-03T11:19:57.715Z</time></trkpt><trkpt lat="43.3806681" lon="11.5125414"><ele>409.0</ele><time>2026-05-03T11:19:58.72Z</time></trkpt><trkpt lat="43.3806443" lon="11.5126921"><ele>409.0</ele><time>2026-05-03T11:19:59.71Z</time></trkpt><trkpt lat="43.38062" lon="11.5128429"><ele>409.0</ele><time>2026-05-03T11:20:00.71Z</time></trkpt><trkpt lat="43.380596" lon="11.5129943"><ele>409.0</ele><time>2026-05-03T11:20:01.718Z</time></trkpt><trkpt lat="43.3805702" lon="11.5131466"><ele>409.0</ele><time>2026-05-03T11:20:02.709Z</time></trkpt><trkpt lat="43.3805473" lon="11.5133003"><ele>409.0</ele><time>2026-05-03T11:20:03.716Z</time></trkpt><trkpt lat="43.3805241" lon="11.5134459"><ele>409.0</ele><time>2026-05-03T11:20:04.717Z</time></trkpt><trkpt lat="43.3805019" lon="11.5135915"><ele>409.0</ele><time>2026-05-03T11:20:05.726Z</time></trkpt><trkpt lat="43.3804787" lon="11.5137393"><ele>408.2</ele><time>2026-05-03T11:20:06.709Z</time></trkpt><trkpt lat="43.380457" lon="11.5138872"><ele>407.4</ele><time>2026-05-03T11:20:07.701Z</time></trkpt><trkpt lat="43.3804369" lon="11.5140352"><ele>406.6</ele><time>2026-05-03T11:20:08.709Z</time></trkpt><trkpt lat="43.3804126" lon="11.5141838"><ele>405.8</ele><time>2026-05-03T11:20:09.72Z</time></trkpt><trkpt lat="43.3803861" lon="11.5143342"><ele>405.0</ele><time>2026-05-03T11:20:10.709Z</time></trkpt><trkpt lat="43.3803596" lon="11.5144832"><ele>405.6</ele><time>2026-05-03T11:20:11.709Z</time></trkpt><trkpt lat="43.3803355" lon="11.5146331"><ele>406.2</ele><time>2026-05-03T11:20:12.718Z</time></trkpt><trkpt lat="43.3803125" lon="11.5147814"><ele>406.79999999999995</ele><time>2026-05-03T11:20:13.706Z</time></trkpt><trkpt lat="43.3802902" lon="11.5149282"><ele>407.4</ele><time>2026-05-03T11:20:14.703Z</time></trkpt><trkpt lat="43.3802657" lon="11.5150717"><ele>408.0</ele><time>2026-05-03T11:20:15.707Z</time></trkpt><trkpt lat="43.3802397" lon="11.5152175"><ele>408.0</ele><time>2026-05-03T11:20:16.703Z</time></trkpt><trkpt lat="43.3802138" lon="11.5153635"><ele>408.0</ele><time>2026-05-03T11:20:17.721Z</time></trkpt><trkpt lat="43.3801869" lon="11.5155074"><ele>408.0</ele><time>2026-05-03T11:20:18.722Z</time></trkpt><trkpt lat="43.3801618" lon="11.5156552"><ele>408.0</ele><time>2026-05-03T11:20:19.719Z</time></trkpt><trkpt lat="43.3801397" lon="11.5158111"><ele>408.0</ele><time>2026-05-03T11:20:20.716Z</time></trkpt><trkpt lat="43.3801149" lon="11.5159694"><ele>409.25</ele><time>2026-05-03T11:20:21.713Z</time></trkpt><trkpt lat="43.3800897" lon="11.5161289"><ele>410.5</ele><time>2026-05-03T11:20:22.726Z</time></trkpt><trkpt lat="43.3800678" lon="11.5162897"><ele>411.75</ele><time>2026-05-03T11:20:23.709Z</time></trkpt><trkpt lat="43.3800458" lon="11.51645"><ele>413.0</ele><time>2026-05-03T11:20:24.704Z</time></trkpt><trkpt lat="43.38002" lon="11.5166062"><ele>413.75</ele><time>2026-05-03T11:20:25.71Z</time></trkpt><trkpt lat="43.3799959" lon="11.5167623"><ele>414.5</ele><time>2026-05-03T11:20:26.697Z</time></trkpt><trkpt lat="43.3799723" lon="11.5169153"><ele>415.25</ele><time>2026-05-03T11:20:27.703Z</time></trkpt><trkpt lat="43.3799499" lon="11.5170676"><ele>416.0</ele><time>2026-05-03T11:20:28.717Z</time></trkpt><trkpt lat="43.3799273" lon="11.517223"><ele>416.5</ele><time>2026-05-03T11:20:29.718Z</time></trkpt><trkpt lat="43.3799057" lon="11.5173797"><ele>417.0</ele><time>2026-05-03T11:20:30.707Z</time></trkpt><trkpt lat="43.37988" lon="11.5175374"><ele>417.5</ele><time>2026-05-03T11:20:31.717Z</time></trkpt><trkpt lat="43.3798533" lon="11.5176967"><ele>418.0</ele><time>2026-05-03T11:20:32.72Z</time></trkpt><trkpt lat="43.379831" lon="11.5178581"><ele>418.5</ele><time>2026-05-03T11:20:33.726Z</time></trkpt><trkpt lat="43.3798075" lon="11.518021"><ele>419.0</ele><time>2026-05-03T11:20:34.707Z</time></trkpt><trkpt lat="43.3797842" lon="11.5181844"><ele>419.5</ele><time>2026-05-03T11:20:35.711Z</time></trkpt><trkpt lat="43.3797598" lon="11.5183482"><ele>420.0</ele><time>2026-05-03T11:20:36.716Z</time></trkpt><trkpt lat="43.3797334" lon="11.5185116"><ele>420.0</ele><time>2026-05-03T11:20:37.722Z</time></trkpt><trkpt lat="43.3797051" lon="11.5186731"><ele>420.0</ele><time>2026-05-03T11:20:38.708Z</time></trkpt><trkpt lat="43.3796772" lon="11.5188325"><ele>420.0</ele><time>2026-05-03T11:20:39.727Z</time></trkpt><trkpt lat="43.3796528" lon="11.5189962"><ele>420.0</ele><time>2026-05-03T11:20:40.74Z</time></trkpt><trkpt lat="43.379629" lon="11.5191643"><ele>421.0</ele><time>2026-05-03T11:20:41.715Z</time></trkpt><trkpt lat="43.3796049" lon="11.5193284"><ele>422.0</ele><time>2026-05-03T11:20:42.688Z</time></trkpt><trkpt lat="43.379575" lon="11.5194924"><ele>423.0</ele><time>2026-05-03T11:20:43.717Z</time></trkpt><trkpt lat="43.3795484" lon="11.5196599"><ele>424.0</ele><time>2026-05-03T11:20:44.714Z</time></trkpt><trkpt lat="43.3795171" lon="11.519831"><ele>425.75</ele><time>2026-05-03T11:20:45.713Z</time></trkpt><trkpt lat="43.3794885" lon="11.5199987"><ele>427.5</ele><time>2026-05-03T11:20:46.706Z</time></trkpt><trkpt lat="43.3794548" lon="11.520165"><ele>429.25</ele><time>2026-05-03T11:20:47.709Z</time></trkpt><trkpt lat="43.3794234" lon="11.5203296"><ele>431.0</ele><time>2026-05-03T11:20:48.705Z</time></trkpt><trkpt lat="43.3794008" lon="11.5204858"><ele>432.25</ele><time>2026-05-03T11:20:49.711Z</time></trkpt><trkpt lat="43.3793785" lon="11.5206393"><ele>433.5</ele><time>2026-05-03T11:20:50.696Z</time></trkpt><trkpt lat="43.3793483" lon="11.5207966"><ele>434.75</ele><time>2026-05-03T11:20:51.718Z</time></trkpt><trkpt lat="43.3793205" lon="11.5209594"><ele>436.0</ele><time>2026-05-03T11:20:52.714Z</time></trkpt><trkpt lat="43.3792925" lon="11.5211148"><ele>437.0</ele><time>2026-05-03T11:20:53.704Z</time></trkpt><trkpt lat="43.3792587" lon="11.521265"><ele>438.0</ele><time>2026-05-03T11:20:54.697Z</time></trkpt><trkpt lat="43.3792346" lon="11.5214121"><ele>439.0</ele><time>2026-05-03T11:20:55.717Z</time></trkpt><trkpt lat="43.3792071" lon="11.5215469"><ele>440.0</ele><time>2026-05-03T11:20:56.711Z</time></trkpt><trkpt lat="43.3791842" lon="11.5216597"><ele>441.0</ele><time>2026-05-03T11:20:57.714Z</time></trkpt><trkpt lat="43.3791884" lon="11.5217893"><ele>441.0</ele><time>2026-05-03T11:20:59.716Z</time></trkpt><trkpt lat="43.3792393" lon="11.5218608"><ele>441.0</ele><time>2026-05-03T11:21:02.696Z</time></trkpt><trkpt lat="43.3792982" lon="11.5219499"><ele>441.0</ele><time>2026-05-03T11:21:05.71Z</time></trkpt><trkpt lat="43.3793501" lon="11.5220192"><ele>441.0</ele><time>2026-05-03T11:26:11.701Z</time></trkpt><trkpt lat="43.3794396" lon="11.5221067"><ele>441.0</ele><time>2026-05-03T11:26:13.71Z</time></trkpt><trkpt lat="43.3795051" lon="11.5221708"><ele>441.0</ele><time>2026-05-03T11:26:14.7Z</time></trkpt><trkpt lat="43.3795778" lon="11.522244"><ele>441.0</ele><time>2026-05-03T11:26:15.721Z</time></trkpt><trkpt lat="43.3796591" lon="11.5223146"><ele>441.0</ele><time>2026-05-03T11:26:16.706Z</time></trkpt><trkpt lat="43.3797495" lon="11.5223623"><ele>441.0</ele><time>2026-05-03T11:26:17.718Z</time></trkpt><trkpt lat="43.3798431" lon="11.5223823"><ele>441.0</ele><time>2026-05-03T11:26:18.711Z</time></trkpt><trkpt lat="43.3799441" lon="11.5223793"><ele>441.0</ele><time>2026-05-03T11:26:19.707Z</time></trkpt><trkpt lat="43.3800431" lon="11.5223702"><ele>441.0</ele><time>2026-05-03T11:26:20.707Z</time></trkpt><trkpt lat="43.3801301" lon="11.5223816"><ele>441.0</ele><time>2026-05-03T11:26:21.712Z</time></trkpt><trkpt lat="43.3802106" lon="11.5224117"><ele>441.0</ele><time>2026-05-03T11:26:22.719Z</time></trkpt><trkpt lat="43.3802813" lon="11.5224653"><ele>441.0</ele><time>2026-05-03T11:26:23.724Z</time></trkpt><trkpt lat="43.3803398" lon="11.5225369"><ele>441.0</ele><time>2026-05-03T11:26:24.72Z</time></trkpt><trkpt lat="43.3804077" lon="11.5226173"><ele>441.0</ele><time>2026-05-03T11:26:25.716Z</time></trkpt><trkpt lat="43.3804854" lon="11.5226881"><ele>441.6</ele><time>2026-05-03T11:26:26.71Z</time></trkpt><trkpt lat="43.3805705" lon="11.5227491"><ele>442.20000000000005</ele><time>2026-05-03T11:26:27.712Z</time></trkpt><trkpt lat="43.3806643" lon="11.5228066"><ele>442.79999999999995</ele><time>2026-05-03T11:26:28.714Z</time></trkpt><trkpt lat="43.3807542" lon="11.5228704"><ele>443.4</ele><time>2026-05-03T11:26:29.721Z</time></trkpt><trkpt lat="43.3808438" lon="11.5229348"><ele>444.0</ele><time>2026-05-03T11:26:30.707Z</time></trkpt><trkpt lat="43.3809363" lon="11.522985"><ele>444.6666666666667</ele><time>2026-05-03T11:26:31.722Z</time></trkpt><trkpt lat="43.3810279" lon="11.5230224"><ele>445.33333333333337</ele><time>2026-05-03T11:26:32.705Z</time></trkpt><trkpt lat="43.3811102" lon="11.5230544"><ele>446.0</ele><time>2026-05-03T11:26:33.7Z</time></trkpt><trkpt lat="43.3811817" lon="11.5230972"><ele>446.6666666666667</ele><time>2026-05-03T11:26:34.71Z</time></trkpt><trkpt lat="43.3812333" lon="11.5231621"><ele>447.33333333333337</ele><time>2026-05-03T11:26:35.706Z</time></trkpt><trkpt lat="43.3812657" lon="11.5232496"><ele>448.0</ele><time>2026-05-03T11:26:36.698Z</time></trkpt><trkpt lat="43.3812805" lon="11.5233551"><ele>448.00000000000006</ele><time>2026-05-03T11:26:37.717Z</time></trkpt><trkpt lat="43.3812731" lon="11.5234559"><ele>448.0</ele><time>2026-05-03T11:26:38.707Z</time></trkpt><trkpt lat="43.3812428" lon="11.5235526"><ele>448.0</ele><time>2026-05-03T11:26:39.71Z</time></trkpt><trkpt lat="43.381198" lon="11.5236579"><ele>448.0</ele><time>2026-05-03T11:26:40.713Z</time></trkpt><trkpt lat="43.3811379" lon="11.523757"><ele>448.00000000000006</ele><time>2026-05-03T11:26:41.706Z</time></trkpt><trkpt lat="43.3810736" lon="11.5238354"><ele>448.0</ele><time>2026-05-03T11:26:42.712Z</time></trkpt><trkpt lat="43.3810025" lon="11.5238983"><ele>447.50000000000006</ele><time>2026-05-03T11:26:43.726Z</time></trkpt><trkpt lat="43.3809265" lon="11.5239588"><ele>447.0</ele><time>2026-05-03T11:26:44.711Z</time></trkpt><trkpt lat="43.3808419" lon="11.5240088"><ele>446.5</ele><time>2026-05-03T11:26:45.717Z</time></trkpt><trkpt lat="43.3807551" lon="11.5240388"><ele>446.0</ele><time>2026-05-03T11:26:46.715Z</time></trkpt><trkpt lat="43.3806692" lon="11.5240495"><ele>445.50000000000006</ele><time>2026-05-03T11:26:47.711Z</time></trkpt><trkpt lat="43.3805905" lon="11.524058"><ele>445.0</ele><time>2026-05-03T11:26:48.713Z</time></trkpt><trkpt lat="43.3805184" lon="11.5240719"><ele>444.1666666666667</ele><time>2026-05-03T11:26:49.716Z</time></trkpt><trkpt lat="43.3804541" lon="11.5240968"><ele>443.33333333333337</ele><time>2026-05-03T11:26:50.718Z</time></trkpt><trkpt lat="43.3803586" lon="11.5241944"><ele>442.5</ele><time>2026-05-03T11:26:52.711Z</time></trkpt><trkpt lat="43.3803242" lon="11.5242672"><ele>441.66666666666663</ele><time>2026-05-03T11:26:53.708Z</time></trkpt><trkpt lat="43.3802872" lon="11.5243593"><ele>440.8333333333333</ele><time>2026-05-03T11:26:54.703Z</time></trkpt><trkpt lat="43.3802403" lon="11.5244626"><ele>440.0</ele><time>2026-05-03T11:26:55.711Z</time></trkpt><trkpt lat="43.3801904" lon="11.5245679"><ele>439.8</ele><time>2026-05-03T11:26:56.711Z</time></trkpt><trkpt lat="43.3801377" lon="11.5246858"><ele>439.6</ele><time>2026-05-03T11:26:57.719Z</time></trkpt><trkpt lat="43.3800869" lon="11.5248113"><ele>439.4</ele><time>2026-05-03T11:26:58.703Z</time></trkpt><trkpt lat="43.3800276" lon="11.5249369"><ele>439.2</ele><time>2026-05-03T11:26:59.71Z</time></trkpt><trkpt lat="43.379964" lon="11.5250579"><ele>439.0</ele><time>2026-05-03T11:27:00.698Z</time></trkpt><trkpt lat="43.3799043" lon="11.5251798"><ele>439.00000000000006</ele><time>2026-05-03T11:27:01.712Z</time></trkpt><trkpt lat="43.379848" lon="11.5253003"><ele>439.0</ele><time>2026-05-03T11:27:02.704Z</time></trkpt><trkpt lat="43.3797942" lon="11.5254081"><ele>439.0</ele><time>2026-05-03T11:27:03.71Z</time></trkpt><trkpt lat="43.3797499" lon="11.5255059"><ele>439.0</ele><time>2026-05-03T11:27:04.712Z</time></trkpt><trkpt lat="43.3797098" lon="11.5255974"><ele>439.00000000000006</ele><time>2026-05-03T11:27:05.719Z</time></trkpt><trkpt lat="43.3796685" lon="11.5256852"><ele>439.0</ele><time>2026-05-03T11:27:06.707Z</time></trkpt><trkpt lat="43.3796246" lon="11.5257788"><ele>437.4</ele><time>2026-05-03T11:27:07.734Z</time></trkpt><trkpt lat="43.3795788" lon="11.525874"><ele>435.79999999999995</ele><time>2026-05-03T11:27:08.706Z</time></trkpt><trkpt lat="43.3795306" lon="11.525953"><ele>434.20000000000005</ele><time>2026-05-03T11:27:09.705Z</time></trkpt><trkpt lat="43.3794915" lon="11.5260311"><ele>432.6</ele><time>2026-05-03T11:27:10.709Z</time></trkpt><trkpt lat="43.3794505" lon="11.5261882"><ele>431.0</ele><time>2026-05-03T11:27:12.701Z</time></trkpt><trkpt lat="43.3794856" lon="11.5263395"><ele>430.8571428571429</ele><time>2026-05-03T11:27:14.709Z</time></trkpt><trkpt lat="43.3795208" lon="11.5264133"><ele>430.71428571428567</ele><time>2026-05-03T11:27:15.715Z</time></trkpt><trkpt lat="43.3795671" lon="11.5264781"><ele>430.57142857142856</ele><time>2026-05-03T11:27:16.708Z</time></trkpt><trkpt lat="43.3796193" lon="11.5265482"><ele>430.42857142857144</ele><time>2026-05-03T11:27:17.721Z</time></trkpt><trkpt lat="43.3796689" lon="11.5266079"><ele>430.28571428571433</ele><time>2026-05-03T11:27:18.709Z</time></trkpt><trkpt lat="43.3797327" lon="11.5266889"><ele>430.1428571428571</ele><time>2026-05-03T11:27:20.712Z</time></trkpt><trkpt lat="43.3797316" lon="11.526785"><ele>430.0</ele><time>2026-05-03T11:27:22.712Z</time></trkpt><trkpt lat="43.3796622" lon="11.5268981"><ele>429.83333333333337</ele><time>2026-05-03T11:27:24.701Z</time></trkpt><trkpt lat="43.3796225" lon="11.5269668"><ele>429.6666666666667</ele><time>2026-05-03T11:27:25.71Z</time></trkpt><trkpt lat="43.3795797" lon="11.5270343"><ele>429.5</ele><time>2026-05-03T11:27:26.711Z</time></trkpt><trkpt lat="43.379535" lon="11.527112"><ele>429.33333333333337</ele><time>2026-05-03T11:27:27.716Z</time></trkpt><trkpt lat="43.3794901" lon="11.5271884"><ele>429.1666666666667</ele><time>2026-05-03T11:27:28.71Z</time></trkpt><trkpt lat="43.3794419" lon="11.5272445"><ele>429.0</ele><time>2026-05-03T11:27:29.715Z</time></trkpt><trkpt lat="43.3793276" lon="11.5272705"><ele>427.8333333333333</ele><time>2026-05-03T11:27:31.713Z</time></trkpt><trkpt lat="43.3792658" lon="11.5272473"><ele>426.66666666666663</ele><time>2026-05-03T11:27:32.704Z</time></trkpt><trkpt lat="43.3792045" lon="11.5272158"><ele>425.5</ele><time>2026-05-03T11:27:33.703Z</time></trkpt><trkpt lat="43.3791452" lon="11.5271663"><ele>424.3333333333333</ele><time>2026-05-03T11:27:34.705Z</time></trkpt><trkpt lat="43.3790793" lon="11.5271408"><ele>423.16666666666663</ele><time>2026-05-03T11:27:35.709Z</time></trkpt><trkpt lat="43.3789733" lon="11.5271237"><ele>422.0</ele><time>2026-05-03T11:27:37.717Z</time></trkpt><trkpt lat="43.3788757" lon="11.5272045"><ele>421.0</ele><time>2026-05-03T11:27:39.719Z</time></trkpt><trkpt lat="43.378818" lon="11.5273552"><ele>420.0</ele><time>2026-05-03T11:27:41.708Z</time></trkpt><trkpt lat="43.3787964" lon="11.5275202"><ele>419.0</ele><time>2026-05-03T11:27:43.711Z</time></trkpt><trkpt lat="43.3787458" lon="11.5276791"><ele>418.0</ele><time>2026-05-03T11:27:45.71Z</time></trkpt><trkpt lat="43.3787054" lon="11.5277607"><ele>417.0</ele><time>2026-05-03T11:27:46.716Z</time></trkpt><trkpt lat="43.3786625" lon="11.5278516"><ele>416.40000000000003</ele><time>2026-05-03T11:27:47.71Z</time></trkpt><trkpt lat="43.3786124" lon="11.5279603"><ele>415.8</ele><time>2026-05-03T11:27:48.714Z</time></trkpt><trkpt lat="43.3785598" lon="11.528082"><ele>415.2</ele><time>2026-05-03T11:27:49.71Z</time></trkpt><trkpt lat="43.3785039" lon="11.5282116"><ele>414.6</ele><time>2026-05-03T11:27:50.712Z</time></trkpt><trkpt lat="43.3784459" lon="11.5283462"><ele>414.0</ele><time>2026-05-03T11:27:51.703Z</time></trkpt><trkpt lat="43.3783865" lon="11.5284738"><ele>414.0</ele><time>2026-05-03T11:27:52.703Z</time></trkpt><trkpt lat="43.3783288" lon="11.5286045"><ele>414.0</ele><time>2026-05-03T11:27:53.704Z</time></trkpt><trkpt lat="43.3782749" lon="11.5287316"><ele>414.0</ele><time>2026-05-03T11:27:54.706Z</time></trkpt><trkpt lat="43.3782217" lon="11.5288444"><ele>414.0</ele><time>2026-05-03T11:27:55.716Z</time></trkpt><trkpt lat="43.3781687" lon="11.5289483"><ele>414.0</ele><time>2026-05-03T11:27:56.694Z</time></trkpt><trkpt lat="43.3781138" lon="11.5290403"><ele>414.2</ele><time>2026-05-03T11:27:57.71Z</time></trkpt><trkpt lat="43.378052" lon="11.5291064"><ele>414.4</ele><time>2026-05-03T11:27:58.708Z</time></trkpt><trkpt lat="43.3779324" lon="11.5291282"><ele>414.6</ele><time>2026-05-03T11:28:00.703Z</time></trkpt><trkpt lat="43.3778469" lon="11.5291347"><ele>414.8</ele><time>2026-05-03T11:28:02.69Z</time></trkpt><trkpt lat="43.3778405" lon="11.5292385"><ele>415.0</ele><time>2026-05-03T11:28:04.7Z</time></trkpt><trkpt lat="43.3778028" lon="11.5293903"><ele>415.00000000000006</ele><time>2026-05-03T11:28:06.7Z</time></trkpt><trkpt lat="43.3777567" lon="11.5294853"><ele>415.0</ele><time>2026-05-03T11:28:08.709Z</time></trkpt><trkpt lat="43.3776985" lon="11.5295683"><ele>415.0</ele><time>2026-05-03T11:28:10.693Z</time></trkpt><trkpt lat="43.3776485" lon="11.5296243"><ele>415.0</ele><time>2026-05-03T11:28:11.707Z</time></trkpt><trkpt lat="43.3775943" lon="11.5296894"><ele>415.00000000000006</ele><time>2026-05-03T11:28:12.708Z</time></trkpt><trkpt lat="43.3775372" lon="11.5297619"><ele>415.0</ele><time>2026-05-03T11:28:13.704Z</time></trkpt><trkpt lat="43.3774819" lon="11.5298423"><ele>415.50000000000006</ele><time>2026-05-03T11:28:14.701Z</time></trkpt><trkpt lat="43.3774332" lon="11.5299195"><ele>416.0</ele><time>2026-05-03T11:28:15.714Z</time></trkpt><trkpt lat="43.3773978" lon="11.5299987"><ele>416.5</ele><time>2026-05-03T11:28:16.701Z</time></trkpt><trkpt lat="43.3773695" lon="11.530078"><ele>417.0</ele><time>2026-05-03T11:28:17.702Z</time></trkpt><trkpt lat="43.3773354" lon="11.5302159"><ele>417.50000000000006</ele><time>2026-05-03T11:28:19.702Z</time></trkpt><trkpt lat="43.3772701" lon="11.5303411"><ele>418.0</ele><time>2026-05-03T11:28:21.703Z</time></trkpt><trkpt lat="43.3771755" lon="11.5304312"><ele>416.83333333333337</ele><time>2026-05-03T11:28:23.708Z</time></trkpt><trkpt lat="43.3770802" lon="11.5305521"><ele>415.6666666666667</ele><time>2026-05-03T11:28:25.709Z</time></trkpt><trkpt lat="43.3770258" lon="11.5306201"><ele>414.5</ele><time>2026-05-03T11:28:26.695Z</time></trkpt><trkpt lat="43.3769758" lon="11.53069"><ele>413.33333333333337</ele><time>2026-05-03T11:28:27.709Z</time></trkpt><trkpt lat="43.3769231" lon="11.5307743"><ele>412.1666666666667</ele><time>2026-05-03T11:28:28.717Z</time></trkpt><trkpt lat="43.3768751" lon="11.5308648"><ele>411.0</ele><time>2026-05-03T11:28:29.708Z</time></trkpt><trkpt lat="43.3768227" lon="11.5309416"><ele>411.0</ele><time>2026-05-03T11:28:30.709Z</time></trkpt><trkpt lat="43.3767696" lon="11.5309973"><ele>411.0</ele><time>2026-05-03T11:28:31.702Z</time></trkpt><trkpt lat="43.3767194" lon="11.5310541"><ele>411.0</ele><time>2026-05-03T11:28:32.703Z</time></trkpt><trkpt lat="43.3766735" lon="11.5311186"><ele>411.0</ele><time>2026-05-03T11:28:33.706Z</time></trkpt><trkpt lat="43.376615" lon="11.5311958"><ele>411.0</ele><time>2026-05-03T11:28:34.698Z</time></trkpt><trkpt lat="43.3765535" lon="11.5312749"><ele>411.0</ele><time>2026-05-03T11:28:35.699Z</time></trkpt><trkpt lat="43.3764949" lon="11.5313693"><ele>410.20000000000005</ele><time>2026-05-03T11:28:36.702Z</time></trkpt><trkpt lat="43.3764439" lon="11.5314849"><ele>409.40000000000003</ele><time>2026-05-03T11:28:37.698Z</time></trkpt><trkpt lat="43.3763959" lon="11.5315962"><ele>408.6</ele><time>2026-05-03T11:28:38.705Z</time></trkpt><trkpt lat="43.3763688" lon="11.5316981"><ele>407.8</ele><time>2026-05-03T11:28:39.716Z</time></trkpt><trkpt lat="43.3763525" lon="11.5317931"><ele>407.0</ele><time>2026-05-03T11:28:40.697Z</time></trkpt><trkpt lat="43.3763165" lon="11.5319531"><ele>406.40000000000003</ele><time>2026-05-03T11:28:42.707Z</time></trkpt><trkpt lat="43.3762593" lon="11.5320368"><ele>405.8</ele><time>2026-05-03T11:28:44.705Z</time></trkpt><trkpt lat="43.3761808" lon="11.5321349"><ele>405.2</ele><time>2026-05-03T11:28:46.702Z</time></trkpt><trkpt lat="43.3761123" lon="11.5321948"><ele>404.6</ele><time>2026-05-03T11:28:47.707Z</time></trkpt><trkpt lat="43.3760338" lon="11.5322479"><ele>404.0</ele><time>2026-05-03T11:28:48.711Z</time></trkpt><trkpt lat="43.3759476" lon="11.5323112"><ele>404.0</ele><time>2026-05-03T11:28:49.717Z</time></trkpt><trkpt lat="43.3758714" lon="11.5323697"><ele>404.0</ele><time>2026-05-03T11:28:50.709Z</time></trkpt><trkpt lat="43.3758064" lon="11.5324093"><ele>404.0</ele><time>2026-05-03T11:28:51.704Z</time></trkpt><trkpt lat="43.3756958" lon="11.5324628"><ele>404.0</ele><time>2026-05-03T11:28:53.707Z</time></trkpt><trkpt lat="43.3755999" lon="11.5325334"><ele>404.0</ele><time>2026-05-03T11:28:55.707Z</time></trkpt><trkpt lat="43.3755152" lon="11.532589"><ele>403.6</ele><time>2026-05-03T11:28:57.717Z</time></trkpt><trkpt lat="43.3754424" lon="11.5325989"><ele>403.2</ele><time>2026-05-03T11:28:59.713Z</time></trkpt><trkpt lat="43.3753428" lon="11.5325856"><ele>402.8</ele><time>2026-05-03T11:29:01.716Z</time></trkpt><trkpt lat="43.3752776" lon="11.5325428"><ele>402.40000000000003</ele><time>2026-05-03T11:29:03.717Z</time></trkpt><trkpt lat="43.3751942" lon="11.5325361"><ele>402.0</ele><time>2026-05-03T11:29:05.714Z</time></trkpt><trkpt lat="43.3750733" lon="11.5325843"><ele>402.0</ele><time>2026-05-03T11:29:07.709Z</time></trkpt><trkpt lat="43.3750108" lon="11.5326065"><ele>402.0</ele><time>2026-05-03T11:29:08.708Z</time></trkpt><trkpt lat="43.3749009" lon="11.5326276"><ele>402.0</ele><time>2026-05-03T11:29:10.714Z</time></trkpt><trkpt lat="43.3747714" lon="11.5326733"><ele>402.0</ele><time>2026-05-03T11:29:12.726Z</time></trkpt><trkpt lat="43.374707" lon="11.5327113"><ele>402.0</ele><time>2026-05-03T11:29:13.699Z</time></trkpt><trkpt lat="43.374649" lon="11.5327602"><ele>402.0</ele><time>2026-05-03T11:29:14.715Z</time></trkpt><trkpt lat="43.3745934" lon="11.5328114"><ele>400.8333333333333</ele><time>2026-05-03T11:29:15.715Z</time></trkpt><trkpt lat="43.3745424" lon="11.5328749"><ele>399.66666666666663</ele><time>2026-05-03T11:29:16.716Z</time></trkpt><trkpt lat="43.3744831" lon="11.5329436"><ele>398.5</ele><time>2026-05-03T11:29:17.73Z</time></trkpt><trkpt lat="43.3744187" lon="11.5330228"><ele>397.3333333333333</ele><time>2026-05-03T11:29:18.705Z</time></trkpt><trkpt lat="43.3743608" lon="11.5331048"><ele>396.16666666666663</ele><time>2026-05-03T11:29:19.709Z</time></trkpt><trkpt lat="43.3743142" lon="11.5331792"><ele>395.0</ele><time>2026-05-03T11:29:20.703Z</time></trkpt><trkpt lat="43.3742553" lon="11.533246"><ele>394.99999999999994</ele><time>2026-05-03T11:29:21.711Z</time></trkpt><trkpt lat="43.3741888" lon="11.5332965"><ele>395.0</ele><time>2026-05-03T11:29:22.712Z</time></trkpt><trkpt lat="43.3741131" lon="11.5333441"><ele>395.0</ele><time>2026-05-03T11:29:23.707Z</time></trkpt><trkpt lat="43.3740395" lon="11.533387"><ele>395.0</ele><time>2026-05-03T11:29:24.698Z</time></trkpt><trkpt lat="43.373967" lon="11.5334249"><ele>394.99999999999994</ele><time>2026-05-03T11:29:25.711Z</time></trkpt><trkpt lat="43.3738982" lon="11.5334612"><ele>395.0</ele><time>2026-05-03T11:29:26.687Z</time></trkpt><trkpt lat="43.3738315" lon="11.5335117"><ele>393.1428571428571</ele><time>2026-05-03T11:29:27.71Z</time></trkpt><trkpt lat="43.3737721" lon="11.5335615"><ele>391.28571428571433</ele><time>2026-05-03T11:29:28.71Z</time></trkpt><trkpt lat="43.3737115" lon="11.5336041"><ele>389.42857142857144</ele><time>2026-05-03T11:29:29.709Z</time></trkpt><trkpt lat="43.3736567" lon="11.5336554"><ele>387.57142857142856</ele><time>2026-05-03T11:29:30.71Z</time></trkpt><trkpt lat="43.3736043" lon="11.5337076"><ele>385.71428571428567</ele><time>2026-05-03T11:29:31.706Z</time></trkpt><trkpt lat="43.3735458" lon="11.5337604"><ele>383.8571428571429</ele><time>2026-05-03T11:29:32.702Z</time></trkpt><trkpt lat="43.3734757" lon="11.5338016"><ele>382.0</ele><time>2026-05-03T11:29:33.712Z</time></trkpt><trkpt lat="43.3734142" lon="11.5338377"><ele>381.66666666666663</ele><time>2026-05-03T11:29:34.704Z</time></trkpt><trkpt lat="43.3733382" lon="11.5339157"><ele>381.3333333333333</ele><time>2026-05-03T11:29:36.7Z</time></trkpt><trkpt lat="43.3732629" lon="11.5339525"><ele>381.0</ele><time>2026-05-03T11:29:38.706Z</time></trkpt><trkpt lat="43.3731575" lon="11.533987"><ele>380.6666666666667</ele><time>2026-05-03T11:29:40.709Z</time></trkpt><trkpt lat="43.3730867" lon="11.534049"><ele>380.33333333333337</ele><time>2026-05-03T11:29:42.696Z</time></trkpt><trkpt lat="43.3730622" lon="11.5341348"><ele>380.0</ele><time>2026-05-03T11:29:44.692Z</time></trkpt><trkpt lat="43.3730602" lon="11.5342463"><ele>380.0</ele><time>2026-05-03T11:29:47.712Z</time></trkpt><trkpt lat="43.3730928" lon="11.5343232"><ele>380.0</ele><time>2026-05-03T11:29:49.703Z</time></trkpt><trkpt lat="43.3731486" lon="11.5344085"><ele>380.0</ele><time>2026-05-03T11:29:51.71Z</time></trkpt><trkpt lat="43.3732281" lon="11.5345323"><ele>380.0</ele><time>2026-05-03T11:29:53.7Z</time></trkpt><trkpt lat="43.373274" lon="11.5346138"><ele>380.0</ele><time>2026-05-03T11:29:54.706Z</time></trkpt><trkpt lat="43.3733248" lon="11.5347025"><ele>380.0</ele><time>2026-05-03T11:29:55.714Z</time></trkpt><trkpt lat="43.3733786" lon="11.5347853"><ele>378.5</ele><time>2026-05-03T11:29:56.711Z</time></trkpt><trkpt lat="43.3734316" lon="11.5348713"><ele>377.0</ele><time>2026-05-03T11:29:57.704Z</time></trkpt><trkpt lat="43.3734875" lon="11.5349506"><ele>375.5</ele><time>2026-05-03T11:29:58.708Z</time></trkpt><trkpt lat="43.3735411" lon="11.5350348"><ele>374.0</ele><time>2026-05-03T11:29:59.703Z</time></trkpt><trkpt lat="43.3735935" lon="11.5351285"><ele>372.5</ele><time>2026-05-03T11:30:00.707Z</time></trkpt><trkpt lat="43.3736501" lon="11.5352217"><ele>371.0</ele><time>2026-05-03T11:30:01.713Z</time></trkpt><trkpt lat="43.3737055" lon="11.5353109"><ele>369.5</ele><time>2026-05-03T11:30:02.71Z</time></trkpt><trkpt lat="43.3737579" lon="11.53539"><ele>368.0</ele><time>2026-05-03T11:30:03.716Z</time></trkpt><trkpt lat="43.3738053" lon="11.5354659"><ele>366.5</ele><time>2026-05-03T11:30:04.714Z</time></trkpt><trkpt lat="43.3738509" lon="11.5355563"><ele>365.0</ele><time>2026-05-03T11:30:05.714Z</time></trkpt><trkpt lat="43.3738842" lon="11.5356365"><ele>363.5</ele><time>2026-05-03T11:30:06.714Z</time></trkpt><trkpt lat="43.3739337" lon="11.535762"><ele>362.0</ele><time>2026-05-03T11:30:08.711Z</time></trkpt><trkpt lat="43.3739856" lon="11.5358299"><ele>362.0</ele><time>2026-05-03T11:30:10.707Z</time></trkpt><trkpt lat="43.3740635" lon="11.5358962"><ele>362.0</ele><time>2026-05-03T11:30:13.71Z</time></trkpt><trkpt lat="43.3741251" lon="11.5359539"><ele>362.0</ele><time>2026-05-03T11:30:15.702Z</time></trkpt><trkpt lat="43.374188" lon="11.5360505"><ele>362.0</ele><time>2026-05-03T11:30:17.698Z</time></trkpt><trkpt lat="43.3742702" lon="11.5361379"><ele>362.0</ele><time>2026-05-03T11:30:19.708Z</time></trkpt><trkpt lat="43.3743267" lon="11.5361878"><ele>362.0</ele><time>2026-05-03T11:30:20.71Z</time></trkpt><trkpt lat="43.3743862" lon="11.5362498"><ele>359.85714285714283</ele><time>2026-05-03T11:30:21.691Z</time></trkpt><trkpt lat="43.3744423" lon="11.5363199"><ele>357.71428571428567</ele><time>2026-05-03T11:30:22.71Z</time></trkpt><trkpt lat="43.3744881" lon="11.5363861"><ele>355.57142857142856</ele><time>2026-05-03T11:30:23.707Z</time></trkpt><trkpt lat="43.3745291" lon="11.536456"><ele>353.42857142857144</ele><time>2026-05-03T11:30:24.709Z</time></trkpt><trkpt lat="43.3745763" lon="11.5365332"><ele>351.2857142857143</ele><time>2026-05-03T11:30:25.703Z</time></trkpt><trkpt lat="43.3746197" lon="11.5366088"><ele>349.14285714285717</ele><time>2026-05-03T11:30:26.691Z</time></trkpt><trkpt lat="43.3746717" lon="11.5366768"><ele>347.0</ele><time>2026-05-03T11:30:27.726Z</time></trkpt><trkpt lat="43.3747249" lon="11.5367332"><ele>347.0</ele><time>2026-05-03T11:30:28.716Z</time></trkpt><trkpt lat="43.3747796" lon="11.5367769"><ele>347.0</ele><time>2026-05-03T11:30:29.706Z</time></trkpt><trkpt lat="43.374835" lon="11.5368216"><ele>347.0</ele><time>2026-05-03T11:30:30.7Z</time></trkpt><trkpt lat="43.3749366" lon="11.536912"><ele>347.0</ele><time>2026-05-03T11:30:32.711Z</time></trkpt><trkpt lat="43.3749936" lon="11.5369545"><ele>347.0</ele><time>2026-05-03T11:30:33.714Z</time></trkpt><trkpt lat="43.3750881" lon="11.5370374"><ele>347.0</ele><time>2026-05-03T11:30:35.714Z</time></trkpt><trkpt lat="43.3751606" lon="11.5371422"><ele>344.6</ele><time>2026-05-03T11:30:37.704Z</time></trkpt><trkpt lat="43.3752113" lon="11.5372123"><ele>342.20000000000005</ele><time>2026-05-03T11:30:39.702Z</time></trkpt><trkpt lat="43.3752908" lon="11.537277"><ele>339.8</ele><time>2026-05-03T11:30:42.71Z</time></trkpt><trkpt lat="43.3753681" lon="11.5373459"><ele>337.4</ele><time>2026-05-03T11:30:45.702Z</time></trkpt><trkpt lat="43.3754233" lon="11.5374803"><ele>335.0</ele><time>2026-05-03T11:30:47.692Z</time></trkpt><trkpt lat="43.3754935" lon="11.5376257"><ele>335.83333333333337</ele><time>2026-05-03T11:30:49.692Z</time></trkpt><trkpt lat="43.3755342" lon="11.537709"><ele>336.6666666666667</ele><time>2026-05-03T11:30:50.713Z</time></trkpt><trkpt lat="43.3755815" lon="11.5377927"><ele>337.5</ele><time>2026-05-03T11:30:51.695Z</time></trkpt><trkpt lat="43.3756435" lon="11.5378656"><ele>338.3333333333333</ele><time>2026-05-03T11:30:52.71Z</time></trkpt><trkpt lat="43.3757134" lon="11.5379373"><ele>339.16666666666663</ele><time>2026-05-03T11:30:53.702Z</time></trkpt><trkpt lat="43.3757866" lon="11.5380138"><ele>340.0</ele><time>2026-05-03T11:30:54.701Z</time></trkpt><trkpt lat="43.3758631" lon="11.538097"><ele>337.8333333333333</ele><time>2026-05-03T11:30:55.704Z</time></trkpt><trkpt lat="43.3759307" lon="11.5381758"><ele>335.66666666666663</ele><time>2026-05-03T11:30:56.695Z</time></trkpt><trkpt lat="43.3760076" lon="11.5382463"><ele>333.5</ele><time>2026-05-03T11:30:57.718Z</time></trkpt><trkpt lat="43.3760772" lon="11.5383116"><ele>331.3333333333333</ele><time>2026-05-03T11:30:58.706Z</time></trkpt><trkpt lat="43.3761344" lon="11.5383576"><ele>329.1666666666667</ele><time>2026-05-03T11:30:59.707Z</time></trkpt><trkpt lat="43.3762213" lon="11.5384365"><ele>327.0</ele><time>2026-05-03T11:31:01.699Z</time></trkpt><trkpt lat="43.3763052" lon="11.538476"><ele>326.5</ele><time>2026-05-03T11:31:03.701Z</time></trkpt><trkpt lat="43.3764353" lon="11.5384955"><ele>326.0</ele><time>2026-05-03T11:31:05.711Z</time></trkpt><trkpt lat="43.3765082" lon="11.5385175"><ele>325.5</ele><time>2026-05-03T11:31:06.71Z</time></trkpt><trkpt lat="43.3765785" lon="11.5385247"><ele>325.0</ele><time>2026-05-03T11:31:07.708Z</time></trkpt><trkpt lat="43.3766635" lon="11.5385258"><ele>324.5</ele><time>2026-05-03T11:31:08.711Z</time></trkpt><trkpt lat="43.3767445" lon="11.538505"><ele>324.0</ele><time>2026-05-03T11:31:09.698Z</time></trkpt><trkpt lat="43.3768253" lon="11.5384992"><ele>324.0</ele><time>2026-05-03T11:31:10.701Z</time></trkpt><trkpt lat="43.3769001" lon="11.5384907"><ele>324.0</ele><time>2026-05-03T11:31:11.702Z</time></trkpt><trkpt lat="43.3769662" lon="11.5384845"><ele>324.0</ele><time>2026-05-03T11:31:12.704Z</time></trkpt><trkpt lat="43.3770722" lon="11.53846"><ele>324.0</ele><time>2026-05-03T11:31:14.698Z</time></trkpt><trkpt lat="43.3771501" lon="11.5384903"><ele>324.0</ele><time>2026-05-03T11:31:16.705Z</time></trkpt><trkpt lat="43.3771922" lon="11.5385738"><ele>324.0</ele><time>2026-05-03T11:31:18.702Z</time></trkpt><trkpt lat="43.3772396" lon="11.5386792"><ele>319.2</ele><time>2026-05-03T11:31:20.706Z</time></trkpt><trkpt lat="43.3773505" lon="11.5387713"><ele>314.4</ele><time>2026-05-03T11:31:22.703Z</time></trkpt><trkpt lat="43.3774151" lon="11.538806"><ele>309.6</ele><time>2026-05-03T11:31:23.708Z</time></trkpt><trkpt lat="43.3774751" lon="11.5388381"><ele>304.8</ele><time>2026-05-03T11:31:24.71Z</time></trkpt><trkpt lat="43.3775455" lon="11.5389263"><ele>300.0</ele><time>2026-05-03T11:31:26.703Z</time></trkpt><trkpt lat="43.3775418" lon="11.5390538"><ele>300.0</ele><time>2026-05-03T11:31:28.706Z</time></trkpt><trkpt lat="43.3775019" lon="11.5392035"><ele>300.0</ele><time>2026-05-03T11:31:30.702Z</time></trkpt><trkpt lat="43.3774768" lon="11.539284"><ele>300.0</ele><time>2026-05-03T11:31:31.718Z</time></trkpt><trkpt lat="43.3774495" lon="11.5393663"><ele>300.0</ele><time>2026-05-03T11:31:32.707Z</time></trkpt><trkpt lat="43.377385" lon="11.5394813"><ele>300.0</ele><time>2026-05-03T11:31:34.715Z</time></trkpt><trkpt lat="43.3773197" lon="11.5395647"><ele>300.0</ele><time>2026-05-03T11:31:36.714Z</time></trkpt><trkpt lat="43.3773128" lon="11.5396526"><ele>298.0</ele><time>2026-05-03T11:31:38.705Z</time></trkpt><trkpt lat="43.3773826" lon="11.5397212"><ele>296.0</ele><time>2026-05-03T11:31:41.7Z</time></trkpt><trkpt lat="43.3774567" lon="11.5397666"><ele>294.0</ele><time>2026-05-03T11:31:44.719Z</time></trkpt><trkpt lat="43.3774134" lon="11.539859"><ele>292.0</ele><time>2026-05-03T11:31:48.72Z</time></trkpt><trkpt lat="43.3773503" lon="11.5398805"><ele>290.0</ele><time>2026-05-03T11:31:52.712Z</time></trkpt><trkpt lat="43.3772699" lon="11.5399511"><ele>288.0</ele><time>2026-05-03T11:33:09.713Z</time></trkpt><trkpt lat="43.3772137" lon="11.5400019"><ele>288.0</ele><time>2026-05-03T11:33:10.715Z</time></trkpt><trkpt lat="43.3771517" lon="11.5400535"><ele>288.0</ele><time>2026-05-03T11:33:11.716Z</time></trkpt><trkpt lat="43.3770781" lon="11.5401168"><ele>288.0</ele><time>2026-05-03T11:33:12.71Z</time></trkpt><trkpt lat="43.3770001" lon="11.5401742"><ele>288.0</ele><time>2026-05-03T11:33:13.716Z</time></trkpt><trkpt lat="43.3769291" lon="11.5402305"><ele>288.0</ele><time>2026-05-03T11:33:14.711Z</time></trkpt><trkpt lat="43.3768653" lon="11.5402952"><ele>288.0</ele><time>2026-05-03T11:33:15.715Z</time></trkpt><trkpt lat="43.3767977" lon="11.5403614"><ele>287.4</ele><time>2026-05-03T11:33:16.698Z</time></trkpt><trkpt lat="43.3767196" lon="11.5404265"><ele>286.8</ele><time>2026-05-03T11:33:17.711Z</time></trkpt><trkpt lat="43.3766351" lon="11.5404966"><ele>286.2</ele><time>2026-05-03T11:33:18.71Z</time></trkpt><trkpt lat="43.3765507" lon="11.5405676"><ele>285.6</ele><time>2026-05-03T11:33:19.697Z</time></trkpt><trkpt lat="43.3764664" lon="11.5406319"><ele>285.0</ele><time>2026-05-03T11:33:20.713Z</time></trkpt><trkpt lat="43.3763876" lon="11.5406978"><ele>284.6</ele><time>2026-05-03T11:33:21.708Z</time></trkpt><trkpt lat="43.3763059" lon="11.5407628"><ele>284.2</ele><time>2026-05-03T11:33:22.714Z</time></trkpt><trkpt lat="43.376224" lon="11.5408278"><ele>283.8</ele><time>2026-05-03T11:33:23.701Z</time></trkpt><trkpt lat="43.376144" lon="11.5408951"><ele>283.4</ele><time>2026-05-03T11:33:24.702Z</time></trkpt><trkpt lat="43.3760674" lon="11.5409601"><ele>283.0</ele><time>2026-05-03T11:33:25.707Z</time></trkpt><trkpt lat="43.3760013" lon="11.5410152"><ele>283.0</ele><time>2026-05-03T11:33:26.703Z</time></trkpt><trkpt lat="43.3759441" lon="11.5410694"><ele>283.0</ele><time>2026-05-03T11:33:27.729Z</time></trkpt><trkpt lat="43.3758346" lon="11.5411588"><ele>283.0</ele><time>2026-05-03T11:33:29.708Z</time></trkpt><trkpt lat="43.3757674" lon="11.5412"><ele>283.0</ele><time>2026-05-03T11:33:30.719Z</time></trkpt><trkpt lat="43.3756942" lon="11.5412513"><ele>283.0</ele><time>2026-05-03T11:33:31.709Z</time></trkpt><trkpt lat="43.37562" lon="11.5412944"><ele>283.0</ele><time>2026-05-03T11:33:32.712Z</time></trkpt><trkpt lat="43.3755551" lon="11.5413382"><ele>283.3333333333333</ele><time>2026-05-03T11:33:33.701Z</time></trkpt><trkpt lat="43.3754903" lon="11.541385"><ele>283.66666666666663</ele><time>2026-05-03T11:33:34.698Z</time></trkpt><trkpt lat="43.3754227" lon="11.5414247"><ele>284.0</ele><time>2026-05-03T11:33:35.711Z</time></trkpt><trkpt lat="43.3753505" lon="11.5414576"><ele>284.3333333333333</ele><time>2026-05-03T11:33:36.699Z</time></trkpt><trkpt lat="43.3752723" lon="11.5414782"><ele>284.6666666666667</ele><time>2026-05-03T11:33:37.723Z</time></trkpt><trkpt lat="43.3751943" lon="11.541484"><ele>285.0</ele><time>2026-05-03T11:33:38.72Z</time></trkpt><trkpt lat="43.3751236" lon="11.541482"><ele>285.0</ele><time>2026-05-03T11:33:39.708Z</time></trkpt><trkpt lat="43.3750198" lon="11.541492"><ele>285.0</ele><time>2026-05-03T11:33:41.698Z</time></trkpt><trkpt lat="43.3749456" lon="11.5415545"><ele>285.0</ele><time>2026-05-03T11:33:43.703Z</time></trkpt><trkpt lat="43.3749029" lon="11.5416659"><ele>285.0</ele><time>2026-05-03T11:33:45.702Z</time></trkpt><trkpt lat="43.3748846" lon="11.541769"><ele>285.0</ele><time>2026-05-03T11:33:48.69Z</time></trkpt><trkpt lat="43.3748469" lon="11.5418386"><ele>285.0</ele><time>2026-05-03T11:33:50.71Z</time></trkpt><trkpt lat="43.3747736" lon="11.5419441"><ele>285.0</ele><time>2026-05-03T11:33:52.705Z</time></trkpt><trkpt lat="43.374688" lon="11.5420167"><ele>285.0</ele><time>2026-05-03T11:33:54.739Z</time></trkpt><trkpt lat="43.3746245" lon="11.5420403"><ele>285.0</ele><time>2026-05-03T11:33:56.709Z</time></trkpt><trkpt lat="43.3745592" lon="11.5420694"><ele>285.0</ele><time>2026-05-03T11:33:59.707Z</time></trkpt><trkpt lat="43.3744893" lon="11.5420905"><ele>285.0</ele><time>2026-05-03T11:34:12.699Z</time></trkpt><trkpt lat="43.3743631" lon="11.5421265"><ele>285.0</ele><time>2026-05-03T11:34:14.704Z</time></trkpt><trkpt lat="43.3742648" lon="11.5421512"><ele>285.0</ele><time>2026-05-03T11:34:15.71Z</time></trkpt><trkpt lat="43.3741619" lon="11.5421768"><ele>285.0</ele><time>2026-05-03T11:34:16.696Z</time></trkpt><trkpt lat="43.3740518" lon="11.5422086"><ele>285.0</ele><time>2026-05-03T11:34:17.765Z</time></trkpt><trkpt lat="43.3739327" lon="11.5422459"><ele>285.0</ele><time>2026-05-03T11:34:18.706Z</time></trkpt><trkpt lat="43.3738082" lon="11.5422789"><ele>285.0</ele><time>2026-05-03T11:34:19.71Z</time></trkpt><trkpt lat="43.3736808" lon="11.5423184"><ele>285.0</ele><time>2026-05-03T11:34:20.711Z</time></trkpt><trkpt lat="43.373564" lon="11.5423559"><ele>285.0</ele><time>2026-05-03T11:34:21.719Z</time></trkpt><trkpt lat="43.373453" lon="11.542391"><ele>285.0</ele><time>2026-05-03T11:34:22.707Z</time></trkpt><trkpt lat="43.3733479" lon="11.5424272"><ele>285.0</ele><time>2026-05-03T11:34:23.699Z</time></trkpt><trkpt lat="43.373235" lon="11.5424692"><ele>285.0</ele><time>2026-05-03T11:34:24.714Z</time></trkpt><trkpt lat="43.3731166" lon="11.5425145"><ele>285.0</ele><time>2026-05-03T11:34:25.698Z</time></trkpt><trkpt lat="43.3730025" lon="11.5425511"><ele>285.0</ele><time>2026-05-03T11:34:26.704Z</time></trkpt><trkpt lat="43.372903" lon="11.5425977"><ele>285.0</ele><time>2026-05-03T11:34:27.704Z</time></trkpt><trkpt lat="43.3728149" lon="11.5426624"><ele>285.0</ele><time>2026-05-03T11:34:28.698Z</time></trkpt><trkpt lat="43.3727286" lon="11.5427441"><ele>285.0</ele><time>2026-05-03T11:34:29.71Z</time></trkpt><trkpt lat="43.3726463" lon="11.5428472"><ele>285.0</ele><time>2026-05-03T11:34:30.7Z</time></trkpt><trkpt lat="43.3725597" lon="11.5429609"><ele>285.0</ele><time>2026-05-03T11:34:31.715Z</time></trkpt><trkpt lat="43.3724766" lon="11.5430867"><ele>285.0</ele><time>2026-05-03T11:34:32.704Z</time></trkpt><trkpt lat="43.3724042" lon="11.5432225"><ele>285.0</ele><time>2026-05-03T11:34:33.709Z</time></trkpt><trkpt lat="43.3723516" lon="11.5433748"><ele>285.0</ele><time>2026-05-03T11:34:34.705Z</time></trkpt><trkpt lat="43.3723157" lon="11.5435391"><ele>285.0</ele><time>2026-05-03T11:34:35.703Z</time></trkpt><trkpt lat="43.3722847" lon="11.5437084"><ele>284.0</ele><time>2026-05-03T11:34:36.689Z</time></trkpt><trkpt lat="43.3722554" lon="11.5438734"><ele>283.0</ele><time>2026-05-03T11:34:37.698Z</time></trkpt><trkpt lat="43.3722383" lon="11.5440305"><ele>282.0</ele><time>2026-05-03T11:34:38.698Z</time></trkpt><trkpt lat="43.3722391" lon="11.5441887"><ele>281.0</ele><time>2026-05-03T11:34:39.701Z</time></trkpt><trkpt lat="43.3722481" lon="11.5443448"><ele>281.0</ele><time>2026-05-03T11:34:40.706Z</time></trkpt><trkpt lat="43.3722647" lon="11.5445061"><ele>281.0</ele><time>2026-05-03T11:34:41.691Z</time></trkpt><trkpt lat="43.3723094" lon="11.5446571"><ele>281.0</ele><time>2026-05-03T11:34:42.697Z</time></trkpt><trkpt lat="43.3723709" lon="11.5447946"><ele>281.0</ele><time>2026-05-03T11:34:43.715Z</time></trkpt><trkpt lat="43.3724331" lon="11.5449264"><ele>281.0</ele><time>2026-05-03T11:34:44.705Z</time></trkpt><trkpt lat="43.3724883" lon="11.545053"><ele>281.0</ele><time>2026-05-03T11:34:45.708Z</time></trkpt><trkpt lat="43.3725363" lon="11.545196"><ele>281.0</ele><time>2026-05-03T11:34:46.701Z</time></trkpt><trkpt lat="43.3725973" lon="11.5453286"><ele>281.0</ele><time>2026-05-03T11:34:47.716Z</time></trkpt><trkpt lat="43.3726711" lon="11.5454572"><ele>280.75</ele><time>2026-05-03T11:34:48.717Z</time></trkpt><trkpt lat="43.3727482" lon="11.5455974"><ele>280.5</ele><time>2026-05-03T11:34:49.71Z</time></trkpt><trkpt lat="43.3728255" lon="11.5457417"><ele>280.25</ele><time>2026-05-03T11:34:50.712Z</time></trkpt><trkpt lat="43.3729023" lon="11.5458901"><ele>280.0</ele><time>2026-05-03T11:34:51.715Z</time></trkpt><trkpt lat="43.3729797" lon="11.5460414"><ele>280.25</ele><time>2026-05-03T11:34:52.7Z</time></trkpt><trkpt lat="43.3730522" lon="11.5461959"><ele>280.5</ele><time>2026-05-03T11:34:53.705Z</time></trkpt><trkpt lat="43.3731323" lon="11.5463364"><ele>280.75</ele><time>2026-05-03T11:34:54.693Z</time></trkpt><trkpt lat="43.3732167" lon="11.5464523"><ele>281.0</ele><time>2026-05-03T11:34:55.715Z</time></trkpt><trkpt lat="43.3733175" lon="11.5465436"><ele>281.5</ele><time>2026-05-03T11:34:56.708Z</time></trkpt><trkpt lat="43.3734336" lon="11.5466141"><ele>282.0</ele><time>2026-05-03T11:34:57.714Z</time></trkpt><trkpt lat="43.3735556" lon="11.546669"><ele>282.5</ele><time>2026-05-03T11:34:58.705Z</time></trkpt><trkpt lat="43.3736811" lon="11.5467279"><ele>283.0</ele><time>2026-05-03T11:34:59.731Z</time></trkpt><trkpt lat="43.3738085" lon="11.5467902"><ele>283.5</ele><time>2026-05-03T11:35:00.714Z</time></trkpt><trkpt lat="43.3739372" lon="11.5468629"><ele>284.0</ele><time>2026-05-03T11:35:01.717Z</time></trkpt><trkpt lat="43.3740695" lon="11.546948"><ele>284.5</ele><time>2026-05-03T11:35:02.708Z</time></trkpt><trkpt lat="43.3742058" lon="11.5470448"><ele>285.0</ele><time>2026-05-03T11:35:03.713Z</time></trkpt><trkpt lat="43.3743409" lon="11.5471466"><ele>285.0</ele><time>2026-05-03T11:35:04.712Z</time></trkpt><trkpt lat="43.3744784" lon="11.5472428"><ele>285.0</ele><time>2026-05-03T11:35:05.717Z</time></trkpt><trkpt lat="43.3746151" lon="11.5473364"><ele>285.0</ele><time>2026-05-03T11:35:06.712Z</time></trkpt><trkpt lat="43.3747452" lon="11.5474361"><ele>286.75</ele><time>2026-05-03T11:35:07.706Z</time></trkpt><trkpt lat="43.3748783" lon="11.5475363"><ele>288.5</ele><time>2026-05-03T11:35:08.72Z</time></trkpt><trkpt lat="43.3750081" lon="11.5476367"><ele>290.25</ele><time>2026-05-03T11:35:09.711Z</time></trkpt><trkpt lat="43.3751163" lon="11.5477135"><ele>292.0</ele><time>2026-05-03T11:35:10.717Z</time></trkpt><trkpt lat="43.3752104" lon="11.5477843"><ele>292.0</ele><time>2026-05-03T11:35:11.716Z</time></trkpt><trkpt lat="43.3752919" lon="11.5478428"><ele>292.0</ele><time>2026-05-03T11:35:12.708Z</time></trkpt><trkpt lat="43.3753567" lon="11.5478891"><ele>292.0</ele><time>2026-05-03T11:35:13.697Z</time></trkpt><trkpt lat="43.3754403" lon="11.5479911"><ele>292.0</ele><time>2026-05-03T11:35:15.705Z</time></trkpt><trkpt lat="43.3754271" lon="11.5481067"><ele>292.0</ele><time>2026-05-03T11:35:17.709Z</time></trkpt><trkpt lat="43.3753241" lon="11.5481789"><ele>292.8333333333333</ele><time>2026-05-03T11:35:19.704Z</time></trkpt><trkpt lat="43.3752332" lon="11.5482217"><ele>293.66666666666663</ele><time>2026-05-03T11:35:20.703Z</time></trkpt><trkpt lat="43.3751291" lon="11.5482532"><ele>294.5</ele><time>2026-05-03T11:35:21.705Z</time></trkpt><trkpt lat="43.3750353" lon="11.5482718"><ele>295.3333333333333</ele><time>2026-05-03T11:35:22.703Z</time></trkpt><trkpt lat="43.3749524" lon="11.5482919"><ele>296.1666666666667</ele><time>2026-05-03T11:35:23.709Z</time></trkpt><trkpt lat="43.3748921" lon="11.5483198"><ele>297.0</ele><time>2026-05-03T11:35:24.708Z</time></trkpt><trkpt lat="43.3748114" lon="11.5484343"><ele>297.0</ele><time>2026-05-03T11:35:26.693Z</time></trkpt><trkpt lat="43.3747743" lon="11.5485227"><ele>297.0</ele><time>2026-05-03T11:35:27.701Z</time></trkpt><trkpt lat="43.3747481" lon="11.5486218"><ele>297.0</ele><time>2026-05-03T11:35:28.7Z</time></trkpt><trkpt lat="43.3747272" lon="11.5487169"><ele>297.0</ele><time>2026-05-03T11:35:29.699Z</time></trkpt><trkpt lat="43.3747142" lon="11.5488045"><ele>297.0</ele><time>2026-05-03T11:35:30.702Z</time></trkpt><trkpt lat="43.3746891" lon="11.5489008"><ele>297.0</ele><time>2026-05-03T11:35:31.711Z</time></trkpt><trkpt lat="43.3746634" lon="11.5490025"><ele>297.0</ele><time>2026-05-03T11:35:32.705Z</time></trkpt><trkpt lat="43.3746325" lon="11.5491133"><ele>296.0</ele><time>2026-05-03T11:35:33.717Z</time></trkpt><trkpt lat="43.3745951" lon="11.5492215"><ele>295.0</ele><time>2026-05-03T11:35:34.714Z</time></trkpt><trkpt lat="43.3745532" lon="11.5493345"><ele>294.0</ele><time>2026-05-03T11:35:35.719Z</time></trkpt><trkpt lat="43.3744988" lon="11.549443"><ele>293.0</ele><time>2026-05-03T11:35:36.694Z</time></trkpt><trkpt lat="43.3744463" lon="11.5495577"><ele>292.0</ele><time>2026-05-03T11:35:37.712Z</time></trkpt><trkpt lat="43.374394" lon="11.5496559"><ele>292.0</ele><time>2026-05-03T11:35:38.698Z</time></trkpt><trkpt lat="43.3743448" lon="11.5497512"><ele>292.0</ele><time>2026-05-03T11:35:39.716Z</time></trkpt><trkpt lat="43.3742938" lon="11.5498449"><ele>292.0</ele><time>2026-05-03T11:35:40.705Z</time></trkpt><trkpt lat="43.3742441" lon="11.54994"><ele>292.0</ele><time>2026-05-03T11:35:41.704Z</time></trkpt><trkpt lat="43.3741903" lon="11.5500399"><ele>292.0</ele><time>2026-05-03T11:35:42.701Z</time></trkpt><trkpt lat="43.3741341" lon="11.5501419"><ele>292.0</ele><time>2026-05-03T11:35:43.714Z</time></trkpt><trkpt lat="43.3740923" lon="11.5502484"><ele>292.0</ele><time>2026-05-03T11:35:44.703Z</time></trkpt><trkpt lat="43.3740549" lon="11.5503502"><ele>292.0</ele><time>2026-05-03T11:35:45.706Z</time></trkpt><trkpt lat="43.3740333" lon="11.5504416"><ele>292.0</ele><time>2026-05-03T11:35:46.698Z</time></trkpt><trkpt lat="43.3740226" lon="11.5505345"><ele>292.0</ele><time>2026-05-03T11:35:47.709Z</time></trkpt><trkpt lat="43.3740493" lon="11.5506595"><ele>292.0</ele><time>2026-05-03T11:35:49.71Z</time></trkpt><trkpt lat="43.3741196" lon="11.5506994"><ele>292.0</ele><time>2026-05-03T11:35:51.714Z</time></trkpt><trkpt lat="43.3742018" lon="11.5507427"><ele>292.8</ele><time>2026-05-03T11:35:53.699Z</time></trkpt><trkpt lat="43.3742827" lon="11.5507847"><ele>293.6</ele><time>2026-05-03T11:35:55.699Z</time></trkpt><trkpt lat="43.3743922" lon="11.550829"><ele>294.40000000000003</ele><time>2026-05-03T11:35:57.714Z</time></trkpt><trkpt lat="43.3744975" lon="11.5509082"><ele>295.2</ele><time>2026-05-03T11:35:59.711Z</time></trkpt><trkpt lat="43.3745375" lon="11.5510573"><ele>296.0</ele><time>2026-05-03T11:36:01.701Z</time></trkpt><trkpt lat="43.3745041" lon="11.5512246"><ele>296.6666666666667</ele><time>2026-05-03T11:36:03.701Z</time></trkpt><trkpt lat="43.3744624" lon="11.5513206"><ele>297.33333333333337</ele><time>2026-05-03T11:36:04.709Z</time></trkpt><trkpt lat="43.3744254" lon="11.551437"><ele>298.0</ele><time>2026-05-03T11:36:05.698Z</time></trkpt><trkpt lat="43.3743871" lon="11.5515506"><ele>298.6666666666667</ele><time>2026-05-03T11:36:06.702Z</time></trkpt><trkpt lat="43.3743501" lon="11.5516564"><ele>299.3333333333333</ele><time>2026-05-03T11:36:07.705Z</time></trkpt><trkpt lat="43.3743165" lon="11.551762"><ele>300.0</ele><time>2026-05-03T11:36:08.698Z</time></trkpt><trkpt lat="43.3742878" lon="11.5518772"><ele>300.0</ele><time>2026-05-03T11:36:09.697Z</time></trkpt><trkpt lat="43.3742645" lon="11.5520092"><ele>300.0</ele><time>2026-05-03T11:36:10.696Z</time></trkpt><trkpt lat="43.3742531" lon="11.5521539"><ele>300.0</ele><time>2026-05-03T11:36:11.704Z</time></trkpt><trkpt lat="43.3742407" lon="11.5522943"><ele>300.0</ele><time>2026-05-03T11:36:12.702Z</time></trkpt><trkpt lat="43.3742262" lon="11.5524312"><ele>300.0</ele><time>2026-05-03T11:36:13.705Z</time></trkpt><trkpt lat="43.3742178" lon="11.5525602"><ele>300.0</ele><time>2026-05-03T11:36:14.712Z</time></trkpt><trkpt lat="43.3742174" lon="11.5526859"><ele>300.0</ele><time>2026-05-03T11:36:15.701Z</time></trkpt><trkpt lat="43.3742056" lon="11.5528006"><ele>300.0</ele><time>2026-05-03T11:36:16.708Z</time></trkpt><trkpt lat="43.3741759" lon="11.552915"><ele>300.0</ele><time>2026-05-03T11:36:17.705Z</time></trkpt><trkpt lat="43.374117" lon="11.5530322"><ele>300.0</ele><time>2026-05-03T11:36:18.694Z</time></trkpt><trkpt lat="43.3740402" lon="11.553153"><ele>300.2</ele><time>2026-05-03T11:36:19.701Z</time></trkpt><trkpt lat="43.3739612" lon="11.5532704"><ele>300.4</ele><time>2026-05-03T11:36:20.697Z</time></trkpt><trkpt lat="43.3738964" lon="11.5533805"><ele>300.6</ele><time>2026-05-03T11:36:21.718Z</time></trkpt><trkpt lat="43.3738353" lon="11.5534883"><ele>300.8</ele><time>2026-05-03T11:36:22.693Z</time></trkpt><trkpt lat="43.3737824" lon="11.5535965"><ele>301.0</ele><time>2026-05-03T11:36:23.705Z</time></trkpt><trkpt lat="43.3737262" lon="11.5537214"><ele>301.0</ele><time>2026-05-03T11:36:24.706Z</time></trkpt><trkpt lat="43.3736803" lon="11.55386"><ele>301.0</ele><time>2026-05-03T11:36:25.703Z</time></trkpt><trkpt lat="43.3736401" lon="11.5539994"><ele>301.0</ele><time>2026-05-03T11:36:26.698Z</time></trkpt><trkpt lat="43.3736138" lon="11.5541516"><ele>301.0</ele><time>2026-05-03T11:36:27.698Z</time></trkpt><trkpt lat="43.3735986" lon="11.554298"><ele>301.0</ele><time>2026-05-03T11:36:28.7Z</time></trkpt><trkpt lat="43.373598" lon="11.5544337"><ele>301.25</ele><time>2026-05-03T11:36:29.703Z</time></trkpt><trkpt lat="43.3736109" lon="11.5545725"><ele>301.5</ele><time>2026-05-03T11:36:30.695Z</time></trkpt><trkpt lat="43.3736427" lon="11.5547167"><ele>301.75</ele><time>2026-05-03T11:36:31.705Z</time></trkpt><trkpt lat="43.3736843" lon="11.5548745"><ele>302.0</ele><time>2026-05-03T11:36:32.705Z</time></trkpt><trkpt lat="43.3737209" lon="11.555028"><ele>302.0</ele><time>2026-05-03T11:36:33.709Z</time></trkpt><trkpt lat="43.3737546" lon="11.5551839"><ele>302.0</ele><time>2026-05-03T11:36:34.699Z</time></trkpt><trkpt lat="43.3737811" lon="11.5553439"><ele>302.0</ele><time>2026-05-03T11:36:35.697Z</time></trkpt><trkpt lat="43.3738077" lon="11.5555051"><ele>302.0</ele><time>2026-05-03T11:36:36.694Z</time></trkpt><trkpt lat="43.3738458" lon="11.5556781"><ele>302.5</ele><time>2026-05-03T11:36:37.701Z</time></trkpt><trkpt lat="43.3738804" lon="11.5558565"><ele>303.0</ele><time>2026-05-03T11:36:38.698Z</time></trkpt><trkpt lat="43.3739138" lon="11.5560329"><ele>303.5</ele><time>2026-05-03T11:36:39.7Z</time></trkpt><trkpt lat="43.3739451" lon="11.556211"><ele>304.0</ele><time>2026-05-03T11:36:40.707Z</time></trkpt><trkpt lat="43.3739779" lon="11.5563856"><ele>304.0</ele><time>2026-05-03T11:36:41.711Z</time></trkpt><trkpt lat="43.3740111" lon="11.5565609"><ele>304.0</ele><time>2026-05-03T11:36:42.7Z</time></trkpt><trkpt lat="43.3740368" lon="11.5567263"><ele>304.0</ele><time>2026-05-03T11:36:43.705Z</time></trkpt><trkpt lat="43.3740589" lon="11.5568724"><ele>304.0</ele><time>2026-05-03T11:36:44.701Z</time></trkpt><trkpt lat="43.3740804" lon="11.5570108"><ele>303.8</ele><time>2026-05-03T11:36:45.708Z</time></trkpt><trkpt lat="43.3741018" lon="11.5571424"><ele>303.59999999999997</ele><time>2026-05-03T11:36:46.687Z</time></trkpt><trkpt lat="43.3741252" lon="11.5572688"><ele>303.4</ele><time>2026-05-03T11:36:47.707Z</time></trkpt><trkpt lat="43.3741438" lon="11.5573962"><ele>303.2</ele><time>2026-05-03T11:36:48.69Z</time></trkpt><trkpt lat="43.374159" lon="11.5575214"><ele>303.0</ele><time>2026-05-03T11:36:49.706Z</time></trkpt><trkpt lat="43.3741798" lon="11.5576354"><ele>303.0</ele><time>2026-05-03T11:36:50.701Z</time></trkpt><trkpt lat="43.3742154" lon="11.5577457"><ele>303.0</ele><time>2026-05-03T11:36:51.703Z</time></trkpt><trkpt lat="43.3742529" lon="11.5578674"><ele>303.0</ele><time>2026-05-03T11:36:52.696Z</time></trkpt><trkpt lat="43.3742937" lon="11.5580038"><ele>303.0</ele><time>2026-05-03T11:36:53.701Z</time></trkpt><trkpt lat="43.3743388" lon="11.5581481"><ele>303.0</ele><time>2026-05-03T11:36:54.703Z</time></trkpt><trkpt lat="43.3743817" lon="11.5583067"><ele>302.25</ele><time>2026-05-03T11:36:55.699Z</time></trkpt><trkpt lat="43.3744219" lon="11.5584799"><ele>301.5</ele><time>2026-05-03T11:36:56.71Z</time></trkpt><trkpt lat="43.3744597" lon="11.5586548"><ele>300.75</ele><time>2026-05-03T11:36:57.701Z</time></trkpt><trkpt lat="43.3744923" lon="11.5588365"><ele>300.0</ele><time>2026-05-03T11:36:58.7Z</time></trkpt><trkpt lat="43.3745272" lon="11.5590206"><ele>300.25</ele><time>2026-05-03T11:36:59.689Z</time></trkpt><trkpt lat="43.3745669" lon="11.5591994"><ele>300.5</ele><time>2026-05-03T11:37:00.693Z</time></trkpt><trkpt lat="43.3746126" lon="11.5593721"><ele>300.75</ele><time>2026-05-03T11:37:01.709Z</time></trkpt><trkpt lat="43.3746601" lon="11.5595418"><ele>301.0</ele><time>2026-05-03T11:37:02.702Z</time></trkpt><trkpt lat="43.3747089" lon="11.5597065"><ele>301.0</ele><time>2026-05-03T11:37:03.713Z</time></trkpt><trkpt lat="43.3747572" lon="11.559865"><ele>301.0</ele><time>2026-05-03T11:37:04.705Z</time></trkpt><trkpt lat="43.3747936" lon="11.5600242"><ele>301.0</ele><time>2026-05-03T11:37:05.692Z</time></trkpt><trkpt lat="43.3748084" lon="11.5601822"><ele>301.0</ele><time>2026-05-03T11:37:06.705Z</time></trkpt><trkpt lat="43.3748237" lon="11.5603292"><ele>300.0</ele><time>2026-05-03T11:37:07.708Z</time></trkpt><trkpt lat="43.3748426" lon="11.5604768"><ele>299.0</ele><time>2026-05-03T11:37:08.707Z</time></trkpt><trkpt lat="43.3748781" lon="11.560627"><ele>298.0</ele><time>2026-05-03T11:37:09.697Z</time></trkpt><trkpt lat="43.3749318" lon="11.5607666"><ele>297.0</ele><time>2026-05-03T11:37:10.709Z</time></trkpt><trkpt lat="43.3749888" lon="11.560907"><ele>297.0</ele><time>2026-05-03T11:37:11.711Z</time></trkpt><trkpt lat="43.3750433" lon="11.5610557"><ele>297.0</ele><time>2026-05-03T11:37:12.713Z</time></trkpt><trkpt lat="43.3750965" lon="11.5612071"><ele>297.0</ele><time>2026-05-03T11:37:13.714Z</time></trkpt><trkpt lat="43.3751339" lon="11.5613724"><ele>297.0</ele><time>2026-05-03T11:37:14.691Z</time></trkpt><trkpt lat="43.3751652" lon="11.561534"><ele>295.6</ele><time>2026-05-03T11:37:15.703Z</time></trkpt><trkpt lat="43.3751922" lon="11.561685"><ele>294.2</ele><time>2026-05-03T11:37:16.684Z</time></trkpt><trkpt lat="43.3752215" lon="11.5618195"><ele>292.8</ele><time>2026-05-03T11:37:17.719Z</time></trkpt><trkpt lat="43.3752423" lon="11.561949"><ele>291.4</ele><time>2026-05-03T11:37:18.703Z</time></trkpt><trkpt lat="43.3752663" lon="11.5620729"><ele>290.0</ele><time>2026-05-03T11:37:19.701Z</time></trkpt><trkpt lat="43.3753018" lon="11.562192"><ele>289.8</ele><time>2026-05-03T11:37:20.709Z</time></trkpt><trkpt lat="43.3753502" lon="11.5623013"><ele>289.6</ele><time>2026-05-03T11:37:21.706Z</time></trkpt><trkpt lat="43.375411" lon="11.5624043"><ele>289.4</ele><time>2026-05-03T11:37:22.716Z</time></trkpt><trkpt lat="43.3754724" lon="11.5625153"><ele>289.2</ele><time>2026-05-03T11:37:23.721Z</time></trkpt><trkpt lat="43.3755188" lon="11.562654"><ele>289.0</ele><time>2026-05-03T11:37:24.71Z</time></trkpt><trkpt lat="43.3755592" lon="11.5627851"><ele>288.0</ele><time>2026-05-03T11:37:25.702Z</time></trkpt><trkpt lat="43.3755861" lon="11.5629086"><ele>287.0</ele><time>2026-05-03T11:37:26.703Z</time></trkpt><trkpt lat="43.3755929" lon="11.5630166"><ele>286.0</ele><time>2026-05-03T11:37:27.705Z</time></trkpt><trkpt lat="43.3755713" lon="11.5631091"><ele>285.0</ele><time>2026-05-03T11:37:28.7Z</time></trkpt><trkpt lat="43.3755257" lon="11.5631878"><ele>284.0</ele><time>2026-05-03T11:37:29.7Z</time></trkpt><trkpt lat="43.3754612" lon="11.5632506"><ele>283.0</ele><time>2026-05-03T11:37:30.695Z</time></trkpt><trkpt lat="43.3753847" lon="11.5633251"><ele>281.8</ele><time>2026-05-03T11:37:31.708Z</time></trkpt><trkpt lat="43.3753005" lon="11.5634128"><ele>280.6</ele><time>2026-05-03T11:37:32.712Z</time></trkpt><trkpt lat="43.3752086" lon="11.5634963"><ele>279.4</ele><time>2026-05-03T11:37:33.706Z</time></trkpt><trkpt lat="43.3751205" lon="11.5635777"><ele>278.2</ele><time>2026-05-03T11:37:34.711Z</time></trkpt><trkpt lat="43.3750366" lon="11.5636481"><ele>277.0</ele><time>2026-05-03T11:37:35.709Z</time></trkpt><trkpt lat="43.3749605" lon="11.5637259"><ele>275.8</ele><time>2026-05-03T11:37:36.692Z</time></trkpt><trkpt lat="43.3748981" lon="11.5638035"><ele>274.6</ele><time>2026-05-03T11:37:37.712Z</time></trkpt><trkpt lat="43.3748638" lon="11.5639607"><ele>273.40000000000003</ele><time>2026-05-03T11:37:39.709Z</time></trkpt><trkpt lat="43.3748863" lon="11.5640573"><ele>272.2</ele><time>2026-05-03T11:37:40.712Z</time></trkpt><trkpt lat="43.3749174" lon="11.5641757"><ele>271.0</ele><time>2026-05-03T11:37:41.695Z</time></trkpt><trkpt lat="43.3749477" lon="11.5643038"><ele>271.0</ele><time>2026-05-03T11:37:42.699Z</time></trkpt><trkpt lat="43.3749764" lon="11.5644184"><ele>271.0</ele><time>2026-05-03T11:37:43.72Z</time></trkpt><trkpt lat="43.3750012" lon="11.5645054"><ele>271.0</ele><time>2026-05-03T11:37:44.706Z</time></trkpt><trkpt lat="43.3750302" lon="11.5645874"><ele>271.0</ele><time>2026-05-03T11:37:46.697Z</time></trkpt><trkpt lat="43.3750927" lon="11.5646688"><ele>271.0</ele><time>2026-05-03T11:37:48.707Z</time></trkpt><trkpt lat="43.3751672" lon="11.5647246"><ele>271.0</ele><time>2026-05-03T11:37:49.711Z</time></trkpt><trkpt lat="43.3752578" lon="11.5647858"><ele>270.5</ele><time>2026-05-03T11:37:50.713Z</time></trkpt><trkpt lat="43.3753658" lon="11.5648607"><ele>270.0</ele><time>2026-05-03T11:37:51.7Z</time></trkpt><trkpt lat="43.375488" lon="11.5649474"><ele>269.5</ele><time>2026-05-03T11:37:52.717Z</time></trkpt><trkpt lat="43.3756179" lon="11.5650508"><ele>269.0</ele><time>2026-05-03T11:37:53.718Z</time></trkpt><trkpt lat="43.3757606" lon="11.5651643"><ele>270.0</ele><time>2026-05-03T11:37:54.709Z</time></trkpt><trkpt lat="43.3759135" lon="11.565282"><ele>271.0</ele><time>2026-05-03T11:37:55.718Z</time></trkpt><trkpt lat="43.3760695" lon="11.5654005"><ele>272.0</ele><time>2026-05-03T11:37:56.692Z</time></trkpt><trkpt lat="43.3762318" lon="11.5655241"><ele>272.6666666666667</ele><time>2026-05-03T11:37:57.706Z</time></trkpt><trkpt lat="43.3764003" lon="11.5656605"><ele>273.3333333333333</ele><time>2026-05-03T11:37:58.701Z</time></trkpt><trkpt lat="43.3765775" lon="11.5657951"><ele>274.0</ele><time>2026-05-03T11:37:59.719Z</time></trkpt><trkpt lat="43.3767639" lon="11.5659198"><ele>274.0</ele><time>2026-05-03T11:38:00.698Z</time></trkpt><trkpt lat="43.3769595" lon="11.5660325"><ele>274.0</ele><time>2026-05-03T11:38:01.702Z</time></trkpt><trkpt lat="43.3771666" lon="11.5661029"><ele>274.0</ele><time>2026-05-03T11:38:02.688Z</time></trkpt><trkpt lat="43.3773809" lon="11.566119"><ele>272.5</ele><time>2026-05-03T11:38:03.718Z</time></trkpt><trkpt lat="43.3776083" lon="11.5661039"><ele>271.0</ele><time>2026-05-03T11:38:04.708Z</time></trkpt><trkpt lat="43.3778428" lon="11.5660426"><ele>271.0</ele><time>2026-05-03T11:38:05.725Z</time></trkpt><trkpt lat="43.378082" lon="11.5659633"><ele>271.0</ele><time>2026-05-03T11:38:06.704Z</time></trkpt><trkpt lat="43.3783193" lon="11.5658859"><ele>271.0</ele><time>2026-05-03T11:38:07.708Z</time></trkpt><trkpt lat="43.3785596" lon="11.565803"><ele>271.0</ele><time>2026-05-03T11:38:08.705Z</time></trkpt><trkpt lat="43.378797" lon="11.5657257"><ele>269.5</ele><time>2026-05-03T11:38:09.703Z</time></trkpt><trkpt lat="43.3790362" lon="11.5656454"><ele>268.0</ele><time>2026-05-03T11:38:10.711Z</time></trkpt><trkpt lat="43.379275" lon="11.5655658"><ele>268.0</ele><time>2026-05-03T11:38:11.712Z</time></trkpt><trkpt lat="43.3795125" lon="11.565487"><ele>268.0</ele><time>2026-05-03T11:38:12.707Z</time></trkpt><trkpt lat="43.3797507" lon="11.5654067"><ele>268.0</ele><time>2026-05-03T11:38:13.723Z</time></trkpt><trkpt lat="43.3799893" lon="11.5653297"><ele>268.0</ele><time>2026-05-03T11:38:14.714Z</time></trkpt><trkpt lat="43.3802288" lon="11.5652476"><ele>268.0</ele><time>2026-05-03T11:38:15.713Z</time></trkpt><trkpt lat="43.3804687" lon="11.5651678"><ele>268.0</ele><time>2026-05-03T11:38:16.714Z</time></trkpt><trkpt lat="43.3807104" lon="11.565087"><ele>267.0</ele><time>2026-05-03T11:38:17.711Z</time></trkpt><trkpt lat="43.3809484" lon="11.5650101"><ele>266.0</ele><time>2026-05-03T11:38:18.715Z</time></trkpt><trkpt lat="43.3811764" lon="11.5649361"><ele>265.6666666666667</ele><time>2026-05-03T11:38:19.717Z</time></trkpt><trkpt lat="43.3813933" lon="11.5648629"><ele>265.3333333333333</ele><time>2026-05-03T11:38:20.718Z</time></trkpt><trkpt lat="43.381604" lon="11.5648137"><ele>265.0</ele><time>2026-05-03T11:38:21.717Z</time></trkpt><trkpt lat="43.3818093" lon="11.5648076"><ele>265.0</ele><time>2026-05-03T11:38:22.711Z</time></trkpt><trkpt lat="43.3820126" lon="11.5648619"><ele>265.0</ele><time>2026-05-03T11:38:23.71Z</time></trkpt><trkpt lat="43.3822149" lon="11.5649677"><ele>265.0</ele><time>2026-05-03T11:38:24.706Z</time></trkpt><trkpt lat="43.3824083" lon="11.5651436"><ele>264.0</ele><time>2026-05-03T11:38:25.711Z</time></trkpt><trkpt lat="43.3825914" lon="11.5653676"><ele>263.0</ele><time>2026-05-03T11:38:26.698Z</time></trkpt><trkpt lat="43.3827807" lon="11.5656168"><ele>263.0</ele><time>2026-05-03T11:38:27.709Z</time></trkpt><trkpt lat="43.3829808" lon="11.5658843"><ele>263.0</ele><time>2026-05-03T11:38:28.702Z</time></trkpt><trkpt lat="43.383185" lon="11.5661542"><ele>263.5</ele><time>2026-05-03T11:38:29.721Z</time></trkpt><trkpt lat="43.3833868" lon="11.5664295"><ele>264.0</ele><time>2026-05-03T11:38:30.709Z</time></trkpt><trkpt lat="43.3835775" lon="11.5666971"><ele>264.0</ele><time>2026-05-03T11:38:31.7Z</time></trkpt><trkpt lat="43.3837633" lon="11.566951"><ele>264.0</ele><time>2026-05-03T11:38:32.709Z</time></trkpt><trkpt lat="43.3839363" lon="11.5671871"><ele>264.3333333333333</ele><time>2026-05-03T11:38:33.715Z</time></trkpt><trkpt lat="43.3841029" lon="11.5674088"><ele>264.66666666666663</ele><time>2026-05-03T11:38:34.71Z</time></trkpt><trkpt lat="43.384253" lon="11.5676156"><ele>265.0</ele><time>2026-05-03T11:38:35.717Z</time></trkpt><trkpt lat="43.3843993" lon="11.5678157"><ele>265.0</ele><time>2026-05-03T11:38:36.706Z</time></trkpt><trkpt lat="43.3845419" lon="11.5680087"><ele>265.0</ele><time>2026-05-03T11:38:37.715Z</time></trkpt><trkpt lat="43.3846821" lon="11.5681973"><ele>265.0</ele><time>2026-05-03T11:38:38.706Z</time></trkpt><trkpt lat="43.3848168" lon="11.5683844"><ele>266.3333333333333</ele><time>2026-05-03T11:38:39.716Z</time></trkpt><trkpt lat="43.3849523" lon="11.5685697"><ele>267.6666666666667</ele><time>2026-05-03T11:38:40.714Z</time></trkpt><trkpt lat="43.3850875" lon="11.5687536"><ele>269.0</ele><time>2026-05-03T11:38:41.711Z</time></trkpt><trkpt lat="43.3852268" lon="11.568938"><ele>269.0</ele><time>2026-05-03T11:38:42.709Z</time></trkpt><trkpt lat="43.3853674" lon="11.5691257"><ele>269.0</ele><time>2026-05-03T11:38:43.712Z</time></trkpt><trkpt lat="43.3855108" lon="11.569311"><ele>269.0</ele><time>2026-05-03T11:38:44.723Z</time></trkpt><trkpt lat="43.3856568" lon="11.5695073"><ele>268.0</ele><time>2026-05-03T11:38:45.719Z</time></trkpt><trkpt lat="43.385802" lon="11.5697122"><ele>267.0</ele><time>2026-05-03T11:38:46.713Z</time></trkpt><trkpt lat="43.3859509" lon="11.5699191"><ele>266.0</ele><time>2026-05-03T11:38:47.705Z</time></trkpt><trkpt lat="43.386101" lon="11.570121"><ele>266.0</ele><time>2026-05-03T11:38:48.705Z</time></trkpt><trkpt lat="43.3862515" lon="11.5703243"><ele>266.0</ele><time>2026-05-03T11:38:49.712Z</time></trkpt><trkpt lat="43.3864004" lon="11.5705237"><ele>266.0</ele><time>2026-05-03T11:38:50.7Z</time></trkpt><trkpt lat="43.3865374" lon="11.5707152"><ele>264.6666666666667</ele><time>2026-05-03T11:38:51.719Z</time></trkpt><trkpt lat="43.3866645" lon="11.5708953"><ele>263.3333333333333</ele><time>2026-05-03T11:38:52.71Z</time></trkpt><trkpt lat="43.3867923" lon="11.5710709"><ele>262.0</ele><time>2026-05-03T11:38:53.72Z</time></trkpt><trkpt lat="43.3869219" lon="11.5712443"><ele>261.66666666666663</ele><time>2026-05-03T11:38:54.703Z</time></trkpt><trkpt lat="43.3870526" lon="11.5714174"><ele>261.3333333333333</ele><time>2026-05-03T11:38:55.709Z</time></trkpt><trkpt lat="43.3871865" lon="11.5715912"><ele>261.0</ele><time>2026-05-03T11:38:56.703Z</time></trkpt><trkpt lat="43.3873233" lon="11.5717706"><ele>261.0</ele><time>2026-05-03T11:38:57.704Z</time></trkpt><trkpt lat="43.3874587" lon="11.5719554"><ele>261.0</ele><time>2026-05-03T11:38:58.705Z</time></trkpt><trkpt lat="43.3875955" lon="11.5721445"><ele>261.0</ele><time>2026-05-03T11:38:59.708Z</time></trkpt><trkpt lat="43.3877354" lon="11.5723375"><ele>261.0</ele><time>2026-05-03T11:39:00.718Z</time></trkpt><trkpt lat="43.3878798" lon="11.5725318"><ele>261.0</ele><time>2026-05-03T11:39:01.714Z</time></trkpt><trkpt lat="43.3880226" lon="11.5727278"><ele>261.0</ele><time>2026-05-03T11:39:02.706Z</time></trkpt><trkpt lat="43.3881599" lon="11.5729178"><ele>260.3333333333333</ele><time>2026-05-03T11:39:03.721Z</time></trkpt><trkpt lat="43.3882888" lon="11.5730997"><ele>259.66666666666663</ele><time>2026-05-03T11:39:04.715Z</time></trkpt><trkpt lat="43.3884199" lon="11.5732771"><ele>259.0</ele><time>2026-05-03T11:39:05.717Z</time></trkpt><trkpt lat="43.3885504" lon="11.5734555"><ele>259.0</ele><time>2026-05-03T11:39:06.703Z</time></trkpt><trkpt lat="43.3886832" lon="11.5736364"><ele>259.0</ele><time>2026-05-03T11:39:07.727Z</time></trkpt><trkpt lat="43.3888175" lon="11.5738175"><ele>259.0</ele><time>2026-05-03T11:39:08.703Z</time></trkpt><trkpt lat="43.3889501" lon="11.5740015"><ele>259.0</ele><time>2026-05-03T11:39:09.709Z</time></trkpt><trkpt lat="43.3890797" lon="11.5741881"><ele>259.0</ele><time>2026-05-03T11:39:10.706Z</time></trkpt><trkpt lat="43.3892054" lon="11.5743688"><ele>259.0</ele><time>2026-05-03T11:39:11.696Z</time></trkpt><trkpt lat="43.389326" lon="11.5745366"><ele>259.3333333333333</ele><time>2026-05-03T11:39:12.698Z</time></trkpt><trkpt lat="43.3894453" lon="11.5746948"><ele>259.6666666666667</ele><time>2026-05-03T11:39:13.706Z</time></trkpt><trkpt lat="43.3895634" lon="11.5748541"><ele>260.0</ele><time>2026-05-03T11:39:14.705Z</time></trkpt><trkpt lat="43.3896814" lon="11.5750181"><ele>260.0</ele><time>2026-05-03T11:39:15.705Z</time></trkpt><trkpt lat="43.389803" lon="11.5751843"><ele>260.0</ele><time>2026-05-03T11:39:16.719Z</time></trkpt><trkpt lat="43.3899287" lon="11.5753484"><ele>260.0</ele><time>2026-05-03T11:39:17.727Z</time></trkpt><trkpt lat="43.3900529" lon="11.5755137"><ele>260.33333333333337</ele><time>2026-05-03T11:39:18.704Z</time></trkpt><trkpt lat="43.3901729" lon="11.5756844"><ele>260.6666666666667</ele><time>2026-05-03T11:39:19.706Z</time></trkpt><trkpt lat="43.3902866" lon="11.5758575"><ele>261.0</ele><time>2026-05-03T11:39:20.703Z</time></trkpt><trkpt lat="43.3903886" lon="11.5760273"><ele>260.75</ele><time>2026-05-03T11:39:21.711Z</time></trkpt><trkpt lat="43.3904733" lon="11.5762015"><ele>260.5</ele><time>2026-05-03T11:39:22.706Z</time></trkpt><trkpt lat="43.3905464" lon="11.5763786"><ele>260.25</ele><time>2026-05-03T11:39:23.711Z</time></trkpt><trkpt lat="43.3906133" lon="11.5765591"><ele>260.0</ele><time>2026-05-03T11:39:24.705Z</time></trkpt><trkpt lat="43.3906836" lon="11.5767382"><ele>260.0</ele><time>2026-05-03T11:39:25.711Z</time></trkpt><trkpt lat="43.3907529" lon="11.5769177"><ele>260.0</ele><time>2026-05-03T11:39:26.713Z</time></trkpt><trkpt lat="43.3908188" lon="11.5770948"><ele>260.0</ele><time>2026-05-03T11:39:27.702Z</time></trkpt><trkpt lat="43.3908821" lon="11.5772734"><ele>260.0</ele><time>2026-05-03T11:39:28.699Z</time></trkpt><trkpt lat="43.3909473" lon="11.5774484"><ele>260.25</ele><time>2026-05-03T11:39:29.712Z</time></trkpt><trkpt lat="43.3910143" lon="11.5776251"><ele>260.5</ele><time>2026-05-03T11:39:30.715Z</time></trkpt><trkpt lat="43.3910856" lon="11.5778034"><ele>260.75</ele><time>2026-05-03T11:39:31.707Z</time></trkpt><trkpt lat="43.3911544" lon="11.5779801"><ele>261.0</ele><time>2026-05-03T11:39:32.698Z</time></trkpt><trkpt lat="43.3912232" lon="11.578158"><ele>261.25</ele><time>2026-05-03T11:39:33.707Z</time></trkpt><trkpt lat="43.3912915" lon="11.5783388"><ele>261.5</ele><time>2026-05-03T11:39:34.688Z</time></trkpt><trkpt lat="43.3913597" lon="11.5785177"><ele>261.75</ele><time>2026-05-03T11:39:35.724Z</time></trkpt><trkpt lat="43.3914274" lon="11.5787014"><ele>262.0</ele><time>2026-05-03T11:39:36.696Z</time></trkpt><trkpt lat="43.3914891" lon="11.5788746"><ele>262.0</ele><time>2026-05-03T11:39:37.722Z</time></trkpt><trkpt lat="43.3915442" lon="11.5790314"><ele>262.0</ele><time>2026-05-03T11:39:38.703Z</time></trkpt><trkpt lat="43.3915913" lon="11.5791813"><ele>262.0</ele><time>2026-05-03T11:39:39.724Z</time></trkpt><trkpt lat="43.3916386" lon="11.5793376"><ele>262.0</ele><time>2026-05-03T11:39:40.701Z</time></trkpt><trkpt lat="43.3916869" lon="11.5795068"><ele>261.0</ele><time>2026-05-03T11:39:41.707Z</time></trkpt><trkpt lat="43.391737" lon="11.5796888"><ele>260.0</ele><time>2026-05-03T11:39:42.709Z</time></trkpt><trkpt lat="43.3917827" lon="11.579876"><ele>259.0</ele><time>2026-05-03T11:39:43.706Z</time></trkpt><trkpt lat="43.3918318" lon="11.5800703"><ele>258.0</ele><time>2026-05-03T11:39:44.713Z</time></trkpt><trkpt lat="43.3918863" lon="11.5802625"><ele>258.0</ele><time>2026-05-03T11:39:45.718Z</time></trkpt><trkpt lat="43.391941" lon="11.5804512"><ele>258.0</ele><time>2026-05-03T11:39:46.71Z</time></trkpt><trkpt lat="43.3919947" lon="11.580632"><ele>258.0</ele><time>2026-05-03T11:39:47.711Z</time></trkpt><trkpt lat="43.3920472" lon="11.5808066"><ele>258.0</ele><time>2026-05-03T11:39:48.713Z</time></trkpt><trkpt lat="43.3920993" lon="11.5809809"><ele>258.0</ele><time>2026-05-03T11:39:49.71Z</time></trkpt><trkpt lat="43.3921475" lon="11.5811594"><ele>258.0</ele><time>2026-05-03T11:39:50.699Z</time></trkpt><trkpt lat="43.3921903" lon="11.581322"><ele>258.0</ele><time>2026-05-03T11:39:51.699Z</time></trkpt><trkpt lat="43.392229" lon="11.5814556"><ele>258.0</ele><time>2026-05-03T11:39:52.711Z</time></trkpt><trkpt lat="43.3922775" lon="11.5815551"><ele>258.6666666666667</ele><time>2026-05-03T11:39:53.704Z</time></trkpt><trkpt lat="43.3923414" lon="11.5816129"><ele>259.3333333333333</ele><time>2026-05-03T11:39:54.707Z</time></trkpt><trkpt lat="43.392415" lon="11.5816318"><ele>260.0</ele><time>2026-05-03T11:39:55.704Z</time></trkpt><trkpt lat="43.3924955" lon="11.5816514"><ele>260.66666666666663</ele><time>2026-05-03T11:39:56.703Z</time></trkpt><trkpt lat="43.3925742" lon="11.5817121"><ele>261.3333333333333</ele><time>2026-05-03T11:39:57.714Z</time></trkpt><trkpt lat="43.3926228" lon="11.5818357"><ele>262.0</ele><time>2026-05-03T11:39:58.702Z</time></trkpt><trkpt lat="43.3926427" lon="11.5820052"><ele>262.0</ele><time>2026-05-03T11:39:59.698Z</time></trkpt><trkpt lat="43.3926676" lon="11.5822055"><ele>262.0</ele><time>2026-05-03T11:40:00.706Z</time></trkpt><trkpt lat="43.3926991" lon="11.5824192"><ele>262.0</ele><time>2026-05-03T11:40:01.694Z</time></trkpt><trkpt lat="43.3927481" lon="11.5826194"><ele>262.0</ele><time>2026-05-03T11:40:02.7Z</time></trkpt><trkpt lat="43.3928076" lon="11.5828048"><ele>262.0</ele><time>2026-05-03T11:40:03.714Z</time></trkpt><trkpt lat="43.3928761" lon="11.5829771"><ele>262.0</ele><time>2026-05-03T11:40:04.698Z</time></trkpt><trkpt lat="43.3929594" lon="11.5831327"><ele>262.0</ele><time>2026-05-03T11:40:05.719Z</time></trkpt><trkpt lat="43.393071" lon="11.5832631"><ele>265.0</ele><time>2026-05-03T11:40:06.713Z</time></trkpt><trkpt lat="43.3931965" lon="11.5833511"><ele>268.0</ele><time>2026-05-03T11:40:07.697Z</time></trkpt><trkpt lat="43.3933228" lon="11.5834302"><ele>271.0</ele><time>2026-05-03T11:40:08.708Z</time></trkpt><trkpt lat="43.3934494" lon="11.5835097"><ele>274.0</ele><time>2026-05-03T11:40:09.701Z</time></trkpt><trkpt lat="43.3935753" lon="11.5835939"><ele>274.0</ele><time>2026-05-03T11:40:10.7Z</time></trkpt><trkpt lat="43.3937042" lon="11.5836866"><ele>274.0</ele><time>2026-05-03T11:40:11.708Z</time></trkpt><trkpt lat="43.393824" lon="11.5837758"><ele>274.0</ele><time>2026-05-03T11:40:12.715Z</time></trkpt><trkpt lat="43.3939365" lon="11.5838489"><ele>274.0</ele><time>2026-05-03T11:40:13.698Z</time></trkpt><trkpt lat="43.394033" lon="11.5839128"><ele>275.0</ele><time>2026-05-03T11:40:14.705Z</time></trkpt><trkpt lat="43.3941293" lon="11.5839657"><ele>276.0</ele><time>2026-05-03T11:40:15.704Z</time></trkpt><trkpt lat="43.3942215" lon="11.5840121"><ele>277.0</ele><time>2026-05-03T11:40:16.707Z</time></trkpt><trkpt lat="43.3943121" lon="11.5840553"><ele>278.0</ele><time>2026-05-03T11:40:17.707Z</time></trkpt><trkpt lat="43.394405" lon="11.5840956"><ele>279.0</ele><time>2026-05-03T11:40:18.705Z</time></trkpt><trkpt lat="43.394505" lon="11.5841357"><ele>279.0</ele><time>2026-05-03T11:40:19.704Z</time></trkpt><trkpt lat="43.3946145" lon="11.5841934"><ele>279.0</ele><time>2026-05-03T11:40:20.694Z</time></trkpt><trkpt lat="43.3947367" lon="11.5842491"><ele>279.0</ele><time>2026-05-03T11:40:21.718Z</time></trkpt><trkpt lat="43.3948674" lon="11.5842934"><ele>279.0</ele><time>2026-05-03T11:40:22.702Z</time></trkpt><trkpt lat="43.3950068" lon="11.5843205"><ele>280.5</ele><time>2026-05-03T11:40:23.712Z</time></trkpt><trkpt lat="43.3951511" lon="11.5843259"><ele>282.0</ele><time>2026-05-03T11:40:24.708Z</time></trkpt><trkpt lat="43.3952962" lon="11.5843151"><ele>283.5</ele><time>2026-05-03T11:40:25.706Z</time></trkpt><trkpt lat="43.3954381" lon="11.5843156"><ele>285.0</ele><time>2026-05-03T11:40:26.707Z</time></trkpt><trkpt lat="43.3955783" lon="11.5843241"><ele>286.5</ele><time>2026-05-03T11:40:27.706Z</time></trkpt><trkpt lat="43.3957113" lon="11.5843541"><ele>288.0</ele><time>2026-05-03T11:40:28.692Z</time></trkpt><trkpt lat="43.3958446" lon="11.5844023"><ele>289.5</ele><time>2026-05-03T11:40:29.716Z</time></trkpt><trkpt lat="43.3959816" lon="11.5844648"><ele>291.0</ele><time>2026-05-03T11:40:30.697Z</time></trkpt><trkpt lat="43.3961219" lon="11.5845366"><ele>288.3333333333333</ele><time>2026-05-03T11:40:31.704Z</time></trkpt><trkpt lat="43.3962672" lon="11.584609"><ele>285.66666666666663</ele><time>2026-05-03T11:40:32.703Z</time></trkpt><trkpt lat="43.3964119" lon="11.584686"><ele>283.0</ele><time>2026-05-03T11:40:33.71Z</time></trkpt><trkpt lat="43.3965588" lon="11.5847659"><ele>283.0</ele><time>2026-05-03T11:40:34.704Z</time></trkpt><trkpt lat="43.3967066" lon="11.5848476"><ele>283.0</ele><time>2026-05-03T11:40:35.716Z</time></trkpt><trkpt lat="43.3968588" lon="11.5849194"><ele>283.0</ele><time>2026-05-03T11:40:36.692Z</time></trkpt><trkpt lat="43.3970148" lon="11.5849863"><ele>282.66666666666663</ele><time>2026-05-03T11:40:37.72Z</time></trkpt><trkpt lat="43.3971823" lon="11.5850419"><ele>282.3333333333333</ele><time>2026-05-03T11:40:38.703Z</time></trkpt><trkpt lat="43.3973705" lon="11.5850945"><ele>282.0</ele><time>2026-05-03T11:40:39.698Z</time></trkpt><trkpt lat="43.3975768" lon="11.5851519"><ele>282.0</ele><time>2026-05-03T11:40:40.713Z</time></trkpt><trkpt lat="43.3977941" lon="11.5852157"><ele>282.0</ele><time>2026-05-03T11:40:41.698Z</time></trkpt><trkpt lat="43.3980116" lon="11.5852697"><ele>282.0</ele><time>2026-05-03T11:40:42.702Z</time></trkpt><trkpt lat="43.3982189" lon="11.5853099"><ele>283.6666666666667</ele><time>2026-05-03T11:40:43.705Z</time></trkpt><trkpt lat="43.3984185" lon="11.5853402"><ele>285.33333333333337</ele><time>2026-05-03T11:40:44.693Z</time></trkpt><trkpt lat="43.3986269" lon="11.5853734"><ele>287.0</ele><time>2026-05-03T11:40:45.706Z</time></trkpt><trkpt lat="43.3988359" lon="11.5854198"><ele>281.6666666666667</ele><time>2026-05-03T11:40:46.698Z</time></trkpt><trkpt lat="43.3990513" lon="11.5854887"><ele>276.3333333333333</ele><time>2026-05-03T11:40:47.705Z</time></trkpt><trkpt lat="43.3992631" lon="11.5855736"><ele>271.0</ele><time>2026-05-03T11:40:48.705Z</time></trkpt><trkpt lat="43.3994512" lon="11.5856839"><ele>271.0</ele><time>2026-05-03T11:40:49.695Z</time></trkpt><trkpt lat="43.3996305" lon="11.5857919"><ele>271.0</ele><time>2026-05-03T11:40:50.701Z</time></trkpt><trkpt lat="43.399809" lon="11.5858752"><ele>271.0</ele><time>2026-05-03T11:40:51.694Z</time></trkpt><trkpt lat="43.3999965" lon="11.585936"><ele>272.3333333333333</ele><time>2026-05-03T11:40:52.697Z</time></trkpt><trkpt lat="43.4001904" lon="11.585994"><ele>273.6666666666667</ele><time>2026-05-03T11:40:53.71Z</time></trkpt><trkpt lat="43.4003839" lon="11.5860654"><ele>275.0</ele><time>2026-05-03T11:40:54.709Z</time></trkpt><trkpt lat="43.4005729" lon="11.5861721"><ele>273.33333333333337</ele><time>2026-05-03T11:40:55.695Z</time></trkpt><trkpt lat="43.4007636" lon="11.5863026"><ele>271.6666666666667</ele><time>2026-05-03T11:40:56.685Z</time></trkpt><trkpt lat="43.4009464" lon="11.5864233"><ele>270.0</ele><time>2026-05-03T11:40:57.705Z</time></trkpt><trkpt lat="43.4011312" lon="11.5865189"><ele>270.0</ele><time>2026-05-03T11:40:58.699Z</time></trkpt><trkpt lat="43.4013242" lon="11.5865927"><ele>270.0</ele><time>2026-05-03T11:40:59.706Z</time></trkpt><trkpt lat="43.4015354" lon="11.5866648"><ele>270.0</ele><time>2026-05-03T11:41:00.699Z</time></trkpt><trkpt lat="43.4017563" lon="11.5867382"><ele>270.5</ele><time>2026-05-03T11:41:01.704Z</time></trkpt><trkpt lat="43.4019763" lon="11.5868215"><ele>271.0</ele><time>2026-05-03T11:41:02.699Z</time></trkpt><trkpt lat="43.4021932" lon="11.586903"><ele>269.66666666666663</ele><time>2026-05-03T11:41:03.712Z</time></trkpt><trkpt lat="43.4023954" lon="11.5869823"><ele>268.3333333333333</ele><time>2026-05-03T11:41:04.706Z</time></trkpt><trkpt lat="43.4025898" lon="11.5870675"><ele>267.0</ele><time>2026-05-03T11:41:05.693Z</time></trkpt><trkpt lat="43.4027781" lon="11.5871571"><ele>267.0</ele><time>2026-05-03T11:41:06.691Z</time></trkpt><trkpt lat="43.4029621" lon="11.5872666"><ele>267.0</ele><time>2026-05-03T11:41:07.71Z</time></trkpt><trkpt lat="43.4031288" lon="11.5874018"><ele>267.0</ele><time>2026-05-03T11:41:08.71Z</time></trkpt><trkpt lat="43.4032849" lon="11.5875426"><ele>267.3333333333333</ele><time>2026-05-03T11:41:09.713Z</time></trkpt><trkpt lat="43.4034458" lon="11.5876713"><ele>267.66666666666663</ele><time>2026-05-03T11:41:10.685Z</time></trkpt><trkpt lat="43.4036077" lon="11.5878097"><ele>268.0</ele><time>2026-05-03T11:41:11.719Z</time></trkpt><trkpt lat="43.4037628" lon="11.5879785"><ele>270.66666666666663</ele><time>2026-05-03T11:41:12.709Z</time></trkpt><trkpt lat="43.4038969" lon="11.5881816"><ele>273.3333333333333</ele><time>2026-05-03T11:41:13.719Z</time></trkpt><trkpt lat="43.4040172" lon="11.5883855"><ele>276.0</ele><time>2026-05-03T11:41:14.701Z</time></trkpt><trkpt lat="43.4041348" lon="11.5885685"><ele>274.6666666666667</ele><time>2026-05-03T11:41:15.707Z</time></trkpt><trkpt lat="43.4042572" lon="11.5887403"><ele>273.33333333333337</ele><time>2026-05-03T11:41:16.694Z</time></trkpt><trkpt lat="43.4043809" lon="11.5889033"><ele>272.0</ele><time>2026-05-03T11:41:17.701Z</time></trkpt><trkpt lat="43.4045107" lon="11.5890528"><ele>272.0</ele><time>2026-05-03T11:41:18.709Z</time></trkpt><trkpt lat="43.4046489" lon="11.5891973"><ele>272.0</ele><time>2026-05-03T11:41:19.701Z</time></trkpt><trkpt lat="43.4048081" lon="11.5893236"><ele>272.0</ele><time>2026-05-03T11:41:20.711Z</time></trkpt><trkpt lat="43.404976" lon="11.5894429"><ele>272.33333333333337</ele><time>2026-05-03T11:41:21.715Z</time></trkpt><trkpt lat="43.4051448" lon="11.5895681"><ele>272.6666666666667</ele><time>2026-05-03T11:41:22.708Z</time></trkpt><trkpt lat="43.4053079" lon="11.589673"><ele>273.0</ele><time>2026-05-03T11:41:23.705Z</time></trkpt><trkpt lat="43.4054578" lon="11.5897675"><ele>274.25</ele><time>2026-05-03T11:41:24.698Z</time></trkpt><trkpt lat="43.4055932" lon="11.5898531"><ele>275.5</ele><time>2026-05-03T11:41:25.707Z</time></trkpt><trkpt lat="43.4057095" lon="11.5899469"><ele>276.75</ele><time>2026-05-03T11:41:26.695Z</time></trkpt><trkpt lat="43.4057888" lon="11.5900759"><ele>278.0</ele><time>2026-05-03T11:41:27.7Z</time></trkpt><trkpt lat="43.405831" lon="11.5902665"><ele>276.0</ele><time>2026-05-03T11:41:28.7Z</time></trkpt><trkpt lat="43.405866" lon="11.5904934"><ele>274.0</ele><time>2026-05-03T11:41:29.708Z</time></trkpt><trkpt lat="43.4059134" lon="11.5907475"><ele>272.0</ele><time>2026-05-03T11:41:30.697Z</time></trkpt><trkpt lat="43.4059738" lon="11.5910214"><ele>271.33333333333337</ele><time>2026-05-03T11:41:31.721Z</time></trkpt><trkpt lat="43.4060317" lon="11.5912912"><ele>270.6666666666667</ele><time>2026-05-03T11:41:32.716Z</time></trkpt><trkpt lat="43.4060918" lon="11.5915341"><ele>270.0</ele><time>2026-05-03T11:41:33.697Z</time></trkpt><trkpt lat="43.4061649" lon="11.59174"><ele>270.0</ele><time>2026-05-03T11:41:34.702Z</time></trkpt><trkpt lat="43.4062751" lon="11.5919035"><ele>270.0</ele><time>2026-05-03T11:41:35.715Z</time></trkpt><trkpt lat="43.4064099" lon="11.5920391"><ele>270.0</ele><time>2026-05-03T11:41:36.693Z</time></trkpt><trkpt lat="43.4065519" lon="11.592157"><ele>270.75</ele><time>2026-05-03T11:41:37.705Z</time></trkpt><trkpt lat="43.406688" lon="11.5922717"><ele>271.5</ele><time>2026-05-03T11:41:38.698Z</time></trkpt><trkpt lat="43.4068074" lon="11.5923888"><ele>272.25</ele><time>2026-05-03T11:41:39.713Z</time></trkpt><trkpt lat="43.4068972" lon="11.5925284"><ele>273.0</ele><time>2026-05-03T11:41:40.706Z</time></trkpt><trkpt lat="43.4069656" lon="11.5926748"><ele>273.0</ele><time>2026-05-03T11:41:41.723Z</time></trkpt><trkpt lat="43.4070327" lon="11.5928327"><ele>273.0</ele><time>2026-05-03T11:41:42.704Z</time></trkpt><trkpt lat="43.4071093" lon="11.5929961"><ele>273.0</ele><time>2026-05-03T11:41:43.71Z</time></trkpt><trkpt lat="43.4071959" lon="11.5931669"><ele>273.0</ele><time>2026-05-03T11:41:44.698Z</time></trkpt><trkpt lat="43.4072881" lon="11.5933533"><ele>271.6666666666667</ele><time>2026-05-03T11:41:45.722Z</time></trkpt><trkpt lat="43.4073852" lon="11.593556"><ele>270.33333333333337</ele><time>2026-05-03T11:41:46.722Z</time></trkpt><trkpt lat="43.4074893" lon="11.5937695"><ele>269.0</ele><time>2026-05-03T11:41:47.71Z</time></trkpt><trkpt lat="43.4076021" lon="11.5939957"><ele>268.0</ele><time>2026-05-03T11:41:48.71Z</time></trkpt><trkpt lat="43.4077112" lon="11.594216"><ele>267.0</ele><time>2026-05-03T11:41:49.699Z</time></trkpt><trkpt lat="43.4078245" lon="11.5944375"><ele>266.0</ele><time>2026-05-03T11:41:50.713Z</time></trkpt><trkpt lat="43.4079212" lon="11.5946577"><ele>265.33333333333337</ele><time>2026-05-03T11:41:51.715Z</time></trkpt><trkpt lat="43.4079932" lon="11.594889"><ele>264.6666666666667</ele><time>2026-05-03T11:41:52.702Z</time></trkpt><trkpt lat="43.4080516" lon="11.5951173"><ele>264.0</ele><time>2026-05-03T11:41:53.707Z</time></trkpt><trkpt lat="43.4081221" lon="11.5953277"><ele>261.0</ele><time>2026-05-03T11:41:54.701Z</time></trkpt><trkpt lat="43.4082228" lon="11.5954993"><ele>258.0</ele><time>2026-05-03T11:41:55.701Z</time></trkpt><trkpt lat="43.4083588" lon="11.5956179"><ele>255.0</ele><time>2026-05-03T11:41:56.703Z</time></trkpt><trkpt lat="43.4084946" lon="11.5957233"><ele>255.0</ele><time>2026-05-03T11:41:57.714Z</time></trkpt><trkpt lat="43.4085909" lon="11.5958356"><ele>255.0</ele><time>2026-05-03T11:41:58.7Z</time></trkpt><trkpt lat="43.4086277" lon="11.5959541"><ele>255.0</ele><time>2026-05-03T11:41:59.702Z</time></trkpt><trkpt lat="43.4086105" lon="11.5960791"><ele>255.0</ele><time>2026-05-03T11:42:00.7Z</time></trkpt><trkpt lat="43.4085577" lon="11.5961905"><ele>255.0</ele><time>2026-05-03T11:42:01.705Z</time></trkpt><trkpt lat="43.4084688" lon="11.5963027"><ele>254.5</ele><time>2026-05-03T11:42:02.706Z</time></trkpt><trkpt lat="43.4084028" lon="11.5963782"><ele>254.0</ele><time>2026-05-03T11:42:03.71Z</time></trkpt><trkpt lat="43.4083543" lon="11.5964475"><ele>253.5</ele><time>2026-05-03T11:42:06.698Z</time></trkpt><trkpt lat="43.4083507" lon="11.5965528"><ele>253.0</ele><time>2026-05-03T11:42:08.692Z</time></trkpt><trkpt lat="43.4083906" lon="11.5966503"><ele>252.5</ele><time>2026-05-03T11:42:09.703Z</time></trkpt><trkpt lat="43.408458" lon="11.5967551"><ele>252.0</ele><time>2026-05-03T11:42:10.703Z</time></trkpt><trkpt lat="43.4085452" lon="11.5968747"><ele>251.75</ele><time>2026-05-03T11:42:11.714Z</time></trkpt><trkpt lat="43.4086384" lon="11.597004"><ele>251.5</ele><time>2026-05-03T11:42:12.702Z</time></trkpt><trkpt lat="43.4087318" lon="11.5971415"><ele>251.25</ele><time>2026-05-03T11:42:13.715Z</time></trkpt><trkpt lat="43.4088297" lon="11.5972739"><ele>251.0</ele><time>2026-05-03T11:42:14.691Z</time></trkpt><trkpt lat="43.4089323" lon="11.5974083"><ele>251.0</ele><time>2026-05-03T11:42:15.718Z</time></trkpt><trkpt lat="43.4090485" lon="11.5975464"><ele>251.0</ele><time>2026-05-03T11:42:16.688Z</time></trkpt><trkpt lat="43.4091773" lon="11.5976772"><ele>251.0</ele><time>2026-05-03T11:42:17.718Z</time></trkpt><trkpt lat="43.4093175" lon="11.597801"><ele>250.66666666666669</ele><time>2026-05-03T11:42:18.704Z</time></trkpt><trkpt lat="43.4094592" lon="11.5979241"><ele>250.33333333333331</ele><time>2026-05-03T11:42:19.702Z</time></trkpt><trkpt lat="43.409605" lon="11.5980477"><ele>250.0</ele><time>2026-05-03T11:42:20.688Z</time></trkpt><trkpt lat="43.4097483" lon="11.5981724"><ele>249.66666666666666</ele><time>2026-05-03T11:42:21.713Z</time></trkpt><trkpt lat="43.4098903" lon="11.598298"><ele>249.33333333333331</ele><time>2026-05-03T11:42:22.7Z</time></trkpt><trkpt lat="43.4100333" lon="11.5984169"><ele>249.0</ele><time>2026-05-03T11:42:23.712Z</time></trkpt><trkpt lat="43.4101752" lon="11.5985346"><ele>249.0</ele><time>2026-05-03T11:42:24.699Z</time></trkpt><trkpt lat="43.4103168" lon="11.5986534"><ele>249.0</ele><time>2026-05-03T11:42:25.711Z</time></trkpt><trkpt lat="43.4104582" lon="11.5987756"><ele>249.0</ele><time>2026-05-03T11:42:26.703Z</time></trkpt><trkpt lat="43.4105975" lon="11.5988969"><ele>249.33333333333331</ele><time>2026-05-03T11:42:27.718Z</time></trkpt><trkpt lat="43.4107399" lon="11.5990193"><ele>249.66666666666666</ele><time>2026-05-03T11:42:28.7Z</time></trkpt><trkpt lat="43.4108863" lon="11.5991441"><ele>250.0</ele><time>2026-05-03T11:42:29.701Z</time></trkpt><trkpt lat="43.4110343" lon="11.5992732"><ele>250.0</ele><time>2026-05-03T11:42:30.714Z</time></trkpt><trkpt lat="43.4111834" lon="11.5993985"><ele>250.0</ele><time>2026-05-03T11:42:31.715Z</time></trkpt><trkpt lat="43.4113275" lon="11.5995209"><ele>250.0</ele><time>2026-05-03T11:42:32.705Z</time></trkpt><trkpt lat="43.4114625" lon="11.5996404"><ele>249.25</ele><time>2026-05-03T11:42:33.711Z</time></trkpt><trkpt lat="43.4115876" lon="11.5997495"><ele>248.5</ele><time>2026-05-03T11:42:34.71Z</time></trkpt><trkpt lat="43.411711" lon="11.5998554"><ele>247.75</ele><time>2026-05-03T11:42:35.7Z</time></trkpt><trkpt lat="43.4118321" lon="11.5999634"><ele>247.0</ele><time>2026-05-03T11:42:36.71Z</time></trkpt><trkpt lat="43.4119581" lon="11.6000759"><ele>247.0</ele><time>2026-05-03T11:42:37.7Z</time></trkpt><trkpt lat="43.4120873" lon="11.6001882"><ele>247.0</ele><time>2026-05-03T11:42:38.71Z</time></trkpt><trkpt lat="43.4122181" lon="11.6003061"><ele>247.0</ele><time>2026-05-03T11:42:39.701Z</time></trkpt><trkpt lat="43.412353" lon="11.6004258"><ele>247.0</ele><time>2026-05-03T11:42:40.715Z</time></trkpt><trkpt lat="43.4124913" lon="11.6005439"><ele>247.0</ele><time>2026-05-03T11:42:41.704Z</time></trkpt><trkpt lat="43.4126246" lon="11.600665"><ele>247.0</ele><time>2026-05-03T11:42:42.706Z</time></trkpt><trkpt lat="43.4127663" lon="11.6007862"><ele>247.0</ele><time>2026-05-03T11:42:43.701Z</time></trkpt><trkpt lat="43.4129091" lon="11.600908"><ele>247.0</ele><time>2026-05-03T11:42:44.704Z</time></trkpt><trkpt lat="43.4130516" lon="11.6010349"><ele>247.0</ele><time>2026-05-03T11:42:45.714Z</time></trkpt><trkpt lat="43.4131921" lon="11.6011597"><ele>247.66666666666666</ele><time>2026-05-03T11:42:46.708Z</time></trkpt><trkpt lat="43.4133369" lon="11.6012823"><ele>248.33333333333331</ele><time>2026-05-03T11:42:47.708Z</time></trkpt><trkpt lat="43.4134869" lon="11.6014106"><ele>249.0</ele><time>2026-05-03T11:42:48.698Z</time></trkpt><trkpt lat="43.4136359" lon="11.6015358"><ele>249.0</ele><time>2026-05-03T11:42:49.713Z</time></trkpt><trkpt lat="43.4137813" lon="11.6016589"><ele>249.0</ele><time>2026-05-03T11:42:50.696Z</time></trkpt><trkpt lat="43.4139238" lon="11.6017828"><ele>249.0</ele><time>2026-05-03T11:42:51.693Z</time></trkpt><trkpt lat="43.4140598" lon="11.6019137"><ele>249.0</ele><time>2026-05-03T11:42:52.699Z</time></trkpt><trkpt lat="43.4141893" lon="11.6020485"><ele>249.0</ele><time>2026-05-03T11:42:53.711Z</time></trkpt><trkpt lat="43.4143137" lon="11.6021927"><ele>249.0</ele><time>2026-05-03T11:42:54.69Z</time></trkpt><trkpt lat="43.4144392" lon="11.6023442"><ele>249.0</ele><time>2026-05-03T11:42:55.704Z</time></trkpt><trkpt lat="43.4145662" lon="11.6025033"><ele>249.0</ele><time>2026-05-03T11:42:56.688Z</time></trkpt><trkpt lat="43.4146849" lon="11.6026668"><ele>249.0</ele><time>2026-05-03T11:42:57.703Z</time></trkpt><trkpt lat="43.4147886" lon="11.6028381"><ele>249.66666666666669</ele><time>2026-05-03T11:42:58.692Z</time></trkpt><trkpt lat="43.414879" lon="11.6030243"><ele>250.33333333333334</ele><time>2026-05-03T11:42:59.707Z</time></trkpt><trkpt lat="43.4149495" lon="11.6032364"><ele>251.0</ele><time>2026-05-03T11:43:00.708Z</time></trkpt><trkpt lat="43.4150001" lon="11.6034739"><ele>249.33333333333334</ele><time>2026-05-03T11:43:01.717Z</time></trkpt><trkpt lat="43.4150303" lon="11.6037231"><ele>247.66666666666669</ele><time>2026-05-03T11:43:02.7Z</time></trkpt><trkpt lat="43.4150509" lon="11.6039789"><ele>246.0</ele><time>2026-05-03T11:43:03.701Z</time></trkpt><trkpt lat="43.4150674" lon="11.6042482"><ele>245.33333333333331</ele><time>2026-05-03T11:43:04.71Z</time></trkpt><trkpt lat="43.4150823" lon="11.6045245"><ele>244.66666666666666</ele><time>2026-05-03T11:43:05.704Z</time></trkpt><trkpt lat="43.4150969" lon="11.6047894"><ele>244.0</ele><time>2026-05-03T11:43:06.696Z</time></trkpt><trkpt lat="43.4151117" lon="11.6050434"><ele>244.0</ele><time>2026-05-03T11:43:07.7Z</time></trkpt><trkpt lat="43.41513" lon="11.6052821"><ele>244.0</ele><time>2026-05-03T11:43:08.695Z</time></trkpt><trkpt lat="43.4151602" lon="11.6055173"><ele>244.0</ele><time>2026-05-03T11:43:09.697Z</time></trkpt><trkpt lat="43.4152324" lon="11.6057429"><ele>243.66666666666666</ele><time>2026-05-03T11:43:10.692Z</time></trkpt><trkpt lat="43.415346" lon="11.6059517"><ele>243.33333333333331</ele><time>2026-05-03T11:43:11.706Z</time></trkpt><trkpt lat="43.4154934" lon="11.6061492"><ele>243.0</ele><time>2026-05-03T11:43:12.709Z</time></trkpt><trkpt lat="43.4156583" lon="11.6063458"><ele>244.0</ele><time>2026-05-03T11:43:13.702Z</time></trkpt><trkpt lat="43.4158296" lon="11.6065496"><ele>245.0</ele><time>2026-05-03T11:43:14.698Z</time></trkpt><trkpt lat="43.4159994" lon="11.6067666"><ele>245.0</ele><time>2026-05-03T11:43:15.71Z</time></trkpt><trkpt lat="43.4161713" lon="11.6069753"><ele>245.0</ele><time>2026-05-03T11:43:16.698Z</time></trkpt><trkpt lat="43.4163373" lon="11.6071877"><ele>245.0</ele><time>2026-05-03T11:43:17.711Z</time></trkpt><trkpt lat="43.4164997" lon="11.6073901"><ele>245.0</ele><time>2026-05-03T11:43:18.7Z</time></trkpt><trkpt lat="43.4166547" lon="11.6075906"><ele>245.0</ele><time>2026-05-03T11:43:19.729Z</time></trkpt><trkpt lat="43.4167962" lon="11.607781"><ele>246.0</ele><time>2026-05-03T11:43:20.706Z</time></trkpt><trkpt lat="43.4169378" lon="11.6079508"><ele>247.0</ele><time>2026-05-03T11:43:21.721Z</time></trkpt><trkpt lat="43.4170783" lon="11.6080974"><ele>248.0</ele><time>2026-05-03T11:43:22.694Z</time></trkpt><trkpt lat="43.4172249" lon="11.6082252"><ele>248.0</ele><time>2026-05-03T11:43:23.706Z</time></trkpt><trkpt lat="43.4173819" lon="11.6083415"><ele>248.0</ele><time>2026-05-03T11:43:24.697Z</time></trkpt><trkpt lat="43.417547" lon="11.6084409"><ele>248.0</ele><time>2026-05-03T11:43:25.706Z</time></trkpt><trkpt lat="43.4177126" lon="11.6085403"><ele>248.0</ele><time>2026-05-03T11:43:26.698Z</time></trkpt><trkpt lat="43.4178794" lon="11.6086351"><ele>248.0</ele><time>2026-05-03T11:43:27.714Z</time></trkpt><trkpt lat="43.4180436" lon="11.6087288"><ele>248.0</ele><time>2026-05-03T11:43:28.696Z</time></trkpt><trkpt lat="43.4182051" lon="11.6088335"><ele>249.0</ele><time>2026-05-03T11:43:29.705Z</time></trkpt><trkpt lat="43.4183507" lon="11.6089465"><ele>250.0</ele><time>2026-05-03T11:43:30.709Z</time></trkpt><trkpt lat="43.4184802" lon="11.6090734"><ele>251.0</ele><time>2026-05-03T11:43:31.714Z</time></trkpt><trkpt lat="43.418608" lon="11.6092092"><ele>251.0</ele><time>2026-05-03T11:43:32.7Z</time></trkpt><trkpt lat="43.4187462" lon="11.6093459"><ele>251.0</ele><time>2026-05-03T11:43:33.705Z</time></trkpt><trkpt lat="43.4188886" lon="11.6094938"><ele>251.0</ele><time>2026-05-03T11:43:34.697Z</time></trkpt><trkpt lat="43.4190352" lon="11.6096448"><ele>250.0</ele><time>2026-05-03T11:43:35.697Z</time></trkpt><trkpt lat="43.4191847" lon="11.6097965"><ele>249.0</ele><time>2026-05-03T11:43:36.709Z</time></trkpt><trkpt lat="43.4193332" lon="11.6099484"><ele>248.0</ele><time>2026-05-03T11:43:37.699Z</time></trkpt><trkpt lat="43.4194841" lon="11.6100987"><ele>248.0</ele><time>2026-05-03T11:43:38.716Z</time></trkpt><trkpt lat="43.4196397" lon="11.6102528"><ele>248.0</ele><time>2026-05-03T11:43:39.717Z</time></trkpt><trkpt lat="43.4197972" lon="11.6104125"><ele>248.0</ele><time>2026-05-03T11:43:40.703Z</time></trkpt><trkpt lat="43.4199571" lon="11.6105735"><ele>247.0</ele><time>2026-05-03T11:43:41.713Z</time></trkpt><trkpt lat="43.4201173" lon="11.6107435"><ele>246.0</ele><time>2026-05-03T11:43:42.7Z</time></trkpt><trkpt lat="43.4202752" lon="11.6109201"><ele>245.0</ele><time>2026-05-03T11:43:43.697Z</time></trkpt><trkpt lat="43.4204338" lon="11.6111015"><ele>244.66666666666669</ele><time>2026-05-03T11:43:44.697Z</time></trkpt><trkpt lat="43.420596" lon="11.6112862"><ele>244.33333333333331</ele><time>2026-05-03T11:43:45.71Z</time></trkpt><trkpt lat="43.4207637" lon="11.611463"><ele>244.0</ele><time>2026-05-03T11:43:46.685Z</time></trkpt><trkpt lat="43.4209413" lon="11.6116383"><ele>244.0</ele><time>2026-05-03T11:43:47.715Z</time></trkpt><trkpt lat="43.4211248" lon="11.6118142"><ele>244.0</ele><time>2026-05-03T11:43:48.704Z</time></trkpt><trkpt lat="43.4213074" lon="11.611989"><ele>244.0</ele><time>2026-05-03T11:43:49.706Z</time></trkpt><trkpt lat="43.421485" lon="11.6121613"><ele>243.33333333333331</ele><time>2026-05-03T11:43:50.701Z</time></trkpt><trkpt lat="43.4216596" lon="11.6123415"><ele>242.66666666666669</ele><time>2026-05-03T11:43:51.698Z</time></trkpt><trkpt lat="43.421834" lon="11.6125201"><ele>242.0</ele><time>2026-05-03T11:43:52.691Z</time></trkpt><trkpt lat="43.422002" lon="11.6127013"><ele>242.33333333333334</ele><time>2026-05-03T11:43:53.705Z</time></trkpt><trkpt lat="43.4221642" lon="11.6128764"><ele>242.66666666666669</ele><time>2026-05-03T11:43:54.699Z</time></trkpt><trkpt lat="43.4223262" lon="11.6130515"><ele>243.0</ele><time>2026-05-03T11:43:55.698Z</time></trkpt><trkpt lat="43.4224903" lon="11.6132226"><ele>243.0</ele><time>2026-05-03T11:43:56.687Z</time></trkpt><trkpt lat="43.4226505" lon="11.613392"><ele>243.0</ele><time>2026-05-03T11:43:57.698Z</time></trkpt><trkpt lat="43.4228083" lon="11.6135565"><ele>243.0</ele><time>2026-05-03T11:43:58.696Z</time></trkpt><trkpt lat="43.4229683" lon="11.6137205"><ele>243.66666666666669</ele><time>2026-05-03T11:43:59.701Z</time></trkpt><trkpt lat="43.4231279" lon="11.613882"><ele>244.33333333333334</ele><time>2026-05-03T11:44:00.697Z</time></trkpt><trkpt lat="43.4232842" lon="11.6140413"><ele>245.0</ele><time>2026-05-03T11:44:01.703Z</time></trkpt><trkpt lat="43.4234395" lon="11.6141894"><ele>245.0</ele><time>2026-05-03T11:44:02.704Z</time></trkpt><trkpt lat="43.423591" lon="11.6142998"><ele>245.0</ele><time>2026-05-03T11:44:03.708Z</time></trkpt><trkpt lat="43.4237374" lon="11.614376"><ele>245.0</ele><time>2026-05-03T11:44:04.703Z</time></trkpt><trkpt lat="43.4238886" lon="11.6143779"><ele>244.0</ele><time>2026-05-03T11:44:05.713Z</time></trkpt><trkpt lat="43.4240386" lon="11.6143238"><ele>243.0</ele><time>2026-05-03T11:44:06.713Z</time></trkpt><trkpt lat="43.4241961" lon="11.6142129"><ele>242.0</ele><time>2026-05-03T11:44:07.699Z</time></trkpt><trkpt lat="43.424363" lon="11.6140867"><ele>242.0</ele><time>2026-05-03T11:44:08.708Z</time></trkpt><trkpt lat="43.4245335" lon="11.6139634"><ele>242.0</ele><time>2026-05-03T11:44:09.694Z</time></trkpt><trkpt lat="43.4247138" lon="11.6138417"><ele>242.0</ele><time>2026-05-03T11:44:10.709Z</time></trkpt><trkpt lat="43.4248967" lon="11.6137175"><ele>241.66666666666669</ele><time>2026-05-03T11:44:11.706Z</time></trkpt><trkpt lat="43.4250827" lon="11.6135878"><ele>241.33333333333331</ele><time>2026-05-03T11:44:12.701Z</time></trkpt><trkpt lat="43.4252712" lon="11.613446"><ele>241.0</ele><time>2026-05-03T11:44:13.705Z</time></trkpt><trkpt lat="43.4254556" lon="11.6132881"><ele>242.0</ele><time>2026-05-03T11:44:14.692Z</time></trkpt><trkpt lat="43.4256401" lon="11.6131212"><ele>243.0</ele><time>2026-05-03T11:44:15.704Z</time></trkpt><trkpt lat="43.4258235" lon="11.6129391"><ele>244.0</ele><time>2026-05-03T11:44:16.69Z</time></trkpt><trkpt lat="43.4260088" lon="11.6127609"><ele>244.0</ele><time>2026-05-03T11:44:17.715Z</time></trkpt><trkpt lat="43.426196" lon="11.6125775"><ele>244.0</ele><time>2026-05-03T11:44:18.703Z</time></trkpt><trkpt lat="43.4263891" lon="11.6124017"><ele>246.0</ele><time>2026-05-03T11:44:19.715Z</time></trkpt><trkpt lat="43.4265881" lon="11.6122524"><ele>248.0</ele><time>2026-05-03T11:44:20.708Z</time></trkpt><trkpt lat="43.4267975" lon="11.6121359"><ele>248.0</ele><time>2026-05-03T11:44:21.706Z</time></trkpt><trkpt lat="43.4270126" lon="11.6120485"><ele>248.0</ele><time>2026-05-03T11:44:22.702Z</time></trkpt><trkpt lat="43.427225" lon="11.611976"><ele>248.0</ele><time>2026-05-03T11:44:23.716Z</time></trkpt><trkpt lat="43.4274267" lon="11.6119432"><ele>248.66666666666669</ele><time>2026-05-03T11:44:24.707Z</time></trkpt><trkpt lat="43.4276177" lon="11.6119605"><ele>249.33333333333331</ele><time>2026-05-03T11:44:25.711Z</time></trkpt><trkpt lat="43.4278089" lon="11.6120142"><ele>250.0</ele><time>2026-05-03T11:44:26.688Z</time></trkpt><trkpt lat="43.428008" lon="11.6120967"><ele>247.66666666666666</ele><time>2026-05-03T11:44:27.701Z</time></trkpt><trkpt lat="43.4282125" lon="11.6121813"><ele>245.33333333333331</ele><time>2026-05-03T11:44:28.712Z</time></trkpt><trkpt lat="43.4284149" lon="11.6122683"><ele>243.0</ele><time>2026-05-03T11:44:29.714Z</time></trkpt><trkpt lat="43.4286186" lon="11.6123574"><ele>242.0</ele><time>2026-05-03T11:44:30.713Z</time></trkpt><trkpt lat="43.4288235" lon="11.6124398"><ele>241.0</ele><time>2026-05-03T11:44:31.705Z</time></trkpt><trkpt lat="43.4290342" lon="11.6125165"><ele>240.0</ele><time>2026-05-03T11:44:32.714Z</time></trkpt><trkpt lat="43.4292441" lon="11.6125979"><ele>240.0</ele><time>2026-05-03T11:44:33.712Z</time></trkpt><trkpt lat="43.4294439" lon="11.612698"><ele>240.0</ele><time>2026-05-03T11:44:34.706Z</time></trkpt><trkpt lat="43.4296202" lon="11.612829"><ele>240.0</ele><time>2026-05-03T11:44:35.703Z</time></trkpt><trkpt lat="43.4297859" lon="11.6129981"><ele>238.66666666666669</ele><time>2026-05-03T11:44:36.712Z</time></trkpt><trkpt lat="43.4299429" lon="11.6132078"><ele>237.33333333333334</ele><time>2026-05-03T11:44:37.704Z</time></trkpt><trkpt lat="43.4301047" lon="11.6134235"><ele>236.0</ele><time>2026-05-03T11:44:38.707Z</time></trkpt><trkpt lat="43.4302746" lon="11.6136448"><ele>236.5</ele><time>2026-05-03T11:44:39.699Z</time></trkpt><trkpt lat="43.4304519" lon="11.6138717"><ele>237.0</ele><time>2026-05-03T11:44:40.702Z</time></trkpt><trkpt lat="43.4306329" lon="11.614098"><ele>235.0</ele><time>2026-05-03T11:44:41.711Z</time></trkpt><trkpt lat="43.4308176" lon="11.6143193"><ele>233.0</ele><time>2026-05-03T11:44:42.713Z</time></trkpt><trkpt lat="43.4310066" lon="11.6145388"><ele>233.0</ele><time>2026-05-03T11:44:43.703Z</time></trkpt><trkpt lat="43.4311925" lon="11.6147521"><ele>233.0</ele><time>2026-05-03T11:44:44.69Z</time></trkpt><trkpt lat="43.4313762" lon="11.6149636"><ele>232.5</ele><time>2026-05-03T11:44:45.707Z</time></trkpt><trkpt lat="43.431559" lon="11.615175"><ele>232.0</ele><time>2026-05-03T11:44:46.703Z</time></trkpt><trkpt lat="43.431748" lon="11.6153776"><ele>232.0</ele><time>2026-05-03T11:44:47.711Z</time></trkpt><trkpt lat="43.4319456" lon="11.6155683"><ele>232.0</ele><time>2026-05-03T11:44:48.711Z</time></trkpt><trkpt lat="43.4321534" lon="11.6157454"><ele>232.0</ele><time>2026-05-03T11:44:49.717Z</time></trkpt><trkpt lat="43.4323682" lon="11.6158917"><ele>232.0</ele><time>2026-05-03T11:44:50.715Z</time></trkpt><trkpt lat="43.4325811" lon="11.6159969"><ele>232.0</ele><time>2026-05-03T11:44:51.702Z</time></trkpt><trkpt lat="43.4327898" lon="11.6160638"><ele>232.0</ele><time>2026-05-03T11:44:52.71Z</time></trkpt><trkpt lat="43.4329973" lon="11.6161069"><ele>232.0</ele><time>2026-05-03T11:44:53.717Z</time></trkpt><trkpt lat="43.433195" lon="11.6161462"><ele>234.0</ele><time>2026-05-03T11:44:54.701Z</time></trkpt><trkpt lat="43.4333876" lon="11.6162224"><ele>236.0</ele><time>2026-05-03T11:44:55.7Z</time></trkpt><trkpt lat="43.4335832" lon="11.6163312"><ele>238.0</ele><time>2026-05-03T11:44:56.689Z</time></trkpt><trkpt lat="43.4337833" lon="11.6164734"><ele>234.0</ele><time>2026-05-03T11:44:57.711Z</time></trkpt><trkpt lat="43.4339951" lon="11.6166258"><ele>230.0</ele><time>2026-05-03T11:44:58.697Z</time></trkpt><trkpt lat="43.4342182" lon="11.6167779"><ele>230.0</ele><time>2026-05-03T11:44:59.712Z</time></trkpt><trkpt lat="43.4344465" lon="11.6169327"><ele>230.0</ele><time>2026-05-03T11:45:00.694Z</time></trkpt><trkpt lat="43.434675" lon="11.61709"><ele>229.5</ele><time>2026-05-03T11:45:01.701Z</time></trkpt><trkpt lat="43.4349046" lon="11.6172517"><ele>229.0</ele><time>2026-05-03T11:45:02.694Z</time></trkpt><trkpt lat="43.4351402" lon="11.6174124"><ele>229.0</ele><time>2026-05-03T11:45:03.715Z</time></trkpt><trkpt lat="43.4353796" lon="11.617578"><ele>229.0</ele><time>2026-05-03T11:45:04.705Z</time></trkpt><trkpt lat="43.4356202" lon="11.6177434"><ele>230.5</ele><time>2026-05-03T11:45:05.708Z</time></trkpt><trkpt lat="43.4358624" lon="11.617908"><ele>232.0</ele><time>2026-05-03T11:45:06.704Z</time></trkpt><trkpt lat="43.436098" lon="11.618072"><ele>231.0</ele><time>2026-05-03T11:45:07.704Z</time></trkpt><trkpt lat="43.4363371" lon="11.6182408"><ele>230.0</ele><time>2026-05-03T11:45:08.701Z</time></trkpt><trkpt lat="43.4365732" lon="11.6184104"><ele>230.0</ele><time>2026-05-03T11:45:09.709Z</time></trkpt><trkpt lat="43.4368083" lon="11.6185748"><ele>230.0</ele><time>2026-05-03T11:45:10.702Z</time></trkpt><trkpt lat="43.4370417" lon="11.6187375"><ele>232.0</ele><time>2026-05-03T11:45:11.704Z</time></trkpt><trkpt lat="43.4372694" lon="11.6188965"><ele>234.0</ele><time>2026-05-03T11:45:12.694Z</time></trkpt><trkpt lat="43.4374879" lon="11.619048"><ele>234.0</ele><time>2026-05-03T11:45:13.703Z</time></trkpt><trkpt lat="43.4376962" lon="11.6191704"><ele>234.0</ele><time>2026-05-03T11:45:14.712Z</time></trkpt><trkpt lat="43.4379055" lon="11.6192492"><ele>234.0</ele><time>2026-05-03T11:45:15.705Z</time></trkpt><trkpt lat="43.438124" lon="11.6192874"><ele>234.0</ele><time>2026-05-03T11:45:16.701Z</time></trkpt><trkpt lat="43.4383533" lon="11.6192891"><ele>234.0</ele><time>2026-05-03T11:45:17.703Z</time></trkpt><trkpt lat="43.4385972" lon="11.6192751"><ele>235.5</ele><time>2026-05-03T11:45:18.701Z</time></trkpt><trkpt lat="43.4388387" lon="11.619244"><ele>237.0</ele><time>2026-05-03T11:45:19.709Z</time></trkpt><trkpt lat="43.4390662" lon="11.6192186"><ele>237.0</ele><time>2026-05-03T11:45:20.704Z</time></trkpt><trkpt lat="43.4392742" lon="11.6191946"><ele>237.0</ele><time>2026-05-03T11:45:21.711Z</time></trkpt><trkpt lat="43.4394632" lon="11.6191753"><ele>237.0</ele><time>2026-05-03T11:45:22.7Z</time></trkpt><trkpt lat="43.4396366" lon="11.6191595"><ele>237.0</ele><time>2026-05-03T11:45:23.705Z</time></trkpt><trkpt lat="43.4397966" lon="11.6191541"><ele>237.0</ele><time>2026-05-03T11:45:24.701Z</time></trkpt><trkpt lat="43.4399413" lon="11.6191898"><ele>237.0</ele><time>2026-05-03T11:45:25.706Z</time></trkpt><trkpt lat="43.4400616" lon="11.6192736"><ele>237.0</ele><time>2026-05-03T11:45:26.709Z</time></trkpt><trkpt lat="43.4401502" lon="11.6193981"><ele>237.5</ele><time>2026-05-03T11:45:27.712Z</time></trkpt><trkpt lat="43.4402111" lon="11.6195513"><ele>238.0</ele><time>2026-05-03T11:45:28.707Z</time></trkpt><trkpt lat="43.4402556" lon="11.6197161"><ele>238.5</ele><time>2026-05-03T11:45:29.708Z</time></trkpt><trkpt lat="43.4403015" lon="11.6198933"><ele>239.0</ele><time>2026-05-03T11:45:30.69Z</time></trkpt><trkpt lat="43.4403524" lon="11.6200753"><ele>239.0</ele><time>2026-05-03T11:45:31.704Z</time></trkpt><trkpt lat="43.4404031" lon="11.6202591"><ele>239.0</ele><time>2026-05-03T11:45:32.704Z</time></trkpt><trkpt lat="43.4404589" lon="11.6204386"><ele>239.0</ele><time>2026-05-03T11:45:33.698Z</time></trkpt><trkpt lat="43.4405067" lon="11.6206245"><ele>239.0</ele><time>2026-05-03T11:45:34.694Z</time></trkpt><trkpt lat="43.4405631" lon="11.6208097"><ele>238.75</ele><time>2026-05-03T11:45:35.715Z</time></trkpt><trkpt lat="43.4406325" lon="11.6209878"><ele>238.5</ele><time>2026-05-03T11:45:36.694Z</time></trkpt><trkpt lat="43.4407169" lon="11.6211534"><ele>238.25</ele><time>2026-05-03T11:45:37.701Z</time></trkpt><trkpt lat="43.4408141" lon="11.6213046"><ele>238.0</ele><time>2026-05-03T11:45:38.713Z</time></trkpt><trkpt lat="43.440915" lon="11.6214505"><ele>238.0</ele><time>2026-05-03T11:45:39.711Z</time></trkpt><trkpt lat="43.4410082" lon="11.6215888"><ele>238.0</ele><time>2026-05-03T11:45:40.714Z</time></trkpt><trkpt lat="43.4410986" lon="11.621721"><ele>238.0</ele><time>2026-05-03T11:45:41.709Z</time></trkpt><trkpt lat="43.4411907" lon="11.6218569"><ele>238.0</ele><time>2026-05-03T11:45:42.7Z</time></trkpt><trkpt lat="43.4412857" lon="11.6219903"><ele>236.75</ele><time>2026-05-03T11:45:43.716Z</time></trkpt><trkpt lat="43.4413842" lon="11.6221071"><ele>235.5</ele><time>2026-05-03T11:45:44.715Z</time></trkpt><trkpt lat="43.4415006" lon="11.6221972"><ele>234.25</ele><time>2026-05-03T11:45:45.709Z</time></trkpt><trkpt lat="43.4416312" lon="11.622241"><ele>233.0</ele><time>2026-05-03T11:45:46.704Z</time></trkpt><trkpt lat="43.4417709" lon="11.6222616"><ele>233.0</ele><time>2026-05-03T11:45:47.702Z</time></trkpt><trkpt lat="43.4419003" lon="11.6222733"><ele>233.0</ele><time>2026-05-03T11:45:48.709Z</time></trkpt><trkpt lat="43.4420153" lon="11.6222994"><ele>233.0</ele><time>2026-05-03T11:45:49.708Z</time></trkpt><trkpt lat="43.4421223" lon="11.6223486"><ele>233.0</ele><time>2026-05-03T11:45:50.709Z</time></trkpt><trkpt lat="43.4422205" lon="11.6224287"><ele>232.75</ele><time>2026-05-03T11:45:51.703Z</time></trkpt><trkpt lat="43.4423059" lon="11.6225324"><ele>232.5</ele><time>2026-05-03T11:45:52.703Z</time></trkpt><trkpt lat="43.4423879" lon="11.6226516"><ele>232.25</ele><time>2026-05-03T11:45:53.702Z</time></trkpt><trkpt lat="43.4424662" lon="11.622783"><ele>232.0</ele><time>2026-05-03T11:45:54.699Z</time></trkpt><trkpt lat="43.4425469" lon="11.622917"><ele>233.0</ele><time>2026-05-03T11:45:55.7Z</time></trkpt><trkpt lat="43.4426235" lon="11.6230613"><ele>234.0</ele><time>2026-05-03T11:45:56.688Z</time></trkpt><trkpt lat="43.4426995" lon="11.62321"><ele>235.0</ele><time>2026-05-03T11:45:57.723Z</time></trkpt><trkpt lat="43.4427895" lon="11.6233785"><ele>236.0</ele><time>2026-05-03T11:45:58.703Z</time></trkpt><trkpt lat="43.4428928" lon="11.6235682"><ele>235.33333333333334</ele><time>2026-05-03T11:45:59.71Z</time></trkpt><trkpt lat="43.4430051" lon="11.6237766"><ele>234.66666666666669</ele><time>2026-05-03T11:46:00.703Z</time></trkpt><trkpt lat="43.4431254" lon="11.623992"><ele>234.0</ele><time>2026-05-03T11:46:01.7Z</time></trkpt><trkpt lat="43.4432439" lon="11.624215"><ele>234.0</ele><time>2026-05-03T11:46:02.705Z</time></trkpt><trkpt lat="43.4433613" lon="11.6244393"><ele>234.0</ele><time>2026-05-03T11:46:03.7Z</time></trkpt><trkpt lat="43.4434722" lon="11.624669"><ele>234.0</ele><time>2026-05-03T11:46:04.698Z</time></trkpt><trkpt lat="43.4435745" lon="11.6249095"><ele>233.66666666666669</ele><time>2026-05-03T11:46:05.706Z</time></trkpt><trkpt lat="43.4436699" lon="11.6251442"><ele>233.33333333333334</ele><time>2026-05-03T11:46:06.692Z</time></trkpt><trkpt lat="43.4437627" lon="11.6253665"><ele>233.0</ele><time>2026-05-03T11:46:07.714Z</time></trkpt><trkpt lat="43.4438502" lon="11.6255911"><ele>233.0</ele><time>2026-05-03T11:46:08.707Z</time></trkpt><trkpt lat="43.4439379" lon="11.6258078"><ele>233.0</ele><time>2026-05-03T11:46:09.709Z</time></trkpt><trkpt lat="43.444027" lon="11.6260193"><ele>233.0</ele><time>2026-05-03T11:46:10.696Z</time></trkpt><trkpt lat="43.4441201" lon="11.6262363"><ele>232.33333333333334</ele><time>2026-05-03T11:46:11.707Z</time></trkpt><trkpt lat="43.4442135" lon="11.6264635"><ele>231.66666666666669</ele><time>2026-05-03T11:46:12.71Z</time></trkpt><trkpt lat="43.4443093" lon="11.6266913"><ele>231.0</ele><time>2026-05-03T11:46:13.698Z</time></trkpt><trkpt lat="43.4444052" lon="11.626923"><ele>231.33333333333331</ele><time>2026-05-03T11:46:14.71Z</time></trkpt><trkpt lat="43.4445023" lon="11.6271553"><ele>231.66666666666666</ele><time>2026-05-03T11:46:15.713Z</time></trkpt><trkpt lat="43.4445971" lon="11.6273948"><ele>232.0</ele><time>2026-05-03T11:46:16.7Z</time></trkpt><trkpt lat="43.4446698" lon="11.6276456"><ele>235.33333333333331</ele><time>2026-05-03T11:46:17.693Z</time></trkpt><trkpt lat="43.4447125" lon="11.6279082"><ele>238.66666666666669</ele><time>2026-05-03T11:46:18.707Z</time></trkpt><trkpt lat="43.4447196" lon="11.6281785"><ele>242.0</ele><time>2026-05-03T11:46:19.708Z</time></trkpt><trkpt lat="43.444693" lon="11.628432"><ele>240.33333333333334</ele><time>2026-05-03T11:46:20.695Z</time></trkpt><trkpt lat="43.4446258" lon="11.6286599"><ele>238.66666666666669</ele><time>2026-05-03T11:46:21.704Z</time></trkpt><trkpt lat="43.4445172" lon="11.628868"><ele>237.0</ele><time>2026-05-03T11:46:22.699Z</time></trkpt><trkpt lat="43.4443775" lon="11.6290458"><ele>237.0</ele><time>2026-05-03T11:46:23.702Z</time></trkpt><trkpt lat="43.4442225" lon="11.62921"><ele>237.0</ele><time>2026-05-03T11:46:24.683Z</time></trkpt><trkpt lat="43.4440605" lon="11.6293584"><ele>237.0</ele><time>2026-05-03T11:46:25.721Z</time></trkpt><trkpt lat="43.443905" lon="11.6294898"><ele>238.0</ele><time>2026-05-03T11:46:26.698Z</time></trkpt><trkpt lat="43.4437625" lon="11.6296166"><ele>239.0</ele><time>2026-05-03T11:46:27.698Z</time></trkpt><trkpt lat="43.4436286" lon="11.6297394"><ele>240.0</ele><time>2026-05-03T11:46:28.691Z</time></trkpt><trkpt lat="43.4434948" lon="11.6298618"><ele>240.0</ele><time>2026-05-03T11:46:29.707Z</time></trkpt><trkpt lat="43.4433594" lon="11.6299835"><ele>240.0</ele><time>2026-05-03T11:46:30.722Z</time></trkpt><trkpt lat="43.4432258" lon="11.630106"><ele>240.0</ele><time>2026-05-03T11:46:31.708Z</time></trkpt><trkpt lat="43.4430925" lon="11.6302329"><ele>238.66666666666669</ele><time>2026-05-03T11:46:32.698Z</time></trkpt><trkpt lat="43.4429548" lon="11.6303652"><ele>237.33333333333334</ele><time>2026-05-03T11:46:33.709Z</time></trkpt><trkpt lat="43.4428176" lon="11.6304993"><ele>236.0</ele><time>2026-05-03T11:46:34.697Z</time></trkpt><trkpt lat="43.4426846" lon="11.6306377"><ele>236.0</ele><time>2026-05-03T11:46:35.706Z</time></trkpt><trkpt lat="43.4425593" lon="11.6307978"><ele>236.0</ele><time>2026-05-03T11:46:36.69Z</time></trkpt><trkpt lat="43.4424641" lon="11.6309945"><ele>236.0</ele><time>2026-05-03T11:46:37.71Z</time></trkpt><trkpt lat="43.4423888" lon="11.6312098"><ele>236.0</ele><time>2026-05-03T11:46:38.697Z</time></trkpt><trkpt lat="43.4423291" lon="11.6314348"><ele>236.0</ele><time>2026-05-03T11:46:39.71Z</time></trkpt><trkpt lat="43.4422934" lon="11.6316612"><ele>236.0</ele><time>2026-05-03T11:46:40.711Z</time></trkpt><trkpt lat="43.4422788" lon="11.6318925"><ele>237.0</ele><time>2026-05-03T11:46:41.708Z</time></trkpt><trkpt lat="43.4422872" lon="11.6321241"><ele>238.0</ele><time>2026-05-03T11:46:42.7Z</time></trkpt><trkpt lat="43.4423147" lon="11.6323434"><ele>239.0</ele><time>2026-05-03T11:46:43.696Z</time></trkpt><trkpt lat="43.4423562" lon="11.6325588"><ele>239.0</ele><time>2026-05-03T11:46:44.706Z</time></trkpt><trkpt lat="43.4423992" lon="11.6327842"><ele>239.0</ele><time>2026-05-03T11:46:45.71Z</time></trkpt><trkpt lat="43.4424283" lon="11.6330195"><ele>239.0</ele><time>2026-05-03T11:46:46.692Z</time></trkpt><trkpt lat="43.4424341" lon="11.6332551"><ele>239.0</ele><time>2026-05-03T11:46:47.705Z</time></trkpt><trkpt lat="43.4424055" lon="11.6334929"><ele>239.0</ele><time>2026-05-03T11:46:48.695Z</time></trkpt><trkpt lat="43.4423421" lon="11.6337239"><ele>239.0</ele><time>2026-05-03T11:46:49.706Z</time></trkpt><trkpt lat="43.4422457" lon="11.6339351"><ele>239.0</ele><time>2026-05-03T11:46:50.699Z</time></trkpt><trkpt lat="43.4421282" lon="11.6341082"><ele>239.0</ele><time>2026-05-03T11:46:51.711Z</time></trkpt><trkpt lat="43.4419958" lon="11.6342404"><ele>239.0</ele><time>2026-05-03T11:46:52.703Z</time></trkpt><trkpt lat="43.4418455" lon="11.6343475"><ele>239.0</ele><time>2026-05-03T11:46:53.705Z</time></trkpt><trkpt lat="43.4416905" lon="11.6344398"><ele>239.0</ele><time>2026-05-03T11:46:54.701Z</time></trkpt><trkpt lat="43.4415341" lon="11.6345439"><ele>239.0</ele><time>2026-05-03T11:46:55.698Z</time></trkpt><trkpt lat="43.4413743" lon="11.6346695"><ele>241.33333333333334</ele><time>2026-05-03T11:46:56.69Z</time></trkpt><trkpt lat="43.4412191" lon="11.6348107"><ele>243.66666666666669</ele><time>2026-05-03T11:46:57.713Z</time></trkpt><trkpt lat="43.4410722" lon="11.6349635"><ele>246.0</ele><time>2026-05-03T11:46:58.71Z</time></trkpt><trkpt lat="43.4409339" lon="11.6351217"><ele>246.0</ele><time>2026-05-03T11:46:59.713Z</time></trkpt><trkpt lat="43.4408015" lon="11.6352901"><ele>246.0</ele><time>2026-05-03T11:47:00.686Z</time></trkpt><trkpt lat="43.4406668" lon="11.6354656"><ele>246.0</ele><time>2026-05-03T11:47:01.713Z</time></trkpt><trkpt lat="43.4405353" lon="11.6356555"><ele>246.66666666666669</ele><time>2026-05-03T11:47:02.71Z</time></trkpt><trkpt lat="43.4403982" lon="11.6358723"><ele>247.33333333333334</ele><time>2026-05-03T11:47:03.712Z</time></trkpt><trkpt lat="43.4402573" lon="11.6360919"><ele>248.0</ele><time>2026-05-03T11:47:04.709Z</time></trkpt><trkpt lat="43.4401129" lon="11.6363172"><ele>246.33333333333334</ele><time>2026-05-03T11:47:05.712Z</time></trkpt><trkpt lat="43.4399656" lon="11.6365433"><ele>244.66666666666669</ele><time>2026-05-03T11:47:06.696Z</time></trkpt><trkpt lat="43.4398213" lon="11.6367553"><ele>243.0</ele><time>2026-05-03T11:47:07.702Z</time></trkpt><trkpt lat="43.4396789" lon="11.6369625"><ele>244.0</ele><time>2026-05-03T11:47:08.711Z</time></trkpt><trkpt lat="43.4395382" lon="11.6371719"><ele>245.0</ele><time>2026-05-03T11:47:09.701Z</time></trkpt><trkpt lat="43.4393985" lon="11.6373833"><ele>246.0</ele><time>2026-05-03T11:47:10.705Z</time></trkpt><trkpt lat="43.439263" lon="11.6376014"><ele>245.0</ele><time>2026-05-03T11:47:11.699Z</time></trkpt><trkpt lat="43.4391374" lon="11.6378332"><ele>244.0</ele><time>2026-05-03T11:47:12.702Z</time></trkpt><trkpt lat="43.4390253" lon="11.6380835"><ele>243.0</ele><time>2026-05-03T11:47:13.708Z</time></trkpt><trkpt lat="43.4389294" lon="11.6383637"><ele>242.5</ele><time>2026-05-03T11:47:14.705Z</time></trkpt><trkpt lat="43.4388457" lon="11.6386789"><ele>242.0</ele><time>2026-05-03T11:47:15.712Z</time></trkpt><trkpt lat="43.4387695" lon="11.6390323"><ele>245.0</ele><time>2026-05-03T11:47:16.693Z</time></trkpt><trkpt lat="43.4386789" lon="11.6394135"><ele>248.0</ele><time>2026-05-03T11:47:17.714Z</time></trkpt><trkpt lat="43.4385744" lon="11.6398241"><ele>248.0</ele><time>2026-05-03T11:47:18.695Z</time></trkpt><trkpt lat="43.4384615" lon="11.6402467"><ele>248.0</ele><time>2026-05-03T11:47:19.702Z</time></trkpt><trkpt lat="43.4383436" lon="11.640643"><ele>247.0</ele><time>2026-05-03T11:47:20.71Z</time></trkpt><trkpt lat="43.4382373" lon="11.6410138"><ele>246.0</ele><time>2026-05-03T11:47:21.73Z</time></trkpt><trkpt lat="43.438141" lon="11.6413659"><ele>245.5</ele><time>2026-05-03T11:47:22.696Z</time></trkpt><trkpt lat="43.4380468" lon="11.6417116"><ele>245.0</ele><time>2026-05-03T11:47:23.706Z</time></trkpt><trkpt lat="43.437964" lon="11.6420423"><ele>248.5</ele><time>2026-05-03T11:47:24.705Z</time></trkpt><trkpt lat="43.4378831" lon="11.6423607"><ele>252.0</ele><time>2026-05-03T11:47:25.699Z</time></trkpt><trkpt lat="43.4378059" lon="11.6426746"><ele>250.5</ele><time>2026-05-03T11:47:26.695Z</time></trkpt><trkpt lat="43.4377345" lon="11.6429784"><ele>249.0</ele><time>2026-05-03T11:47:27.712Z</time></trkpt><trkpt lat="43.4376822" lon="11.6432807"><ele>249.0</ele><time>2026-05-03T11:47:28.7Z</time></trkpt><trkpt lat="43.4376529" lon="11.6435884"><ele>249.0</ele><time>2026-05-03T11:47:29.702Z</time></trkpt><trkpt lat="43.4376425" lon="11.6439033"><ele>251.5</ele><time>2026-05-03T11:47:30.694Z</time></trkpt><trkpt lat="43.4376566" lon="11.6442335"><ele>254.0</ele><time>2026-05-03T11:47:31.705Z</time></trkpt><trkpt lat="43.4376942" lon="11.6445685"><ele>255.5</ele><time>2026-05-03T11:47:32.687Z</time></trkpt><trkpt lat="43.4377536" lon="11.6448929"><ele>257.0</ele><time>2026-05-03T11:47:33.714Z</time></trkpt><trkpt lat="43.4378107" lon="11.6452066"><ele>257.0</ele><time>2026-05-03T11:47:34.715Z</time></trkpt><trkpt lat="43.4378559" lon="11.6455106"><ele>257.0</ele><time>2026-05-03T11:47:35.708Z</time></trkpt><trkpt lat="43.4378767" lon="11.6457994"><ele>257.0</ele><time>2026-05-03T11:47:36.707Z</time></trkpt><trkpt lat="43.4378663" lon="11.6460958"><ele>256.6666666666667</ele><time>2026-05-03T11:47:37.702Z</time></trkpt><trkpt lat="43.4378425" lon="11.646396"><ele>256.3333333333333</ele><time>2026-05-03T11:47:38.698Z</time></trkpt><trkpt lat="43.4377995" lon="11.6467056"><ele>256.0</ele><time>2026-05-03T11:47:39.709Z</time></trkpt><trkpt lat="43.4377348" lon="11.6470111"><ele>257.0</ele><time>2026-05-03T11:47:40.708Z</time></trkpt><trkpt lat="43.4376432" lon="11.6473146"><ele>258.0</ele><time>2026-05-03T11:47:41.706Z</time></trkpt><trkpt lat="43.4375292" lon="11.6476117"><ele>257.5</ele><time>2026-05-03T11:47:42.706Z</time></trkpt><trkpt lat="43.4374169" lon="11.6479045"><ele>257.0</ele><time>2026-05-03T11:47:43.703Z</time></trkpt><trkpt lat="43.4373078" lon="11.6481962"><ele>257.0</ele><time>2026-05-03T11:47:44.696Z</time></trkpt><trkpt lat="43.4371937" lon="11.6484828"><ele>257.0</ele><time>2026-05-03T11:47:45.711Z</time></trkpt><trkpt lat="43.437088" lon="11.6487642"><ele>259.5</ele><time>2026-05-03T11:47:46.708Z</time></trkpt><trkpt lat="43.4369802" lon="11.6490456"><ele>262.0</ele><time>2026-05-03T11:47:47.705Z</time></trkpt><trkpt lat="43.4368727" lon="11.649328"><ele>264.5</ele><time>2026-05-03T11:47:48.703Z</time></trkpt><trkpt lat="43.4367654" lon="11.6496067"><ele>267.0</ele><time>2026-05-03T11:47:49.715Z</time></trkpt><trkpt lat="43.4366586" lon="11.6498822"><ele>267.0</ele><time>2026-05-03T11:47:50.713Z</time></trkpt><trkpt lat="43.4365537" lon="11.6501585"><ele>267.0</ele><time>2026-05-03T11:47:51.713Z</time></trkpt><trkpt lat="43.4364541" lon="11.6504318"><ele>267.0</ele><time>2026-05-03T11:47:52.687Z</time></trkpt><trkpt lat="43.4363554" lon="11.6506981"><ele>269.3333333333333</ele><time>2026-05-03T11:47:53.706Z</time></trkpt><trkpt lat="43.4362695" lon="11.6509642"><ele>271.66666666666663</ele><time>2026-05-03T11:47:54.702Z</time></trkpt><trkpt lat="43.4361954" lon="11.6512357"><ele>274.0</ele><time>2026-05-03T11:47:55.704Z</time></trkpt><trkpt lat="43.436131" lon="11.6515032"><ele>274.0</ele><time>2026-05-03T11:47:56.683Z</time></trkpt><trkpt lat="43.4360735" lon="11.6517737"><ele>274.0</ele><time>2026-05-03T11:47:57.709Z</time></trkpt><trkpt lat="43.4360196" lon="11.65205"><ele>274.0</ele><time>2026-05-03T11:47:58.712Z</time></trkpt><trkpt lat="43.43597" lon="11.6523267"><ele>273.0</ele><time>2026-05-03T11:47:59.709Z</time></trkpt><trkpt lat="43.4359245" lon="11.6526091"><ele>272.0</ele><time>2026-05-03T11:48:00.704Z</time></trkpt><trkpt lat="43.4358813" lon="11.6529036"><ele>271.0</ele><time>2026-05-03T11:48:01.697Z</time></trkpt><trkpt lat="43.4358373" lon="11.6532058"><ele>270.0</ele><time>2026-05-03T11:48:02.704Z</time></trkpt><trkpt lat="43.4357953" lon="11.6535108"><ele>269.0</ele><time>2026-05-03T11:48:03.711Z</time></trkpt><trkpt lat="43.4357491" lon="11.6538206"><ele>268.33333333333337</ele><time>2026-05-03T11:48:04.706Z</time></trkpt><trkpt lat="43.4356999" lon="11.6541139"><ele>267.6666666666667</ele><time>2026-05-03T11:48:05.688Z</time></trkpt><trkpt lat="43.4356377" lon="11.6544105"><ele>267.0</ele><time>2026-05-03T11:48:06.704Z</time></trkpt><trkpt lat="43.4355782" lon="11.6547121"><ele>264.5</ele><time>2026-05-03T11:48:07.725Z</time></trkpt><trkpt lat="43.4355186" lon="11.6550149"><ele>262.0</ele><time>2026-05-03T11:48:08.715Z</time></trkpt><trkpt lat="43.4354548" lon="11.6553161"><ele>262.0</ele><time>2026-05-03T11:48:09.698Z</time></trkpt><trkpt lat="43.4353887" lon="11.6556174"><ele>262.0</ele><time>2026-05-03T11:48:10.701Z</time></trkpt><trkpt lat="43.4353229" lon="11.6559196"><ele>260.3333333333333</ele><time>2026-05-03T11:48:11.713Z</time></trkpt><trkpt lat="43.4352569" lon="11.6562141"><ele>258.6666666666667</ele><time>2026-05-03T11:48:12.703Z</time></trkpt><trkpt lat="43.4351915" lon="11.6565037"><ele>257.0</ele><time>2026-05-03T11:48:13.704Z</time></trkpt><trkpt lat="43.4351324" lon="11.6567798"><ele>256.33333333333337</ele><time>2026-05-03T11:48:14.694Z</time></trkpt><trkpt lat="43.4350891" lon="11.6570524"><ele>255.66666666666669</ele><time>2026-05-03T11:48:15.704Z</time></trkpt><trkpt lat="43.4350704" lon="11.6573147"><ele>255.0</ele><time>2026-05-03T11:48:16.702Z</time></trkpt><trkpt lat="43.4350754" lon="11.6575763"><ele>254.33333333333331</ele><time>2026-05-03T11:48:17.702Z</time></trkpt><trkpt lat="43.4351106" lon="11.657843"><ele>253.66666666666666</ele><time>2026-05-03T11:48:18.707Z</time></trkpt><trkpt lat="43.4351743" lon="11.6580952"><ele>253.0</ele><time>2026-05-03T11:48:19.716Z</time></trkpt><trkpt lat="43.435268" lon="11.6583321"><ele>253.0</ele><time>2026-05-03T11:48:20.7Z</time></trkpt><trkpt lat="43.4353941" lon="11.6585545"><ele>253.0</ele><time>2026-05-03T11:48:21.713Z</time></trkpt><trkpt lat="43.4355384" lon="11.6587441"><ele>253.0</ele><time>2026-05-03T11:48:22.703Z</time></trkpt><trkpt lat="43.4356874" lon="11.6588951"><ele>253.25</ele><time>2026-05-03T11:48:23.704Z</time></trkpt><trkpt lat="43.4358276" lon="11.6590164"><ele>253.5</ele><time>2026-05-03T11:48:24.706Z</time></trkpt><trkpt lat="43.4359513" lon="11.6591046"><ele>253.75</ele><time>2026-05-03T11:48:25.706Z</time></trkpt><trkpt lat="43.4360535" lon="11.6591825"><ele>254.0</ele><time>2026-05-03T11:48:26.687Z</time></trkpt><trkpt lat="43.4361242" lon="11.6592721"><ele>254.0</ele><time>2026-05-03T11:48:27.703Z</time></trkpt><trkpt lat="43.4361557" lon="11.6593865"><ele>253.99999999999997</ele><time>2026-05-03T11:48:28.711Z</time></trkpt><trkpt lat="43.4361383" lon="11.659494"><ele>253.99999999999997</ele><time>2026-05-03T11:48:29.712Z</time></trkpt><trkpt lat="43.4360755" lon="11.6595746"><ele>254.0</ele><time>2026-05-03T11:48:30.699Z</time></trkpt><trkpt lat="43.4359717" lon="11.6596322"><ele>254.0</ele><time>2026-05-03T11:48:31.713Z</time></trkpt><trkpt lat="43.4358406" lon="11.6596771"><ele>253.66666666666669</ele><time>2026-05-03T11:48:32.694Z</time></trkpt><trkpt lat="43.4356787" lon="11.6597208"><ele>253.33333333333331</ele><time>2026-05-03T11:48:33.71Z</time></trkpt><trkpt lat="43.4354973" lon="11.6597845"><ele>253.0</ele><time>2026-05-03T11:48:34.703Z</time></trkpt><trkpt lat="43.4353018" lon="11.6598527"><ele>253.66666666666666</ele><time>2026-05-03T11:48:35.695Z</time></trkpt><trkpt lat="43.4351049" lon="11.6599286"><ele>254.33333333333331</ele><time>2026-05-03T11:48:36.708Z</time></trkpt><trkpt lat="43.4349116" lon="11.6600085"><ele>255.0</ele><time>2026-05-03T11:48:37.712Z</time></trkpt><trkpt lat="43.4347173" lon="11.6600902"><ele>254.66666666666669</ele><time>2026-05-03T11:48:38.696Z</time></trkpt><trkpt lat="43.4345214" lon="11.660171"><ele>254.33333333333334</ele><time>2026-05-03T11:48:39.709Z</time></trkpt><trkpt lat="43.4343206" lon="11.6602516"><ele>254.0</ele><time>2026-05-03T11:48:40.702Z</time></trkpt><trkpt lat="43.4341163" lon="11.6603355"><ele>255.0</ele><time>2026-05-03T11:48:41.706Z</time></trkpt><trkpt lat="43.4339051" lon="11.660418"><ele>256.0</ele><time>2026-05-03T11:48:42.691Z</time></trkpt><trkpt lat="43.4336883" lon="11.6604963"><ele>257.0</ele><time>2026-05-03T11:48:43.71Z</time></trkpt><trkpt lat="43.4334674" lon="11.6605715"><ele>257.0</ele><time>2026-05-03T11:48:44.711Z</time></trkpt><trkpt lat="43.4332421" lon="11.660644"><ele>257.0</ele><time>2026-05-03T11:48:45.71Z</time></trkpt><trkpt lat="43.4330137" lon="11.6607207"><ele>256.5</ele><time>2026-05-03T11:48:46.695Z</time></trkpt><trkpt lat="43.4327911" lon="11.6607962"><ele>256.0</ele><time>2026-05-03T11:48:47.707Z</time></trkpt><trkpt lat="43.4325679" lon="11.6608692"><ele>256.0</ele><time>2026-05-03T11:48:48.696Z</time></trkpt><trkpt lat="43.43234" lon="11.6609366"><ele>256.0</ele><time>2026-05-03T11:48:49.699Z</time></trkpt><trkpt lat="43.4321136" lon="11.6609852"><ele>256.5</ele><time>2026-05-03T11:48:50.702Z</time></trkpt><trkpt lat="43.4318793" lon="11.661022"><ele>257.0</ele><time>2026-05-03T11:48:51.693Z</time></trkpt><trkpt lat="43.4316406" lon="11.6610516"><ele>257.0</ele><time>2026-05-03T11:48:52.697Z</time></trkpt><trkpt lat="43.4314045" lon="11.6610827"><ele>257.0</ele><time>2026-05-03T11:48:53.696Z</time></trkpt><trkpt lat="43.4311698" lon="11.6611103"><ele>257.5</ele><time>2026-05-03T11:48:54.688Z</time></trkpt><trkpt lat="43.4309392" lon="11.6611396"><ele>258.0</ele><time>2026-05-03T11:48:55.708Z</time></trkpt><trkpt lat="43.430718" lon="11.6611761"><ele>258.0</ele><time>2026-05-03T11:48:56.701Z</time></trkpt><trkpt lat="43.4305116" lon="11.6612249"><ele>258.0</ele><time>2026-05-03T11:48:57.701Z</time></trkpt><trkpt lat="43.4303305" lon="11.661286"><ele>258.0</ele><time>2026-05-03T11:48:58.7Z</time></trkpt><trkpt lat="43.4301661" lon="11.6613717"><ele>257.6666666666667</ele><time>2026-05-03T11:48:59.705Z</time></trkpt><trkpt lat="43.4300083" lon="11.6614922"><ele>257.33333333333337</ele><time>2026-05-03T11:49:00.701Z</time></trkpt><trkpt lat="43.4298467" lon="11.6616484"><ele>257.0</ele><time>2026-05-03T11:49:01.713Z</time></trkpt><trkpt lat="43.4296801" lon="11.6618227"><ele>257.33333333333337</ele><time>2026-05-03T11:49:02.699Z</time></trkpt><trkpt lat="43.4295094" lon="11.6619919"><ele>257.6666666666667</ele><time>2026-05-03T11:49:03.707Z</time></trkpt><trkpt lat="43.4293369" lon="11.6621606"><ele>258.0</ele><time>2026-05-03T11:49:04.719Z</time></trkpt><trkpt lat="43.4291556" lon="11.6623213"><ele>258.0</ele><time>2026-05-03T11:49:05.714Z</time></trkpt><trkpt lat="43.4289665" lon="11.6624762"><ele>258.0</ele><time>2026-05-03T11:49:06.702Z</time></trkpt><trkpt lat="43.4287638" lon="11.6626182"><ele>258.0</ele><time>2026-05-03T11:49:07.707Z</time></trkpt><trkpt lat="43.428548" lon="11.6627499"><ele>259.0</ele><time>2026-05-03T11:49:08.708Z</time></trkpt><trkpt lat="43.4283281" lon="11.662882"><ele>260.0</ele><time>2026-05-03T11:49:09.712Z</time></trkpt><trkpt lat="43.4281086" lon="11.6630242"><ele>260.5</ele><time>2026-05-03T11:49:10.703Z</time></trkpt><trkpt lat="43.4278853" lon="11.6631686"><ele>261.0</ele><time>2026-05-03T11:49:11.707Z</time></trkpt><trkpt lat="43.4276548" lon="11.6633166"><ele>261.0</ele><time>2026-05-03T11:49:12.696Z</time></trkpt><trkpt lat="43.427425" lon="11.6634664"><ele>261.0</ele><time>2026-05-03T11:49:13.721Z</time></trkpt><trkpt lat="43.4271862" lon="11.663624"><ele>263.0</ele><time>2026-05-03T11:49:14.699Z</time></trkpt><trkpt lat="43.4269436" lon="11.6637851"><ele>265.0</ele><time>2026-05-03T11:49:15.709Z</time></trkpt><trkpt lat="43.4267014" lon="11.6639426"><ele>265.0</ele><time>2026-05-03T11:49:16.686Z</time></trkpt><trkpt lat="43.4264598" lon="11.664084"><ele>265.0</ele><time>2026-05-03T11:49:17.712Z</time></trkpt><trkpt lat="43.4262082" lon="11.6641995"><ele>265.0</ele><time>2026-05-03T11:49:18.702Z</time></trkpt><trkpt lat="43.4259557" lon="11.6642958"><ele>265.0</ele><time>2026-05-03T11:49:19.701Z</time></trkpt><trkpt lat="43.4257052" lon="11.6643767"><ele>267.0</ele><time>2026-05-03T11:49:20.699Z</time></trkpt><trkpt lat="43.4254563" lon="11.6644596"><ele>269.0</ele><time>2026-05-03T11:49:21.713Z</time></trkpt><trkpt lat="43.4252145" lon="11.6645393"><ele>269.0</ele><time>2026-05-03T11:49:22.709Z</time></trkpt><trkpt lat="43.4249888" lon="11.6646149"><ele>269.0</ele><time>2026-05-03T11:49:23.709Z</time></trkpt><trkpt lat="43.4247727" lon="11.6646882"><ele>268.33333333333337</ele><time>2026-05-03T11:49:24.697Z</time></trkpt><trkpt lat="43.4245733" lon="11.6647604"><ele>267.6666666666667</ele><time>2026-05-03T11:49:25.714Z</time></trkpt><trkpt lat="43.4243868" lon="11.6648371"><ele>267.0</ele><time>2026-05-03T11:49:26.699Z</time></trkpt><trkpt lat="43.4242169" lon="11.6649462"><ele>267.0</ele><time>2026-05-03T11:49:27.703Z</time></trkpt><trkpt lat="43.4240479" lon="11.6651052"><ele>267.0</ele><time>2026-05-03T11:49:28.709Z</time></trkpt><trkpt lat="43.4238814" lon="11.6653205"><ele>267.0</ele><time>2026-05-03T11:49:29.714Z</time></trkpt><trkpt lat="43.4237206" lon="11.6655678"><ele>269.0</ele><time>2026-05-03T11:49:30.708Z</time></trkpt><trkpt lat="43.4235577" lon="11.6658354"><ele>271.0</ele><time>2026-05-03T11:49:31.7Z</time></trkpt><trkpt lat="43.4234029" lon="11.6661217"><ele>273.0</ele><time>2026-05-03T11:49:32.704Z</time></trkpt><trkpt lat="43.423258" lon="11.6664218"><ele>275.0</ele><time>2026-05-03T11:49:33.702Z</time></trkpt><trkpt lat="43.4231225" lon="11.6667188"><ele>274.5</ele><time>2026-05-03T11:49:34.709Z</time></trkpt><trkpt lat="43.4229883" lon="11.6670074"><ele>274.0</ele><time>2026-05-03T11:49:35.702Z</time></trkpt><trkpt lat="43.4228592" lon="11.6672832"><ele>274.0</ele><time>2026-05-03T11:49:36.688Z</time></trkpt><trkpt lat="43.4227354" lon="11.6675526"><ele>274.0</ele><time>2026-05-03T11:49:37.714Z</time></trkpt><trkpt lat="43.4226171" lon="11.6678038"><ele>274.0</ele><time>2026-05-03T11:49:38.697Z</time></trkpt><trkpt lat="43.4225015" lon="11.668052"><ele>275.66666666666663</ele><time>2026-05-03T11:49:39.708Z</time></trkpt><trkpt lat="43.4223949" lon="11.6683054"><ele>277.3333333333333</ele><time>2026-05-03T11:49:40.699Z</time></trkpt><trkpt lat="43.422299" lon="11.6685829"><ele>279.0</ele><time>2026-05-03T11:49:41.706Z</time></trkpt><trkpt lat="43.4222187" lon="11.6688642"><ele>279.3333333333333</ele><time>2026-05-03T11:49:42.706Z</time></trkpt><trkpt lat="43.4221532" lon="11.6691537"><ele>279.66666666666663</ele><time>2026-05-03T11:49:43.7Z</time></trkpt><trkpt lat="43.4221097" lon="11.6694453"><ele>280.0</ele><time>2026-05-03T11:49:44.698Z</time></trkpt><trkpt lat="43.4221078" lon="11.6697432"><ele>279.0</ele><time>2026-05-03T11:49:45.695Z</time></trkpt><trkpt lat="43.4220962" lon="11.6700426"><ele>278.0</ele><time>2026-05-03T11:49:46.707Z</time></trkpt><trkpt lat="43.4220498" lon="11.6703396"><ele>277.0</ele><time>2026-05-03T11:49:47.707Z</time></trkpt><trkpt lat="43.4219882" lon="11.670627"><ele>277.0</ele><time>2026-05-03T11:49:48.698Z</time></trkpt><trkpt lat="43.4219075" lon="11.6709018"><ele>277.0</ele><time>2026-05-03T11:49:49.7Z</time></trkpt><trkpt lat="43.4218012" lon="11.6711752"><ele>277.0</ele><time>2026-05-03T11:49:50.695Z</time></trkpt><trkpt lat="43.4216922" lon="11.6714553"><ele>278.66666666666663</ele><time>2026-05-03T11:49:51.703Z</time></trkpt><trkpt lat="43.4215858" lon="11.6717302"><ele>280.3333333333333</ele><time>2026-05-03T11:49:52.702Z</time></trkpt><trkpt lat="43.4214827" lon="11.6720007"><ele>282.0</ele><time>2026-05-03T11:49:53.707Z</time></trkpt><trkpt lat="43.4213907" lon="11.6722573"><ele>281.6666666666667</ele><time>2026-05-03T11:49:54.71Z</time></trkpt><trkpt lat="43.4213104" lon="11.6725047"><ele>281.33333333333337</ele><time>2026-05-03T11:49:55.708Z</time></trkpt><trkpt lat="43.421249" lon="11.6727515"><ele>281.0</ele><time>2026-05-03T11:49:56.703Z</time></trkpt><trkpt lat="43.4212154" lon="11.6729897"><ele>281.0</ele><time>2026-05-03T11:49:57.708Z</time></trkpt><trkpt lat="43.4212167" lon="11.6732416"><ele>281.0</ele><time>2026-05-03T11:49:58.694Z</time></trkpt><trkpt lat="43.4212712" lon="11.6735313"><ele>281.0</ele><time>2026-05-03T11:49:59.703Z</time></trkpt><trkpt lat="43.4213469" lon="11.6738297"><ele>283.5</ele><time>2026-05-03T11:50:00.693Z</time></trkpt><trkpt lat="43.4214261" lon="11.6741446"><ele>286.0</ele><time>2026-05-03T11:50:01.711Z</time></trkpt><trkpt lat="43.4214967" lon="11.6744689"><ele>286.0</ele><time>2026-05-03T11:50:02.693Z</time></trkpt><trkpt lat="43.4215624" lon="11.6747944"><ele>286.0</ele><time>2026-05-03T11:50:03.717Z</time></trkpt><trkpt lat="43.4216168" lon="11.6751258"><ele>286.0</ele><time>2026-05-03T11:50:04.696Z</time></trkpt><trkpt lat="43.4216585" lon="11.6754532"><ele>286.0</ele><time>2026-05-03T11:50:05.72Z</time></trkpt><trkpt lat="43.4216919" lon="11.6757894"><ele>284.5</ele><time>2026-05-03T11:50:06.687Z</time></trkpt><trkpt lat="43.4217238" lon="11.6761225"><ele>283.0</ele><time>2026-05-03T11:50:07.706Z</time></trkpt><trkpt lat="43.4217575" lon="11.6764415"><ele>283.0</ele><time>2026-05-03T11:50:08.704Z</time></trkpt><trkpt lat="43.4217917" lon="11.6767538"><ele>283.0</ele><time>2026-05-03T11:50:09.707Z</time></trkpt><trkpt lat="43.4218194" lon="11.6770622"><ele>283.66666666666663</ele><time>2026-05-03T11:50:10.698Z</time></trkpt><trkpt lat="43.4218484" lon="11.6773685"><ele>284.3333333333333</ele><time>2026-05-03T11:50:11.703Z</time></trkpt><trkpt lat="43.4218722" lon="11.6776705"><ele>285.0</ele><time>2026-05-03T11:50:12.696Z</time></trkpt><trkpt lat="43.4218951" lon="11.6779689"><ele>285.6666666666667</ele><time>2026-05-03T11:50:13.701Z</time></trkpt><trkpt lat="43.4219056" lon="11.6782639"><ele>286.33333333333337</ele><time>2026-05-03T11:50:14.699Z</time></trkpt><trkpt lat="43.4219201" lon="11.6785618"><ele>287.0</ele><time>2026-05-03T11:50:15.702Z</time></trkpt><trkpt lat="43.4219329" lon="11.6788612"><ele>287.33333333333337</ele><time>2026-05-03T11:50:16.693Z</time></trkpt><trkpt lat="43.4219461" lon="11.6791539"><ele>287.6666666666667</ele><time>2026-05-03T11:50:17.707Z</time></trkpt><trkpt lat="43.4219613" lon="11.6794346"><ele>288.0</ele><time>2026-05-03T11:50:18.701Z</time></trkpt><trkpt lat="43.4220055" lon="11.6796999"><ele>288.0</ele><time>2026-05-03T11:50:19.704Z</time></trkpt><trkpt lat="43.4220819" lon="11.6799681"><ele>288.0</ele><time>2026-05-03T11:50:20.696Z</time></trkpt><trkpt lat="43.4221982" lon="11.6802312"><ele>288.0</ele><time>2026-05-03T11:50:21.703Z</time></trkpt><trkpt lat="43.4223458" lon="11.6804945"><ele>289.5</ele><time>2026-05-03T11:50:22.694Z</time></trkpt><trkpt lat="43.4225055" lon="11.6807442"><ele>291.0</ele><time>2026-05-03T11:50:23.714Z</time></trkpt><trkpt lat="43.422658" lon="11.6810037"><ele>291.0</ele><time>2026-05-03T11:50:24.708Z</time></trkpt><trkpt lat="43.4228001" lon="11.6812674"><ele>291.0</ele><time>2026-05-03T11:50:25.714Z</time></trkpt><trkpt lat="43.4229306" lon="11.6815345"><ele>292.0</ele><time>2026-05-03T11:50:26.684Z</time></trkpt><trkpt lat="43.4230595" lon="11.681801"><ele>293.0</ele><time>2026-05-03T11:50:27.704Z</time></trkpt><trkpt lat="43.4231793" lon="11.6820689"><ele>293.0</ele><time>2026-05-03T11:50:28.698Z</time></trkpt><trkpt lat="43.4232828" lon="11.6823454"><ele>293.0</ele><time>2026-05-03T11:50:29.693Z</time></trkpt><trkpt lat="43.4233791" lon="11.6826231"><ele>293.0</ele><time>2026-05-03T11:50:30.702Z</time></trkpt><trkpt lat="43.4234649" lon="11.6828996"><ele>293.0</ele><time>2026-05-03T11:50:31.707Z</time></trkpt><trkpt lat="43.4235269" lon="11.6831771"><ele>293.0</ele><time>2026-05-03T11:50:32.692Z</time></trkpt><trkpt lat="43.4235653" lon="11.683457"><ele>293.0</ele><time>2026-05-03T11:50:33.715Z</time></trkpt><trkpt lat="43.423585" lon="11.6837324"><ele>293.0</ele><time>2026-05-03T11:50:34.7Z</time></trkpt><trkpt lat="43.4235948" lon="11.6839971"><ele>293.0</ele><time>2026-05-03T11:50:35.705Z</time></trkpt><trkpt lat="43.423625" lon="11.6842644"><ele>293.0</ele><time>2026-05-03T11:50:36.69Z</time></trkpt><trkpt lat="43.4236842" lon="11.6845366"><ele>293.6666666666667</ele><time>2026-05-03T11:50:37.693Z</time></trkpt><trkpt lat="43.423767" lon="11.6848157"><ele>294.3333333333333</ele><time>2026-05-03T11:50:38.687Z</time></trkpt><trkpt lat="43.4238539" lon="11.6851043"><ele>295.0</ele><time>2026-05-03T11:50:39.71Z</time></trkpt><trkpt lat="43.4239429" lon="11.685409"><ele>297.5</ele><time>2026-05-03T11:50:40.703Z</time></trkpt><trkpt lat="43.4240367" lon="11.6857217"><ele>300.0</ele><time>2026-05-03T11:50:41.707Z</time></trkpt><trkpt lat="43.4241317" lon="11.6860391"><ele>300.0</ele><time>2026-05-03T11:50:42.696Z</time></trkpt><trkpt lat="43.42423" lon="11.6863517"><ele>300.0</ele><time>2026-05-03T11:50:43.705Z</time></trkpt><trkpt lat="43.4243233" lon="11.686664"><ele>299.6666666666667</ele><time>2026-05-03T11:50:44.685Z</time></trkpt><trkpt lat="43.4244164" lon="11.6869565"><ele>299.33333333333337</ele><time>2026-05-03T11:50:45.714Z</time></trkpt><trkpt lat="43.4244967" lon="11.6872239"><ele>299.0</ele><time>2026-05-03T11:50:46.691Z</time></trkpt><trkpt lat="43.4245543" lon="11.6874857"><ele>299.0</ele><time>2026-05-03T11:50:47.701Z</time></trkpt><trkpt lat="43.4245817" lon="11.6877462"><ele>299.0</ele><time>2026-05-03T11:50:48.702Z</time></trkpt><trkpt lat="43.4245734" lon="11.6880117"><ele>299.0</ele><time>2026-05-03T11:50:49.705Z</time></trkpt><trkpt lat="43.4245348" lon="11.6882728"><ele>299.6666666666667</ele><time>2026-05-03T11:50:50.688Z</time></trkpt><trkpt lat="43.4244635" lon="11.6885175"><ele>300.3333333333333</ele><time>2026-05-03T11:50:51.705Z</time></trkpt><trkpt lat="43.4243924" lon="11.688772"><ele>301.0</ele><time>2026-05-03T11:50:52.691Z</time></trkpt><trkpt lat="43.4243569" lon="11.6890491"><ele>301.66666666666663</ele><time>2026-05-03T11:50:53.71Z</time></trkpt><trkpt lat="43.4243682" lon="11.6893375"><ele>302.3333333333333</ele><time>2026-05-03T11:50:54.701Z</time></trkpt><trkpt lat="43.4244219" lon="11.689623"><ele>303.0</ele><time>2026-05-03T11:50:55.697Z</time></trkpt><trkpt lat="43.4245191" lon="11.6898807"><ele>303.6666666666667</ele><time>2026-05-03T11:50:56.715Z</time></trkpt><trkpt lat="43.4246333" lon="11.6901222"><ele>304.33333333333337</ele><time>2026-05-03T11:50:57.696Z</time></trkpt><trkpt lat="43.4247159" lon="11.6903698"><ele>305.0</ele><time>2026-05-03T11:50:58.682Z</time></trkpt><trkpt lat="43.4247569" lon="11.6906349"><ele>305.0</ele><time>2026-05-03T11:50:59.699Z</time></trkpt><trkpt lat="43.4247464" lon="11.6908936"><ele>305.0</ele><time>2026-05-03T11:51:00.683Z</time></trkpt><trkpt lat="43.4246964" lon="11.6911611"><ele>305.0</ele><time>2026-05-03T11:51:01.714Z</time></trkpt><trkpt lat="43.4246029" lon="11.6914308"><ele>305.0</ele><time>2026-05-03T11:51:02.701Z</time></trkpt><trkpt lat="43.4245035" lon="11.6917131"><ele>305.0</ele><time>2026-05-03T11:51:03.706Z</time></trkpt><trkpt lat="43.4244053" lon="11.6919976"><ele>306.5</ele><time>2026-05-03T11:51:04.694Z</time></trkpt><trkpt lat="43.4243019" lon="11.6922777"><ele>308.0</ele><time>2026-05-03T11:51:05.7Z</time></trkpt><trkpt lat="43.4241823" lon="11.6925429"><ele>310.0</ele><time>2026-05-03T11:51:06.68Z</time></trkpt><trkpt lat="43.4240456" lon="11.692791"><ele>312.0</ele><time>2026-05-03T11:51:07.719Z</time></trkpt><trkpt lat="43.4238948" lon="11.6930279"><ele>311.0</ele><time>2026-05-03T11:51:08.691Z</time></trkpt><trkpt lat="43.4237446" lon="11.6932568"><ele>310.0</ele><time>2026-05-03T11:51:09.713Z</time></trkpt><trkpt lat="43.4236075" lon="11.6934831"><ele>309.0</ele><time>2026-05-03T11:51:10.698Z</time></trkpt><trkpt lat="43.4235023" lon="11.6937374"><ele>309.0</ele><time>2026-05-03T11:51:11.694Z</time></trkpt><trkpt lat="43.423427" lon="11.6940286"><ele>309.0</ele><time>2026-05-03T11:51:12.713Z</time></trkpt><trkpt lat="43.4233627" lon="11.6943482"><ele>311.0</ele><time>2026-05-03T11:51:13.695Z</time></trkpt><trkpt lat="43.4232904" lon="11.6946688"><ele>313.0</ele><time>2026-05-03T11:51:14.701Z</time></trkpt><trkpt lat="43.4232194" lon="11.6949779"><ele>314.66666666666663</ele><time>2026-05-03T11:51:15.703Z</time></trkpt><trkpt lat="43.4231487" lon="11.6952766"><ele>316.3333333333333</ele><time>2026-05-03T11:51:16.691Z</time></trkpt><trkpt lat="43.423083" lon="11.6955623"><ele>318.0</ele><time>2026-05-03T11:51:17.7Z</time></trkpt><trkpt lat="43.4230415" lon="11.6958473"><ele>319.0</ele><time>2026-05-03T11:51:18.713Z</time></trkpt><trkpt lat="43.4230428" lon="11.6961568"><ele>320.0</ele><time>2026-05-03T11:51:19.695Z</time></trkpt><trkpt lat="43.4230831" lon="11.6964853"><ele>320.0</ele><time>2026-05-03T11:51:20.684Z</time></trkpt><trkpt lat="43.4231469" lon="11.6968236"><ele>320.0</ele><time>2026-05-03T11:51:21.713Z</time></trkpt><trkpt lat="43.4232119" lon="11.69717"><ele>320.0</ele><time>2026-05-03T11:51:22.696Z</time></trkpt><trkpt lat="43.4232657" lon="11.6975101"><ele>320.0</ele><time>2026-05-03T11:51:23.689Z</time></trkpt><trkpt lat="43.4233057" lon="11.6978513"><ele>320.0</ele><time>2026-05-03T11:51:24.7Z</time></trkpt><trkpt lat="43.4233203" lon="11.6981903"><ele>320.0</ele><time>2026-05-03T11:51:25.695Z</time></trkpt><trkpt lat="43.4233275" lon="11.6985272"><ele>319.5</ele><time>2026-05-03T11:51:26.693Z</time></trkpt><trkpt lat="43.4233319" lon="11.6988646"><ele>319.0</ele><time>2026-05-03T11:51:27.7Z</time></trkpt><trkpt lat="43.423334" lon="11.6991975"><ele>320.0</ele><time>2026-05-03T11:51:28.689Z</time></trkpt><trkpt lat="43.4233346" lon="11.6995226"><ele>321.0</ele><time>2026-05-03T11:51:29.695Z</time></trkpt><trkpt lat="43.4233269" lon="11.6998333"><ele>321.0</ele><time>2026-05-03T11:51:30.703Z</time></trkpt><trkpt lat="43.4233179" lon="11.7001146"><ele>321.0</ele><time>2026-05-03T11:51:31.703Z</time></trkpt><trkpt lat="43.423305" lon="11.7003701"><ele>321.0</ele><time>2026-05-03T11:51:32.698Z</time></trkpt><trkpt lat="43.4232913" lon="11.7006008"><ele>321.3333333333333</ele><time>2026-05-03T11:51:33.698Z</time></trkpt><trkpt lat="43.4232755" lon="11.7008219"><ele>321.66666666666663</ele><time>2026-05-03T11:51:34.693Z</time></trkpt><trkpt lat="43.423267" lon="11.70104"><ele>322.0</ele><time>2026-05-03T11:51:35.706Z</time></trkpt><trkpt lat="43.4232731" lon="11.7012566"><ele>323.0</ele><time>2026-05-03T11:51:36.707Z</time></trkpt><trkpt lat="43.4232961" lon="11.7014688"><ele>324.0</ele><time>2026-05-03T11:51:37.709Z</time></trkpt><trkpt lat="43.4233382" lon="11.7016756"><ele>325.0</ele><time>2026-05-03T11:51:38.704Z</time></trkpt><trkpt lat="43.4233891" lon="11.7018719"><ele>324.75</ele><time>2026-05-03T11:51:39.691Z</time></trkpt><trkpt lat="43.4234409" lon="11.7020648"><ele>324.5</ele><time>2026-05-03T11:51:40.706Z</time></trkpt><trkpt lat="43.4234878" lon="11.702261"><ele>324.25</ele><time>2026-05-03T11:51:41.698Z</time></trkpt><trkpt lat="43.4235254" lon="11.7024527"><ele>324.0</ele><time>2026-05-03T11:51:42.692Z</time></trkpt><trkpt lat="43.4235555" lon="11.7026467"><ele>324.6666666666667</ele><time>2026-05-03T11:51:43.702Z</time></trkpt><trkpt lat="43.4235715" lon="11.7028544"><ele>325.33333333333337</ele><time>2026-05-03T11:51:44.716Z</time></trkpt><trkpt lat="43.4235617" lon="11.7030705"><ele>326.0</ele><time>2026-05-03T11:51:45.704Z</time></trkpt><trkpt lat="43.4235385" lon="11.7032961"><ele>326.0</ele><time>2026-05-03T11:51:46.688Z</time></trkpt><trkpt lat="43.4235115" lon="11.7035186"><ele>326.0</ele><time>2026-05-03T11:51:47.709Z</time></trkpt><trkpt lat="43.4234861" lon="11.7037304"><ele>326.0</ele><time>2026-05-03T11:51:48.701Z</time></trkpt><trkpt lat="43.4234606" lon="11.7039411"><ele>326.33333333333337</ele><time>2026-05-03T11:51:49.701Z</time></trkpt><trkpt lat="43.4234391" lon="11.7041615"><ele>326.6666666666667</ele><time>2026-05-03T11:51:50.71Z</time></trkpt><trkpt lat="43.4234081" lon="11.7043857"><ele>327.0</ele><time>2026-05-03T11:51:51.698Z</time></trkpt><trkpt lat="43.4233827" lon="11.7045996"><ele>327.75</ele><time>2026-05-03T11:51:52.692Z</time></trkpt><trkpt lat="43.4233577" lon="11.7047928"><ele>328.5</ele><time>2026-05-03T11:51:53.71Z</time></trkpt><trkpt lat="43.4233314" lon="11.7049829"><ele>329.25</ele><time>2026-05-03T11:51:54.694Z</time></trkpt><trkpt lat="43.4233104" lon="11.7051715"><ele>330.0</ele><time>2026-05-03T11:51:55.704Z</time></trkpt><trkpt lat="43.4232985" lon="11.7053813"><ele>330.3333333333333</ele><time>2026-05-03T11:51:56.682Z</time></trkpt><trkpt lat="43.4232954" lon="11.705633"><ele>330.66666666666663</ele><time>2026-05-03T11:51:57.704Z</time></trkpt><trkpt lat="43.4232993" lon="11.705914"><ele>331.0</ele><time>2026-05-03T11:51:58.695Z</time></trkpt><trkpt lat="43.4233004" lon="11.7062086"><ele>330.0</ele><time>2026-05-03T11:51:59.702Z</time></trkpt><trkpt lat="43.4232935" lon="11.7065178"><ele>329.0</ele><time>2026-05-03T11:52:00.697Z</time></trkpt><trkpt lat="43.4232686" lon="11.7068384"><ele>332.0</ele><time>2026-05-03T11:52:01.692Z</time></trkpt><trkpt lat="43.4232208" lon="11.7071663"><ele>335.0</ele><time>2026-05-03T11:52:02.697Z</time></trkpt><trkpt lat="43.4231534" lon="11.7074954"><ele>339.5</ele><time>2026-05-03T11:52:03.687Z</time></trkpt><trkpt lat="43.423081" lon="11.7078281"><ele>344.0</ele><time>2026-05-03T11:52:04.694Z</time></trkpt><trkpt lat="43.4230052" lon="11.7081728"><ele>339.0</ele><time>2026-05-03T11:52:05.697Z</time></trkpt><trkpt lat="43.4229288" lon="11.7085425"><ele>334.0</ele><time>2026-05-03T11:52:06.707Z</time></trkpt><trkpt lat="43.4228559" lon="11.7089298"><ele>334.0</ele><time>2026-05-03T11:52:07.697Z</time></trkpt><trkpt lat="43.4227887" lon="11.7093299"><ele>334.0</ele><time>2026-05-03T11:52:08.708Z</time></trkpt><trkpt lat="43.4227306" lon="11.7097347"><ele>335.5</ele><time>2026-05-03T11:52:09.704Z</time></trkpt><trkpt lat="43.4226795" lon="11.7101237"><ele>337.0</ele><time>2026-05-03T11:52:10.698Z</time></trkpt><trkpt lat="43.422638" lon="11.7104946"><ele>338.5</ele><time>2026-05-03T11:52:11.698Z</time></trkpt><trkpt lat="43.4226127" lon="11.7108568"><ele>340.0</ele><time>2026-05-03T11:52:12.693Z</time></trkpt><trkpt lat="43.4226073" lon="11.7112209"><ele>342.0</ele><time>2026-05-03T11:52:13.697Z</time></trkpt><trkpt lat="43.4226176" lon="11.7115833"><ele>344.0</ele><time>2026-05-03T11:52:14.69Z</time></trkpt><trkpt lat="43.4226306" lon="11.7119212"><ele>344.0</ele><time>2026-05-03T11:52:15.697Z</time></trkpt><trkpt lat="43.42263" lon="11.7122452"><ele>344.0</ele><time>2026-05-03T11:52:16.692Z</time></trkpt><trkpt lat="43.4226044" lon="11.7125511"><ele>344.33333333333337</ele><time>2026-05-03T11:52:17.699Z</time></trkpt><trkpt lat="43.4225454" lon="11.7128361"><ele>344.6666666666667</ele><time>2026-05-03T11:52:18.692Z</time></trkpt><trkpt lat="43.4224448" lon="11.7131024"><ele>345.0</ele><time>2026-05-03T11:52:19.699Z</time></trkpt><trkpt lat="43.4223061" lon="11.7133628"><ele>346.5</ele><time>2026-05-03T11:52:20.703Z</time></trkpt><trkpt lat="43.42215" lon="11.7136327"><ele>348.0</ele><time>2026-05-03T11:52:21.698Z</time></trkpt><trkpt lat="43.4219966" lon="11.7138972"><ele>346.6666666666667</ele><time>2026-05-03T11:52:22.693Z</time></trkpt><trkpt lat="43.4218611" lon="11.71413"><ele>345.33333333333337</ele><time>2026-05-03T11:52:23.696Z</time></trkpt><trkpt lat="43.4217496" lon="11.7143462"><ele>344.0</ele><time>2026-05-03T11:52:24.688Z</time></trkpt><trkpt lat="43.4216615" lon="11.7145608"><ele>344.0</ele><time>2026-05-03T11:52:25.707Z</time></trkpt><trkpt lat="43.4216051" lon="11.7148008"><ele>344.0</ele><time>2026-05-03T11:52:26.686Z</time></trkpt><trkpt lat="43.4215955" lon="11.7150564"><ele>344.0</ele><time>2026-05-03T11:52:27.702Z</time></trkpt><trkpt lat="43.4216315" lon="11.7153149"><ele>344.0</ele><time>2026-05-03T11:52:28.693Z</time></trkpt><trkpt lat="43.4217023" lon="11.71558"><ele>344.0</ele><time>2026-05-03T11:52:29.705Z</time></trkpt><trkpt lat="43.4218048" lon="11.7158535"><ele>344.0</ele><time>2026-05-03T11:52:30.688Z</time></trkpt><trkpt lat="43.4219569" lon="11.7161269"><ele>344.5</ele><time>2026-05-03T11:52:31.697Z</time></trkpt><trkpt lat="43.4221195" lon="11.7164069"><ele>345.0</ele><time>2026-05-03T11:52:32.683Z</time></trkpt><trkpt lat="43.4222661" lon="11.7167073"><ele>347.0</ele><time>2026-05-03T11:52:33.704Z</time></trkpt><trkpt lat="43.4223961" lon="11.7170101"><ele>349.0</ele><time>2026-05-03T11:52:34.697Z</time></trkpt><trkpt lat="43.4225202" lon="11.7172924"><ele>349.0</ele><time>2026-05-03T11:52:35.7Z</time></trkpt><trkpt lat="43.4226255" lon="11.7175617"><ele>349.0</ele><time>2026-05-03T11:52:36.689Z</time></trkpt><trkpt lat="43.4226952" lon="11.7178323"><ele>349.0</ele><time>2026-05-03T11:52:37.693Z</time></trkpt><trkpt lat="43.4227181" lon="11.7181108"><ele>349.66666666666663</ele><time>2026-05-03T11:52:38.699Z</time></trkpt><trkpt lat="43.4227015" lon="11.7183955"><ele>350.3333333333333</ele><time>2026-05-03T11:52:39.696Z</time></trkpt><trkpt lat="43.4226388" lon="11.7186746"><ele>351.0</ele><time>2026-05-03T11:52:40.712Z</time></trkpt><trkpt lat="43.4225496" lon="11.7189501"><ele>354.5</ele><time>2026-05-03T11:52:41.687Z</time></trkpt><trkpt lat="43.4224576" lon="11.7192336"><ele>358.0</ele><time>2026-05-03T11:52:42.693Z</time></trkpt><trkpt lat="43.422382" lon="11.7195412"><ele>362.0</ele><time>2026-05-03T11:52:43.704Z</time></trkpt><trkpt lat="43.4223262" lon="11.7198583"><ele>366.0</ele><time>2026-05-03T11:52:44.698Z</time></trkpt><trkpt lat="43.4222883" lon="11.7201754"><ele>366.5</ele><time>2026-05-03T11:52:45.694Z</time></trkpt><trkpt lat="43.4222706" lon="11.7204901"><ele>367.0</ele><time>2026-05-03T11:52:46.702Z</time></trkpt><trkpt lat="43.4222829" lon="11.7208247"><ele>366.0</ele><time>2026-05-03T11:52:47.71Z</time></trkpt><trkpt lat="43.4223256" lon="11.721166"><ele>365.0</ele><time>2026-05-03T11:52:48.7Z</time></trkpt><trkpt lat="43.4223645" lon="11.7215106"><ele>365.0</ele><time>2026-05-03T11:52:49.709Z</time></trkpt><trkpt lat="43.422377" lon="11.7218583"><ele>365.0</ele><time>2026-05-03T11:52:50.701Z</time></trkpt><trkpt lat="43.422359" lon="11.7222092"><ele>365.5</ele><time>2026-05-03T11:52:51.703Z</time></trkpt><trkpt lat="43.4223292" lon="11.722565"><ele>366.0</ele><time>2026-05-03T11:52:52.703Z</time></trkpt><trkpt lat="43.422303" lon="11.722919"><ele>368.0</ele><time>2026-05-03T11:52:53.702Z</time></trkpt><trkpt lat="43.4222907" lon="11.723278"><ele>370.0</ele><time>2026-05-03T11:52:54.684Z</time></trkpt><trkpt lat="43.4222888" lon="11.7236056"><ele>371.66666666666663</ele><time>2026-05-03T11:52:55.701Z</time></trkpt><trkpt lat="43.4222957" lon="11.7239085"><ele>373.3333333333333</ele><time>2026-05-03T11:52:56.698Z</time></trkpt><trkpt lat="43.422308" lon="11.7241685"><ele>375.0</ele><time>2026-05-03T11:52:57.703Z</time></trkpt><trkpt lat="43.4223507" lon="11.7243909"><ele>376.0</ele><time>2026-05-03T11:52:58.693Z</time></trkpt><trkpt lat="43.4224375" lon="11.7245699"><ele>377.0</ele><time>2026-05-03T11:52:59.705Z</time></trkpt><trkpt lat="43.4225764" lon="11.7247345"><ele>378.0</ele><time>2026-05-03T11:53:00.686Z</time></trkpt><trkpt lat="43.4227531" lon="11.7248745"><ele>378.0</ele><time>2026-05-03T11:53:01.706Z</time></trkpt><trkpt lat="43.4229608" lon="11.72499"><ele>378.0</ele><time>2026-05-03T11:53:02.694Z</time></trkpt><trkpt lat="43.4231935" lon="11.7250708"><ele>379.5</ele><time>2026-05-03T11:53:03.691Z</time></trkpt><trkpt lat="43.4234345" lon="11.7251528"><ele>381.0</ele><time>2026-05-03T11:53:04.685Z</time></trkpt><trkpt lat="43.4236569" lon="11.7252702"><ele>382.0</ele><time>2026-05-03T11:53:05.701Z</time></trkpt><trkpt lat="43.4238481" lon="11.725391"><ele>383.0</ele><time>2026-05-03T11:53:06.689Z</time></trkpt><trkpt lat="43.4240284" lon="11.7255077"><ele>384.0</ele><time>2026-05-03T11:53:07.697Z</time></trkpt><trkpt lat="43.4241924" lon="11.7256023"><ele>384.0</ele><time>2026-05-03T11:53:08.694Z</time></trkpt><trkpt lat="43.4243444" lon="11.7256727"><ele>384.0</ele><time>2026-05-03T11:53:09.703Z</time></trkpt><trkpt lat="43.4244826" lon="11.7257332"><ele>384.0</ele><time>2026-05-03T11:53:10.69Z</time></trkpt><trkpt lat="43.4245951" lon="11.7257903"><ele>384.0</ele><time>2026-05-03T11:53:11.702Z</time></trkpt><trkpt lat="43.4246811" lon="11.7258479"><ele>385.0</ele><time>2026-05-03T11:53:12.706Z</time></trkpt><trkpt lat="43.4247363" lon="11.7259098"><ele>386.0</ele><time>2026-05-03T11:53:13.696Z</time></trkpt><trkpt lat="43.4248067" lon="11.7260029"><ele>387.0</ele><time>2026-05-03T11:53:15.698Z</time></trkpt><trkpt lat="43.4249057" lon="11.7260157"><ele>388.0</ele><time>2026-05-03T11:53:17.694Z</time></trkpt><trkpt lat="43.4249713" lon="11.7259841"><ele>389.0</ele><time>2026-05-03T11:53:18.688Z</time></trkpt><trkpt lat="43.4250476" lon="11.7259462"><ele>390.0</ele><time>2026-05-03T11:53:19.703Z</time></trkpt><trkpt lat="43.4251272" lon="11.7258987"><ele>390.0</ele><time>2026-05-03T11:53:20.708Z</time></trkpt><trkpt lat="43.4252139" lon="11.7258716"><ele>390.0</ele><time>2026-05-03T11:53:21.689Z</time></trkpt><trkpt lat="43.425301" lon="11.7258598"><ele>390.0</ele><time>2026-05-03T11:53:22.683Z</time></trkpt><trkpt lat="43.4253892" lon="11.725867"><ele>390.0</ele><time>2026-05-03T11:53:23.707Z</time></trkpt><trkpt lat="43.4254752" lon="11.7258833"><ele>390.0</ele><time>2026-05-03T11:53:24.703Z</time></trkpt><trkpt lat="43.4255562" lon="11.7259121"><ele>390.0</ele><time>2026-05-03T11:53:25.692Z</time></trkpt><trkpt lat="43.4256391" lon="11.7259375"><ele>391.6</ele><time>2026-05-03T11:53:26.695Z</time></trkpt><trkpt lat="43.4257298" lon="11.7259614"><ele>393.2</ele><time>2026-05-03T11:53:27.682Z</time></trkpt><trkpt lat="43.4258329" lon="11.7259668"><ele>394.79999999999995</ele><time>2026-05-03T11:53:28.691Z</time></trkpt><trkpt lat="43.4259399" lon="11.7259683"><ele>396.4</ele><time>2026-05-03T11:53:29.697Z</time></trkpt><trkpt lat="43.4260425" lon="11.7259732"><ele>398.0</ele><time>2026-05-03T11:53:30.685Z</time></trkpt><trkpt lat="43.4261414" lon="11.7259718"><ele>398.0</ele><time>2026-05-03T11:53:31.693Z</time></trkpt><trkpt lat="43.4262343" lon="11.7259725"><ele>398.0</ele><time>2026-05-03T11:53:32.701Z</time></trkpt><trkpt lat="43.4263303" lon="11.7259682"><ele>398.0</ele><time>2026-05-03T11:53:33.697Z</time></trkpt><trkpt lat="43.4264275" lon="11.7259639"><ele>398.0</ele><time>2026-05-03T11:53:34.689Z</time></trkpt><trkpt lat="43.4265296" lon="11.7259643"><ele>398.0</ele><time>2026-05-03T11:53:35.706Z</time></trkpt><trkpt lat="43.4266324" lon="11.7259754"><ele>399.79999999999995</ele><time>2026-05-03T11:53:36.68Z</time></trkpt><trkpt lat="43.4267351" lon="11.7259752"><ele>401.6</ele><time>2026-05-03T11:53:37.685Z</time></trkpt><trkpt lat="43.4268329" lon="11.7259657"><ele>403.4</ele><time>2026-05-03T11:53:38.702Z</time></trkpt><trkpt lat="43.4269183" lon="11.7259415"><ele>405.20000000000005</ele><time>2026-05-03T11:53:39.702Z</time></trkpt><trkpt lat="43.4270002" lon="11.7259379"><ele>407.0</ele><time>2026-05-03T11:53:40.702Z</time></trkpt><trkpt lat="43.4270842" lon="11.7259513"><ele>408.8333333333333</ele><time>2026-05-03T11:53:41.693Z</time></trkpt><trkpt lat="43.427166" lon="11.7259719"><ele>410.66666666666663</ele><time>2026-05-03T11:53:42.682Z</time></trkpt><trkpt lat="43.4272522" lon="11.7259901"><ele>412.5</ele><time>2026-05-03T11:53:43.69Z</time></trkpt><trkpt lat="43.4273372" lon="11.7259963"><ele>414.33333333333337</ele><time>2026-05-03T11:53:44.695Z</time></trkpt><trkpt lat="43.4274222" lon="11.7259991"><ele>416.1666666666667</ele><time>2026-05-03T11:53:45.7Z</time></trkpt><trkpt lat="43.4274997" lon="11.7260017"><ele>418.0</ele><time>2026-05-03T11:53:46.676Z</time></trkpt><trkpt lat="43.4275765" lon="11.7259938"><ele>418.0</ele><time>2026-05-03T11:53:47.688Z</time></trkpt><trkpt lat="43.4276603" lon="11.7259898"><ele>418.0</ele><time>2026-05-03T11:53:48.684Z</time></trkpt><trkpt lat="43.4277452" lon="11.7259933"><ele>418.0</ele><time>2026-05-03T11:53:49.693Z</time></trkpt><trkpt lat="43.427833" lon="11.7260016"><ele>418.0</ele><time>2026-05-03T11:53:50.685Z</time></trkpt><trkpt lat="43.42793" lon="11.7260095"><ele>418.0</ele><time>2026-05-03T11:53:51.685Z</time></trkpt><trkpt lat="43.4280308" lon="11.7260135"><ele>419.0</ele><time>2026-05-03T11:53:52.682Z</time></trkpt><trkpt lat="43.4281314" lon="11.726025"><ele>420.0</ele><time>2026-05-03T11:53:53.693Z</time></trkpt><trkpt lat="43.4282263" lon="11.7260551"><ele>421.0</ele><time>2026-05-03T11:53:54.691Z</time></trkpt><trkpt lat="43.4283157" lon="11.7260939"><ele>422.0</ele><time>2026-05-03T11:53:55.693Z</time></trkpt><trkpt lat="43.4284114" lon="11.7261425"><ele>423.0</ele><time>2026-05-03T11:53:56.68Z</time></trkpt><trkpt lat="43.4285172" lon="11.7261782"><ele>423.0</ele><time>2026-05-03T11:53:57.705Z</time></trkpt><trkpt lat="43.4286364" lon="11.7261991"><ele>423.0</ele><time>2026-05-03T11:53:58.699Z</time></trkpt><trkpt lat="43.4287606" lon="11.7262071"><ele>423.0</ele><time>2026-05-03T11:53:59.69Z</time></trkpt><trkpt lat="43.4288744" lon="11.7261979"><ele>423.0</ele><time>2026-05-03T11:54:00.692Z</time></trkpt><trkpt lat="43.4289885" lon="11.7261708"><ele>424.79999999999995</ele><time>2026-05-03T11:54:01.693Z</time></trkpt><trkpt lat="43.429086" lon="11.7261538"><ele>426.6</ele><time>2026-05-03T11:54:02.692Z</time></trkpt><trkpt lat="43.4291828" lon="11.7261027"><ele>428.40000000000003</ele><time>2026-05-03T11:54:04.71Z</time></trkpt><trkpt lat="43.4291992" lon="11.7259849"><ele>430.20000000000005</ele><time>2026-05-03T11:54:06.68Z</time></trkpt><trkpt lat="43.4291721" lon="11.7258862"><ele>432.0</ele><time>2026-05-03T11:54:07.696Z</time></trkpt><trkpt lat="43.4291274" lon="11.7257458"><ele>433.0</ele><time>2026-05-03T11:54:08.699Z</time></trkpt><trkpt lat="43.4290699" lon="11.7255944"><ele>434.00000000000006</ele><time>2026-05-03T11:54:09.703Z</time></trkpt><trkpt lat="43.4290121" lon="11.7254485"><ele>435.00000000000006</ele><time>2026-05-03T11:54:10.706Z</time></trkpt><trkpt lat="43.4289612" lon="11.7253225"><ele>436.0</ele><time>2026-05-03T11:54:11.697Z</time></trkpt><trkpt lat="43.4289183" lon="11.7252257"><ele>437.0</ele><time>2026-05-03T11:54:12.696Z</time></trkpt><trkpt lat="43.428921" lon="11.7250958"><ele>438.40000000000003</ele><time>2026-05-03T11:54:14.698Z</time></trkpt><trkpt lat="43.4290033" lon="11.7250422"><ele>439.80000000000007</ele><time>2026-05-03T11:54:16.711Z</time></trkpt><trkpt lat="43.4290697" lon="11.7250398"><ele>441.2</ele><time>2026-05-03T11:54:17.696Z</time></trkpt><trkpt lat="43.4291579" lon="11.7250457"><ele>442.6</ele><time>2026-05-03T11:54:18.701Z</time></trkpt><trkpt lat="43.4292637" lon="11.7250403"><ele>444.0</ele><time>2026-05-03T11:54:19.708Z</time></trkpt><trkpt lat="43.4293646" lon="11.7250025"><ele>444.0</ele><time>2026-05-03T11:54:20.703Z</time></trkpt><trkpt lat="43.4294719" lon="11.7249463"><ele>444.0</ele><time>2026-05-03T11:54:21.715Z</time></trkpt><trkpt lat="43.4295838" lon="11.7248925"><ele>444.0</ele><time>2026-05-03T11:54:22.7Z</time></trkpt><trkpt lat="43.4296972" lon="11.7248283"><ele>444.0</ele><time>2026-05-03T11:54:23.696Z</time></trkpt><trkpt lat="43.4298143" lon="11.724746"><ele>448.25</ele><time>2026-05-03T11:54:24.698Z</time></trkpt><trkpt lat="43.4299376" lon="11.7246579"><ele>452.5</ele><time>2026-05-03T11:54:25.706Z</time></trkpt><trkpt lat="43.4300578" lon="11.7245786"><ele>456.75</ele><time>2026-05-03T11:54:26.696Z</time></trkpt><trkpt lat="43.4301693" lon="11.7245145"><ele>461.0</ele><time>2026-05-03T11:54:27.706Z</time></trkpt><trkpt lat="43.4302736" lon="11.7244792"><ele>461.0</ele><time>2026-05-03T11:54:28.695Z</time></trkpt><trkpt lat="43.430379" lon="11.7244729"><ele>461.0</ele><time>2026-05-03T11:54:29.709Z</time></trkpt><trkpt lat="43.4304854" lon="11.7244853"><ele>461.0</ele><time>2026-05-03T11:54:30.692Z</time></trkpt><trkpt lat="43.4306016" lon="11.7245304"><ele>461.0</ele><time>2026-05-03T11:54:31.704Z</time></trkpt><trkpt lat="43.4307192" lon="11.7245793"><ele>464.4</ele><time>2026-05-03T11:54:32.709Z</time></trkpt><trkpt lat="43.4308057" lon="11.7246072"><ele>467.8</ele><time>2026-05-03T11:54:33.697Z</time></trkpt><trkpt lat="43.4308545" lon="11.7246944"><ele>471.19999999999993</ele><time>2026-05-03T11:54:35.696Z</time></trkpt><trkpt lat="43.430779" lon="11.7248576"><ele>474.59999999999997</ele><time>2026-05-03T11:54:37.705Z</time></trkpt><trkpt lat="43.4307424" lon="11.7249735"><ele>478.0</ele><time>2026-05-03T11:54:38.696Z</time></trkpt><trkpt lat="43.4307756" lon="11.7251164"><ele>478.00000000000006</ele><time>2026-05-03T11:54:40.708Z</time></trkpt><trkpt lat="43.4308334" lon="11.7251738"><ele>478.0</ele><time>2026-05-03T11:54:41.702Z</time></trkpt><trkpt lat="43.4309173" lon="11.7252158"><ele>478.0</ele><time>2026-05-03T11:54:42.698Z</time></trkpt><trkpt lat="43.4310081" lon="11.7252534"><ele>478.0</ele><time>2026-05-03T11:54:43.705Z</time></trkpt><trkpt lat="43.4310956" lon="11.7252931"><ele>478.00000000000006</ele><time>2026-05-03T11:54:44.692Z</time></trkpt><trkpt lat="43.4311865" lon="11.725336"><ele>478.0</ele><time>2026-05-03T11:54:45.696Z</time></trkpt><trkpt lat="43.4312752" lon="11.7253917"><ele>479.1666666666667</ele><time>2026-05-03T11:54:46.684Z</time></trkpt><trkpt lat="43.4313703" lon="11.7254546"><ele>480.33333333333337</ele><time>2026-05-03T11:54:47.684Z</time></trkpt><trkpt lat="43.4314575" lon="11.7255137"><ele>481.5</ele><time>2026-05-03T11:54:48.69Z</time></trkpt><trkpt lat="43.4315257" lon="11.7255531"><ele>482.66666666666663</ele><time>2026-05-03T11:54:49.714Z</time></trkpt><trkpt lat="43.4316032" lon="11.7255892"><ele>483.8333333333333</ele><time>2026-05-03T11:54:50.712Z</time></trkpt><trkpt lat="43.431681" lon="11.7256287"><ele>485.0</ele><time>2026-05-03T11:54:51.712Z</time></trkpt><trkpt lat="43.4317588" lon="11.7256773"><ele>484.99999999999994</ele><time>2026-05-03T11:54:52.696Z</time></trkpt><trkpt lat="43.431839" lon="11.7257278"><ele>485.0</ele><time>2026-05-03T11:54:53.711Z</time></trkpt><trkpt lat="43.4319139" lon="11.7257614"><ele>485.0</ele><time>2026-05-03T11:54:54.702Z</time></trkpt><trkpt lat="43.4319894" lon="11.7257923"><ele>485.0</ele><time>2026-05-03T11:54:55.709Z</time></trkpt><trkpt lat="43.4320661" lon="11.7258203"><ele>484.99999999999994</ele><time>2026-05-03T11:54:56.698Z</time></trkpt><trkpt lat="43.4321488" lon="11.7258558"><ele>485.0</ele><time>2026-05-03T11:54:57.699Z</time></trkpt><trkpt lat="43.432231" lon="11.7259012"><ele>486.6</ele><time>2026-05-03T11:54:58.689Z</time></trkpt><trkpt lat="43.4323129" lon="11.725953"><ele>488.2</ele><time>2026-05-03T11:54:59.708Z</time></trkpt><trkpt lat="43.4323994" lon="11.7260048"><ele>489.79999999999995</ele><time>2026-05-03T11:55:00.686Z</time></trkpt><trkpt lat="43.4324824" lon="11.7260721"><ele>491.4</ele><time>2026-05-03T11:55:01.725Z</time></trkpt><trkpt lat="43.4325629" lon="11.7261444"><ele>493.0</ele><time>2026-05-03T11:55:02.707Z</time></trkpt><trkpt lat="43.4326476" lon="11.7262074"><ele>494.79999999999995</ele><time>2026-05-03T11:55:03.703Z</time></trkpt><trkpt lat="43.4327339" lon="11.7262698"><ele>496.59999999999997</ele><time>2026-05-03T11:55:04.708Z</time></trkpt><trkpt lat="43.4328152" lon="11.7263283"><ele>498.40000000000003</ele><time>2026-05-03T11:55:05.698Z</time></trkpt><trkpt lat="43.432894" lon="11.7263922"><ele>500.20000000000005</ele><time>2026-05-03T11:55:06.695Z</time></trkpt><trkpt lat="43.4329783" lon="11.7264405"><ele>502.0</ele><time>2026-05-03T11:55:07.691Z</time></trkpt><trkpt lat="43.4330726" lon="11.7264669"><ele>503.40000000000003</ele><time>2026-05-03T11:55:08.709Z</time></trkpt><trkpt lat="43.4331663" lon="11.7264779"><ele>504.80000000000007</ele><time>2026-05-03T11:55:09.705Z</time></trkpt><trkpt lat="43.4332738" lon="11.7264447"><ele>506.2</ele><time>2026-05-03T11:55:10.697Z</time></trkpt><trkpt lat="43.4333896" lon="11.7264115"><ele>507.6</ele><time>2026-05-03T11:55:11.715Z</time></trkpt><trkpt lat="43.4335028" lon="11.7263932"><ele>509.0</ele><time>2026-05-03T11:55:12.685Z</time></trkpt><trkpt lat="43.4336054" lon="11.7264027"><ele>509.0</ele><time>2026-05-03T11:55:13.695Z</time></trkpt><trkpt lat="43.4336999" lon="11.7264109"><ele>509.0</ele><time>2026-05-03T11:55:14.702Z</time></trkpt><trkpt lat="43.4338007" lon="11.7263817"><ele>509.0</ele><time>2026-05-03T11:55:15.71Z</time></trkpt><trkpt lat="43.4338968" lon="11.7263315"><ele>509.0</ele><time>2026-05-03T11:55:16.683Z</time></trkpt><trkpt lat="43.4339841" lon="11.7262918"><ele>509.0</ele><time>2026-05-03T11:55:17.707Z</time></trkpt><trkpt lat="43.4340709" lon="11.7262633"><ele>508.99999999999994</ele><time>2026-05-03T11:55:18.71Z</time></trkpt><trkpt lat="43.4341576" lon="11.7262607"><ele>509.0</ele><time>2026-05-03T11:55:19.703Z</time></trkpt><trkpt lat="43.43424" lon="11.7262856"><ele>509.0</ele><time>2026-05-03T11:55:20.694Z</time></trkpt><trkpt lat="43.4343212" lon="11.726337"><ele>509.0</ele><time>2026-05-03T11:55:21.697Z</time></trkpt><trkpt lat="43.4343908" lon="11.7264037"><ele>508.99999999999994</ele><time>2026-05-03T11:55:22.692Z</time></trkpt><trkpt lat="43.4344536" lon="11.7264849"><ele>509.0</ele><time>2026-05-03T11:55:23.706Z</time></trkpt><trkpt lat="43.434523" lon="11.7265753"><ele>508.99999999999994</ele><time>2026-05-03T11:55:24.696Z</time></trkpt><trkpt lat="43.4345959" lon="11.7266652"><ele>509.0</ele><time>2026-05-03T11:55:25.686Z</time></trkpt><trkpt lat="43.4346671" lon="11.7267455"><ele>509.0</ele><time>2026-05-03T11:55:26.694Z</time></trkpt><trkpt lat="43.4347272" lon="11.7268195"><ele>509.0</ele><time>2026-05-03T11:55:27.714Z</time></trkpt><trkpt lat="43.4347757" lon="11.7268946"><ele>508.99999999999994</ele><time>2026-05-03T11:55:28.697Z</time></trkpt><trkpt lat="43.43483" lon="11.7270157"><ele>509.0</ele><time>2026-05-03T11:55:30.692Z</time></trkpt><trkpt lat="43.4348315" lon="11.7271151"><ele>509.4</ele><time>2026-05-03T11:55:32.71Z</time></trkpt><trkpt lat="43.4347658" lon="11.7272193"><ele>509.79999999999995</ele><time>2026-05-03T11:55:34.696Z</time></trkpt><trkpt lat="43.4347064" lon="11.7272831"><ele>510.20000000000005</ele><time>2026-05-03T11:55:35.692Z</time></trkpt><trkpt lat="43.4346351" lon="11.7273692"><ele>510.6</ele><time>2026-05-03T11:55:36.691Z</time></trkpt><trkpt lat="43.4345517" lon="11.7274738"><ele>511.0</ele><time>2026-05-03T11:55:37.698Z</time></trkpt><trkpt lat="43.4344598" lon="11.7275873"><ele>511.0</ele><time>2026-05-03T11:55:38.704Z</time></trkpt><trkpt lat="43.4343585" lon="11.727713"><ele>511.0</ele><time>2026-05-03T11:55:39.708Z</time></trkpt><trkpt lat="43.4342577" lon="11.7278452"><ele>511.0</ele><time>2026-05-03T11:55:40.705Z</time></trkpt><trkpt lat="43.4341612" lon="11.7279884"><ele>511.0</ele><time>2026-05-03T11:55:41.701Z</time></trkpt><trkpt lat="43.4340706" lon="11.728154"><ele>510.6666666666667</ele><time>2026-05-03T11:55:42.707Z</time></trkpt><trkpt lat="43.4339809" lon="11.7283338"><ele>510.33333333333337</ele><time>2026-05-03T11:55:43.714Z</time></trkpt><trkpt lat="43.4338845" lon="11.7285111"><ele>510.0</ele><time>2026-05-03T11:55:44.708Z</time></trkpt><trkpt lat="43.4337837" lon="11.7286753"><ele>510.0</ele><time>2026-05-03T11:55:45.711Z</time></trkpt><trkpt lat="43.4336861" lon="11.7288186"><ele>510.0</ele><time>2026-05-03T11:55:46.692Z</time></trkpt><trkpt lat="43.4335906" lon="11.7289486"><ele>510.0</ele><time>2026-05-03T11:55:47.695Z</time></trkpt><trkpt lat="43.4334979" lon="11.7290748"><ele>510.0</ele><time>2026-05-03T11:55:48.703Z</time></trkpt><trkpt lat="43.4334175" lon="11.729216"><ele>510.0</ele><time>2026-05-03T11:55:49.707Z</time></trkpt><trkpt lat="43.433352" lon="11.7293848"><ele>510.0</ele><time>2026-05-03T11:55:50.704Z</time></trkpt><trkpt lat="43.4332973" lon="11.7295628"><ele>510.0</ele><time>2026-05-03T11:55:51.707Z</time></trkpt><trkpt lat="43.4332543" lon="11.7297359"><ele>510.0</ele><time>2026-05-03T11:55:52.709Z</time></trkpt><trkpt lat="43.4332169" lon="11.7298946"><ele>509.0</ele><time>2026-05-03T11:55:53.705Z</time></trkpt><trkpt lat="43.4331792" lon="11.7300521"><ele>508.0</ele><time>2026-05-03T11:55:54.701Z</time></trkpt><trkpt lat="43.4331515" lon="11.7302084"><ele>507.0</ele><time>2026-05-03T11:55:55.709Z</time></trkpt><trkpt lat="43.4331213" lon="11.7303731"><ele>506.0</ele><time>2026-05-03T11:55:56.682Z</time></trkpt><trkpt lat="43.4330869" lon="11.7305432"><ele>506.5</ele><time>2026-05-03T11:55:57.71Z</time></trkpt><trkpt lat="43.4330455" lon="11.7307161"><ele>507.0</ele><time>2026-05-03T11:55:58.704Z</time></trkpt><trkpt lat="43.432991" lon="11.7308944"><ele>507.5</ele><time>2026-05-03T11:55:59.701Z</time></trkpt><trkpt lat="43.4329251" lon="11.7310643"><ele>508.0</ele><time>2026-05-03T11:56:00.694Z</time></trkpt><trkpt lat="43.4328462" lon="11.7312167"><ele>508.0</ele><time>2026-05-03T11:56:01.699Z</time></trkpt><trkpt lat="43.4327518" lon="11.7313545"><ele>508.0</ele><time>2026-05-03T11:56:02.682Z</time></trkpt><trkpt lat="43.4326495" lon="11.731479"><ele>508.0</ele><time>2026-05-03T11:56:03.705Z</time></trkpt><trkpt lat="43.4325415" lon="11.7315836"><ele>508.0</ele><time>2026-05-03T11:56:04.692Z</time></trkpt><trkpt lat="43.4324204" lon="11.7316838"><ele>508.0</ele><time>2026-05-03T11:56:05.697Z</time></trkpt><trkpt lat="43.4322866" lon="11.7317888"><ele>508.0</ele><time>2026-05-03T11:56:06.708Z</time></trkpt><trkpt lat="43.4321548" lon="11.7318953"><ele>508.0</ele><time>2026-05-03T11:56:07.699Z</time></trkpt><trkpt lat="43.4320345" lon="11.7319947"><ele>508.0</ele><time>2026-05-03T11:56:08.702Z</time></trkpt><trkpt lat="43.4319348" lon="11.7320939"><ele>508.25</ele><time>2026-05-03T11:56:09.699Z</time></trkpt><trkpt lat="43.4318614" lon="11.7322124"><ele>508.5</ele><time>2026-05-03T11:56:10.706Z</time></trkpt><trkpt lat="43.431809" lon="11.7323595"><ele>508.75</ele><time>2026-05-03T11:56:11.704Z</time></trkpt><trkpt lat="43.4317579" lon="11.7325388"><ele>509.0</ele><time>2026-05-03T11:56:12.694Z</time></trkpt><trkpt lat="43.4317023" lon="11.7327352"><ele>509.0</ele><time>2026-05-03T11:56:13.708Z</time></trkpt><trkpt lat="43.4316403" lon="11.7329169"><ele>509.0</ele><time>2026-05-03T11:56:14.709Z</time></trkpt><trkpt lat="43.4315759" lon="11.7330793"><ele>509.0</ele><time>2026-05-03T11:56:15.696Z</time></trkpt><trkpt lat="43.4315127" lon="11.733229"><ele>509.0</ele><time>2026-05-03T11:56:16.688Z</time></trkpt><trkpt lat="43.4314514" lon="11.7333839"><ele>509.0</ele><time>2026-05-03T11:56:17.703Z</time></trkpt><trkpt lat="43.4313976" lon="11.7335351"><ele>509.0</ele><time>2026-05-03T11:56:18.709Z</time></trkpt><trkpt lat="43.4313466" lon="11.7336781"><ele>509.0</ele><time>2026-05-03T11:56:19.709Z</time></trkpt><trkpt lat="43.4312901" lon="11.7338115"><ele>509.0</ele><time>2026-05-03T11:56:20.696Z</time></trkpt><trkpt lat="43.431229" lon="11.7339447"><ele>509.75</ele><time>2026-05-03T11:56:21.706Z</time></trkpt><trkpt lat="43.4311648" lon="11.7340922"><ele>510.5</ele><time>2026-05-03T11:56:22.692Z</time></trkpt><trkpt lat="43.4310949" lon="11.7342698"><ele>511.25</ele><time>2026-05-03T11:56:23.692Z</time></trkpt><trkpt lat="43.4310193" lon="11.7344609"><ele>512.0</ele><time>2026-05-03T11:56:24.7Z</time></trkpt><trkpt lat="43.4309428" lon="11.734646"><ele>512.5</ele><time>2026-05-03T11:56:25.712Z</time></trkpt><trkpt lat="43.4308692" lon="11.734835"><ele>513.0</ele><time>2026-05-03T11:56:26.699Z</time></trkpt><trkpt lat="43.4308017" lon="11.7350127"><ele>513.5</ele><time>2026-05-03T11:56:27.703Z</time></trkpt><trkpt lat="43.4307381" lon="11.7351939"><ele>514.0</ele><time>2026-05-03T11:56:28.698Z</time></trkpt><trkpt lat="43.4306754" lon="11.735365"><ele>514.0</ele><time>2026-05-03T11:56:29.697Z</time></trkpt><trkpt lat="43.4305989" lon="11.7355326"><ele>514.0</ele><time>2026-05-03T11:56:30.69Z</time></trkpt><trkpt lat="43.4305097" lon="11.7356778"><ele>514.0</ele><time>2026-05-03T11:56:31.722Z</time></trkpt><trkpt lat="43.4304264" lon="11.7357926"><ele>514.0</ele><time>2026-05-03T11:56:32.707Z</time></trkpt><trkpt lat="43.4303383" lon="11.7358817"><ele>514.0</ele><time>2026-05-03T11:56:33.703Z</time></trkpt><trkpt lat="43.4302495" lon="11.7359575"><ele>514.0</ele><time>2026-05-03T11:56:34.694Z</time></trkpt><trkpt lat="43.4301679" lon="11.7360254"><ele>514.0</ele><time>2026-05-03T11:56:35.705Z</time></trkpt><trkpt lat="43.4300815" lon="11.73609"><ele>514.0</ele><time>2026-05-03T11:56:36.701Z</time></trkpt><trkpt lat="43.4300011" lon="11.736151"><ele>514.0</ele><time>2026-05-03T11:56:37.698Z</time></trkpt><trkpt lat="43.4299457" lon="11.7362062"><ele>514.8</ele><time>2026-05-03T11:56:38.709Z</time></trkpt><trkpt lat="43.4299151" lon="11.7363231"><ele>515.5999999999999</ele><time>2026-05-03T11:56:40.7Z</time></trkpt><trkpt lat="43.4299816" lon="11.7364893"><ele>516.4</ele><time>2026-05-03T11:56:42.697Z</time></trkpt><trkpt lat="43.4300122" lon="11.7365949"><ele>517.1999999999999</ele><time>2026-05-03T11:56:43.701Z</time></trkpt><trkpt lat="43.430046" lon="11.7367231"><ele>518.0</ele><time>2026-05-03T11:56:44.715Z</time></trkpt><trkpt lat="43.4300706" lon="11.736873"><ele>518.75</ele><time>2026-05-03T11:56:45.705Z</time></trkpt><trkpt lat="43.4300923" lon="11.7370315"><ele>519.5</ele><time>2026-05-03T11:56:46.691Z</time></trkpt><trkpt lat="43.4301149" lon="11.7371861"><ele>520.25</ele><time>2026-05-03T11:56:47.686Z</time></trkpt><trkpt lat="43.4301311" lon="11.7373391"><ele>521.0</ele><time>2026-05-03T11:56:48.696Z</time></trkpt><trkpt lat="43.4301423" lon="11.7374981"><ele>521.0</ele><time>2026-05-03T11:56:49.715Z</time></trkpt><trkpt lat="43.4301488" lon="11.737668"><ele>521.0</ele><time>2026-05-03T11:56:50.699Z</time></trkpt><trkpt lat="43.430151" lon="11.7378391"><ele>521.0</ele><time>2026-05-03T11:56:51.705Z</time></trkpt><trkpt lat="43.4301485" lon="11.7380082"><ele>521.0</ele><time>2026-05-03T11:56:52.684Z</time></trkpt><trkpt lat="43.4301483" lon="11.7381703"><ele>519.8</ele><time>2026-05-03T11:56:53.693Z</time></trkpt><trkpt lat="43.4301492" lon="11.7383324"><ele>518.6</ele><time>2026-05-03T11:56:54.694Z</time></trkpt><trkpt lat="43.430166" lon="11.73848"><ele>517.4</ele><time>2026-05-03T11:56:55.688Z</time></trkpt><trkpt lat="43.4302048" lon="11.7386176"><ele>516.2</ele><time>2026-05-03T11:56:56.689Z</time></trkpt><trkpt lat="43.4302552" lon="11.7387353"><ele>515.0</ele><time>2026-05-03T11:56:57.698Z</time></trkpt><trkpt lat="43.430296" lon="11.7388479"><ele>513.4</ele><time>2026-05-03T11:56:58.685Z</time></trkpt><trkpt lat="43.4303261" lon="11.7389683"><ele>511.8</ele><time>2026-05-03T11:56:59.694Z</time></trkpt><trkpt lat="43.4303549" lon="11.7390896"><ele>510.20000000000005</ele><time>2026-05-03T11:57:00.692Z</time></trkpt><trkpt lat="43.4303961" lon="11.7392067"><ele>508.6</ele><time>2026-05-03T11:57:01.696Z</time></trkpt><trkpt lat="43.4304527" lon="11.7393161"><ele>507.0</ele><time>2026-05-03T11:57:02.693Z</time></trkpt><trkpt lat="43.4305245" lon="11.7394231"><ele>501.75</ele><time>2026-05-03T11:57:03.707Z</time></trkpt><trkpt lat="43.4306032" lon="11.7395248"><ele>496.5</ele><time>2026-05-03T11:57:04.7Z</time></trkpt><trkpt lat="43.430689" lon="11.7396292"><ele>491.25</ele><time>2026-05-03T11:57:05.708Z</time></trkpt><trkpt lat="43.430787" lon="11.7397246"><ele>486.0</ele><time>2026-05-03T11:57:06.696Z</time></trkpt><trkpt lat="43.4308968" lon="11.7398165"><ele>486.0</ele><time>2026-05-03T11:57:07.697Z</time></trkpt><trkpt lat="43.4310102" lon="11.7399075"><ele>486.0</ele><time>2026-05-03T11:57:08.698Z</time></trkpt><trkpt lat="43.4311281" lon="11.7399946"><ele>486.0</ele><time>2026-05-03T11:57:09.691Z</time></trkpt><trkpt lat="43.4312444" lon="11.7400773"><ele>486.0</ele><time>2026-05-03T11:57:10.701Z</time></trkpt><trkpt lat="43.4313548" lon="11.7401537"><ele>481.25</ele><time>2026-05-03T11:57:11.696Z</time></trkpt><trkpt lat="43.4314623" lon="11.740232"><ele>476.5</ele><time>2026-05-03T11:57:12.699Z</time></trkpt><trkpt lat="43.4315646" lon="11.7403123"><ele>471.75</ele><time>2026-05-03T11:57:13.689Z</time></trkpt><trkpt lat="43.4316607" lon="11.7404005"><ele>467.0</ele><time>2026-05-03T11:57:14.691Z</time></trkpt><trkpt lat="43.4317514" lon="11.7404925"><ele>467.0</ele><time>2026-05-03T11:57:15.696Z</time></trkpt><trkpt lat="43.4318415" lon="11.7406022"><ele>467.0</ele><time>2026-05-03T11:57:16.686Z</time></trkpt><trkpt lat="43.4319372" lon="11.7407365"><ele>467.0</ele><time>2026-05-03T11:57:17.713Z</time></trkpt><trkpt lat="43.4320321" lon="11.7408776"><ele>467.0</ele><time>2026-05-03T11:57:18.693Z</time></trkpt><trkpt lat="43.4321283" lon="11.741023"><ele>464.5</ele><time>2026-05-03T11:57:19.694Z</time></trkpt><trkpt lat="43.4322241" lon="11.7411541"><ele>462.0</ele><time>2026-05-03T11:57:20.699Z</time></trkpt><trkpt lat="43.4323082" lon="11.741282"><ele>459.5</ele><time>2026-05-03T11:57:21.715Z</time></trkpt><trkpt lat="43.4323867" lon="11.7414143"><ele>457.0</ele><time>2026-05-03T11:57:22.695Z</time></trkpt><trkpt lat="43.4324598" lon="11.7415608"><ele>457.0</ele><time>2026-05-03T11:57:23.688Z</time></trkpt><trkpt lat="43.4325332" lon="11.7417128"><ele>457.0</ele><time>2026-05-03T11:57:24.699Z</time></trkpt><trkpt lat="43.4326008" lon="11.7418748"><ele>457.0</ele><time>2026-05-03T11:57:25.704Z</time></trkpt><trkpt lat="43.4326645" lon="11.7420305"><ele>457.0</ele><time>2026-05-03T11:57:26.718Z</time></trkpt><trkpt lat="43.4327279" lon="11.7421712"><ele>456.83333333333337</ele><time>2026-05-03T11:57:27.694Z</time></trkpt><trkpt lat="43.4327945" lon="11.7422962"><ele>456.6666666666667</ele><time>2026-05-03T11:57:28.685Z</time></trkpt><trkpt lat="43.4328413" lon="11.7424012"><ele>456.5</ele><time>2026-05-03T11:57:29.708Z</time></trkpt><trkpt lat="43.4328656" lon="11.742497"><ele>456.33333333333337</ele><time>2026-05-03T11:57:30.7Z</time></trkpt><trkpt lat="43.4328714" lon="11.7426086"><ele>456.1666666666667</ele><time>2026-05-03T11:57:31.707Z</time></trkpt><trkpt lat="43.4328754" lon="11.742724"><ele>456.0</ele><time>2026-05-03T11:57:32.69Z</time></trkpt><trkpt lat="43.4328813" lon="11.742864"><ele>455.75</ele><time>2026-05-03T11:57:33.712Z</time></trkpt><trkpt lat="43.4329062" lon="11.7430141"><ele>455.5</ele><time>2026-05-03T11:57:34.701Z</time></trkpt><trkpt lat="43.4329416" lon="11.7431629"><ele>455.25</ele><time>2026-05-03T11:57:35.708Z</time></trkpt><trkpt lat="43.4329853" lon="11.743321"><ele>455.0</ele><time>2026-05-03T11:57:36.688Z</time></trkpt><trkpt lat="43.433037" lon="11.7434794"><ele>454.25</ele><time>2026-05-03T11:57:37.699Z</time></trkpt><trkpt lat="43.4330946" lon="11.7436303"><ele>453.5</ele><time>2026-05-03T11:57:38.698Z</time></trkpt><trkpt lat="43.4331637" lon="11.7437808"><ele>452.75</ele><time>2026-05-03T11:57:39.704Z</time></trkpt><trkpt lat="43.4332479" lon="11.7439168"><ele>452.0</ele><time>2026-05-03T11:57:40.688Z</time></trkpt><trkpt lat="43.4333542" lon="11.7440487"><ele>452.0</ele><time>2026-05-03T11:57:41.713Z</time></trkpt><trkpt lat="43.4334736" lon="11.7441762"><ele>452.0</ele><time>2026-05-03T11:57:42.703Z</time></trkpt><trkpt lat="43.433594" lon="11.7442967"><ele>452.0</ele><time>2026-05-03T11:57:43.704Z</time></trkpt><trkpt lat="43.4337066" lon="11.7444325"><ele>452.5</ele><time>2026-05-03T11:57:44.691Z</time></trkpt><trkpt lat="43.4338137" lon="11.7445703"><ele>453.0</ele><time>2026-05-03T11:57:45.706Z</time></trkpt><trkpt lat="43.4339123" lon="11.7446959"><ele>453.5</ele><time>2026-05-03T11:57:46.687Z</time></trkpt><trkpt lat="43.4340084" lon="11.744822"><ele>454.0</ele><time>2026-05-03T11:57:47.718Z</time></trkpt><trkpt lat="43.4341022" lon="11.7449532"><ele>454.0</ele><time>2026-05-03T11:57:48.712Z</time></trkpt><trkpt lat="43.4341819" lon="11.7450985"><ele>454.0</ele><time>2026-05-03T11:57:49.703Z</time></trkpt><trkpt lat="43.4342484" lon="11.7452555"><ele>454.0</ele><time>2026-05-03T11:57:50.693Z</time></trkpt><trkpt lat="43.4342995" lon="11.7454275"><ele>454.0</ele><time>2026-05-03T11:57:51.691Z</time></trkpt><trkpt lat="43.4343322" lon="11.7456019"><ele>453.75</ele><time>2026-05-03T11:57:52.704Z</time></trkpt><trkpt lat="43.4343521" lon="11.7457888"><ele>453.5</ele><time>2026-05-03T11:57:53.707Z</time></trkpt><trkpt lat="43.4343573" lon="11.7459816"><ele>453.25</ele><time>2026-05-03T11:57:54.698Z</time></trkpt><trkpt lat="43.4343719" lon="11.7461623"><ele>453.0</ele><time>2026-05-03T11:57:55.692Z</time></trkpt><trkpt lat="43.4344032" lon="11.7463414"><ele>453.0</ele><time>2026-05-03T11:57:56.687Z</time></trkpt><trkpt lat="43.4344407" lon="11.7465199"><ele>453.0</ele><time>2026-05-03T11:57:57.701Z</time></trkpt><trkpt lat="43.4344842" lon="11.7466965"><ele>453.0</ele><time>2026-05-03T11:57:58.694Z</time></trkpt><trkpt lat="43.4345286" lon="11.7468697"><ele>453.0</ele><time>2026-05-03T11:57:59.704Z</time></trkpt><trkpt lat="43.4345772" lon="11.7470441"><ele>452.75</ele><time>2026-05-03T11:58:00.697Z</time></trkpt><trkpt lat="43.4346224" lon="11.7472147"><ele>452.5</ele><time>2026-05-03T11:58:01.697Z</time></trkpt><trkpt lat="43.4346735" lon="11.7473833"><ele>452.25</ele><time>2026-05-03T11:58:02.694Z</time></trkpt><trkpt lat="43.4347357" lon="11.7475429"><ele>452.0</ele><time>2026-05-03T11:58:03.71Z</time></trkpt><trkpt lat="43.4348008" lon="11.747697"><ele>454.0</ele><time>2026-05-03T11:58:04.688Z</time></trkpt><trkpt lat="43.4348569" lon="11.7478521"><ele>456.0</ele><time>2026-05-03T11:58:05.71Z</time></trkpt><trkpt lat="43.434911" lon="11.7480104"><ele>458.0</ele><time>2026-05-03T11:58:06.695Z</time></trkpt><trkpt lat="43.4349695" lon="11.7481673"><ele>460.0</ele><time>2026-05-03T11:58:07.711Z</time></trkpt><trkpt lat="43.4350449" lon="11.748306"><ele>460.0</ele><time>2026-05-03T11:58:08.712Z</time></trkpt><trkpt lat="43.4351307" lon="11.7484424"><ele>460.0</ele><time>2026-05-03T11:58:09.696Z</time></trkpt><trkpt lat="43.4352204" lon="11.7485803"><ele>460.0</ele><time>2026-05-03T11:58:10.707Z</time></trkpt><trkpt lat="43.4353089" lon="11.7487151"><ele>460.0</ele><time>2026-05-03T11:58:11.719Z</time></trkpt><trkpt lat="43.4353852" lon="11.7488376"><ele>459.4</ele><time>2026-05-03T11:58:12.711Z</time></trkpt><trkpt lat="43.4354442" lon="11.7489478"><ele>458.8</ele><time>2026-05-03T11:58:13.696Z</time></trkpt><trkpt lat="43.4354959" lon="11.7490596"><ele>458.20000000000005</ele><time>2026-05-03T11:58:14.695Z</time></trkpt><trkpt lat="43.4355464" lon="11.7491851"><ele>457.6</ele><time>2026-05-03T11:58:15.704Z</time></trkpt><trkpt lat="43.4355965" lon="11.7493276"><ele>457.0</ele><time>2026-05-03T11:58:16.686Z</time></trkpt><trkpt lat="43.4356464" lon="11.7494748"><ele>460.5</ele><time>2026-05-03T11:58:17.715Z</time></trkpt><trkpt lat="43.435707" lon="11.7496297"><ele>464.0</ele><time>2026-05-03T11:58:18.697Z</time></trkpt><trkpt lat="43.4357649" lon="11.7497913"><ele>467.5</ele><time>2026-05-03T11:58:19.69Z</time></trkpt><trkpt lat="43.4358134" lon="11.7499562"><ele>471.0</ele><time>2026-05-03T11:58:20.697Z</time></trkpt><trkpt lat="43.4358601" lon="11.7501187"><ele>472.75</ele><time>2026-05-03T11:58:21.694Z</time></trkpt><trkpt lat="43.4359246" lon="11.7502717"><ele>474.5</ele><time>2026-05-03T11:58:22.71Z</time></trkpt><trkpt lat="43.4359957" lon="11.7504201"><ele>476.25</ele><time>2026-05-03T11:58:23.713Z</time></trkpt><trkpt lat="43.4360683" lon="11.7505666"><ele>478.0</ele><time>2026-05-03T11:58:24.695Z</time></trkpt><trkpt lat="43.4361367" lon="11.7507118"><ele>478.0</ele><time>2026-05-03T11:58:25.708Z</time></trkpt><trkpt lat="43.4362072" lon="11.7508574"><ele>478.0</ele><time>2026-05-03T11:58:26.684Z</time></trkpt><trkpt lat="43.4362819" lon="11.7510106"><ele>478.0</ele><time>2026-05-03T11:58:27.712Z</time></trkpt><trkpt lat="43.4363555" lon="11.7511689"><ele>478.0</ele><time>2026-05-03T11:58:28.706Z</time></trkpt><trkpt lat="43.4364214" lon="11.7513386"><ele>476.25</ele><time>2026-05-03T11:58:29.703Z</time></trkpt><trkpt lat="43.4364827" lon="11.7515079"><ele>474.5</ele><time>2026-05-03T11:58:30.704Z</time></trkpt><trkpt lat="43.4365413" lon="11.7516691"><ele>472.75</ele><time>2026-05-03T11:58:31.705Z</time></trkpt><trkpt lat="43.4365979" lon="11.7518203"><ele>471.0</ele><time>2026-05-03T11:58:32.697Z</time></trkpt><trkpt lat="43.4366639" lon="11.7519668"><ele>470.75</ele><time>2026-05-03T11:58:33.703Z</time></trkpt><trkpt lat="43.4367419" lon="11.7520991"><ele>470.5</ele><time>2026-05-03T11:58:34.697Z</time></trkpt><trkpt lat="43.4368272" lon="11.7522157"><ele>470.25</ele><time>2026-05-03T11:58:35.693Z</time></trkpt><trkpt lat="43.4369276" lon="11.7523076"><ele>470.0</ele><time>2026-05-03T11:58:36.682Z</time></trkpt><trkpt lat="43.4370411" lon="11.7523824"><ele>469.0</ele><time>2026-05-03T11:58:37.7Z</time></trkpt><trkpt lat="43.4371715" lon="11.7524512"><ele>468.0</ele><time>2026-05-03T11:58:38.702Z</time></trkpt><trkpt lat="43.4373009" lon="11.7525245"><ele>467.0</ele><time>2026-05-03T11:58:39.707Z</time></trkpt><trkpt lat="43.4374244" lon="11.752591"><ele>466.0</ele><time>2026-05-03T11:58:40.697Z</time></trkpt><trkpt lat="43.4375407" lon="11.7526341"><ele>466.0</ele><time>2026-05-03T11:58:41.702Z</time></trkpt><trkpt lat="43.437648" lon="11.7526666"><ele>466.0</ele><time>2026-05-03T11:58:42.689Z</time></trkpt><trkpt lat="43.4377436" lon="11.752701"><ele>466.0</ele><time>2026-05-03T11:58:43.702Z</time></trkpt><trkpt lat="43.4378319" lon="11.7527498"><ele>466.0</ele><time>2026-05-03T11:58:44.699Z</time></trkpt><trkpt lat="43.4379111" lon="11.7528188"><ele>466.0</ele><time>2026-05-03T11:58:45.693Z</time></trkpt><trkpt lat="43.4379975" lon="11.7529092"><ele>464.5</ele><time>2026-05-03T11:58:46.688Z</time></trkpt><trkpt lat="43.4381077" lon="11.7529878"><ele>463.0</ele><time>2026-05-03T11:58:47.692Z</time></trkpt><trkpt lat="43.4382272" lon="11.7530391"><ele>461.5</ele><time>2026-05-03T11:58:48.696Z</time></trkpt><trkpt lat="43.4383428" lon="11.7530673"><ele>460.0</ele><time>2026-05-03T11:58:49.704Z</time></trkpt><trkpt lat="43.4384454" lon="11.7531044"><ele>460.0</ele><time>2026-05-03T11:58:50.702Z</time></trkpt><trkpt lat="43.4385267" lon="11.7531747"><ele>460.0</ele><time>2026-05-03T11:58:51.694Z</time></trkpt><trkpt lat="43.4385921" lon="11.753269"><ele>460.0</ele><time>2026-05-03T11:58:52.702Z</time></trkpt><trkpt lat="43.4386403" lon="11.7533788"><ele>460.0</ele><time>2026-05-03T11:58:53.696Z</time></trkpt><trkpt lat="43.4386679" lon="11.7534906"><ele>460.0</ele><time>2026-05-03T11:58:54.686Z</time></trkpt><trkpt lat="43.438706" lon="11.7536031"><ele>457.2</ele><time>2026-05-03T11:58:55.688Z</time></trkpt><trkpt lat="43.4387613" lon="11.7537044"><ele>454.4</ele><time>2026-05-03T11:58:56.683Z</time></trkpt><trkpt lat="43.4388235" lon="11.7537873"><ele>451.6</ele><time>2026-05-03T11:58:57.709Z</time></trkpt><trkpt lat="43.4388933" lon="11.7538717"><ele>448.8</ele><time>2026-05-03T11:58:58.683Z</time></trkpt><trkpt lat="43.4389627" lon="11.7539804"><ele>446.0</ele><time>2026-05-03T11:58:59.683Z</time></trkpt><trkpt lat="43.4390396" lon="11.7540987"><ele>446.0</ele><time>2026-05-03T11:59:00.705Z</time></trkpt><trkpt lat="43.4391149" lon="11.754226"><ele>446.0</ele><time>2026-05-03T11:59:01.704Z</time></trkpt><trkpt lat="43.4391943" lon="11.7543688"><ele>446.0</ele><time>2026-05-03T11:59:02.693Z</time></trkpt><trkpt lat="43.4392688" lon="11.7545147"><ele>446.0</ele><time>2026-05-03T11:59:03.706Z</time></trkpt><trkpt lat="43.4393378" lon="11.7546599"><ele>442.0</ele><time>2026-05-03T11:59:04.685Z</time></trkpt><trkpt lat="43.439403" lon="11.7547912"><ele>438.0</ele><time>2026-05-03T11:59:05.709Z</time></trkpt><trkpt lat="43.4394674" lon="11.7549111"><ele>434.0</ele><time>2026-05-03T11:59:06.679Z</time></trkpt><trkpt lat="43.4395245" lon="11.7550216"><ele>430.0</ele><time>2026-05-03T11:59:07.715Z</time></trkpt><trkpt lat="43.4395708" lon="11.7551244"><ele>426.0</ele><time>2026-05-03T11:59:08.701Z</time></trkpt><trkpt lat="43.439612" lon="11.7552144"><ele>424.6</ele><time>2026-05-03T11:59:09.7Z</time></trkpt><trkpt lat="43.4396428" lon="11.7552905"><ele>423.20000000000005</ele><time>2026-05-03T11:59:10.704Z</time></trkpt><trkpt lat="43.4396918" lon="11.7554258"><ele>421.79999999999995</ele><time>2026-05-03T11:59:12.696Z</time></trkpt><trkpt lat="43.4397984" lon="11.7554887"><ele>420.4</ele><time>2026-05-03T11:59:14.689Z</time></trkpt><trkpt lat="43.4398794" lon="11.7555033"><ele>419.0</ele><time>2026-05-03T11:59:15.7Z</time></trkpt><trkpt lat="43.4399679" lon="11.7555232"><ele>418.99999999999994</ele><time>2026-05-03T11:59:16.687Z</time></trkpt><trkpt lat="43.4400604" lon="11.7555506"><ele>419.0</ele><time>2026-05-03T11:59:17.693Z</time></trkpt><trkpt lat="43.4401499" lon="11.7555788"><ele>419.0</ele><time>2026-05-03T11:59:18.685Z</time></trkpt><trkpt lat="43.4402334" lon="11.7556058"><ele>419.0</ele><time>2026-05-03T11:59:19.687Z</time></trkpt><trkpt lat="43.4403052" lon="11.7556457"><ele>418.99999999999994</ele><time>2026-05-03T11:59:20.705Z</time></trkpt><trkpt lat="43.4403785" lon="11.7556999"><ele>419.0</ele><time>2026-05-03T11:59:22.701Z</time></trkpt><trkpt lat="43.4403675" lon="11.7557868"><ele>419.0</ele><time>2026-05-03T11:59:25.685Z</time></trkpt><trkpt lat="43.4402531" lon="11.7558585"><ele>419.0</ele><time>2026-05-03T11:59:27.685Z</time></trkpt><trkpt lat="43.4401855" lon="11.7559073"><ele>419.0</ele><time>2026-05-03T11:59:28.675Z</time></trkpt><trkpt lat="43.4401166" lon="11.755963"><ele>419.0</ele><time>2026-05-03T11:59:29.701Z</time></trkpt><trkpt lat="43.440038" lon="11.7560112"><ele>419.0</ele><time>2026-05-03T11:59:30.703Z</time></trkpt><trkpt lat="43.4399591" lon="11.7560549"><ele>415.0</ele><time>2026-05-03T11:59:31.702Z</time></trkpt><trkpt lat="43.4398777" lon="11.7560825"><ele>411.0</ele><time>2026-05-03T11:59:32.706Z</time></trkpt><trkpt lat="43.4398003" lon="11.7561228"><ele>407.0</ele><time>2026-05-03T11:59:33.695Z</time></trkpt><trkpt lat="43.4397105" lon="11.75618"><ele>403.0</ele><time>2026-05-03T11:59:34.698Z</time></trkpt><trkpt lat="43.4396173" lon="11.756226"><ele>399.0</ele><time>2026-05-03T11:59:35.702Z</time></trkpt><trkpt lat="43.4395354" lon="11.7562685"><ele>397.6666666666667</ele><time>2026-05-03T11:59:36.689Z</time></trkpt><trkpt lat="43.439468" lon="11.75635"><ele>396.33333333333337</ele><time>2026-05-03T11:59:38.691Z</time></trkpt><trkpt lat="43.4394349" lon="11.7564581"><ele>395.0</ele><time>2026-05-03T11:59:40.685Z</time></trkpt><trkpt lat="43.4393901" lon="11.7566017"><ele>393.6666666666667</ele><time>2026-05-03T11:59:42.695Z</time></trkpt><trkpt lat="43.4393629" lon="11.7566809"><ele>392.33333333333337</ele><time>2026-05-03T11:59:43.692Z</time></trkpt><trkpt lat="43.4393323" lon="11.7567568"><ele>391.0</ele><time>2026-05-03T11:59:44.698Z</time></trkpt><trkpt lat="43.439296" lon="11.7568286"><ele>388.83333333333337</ele><time>2026-05-03T11:59:45.69Z</time></trkpt><trkpt lat="43.4392455" lon="11.7568931"><ele>386.6666666666667</ele><time>2026-05-03T11:59:46.702Z</time></trkpt><trkpt lat="43.4391801" lon="11.7569856"><ele>384.5</ele><time>2026-05-03T11:59:48.694Z</time></trkpt><trkpt lat="43.4392035" lon="11.757073"><ele>382.33333333333337</ele><time>2026-05-03T11:59:50.699Z</time></trkpt><trkpt lat="43.4392463" lon="11.7572401"><ele>380.1666666666667</ele><time>2026-05-03T11:59:52.706Z</time></trkpt><trkpt lat="43.4392373" lon="11.7573537"><ele>378.0</ele><time>2026-05-03T11:59:53.697Z</time></trkpt><trkpt lat="43.4392166" lon="11.7574501"><ele>378.0</ele><time>2026-05-03T11:59:54.695Z</time></trkpt><trkpt lat="43.4391551" lon="11.757591"><ele>378.0</ele><time>2026-05-03T11:59:56.692Z</time></trkpt><trkpt lat="43.4391174" lon="11.7576639"><ele>378.0</ele><time>2026-05-03T11:59:57.694Z</time></trkpt><trkpt lat="43.4390888" lon="11.7577445"><ele>378.0</ele><time>2026-05-03T11:59:58.69Z</time></trkpt><trkpt lat="43.4390408" lon="11.7578869"><ele>378.0</ele><time>2026-05-03T12:00:00.689Z</time></trkpt><trkpt lat="43.4390671" lon="11.7580644"><ele>376.1666666666667</ele><time>2026-05-03T12:00:02.695Z</time></trkpt><trkpt lat="43.4390907" lon="11.7581624"><ele>374.3333333333333</ele><time>2026-05-03T12:00:03.694Z</time></trkpt><trkpt lat="43.4391077" lon="11.7582511"><ele>372.5</ele><time>2026-05-03T12:00:04.685Z</time></trkpt><trkpt lat="43.4390516" lon="11.7583782"><ele>370.66666666666663</ele><time>2026-05-03T12:00:06.697Z</time></trkpt><trkpt lat="43.4389569" lon="11.7584954"><ele>368.8333333333333</ele><time>2026-05-03T12:00:08.685Z</time></trkpt><trkpt lat="43.4388986" lon="11.7585462"><ele>367.0</ele><time>2026-05-03T12:00:09.7Z</time></trkpt><trkpt lat="43.4388389" lon="11.7585738"><ele>363.0</ele><time>2026-05-03T12:00:10.688Z</time></trkpt><trkpt lat="43.4387513" lon="11.7586316"><ele>359.0</ele><time>2026-05-03T12:00:12.692Z</time></trkpt><trkpt lat="43.4386807" lon="11.7586922"><ele>355.0</ele><time>2026-05-03T12:00:14.692Z</time></trkpt><trkpt lat="43.43861" lon="11.7587239"><ele>351.0</ele><time>2026-05-03T12:00:16.687Z</time></trkpt><trkpt lat="43.4385813" lon="11.7588352"><ele>347.0</ele><time>2026-05-03T12:00:18.695Z</time></trkpt><trkpt lat="43.4386249" lon="11.7589986"><ele>347.0</ele><time>2026-05-03T12:00:20.692Z</time></trkpt><trkpt lat="43.4386653" lon="11.7590722"><ele>347.0</ele><time>2026-05-03T12:00:21.69Z</time></trkpt><trkpt lat="43.4387383" lon="11.7592063"><ele>347.0</ele><time>2026-05-03T12:00:23.693Z</time></trkpt><trkpt lat="43.438781" lon="11.759275"><ele>347.0</ele><time>2026-05-03T12:00:24.711Z</time></trkpt><trkpt lat="43.4388374" lon="11.7593309"><ele>347.0</ele><time>2026-05-03T12:00:25.694Z</time></trkpt><trkpt lat="43.4389432" lon="11.7594022"><ele>347.0</ele><time>2026-05-03T12:00:27.693Z</time></trkpt><trkpt lat="43.4390548" lon="11.7594099"><ele>347.8</ele><time>2026-05-03T12:00:29.694Z</time></trkpt><trkpt lat="43.4391534" lon="11.7593789"><ele>348.6</ele><time>2026-05-03T12:00:31.693Z</time></trkpt><trkpt lat="43.4392476" lon="11.7593035"><ele>349.40000000000003</ele><time>2026-05-03T12:00:33.689Z</time></trkpt><trkpt lat="43.4393151" lon="11.7591888"><ele>350.20000000000005</ele><time>2026-05-03T12:00:35.681Z</time></trkpt><trkpt lat="43.4393809" lon="11.7591666"><ele>351.0</ele><time>2026-05-03T12:00:37.695Z</time></trkpt><trkpt lat="43.4393806" lon="11.7592734"><ele>351.0</ele><time>2026-05-03T12:00:39.706Z</time></trkpt><trkpt lat="43.4393368" lon="11.7593407"><ele>351.0</ele><time>2026-05-03T12:00:40.695Z</time></trkpt><trkpt lat="43.4392885" lon="11.7594138"><ele>351.0</ele><time>2026-05-03T12:00:41.694Z</time></trkpt><trkpt lat="43.4392354" lon="11.7594798"><ele>351.0</ele><time>2026-05-03T12:00:42.737Z</time></trkpt><trkpt lat="43.4391801" lon="11.7595335"><ele>351.0</ele><time>2026-05-03T12:00:43.689Z</time></trkpt><trkpt lat="43.4391038" lon="11.759606"><ele>351.0</ele><time>2026-05-03T12:00:45.702Z</time></trkpt><trkpt lat="43.4392432" lon="11.7596669"><ele>348.3333333333333</ele><time>2026-05-03T12:00:48.688Z</time></trkpt><trkpt lat="43.4393398" lon="11.7596789"><ele>345.6666666666667</ele><time>2026-05-03T12:00:49.685Z</time></trkpt><trkpt lat="43.4394235" lon="11.759704"><ele>343.0</ele><time>2026-05-03T12:00:50.681Z</time></trkpt><trkpt lat="43.4394871" lon="11.759729"><ele>340.33333333333337</ele><time>2026-05-03T12:00:51.708Z</time></trkpt><trkpt lat="43.4395472" lon="11.7597668"><ele>337.6666666666667</ele><time>2026-05-03T12:00:52.676Z</time></trkpt><trkpt lat="43.4395554" lon="11.7599024"><ele>335.0</ele><time>2026-05-03T12:00:54.687Z</time></trkpt><trkpt lat="43.4394819" lon="11.7600031"><ele>335.0</ele><time>2026-05-03T12:00:55.691Z</time></trkpt><trkpt lat="43.4394064" lon="11.7601003"><ele>335.0</ele><time>2026-05-03T12:00:56.689Z</time></trkpt><trkpt lat="43.4393374" lon="11.7601692"><ele>335.0</ele><time>2026-05-03T12:00:57.688Z</time></trkpt><trkpt lat="43.4392382" lon="11.7602326"><ele>335.0</ele><time>2026-05-03T12:00:59.693Z</time></trkpt><trkpt lat="43.4391623" lon="11.7603556"><ele>335.0</ele><time>2026-05-03T12:01:01.682Z</time></trkpt><trkpt lat="43.4391082" lon="11.7604419"><ele>335.0</ele><time>2026-05-03T12:01:02.684Z</time></trkpt><trkpt lat="43.4390564" lon="11.7605432"><ele>335.0</ele><time>2026-05-03T12:01:03.682Z</time></trkpt><trkpt lat="43.4390018" lon="11.760643"><ele>335.0</ele><time>2026-05-03T12:01:04.688Z</time></trkpt><trkpt lat="43.4389463" lon="11.760732"><ele>335.0</ele><time>2026-05-03T12:01:05.684Z</time></trkpt><trkpt lat="43.438915" lon="11.7608151"><ele>335.0</ele><time>2026-05-03T12:01:06.681Z</time></trkpt><trkpt lat="43.4389272" lon="11.7609058"><ele>335.0</ele><time>2026-05-03T12:01:07.701Z</time></trkpt><trkpt lat="43.4389443" lon="11.7609917"><ele>333.6</ele><time>2026-05-03T12:01:08.702Z</time></trkpt><trkpt lat="43.4389778" lon="11.7611239"><ele>332.2</ele><time>2026-05-03T12:01:10.69Z</time></trkpt><trkpt lat="43.4390268" lon="11.7611856"><ele>330.79999999999995</ele><time>2026-05-03T12:01:12.687Z</time></trkpt><trkpt lat="43.4391047" lon="11.7612525"><ele>329.4</ele><time>2026-05-03T12:01:14.691Z</time></trkpt><trkpt lat="43.4391747" lon="11.7613674"><ele>328.0</ele><time>2026-05-03T12:01:16.689Z</time></trkpt><trkpt lat="43.4391973" lon="11.7615056"><ele>328.0</ele><time>2026-05-03T12:01:18.69Z</time></trkpt><trkpt lat="43.4391135" lon="11.7615991"><ele>328.0</ele><time>2026-05-03T12:01:20.688Z</time></trkpt><trkpt lat="43.4390448" lon="11.7616517"><ele>328.0</ele><time>2026-05-03T12:01:21.691Z</time></trkpt><trkpt lat="43.4389861" lon="11.7617096"><ele>328.0</ele><time>2026-05-03T12:01:22.688Z</time></trkpt><trkpt lat="43.4389369" lon="11.76179"><ele>328.0</ele><time>2026-05-03T12:01:23.683Z</time></trkpt><trkpt lat="43.4388922" lon="11.7618957"><ele>328.0</ele><time>2026-05-03T12:01:24.682Z</time></trkpt><trkpt lat="43.4388432" lon="11.7620065"><ele>326.4</ele><time>2026-05-03T12:01:25.696Z</time></trkpt><trkpt lat="43.4387913" lon="11.76212"><ele>324.79999999999995</ele><time>2026-05-03T12:01:26.68Z</time></trkpt><trkpt lat="43.438735" lon="11.7622334"><ele>323.2</ele><time>2026-05-03T12:01:27.687Z</time></trkpt><trkpt lat="43.438672" lon="11.7623402"><ele>321.6</ele><time>2026-05-03T12:01:28.687Z</time></trkpt><trkpt lat="43.4386105" lon="11.7624569"><ele>320.0</ele><time>2026-05-03T12:01:29.699Z</time></trkpt><trkpt lat="43.438545" lon="11.7625617"><ele>320.0</ele><time>2026-05-03T12:01:30.684Z</time></trkpt><trkpt lat="43.4384862" lon="11.762659"><ele>320.0</ele><time>2026-05-03T12:01:31.688Z</time></trkpt><trkpt lat="43.4384384" lon="11.7627497"><ele>320.0</ele><time>2026-05-03T12:01:32.683Z</time></trkpt><trkpt lat="43.4383988" lon="11.7628541"><ele>320.0</ele><time>2026-05-03T12:01:33.702Z</time></trkpt><trkpt lat="43.4383633" lon="11.7629664"><ele>320.0</ele><time>2026-05-03T12:01:34.68Z</time></trkpt><trkpt lat="43.4383487" lon="11.7630757"><ele>320.0</ele><time>2026-05-03T12:01:35.697Z</time></trkpt><trkpt lat="43.4383436" lon="11.7631818"><ele>321.1666666666667</ele><time>2026-05-03T12:01:36.686Z</time></trkpt><trkpt lat="43.4383514" lon="11.7632813"><ele>322.33333333333337</ele><time>2026-05-03T12:01:37.692Z</time></trkpt><trkpt lat="43.4383701" lon="11.7633674"><ele>323.5</ele><time>2026-05-03T12:01:38.697Z</time></trkpt><trkpt lat="43.4384022" lon="11.7634606"><ele>324.6666666666667</ele><time>2026-05-03T12:01:39.69Z</time></trkpt><trkpt lat="43.4384547" lon="11.7635592"><ele>325.8333333333333</ele><time>2026-05-03T12:01:40.692Z</time></trkpt><trkpt lat="43.4385138" lon="11.7636536"><ele>327.0</ele><time>2026-05-03T12:01:41.684Z</time></trkpt><trkpt lat="43.4385615" lon="11.7637556"><ele>327.0</ele><time>2026-05-03T12:01:42.685Z</time></trkpt><trkpt lat="43.4385769" lon="11.7638811"><ele>327.0</ele><time>2026-05-03T12:01:43.703Z</time></trkpt><trkpt lat="43.4385777" lon="11.7640153"><ele>327.0</ele><time>2026-05-03T12:01:44.688Z</time></trkpt><trkpt lat="43.4385795" lon="11.7641441"><ele>327.0</ele><time>2026-05-03T12:01:45.681Z</time></trkpt><trkpt lat="43.4385928" lon="11.7642505"><ele>327.0</ele><time>2026-05-03T12:01:46.688Z</time></trkpt><trkpt lat="43.4386156" lon="11.764336"><ele>327.0</ele><time>2026-05-03T12:01:47.701Z</time></trkpt><trkpt lat="43.438684" lon="11.7644651"><ele>326.8</ele><time>2026-05-03T12:01:49.699Z</time></trkpt><trkpt lat="43.4387431" lon="11.7644969"><ele>326.6</ele><time>2026-05-03T12:01:50.7Z</time></trkpt><trkpt lat="43.4388736" lon="11.7645161"><ele>326.40000000000003</ele><time>2026-05-03T12:01:52.686Z</time></trkpt><trkpt lat="43.4389549" lon="11.7645282"><ele>326.20000000000005</ele><time>2026-05-03T12:01:53.694Z</time></trkpt><trkpt lat="43.4390416" lon="11.7645469"><ele>326.0</ele><time>2026-05-03T12:01:54.702Z</time></trkpt><trkpt lat="43.4391339" lon="11.7645639"><ele>330.20000000000005</ele><time>2026-05-03T12:01:55.688Z</time></trkpt><trkpt lat="43.4392133" lon="11.7645905"><ele>334.40000000000003</ele><time>2026-05-03T12:01:56.702Z</time></trkpt><trkpt lat="43.4393119" lon="11.7646675"><ele>338.6</ele><time>2026-05-03T12:01:58.684Z</time></trkpt><trkpt lat="43.4393318" lon="11.7648019"><ele>342.8</ele><time>2026-05-03T12:02:00.685Z</time></trkpt><trkpt lat="43.4393082" lon="11.7648977"><ele>347.0</ele><time>2026-05-03T12:02:01.697Z</time></trkpt><trkpt lat="43.439257" lon="11.7649922"><ele>347.0</ele><time>2026-05-03T12:02:02.685Z</time></trkpt><trkpt lat="43.4391899" lon="11.7650913"><ele>347.0</ele><time>2026-05-03T12:02:03.69Z</time></trkpt><trkpt lat="43.4391349" lon="11.7651928"><ele>347.0</ele><time>2026-05-03T12:02:04.699Z</time></trkpt><trkpt lat="43.4390979" lon="11.7653167"><ele>347.0</ele><time>2026-05-03T12:02:05.696Z</time></trkpt><trkpt lat="43.4390714" lon="11.7654397"><ele>347.0</ele><time>2026-05-03T12:02:06.69Z</time></trkpt><trkpt lat="43.4390421" lon="11.7655519"><ele>346.40000000000003</ele><time>2026-05-03T12:02:07.707Z</time></trkpt><trkpt lat="43.4390166" lon="11.7656504"><ele>345.8</ele><time>2026-05-03T12:02:08.707Z</time></trkpt><trkpt lat="43.4389805" lon="11.7657833"><ele>345.2</ele><time>2026-05-03T12:02:10.694Z</time></trkpt><trkpt lat="43.4389377" lon="11.7659012"><ele>344.6</ele><time>2026-05-03T12:02:12.691Z</time></trkpt><trkpt lat="43.4389062" lon="11.7660402"><ele>344.0</ele><time>2026-05-03T12:02:14.682Z</time></trkpt><trkpt lat="43.4389147" lon="11.7661848"><ele>342.6</ele><time>2026-05-03T12:02:16.686Z</time></trkpt><trkpt lat="43.438971" lon="11.7663323"><ele>341.2</ele><time>2026-05-03T12:02:18.702Z</time></trkpt><trkpt lat="43.438992" lon="11.766423"><ele>339.8</ele><time>2026-05-03T12:02:19.691Z</time></trkpt><trkpt lat="43.4390093" lon="11.7665788"><ele>338.40000000000003</ele><time>2026-05-03T12:02:21.699Z</time></trkpt><trkpt lat="43.4389934" lon="11.7667349"><ele>337.0</ele><time>2026-05-03T12:02:23.691Z</time></trkpt><trkpt lat="43.4389386" lon="11.7668561"><ele>337.0</ele><time>2026-05-03T12:02:25.693Z</time></trkpt><trkpt lat="43.4388827" lon="11.7669256"><ele>337.0</ele><time>2026-05-03T12:02:27.699Z</time></trkpt><trkpt lat="43.4388266" lon="11.7669769"><ele>337.0</ele><time>2026-05-03T12:02:37.707Z</time></trkpt><trkpt lat="43.438931" lon="11.7668885"><ele>337.0</ele><time>2026-05-03T12:02:45.695Z</time></trkpt><trkpt lat="43.438979" lon="11.7667861"><ele>337.0</ele><time>2026-05-03T12:02:46.691Z</time></trkpt><trkpt lat="43.4390127" lon="11.7666609"><ele>337.0</ele><time>2026-05-03T12:02:47.694Z</time></trkpt><trkpt lat="43.4390246" lon="11.7665275"><ele>337.0</ele><time>2026-05-03T12:02:48.693Z</time></trkpt><trkpt lat="43.4390217" lon="11.7664271"><ele>337.0</ele><time>2026-05-03T12:02:49.703Z</time></trkpt><trkpt lat="43.439015" lon="11.7663106"><ele>337.0</ele><time>2026-05-03T12:02:51.684Z</time></trkpt><trkpt lat="43.4389754" lon="11.7662065"><ele>337.0</ele><time>2026-05-03T12:02:53.686Z</time></trkpt><trkpt lat="43.4389057" lon="11.7660815"><ele>338.40000000000003</ele><time>2026-05-03T12:02:55.694Z</time></trkpt><trkpt lat="43.4389138" lon="11.7659218"><ele>339.8</ele><time>2026-05-03T12:02:57.706Z</time></trkpt><trkpt lat="43.4389366" lon="11.7658225"><ele>341.2</ele><time>2026-05-03T12:02:58.712Z</time></trkpt><trkpt lat="43.4389557" lon="11.7656711"><ele>342.6</ele><time>2026-05-03T12:03:00.707Z</time></trkpt><trkpt lat="43.4389957" lon="11.7655072"><ele>344.0</ele><time>2026-05-03T12:03:02.695Z</time></trkpt><trkpt lat="43.4390269" lon="11.7654178"><ele>344.0</ele><time>2026-05-03T12:03:03.702Z</time></trkpt><trkpt lat="43.4390534" lon="11.7653242"><ele>344.0</ele><time>2026-05-03T12:03:04.703Z</time></trkpt><trkpt lat="43.4390721" lon="11.7652408"><ele>344.0</ele><time>2026-05-03T12:03:05.696Z</time></trkpt><trkpt lat="43.4391157" lon="11.7651026"><ele>344.0</ele><time>2026-05-03T12:03:07.691Z</time></trkpt><trkpt lat="43.4391969" lon="11.7649677"><ele>344.0</ele><time>2026-05-03T12:03:09.683Z</time></trkpt><trkpt lat="43.4392363" lon="11.7648965"><ele>344.0</ele><time>2026-05-03T12:03:10.69Z</time></trkpt><trkpt lat="43.4392691" lon="11.7647662"><ele>344.5</ele><time>2026-05-03T12:03:12.684Z</time></trkpt><trkpt lat="43.4392658" lon="11.7646601"><ele>345.0</ele><time>2026-05-03T12:03:14.684Z</time></trkpt><trkpt lat="43.4392492" lon="11.7645691"><ele>345.5</ele><time>2026-05-03T12:03:17.688Z</time></trkpt><trkpt lat="43.4392652" lon="11.7646646"><ele>346.0</ele><time>2026-05-03T12:04:02.686Z</time></trkpt><trkpt lat="43.4392484" lon="11.7647508"><ele>346.5</ele><time>2026-05-03T12:04:07.679Z</time></trkpt><trkpt lat="43.4392405" lon="11.7648572"><ele>347.0</ele><time>2026-05-03T12:12:11.689Z</time></trkpt><trkpt lat="43.4391769" lon="11.7650046"><ele>347.0</ele><time>2026-05-03T12:12:13.687Z</time></trkpt><trkpt lat="43.4391272" lon="11.7651003"><ele>347.0</ele><time>2026-05-03T12:12:14.685Z</time></trkpt><trkpt lat="43.4390578" lon="11.7652463"><ele>347.0</ele><time>2026-05-03T12:12:16.689Z</time></trkpt><trkpt lat="43.4390321" lon="11.7653347"><ele>347.0</ele><time>2026-05-03T12:12:17.683Z</time></trkpt><trkpt lat="43.4390213" lon="11.7654286"><ele>347.0</ele><time>2026-05-03T12:12:18.685Z</time></trkpt><trkpt lat="43.4390009" lon="11.7655274"><ele>347.0</ele><time>2026-05-03T12:12:19.683Z</time></trkpt><trkpt lat="43.438977" lon="11.7656242"><ele>346.40000000000003</ele><time>2026-05-03T12:12:20.683Z</time></trkpt><trkpt lat="43.4389301" lon="11.7657697"><ele>345.8</ele><time>2026-05-03T12:12:22.69Z</time></trkpt><trkpt lat="43.4389079" lon="11.7659148"><ele>345.2</ele><time>2026-05-03T12:12:24.682Z</time></trkpt><trkpt lat="43.4388704" lon="11.76606"><ele>344.6</ele><time>2026-05-03T12:12:26.679Z</time></trkpt><trkpt lat="43.4388878" lon="11.7661984"><ele>344.0</ele><time>2026-05-03T12:12:28.695Z</time></trkpt><trkpt lat="43.438934" lon="11.7662625"><ele>342.83333333333337</ele><time>2026-05-03T12:12:29.696Z</time></trkpt><trkpt lat="43.4389712" lon="11.7663386"><ele>341.6666666666667</ele><time>2026-05-03T12:12:30.697Z</time></trkpt><trkpt lat="43.4389867" lon="11.7664364"><ele>340.5</ele><time>2026-05-03T12:12:31.702Z</time></trkpt><trkpt lat="43.4389948" lon="11.7665438"><ele>339.3333333333333</ele><time>2026-05-03T12:12:32.689Z</time></trkpt><trkpt lat="43.4389862" lon="11.766658"><ele>338.16666666666663</ele><time>2026-05-03T12:12:33.702Z</time></trkpt><trkpt lat="43.43897" lon="11.7667677"><ele>337.0</ele><time>2026-05-03T12:12:34.703Z</time></trkpt><trkpt lat="43.4389324" lon="11.7668583"><ele>335.66666666666663</ele><time>2026-05-03T12:12:35.704Z</time></trkpt><trkpt lat="43.4388842" lon="11.7669325"><ele>334.3333333333333</ele><time>2026-05-03T12:12:36.695Z</time></trkpt><trkpt lat="43.4388258" lon="11.7669981"><ele>333.0</ele><time>2026-05-03T12:12:37.69Z</time></trkpt><trkpt lat="43.4387686" lon="11.767077"><ele>331.6666666666667</ele><time>2026-05-03T12:12:38.702Z</time></trkpt><trkpt lat="43.4387016" lon="11.767156"><ele>330.33333333333337</ele><time>2026-05-03T12:12:39.686Z</time></trkpt><trkpt lat="43.4386198" lon="11.7672227"><ele>329.0</ele><time>2026-05-03T12:12:40.688Z</time></trkpt><trkpt lat="43.4385192" lon="11.7672659"><ele>327.0</ele><time>2026-05-03T12:12:41.697Z</time></trkpt><trkpt lat="43.4384037" lon="11.7672828"><ele>325.0</ele><time>2026-05-03T12:12:42.694Z</time></trkpt><trkpt lat="43.4382913" lon="11.7672729"><ele>323.0</ele><time>2026-05-03T12:12:43.698Z</time></trkpt><trkpt lat="43.4381815" lon="11.7672669"><ele>321.0</ele><time>2026-05-03T12:12:44.699Z</time></trkpt><trkpt lat="43.4380707" lon="11.7672549"><ele>317.5</ele><time>2026-05-03T12:12:45.695Z</time></trkpt><trkpt lat="43.4379591" lon="11.7672457"><ele>314.0</ele><time>2026-05-03T12:12:46.682Z</time></trkpt><trkpt lat="43.4378437" lon="11.7672666"><ele>310.5</ele><time>2026-05-03T12:12:47.682Z</time></trkpt><trkpt lat="43.4377285" lon="11.7673078"><ele>307.0</ele><time>2026-05-03T12:12:48.709Z</time></trkpt><trkpt lat="43.4376241" lon="11.7673556"><ele>307.0</ele><time>2026-05-03T12:12:49.706Z</time></trkpt><trkpt lat="43.4375402" lon="11.7673973"><ele>307.0</ele><time>2026-05-03T12:12:50.684Z</time></trkpt><trkpt lat="43.4374784" lon="11.7674245"><ele>307.0</ele><time>2026-05-03T12:12:51.715Z</time></trkpt><trkpt lat="43.4374155" lon="11.7674576"><ele>307.0</ele><time>2026-05-03T12:12:52.676Z</time></trkpt><trkpt lat="43.4373426" lon="11.7675184"><ele>307.0</ele><time>2026-05-03T12:12:53.696Z</time></trkpt><trkpt lat="43.4372591" lon="11.7676086"><ele>307.0</ele><time>2026-05-03T12:12:54.689Z</time></trkpt><trkpt lat="43.4371718" lon="11.7677167"><ele>304.0</ele><time>2026-05-03T12:12:55.698Z</time></trkpt><trkpt lat="43.4370854" lon="11.7678383"><ele>301.0</ele><time>2026-05-03T12:12:56.686Z</time></trkpt><trkpt lat="43.4370116" lon="11.7679582"><ele>298.0</ele><time>2026-05-03T12:12:57.702Z</time></trkpt><trkpt lat="43.4369549" lon="11.7680586"><ele>295.0</ele><time>2026-05-03T12:12:58.695Z</time></trkpt><trkpt lat="43.436905" lon="11.7681425"><ele>292.0</ele><time>2026-05-03T12:12:59.691Z</time></trkpt><trkpt lat="43.4368076" lon="11.7682262"><ele>292.0</ele><time>2026-05-03T12:13:01.695Z</time></trkpt><trkpt lat="43.4367306" lon="11.7682133"><ele>292.0</ele><time>2026-05-03T12:13:02.68Z</time></trkpt><trkpt lat="43.436638" lon="11.7682053"><ele>292.0</ele><time>2026-05-03T12:13:03.69Z</time></trkpt><trkpt lat="43.436523" lon="11.7682045"><ele>292.0</ele><time>2026-05-03T12:13:04.689Z</time></trkpt><trkpt lat="43.4363894" lon="11.7682062"><ele>292.0</ele><time>2026-05-03T12:13:05.695Z</time></trkpt><trkpt lat="43.4362501" lon="11.7682128"><ele>289.8</ele><time>2026-05-03T12:13:06.683Z</time></trkpt><trkpt lat="43.4361165" lon="11.7682218"><ele>287.6</ele><time>2026-05-03T12:13:07.682Z</time></trkpt><trkpt lat="43.4360009" lon="11.7682322"><ele>285.40000000000003</ele><time>2026-05-03T12:13:08.691Z</time></trkpt><trkpt lat="43.4359094" lon="11.7682428"><ele>283.2</ele><time>2026-05-03T12:13:09.696Z</time></trkpt><trkpt lat="43.4358181" lon="11.7682848"><ele>281.0</ele><time>2026-05-03T12:13:11.696Z</time></trkpt><trkpt lat="43.4357903" lon="11.7684324"><ele>280.40000000000003</ele><time>2026-05-03T12:13:13.686Z</time></trkpt><trkpt lat="43.4357974" lon="11.76855"><ele>279.8</ele><time>2026-05-03T12:13:14.689Z</time></trkpt><trkpt lat="43.4358029" lon="11.7686824"><ele>279.20000000000005</ele><time>2026-05-03T12:13:15.694Z</time></trkpt><trkpt lat="43.4358057" lon="11.7688398"><ele>278.6</ele><time>2026-05-03T12:13:16.68Z</time></trkpt><trkpt lat="43.4358018" lon="11.7690101"><ele>278.0</ele><time>2026-05-03T12:13:17.684Z</time></trkpt><trkpt lat="43.4357771" lon="11.7691829"><ele>278.0</ele><time>2026-05-03T12:13:18.677Z</time></trkpt><trkpt lat="43.4357265" lon="11.7693574"><ele>278.0</ele><time>2026-05-03T12:13:19.684Z</time></trkpt><trkpt lat="43.4356615" lon="11.7695348"><ele>278.0</ele><time>2026-05-03T12:13:20.704Z</time></trkpt><trkpt lat="43.4355975" lon="11.76972"><ele>278.0</ele><time>2026-05-03T12:13:21.691Z</time></trkpt><trkpt lat="43.4355383" lon="11.7698901"><ele>277.83333333333337</ele><time>2026-05-03T12:13:22.689Z</time></trkpt><trkpt lat="43.4354874" lon="11.7700258"><ele>277.6666666666667</ele><time>2026-05-03T12:13:23.681Z</time></trkpt><trkpt lat="43.4354364" lon="11.7701251"><ele>277.5</ele><time>2026-05-03T12:13:24.689Z</time></trkpt><trkpt lat="43.4353834" lon="11.7702002"><ele>277.3333333333333</ele><time>2026-05-03T12:13:25.694Z</time></trkpt><trkpt lat="43.4353252" lon="11.7702718"><ele>277.16666666666663</ele><time>2026-05-03T12:13:26.698Z</time></trkpt><trkpt lat="43.4352729" lon="11.7703715"><ele>277.0</ele><time>2026-05-03T12:13:27.685Z</time></trkpt><trkpt lat="43.4352403" lon="11.770481"><ele>275.8</ele><time>2026-05-03T12:13:28.696Z</time></trkpt><trkpt lat="43.4352366" lon="11.7706009"><ele>274.6</ele><time>2026-05-03T12:13:29.704Z</time></trkpt><trkpt lat="43.4352816" lon="11.7707169"><ele>273.40000000000003</ele><time>2026-05-03T12:13:30.69Z</time></trkpt><trkpt lat="43.4353319" lon="11.7708362"><ele>272.2</ele><time>2026-05-03T12:13:31.699Z</time></trkpt><trkpt lat="43.435354" lon="11.770981"><ele>271.0</ele><time>2026-05-03T12:13:32.695Z</time></trkpt><trkpt lat="43.4353309" lon="11.7711458"><ele>270.5</ele><time>2026-05-03T12:13:33.707Z</time></trkpt><trkpt lat="43.4353034" lon="11.7713198"><ele>270.0</ele><time>2026-05-03T12:13:34.692Z</time></trkpt><trkpt lat="43.435285" lon="11.7715048"><ele>269.5</ele><time>2026-05-03T12:13:35.705Z</time></trkpt><trkpt lat="43.4352803" lon="11.7716998"><ele>269.0</ele><time>2026-05-03T12:13:36.695Z</time></trkpt><trkpt lat="43.4352937" lon="11.7719047"><ele>268.6666666666667</ele><time>2026-05-03T12:13:37.693Z</time></trkpt><trkpt lat="43.4353129" lon="11.772116"><ele>268.3333333333333</ele><time>2026-05-03T12:13:38.682Z</time></trkpt><trkpt lat="43.4353349" lon="11.772326"><ele>268.0</ele><time>2026-05-03T12:13:39.698Z</time></trkpt><trkpt lat="43.4353574" lon="11.7725352"><ele>267.8</ele><time>2026-05-03T12:13:40.68Z</time></trkpt><trkpt lat="43.435374" lon="11.7727212"><ele>267.6</ele><time>2026-05-03T12:13:41.683Z</time></trkpt><trkpt lat="43.4353791" lon="11.7728683"><ele>267.4</ele><time>2026-05-03T12:13:42.678Z</time></trkpt><trkpt lat="43.4353845" lon="11.7729676"><ele>267.2</ele><time>2026-05-03T12:13:43.684Z</time></trkpt><trkpt lat="43.4354156" lon="11.7730541"><ele>267.0</ele><time>2026-05-03T12:13:59.687Z</time></trkpt><trkpt lat="43.43549" lon="11.7731094"><ele>267.4</ele><time>2026-05-03T12:14:01.693Z</time></trkpt><trkpt lat="43.4355528" lon="11.7731204"><ele>267.79999999999995</ele><time>2026-05-03T12:14:02.694Z</time></trkpt><trkpt lat="43.4356428" lon="11.773107"><ele>268.2</ele><time>2026-05-03T12:14:03.686Z</time></trkpt><trkpt lat="43.4357502" lon="11.7730883"><ele>268.59999999999997</ele><time>2026-05-03T12:14:04.695Z</time></trkpt><trkpt lat="43.4358701" lon="11.7730806"><ele>269.0</ele><time>2026-05-03T12:14:05.701Z</time></trkpt><trkpt lat="43.436005" lon="11.7730845"><ele>269.0</ele><time>2026-05-03T12:14:06.694Z</time></trkpt><trkpt lat="43.4361514" lon="11.7731059"><ele>269.0</ele><time>2026-05-03T12:14:07.699Z</time></trkpt><trkpt lat="43.4363016" lon="11.7731536"><ele>269.0</ele><time>2026-05-03T12:14:08.675Z</time></trkpt><trkpt lat="43.436445" lon="11.7732602"><ele>269.33333333333337</ele><time>2026-05-03T12:14:09.679Z</time></trkpt><trkpt lat="43.4365814" lon="11.7734119"><ele>269.6666666666667</ele><time>2026-05-03T12:14:10.697Z</time></trkpt><trkpt lat="43.4367035" lon="11.7735912"><ele>270.0</ele><time>2026-05-03T12:14:11.69Z</time></trkpt><trkpt lat="43.4367978" lon="11.7738028"><ele>270.0</ele><time>2026-05-03T12:14:12.696Z</time></trkpt><trkpt lat="43.4368614" lon="11.7740414"><ele>270.0</ele><time>2026-05-03T12:14:13.687Z</time></trkpt><trkpt lat="43.4369198" lon="11.7742815"><ele>270.0</ele><time>2026-05-03T12:14:14.687Z</time></trkpt><trkpt lat="43.4369699" lon="11.7745277"><ele>269.3333333333333</ele><time>2026-05-03T12:14:15.689Z</time></trkpt><trkpt lat="43.437019" lon="11.774774"><ele>268.66666666666663</ele><time>2026-05-03T12:14:16.697Z</time></trkpt><trkpt lat="43.4370704" lon="11.7750161"><ele>268.0</ele><time>2026-05-03T12:14:17.696Z</time></trkpt><trkpt lat="43.4371191" lon="11.7752531"><ele>267.0</ele><time>2026-05-03T12:14:18.694Z</time></trkpt><trkpt lat="43.4371693" lon="11.7754883"><ele>266.0</ele><time>2026-05-03T12:14:19.704Z</time></trkpt><trkpt lat="43.4372188" lon="11.7757148"><ele>265.0</ele><time>2026-05-03T12:14:20.699Z</time></trkpt><trkpt lat="43.4372663" lon="11.7759262"><ele>265.0</ele><time>2026-05-03T12:14:21.703Z</time></trkpt><trkpt lat="43.4373123" lon="11.7761321"><ele>265.0</ele><time>2026-05-03T12:14:22.702Z</time></trkpt><trkpt lat="43.4373551" lon="11.7763382"><ele>265.0</ele><time>2026-05-03T12:14:23.685Z</time></trkpt><trkpt lat="43.4373975" lon="11.7765357"><ele>265.0</ele><time>2026-05-03T12:14:24.7Z</time></trkpt><trkpt lat="43.4374404" lon="11.776725"><ele>265.0</ele><time>2026-05-03T12:14:25.688Z</time></trkpt><trkpt lat="43.4374836" lon="11.7769126"><ele>265.0</ele><time>2026-05-03T12:14:26.683Z</time></trkpt><trkpt lat="43.4375228" lon="11.7771039"><ele>265.0</ele><time>2026-05-03T12:14:27.7Z</time></trkpt><trkpt lat="43.4375675" lon="11.7772903"><ele>265.0</ele><time>2026-05-03T12:14:28.694Z</time></trkpt><trkpt lat="43.4376106" lon="11.7774701"><ele>265.0</ele><time>2026-05-03T12:14:29.69Z</time></trkpt><trkpt lat="43.4376476" lon="11.7776392"><ele>265.0</ele><time>2026-05-03T12:14:30.701Z</time></trkpt><trkpt lat="43.4376805" lon="11.7777978"><ele>265.0</ele><time>2026-05-03T12:14:31.702Z</time></trkpt><trkpt lat="43.4377101" lon="11.7779346"><ele>264.8</ele><time>2026-05-03T12:14:32.695Z</time></trkpt><trkpt lat="43.4377278" lon="11.7780463"><ele>264.6</ele><time>2026-05-03T12:14:33.694Z</time></trkpt><trkpt lat="43.4377573" lon="11.7781866"><ele>264.4</ele><time>2026-05-03T12:14:35.714Z</time></trkpt><trkpt lat="43.4378053" lon="11.7783705"><ele>264.2</ele><time>2026-05-03T12:14:37.707Z</time></trkpt><trkpt lat="43.437838" lon="11.7784999"><ele>264.0</ele><time>2026-05-03T12:14:38.689Z</time></trkpt><trkpt lat="43.4378758" lon="11.7786569"><ele>264.0</ele><time>2026-05-03T12:14:39.695Z</time></trkpt><trkpt lat="43.4379183" lon="11.7788394"><ele>264.0</ele><time>2026-05-03T12:14:40.702Z</time></trkpt><trkpt lat="43.4379631" lon="11.7790365"><ele>264.0</ele><time>2026-05-03T12:14:41.709Z</time></trkpt><trkpt lat="43.4380095" lon="11.7792462"><ele>264.0</ele><time>2026-05-03T12:14:42.7Z</time></trkpt><trkpt lat="43.4380615" lon="11.7794642"><ele>263.0</ele><time>2026-05-03T12:14:43.697Z</time></trkpt><trkpt lat="43.4381126" lon="11.7796829"><ele>262.0</ele><time>2026-05-03T12:14:44.694Z</time></trkpt><trkpt lat="43.4381685" lon="11.7798934"><ele>261.0</ele><time>2026-05-03T12:14:45.703Z</time></trkpt><trkpt lat="43.4382199" lon="11.7800988"><ele>261.3333333333333</ele><time>2026-05-03T12:14:46.695Z</time></trkpt><trkpt lat="43.4382776" lon="11.7803052"><ele>261.66666666666663</ele><time>2026-05-03T12:14:47.685Z</time></trkpt><trkpt lat="43.4383364" lon="11.7805127"><ele>262.0</ele><time>2026-05-03T12:14:48.691Z</time></trkpt><trkpt lat="43.4383974" lon="11.7807234"><ele>262.0</ele><time>2026-05-03T12:14:49.684Z</time></trkpt><trkpt lat="43.4384601" lon="11.7809379"><ele>262.0</ele><time>2026-05-03T12:14:50.698Z</time></trkpt><trkpt lat="43.4385282" lon="11.7811626"><ele>262.0</ele><time>2026-05-03T12:14:51.686Z</time></trkpt><trkpt lat="43.4385962" lon="11.7813905"><ele>261.66666666666663</ele><time>2026-05-03T12:14:52.703Z</time></trkpt><trkpt lat="43.4386682" lon="11.7816246"><ele>261.3333333333333</ele><time>2026-05-03T12:14:53.704Z</time></trkpt><trkpt lat="43.4387469" lon="11.7818626"><ele>261.0</ele><time>2026-05-03T12:14:54.694Z</time></trkpt><trkpt lat="43.4388301" lon="11.782098"><ele>261.0</ele><time>2026-05-03T12:14:55.694Z</time></trkpt><trkpt lat="43.4389175" lon="11.7823326"><ele>261.0</ele><time>2026-05-03T12:14:56.701Z</time></trkpt><trkpt lat="43.4390046" lon="11.7825795"><ele>261.0</ele><time>2026-05-03T12:14:57.697Z</time></trkpt><trkpt lat="43.4390948" lon="11.7828254"><ele>261.6666666666667</ele><time>2026-05-03T12:14:58.702Z</time></trkpt><trkpt lat="43.4391858" lon="11.7830748"><ele>262.33333333333337</ele><time>2026-05-03T12:14:59.691Z</time></trkpt><trkpt lat="43.4392775" lon="11.7833226"><ele>263.0</ele><time>2026-05-03T12:15:00.697Z</time></trkpt><trkpt lat="43.4393708" lon="11.7835749"><ele>263.33333333333337</ele><time>2026-05-03T12:15:01.701Z</time></trkpt><trkpt lat="43.4394677" lon="11.7838211"><ele>263.6666666666667</ele><time>2026-05-03T12:15:02.712Z</time></trkpt><trkpt lat="43.4395644" lon="11.7840677"><ele>264.0</ele><time>2026-05-03T12:15:03.691Z</time></trkpt><trkpt lat="43.4396617" lon="11.7843095"><ele>264.6666666666667</ele><time>2026-05-03T12:15:04.697Z</time></trkpt><trkpt lat="43.4397585" lon="11.7845531"><ele>265.33333333333337</ele><time>2026-05-03T12:15:05.709Z</time></trkpt><trkpt lat="43.4398523" lon="11.7847922"><ele>266.0</ele><time>2026-05-03T12:15:06.682Z</time></trkpt><trkpt lat="43.4399428" lon="11.7850286"><ele>267.6666666666667</ele><time>2026-05-03T12:15:07.701Z</time></trkpt><trkpt lat="43.4400348" lon="11.7852649"><ele>269.3333333333333</ele><time>2026-05-03T12:15:08.702Z</time></trkpt><trkpt lat="43.4401285" lon="11.7855043"><ele>271.0</ele><time>2026-05-03T12:15:09.701Z</time></trkpt><trkpt lat="43.4402229" lon="11.7857434"><ele>271.0</ele><time>2026-05-03T12:15:10.7Z</time></trkpt><trkpt lat="43.4403174" lon="11.7859893"><ele>271.0</ele><time>2026-05-03T12:15:11.706Z</time></trkpt><trkpt lat="43.440413" lon="11.7862336"><ele>271.0</ele><time>2026-05-03T12:15:12.712Z</time></trkpt><trkpt lat="43.4405097" lon="11.7864776"><ele>272.3333333333333</ele><time>2026-05-03T12:15:13.683Z</time></trkpt><trkpt lat="43.4406052" lon="11.7867265"><ele>273.6666666666667</ele><time>2026-05-03T12:15:14.691Z</time></trkpt><trkpt lat="43.4407003" lon="11.7869715"><ele>275.0</ele><time>2026-05-03T12:15:15.703Z</time></trkpt><trkpt lat="43.440795" lon="11.7872168"><ele>275.0</ele><time>2026-05-03T12:15:16.685Z</time></trkpt><trkpt lat="43.440889" lon="11.7874635"><ele>275.0</ele><time>2026-05-03T12:15:17.691Z</time></trkpt><trkpt lat="43.4409849" lon="11.7877114"><ele>275.0</ele><time>2026-05-03T12:15:18.697Z</time></trkpt><trkpt lat="43.441084" lon="11.787965"><ele>273.33333333333337</ele><time>2026-05-03T12:15:19.697Z</time></trkpt><trkpt lat="43.441182" lon="11.7882241"><ele>271.6666666666667</ele><time>2026-05-03T12:15:20.697Z</time></trkpt><trkpt lat="43.4412816" lon="11.7884799"><ele>270.0</ele><time>2026-05-03T12:15:21.696Z</time></trkpt><trkpt lat="43.4413843" lon="11.788735"><ele>268.6666666666667</ele><time>2026-05-03T12:15:22.701Z</time></trkpt><trkpt lat="43.4414875" lon="11.7889896"><ele>267.33333333333337</ele><time>2026-05-03T12:15:23.694Z</time></trkpt><trkpt lat="43.4415905" lon="11.7892515"><ele>266.0</ele><time>2026-05-03T12:15:24.698Z</time></trkpt><trkpt lat="43.4416941" lon="11.7895165"><ele>264.33333333333337</ele><time>2026-05-03T12:15:25.697Z</time></trkpt><trkpt lat="43.4417948" lon="11.7897835"><ele>262.6666666666667</ele><time>2026-05-03T12:15:26.695Z</time></trkpt><trkpt lat="43.4418956" lon="11.7900551"><ele>261.0</ele><time>2026-05-03T12:15:27.706Z</time></trkpt><trkpt lat="43.4419957" lon="11.7903216"><ele>260.0</ele><time>2026-05-03T12:15:28.688Z</time></trkpt><trkpt lat="43.4420989" lon="11.7905823"><ele>259.0</ele><time>2026-05-03T12:15:29.686Z</time></trkpt><trkpt lat="43.4422003" lon="11.7908457"><ele>258.0</ele><time>2026-05-03T12:15:30.691Z</time></trkpt><trkpt lat="43.4422997" lon="11.7911018"><ele>257.3333333333333</ele><time>2026-05-03T12:15:31.687Z</time></trkpt><trkpt lat="43.442394" lon="11.7913533"><ele>256.66666666666663</ele><time>2026-05-03T12:15:32.678Z</time></trkpt><trkpt lat="43.4424905" lon="11.7915988"><ele>256.0</ele><time>2026-05-03T12:15:33.69Z</time></trkpt><trkpt lat="43.4425837" lon="11.7918444"><ele>256.0</ele><time>2026-05-03T12:15:34.698Z</time></trkpt><trkpt lat="43.4426808" lon="11.7920879"><ele>256.0</ele><time>2026-05-03T12:15:35.695Z</time></trkpt><trkpt lat="43.4427752" lon="11.7923324"><ele>256.0</ele><time>2026-05-03T12:15:36.685Z</time></trkpt><trkpt lat="43.4428709" lon="11.7925776"><ele>255.0</ele><time>2026-05-03T12:15:37.694Z</time></trkpt><trkpt lat="43.4429664" lon="11.7928219"><ele>254.0</ele><time>2026-05-03T12:15:38.687Z</time></trkpt><trkpt lat="43.4430622" lon="11.7930696"><ele>253.0</ele><time>2026-05-03T12:15:39.702Z</time></trkpt><trkpt lat="43.4431597" lon="11.7933207"><ele>253.0</ele><time>2026-05-03T12:15:40.699Z</time></trkpt><trkpt lat="43.4432593" lon="11.7935607"><ele>253.0</ele><time>2026-05-03T12:15:41.68Z</time></trkpt><trkpt lat="43.4433604" lon="11.7938006"><ele>253.0</ele><time>2026-05-03T12:15:42.685Z</time></trkpt><trkpt lat="43.4434642" lon="11.7940313"><ele>253.0</ele><time>2026-05-03T12:15:43.699Z</time></trkpt><trkpt lat="43.4435694" lon="11.7942633"><ele>253.0</ele><time>2026-05-03T12:15:44.678Z</time></trkpt><trkpt lat="43.443682" lon="11.7944944"><ele>253.0</ele><time>2026-05-03T12:15:45.699Z</time></trkpt><trkpt lat="43.4437983" lon="11.7947224"><ele>252.33333333333331</ele><time>2026-05-03T12:15:46.685Z</time></trkpt><trkpt lat="43.4439172" lon="11.7949416"><ele>251.66666666666669</ele><time>2026-05-03T12:15:47.688Z</time></trkpt><trkpt lat="43.4440385" lon="11.7951537"><ele>251.0</ele><time>2026-05-03T12:15:48.702Z</time></trkpt><trkpt lat="43.4441617" lon="11.7953621"><ele>250.33333333333334</ele><time>2026-05-03T12:15:49.698Z</time></trkpt><trkpt lat="43.4442881" lon="11.7955632"><ele>249.66666666666669</ele><time>2026-05-03T12:15:50.686Z</time></trkpt><trkpt lat="43.4444157" lon="11.7957593"><ele>249.0</ele><time>2026-05-03T12:15:51.703Z</time></trkpt><trkpt lat="43.444539" lon="11.7959467"><ele>249.33333333333331</ele><time>2026-05-03T12:15:52.679Z</time></trkpt><trkpt lat="43.4446611" lon="11.7961175"><ele>249.66666666666666</ele><time>2026-05-03T12:15:53.696Z</time></trkpt><trkpt lat="43.4447843" lon="11.7962858"><ele>250.0</ele><time>2026-05-03T12:15:54.705Z</time></trkpt><trkpt lat="43.444912" lon="11.7964549"><ele>250.0</ele><time>2026-05-03T12:15:55.697Z</time></trkpt><trkpt lat="43.4450428" lon="11.7966266"><ele>250.0</ele><time>2026-05-03T12:15:56.688Z</time></trkpt><trkpt lat="43.4451738" lon="11.7968019"><ele>250.0</ele><time>2026-05-03T12:15:57.705Z</time></trkpt><trkpt lat="43.4453078" lon="11.7969828"><ele>250.0</ele><time>2026-05-03T12:15:58.695Z</time></trkpt><trkpt lat="43.445445" lon="11.7971704"><ele>250.0</ele><time>2026-05-03T12:15:59.699Z</time></trkpt><trkpt lat="43.4455817" lon="11.7973545"><ele>250.0</ele><time>2026-05-03T12:16:00.687Z</time></trkpt><trkpt lat="43.4457201" lon="11.7975403"><ele>249.33333333333331</ele><time>2026-05-03T12:16:01.701Z</time></trkpt><trkpt lat="43.445862" lon="11.797729"><ele>248.66666666666669</ele><time>2026-05-03T12:16:02.676Z</time></trkpt><trkpt lat="43.4459968" lon="11.7979162"><ele>248.0</ele><time>2026-05-03T12:16:03.707Z</time></trkpt><trkpt lat="43.4461356" lon="11.7980996"><ele>248.0</ele><time>2026-05-03T12:16:04.693Z</time></trkpt><trkpt lat="43.4462728" lon="11.7982864"><ele>248.0</ele><time>2026-05-03T12:16:05.687Z</time></trkpt><trkpt lat="43.4464113" lon="11.7984657"><ele>248.0</ele><time>2026-05-03T12:16:06.673Z</time></trkpt><trkpt lat="43.4465472" lon="11.7986501"><ele>248.0</ele><time>2026-05-03T12:16:07.688Z</time></trkpt><trkpt lat="43.446683" lon="11.7988324"><ele>248.0</ele><time>2026-05-03T12:16:08.692Z</time></trkpt><trkpt lat="43.4468168" lon="11.7990155"><ele>248.0</ele><time>2026-05-03T12:16:09.696Z</time></trkpt><trkpt lat="43.4469481" lon="11.7991957"><ele>247.33333333333334</ele><time>2026-05-03T12:16:10.684Z</time></trkpt><trkpt lat="43.4470775" lon="11.7993741"><ele>246.66666666666669</ele><time>2026-05-03T12:16:11.697Z</time></trkpt><trkpt lat="43.4472025" lon="11.7995445"><ele>246.0</ele><time>2026-05-03T12:16:12.69Z</time></trkpt><trkpt lat="43.447322" lon="11.7997051"><ele>246.0</ele><time>2026-05-03T12:16:13.692Z</time></trkpt><trkpt lat="43.44744" lon="11.7998616"><ele>246.0</ele><time>2026-05-03T12:16:14.68Z</time></trkpt><trkpt lat="43.4475515" lon="11.8000103"><ele>246.0</ele><time>2026-05-03T12:16:15.708Z</time></trkpt><trkpt lat="43.4476512" lon="11.800148"><ele>246.0</ele><time>2026-05-03T12:16:16.673Z</time></trkpt><trkpt lat="43.4477507" lon="11.8002735"><ele>246.0</ele><time>2026-05-03T12:16:17.693Z</time></trkpt><trkpt lat="43.4478401" lon="11.8003923"><ele>246.0</ele><time>2026-05-03T12:16:18.694Z</time></trkpt><trkpt lat="43.4479253" lon="11.800509"><ele>246.0</ele><time>2026-05-03T12:16:19.692Z</time></trkpt><trkpt lat="43.4480139" lon="11.8006294"><ele>246.25</ele><time>2026-05-03T12:16:20.688Z</time></trkpt><trkpt lat="43.4481043" lon="11.8007493"><ele>246.5</ele><time>2026-05-03T12:16:21.691Z</time></trkpt><trkpt lat="43.4481957" lon="11.8008747"><ele>246.75</ele><time>2026-05-03T12:16:22.693Z</time></trkpt><trkpt lat="43.4482863" lon="11.8009934"><ele>247.0</ele><time>2026-05-03T12:16:23.696Z</time></trkpt><trkpt lat="43.44837" lon="11.801109"><ele>247.25</ele><time>2026-05-03T12:16:24.694Z</time></trkpt><trkpt lat="43.4484565" lon="11.8012249"><ele>247.5</ele><time>2026-05-03T12:16:25.699Z</time></trkpt><trkpt lat="43.4485399" lon="11.8013445"><ele>247.75</ele><time>2026-05-03T12:16:26.679Z</time></trkpt><trkpt lat="43.4486235" lon="11.8014615"><ele>248.0</ele><time>2026-05-03T12:16:27.691Z</time></trkpt><trkpt lat="43.4487095" lon="11.8015794"><ele>248.0</ele><time>2026-05-03T12:16:28.698Z</time></trkpt><trkpt lat="43.4488016" lon="11.8016944"><ele>248.0</ele><time>2026-05-03T12:16:29.685Z</time></trkpt><trkpt lat="43.4488957" lon="11.8018173"><ele>248.0</ele><time>2026-05-03T12:16:30.689Z</time></trkpt><trkpt lat="43.448995" lon="11.8019469"><ele>248.0</ele><time>2026-05-03T12:16:31.688Z</time></trkpt><trkpt lat="43.4490997" lon="11.802087"><ele>248.0</ele><time>2026-05-03T12:16:32.691Z</time></trkpt><trkpt lat="43.4492105" lon="11.8022375"><ele>248.0</ele><time>2026-05-03T12:16:33.709Z</time></trkpt><trkpt lat="43.4493266" lon="11.8023941"><ele>248.0</ele><time>2026-05-03T12:16:34.687Z</time></trkpt><trkpt lat="43.4494451" lon="11.8025554"><ele>248.33333333333334</ele><time>2026-05-03T12:16:35.688Z</time></trkpt><trkpt lat="43.4495649" lon="11.8027141"><ele>248.66666666666669</ele><time>2026-05-03T12:16:36.685Z</time></trkpt><trkpt lat="43.4496821" lon="11.802874"><ele>249.0</ele><time>2026-05-03T12:16:37.682Z</time></trkpt><trkpt lat="43.4498017" lon="11.803036"><ele>248.33333333333331</ele><time>2026-05-03T12:16:38.697Z</time></trkpt><trkpt lat="43.4499223" lon="11.803201"><ele>247.66666666666666</ele><time>2026-05-03T12:16:39.698Z</time></trkpt><trkpt lat="43.450044" lon="11.8033676"><ele>247.0</ele><time>2026-05-03T12:16:40.7Z</time></trkpt><trkpt lat="43.4501668" lon="11.8035349"><ele>247.0</ele><time>2026-05-03T12:16:41.696Z</time></trkpt><trkpt lat="43.45029" lon="11.8037017"><ele>247.0</ele><time>2026-05-03T12:16:42.691Z</time></trkpt><trkpt lat="43.4504165" lon="11.8038728"><ele>247.0</ele><time>2026-05-03T12:16:43.692Z</time></trkpt><trkpt lat="43.4505443" lon="11.8040428"><ele>247.33333333333331</ele><time>2026-05-03T12:16:44.703Z</time></trkpt><trkpt lat="43.4506727" lon="11.8042171"><ele>247.66666666666669</ele><time>2026-05-03T12:16:45.694Z</time></trkpt><trkpt lat="43.4508006" lon="11.8043916"><ele>248.0</ele><time>2026-05-03T12:16:46.69Z</time></trkpt><trkpt lat="43.4509284" lon="11.8045627"><ele>248.0</ele><time>2026-05-03T12:16:47.704Z</time></trkpt><trkpt lat="43.4510563" lon="11.8047315"><ele>248.0</ele><time>2026-05-03T12:16:48.698Z</time></trkpt><trkpt lat="43.4511825" lon="11.8048997"><ele>248.0</ele><time>2026-05-03T12:16:49.706Z</time></trkpt><trkpt lat="43.4513037" lon="11.8050605"><ele>247.66666666666669</ele><time>2026-05-03T12:16:50.704Z</time></trkpt><trkpt lat="43.4514201" lon="11.8052148"><ele>247.33333333333331</ele><time>2026-05-03T12:16:51.697Z</time></trkpt><trkpt lat="43.4515348" lon="11.805366"><ele>247.0</ele><time>2026-05-03T12:16:52.69Z</time></trkpt><trkpt lat="43.4516427" lon="11.8055193"><ele>247.0</ele><time>2026-05-03T12:16:53.699Z</time></trkpt><trkpt lat="43.4517527" lon="11.8056715"><ele>247.0</ele><time>2026-05-03T12:16:54.694Z</time></trkpt><trkpt lat="43.4518634" lon="11.8058208"><ele>247.0</ele><time>2026-05-03T12:16:55.712Z</time></trkpt><trkpt lat="43.4519734" lon="11.8059687"><ele>247.0</ele><time>2026-05-03T12:16:56.689Z</time></trkpt><trkpt lat="43.4520893" lon="11.8061179"><ele>247.0</ele><time>2026-05-03T12:16:57.702Z</time></trkpt><trkpt lat="43.4522089" lon="11.8062704"><ele>247.0</ele><time>2026-05-03T12:16:58.693Z</time></trkpt><trkpt lat="43.4523298" lon="11.8064377"><ele>246.66666666666666</ele><time>2026-05-03T12:16:59.699Z</time></trkpt><trkpt lat="43.4524647" lon="11.8066062"><ele>246.33333333333331</ele><time>2026-05-03T12:17:00.698Z</time></trkpt><trkpt lat="43.4525993" lon="11.8067839"><ele>246.0</ele><time>2026-05-03T12:17:01.703Z</time></trkpt><trkpt lat="43.4527349" lon="11.8069636"><ele>245.66666666666669</ele><time>2026-05-03T12:17:02.683Z</time></trkpt><trkpt lat="43.452866" lon="11.8071448"><ele>245.33333333333334</ele><time>2026-05-03T12:17:03.691Z</time></trkpt><trkpt lat="43.4529959" lon="11.8073235"><ele>245.0</ele><time>2026-05-03T12:17:04.697Z</time></trkpt><trkpt lat="43.4531203" lon="11.8075031"><ele>245.33333333333334</ele><time>2026-05-03T12:17:05.699Z</time></trkpt><trkpt lat="43.4532474" lon="11.8076723"><ele>245.66666666666669</ele><time>2026-05-03T12:17:06.688Z</time></trkpt><trkpt lat="43.4533752" lon="11.8078412"><ele>246.0</ele><time>2026-05-03T12:17:07.71Z</time></trkpt><trkpt lat="43.4535014" lon="11.8080118"><ele>246.0</ele><time>2026-05-03T12:17:08.687Z</time></trkpt><trkpt lat="43.453626" lon="11.8081798"><ele>246.0</ele><time>2026-05-03T12:17:09.684Z</time></trkpt><trkpt lat="43.4537502" lon="11.808349"><ele>246.0</ele><time>2026-05-03T12:17:10.688Z</time></trkpt><trkpt lat="43.4538732" lon="11.808515"><ele>245.66666666666669</ele><time>2026-05-03T12:17:11.704Z</time></trkpt><trkpt lat="43.4539882" lon="11.8086746"><ele>245.33333333333334</ele><time>2026-05-03T12:17:12.689Z</time></trkpt><trkpt lat="43.4541017" lon="11.8088213"><ele>245.0</ele><time>2026-05-03T12:17:13.693Z</time></trkpt><trkpt lat="43.4542174" lon="11.8089703"><ele>245.0</ele><time>2026-05-03T12:17:14.69Z</time></trkpt><trkpt lat="43.4543339" lon="11.8091251"><ele>245.0</ele><time>2026-05-03T12:17:15.694Z</time></trkpt><trkpt lat="43.4544522" lon="11.8092855"><ele>245.0</ele><time>2026-05-03T12:17:16.681Z</time></trkpt><trkpt lat="43.4545729" lon="11.8094503"><ele>245.33333333333334</ele><time>2026-05-03T12:17:17.705Z</time></trkpt><trkpt lat="43.4546948" lon="11.8096168"><ele>245.66666666666669</ele><time>2026-05-03T12:17:18.697Z</time></trkpt><trkpt lat="43.4548135" lon="11.809781"><ele>246.0</ele><time>2026-05-03T12:17:19.697Z</time></trkpt><trkpt lat="43.4549319" lon="11.8099466"><ele>246.0</ele><time>2026-05-03T12:17:20.688Z</time></trkpt><trkpt lat="43.4550481" lon="11.8101117"><ele>246.0</ele><time>2026-05-03T12:17:21.693Z</time></trkpt><trkpt lat="43.4551658" lon="11.8102735"><ele>246.0</ele><time>2026-05-03T12:17:22.687Z</time></trkpt><trkpt lat="43.4552821" lon="11.8104341"><ele>246.0</ele><time>2026-05-03T12:17:23.691Z</time></trkpt><trkpt lat="43.4553973" lon="11.8105922"><ele>246.0</ele><time>2026-05-03T12:17:24.683Z</time></trkpt><trkpt lat="43.4555154" lon="11.8107554"><ele>246.0</ele><time>2026-05-03T12:17:25.689Z</time></trkpt><trkpt lat="43.4556355" lon="11.8109194"><ele>245.33333333333331</ele><time>2026-05-03T12:17:26.687Z</time></trkpt><trkpt lat="43.4557565" lon="11.8110865"><ele>244.66666666666666</ele><time>2026-05-03T12:17:27.679Z</time></trkpt><trkpt lat="43.4558821" lon="11.8112579"><ele>244.0</ele><time>2026-05-03T12:17:28.695Z</time></trkpt><trkpt lat="43.4560103" lon="11.8114358"><ele>244.0</ele><time>2026-05-03T12:17:29.709Z</time></trkpt><trkpt lat="43.4561383" lon="11.8116163"><ele>244.0</ele><time>2026-05-03T12:17:30.69Z</time></trkpt><trkpt lat="43.4562718" lon="11.811801"><ele>244.0</ele><time>2026-05-03T12:17:31.701Z</time></trkpt><trkpt lat="43.456408" lon="11.811985"><ele>244.0</ele><time>2026-05-03T12:17:32.695Z</time></trkpt><trkpt lat="43.456546" lon="11.8121704"><ele>244.0</ele><time>2026-05-03T12:17:33.695Z</time></trkpt><trkpt lat="43.4566875" lon="11.8123546"><ele>244.0</ele><time>2026-05-03T12:17:34.702Z</time></trkpt><trkpt lat="43.4568287" lon="11.8125467"><ele>244.0</ele><time>2026-05-03T12:17:35.696Z</time></trkpt><trkpt lat="43.4569664" lon="11.8127311"><ele>244.0</ele><time>2026-05-03T12:17:36.682Z</time></trkpt><trkpt lat="43.4570957" lon="11.8129218"><ele>244.0</ele><time>2026-05-03T12:17:37.689Z</time></trkpt><trkpt lat="43.4572183" lon="11.8131054"><ele>244.0</ele><time>2026-05-03T12:17:38.693Z</time></trkpt><trkpt lat="43.4573358" lon="11.8132903"><ele>244.0</ele><time>2026-05-03T12:17:39.672Z</time></trkpt><trkpt lat="43.4574483" lon="11.8134775"><ele>244.0</ele><time>2026-05-03T12:17:40.692Z</time></trkpt><trkpt lat="43.4575578" lon="11.8136664"><ele>244.33333333333331</ele><time>2026-05-03T12:17:41.701Z</time></trkpt><trkpt lat="43.4576652" lon="11.8138591"><ele>244.66666666666669</ele><time>2026-05-03T12:17:42.696Z</time></trkpt><trkpt lat="43.4577693" lon="11.8140511"><ele>245.0</ele><time>2026-05-03T12:17:43.702Z</time></trkpt><trkpt lat="43.457868" lon="11.8142561"><ele>245.33333333333334</ele><time>2026-05-03T12:17:44.706Z</time></trkpt><trkpt lat="43.4579638" lon="11.8144647"><ele>245.66666666666669</ele><time>2026-05-03T12:17:45.694Z</time></trkpt><trkpt lat="43.4580535" lon="11.8146816"><ele>246.0</ele><time>2026-05-03T12:17:46.692Z</time></trkpt><trkpt lat="43.4581439" lon="11.8149196"><ele>246.0</ele><time>2026-05-03T12:17:47.698Z</time></trkpt><trkpt lat="43.4582353" lon="11.8151684"><ele>246.0</ele><time>2026-05-03T12:17:48.69Z</time></trkpt><trkpt lat="43.4583196" lon="11.8154173"><ele>246.0</ele><time>2026-05-03T12:17:49.691Z</time></trkpt><trkpt lat="43.4583968" lon="11.8156689"><ele>246.0</ele><time>2026-05-03T12:17:50.709Z</time></trkpt><trkpt lat="43.4584697" lon="11.8159202"><ele>246.0</ele><time>2026-05-03T12:17:51.7Z</time></trkpt><trkpt lat="43.4585399" lon="11.8161677"><ele>246.0</ele><time>2026-05-03T12:17:52.689Z</time></trkpt><trkpt lat="43.4586094" lon="11.8164089"><ele>246.0</ele><time>2026-05-03T12:17:53.7Z</time></trkpt><trkpt lat="43.4586781" lon="11.8166456"><ele>246.0</ele><time>2026-05-03T12:17:54.703Z</time></trkpt><trkpt lat="43.4587364" lon="11.8168525"><ele>246.0</ele><time>2026-05-03T12:17:55.697Z</time></trkpt><trkpt lat="43.4587906" lon="11.8170379"><ele>246.0</ele><time>2026-05-03T12:17:56.687Z</time></trkpt><trkpt lat="43.4588463" lon="11.8172353"><ele>246.0</ele><time>2026-05-03T12:17:57.696Z</time></trkpt><trkpt lat="43.4589027" lon="11.8174487"><ele>246.0</ele><time>2026-05-03T12:17:58.695Z</time></trkpt><trkpt lat="43.4589667" lon="11.8176769"><ele>245.0</ele><time>2026-05-03T12:17:59.719Z</time></trkpt><trkpt lat="43.4590462" lon="11.8179247"><ele>244.0</ele><time>2026-05-03T12:18:00.686Z</time></trkpt><trkpt lat="43.4591306" lon="11.8182031"><ele>243.0</ele><time>2026-05-03T12:18:01.688Z</time></trkpt><trkpt lat="43.459217" lon="11.818499"><ele>241.0</ele><time>2026-05-03T12:18:02.687Z</time></trkpt><trkpt lat="43.4592987" lon="11.8188182"><ele>239.0</ele><time>2026-05-03T12:18:03.69Z</time></trkpt><trkpt lat="43.4593825" lon="11.8191442"><ele>239.5</ele><time>2026-05-03T12:18:04.697Z</time></trkpt><trkpt lat="43.4594662" lon="11.8194688"><ele>240.0</ele><time>2026-05-03T12:18:05.691Z</time></trkpt><trkpt lat="43.4595491" lon="11.8197786"><ele>239.0</ele><time>2026-05-03T12:18:06.687Z</time></trkpt><trkpt lat="43.4596354" lon="11.8200775"><ele>238.0</ele><time>2026-05-03T12:18:07.699Z</time></trkpt><trkpt lat="43.459713" lon="11.8203566"><ele>239.66666666666666</ele><time>2026-05-03T12:18:08.696Z</time></trkpt><trkpt lat="43.4597892" lon="11.820614"><ele>241.33333333333331</ele><time>2026-05-03T12:18:09.698Z</time></trkpt><trkpt lat="43.4598605" lon="11.8208668"><ele>243.0</ele><time>2026-05-03T12:18:10.688Z</time></trkpt><trkpt lat="43.4599374" lon="11.821139"><ele>244.0</ele><time>2026-05-03T12:18:11.699Z</time></trkpt><trkpt lat="43.4600317" lon="11.8214476"><ele>245.0</ele><time>2026-05-03T12:18:12.687Z</time></trkpt><trkpt lat="43.4601227" lon="11.8217846"><ele>244.5</ele><time>2026-05-03T12:18:13.683Z</time></trkpt><trkpt lat="43.4602004" lon="11.8221327"><ele>244.0</ele><time>2026-05-03T12:18:14.695Z</time></trkpt><trkpt lat="43.4602692" lon="11.8224638"><ele>244.0</ele><time>2026-05-03T12:18:15.699Z</time></trkpt><trkpt lat="43.4603378" lon="11.8227756"><ele>244.0</ele><time>2026-05-03T12:18:16.696Z</time></trkpt><trkpt lat="43.4604047" lon="11.8230726"><ele>244.33333333333331</ele><time>2026-05-03T12:18:17.693Z</time></trkpt><trkpt lat="43.4604635" lon="11.8233575"><ele>244.66666666666669</ele><time>2026-05-03T12:18:18.701Z</time></trkpt><trkpt lat="43.4605234" lon="11.8236306"><ele>245.0</ele><time>2026-05-03T12:18:19.695Z</time></trkpt><trkpt lat="43.4605764" lon="11.8239025"><ele>245.0</ele><time>2026-05-03T12:18:20.697Z</time></trkpt><trkpt lat="43.4606289" lon="11.8241704"><ele>245.0</ele><time>2026-05-03T12:18:21.695Z</time></trkpt><trkpt lat="43.4606813" lon="11.8244467"><ele>245.0</ele><time>2026-05-03T12:18:22.691Z</time></trkpt><trkpt lat="43.4607398" lon="11.8247468"><ele>245.5</ele><time>2026-05-03T12:18:23.692Z</time></trkpt><trkpt lat="43.4608004" lon="11.8250706"><ele>246.0</ele><time>2026-05-03T12:18:24.689Z</time></trkpt><trkpt lat="43.4608545" lon="11.8253984"><ele>246.0</ele><time>2026-05-03T12:18:25.694Z</time></trkpt><trkpt lat="43.4608986" lon="11.8257053"><ele>246.0</ele><time>2026-05-03T12:18:26.717Z</time></trkpt><trkpt lat="43.4609304" lon="11.8259818"><ele>246.0</ele><time>2026-05-03T12:18:27.699Z</time></trkpt><trkpt lat="43.4609597" lon="11.8262329"><ele>245.33333333333331</ele><time>2026-05-03T12:18:28.693Z</time></trkpt><trkpt lat="43.4609925" lon="11.8264748"><ele>244.66666666666666</ele><time>2026-05-03T12:18:29.697Z</time></trkpt><trkpt lat="43.4610219" lon="11.826722"><ele>244.0</ele><time>2026-05-03T12:18:30.675Z</time></trkpt><trkpt lat="43.4610507" lon="11.8269721"><ele>244.0</ele><time>2026-05-03T12:18:31.695Z</time></trkpt><trkpt lat="43.4610782" lon="11.8272232"><ele>244.0</ele><time>2026-05-03T12:18:32.682Z</time></trkpt><trkpt lat="43.4611029" lon="11.8274736"><ele>244.0</ele><time>2026-05-03T12:18:33.703Z</time></trkpt><trkpt lat="43.461126" lon="11.8277235"><ele>244.33333333333331</ele><time>2026-05-03T12:18:34.687Z</time></trkpt><trkpt lat="43.4611511" lon="11.827972"><ele>244.66666666666669</ele><time>2026-05-03T12:18:35.709Z</time></trkpt><trkpt lat="43.4611735" lon="11.8282226"><ele>245.0</ele><time>2026-05-03T12:18:36.701Z</time></trkpt><trkpt lat="43.4611978" lon="11.8284725"><ele>244.33333333333334</ele><time>2026-05-03T12:18:37.695Z</time></trkpt><trkpt lat="43.4612182" lon="11.8287323"><ele>243.66666666666669</ele><time>2026-05-03T12:18:38.694Z</time></trkpt><trkpt lat="43.4612433" lon="11.8289981"><ele>243.0</ele><time>2026-05-03T12:18:39.692Z</time></trkpt><trkpt lat="43.4612732" lon="11.8292745"><ele>243.5</ele><time>2026-05-03T12:18:40.696Z</time></trkpt><trkpt lat="43.4613111" lon="11.8295693"><ele>244.0</ele><time>2026-05-03T12:18:41.686Z</time></trkpt><trkpt lat="43.4613431" lon="11.8298969"><ele>245.0</ele><time>2026-05-03T12:18:42.697Z</time></trkpt><trkpt lat="43.4613741" lon="11.8302442"><ele>246.0</ele><time>2026-05-03T12:18:43.7Z</time></trkpt><trkpt lat="43.4613985" lon="11.830604"><ele>245.5</ele><time>2026-05-03T12:18:44.677Z</time></trkpt><trkpt lat="43.4614274" lon="11.8309773"><ele>245.0</ele><time>2026-05-03T12:18:45.683Z</time></trkpt><trkpt lat="43.4614614" lon="11.8313534"><ele>245.0</ele><time>2026-05-03T12:18:46.683Z</time></trkpt><trkpt lat="43.461503" lon="11.8317268"><ele>245.0</ele><time>2026-05-03T12:18:47.688Z</time></trkpt><trkpt lat="43.4615468" lon="11.8321026"><ele>244.5</ele><time>2026-05-03T12:18:48.693Z</time></trkpt><trkpt lat="43.4615871" lon="11.8324818"><ele>244.0</ele><time>2026-05-03T12:18:49.701Z</time></trkpt><trkpt lat="43.4616247" lon="11.8328685"><ele>243.5</ele><time>2026-05-03T12:18:50.712Z</time></trkpt><trkpt lat="43.4616654" lon="11.8332511"><ele>243.0</ele><time>2026-05-03T12:18:51.695Z</time></trkpt><trkpt lat="43.4617028" lon="11.8336351"><ele>243.0</ele><time>2026-05-03T12:18:52.697Z</time></trkpt><trkpt lat="43.4617456" lon="11.8340177"><ele>243.0</ele><time>2026-05-03T12:18:53.695Z</time></trkpt><trkpt lat="43.4617904" lon="11.8343942"><ele>244.0</ele><time>2026-05-03T12:18:54.695Z</time></trkpt><trkpt lat="43.4618399" lon="11.8347706"><ele>245.0</ele><time>2026-05-03T12:18:55.699Z</time></trkpt><trkpt lat="43.4619059" lon="11.8351424"><ele>245.0</ele><time>2026-05-03T12:18:56.698Z</time></trkpt><trkpt lat="43.4619957" lon="11.8354974"><ele>245.0</ele><time>2026-05-03T12:18:57.69Z</time></trkpt><trkpt lat="43.4621012" lon="11.8358473"><ele>245.0</ele><time>2026-05-03T12:18:58.678Z</time></trkpt><trkpt lat="43.4622294" lon="11.8361785"><ele>245.0</ele><time>2026-05-03T12:18:59.694Z</time></trkpt><trkpt lat="43.4623741" lon="11.8364827"><ele>245.0</ele><time>2026-05-03T12:19:00.7Z</time></trkpt><trkpt lat="43.4625317" lon="11.8367645"><ele>245.0</ele><time>2026-05-03T12:19:01.693Z</time></trkpt><trkpt lat="43.4626906" lon="11.8370274"><ele>246.0</ele><time>2026-05-03T12:19:02.684Z</time></trkpt><trkpt lat="43.4628527" lon="11.8372714"><ele>247.0</ele><time>2026-05-03T12:19:03.71Z</time></trkpt><trkpt lat="43.4630128" lon="11.8375"><ele>247.33333333333331</ele><time>2026-05-03T12:19:04.696Z</time></trkpt><trkpt lat="43.4631813" lon="11.8377159"><ele>247.66666666666669</ele><time>2026-05-03T12:19:05.696Z</time></trkpt><trkpt lat="43.4633464" lon="11.8378981"><ele>248.0</ele><time>2026-05-03T12:19:06.69Z</time></trkpt><trkpt lat="43.4635039" lon="11.8380421"><ele>248.0</ele><time>2026-05-03T12:19:07.685Z</time></trkpt><trkpt lat="43.4636437" lon="11.8381696"><ele>248.0</ele><time>2026-05-03T12:19:08.689Z</time></trkpt><trkpt lat="43.4637759" lon="11.8382859"><ele>248.0</ele><time>2026-05-03T12:19:09.69Z</time></trkpt><trkpt lat="43.4639116" lon="11.8383985"><ele>247.33333333333334</ele><time>2026-05-03T12:19:10.696Z</time></trkpt><trkpt lat="43.464049" lon="11.8385058"><ele>246.66666666666669</ele><time>2026-05-03T12:19:11.69Z</time></trkpt><trkpt lat="43.4641801" lon="11.838618"><ele>246.0</ele><time>2026-05-03T12:19:12.689Z</time></trkpt><trkpt lat="43.4643209" lon="11.838738"><ele>246.0</ele><time>2026-05-03T12:19:13.702Z</time></trkpt><trkpt lat="43.4644788" lon="11.8388665"><ele>246.0</ele><time>2026-05-03T12:19:14.687Z</time></trkpt><trkpt lat="43.4646447" lon="11.8390124"><ele>246.0</ele><time>2026-05-03T12:19:15.692Z</time></trkpt><trkpt lat="43.464827" lon="11.8391802"><ele>245.0</ele><time>2026-05-03T12:19:16.69Z</time></trkpt><trkpt lat="43.4650165" lon="11.8393558"><ele>244.0</ele><time>2026-05-03T12:19:17.688Z</time></trkpt><trkpt lat="43.465219" lon="11.8395262"><ele>244.0</ele><time>2026-05-03T12:19:18.689Z</time></trkpt><trkpt lat="43.4654293" lon="11.8397013"><ele>244.0</ele><time>2026-05-03T12:19:19.704Z</time></trkpt><trkpt lat="43.4656437" lon="11.8398826"><ele>244.0</ele><time>2026-05-03T12:19:20.704Z</time></trkpt><trkpt lat="43.4658626" lon="11.8400712"><ele>244.0</ele><time>2026-05-03T12:19:21.692Z</time></trkpt><trkpt lat="43.4660847" lon="11.8402608"><ele>245.5</ele><time>2026-05-03T12:19:22.693Z</time></trkpt><trkpt lat="43.4663089" lon="11.8404556"><ele>247.0</ele><time>2026-05-03T12:19:23.677Z</time></trkpt><trkpt lat="43.4665276" lon="11.8406651"><ele>247.0</ele><time>2026-05-03T12:19:24.693Z</time></trkpt><trkpt lat="43.4667401" lon="11.8408859"><ele>247.0</ele><time>2026-05-03T12:19:25.686Z</time></trkpt><trkpt lat="43.4669421" lon="11.8411174"><ele>247.5</ele><time>2026-05-03T12:19:26.685Z</time></trkpt><trkpt lat="43.4671332" lon="11.8413637"><ele>248.0</ele><time>2026-05-03T12:19:27.697Z</time></trkpt><trkpt lat="43.4673154" lon="11.8416157"><ele>246.5</ele><time>2026-05-03T12:19:28.691Z</time></trkpt><trkpt lat="43.4674888" lon="11.8418782"><ele>245.0</ele><time>2026-05-03T12:19:29.691Z</time></trkpt><trkpt lat="43.4676553" lon="11.8421535"><ele>245.0</ele><time>2026-05-03T12:19:30.691Z</time></trkpt><trkpt lat="43.4678162" lon="11.8424389"><ele>245.0</ele><time>2026-05-03T12:19:31.703Z</time></trkpt><trkpt lat="43.4679644" lon="11.8427356"><ele>246.0</ele><time>2026-05-03T12:19:32.687Z</time></trkpt><trkpt lat="43.4681023" lon="11.8430437"><ele>247.0</ele><time>2026-05-03T12:19:33.693Z</time></trkpt><trkpt lat="43.4682288" lon="11.8433563"><ele>247.0</ele><time>2026-05-03T12:19:34.687Z</time></trkpt><trkpt lat="43.4683507" lon="11.8436732"><ele>247.0</ele><time>2026-05-03T12:19:35.678Z</time></trkpt><trkpt lat="43.4684625" lon="11.8439987"><ele>247.5</ele><time>2026-05-03T12:19:36.691Z</time></trkpt><trkpt lat="43.4685668" lon="11.8443294"><ele>248.0</ele><time>2026-05-03T12:19:37.699Z</time></trkpt><trkpt lat="43.4686533" lon="11.8446669"><ele>248.0</ele><time>2026-05-03T12:19:38.693Z</time></trkpt><trkpt lat="43.4687303" lon="11.8450019"><ele>248.0</ele><time>2026-05-03T12:19:39.69Z</time></trkpt><trkpt lat="43.4687941" lon="11.8453201"><ele>247.33333333333334</ele><time>2026-05-03T12:19:40.682Z</time></trkpt><trkpt lat="43.4688445" lon="11.8456212"><ele>246.66666666666669</ele><time>2026-05-03T12:19:41.695Z</time></trkpt><trkpt lat="43.4688804" lon="11.8459038"><ele>246.0</ele><time>2026-05-03T12:19:42.694Z</time></trkpt><trkpt lat="43.4689063" lon="11.8461828"><ele>246.0</ele><time>2026-05-03T12:19:43.686Z</time></trkpt><trkpt lat="43.4689239" lon="11.8464576"><ele>246.0</ele><time>2026-05-03T12:19:44.669Z</time></trkpt><trkpt lat="43.468938" lon="11.8467267"><ele>246.0</ele><time>2026-05-03T12:19:45.69Z</time></trkpt><trkpt lat="43.4689472" lon="11.8469927"><ele>246.0</ele><time>2026-05-03T12:19:46.689Z</time></trkpt><trkpt lat="43.46895" lon="11.8472584"><ele>246.0</ele><time>2026-05-03T12:19:47.704Z</time></trkpt><trkpt lat="43.4689454" lon="11.8475239"><ele>246.0</ele><time>2026-05-03T12:19:48.695Z</time></trkpt><trkpt lat="43.4689356" lon="11.8477857"><ele>245.66666666666669</ele><time>2026-05-03T12:19:49.687Z</time></trkpt><trkpt lat="43.4689246" lon="11.8480505"><ele>245.33333333333334</ele><time>2026-05-03T12:19:50.687Z</time></trkpt><trkpt lat="43.4689141" lon="11.8483184"><ele>245.0</ele><time>2026-05-03T12:19:51.692Z</time></trkpt><trkpt lat="43.4689027" lon="11.8486121"><ele>245.0</ele><time>2026-05-03T12:19:52.689Z</time></trkpt><trkpt lat="43.4688976" lon="11.8489395"><ele>245.0</ele><time>2026-05-03T12:19:53.695Z</time></trkpt><trkpt lat="43.468885" lon="11.8492898"><ele>245.0</ele><time>2026-05-03T12:19:54.689Z</time></trkpt><trkpt lat="43.468857" lon="11.8496615"><ele>245.0</ele><time>2026-05-03T12:19:55.695Z</time></trkpt><trkpt lat="43.4688264" lon="11.8500382"><ele>245.5</ele><time>2026-05-03T12:19:56.677Z</time></trkpt><trkpt lat="43.4688012" lon="11.8504191"><ele>246.0</ele><time>2026-05-03T12:19:57.694Z</time></trkpt><trkpt lat="43.4687792" lon="11.8508012"><ele>247.0</ele><time>2026-05-03T12:19:58.687Z</time></trkpt><trkpt lat="43.468756" lon="11.8511898"><ele>248.0</ele><time>2026-05-03T12:19:59.684Z</time></trkpt><trkpt lat="43.4687322" lon="11.8515788"><ele>249.0</ele><time>2026-05-03T12:20:00.683Z</time></trkpt><trkpt lat="43.4687071" lon="11.8519683"><ele>250.0</ele><time>2026-05-03T12:20:01.693Z</time></trkpt><trkpt lat="43.4686874" lon="11.8523535"><ele>249.5</ele><time>2026-05-03T12:20:02.68Z</time></trkpt><trkpt lat="43.4686688" lon="11.852736"><ele>249.0</ele><time>2026-05-03T12:20:03.687Z</time></trkpt><trkpt lat="43.4686562" lon="11.8531174"><ele>247.5</ele><time>2026-05-03T12:20:04.698Z</time></trkpt><trkpt lat="43.4686439" lon="11.8534926"><ele>246.0</ele><time>2026-05-03T12:20:05.691Z</time></trkpt><trkpt lat="43.4686317" lon="11.8538706"><ele>246.0</ele><time>2026-05-03T12:20:06.693Z</time></trkpt><trkpt lat="43.4686141" lon="11.8542489"><ele>246.0</ele><time>2026-05-03T12:20:07.698Z</time></trkpt><trkpt lat="43.4685928" lon="11.8546201"><ele>245.5</ele><time>2026-05-03T12:20:08.677Z</time></trkpt><trkpt lat="43.4685723" lon="11.8549825"><ele>245.0</ele><time>2026-05-03T12:20:09.68Z</time></trkpt><trkpt lat="43.4685508" lon="11.8553281"><ele>246.0</ele><time>2026-05-03T12:20:10.677Z</time></trkpt><trkpt lat="43.4685358" lon="11.8556707"><ele>247.0</ele><time>2026-05-03T12:20:11.69Z</time></trkpt><trkpt lat="43.468525" lon="11.8560129"><ele>247.0</ele><time>2026-05-03T12:20:12.691Z</time></trkpt><trkpt lat="43.4685089" lon="11.8563667"><ele>247.0</ele><time>2026-05-03T12:20:13.705Z</time></trkpt><trkpt lat="43.4684927" lon="11.8567238"><ele>246.0</ele><time>2026-05-03T12:20:14.692Z</time></trkpt><trkpt lat="43.4684741" lon="11.8570795"><ele>245.0</ele><time>2026-05-03T12:20:15.693Z</time></trkpt><trkpt lat="43.4684526" lon="11.8574186"><ele>245.33333333333334</ele><time>2026-05-03T12:20:16.69Z</time></trkpt><trkpt lat="43.468429" lon="11.8577353"><ele>245.66666666666669</ele><time>2026-05-03T12:20:17.693Z</time></trkpt><trkpt lat="43.4684011" lon="11.85803"><ele>246.0</ele><time>2026-05-03T12:20:18.687Z</time></trkpt><trkpt lat="43.4683807" lon="11.8582861"><ele>246.0</ele><time>2026-05-03T12:20:19.696Z</time></trkpt><trkpt lat="43.4683676" lon="11.8585085"><ele>246.0</ele><time>2026-05-03T12:20:20.731Z</time></trkpt><trkpt lat="43.4683508" lon="11.8587113"><ele>246.0</ele><time>2026-05-03T12:20:21.702Z</time></trkpt><trkpt lat="43.4683436" lon="11.8588973"><ele>246.0</ele><time>2026-05-03T12:20:22.703Z</time></trkpt><trkpt lat="43.4683341" lon="11.8590646"><ele>246.0</ele><time>2026-05-03T12:20:23.689Z</time></trkpt><trkpt lat="43.4683264" lon="11.859227"><ele>246.0</ele><time>2026-05-03T12:20:24.694Z</time></trkpt><trkpt lat="43.4683156" lon="11.8594027"><ele>246.0</ele><time>2026-05-03T12:20:25.695Z</time></trkpt><trkpt lat="43.4683001" lon="11.8595925"><ele>246.0</ele><time>2026-05-03T12:20:26.694Z</time></trkpt><trkpt lat="43.4682772" lon="11.8597971"><ele>245.66666666666669</ele><time>2026-05-03T12:20:27.687Z</time></trkpt><trkpt lat="43.4682388" lon="11.8600111"><ele>245.33333333333334</ele><time>2026-05-03T12:20:28.696Z</time></trkpt><trkpt lat="43.4681735" lon="11.8602246"><ele>245.0</ele><time>2026-05-03T12:20:29.706Z</time></trkpt><trkpt lat="43.4680689" lon="11.8604211"><ele>246.0</ele><time>2026-05-03T12:20:30.694Z</time></trkpt><trkpt lat="43.4679398" lon="11.8606057"><ele>247.0</ele><time>2026-05-03T12:20:31.7Z</time></trkpt><trkpt lat="43.4678344" lon="11.8607927"><ele>248.0</ele><time>2026-05-03T12:20:32.693Z</time></trkpt><trkpt lat="43.467771" lon="11.860999"><ele>248.0</ele><time>2026-05-03T12:20:33.686Z</time></trkpt><trkpt lat="43.4677611" lon="11.8612272"><ele>248.0</ele><time>2026-05-03T12:20:34.69Z</time></trkpt><trkpt lat="43.4678052" lon="11.8614437"><ele>248.0</ele><time>2026-05-03T12:20:35.689Z</time></trkpt><trkpt lat="43.4678766" lon="11.8616343"><ele>247.5</ele><time>2026-05-03T12:20:36.693Z</time></trkpt><trkpt lat="43.4679384" lon="11.8618172"><ele>247.0</ele><time>2026-05-03T12:20:37.694Z</time></trkpt><trkpt lat="43.4679732" lon="11.861987"><ele>246.5</ele><time>2026-05-03T12:20:38.683Z</time></trkpt><trkpt lat="43.4679666" lon="11.862134"><ele>246.0</ele><time>2026-05-03T12:20:39.683Z</time></trkpt><trkpt lat="43.4679618" lon="11.8622618"><ele>246.66666666666666</ele><time>2026-05-03T12:20:40.675Z</time></trkpt><trkpt lat="43.4679871" lon="11.8623721"><ele>247.33333333333331</ele><time>2026-05-03T12:20:41.704Z</time></trkpt><trkpt lat="43.4680453" lon="11.8624495"><ele>248.0</ele><time>2026-05-03T12:20:42.689Z</time></trkpt><trkpt lat="43.4681227" lon="11.8624831"><ele>248.66666666666666</ele><time>2026-05-03T12:20:43.692Z</time></trkpt><trkpt lat="43.4681912" lon="11.8624594"><ele>249.33333333333331</ele><time>2026-05-03T12:20:44.696Z</time></trkpt><trkpt lat="43.4682608" lon="11.8623932"><ele>250.0</ele><time>2026-05-03T12:20:45.697Z</time></trkpt><trkpt lat="43.468305" lon="11.8622748"><ele>250.0</ele><time>2026-05-03T12:20:46.69Z</time></trkpt><trkpt lat="43.4683367" lon="11.862141"><ele>250.0</ele><time>2026-05-03T12:20:47.684Z</time></trkpt><trkpt lat="43.4683551" lon="11.8619854"><ele>250.0</ele><time>2026-05-03T12:20:48.691Z</time></trkpt><trkpt lat="43.4684027" lon="11.8618296"><ele>250.0</ele><time>2026-05-03T12:20:49.694Z</time></trkpt><trkpt lat="43.4684916" lon="11.8617032"><ele>249.66666666666666</ele><time>2026-05-03T12:20:50.682Z</time></trkpt><trkpt lat="43.4686135" lon="11.8615901"><ele>249.33333333333331</ele><time>2026-05-03T12:20:51.702Z</time></trkpt><trkpt lat="43.4687484" lon="11.8615064"><ele>249.0</ele><time>2026-05-03T12:20:52.676Z</time></trkpt><trkpt lat="43.468909" lon="11.8614608"><ele>249.0</ele><time>2026-05-03T12:20:53.689Z</time></trkpt><trkpt lat="43.4690829" lon="11.8614573"><ele>249.0</ele><time>2026-05-03T12:20:54.695Z</time></trkpt><trkpt lat="43.4692587" lon="11.8614841"><ele>249.0</ele><time>2026-05-03T12:20:55.694Z</time></trkpt><trkpt lat="43.4694353" lon="11.8615291"><ele>248.66666666666669</ele><time>2026-05-03T12:20:56.686Z</time></trkpt><trkpt lat="43.4696201" lon="11.8615738"><ele>248.33333333333334</ele><time>2026-05-03T12:20:57.683Z</time></trkpt><trkpt lat="43.4698022" lon="11.8616218"><ele>248.0</ele><time>2026-05-03T12:20:58.692Z</time></trkpt><trkpt lat="43.4699858" lon="11.8616792"><ele>248.0</ele><time>2026-05-03T12:20:59.696Z</time></trkpt><trkpt lat="43.4701719" lon="11.8617337"><ele>248.0</ele><time>2026-05-03T12:21:00.703Z</time></trkpt><trkpt lat="43.4703568" lon="11.8617823"><ele>248.0</ele><time>2026-05-03T12:21:01.69Z</time></trkpt><trkpt lat="43.4705507" lon="11.8618322"><ele>248.33333333333334</ele><time>2026-05-03T12:21:02.701Z</time></trkpt><trkpt lat="43.4707385" lon="11.8618826"><ele>248.66666666666669</ele><time>2026-05-03T12:21:03.694Z</time></trkpt><trkpt lat="43.4709197" lon="11.8619372"><ele>249.0</ele><time>2026-05-03T12:21:04.698Z</time></trkpt><trkpt lat="43.4711" lon="11.8619961"><ele>249.33333333333331</ele><time>2026-05-03T12:21:05.687Z</time></trkpt><trkpt lat="43.4712799" lon="11.8620522"><ele>249.66666666666666</ele><time>2026-05-03T12:21:06.685Z</time></trkpt><trkpt lat="43.4714601" lon="11.8621011"><ele>250.0</ele><time>2026-05-03T12:21:07.692Z</time></trkpt><trkpt lat="43.4716399" lon="11.8621507"><ele>250.0</ele><time>2026-05-03T12:21:08.679Z</time></trkpt><trkpt lat="43.4718182" lon="11.8622218"><ele>250.0</ele><time>2026-05-03T12:21:09.707Z</time></trkpt><trkpt lat="43.4719928" lon="11.8623036"><ele>250.0</ele><time>2026-05-03T12:21:10.685Z</time></trkpt><trkpt lat="43.4721579" lon="11.8624072"><ele>249.0</ele><time>2026-05-03T12:21:11.677Z</time></trkpt><trkpt lat="43.4723206" lon="11.8625168"><ele>248.0</ele><time>2026-05-03T12:21:12.696Z</time></trkpt><trkpt lat="43.4724798" lon="11.8626347"><ele>247.0</ele><time>2026-05-03T12:21:13.699Z</time></trkpt><trkpt lat="43.4726396" lon="11.862761"><ele>246.66666666666666</ele><time>2026-05-03T12:21:14.691Z</time></trkpt><trkpt lat="43.4728042" lon="11.8628936"><ele>246.33333333333331</ele><time>2026-05-03T12:21:15.7Z</time></trkpt><trkpt lat="43.47298" lon="11.863038"><ele>246.0</ele><time>2026-05-03T12:21:16.691Z</time></trkpt><trkpt lat="43.4731672" lon="11.8631895"><ele>246.0</ele><time>2026-05-03T12:21:17.691Z</time></trkpt><trkpt lat="43.4733566" lon="11.8633522"><ele>246.0</ele><time>2026-05-03T12:21:18.704Z</time></trkpt><trkpt lat="43.4735515" lon="11.863526"><ele>245.5</ele><time>2026-05-03T12:21:19.692Z</time></trkpt><trkpt lat="43.4737479" lon="11.8637095"><ele>245.0</ele><time>2026-05-03T12:21:20.696Z</time></trkpt><trkpt lat="43.4739504" lon="11.8638904"><ele>245.0</ele><time>2026-05-03T12:21:21.687Z</time></trkpt><trkpt lat="43.4741548" lon="11.8640724"><ele>245.0</ele><time>2026-05-03T12:21:22.686Z</time></trkpt><trkpt lat="43.4743671" lon="11.8642575"><ele>245.5</ele><time>2026-05-03T12:21:23.701Z</time></trkpt><trkpt lat="43.4745832" lon="11.864443"><ele>246.0</ele><time>2026-05-03T12:21:24.692Z</time></trkpt><trkpt lat="43.4748011" lon="11.8646294"><ele>246.0</ele><time>2026-05-03T12:21:25.695Z</time></trkpt><trkpt lat="43.4750217" lon="11.8648124"><ele>246.0</ele><time>2026-05-03T12:21:26.688Z</time></trkpt><trkpt lat="43.4752456" lon="11.8649947"><ele>247.0</ele><time>2026-05-03T12:21:27.699Z</time></trkpt><trkpt lat="43.4754757" lon="11.8651718"><ele>248.0</ele><time>2026-05-03T12:21:28.689Z</time></trkpt><trkpt lat="43.475706" lon="11.8653449"><ele>248.0</ele><time>2026-05-03T12:21:29.682Z</time></trkpt><trkpt lat="43.4759383" lon="11.8655228"><ele>248.0</ele><time>2026-05-03T12:21:30.691Z</time></trkpt><trkpt lat="43.4761705" lon="11.8657011"><ele>248.5</ele><time>2026-05-03T12:21:31.694Z</time></trkpt><trkpt lat="43.4764043" lon="11.8658784"><ele>249.0</ele><time>2026-05-03T12:21:32.705Z</time></trkpt><trkpt lat="43.4766328" lon="11.8660544"><ele>249.0</ele><time>2026-05-03T12:21:33.692Z</time></trkpt><trkpt lat="43.4768519" lon="11.8662245"><ele>249.0</ele><time>2026-05-03T12:21:34.687Z</time></trkpt><trkpt lat="43.4770587" lon="11.8663886"><ele>249.0</ele><time>2026-05-03T12:21:35.691Z</time></trkpt><trkpt lat="43.4772468" lon="11.866541"><ele>249.0</ele><time>2026-05-03T12:21:36.694Z</time></trkpt><trkpt lat="43.4774247" lon="11.8666776"><ele>249.0</ele><time>2026-05-03T12:21:37.701Z</time></trkpt><trkpt lat="43.4775748" lon="11.8667968"><ele>248.75</ele><time>2026-05-03T12:21:38.694Z</time></trkpt><trkpt lat="43.4777036" lon="11.8669083"><ele>248.5</ele><time>2026-05-03T12:21:39.704Z</time></trkpt><trkpt lat="43.4778078" lon="11.8670434"><ele>248.25</ele><time>2026-05-03T12:21:40.684Z</time></trkpt><trkpt lat="43.4778804" lon="11.8672046"><ele>248.0</ele><time>2026-05-03T12:21:41.699Z</time></trkpt><trkpt lat="43.4779354" lon="11.8673728"><ele>248.0</ele><time>2026-05-03T12:21:42.69Z</time></trkpt><trkpt lat="43.4780168" lon="11.8675102"><ele>248.0</ele><time>2026-05-03T12:21:43.696Z</time></trkpt><trkpt lat="43.4781347" lon="11.8675761"><ele>248.0</ele><time>2026-05-03T12:21:44.692Z</time></trkpt><trkpt lat="43.4782666" lon="11.8675934"><ele>248.0</ele><time>2026-05-03T12:21:45.673Z</time></trkpt><trkpt lat="43.4784069" lon="11.8675459"><ele>248.0</ele><time>2026-05-03T12:21:46.696Z</time></trkpt><trkpt lat="43.4785533" lon="11.867479"><ele>248.0</ele><time>2026-05-03T12:21:47.693Z</time></trkpt><trkpt lat="43.4787042" lon="11.8674594"><ele>248.0</ele><time>2026-05-03T12:21:48.689Z</time></trkpt><trkpt lat="43.4788558" lon="11.8675063"><ele>248.33333333333334</ele><time>2026-05-03T12:21:49.694Z</time></trkpt><trkpt lat="43.4790203" lon="11.8676088"><ele>248.66666666666669</ele><time>2026-05-03T12:21:50.691Z</time></trkpt><trkpt lat="43.4791876" lon="11.8677359"><ele>249.0</ele><time>2026-05-03T12:21:51.692Z</time></trkpt><trkpt lat="43.4793671" lon="11.8678874"><ele>248.0</ele><time>2026-05-03T12:21:52.685Z</time></trkpt><trkpt lat="43.4795661" lon="11.8680499"><ele>247.0</ele><time>2026-05-03T12:21:53.698Z</time></trkpt><trkpt lat="43.4797827" lon="11.8682186"><ele>247.0</ele><time>2026-05-03T12:21:54.7Z</time></trkpt><trkpt lat="43.4800054" lon="11.8683935"><ele>247.0</ele><time>2026-05-03T12:21:55.688Z</time></trkpt><trkpt lat="43.4802332" lon="11.8685699"><ele>247.0</ele><time>2026-05-03T12:21:56.691Z</time></trkpt><trkpt lat="43.480464" lon="11.8687469"><ele>247.0</ele><time>2026-05-03T12:21:57.69Z</time></trkpt><trkpt lat="43.4806961" lon="11.8689301"><ele>247.0</ele><time>2026-05-03T12:21:58.712Z</time></trkpt><trkpt lat="43.48093" lon="11.8691118"><ele>247.0</ele><time>2026-05-03T12:21:59.69Z</time></trkpt><trkpt lat="43.4811641" lon="11.8692941"><ele>248.0</ele><time>2026-05-03T12:22:00.686Z</time></trkpt><trkpt lat="43.4813994" lon="11.8694791"><ele>249.0</ele><time>2026-05-03T12:22:01.697Z</time></trkpt><trkpt lat="43.4816337" lon="11.8696595"><ele>249.0</ele><time>2026-05-03T12:22:02.69Z</time></trkpt><trkpt lat="43.481869" lon="11.8698394"><ele>249.0</ele><time>2026-05-03T12:22:03.693Z</time></trkpt><trkpt lat="43.4821058" lon="11.8700194"><ele>250.0</ele><time>2026-05-03T12:22:04.696Z</time></trkpt><trkpt lat="43.4823437" lon="11.8702027"><ele>251.0</ele><time>2026-05-03T12:22:05.689Z</time></trkpt><trkpt lat="43.4825822" lon="11.870383"><ele>251.0</ele><time>2026-05-03T12:22:06.699Z</time></trkpt><trkpt lat="43.482817" lon="11.8705632"><ele>251.0</ele><time>2026-05-03T12:22:07.702Z</time></trkpt><trkpt lat="43.4830553" lon="11.8707433"><ele>251.0</ele><time>2026-05-03T12:22:08.694Z</time></trkpt><trkpt lat="43.4832918" lon="11.8709228"><ele>251.0</ele><time>2026-05-03T12:22:09.681Z</time></trkpt><trkpt lat="43.4835264" lon="11.8711024"><ele>251.0</ele><time>2026-05-03T12:22:10.686Z</time></trkpt><trkpt lat="43.4837558" lon="11.8712952"><ele>251.0</ele><time>2026-05-03T12:22:11.693Z</time></trkpt><trkpt lat="43.4839713" lon="11.8715075"><ele>251.0</ele><time>2026-05-03T12:22:12.697Z</time></trkpt><trkpt lat="43.4841762" lon="11.871741"><ele>251.0</ele><time>2026-05-03T12:22:13.684Z</time></trkpt><trkpt lat="43.4843687" lon="11.87199"><ele>251.0</ele><time>2026-05-03T12:22:14.686Z</time></trkpt><trkpt lat="43.4845518" lon="11.8722468"><ele>251.0</ele><time>2026-05-03T12:22:15.712Z</time></trkpt><trkpt lat="43.4847248" lon="11.8725154"><ele>251.0</ele><time>2026-05-03T12:22:16.684Z</time></trkpt><trkpt lat="43.4848879" lon="11.8727975"><ele>251.0</ele><time>2026-05-03T12:22:17.693Z</time></trkpt><trkpt lat="43.4850409" lon="11.8730877"><ele>251.0</ele><time>2026-05-03T12:22:18.69Z</time></trkpt><trkpt lat="43.4851853" lon="11.8733769"><ele>251.0</ele><time>2026-05-03T12:22:19.71Z</time></trkpt><trkpt lat="43.4853124" lon="11.8736697"><ele>251.0</ele><time>2026-05-03T12:22:20.693Z</time></trkpt><trkpt lat="43.4854244" lon="11.8739565"><ele>251.0</ele><time>2026-05-03T12:22:21.701Z</time></trkpt><trkpt lat="43.4855242" lon="11.8742342"><ele>251.0</ele><time>2026-05-03T12:22:22.701Z</time></trkpt><trkpt lat="43.4856091" lon="11.8744996"><ele>251.0</ele><time>2026-05-03T12:22:23.677Z</time></trkpt><trkpt lat="43.4856818" lon="11.8747529"><ele>251.0</ele><time>2026-05-03T12:22:24.693Z</time></trkpt><trkpt lat="43.4857407" lon="11.8749963"><ele>250.66666666666669</ele><time>2026-05-03T12:22:25.697Z</time></trkpt><trkpt lat="43.4857845" lon="11.8752187"><ele>250.33333333333331</ele><time>2026-05-03T12:22:26.707Z</time></trkpt><trkpt lat="43.485814" lon="11.8754254"><ele>250.0</ele><time>2026-05-03T12:22:27.695Z</time></trkpt><trkpt lat="43.4858231" lon="11.8756044"><ele>250.0</ele><time>2026-05-03T12:22:28.688Z</time></trkpt><trkpt lat="43.4858151" lon="11.8757584"><ele>250.0</ele><time>2026-05-03T12:22:29.691Z</time></trkpt><trkpt lat="43.4857801" lon="11.875905"><ele>250.0</ele><time>2026-05-03T12:22:30.697Z</time></trkpt><trkpt lat="43.4857209" lon="11.8760372"><ele>250.0</ele><time>2026-05-03T12:22:31.696Z</time></trkpt><trkpt lat="43.4856764" lon="11.8761722"><ele>250.0</ele><time>2026-05-03T12:22:32.687Z</time></trkpt><trkpt lat="43.4856617" lon="11.8763121"><ele>250.4</ele><time>2026-05-03T12:22:33.707Z</time></trkpt><trkpt lat="43.4856835" lon="11.8764402"><ele>250.8</ele><time>2026-05-03T12:22:34.675Z</time></trkpt><trkpt lat="43.4857436" lon="11.8765502"><ele>251.2</ele><time>2026-05-03T12:22:35.694Z</time></trkpt><trkpt lat="43.4858214" lon="11.8766354"><ele>251.6</ele><time>2026-05-03T12:22:36.686Z</time></trkpt><trkpt lat="43.485914" lon="11.8766769"><ele>252.0</ele><time>2026-05-03T12:22:37.695Z</time></trkpt><trkpt lat="43.4860039" lon="11.8766854"><ele>252.0</ele><time>2026-05-03T12:22:38.685Z</time></trkpt><trkpt lat="43.4860968" lon="11.8766594"><ele>252.0</ele><time>2026-05-03T12:22:39.694Z</time></trkpt><trkpt lat="43.4861756" lon="11.8765919"><ele>252.0</ele><time>2026-05-03T12:22:40.691Z</time></trkpt><trkpt lat="43.4862524" lon="11.8764881"><ele>252.0</ele><time>2026-05-03T12:22:41.691Z</time></trkpt><trkpt lat="43.4863302" lon="11.8763805"><ele>252.0</ele><time>2026-05-03T12:22:42.691Z</time></trkpt><trkpt lat="43.4864165" lon="11.8762838"><ele>252.0</ele><time>2026-05-03T12:22:43.695Z</time></trkpt><trkpt lat="43.4865113" lon="11.876208"><ele>252.0</ele><time>2026-05-03T12:22:44.689Z</time></trkpt><trkpt lat="43.4866195" lon="11.8761609"><ele>252.0</ele><time>2026-05-03T12:22:45.709Z</time></trkpt><trkpt lat="43.4867408" lon="11.8761298"><ele>252.0</ele><time>2026-05-03T12:22:46.692Z</time></trkpt><trkpt lat="43.4868662" lon="11.8761082"><ele>252.0</ele><time>2026-05-03T12:22:47.694Z</time></trkpt><trkpt lat="43.4869962" lon="11.8760853"><ele>252.0</ele><time>2026-05-03T12:22:48.69Z</time></trkpt><trkpt lat="43.4871291" lon="11.876058"><ele>252.0</ele><time>2026-05-03T12:22:49.679Z</time></trkpt><trkpt lat="43.4872686" lon="11.8760272"><ele>252.0</ele><time>2026-05-03T12:22:50.666Z</time></trkpt><trkpt lat="43.4874162" lon="11.8759978"><ele>252.33333333333331</ele><time>2026-05-03T12:22:51.693Z</time></trkpt><trkpt lat="43.4875719" lon="11.8759672"><ele>252.66666666666666</ele><time>2026-05-03T12:22:52.682Z</time></trkpt><trkpt lat="43.4877363" lon="11.8759314"><ele>253.0</ele><time>2026-05-03T12:22:53.694Z</time></trkpt><trkpt lat="43.4879036" lon="11.8758905"><ele>253.0</ele><time>2026-05-03T12:22:54.691Z</time></trkpt><trkpt lat="43.4880733" lon="11.8758522"><ele>253.0</ele><time>2026-05-03T12:22:55.683Z</time></trkpt><trkpt lat="43.4882438" lon="11.8758137"><ele>253.0</ele><time>2026-05-03T12:22:56.708Z</time></trkpt><trkpt lat="43.4884145" lon="11.8757753"><ele>253.0</ele><time>2026-05-03T12:22:57.684Z</time></trkpt><trkpt lat="43.4885897" lon="11.875736"><ele>253.0</ele><time>2026-05-03T12:22:58.691Z</time></trkpt><trkpt lat="43.4887674" lon="11.8756973"><ele>253.0</ele><time>2026-05-03T12:22:59.687Z</time></trkpt><trkpt lat="43.4889416" lon="11.8756552"><ele>253.33333333333331</ele><time>2026-05-03T12:23:00.692Z</time></trkpt><trkpt lat="43.4891111" lon="11.8756164"><ele>253.66666666666669</ele><time>2026-05-03T12:23:01.709Z</time></trkpt><trkpt lat="43.4892753" lon="11.8755842"><ele>254.0</ele><time>2026-05-03T12:23:02.694Z</time></trkpt><trkpt lat="43.4894319" lon="11.8755603"><ele>254.0</ele><time>2026-05-03T12:23:03.685Z</time></trkpt><trkpt lat="43.489587" lon="11.8755595"><ele>254.0</ele><time>2026-05-03T12:23:04.691Z</time></trkpt><trkpt lat="43.4897442" lon="11.8755968"><ele>254.0</ele><time>2026-05-03T12:23:05.676Z</time></trkpt><trkpt lat="43.4898859" lon="11.8756574"><ele>253.5</ele><time>2026-05-03T12:23:06.696Z</time></trkpt><trkpt lat="43.4900146" lon="11.8757279"><ele>253.0</ele><time>2026-05-03T12:23:07.687Z</time></trkpt><trkpt lat="43.4901319" lon="11.8758113"><ele>252.5</ele><time>2026-05-03T12:23:08.684Z</time></trkpt><trkpt lat="43.4902338" lon="11.8759013"><ele>252.0</ele><time>2026-05-03T12:23:09.692Z</time></trkpt><trkpt lat="43.4903272" lon="11.8759808"><ele>252.0</ele><time>2026-05-03T12:23:10.685Z</time></trkpt><trkpt lat="43.4904193" lon="11.8760425"><ele>252.0</ele><time>2026-05-03T12:23:11.691Z</time></trkpt><trkpt lat="43.4905178" lon="11.8760713"><ele>252.0</ele><time>2026-05-03T12:23:12.683Z</time></trkpt><trkpt lat="43.490608" lon="11.8760417"><ele>252.0</ele><time>2026-05-03T12:23:13.691Z</time></trkpt><trkpt lat="43.4906898" lon="11.8759641"><ele>252.0</ele><time>2026-05-03T12:23:14.68Z</time></trkpt><trkpt lat="43.4907535" lon="11.8758521"><ele>252.2</ele><time>2026-05-03T12:23:15.701Z</time></trkpt><trkpt lat="43.4908005" lon="11.8757231"><ele>252.39999999999998</ele><time>2026-05-03T12:23:16.691Z</time></trkpt><trkpt lat="43.4908503" lon="11.8755877"><ele>252.60000000000002</ele><time>2026-05-03T12:23:17.692Z</time></trkpt><trkpt lat="43.4909176" lon="11.8754616"><ele>252.8</ele><time>2026-05-03T12:23:18.693Z</time></trkpt><trkpt lat="43.4910082" lon="11.8753538"><ele>253.0</ele><time>2026-05-03T12:23:19.712Z</time></trkpt><trkpt lat="43.4911121" lon="11.8752673"><ele>253.0</ele><time>2026-05-03T12:23:20.7Z</time></trkpt><trkpt lat="43.4912259" lon="11.8751943"><ele>253.0</ele><time>2026-05-03T12:23:21.696Z</time></trkpt><trkpt lat="43.491341" lon="11.8751402"><ele>253.0</ele><time>2026-05-03T12:23:22.694Z</time></trkpt><trkpt lat="43.4914567" lon="11.8750996"><ele>253.0</ele><time>2026-05-03T12:23:23.7Z</time></trkpt><trkpt lat="43.4915675" lon="11.8750782"><ele>252.99999999999997</ele><time>2026-05-03T12:23:24.693Z</time></trkpt><trkpt lat="43.4916645" lon="11.8750609"><ele>253.0</ele><time>2026-05-03T12:23:25.694Z</time></trkpt><trkpt lat="43.4917535" lon="11.8750697"><ele>253.0</ele><time>2026-05-03T12:23:26.697Z</time></trkpt><trkpt lat="43.4918245" lon="11.875127"><ele>253.0</ele><time>2026-05-03T12:23:27.687Z</time></trkpt><trkpt lat="43.4918777" lon="11.8752197"><ele>252.99999999999997</ele><time>2026-05-03T12:23:28.688Z</time></trkpt><trkpt lat="43.4919193" lon="11.8753124"><ele>253.0</ele><time>2026-05-03T12:23:29.7Z</time></trkpt><trkpt lat="43.4919463" lon="11.875399"><ele>252.99999999999997</ele><time>2026-05-03T12:23:30.681Z</time></trkpt><trkpt lat="43.4919665" lon="11.8755248"><ele>253.0</ele><time>2026-05-03T12:23:32.697Z</time></trkpt><trkpt lat="43.4919018" lon="11.8755499"><ele>253.0</ele><time>2026-05-03T12:42:46.674Z</time></trkpt><trkpt lat="43.4918382" lon="11.8755991"><ele>253.0</ele><time>2026-05-03T12:42:51.687Z</time></trkpt><trkpt lat="43.4918647" lon="11.8756842"><ele>252.99999999999997</ele><time>2026-05-03T12:42:54.698Z</time></trkpt><trkpt lat="43.4919103" lon="11.8757693"><ele>253.0</ele><time>2026-05-03T12:42:57.687Z</time></trkpt><trkpt lat="43.4919943" lon="11.8757988"><ele>252.99999999999997</ele><time>2026-05-03T12:43:00.688Z</time></trkpt><trkpt lat="43.4920866" lon="11.8757915"><ele>253.0</ele><time>2026-05-03T12:43:03.696Z</time></trkpt><trkpt lat="43.4921423" lon="11.875737"><ele>253.0</ele><time>2026-05-03T12:43:05.685Z</time></trkpt><trkpt lat="43.4921756" lon="11.8756541"><ele>253.0</ele><time>2026-05-03T12:43:07.688Z</time></trkpt><trkpt lat="43.492197" lon="11.875569"><ele>252.99999999999997</ele><time>2026-05-03T12:47:41.689Z</time></trkpt><trkpt lat="43.4921611" lon="11.8754893"><ele>253.0</ele><time>2026-05-03T12:47:43.693Z</time></trkpt><trkpt lat="43.4921103" lon="11.8753863"><ele>252.99999999999997</ele><time>2026-05-03T12:47:45.686Z</time></trkpt><trkpt lat="43.4920534" lon="11.8753177"><ele>253.0</ele><time>2026-05-03T12:47:47.69Z</time></trkpt><trkpt lat="43.4919591" lon="11.875337"><ele>253.0</ele><time>2026-05-03T12:47:50.676Z</time></trkpt><trkpt lat="43.4919208" lon="11.8754323"><ele>253.0</ele><time>2026-05-03T12:47:53.683Z</time></trkpt><trkpt lat="43.491823" lon="11.8753707"><ele>252.99999999999997</ele><time>2026-05-03T12:50:53.687Z</time></trkpt><trkpt lat="43.4917997" lon="11.8752871"><ele>253.0</ele><time>2026-05-03T12:50:54.681Z</time></trkpt><trkpt lat="43.4918067" lon="11.8751801"><ele>253.0</ele><time>2026-05-03T12:50:55.693Z</time></trkpt><trkpt lat="43.4918226" lon="11.8750917"><ele>253.0</ele><time>2026-05-03T12:50:56.689Z</time></trkpt><trkpt lat="43.491918" lon="11.8749981"><ele>253.0</ele><time>2026-05-03T12:50:58.686Z</time></trkpt><trkpt lat="43.4920178" lon="11.8749743"><ele>253.0</ele><time>2026-05-03T12:50:59.682Z</time></trkpt><trkpt lat="43.4921427" lon="11.8749573"><ele>253.0</ele><time>2026-05-03T12:51:00.686Z</time></trkpt><trkpt lat="43.4922915" lon="11.8749379"><ele>252.66666666666666</ele><time>2026-05-03T12:51:01.692Z</time></trkpt><trkpt lat="43.4924568" lon="11.8749073"><ele>252.33333333333331</ele><time>2026-05-03T12:51:02.68Z</time></trkpt><trkpt lat="43.4926354" lon="11.8748682"><ele>252.0</ele><time>2026-05-03T12:51:03.685Z</time></trkpt><trkpt lat="43.4928224" lon="11.874828"><ele>252.66666666666669</ele><time>2026-05-03T12:51:04.696Z</time></trkpt><trkpt lat="43.4930122" lon="11.8747812"><ele>253.33333333333334</ele><time>2026-05-03T12:51:05.698Z</time></trkpt><trkpt lat="43.4932046" lon="11.8747403"><ele>254.0</ele><time>2026-05-03T12:51:06.685Z</time></trkpt><trkpt lat="43.4933882" lon="11.8746958"><ele>254.0</ele><time>2026-05-03T12:51:07.681Z</time></trkpt><trkpt lat="43.4935631" lon="11.874651"><ele>254.0</ele><time>2026-05-03T12:51:08.684Z</time></trkpt><trkpt lat="43.493735" lon="11.8746089"><ele>254.0</ele><time>2026-05-03T12:51:09.672Z</time></trkpt><trkpt lat="43.4939064" lon="11.8745633"><ele>254.0</ele><time>2026-05-03T12:51:10.69Z</time></trkpt><trkpt lat="43.4940781" lon="11.8745244"><ele>254.0</ele><time>2026-05-03T12:51:11.69Z</time></trkpt><trkpt lat="43.4942517" lon="11.8744839"><ele>254.0</ele><time>2026-05-03T12:51:12.675Z</time></trkpt><trkpt lat="43.4944295" lon="11.8744435"><ele>253.0</ele><time>2026-05-03T12:51:13.704Z</time></trkpt><trkpt lat="43.4946062" lon="11.8743966"><ele>252.0</ele><time>2026-05-03T12:51:14.685Z</time></trkpt><trkpt lat="43.4947811" lon="11.874352"><ele>251.0</ele><time>2026-05-03T12:51:15.693Z</time></trkpt><trkpt lat="43.4949563" lon="11.8743119"><ele>251.0</ele><time>2026-05-03T12:51:16.672Z</time></trkpt><trkpt lat="43.4951303" lon="11.8742701"><ele>251.0</ele><time>2026-05-03T12:51:17.69Z</time></trkpt><trkpt lat="43.4953055" lon="11.8742316"><ele>251.0</ele><time>2026-05-03T12:51:18.681Z</time></trkpt><trkpt lat="43.495481" lon="11.8741909"><ele>251.0</ele><time>2026-05-03T12:51:19.687Z</time></trkpt><trkpt lat="43.4956577" lon="11.874151"><ele>251.0</ele><time>2026-05-03T12:51:20.683Z</time></trkpt><trkpt lat="43.4958325" lon="11.8741142"><ele>251.0</ele><time>2026-05-03T12:51:21.672Z</time></trkpt><trkpt lat="43.4960056" lon="11.874076"><ele>251.0</ele><time>2026-05-03T12:51:22.678Z</time></trkpt><trkpt lat="43.4961764" lon="11.8740384"><ele>251.0</ele><time>2026-05-03T12:51:23.674Z</time></trkpt><trkpt lat="43.4963304" lon="11.8739991"><ele>251.0</ele><time>2026-05-03T12:51:24.681Z</time></trkpt><trkpt lat="43.4964563" lon="11.8739678"><ele>251.16666666666669</ele><time>2026-05-03T12:51:25.678Z</time></trkpt><trkpt lat="43.4965534" lon="11.8739479"><ele>251.33333333333334</ele><time>2026-05-03T12:51:26.681Z</time></trkpt><trkpt lat="43.4966272" lon="11.8739311"><ele>251.5</ele><time>2026-05-03T12:51:27.688Z</time></trkpt><trkpt lat="43.4967103" lon="11.8739128"><ele>251.66666666666669</ele><time>2026-05-03T12:51:29.694Z</time></trkpt><trkpt lat="43.496792" lon="11.8738407"><ele>251.83333333333334</ele><time>2026-05-03T12:51:32.684Z</time></trkpt><trkpt lat="43.4967881" lon="11.8737444"><ele>252.0</ele><time>2026-05-03T12:51:33.684Z</time></trkpt><trkpt lat="43.496777" lon="11.8736311"><ele>252.0</ele><time>2026-05-03T12:51:34.673Z</time></trkpt><trkpt lat="43.4967578" lon="11.8735133"><ele>252.0</ele><time>2026-05-03T12:51:35.683Z</time></trkpt><trkpt lat="43.4967398" lon="11.8734104"><ele>252.0</ele><time>2026-05-03T12:51:36.688Z</time></trkpt><trkpt lat="43.4966703" lon="11.8732795"><ele>252.0</ele><time>2026-05-03T12:51:38.673Z</time></trkpt><trkpt lat="43.4966011" lon="11.8732637"><ele>252.0</ele><time>2026-05-03T12:51:39.695Z</time></trkpt><trkpt lat="43.4965232" lon="11.8732824"><ele>252.0</ele><time>2026-05-03T12:51:40.671Z</time></trkpt><trkpt lat="43.4964494" lon="11.873301"><ele>253.0</ele><time>2026-05-03T12:51:41.674Z</time></trkpt><trkpt lat="43.4963827" lon="11.8733087"><ele>253.0</ele><time>2026-05-03T12:51:42.691Z</time></trkpt><trkpt lat="43.4962797" lon="11.873308"><ele>253.0</ele><time>2026-05-03T12:51:44.676Z</time></trkpt><trkpt lat="43.4962472" lon="11.8733878"><ele>254.0</ele><time>2026-05-03T12:51:46.681Z</time></trkpt><trkpt lat="43.4962511" lon="11.8734776"><ele>251.0</ele><time>2026-05-03T12:59:29.675Z</time></trkpt><trkpt lat="43.4962407" lon="11.8735669"><ele>251.0</ele><time>2026-05-03T13:09:18.665Z</time></trkpt><trkpt lat="43.496283" lon="11.8734998"><ele>252.0</ele><time>2026-05-03T13:10:52.666Z</time></trkpt></trkseg></trk></gpx>